<?xml version="1.0" encoding="UTF-8"?>
<gpx version="1.1" creator="2bulu-scraper" xmlns="http://www.topografix.com/GPX/1/1">
  <metadata><name>峨眉山徒步</name><desc>source: 2bulu.com trackId=87385445; exported 2026-09-01T15:57:39.840Z</desc>
    <bounds minlat="29.522542" minlon="103.326766" maxlat="29.583119" maxlon="103.441612"/>
    <link href="https://www.2bulu.com/track/t-gvfrmjwgh%252B%252Fp%252FR2KBg5Tzw%253D%253D.htm"><text>2bulu 源页面</text></link>
  </metadata>
  <wpt lat="29.565813" lon="103.435381"><ele>571</ele><name></name></wpt>
  <wpt lat="29.564162" lon="103.434803"><ele>604</ele><name></name></wpt>
  <wpt lat="29.564163" lon="103.434776"><ele>603</ele><name></name></wpt>
  <wpt lat="29.565383" lon="103.421246"><ele>839</ele><name></name></wpt>
  <wpt lat="29.566347" lon="103.420697"><ele>846</ele><name></name></wpt>
  <wpt lat="29.570324" lon="103.417063"><ele>917</ele><name></name></wpt>
  <wpt lat="29.5687" lon="103.410131"><ele>873</ele><name></name></wpt>
  <wpt lat="29.566756" lon="103.408044"><ele>815</ele><name></name></wpt>
  <wpt lat="29.572019" lon="103.400855"><ele>784</ele><name>检票口</name></wpt>
  <wpt lat="29.573546" lon="103.393571"><ele>724</ele><name></name></wpt>
  <wpt lat="29.573632" lon="103.393481"><ele>724</ele><name></name></wpt>
  <wpt lat="29.574101" lon="103.392461"><ele>696</ele><name></name></wpt>
  <wpt lat="29.574209" lon="103.392407"><ele>697</ele><name></name></wpt>
  <wpt lat="29.578063" lon="103.39081"><ele>801</ele><name></name></wpt>
  <wpt lat="29.578394" lon="103.389066"><ele>814</ele><name></name></wpt>
  <wpt lat="29.581348" lon="103.38439"><ele>981</ele><name></name></wpt>
  <wpt lat="29.581343" lon="103.382948"><ele>1009</ele><name></name></wpt>
  <wpt lat="29.581325" lon="103.382867"><ele>1008</ele><name></name></wpt>
  <wpt lat="29.5819" lon="103.382936"><ele>990</ele><name></name></wpt>
  <wpt lat="29.582863" lon="103.379552"><ele>1016</ele><name></name></wpt>
  <wpt lat="29.582037" lon="103.376553"><ele>1138</ele><name></name></wpt>
  <wpt lat="29.580645" lon="103.376282"><ele>1242</ele><name></name></wpt>
  <wpt lat="29.58071" lon="103.375401"><ele>1288</ele><name></name></wpt>
  <wpt lat="29.577487" lon="103.370704"><ele>1471</ele><name></name></wpt>
  <wpt lat="29.574661" lon="103.36365"><ele>1576</ele><name></name></wpt>
  <wpt lat="29.568466" lon="103.359967"><ele>1739</ele><name></name></wpt>
  <wpt lat="29.564153" lon="103.356445"><ele>1913</ele><name></name></wpt>
  <wpt lat="29.562916" lon="103.350807"><ele>1834</ele><name></name></wpt>
  <wpt lat="29.563256" lon="103.347133"><ele>1828</ele><name></name></wpt>
  <wpt lat="29.56143" lon="103.345326"><ele>1813</ele><name></name></wpt>
  <wpt lat="29.558862" lon="103.344344"><ele>2057</ele><name></name></wpt>
  <wpt lat="29.558725" lon="103.344212"><ele>2064</ele><name></name></wpt>
  <wpt lat="29.549289" lon="103.341785"><ele>2278</ele><name></name></wpt>
  <wpt lat="29.546806" lon="103.339326"><ele>2411</ele><name></name></wpt>
  <wpt lat="29.54657" lon="103.337072"><ele>2460</ele><name></name></wpt>
  <wpt lat="29.542029" lon="103.332087"><ele>2422</ele><name></name></wpt>
  <wpt lat="29.531225" lon="103.327399"><ele>2812</ele><name></name></wpt>
  <wpt lat="29.527297" lon="103.332471"><ele>2954</ele><name></name></wpt>
  <wpt lat="29.527287" lon="103.332484"><ele>2954</ele><name></name></wpt>
  <wpt lat="29.525069" lon="103.334797"><ele>3023</ele><name></name></wpt>
  <wpt lat="29.522704" lon="103.33551"><ele>3055</ele><name></name></wpt>
  <trk><name>峨眉山徒步</name>
      <trkseg>
        <trkpt lat="29.569078" lon="103.441612"><ele>524.9498</ele><time>2026-07-20T20:15:22.000Z</time></trkpt>
        <trkpt lat="29.569041" lon="103.441533"><ele>520.32825</ele><time>2026-07-20T20:15:36.000Z</time></trkpt>
        <trkpt lat="29.569041" lon="103.441533"><ele>520.0739</ele><time>2026-07-20T20:15:38.000Z</time></trkpt>
        <trkpt lat="29.569041" lon="103.441526"><ele>521.24066</ele><time>2026-07-20T20:15:40.000Z</time></trkpt>
        <trkpt lat="29.569044" lon="103.441467"><ele>522.1895</ele><time>2026-07-20T20:15:44.000Z</time></trkpt>
        <trkpt lat="29.569046" lon="103.441441"><ele>522.7261</ele><time>2026-07-20T20:15:46.000Z</time></trkpt>
        <trkpt lat="29.569049" lon="103.441417"><ele>523.4608</ele><time>2026-07-20T20:15:48.000Z</time></trkpt>
        <trkpt lat="29.569056" lon="103.441391"><ele>523.4071</ele><time>2026-07-20T20:15:50.000Z</time></trkpt>
        <trkpt lat="29.569064" lon="103.44137"><ele>521.7328</ele><time>2026-07-20T20:15:52.000Z</time></trkpt>
        <trkpt lat="29.569073" lon="103.441348"><ele>522.3255</ele><time>2026-07-20T20:15:54.000Z</time></trkpt>
        <trkpt lat="29.569086" lon="103.441325"><ele>523.3819</ele><time>2026-07-20T20:15:56.000Z</time></trkpt>
        <trkpt lat="29.569097" lon="103.441306"><ele>524.6961</ele><time>2026-07-20T20:15:58.000Z</time></trkpt>
        <trkpt lat="29.569102" lon="103.441306"><ele>526.28076</ele><time>2026-07-20T20:16:00.000Z</time></trkpt>
        <trkpt lat="29.56915" lon="103.441308"><ele>530.1205</ele><time>2026-07-20T20:16:48.000Z</time></trkpt>
        <trkpt lat="29.569107" lon="103.441227"><ele>526.2152</ele><time>2026-07-20T20:16:57.000Z</time></trkpt>
        <trkpt lat="29.569106" lon="103.441215"><ele>527.6308</ele><time>2026-07-20T20:16:59.000Z</time></trkpt>
        <trkpt lat="29.569106" lon="103.441185"><ele>527.59174</ele><time>2026-07-20T20:17:02.000Z</time></trkpt>
        <trkpt lat="29.569108" lon="103.441123"><ele>527.39014</ele><time>2026-07-20T20:17:10.000Z</time></trkpt>
        <trkpt lat="29.569112" lon="103.441092"><ele>528.90405</ele><time>2026-07-20T20:17:12.000Z</time></trkpt>
        <trkpt lat="29.56912" lon="103.44107"><ele>529.36725</ele><time>2026-07-20T20:17:14.000Z</time></trkpt>
        <trkpt lat="29.56913" lon="103.441048"><ele>529.95215</ele><time>2026-07-20T20:17:16.000Z</time></trkpt>
        <trkpt lat="29.56915" lon="103.441014"><ele>530.15173</ele><time>2026-07-20T20:17:20.000Z</time></trkpt>
        <trkpt lat="29.569162" lon="103.441006"><ele>531.66437</ele><time>2026-07-20T20:17:22.000Z</time></trkpt>
        <trkpt lat="29.569175" lon="103.441005"><ele>533.26965</ele><time>2026-07-20T20:17:24.000Z</time></trkpt>
        <trkpt lat="29.569218" lon="103.441002"><ele>533.2245</ele><time>2026-07-20T20:17:28.000Z</time></trkpt>
        <trkpt lat="29.569247" lon="103.440999"><ele>532.1286</ele><time>2026-07-20T20:17:30.000Z</time></trkpt>
        <trkpt lat="29.569279" lon="103.440999"><ele>532.1449</ele><time>2026-07-20T20:17:32.000Z</time></trkpt>
        <trkpt lat="29.56931" lon="103.441002"><ele>532.57086</ele><time>2026-07-20T20:17:34.000Z</time></trkpt>
        <trkpt lat="29.569338" lon="103.441007"><ele>532.2405</ele><time>2026-07-20T20:17:36.000Z</time></trkpt>
        <trkpt lat="29.569356" lon="103.441012"><ele>531.78925</ele><time>2026-07-20T20:17:38.000Z</time></trkpt>
        <trkpt lat="29.569362" lon="103.441019"><ele>532.9145</ele><time>2026-07-20T20:17:40.000Z</time></trkpt>
        <trkpt lat="29.569315" lon="103.440956"><ele>541.324</ele><time>2026-07-20T20:18:16.000Z</time></trkpt>
        <trkpt lat="29.569321" lon="103.440934"><ele>541.24</ele><time>2026-07-20T20:18:18.000Z</time></trkpt>
        <trkpt lat="29.569321" lon="103.440932"><ele>541.53894</ele><time>2026-07-20T20:18:20.000Z</time></trkpt>
        <trkpt lat="29.56933" lon="103.441002"><ele>537.20703</ele><time>2026-07-20T20:18:30.000Z</time></trkpt>
        <trkpt lat="29.56933" lon="103.441002"><ele>537.29376</ele><time>2026-07-20T20:18:32.000Z</time></trkpt>
        <trkpt lat="29.569327" lon="103.441001"><ele>537.44324</ele><time>2026-07-20T20:18:34.000Z</time></trkpt>
        <trkpt lat="29.569396" lon="103.441023"><ele>534.65564</ele><time>2026-07-20T20:18:53.000Z</time></trkpt>
        <trkpt lat="29.569396" lon="103.441023"><ele>534.43317</ele><time>2026-07-20T20:18:55.000Z</time></trkpt>
        <trkpt lat="29.569401" lon="103.441022"><ele>534.527</ele><time>2026-07-20T20:18:57.000Z</time></trkpt>
        <trkpt lat="29.56945" lon="103.441015"><ele>531.267</ele><time>2026-07-20T20:19:01.000Z</time></trkpt>
        <trkpt lat="29.56948" lon="103.441014"><ele>530.7767</ele><time>2026-07-20T20:19:03.000Z</time></trkpt>
        <trkpt lat="29.569506" lon="103.441015"><ele>532.1192</ele><time>2026-07-20T20:19:05.000Z</time></trkpt>
        <trkpt lat="29.569531" lon="103.441016"><ele>531.13074</ele><time>2026-07-20T20:19:07.000Z</time></trkpt>
        <trkpt lat="29.569549" lon="103.441016"><ele>531.99396</ele><time>2026-07-20T20:19:09.000Z</time></trkpt>
        <trkpt lat="29.569564" lon="103.441014"><ele>532.6909</ele><time>2026-07-20T20:19:11.000Z</time></trkpt>
        <trkpt lat="29.569579" lon="103.441012"><ele>534.09546</ele><time>2026-07-20T20:19:13.000Z</time></trkpt>
        <trkpt lat="29.569594" lon="103.44101"><ele>534.4819</ele><time>2026-07-20T20:19:15.000Z</time></trkpt>
        <trkpt lat="29.569609" lon="103.441008"><ele>535.49854</ele><time>2026-07-20T20:19:17.000Z</time></trkpt>
        <trkpt lat="29.569622" lon="103.441008"><ele>536.65076</ele><time>2026-07-20T20:19:19.000Z</time></trkpt>
        <trkpt lat="29.569643" lon="103.441007"><ele>537.0468</ele><time>2026-07-20T20:19:20.000Z</time></trkpt>
        <trkpt lat="29.569668" lon="103.441003"><ele>537.3153</ele><time>2026-07-20T20:19:22.000Z</time></trkpt>
        <trkpt lat="29.569692" lon="103.440998"><ele>537.296</ele><time>2026-07-20T20:19:25.000Z</time></trkpt>
        <trkpt lat="29.56972" lon="103.440991"><ele>539.74756</ele><time>2026-07-20T20:19:27.000Z</time></trkpt>
        <trkpt lat="29.569746" lon="103.440986"><ele>541.4168</ele><time>2026-07-20T20:19:29.000Z</time></trkpt>
        <trkpt lat="29.569766" lon="103.440985"><ele>540.3566</ele><time>2026-07-20T20:19:31.000Z</time></trkpt>
        <trkpt lat="29.569786" lon="103.440985"><ele>541.7995</ele><time>2026-07-20T20:19:33.000Z</time></trkpt>
        <trkpt lat="29.56981" lon="103.440987"><ele>542.8685</ele><time>2026-07-20T20:19:35.000Z</time></trkpt>
        <trkpt lat="29.569832" lon="103.440993"><ele>543.50037</ele><time>2026-07-20T20:19:37.000Z</time></trkpt>
        <trkpt lat="29.569851" lon="103.441003"><ele>541.8136</ele><time>2026-07-20T20:19:39.000Z</time></trkpt>
        <trkpt lat="29.569872" lon="103.441016"><ele>540.99255</ele><time>2026-07-20T20:19:41.000Z</time></trkpt>
        <trkpt lat="29.569897" lon="103.44103"><ele>541.1213</ele><time>2026-07-20T20:19:43.000Z</time></trkpt>
        <trkpt lat="29.569916" lon="103.441039"><ele>541.71985</ele><time>2026-07-20T20:19:45.000Z</time></trkpt>
        <trkpt lat="29.569937" lon="103.441049"><ele>540.45984</ele><time>2026-07-20T20:19:47.000Z</time></trkpt>
        <trkpt lat="29.569958" lon="103.441064"><ele>538.1141</ele><time>2026-07-20T20:19:49.000Z</time></trkpt>
        <trkpt lat="29.569977" lon="103.44108"><ele>537.20734</ele><time>2026-07-20T20:19:51.000Z</time></trkpt>
        <trkpt lat="29.569995" lon="103.441095"><ele>535.78357</ele><time>2026-07-20T20:19:53.000Z</time></trkpt>
        <trkpt lat="29.570016" lon="103.441114"><ele>535.9647</ele><time>2026-07-20T20:19:55.000Z</time></trkpt>
        <trkpt lat="29.570037" lon="103.441133"><ele>535.83</ele><time>2026-07-20T20:19:57.000Z</time></trkpt>
        <trkpt lat="29.570056" lon="103.441149"><ele>536.4623</ele><time>2026-07-20T20:19:59.000Z</time></trkpt>
        <trkpt lat="29.570073" lon="103.441163"><ele>536.6371</ele><time>2026-07-20T20:20:01.000Z</time></trkpt>
        <trkpt lat="29.570092" lon="103.441177"><ele>536.0326</ele><time>2026-07-20T20:20:03.000Z</time></trkpt>
        <trkpt lat="29.570112" lon="103.441193"><ele>534.83905</ele><time>2026-07-20T20:20:05.000Z</time></trkpt>
        <trkpt lat="29.570127" lon="103.441205"><ele>534.4634</ele><time>2026-07-20T20:20:07.000Z</time></trkpt>
        <trkpt lat="29.570139" lon="103.441216"><ele>534.973</ele><time>2026-07-20T20:20:09.000Z</time></trkpt>
        <trkpt lat="29.570146" lon="103.441226"><ele>535.51117</ele><time>2026-07-20T20:20:11.000Z</time></trkpt>
        <trkpt lat="29.570155" lon="103.441236"><ele>536.27985</ele><time>2026-07-20T20:20:13.000Z</time></trkpt>
        <trkpt lat="29.570169" lon="103.441248"><ele>536.2308</ele><time>2026-07-20T20:20:15.000Z</time></trkpt>
        <trkpt lat="29.570186" lon="103.441262"><ele>536.0584</ele><time>2026-07-20T20:20:17.000Z</time></trkpt>
        <trkpt lat="29.570204" lon="103.441276"><ele>534.34845</ele><time>2026-07-20T20:20:19.000Z</time></trkpt>
        <trkpt lat="29.57022" lon="103.441292"><ele>534.3919</ele><time>2026-07-20T20:20:21.000Z</time></trkpt>
        <trkpt lat="29.570235" lon="103.441309"><ele>534.7351</ele><time>2026-07-20T20:20:23.000Z</time></trkpt>
        <trkpt lat="29.570252" lon="103.441329"><ele>535.7019</ele><time>2026-07-20T20:20:25.000Z</time></trkpt>
        <trkpt lat="29.570269" lon="103.441346"><ele>536.3099</ele><time>2026-07-20T20:20:27.000Z</time></trkpt>
        <trkpt lat="29.570287" lon="103.441358"><ele>536.06616</ele><time>2026-07-20T20:20:29.000Z</time></trkpt>
        <trkpt lat="29.570305" lon="103.441368"><ele>536.3841</ele><time>2026-07-20T20:20:31.000Z</time></trkpt>
        <trkpt lat="29.570327" lon="103.441374"><ele>536.19977</ele><time>2026-07-20T20:20:33.000Z</time></trkpt>
        <trkpt lat="29.570353" lon="103.441381"><ele>536.0192</ele><time>2026-07-20T20:20:35.000Z</time></trkpt>
        <trkpt lat="29.57038" lon="103.441388"><ele>536.21643</ele><time>2026-07-20T20:20:37.000Z</time></trkpt>
        <trkpt lat="29.5704" lon="103.441395"><ele>534.6423</ele><time>2026-07-20T20:20:39.000Z</time></trkpt>
        <trkpt lat="29.570418" lon="103.441404"><ele>534.48065</ele><time>2026-07-20T20:20:41.000Z</time></trkpt>
        <trkpt lat="29.570435" lon="103.441414"><ele>535.10645</ele><time>2026-07-20T20:20:43.000Z</time></trkpt>
        <trkpt lat="29.570453" lon="103.441421"><ele>535.2453</ele><time>2026-07-20T20:20:45.000Z</time></trkpt>
        <trkpt lat="29.570471" lon="103.441431"><ele>535.6063</ele><time>2026-07-20T20:20:47.000Z</time></trkpt>
        <trkpt lat="29.570489" lon="103.44144"><ele>536.20636</ele><time>2026-07-20T20:20:49.000Z</time></trkpt>
        <trkpt lat="29.57051" lon="103.441445"><ele>536.79877</ele><time>2026-07-20T20:20:51.000Z</time></trkpt>
        <trkpt lat="29.570535" lon="103.441445"><ele>537.1469</ele><time>2026-07-20T20:20:53.000Z</time></trkpt>
        <trkpt lat="29.570559" lon="103.44144"><ele>536.337</ele><time>2026-07-20T20:20:55.000Z</time></trkpt>
        <trkpt lat="29.570581" lon="103.44143"><ele>535.87195</ele><time>2026-07-20T20:20:57.000Z</time></trkpt>
        <trkpt lat="29.570601" lon="103.441413"><ele>536.2736</ele><time>2026-07-20T20:20:59.000Z</time></trkpt>
        <trkpt lat="29.570615" lon="103.441391"><ele>536.02234</ele><time>2026-07-20T20:21:01.000Z</time></trkpt>
        <trkpt lat="29.570622" lon="103.441369"><ele>536.11456</ele><time>2026-07-20T20:21:03.000Z</time></trkpt>
        <trkpt lat="29.570625" lon="103.441352"><ele>537.87335</ele><time>2026-07-20T20:21:05.000Z</time></trkpt>
        <trkpt lat="29.570626" lon="103.441345"><ele>537.89856</ele><time>2026-07-20T20:21:07.000Z</time></trkpt>
        <trkpt lat="29.570625" lon="103.441331"><ele>539.2608</ele><time>2026-07-20T20:21:11.000Z</time></trkpt>
        <trkpt lat="29.570624" lon="103.441301"><ele>541.39984</ele><time>2026-07-20T20:21:15.000Z</time></trkpt>
        <trkpt lat="29.570624" lon="103.441276"><ele>540.2862</ele><time>2026-07-20T20:21:17.000Z</time></trkpt>
        <trkpt lat="29.570625" lon="103.441247"><ele>540.24493</ele><time>2026-07-20T20:21:19.000Z</time></trkpt>
        <trkpt lat="29.570625" lon="103.441225"><ele>541.768</ele><time>2026-07-20T20:21:21.000Z</time></trkpt>
        <trkpt lat="29.570623" lon="103.441199"><ele>539.7471</ele><time>2026-07-20T20:21:23.000Z</time></trkpt>
        <trkpt lat="29.570617" lon="103.441178"><ele>538.17175</ele><time>2026-07-20T20:21:25.000Z</time></trkpt>
        <trkpt lat="29.570614" lon="103.441164"><ele>537.40857</ele><time>2026-07-20T20:21:26.000Z</time></trkpt>
        <trkpt lat="29.570611" lon="103.441147"><ele>537.0094</ele><time>2026-07-20T20:21:28.000Z</time></trkpt>
        <trkpt lat="29.570605" lon="103.441138"><ele>536.82465</ele><time>2026-07-20T20:21:30.000Z</time></trkpt>
        <trkpt lat="29.570599" lon="103.441132"><ele>535.9206</ele><time>2026-07-20T20:21:32.000Z</time></trkpt>
        <trkpt lat="29.570588" lon="103.441123"><ele>535.9814</ele><time>2026-07-20T20:21:35.000Z</time></trkpt>
        <trkpt lat="29.57058" lon="103.441118"><ele>535.7721</ele><time>2026-07-20T20:21:37.000Z</time></trkpt>
        <trkpt lat="29.570566" lon="103.441111"><ele>535.58813</ele><time>2026-07-20T20:21:39.000Z</time></trkpt>
        <trkpt lat="29.570552" lon="103.441104"><ele>536.8787</ele><time>2026-07-20T20:21:41.000Z</time></trkpt>
        <trkpt lat="29.570537" lon="103.441097"><ele>537.9362</ele><time>2026-07-20T20:21:43.000Z</time></trkpt>
        <trkpt lat="29.570516" lon="103.441088"><ele>538.04114</ele><time>2026-07-20T20:21:45.000Z</time></trkpt>
        <trkpt lat="29.570498" lon="103.441075"><ele>538.2697</ele><time>2026-07-20T20:21:47.000Z</time></trkpt>
        <trkpt lat="29.570478" lon="103.44106"><ele>538.24475</ele><time>2026-07-20T20:21:49.000Z</time></trkpt>
        <trkpt lat="29.57046" lon="103.441049"><ele>539.09265</ele><time>2026-07-20T20:21:51.000Z</time></trkpt>
        <trkpt lat="29.570442" lon="103.441042"><ele>537.8776</ele><time>2026-07-20T20:21:53.000Z</time></trkpt>
        <trkpt lat="29.570424" lon="103.441036"><ele>537.11505</ele><time>2026-07-20T20:21:55.000Z</time></trkpt>
        <trkpt lat="29.57041" lon="103.441029"><ele>536.97186</ele><time>2026-07-20T20:21:57.000Z</time></trkpt>
        <trkpt lat="29.570396" lon="103.441024"><ele>536.2309</ele><time>2026-07-20T20:21:59.000Z</time></trkpt>
        <trkpt lat="29.570392" lon="103.441022"><ele>536.4537</ele><time>2026-07-20T20:22:01.000Z</time></trkpt>
        <trkpt lat="29.57045" lon="103.441055"><ele>535.5274</ele><time>2026-07-20T20:22:07.000Z</time></trkpt>
        <trkpt lat="29.57045" lon="103.441055"><ele>536.0028</ele><time>2026-07-20T20:22:09.000Z</time></trkpt>
        <trkpt lat="29.57045" lon="103.441055"><ele>536.28094</ele><time>2026-07-20T20:22:11.000Z</time></trkpt>
        <trkpt lat="29.570398" lon="103.44102"><ele>535.7395</ele><time>2026-07-20T20:22:15.000Z</time></trkpt>
        <trkpt lat="29.570375" lon="103.441011"><ele>536.0091</ele><time>2026-07-20T20:22:17.000Z</time></trkpt>
        <trkpt lat="29.570369" lon="103.441016"><ele>536.5492</ele><time>2026-07-20T20:22:19.000Z</time></trkpt>
        <trkpt lat="29.570303" lon="103.441071"><ele>537.74915</ele><time>2026-07-20T20:22:29.000Z</time></trkpt>
        <trkpt lat="29.570303" lon="103.441071"><ele>537.93176</ele><time>2026-07-20T20:22:31.000Z</time></trkpt>
        <trkpt lat="29.570404" lon="103.441135"><ele>538.41754</ele><time>2026-07-20T20:22:39.000Z</time></trkpt>
        <trkpt lat="29.570406" lon="103.44114"><ele>538.576</ele><time>2026-07-20T20:22:41.000Z</time></trkpt>
        <trkpt lat="29.570405" lon="103.441118"><ele>538.91394</ele><time>2026-07-20T20:22:43.000Z</time></trkpt>
        <trkpt lat="29.570399" lon="103.441023"><ele>539.74396</ele><time>2026-07-20T20:22:47.000Z</time></trkpt>
        <trkpt lat="29.570422" lon="103.44101"><ele>539.6607</ele><time>2026-07-20T20:22:49.000Z</time></trkpt>
        <trkpt lat="29.570446" lon="103.441006"><ele>538.9503</ele><time>2026-07-20T20:22:51.000Z</time></trkpt>
        <trkpt lat="29.570475" lon="103.441005"><ele>539.3673</ele><time>2026-07-20T20:22:53.000Z</time></trkpt>
        <trkpt lat="29.570504" lon="103.441005"><ele>539.68677</ele><time>2026-07-20T20:22:55.000Z</time></trkpt>
        <trkpt lat="29.570526" lon="103.441002"><ele>540.78534</ele><time>2026-07-20T20:22:57.000Z</time></trkpt>
        <trkpt lat="29.570541" lon="103.441004"><ele>539.5853</ele><time>2026-07-20T20:22:59.000Z</time></trkpt>
        <trkpt lat="29.570553" lon="103.441007"><ele>539.13324</ele><time>2026-07-20T20:23:01.000Z</time></trkpt>
        <trkpt lat="29.570566" lon="103.441012"><ele>540.12164</ele><time>2026-07-20T20:23:03.000Z</time></trkpt>
        <trkpt lat="29.570578" lon="103.441018"><ele>540.0707</ele><time>2026-07-20T20:23:05.000Z</time></trkpt>
        <trkpt lat="29.570593" lon="103.441027"><ele>539.6193</ele><time>2026-07-20T20:23:07.000Z</time></trkpt>
        <trkpt lat="29.570613" lon="103.441038"><ele>538.5731</ele><time>2026-07-20T20:23:09.000Z</time></trkpt>
        <trkpt lat="29.57063" lon="103.441049"><ele>538.81287</ele><time>2026-07-20T20:23:11.000Z</time></trkpt>
        <trkpt lat="29.570647" lon="103.441062"><ele>538.7589</ele><time>2026-07-20T20:23:13.000Z</time></trkpt>
        <trkpt lat="29.570656" lon="103.441075"><ele>538.21857</ele><time>2026-07-20T20:23:15.000Z</time></trkpt>
        <trkpt lat="29.57066" lon="103.441082"><ele>538.9784</ele><time>2026-07-20T20:23:17.000Z</time></trkpt>
        <trkpt lat="29.570666" lon="103.441095"><ele>539.0738</ele><time>2026-07-20T20:23:19.000Z</time></trkpt>
        <trkpt lat="29.570671" lon="103.441116"><ele>538.98584</ele><time>2026-07-20T20:23:21.000Z</time></trkpt>
        <trkpt lat="29.57068" lon="103.441144"><ele>538.5156</ele><time>2026-07-20T20:23:23.000Z</time></trkpt>
        <trkpt lat="29.570685" lon="103.44117"><ele>537.2749</ele><time>2026-07-20T20:23:25.000Z</time></trkpt>
        <trkpt lat="29.570691" lon="103.441194"><ele>537.6323</ele><time>2026-07-20T20:23:27.000Z</time></trkpt>
        <trkpt lat="29.570696" lon="103.44122"><ele>538.6074</ele><time>2026-07-20T20:23:29.000Z</time></trkpt>
        <trkpt lat="29.570701" lon="103.441243"><ele>539.6743</ele><time>2026-07-20T20:23:31.000Z</time></trkpt>
        <trkpt lat="29.570708" lon="103.44127"><ele>538.3947</ele><time>2026-07-20T20:23:33.000Z</time></trkpt>
        <trkpt lat="29.570715" lon="103.4413"><ele>536.93024</ele><time>2026-07-20T20:23:35.000Z</time></trkpt>
        <trkpt lat="29.570723" lon="103.441327"><ele>536.06903</ele><time>2026-07-20T20:23:37.000Z</time></trkpt>
        <trkpt lat="29.570731" lon="103.441354"><ele>535.0499</ele><time>2026-07-20T20:23:39.000Z</time></trkpt>
        <trkpt lat="29.570743" lon="103.441377"><ele>535.1601</ele><time>2026-07-20T20:23:41.000Z</time></trkpt>
        <trkpt lat="29.570757" lon="103.441397"><ele>535.3168</ele><time>2026-07-20T20:23:43.000Z</time></trkpt>
        <trkpt lat="29.570772" lon="103.441411"><ele>536.1778</ele><time>2026-07-20T20:23:45.000Z</time></trkpt>
        <trkpt lat="29.570789" lon="103.441419"><ele>536.6613</ele><time>2026-07-20T20:23:47.000Z</time></trkpt>
        <trkpt lat="29.570807" lon="103.441422"><ele>537.44165</ele><time>2026-07-20T20:23:49.000Z</time></trkpt>
        <trkpt lat="29.570825" lon="103.441423"><ele>537.2508</ele><time>2026-07-20T20:23:51.000Z</time></trkpt>
        <trkpt lat="29.570843" lon="103.441427"><ele>537.53687</ele><time>2026-07-20T20:23:53.000Z</time></trkpt>
        <trkpt lat="29.570858" lon="103.441433"><ele>537.7624</ele><time>2026-07-20T20:23:55.000Z</time></trkpt>
        <trkpt lat="29.570875" lon="103.441438"><ele>537.60913</ele><time>2026-07-20T20:23:57.000Z</time></trkpt>
        <trkpt lat="29.570893" lon="103.44144"><ele>537.9337</ele><time>2026-07-20T20:23:59.000Z</time></trkpt>
        <trkpt lat="29.570912" lon="103.441443"><ele>537.89667</ele><time>2026-07-20T20:24:01.000Z</time></trkpt>
        <trkpt lat="29.570933" lon="103.441445"><ele>538.4072</ele><time>2026-07-20T20:24:03.000Z</time></trkpt>
        <trkpt lat="29.570954" lon="103.441449"><ele>538.2806</ele><time>2026-07-20T20:24:05.000Z</time></trkpt>
        <trkpt lat="29.570975" lon="103.441453"><ele>538.1836</ele><time>2026-07-20T20:24:07.000Z</time></trkpt>
        <trkpt lat="29.570996" lon="103.441459"><ele>537.9545</ele><time>2026-07-20T20:24:09.000Z</time></trkpt>
        <trkpt lat="29.571014" lon="103.441469"><ele>537.78845</ele><time>2026-07-20T20:24:11.000Z</time></trkpt>
        <trkpt lat="29.57102" lon="103.441482"><ele>537.7172</ele><time>2026-07-20T20:24:13.000Z</time></trkpt>
        <trkpt lat="29.571019" lon="103.441493"><ele>537.9987</ele><time>2026-07-20T20:24:15.000Z</time></trkpt>
        <trkpt lat="29.571011" lon="103.441501"><ele>537.35016</ele><time>2026-07-20T20:24:17.000Z</time></trkpt>
        <trkpt lat="29.570996" lon="103.441507"><ele>537.202</ele><time>2026-07-20T20:24:19.000Z</time></trkpt>
        <trkpt lat="29.570972" lon="103.441508"><ele>536.443</ele><time>2026-07-20T20:24:21.000Z</time></trkpt>
        <trkpt lat="29.57095" lon="103.441504"><ele>536.16656</ele><time>2026-07-20T20:24:23.000Z</time></trkpt>
        <trkpt lat="29.570926" lon="103.441498"><ele>535.7666</ele><time>2026-07-20T20:24:25.000Z</time></trkpt>
        <trkpt lat="29.5709" lon="103.441492"><ele>535.8219</ele><time>2026-07-20T20:24:27.000Z</time></trkpt>
        <trkpt lat="29.570877" lon="103.441486"><ele>536.0019</ele><time>2026-07-20T20:24:29.000Z</time></trkpt>
        <trkpt lat="29.570855" lon="103.441482"><ele>536.4552</ele><time>2026-07-20T20:24:31.000Z</time></trkpt>
        <trkpt lat="29.570836" lon="103.44148"><ele>536.6424</ele><time>2026-07-20T20:24:33.000Z</time></trkpt>
        <trkpt lat="29.570815" lon="103.441481"><ele>537.14386</ele><time>2026-07-20T20:24:35.000Z</time></trkpt>
        <trkpt lat="29.570795" lon="103.441483"><ele>537.1641</ele><time>2026-07-20T20:24:37.000Z</time></trkpt>
        <trkpt lat="29.570776" lon="103.441485"><ele>537.2025</ele><time>2026-07-20T20:24:39.000Z</time></trkpt>
        <trkpt lat="29.570757" lon="103.441489"><ele>537.524</ele><time>2026-07-20T20:24:41.000Z</time></trkpt>
        <trkpt lat="29.570736" lon="103.441494"><ele>537.21857</ele><time>2026-07-20T20:24:43.000Z</time></trkpt>
        <trkpt lat="29.570716" lon="103.441499"><ele>537.2447</ele><time>2026-07-20T20:24:45.000Z</time></trkpt>
        <trkpt lat="29.570692" lon="103.441502"><ele>537.05304</ele><time>2026-07-20T20:24:47.000Z</time></trkpt>
        <trkpt lat="29.570674" lon="103.441502"><ele>537.18097</ele><time>2026-07-20T20:24:49.000Z</time></trkpt>
        <trkpt lat="29.570662" lon="103.441502"><ele>538.0979</ele><time>2026-07-20T20:24:51.000Z</time></trkpt>
        <trkpt lat="29.570657" lon="103.441502"><ele>537.6557</ele><time>2026-07-20T20:24:53.000Z</time></trkpt>
        <trkpt lat="29.570655" lon="103.441501"><ele>538.241</ele><time>2026-07-20T20:24:55.000Z</time></trkpt>
        <trkpt lat="29.570637" lon="103.441491"><ele>540.0842</ele><time>2026-07-20T20:24:59.000Z</time></trkpt>
        <trkpt lat="29.570618" lon="103.44148"><ele>538.54785</ele><time>2026-07-20T20:25:05.000Z</time></trkpt>
        <trkpt lat="29.570592" lon="103.441468"><ele>537.8334</ele><time>2026-07-20T20:25:07.000Z</time></trkpt>
        <trkpt lat="29.570557" lon="103.441458"><ele>537.50433</ele><time>2026-07-20T20:25:09.000Z</time></trkpt>
        <trkpt lat="29.570526" lon="103.441448"><ele>537.757</ele><time>2026-07-20T20:25:11.000Z</time></trkpt>
        <trkpt lat="29.570499" lon="103.441436"><ele>537.2584</ele><time>2026-07-20T20:25:13.000Z</time></trkpt>
        <trkpt lat="29.570477" lon="103.441425"><ele>536.39185</ele><time>2026-07-20T20:25:15.000Z</time></trkpt>
        <trkpt lat="29.570457" lon="103.441412"><ele>536.0173</ele><time>2026-07-20T20:25:17.000Z</time></trkpt>
        <trkpt lat="29.570439" lon="103.441398"><ele>535.3397</ele><time>2026-07-20T20:25:19.000Z</time></trkpt>
        <trkpt lat="29.570423" lon="103.441383"><ele>534.76965</ele><time>2026-07-20T20:25:21.000Z</time></trkpt>
        <trkpt lat="29.570406" lon="103.441368"><ele>534.50006</ele><time>2026-07-20T20:25:23.000Z</time></trkpt>
        <trkpt lat="29.570387" lon="103.441356"><ele>535.0954</ele><time>2026-07-20T20:25:25.000Z</time></trkpt>
        <trkpt lat="29.570368" lon="103.441343"><ele>535.77124</ele><time>2026-07-20T20:25:27.000Z</time></trkpt>
        <trkpt lat="29.570348" lon="103.441332"><ele>535.4162</ele><time>2026-07-20T20:25:29.000Z</time></trkpt>
        <trkpt lat="29.570329" lon="103.441323"><ele>535.6456</ele><time>2026-07-20T20:25:31.000Z</time></trkpt>
        <trkpt lat="29.570309" lon="103.441313"><ele>535.0264</ele><time>2026-07-20T20:25:33.000Z</time></trkpt>
        <trkpt lat="29.570285" lon="103.441302"><ele>534.99097</ele><time>2026-07-20T20:25:35.000Z</time></trkpt>
        <trkpt lat="29.570264" lon="103.441288"><ele>535.1151</ele><time>2026-07-20T20:25:37.000Z</time></trkpt>
        <trkpt lat="29.57025" lon="103.441274"><ele>534.6901</ele><time>2026-07-20T20:25:39.000Z</time></trkpt>
        <trkpt lat="29.570236" lon="103.441259"><ele>534.48846</ele><time>2026-07-20T20:25:41.000Z</time></trkpt>
        <trkpt lat="29.570222" lon="103.441243"><ele>534.6051</ele><time>2026-07-20T20:25:43.000Z</time></trkpt>
        <trkpt lat="29.570208" lon="103.44123"><ele>534.8357</ele><time>2026-07-20T20:25:45.000Z</time></trkpt>
        <trkpt lat="29.570197" lon="103.441221"><ele>535.3006</ele><time>2026-07-20T20:25:47.000Z</time></trkpt>
        <trkpt lat="29.570181" lon="103.441209"><ele>535.4799</ele><time>2026-07-20T20:25:49.000Z</time></trkpt>
        <trkpt lat="29.570167" lon="103.441197"><ele>535.0445</ele><time>2026-07-20T20:25:51.000Z</time></trkpt>
        <trkpt lat="29.570153" lon="103.441184"><ele>534.9381</ele><time>2026-07-20T20:25:53.000Z</time></trkpt>
        <trkpt lat="29.570144" lon="103.441177"><ele>535.02496</ele><time>2026-07-20T20:25:55.000Z</time></trkpt>
        <trkpt lat="29.570138" lon="103.441172"><ele>535.42126</ele><time>2026-07-20T20:25:57.000Z</time></trkpt>
        <trkpt lat="29.570128" lon="103.441163"><ele>535.3698</ele><time>2026-07-20T20:25:59.000Z</time></trkpt>
        <trkpt lat="29.570116" lon="103.441152"><ele>535.3329</ele><time>2026-07-20T20:26:01.000Z</time></trkpt>
        <trkpt lat="29.570101" lon="103.441141"><ele>535.8936</ele><time>2026-07-20T20:26:03.000Z</time></trkpt>
        <trkpt lat="29.570083" lon="103.441128"><ele>536.06995</ele><time>2026-07-20T20:26:05.000Z</time></trkpt>
        <trkpt lat="29.570064" lon="103.441114"><ele>534.87573</ele><time>2026-07-20T20:26:07.000Z</time></trkpt>
        <trkpt lat="29.570046" lon="103.441098"><ele>535.5927</ele><time>2026-07-20T20:26:09.000Z</time></trkpt>
        <trkpt lat="29.570026" lon="103.441081"><ele>535.34595</ele><time>2026-07-20T20:26:11.000Z</time></trkpt>
        <trkpt lat="29.570008" lon="103.441066"><ele>535.144</ele><time>2026-07-20T20:26:13.000Z</time></trkpt>
        <trkpt lat="29.569987" lon="103.441055"><ele>535.4681</ele><time>2026-07-20T20:26:15.000Z</time></trkpt>
        <trkpt lat="29.569965" lon="103.441047"><ele>535.7371</ele><time>2026-07-20T20:26:17.000Z</time></trkpt>
        <trkpt lat="29.569938" lon="103.44104"><ele>534.74945</ele><time>2026-07-20T20:26:19.000Z</time></trkpt>
        <trkpt lat="29.569913" lon="103.441034"><ele>534.90125</ele><time>2026-07-20T20:26:21.000Z</time></trkpt>
        <trkpt lat="29.569883" lon="103.44103"><ele>534.844</ele><time>2026-07-20T20:26:23.000Z</time></trkpt>
        <trkpt lat="29.569857" lon="103.441027"><ele>534.515</ele><time>2026-07-20T20:26:25.000Z</time></trkpt>
        <trkpt lat="29.569834" lon="103.441023"><ele>534.0656</ele><time>2026-07-20T20:26:27.000Z</time></trkpt>
        <trkpt lat="29.569814" lon="103.441019"><ele>534.38477</ele><time>2026-07-20T20:26:29.000Z</time></trkpt>
        <trkpt lat="29.569796" lon="103.441015"><ele>536.0728</ele><time>2026-07-20T20:26:31.000Z</time></trkpt>
        <trkpt lat="29.569776" lon="103.441011"><ele>536.7792</ele><time>2026-07-20T20:26:33.000Z</time></trkpt>
        <trkpt lat="29.569755" lon="103.441007"><ele>536.45795</ele><time>2026-07-20T20:26:35.000Z</time></trkpt>
        <trkpt lat="29.569733" lon="103.441002"><ele>536.69556</ele><time>2026-07-20T20:26:37.000Z</time></trkpt>
        <trkpt lat="29.569713" lon="103.440993"><ele>536.5972</ele><time>2026-07-20T20:26:39.000Z</time></trkpt>
        <trkpt lat="29.569694" lon="103.440982"><ele>536.8582</ele><time>2026-07-20T20:26:41.000Z</time></trkpt>
        <trkpt lat="29.569672" lon="103.440972"><ele>537.1699</ele><time>2026-07-20T20:26:43.000Z</time></trkpt>
        <trkpt lat="29.569652" lon="103.440967"><ele>536.7328</ele><time>2026-07-20T20:26:45.000Z</time></trkpt>
        <trkpt lat="29.569633" lon="103.440963"><ele>536.7108</ele><time>2026-07-20T20:26:47.000Z</time></trkpt>
        <trkpt lat="29.569614" lon="103.440959"><ele>536.5505</ele><time>2026-07-20T20:26:49.000Z</time></trkpt>
        <trkpt lat="29.569593" lon="103.440958"><ele>536.7042</ele><time>2026-07-20T20:26:51.000Z</time></trkpt>
        <trkpt lat="29.569574" lon="103.440959"><ele>535.8481</ele><time>2026-07-20T20:26:53.000Z</time></trkpt>
        <trkpt lat="29.569552" lon="103.44096"><ele>535.8694</ele><time>2026-07-20T20:26:55.000Z</time></trkpt>
        <trkpt lat="29.569527" lon="103.440958"><ele>535.355</ele><time>2026-07-20T20:26:57.000Z</time></trkpt>
        <trkpt lat="29.569502" lon="103.440957"><ele>535.4914</ele><time>2026-07-20T20:26:59.000Z</time></trkpt>
        <trkpt lat="29.569475" lon="103.440957"><ele>535.69885</ele><time>2026-07-20T20:27:01.000Z</time></trkpt>
        <trkpt lat="29.569448" lon="103.440958"><ele>535.9027</ele><time>2026-07-20T20:27:03.000Z</time></trkpt>
        <trkpt lat="29.569422" lon="103.440958"><ele>535.7148</ele><time>2026-07-20T20:27:05.000Z</time></trkpt>
        <trkpt lat="29.569395" lon="103.440957"><ele>534.7431</ele><time>2026-07-20T20:27:07.000Z</time></trkpt>
        <trkpt lat="29.569371" lon="103.440958"><ele>535.4653</ele><time>2026-07-20T20:27:09.000Z</time></trkpt>
        <trkpt lat="29.56935" lon="103.440958"><ele>534.9549</ele><time>2026-07-20T20:27:11.000Z</time></trkpt>
        <trkpt lat="29.569332" lon="103.440956"><ele>534.51984</ele><time>2026-07-20T20:27:13.000Z</time></trkpt>
        <trkpt lat="29.56931" lon="103.440951"><ele>532.7773</ele><time>2026-07-20T20:27:15.000Z</time></trkpt>
        <trkpt lat="29.569288" lon="103.440945"><ele>532.63434</ele><time>2026-07-20T20:27:17.000Z</time></trkpt>
        <trkpt lat="29.569267" lon="103.44094"><ele>532.04663</ele><time>2026-07-20T20:27:19.000Z</time></trkpt>
        <trkpt lat="29.569253" lon="103.44093"><ele>532.3362</ele><time>2026-07-20T20:27:21.000Z</time></trkpt>
        <trkpt lat="29.56925" lon="103.440921"><ele>532.7056</ele><time>2026-07-20T20:27:23.000Z</time></trkpt>
        <trkpt lat="29.569244" lon="103.440898"><ele>532.6736</ele><time>2026-07-20T20:27:25.000Z</time></trkpt>
        <trkpt lat="29.569237" lon="103.440871"><ele>533.11163</ele><time>2026-07-20T20:27:27.000Z</time></trkpt>
        <trkpt lat="29.569231" lon="103.440845"><ele>533.6594</ele><time>2026-07-20T20:27:29.000Z</time></trkpt>
        <trkpt lat="29.569225" lon="103.44082"><ele>533.6413</ele><time>2026-07-20T20:27:31.000Z</time></trkpt>
        <trkpt lat="29.569216" lon="103.440794"><ele>533.65674</ele><time>2026-07-20T20:27:33.000Z</time></trkpt>
        <trkpt lat="29.569206" lon="103.440768"><ele>533.5142</ele><time>2026-07-20T20:27:35.000Z</time></trkpt>
        <trkpt lat="29.569194" lon="103.440741"><ele>533.7322</ele><time>2026-07-20T20:27:37.000Z</time></trkpt>
        <trkpt lat="29.569179" lon="103.440713"><ele>534.3938</ele><time>2026-07-20T20:27:39.000Z</time></trkpt>
        <trkpt lat="29.569162" lon="103.44069"><ele>534.22546</ele><time>2026-07-20T20:27:41.000Z</time></trkpt>
        <trkpt lat="29.569144" lon="103.440672"><ele>534.20886</ele><time>2026-07-20T20:27:43.000Z</time></trkpt>
        <trkpt lat="29.569123" lon="103.440655"><ele>534.0136</ele><time>2026-07-20T20:27:45.000Z</time></trkpt>
        <trkpt lat="29.569101" lon="103.440642"><ele>534.32544</ele><time>2026-07-20T20:27:47.000Z</time></trkpt>
        <trkpt lat="29.569077" lon="103.440628"><ele>533.4117</ele><time>2026-07-20T20:27:49.000Z</time></trkpt>
        <trkpt lat="29.569058" lon="103.440616"><ele>534.1897</ele><time>2026-07-20T20:27:51.000Z</time></trkpt>
        <trkpt lat="29.569041" lon="103.440604"><ele>533.9995</ele><time>2026-07-20T20:27:53.000Z</time></trkpt>
        <trkpt lat="29.569028" lon="103.440593"><ele>532.9491</ele><time>2026-07-20T20:27:55.000Z</time></trkpt>
        <trkpt lat="29.56902" lon="103.440588"><ele>534.82477</ele><time>2026-07-20T20:27:57.000Z</time></trkpt>
        <trkpt lat="29.569016" lon="103.440588"><ele>534.21686</ele><time>2026-07-20T20:27:59.000Z</time></trkpt>
        <trkpt lat="29.569009" lon="103.440579"><ele>534.19696</ele><time>2026-07-20T20:28:03.000Z</time></trkpt>
        <trkpt lat="29.568997" lon="103.440564"><ele>534.3626</ele><time>2026-07-20T20:28:05.000Z</time></trkpt>
        <trkpt lat="29.568997" lon="103.440563"><ele>534.6931</ele><time>2026-07-20T20:28:07.000Z</time></trkpt>
        <trkpt lat="29.568992" lon="103.440546"><ele>535.24207</ele><time>2026-07-20T20:28:11.000Z</time></trkpt>
        <trkpt lat="29.568987" lon="103.440522"><ele>535.08405</ele><time>2026-07-20T20:28:13.000Z</time></trkpt>
        <trkpt lat="29.568983" lon="103.44049"><ele>535.49274</ele><time>2026-07-20T20:28:15.000Z</time></trkpt>
        <trkpt lat="29.56898" lon="103.440457"><ele>535.91003</ele><time>2026-07-20T20:28:17.000Z</time></trkpt>
        <trkpt lat="29.56898" lon="103.440426"><ele>535.0798</ele><time>2026-07-20T20:28:19.000Z</time></trkpt>
        <trkpt lat="29.568979" lon="103.440394"><ele>534.7206</ele><time>2026-07-20T20:28:21.000Z</time></trkpt>
        <trkpt lat="29.568978" lon="103.440363"><ele>535.0862</ele><time>2026-07-20T20:28:23.000Z</time></trkpt>
        <trkpt lat="29.568976" lon="103.440335"><ele>535.3392</ele><time>2026-07-20T20:28:25.000Z</time></trkpt>
        <trkpt lat="29.568972" lon="103.440316"><ele>535.5023</ele><time>2026-07-20T20:28:27.000Z</time></trkpt>
        <trkpt lat="29.568964" lon="103.440296"><ele>536.18585</ele><time>2026-07-20T20:28:29.000Z</time></trkpt>
        <trkpt lat="29.568954" lon="103.440276"><ele>536.02734</ele><time>2026-07-20T20:28:31.000Z</time></trkpt>
        <trkpt lat="29.568948" lon="103.440255"><ele>536.0661</ele><time>2026-07-20T20:28:33.000Z</time></trkpt>
        <trkpt lat="29.568944" lon="103.44023"><ele>536.1671</ele><time>2026-07-20T20:28:35.000Z</time></trkpt>
        <trkpt lat="29.56894" lon="103.440202"><ele>536.6629</ele><time>2026-07-20T20:28:37.000Z</time></trkpt>
        <trkpt lat="29.568933" lon="103.440177"><ele>537.1863</ele><time>2026-07-20T20:28:39.000Z</time></trkpt>
        <trkpt lat="29.56892" lon="103.440152"><ele>537.2601</ele><time>2026-07-20T20:28:41.000Z</time></trkpt>
        <trkpt lat="29.568907" lon="103.44013"><ele>538.231</ele><time>2026-07-20T20:28:43.000Z</time></trkpt>
        <trkpt lat="29.568891" lon="103.440108"><ele>538.8495</ele><time>2026-07-20T20:28:45.000Z</time></trkpt>
        <trkpt lat="29.568874" lon="103.440084"><ele>539.01697</ele><time>2026-07-20T20:28:47.000Z</time></trkpt>
        <trkpt lat="29.568863" lon="103.440065"><ele>539.58356</ele><time>2026-07-20T20:28:49.000Z</time></trkpt>
        <trkpt lat="29.568853" lon="103.440048"><ele>540.51935</ele><time>2026-07-20T20:28:51.000Z</time></trkpt>
        <trkpt lat="29.568842" lon="103.44003"><ele>541.0844</ele><time>2026-07-20T20:28:53.000Z</time></trkpt>
        <trkpt lat="29.568826" lon="103.440004"><ele>541.6336</ele><time>2026-07-20T20:28:55.000Z</time></trkpt>
        <trkpt lat="29.568812" lon="103.439982"><ele>541.94824</ele><time>2026-07-20T20:28:57.000Z</time></trkpt>
        <trkpt lat="29.568797" lon="103.43996"><ele>541.272</ele><time>2026-07-20T20:28:59.000Z</time></trkpt>
        <trkpt lat="29.568786" lon="103.439948"><ele>542.12744</ele><time>2026-07-20T20:29:01.000Z</time></trkpt>
        <trkpt lat="29.568774" lon="103.439936"><ele>542.1031</ele><time>2026-07-20T20:29:03.000Z</time></trkpt>
        <trkpt lat="29.56876" lon="103.439926"><ele>542.527</ele><time>2026-07-20T20:29:05.000Z</time></trkpt>
        <trkpt lat="29.568746" lon="103.439915"><ele>543.5645</ele><time>2026-07-20T20:29:07.000Z</time></trkpt>
        <trkpt lat="29.56873" lon="103.439897"><ele>543.2087</ele><time>2026-07-20T20:29:09.000Z</time></trkpt>
        <trkpt lat="29.568716" lon="103.439875"><ele>542.7789</ele><time>2026-07-20T20:29:11.000Z</time></trkpt>
        <trkpt lat="29.568705" lon="103.439851"><ele>542.1624</ele><time>2026-07-20T20:29:13.000Z</time></trkpt>
        <trkpt lat="29.568695" lon="103.439831"><ele>541.9713</ele><time>2026-07-20T20:29:15.000Z</time></trkpt>
        <trkpt lat="29.568688" lon="103.439814"><ele>541.17596</ele><time>2026-07-20T20:29:17.000Z</time></trkpt>
        <trkpt lat="29.568681" lon="103.4398"><ele>542.57764</ele><time>2026-07-20T20:29:19.000Z</time></trkpt>
        <trkpt lat="29.568672" lon="103.439788"><ele>543.07874</ele><time>2026-07-20T20:29:21.000Z</time></trkpt>
        <trkpt lat="29.568659" lon="103.439772"><ele>544.218</ele><time>2026-07-20T20:29:23.000Z</time></trkpt>
        <trkpt lat="29.568648" lon="103.439757"><ele>545.4645</ele><time>2026-07-20T20:29:25.000Z</time></trkpt>
        <trkpt lat="29.568636" lon="103.439738"><ele>545.1237</ele><time>2026-07-20T20:29:27.000Z</time></trkpt>
        <trkpt lat="29.568623" lon="103.439718"><ele>544.11505</ele><time>2026-07-20T20:29:29.000Z</time></trkpt>
        <trkpt lat="29.568608" lon="103.4397"><ele>545.24255</ele><time>2026-07-20T20:29:31.000Z</time></trkpt>
        <trkpt lat="29.568594" lon="103.439683"><ele>546.09674</ele><time>2026-07-20T20:29:33.000Z</time></trkpt>
        <trkpt lat="29.568575" lon="103.439665"><ele>545.7902</ele><time>2026-07-20T20:29:35.000Z</time></trkpt>
        <trkpt lat="29.568551" lon="103.439649"><ele>544.91785</ele><time>2026-07-20T20:29:37.000Z</time></trkpt>
        <trkpt lat="29.568526" lon="103.439631"><ele>544.639</ele><time>2026-07-20T20:29:39.000Z</time></trkpt>
        <trkpt lat="29.568503" lon="103.439614"><ele>545.09644</ele><time>2026-07-20T20:29:41.000Z</time></trkpt>
        <trkpt lat="29.568477" lon="103.439594"><ele>544.9279</ele><time>2026-07-20T20:29:43.000Z</time></trkpt>
        <trkpt lat="29.568457" lon="103.439576"><ele>544.92303</ele><time>2026-07-20T20:29:45.000Z</time></trkpt>
        <trkpt lat="29.56844" lon="103.439559"><ele>544.9167</ele><time>2026-07-20T20:29:47.000Z</time></trkpt>
        <trkpt lat="29.568426" lon="103.43954"><ele>544.72876</ele><time>2026-07-20T20:29:49.000Z</time></trkpt>
        <trkpt lat="29.568414" lon="103.439523"><ele>544.08765</ele><time>2026-07-20T20:29:51.000Z</time></trkpt>
        <trkpt lat="29.568401" lon="103.439506"><ele>544.04517</ele><time>2026-07-20T20:29:53.000Z</time></trkpt>
        <trkpt lat="29.56839" lon="103.439491"><ele>543.8395</ele><time>2026-07-20T20:29:55.000Z</time></trkpt>
        <trkpt lat="29.568379" lon="103.439477"><ele>544.0283</ele><time>2026-07-20T20:29:57.000Z</time></trkpt>
        <trkpt lat="29.568366" lon="103.439463"><ele>545.0211</ele><time>2026-07-20T20:29:59.000Z</time></trkpt>
        <trkpt lat="29.568353" lon="103.439447"><ele>545.4304</ele><time>2026-07-20T20:30:01.000Z</time></trkpt>
        <trkpt lat="29.568341" lon="103.43943"><ele>545.5041</ele><time>2026-07-20T20:30:03.000Z</time></trkpt>
        <trkpt lat="29.56833" lon="103.439415"><ele>545.0195</ele><time>2026-07-20T20:30:05.000Z</time></trkpt>
        <trkpt lat="29.568314" lon="103.4394"><ele>545.2991</ele><time>2026-07-20T20:30:07.000Z</time></trkpt>
        <trkpt lat="29.568292" lon="103.439382"><ele>545.42694</ele><time>2026-07-20T20:30:09.000Z</time></trkpt>
        <trkpt lat="29.56827" lon="103.439366"><ele>545.35986</ele><time>2026-07-20T20:30:11.000Z</time></trkpt>
        <trkpt lat="29.568245" lon="103.439349"><ele>544.4186</ele><time>2026-07-20T20:30:13.000Z</time></trkpt>
        <trkpt lat="29.568226" lon="103.439335"><ele>544.562</ele><time>2026-07-20T20:30:15.000Z</time></trkpt>
        <trkpt lat="29.568211" lon="103.439318"><ele>544.3642</ele><time>2026-07-20T20:30:17.000Z</time></trkpt>
        <trkpt lat="29.568198" lon="103.439301"><ele>544.9919</ele><time>2026-07-20T20:30:19.000Z</time></trkpt>
        <trkpt lat="29.568184" lon="103.439282"><ele>545.1158</ele><time>2026-07-20T20:30:21.000Z</time></trkpt>
        <trkpt lat="29.568169" lon="103.439263"><ele>545.1886</ele><time>2026-07-20T20:30:23.000Z</time></trkpt>
        <trkpt lat="29.568153" lon="103.439245"><ele>544.7275</ele><time>2026-07-20T20:30:25.000Z</time></trkpt>
        <trkpt lat="29.56814" lon="103.439231"><ele>545.04596</ele><time>2026-07-20T20:30:27.000Z</time></trkpt>
        <trkpt lat="29.568123" lon="103.439215"><ele>545.10254</ele><time>2026-07-20T20:30:29.000Z</time></trkpt>
        <trkpt lat="29.568106" lon="103.439198"><ele>544.761</ele><time>2026-07-20T20:30:31.000Z</time></trkpt>
        <trkpt lat="29.56809" lon="103.439181"><ele>545.2159</ele><time>2026-07-20T20:30:33.000Z</time></trkpt>
        <trkpt lat="29.568074" lon="103.439163"><ele>545.42706</ele><time>2026-07-20T20:30:35.000Z</time></trkpt>
        <trkpt lat="29.568058" lon="103.439144"><ele>545.295</ele><time>2026-07-20T20:30:37.000Z</time></trkpt>
        <trkpt lat="29.568044" lon="103.439126"><ele>545.61816</ele><time>2026-07-20T20:30:39.000Z</time></trkpt>
        <trkpt lat="29.568027" lon="103.439103"><ele>545.95526</ele><time>2026-07-20T20:30:41.000Z</time></trkpt>
        <trkpt lat="29.568011" lon="103.439084"><ele>546.54376</ele><time>2026-07-20T20:30:43.000Z</time></trkpt>
        <trkpt lat="29.567994" lon="103.439065"><ele>546.0291</ele><time>2026-07-20T20:30:45.000Z</time></trkpt>
        <trkpt lat="29.567981" lon="103.439047"><ele>545.4587</ele><time>2026-07-20T20:30:47.000Z</time></trkpt>
        <trkpt lat="29.567969" lon="103.439029"><ele>544.47833</ele><time>2026-07-20T20:30:49.000Z</time></trkpt>
        <trkpt lat="29.567958" lon="103.43901"><ele>544.39905</ele><time>2026-07-20T20:30:51.000Z</time></trkpt>
        <trkpt lat="29.567946" lon="103.438989"><ele>544.30005</ele><time>2026-07-20T20:30:53.000Z</time></trkpt>
        <trkpt lat="29.567931" lon="103.43897"><ele>544.87427</ele><time>2026-07-20T20:30:55.000Z</time></trkpt>
        <trkpt lat="29.567917" lon="103.438955"><ele>545.1666</ele><time>2026-07-20T20:30:57.000Z</time></trkpt>
        <trkpt lat="29.5679" lon="103.438942"><ele>545.37354</ele><time>2026-07-20T20:30:59.000Z</time></trkpt>
        <trkpt lat="29.567883" lon="103.438925"><ele>545.02637</ele><time>2026-07-20T20:31:01.000Z</time></trkpt>
        <trkpt lat="29.567867" lon="103.438909"><ele>545.56604</ele><time>2026-07-20T20:31:03.000Z</time></trkpt>
        <trkpt lat="29.567855" lon="103.438895"><ele>545.7575</ele><time>2026-07-20T20:31:05.000Z</time></trkpt>
        <trkpt lat="29.56784" lon="103.438877"><ele>546.11487</ele><time>2026-07-20T20:31:07.000Z</time></trkpt>
        <trkpt lat="29.567825" lon="103.438856"><ele>546.63684</ele><time>2026-07-20T20:31:09.000Z</time></trkpt>
        <trkpt lat="29.56781" lon="103.438834"><ele>547.30054</ele><time>2026-07-20T20:31:11.000Z</time></trkpt>
        <trkpt lat="29.567796" lon="103.438814"><ele>547.39813</ele><time>2026-07-20T20:31:13.000Z</time></trkpt>
        <trkpt lat="29.567783" lon="103.438795"><ele>547.61395</ele><time>2026-07-20T20:31:15.000Z</time></trkpt>
        <trkpt lat="29.567772" lon="103.438777"><ele>547.6359</ele><time>2026-07-20T20:31:17.000Z</time></trkpt>
        <trkpt lat="29.567762" lon="103.438759"><ele>548.649</ele><time>2026-07-20T20:31:19.000Z</time></trkpt>
        <trkpt lat="29.56775" lon="103.438742"><ele>548.9643</ele><time>2026-07-20T20:31:21.000Z</time></trkpt>
        <trkpt lat="29.567737" lon="103.438725"><ele>549.0995</ele><time>2026-07-20T20:31:23.000Z</time></trkpt>
        <trkpt lat="29.56772" lon="103.438706"><ele>548.9525</ele><time>2026-07-20T20:31:25.000Z</time></trkpt>
        <trkpt lat="29.567701" lon="103.438685"><ele>548.2022</ele><time>2026-07-20T20:31:27.000Z</time></trkpt>
        <trkpt lat="29.567681" lon="103.438661"><ele>547.459</ele><time>2026-07-20T20:31:29.000Z</time></trkpt>
        <trkpt lat="29.567663" lon="103.438639"><ele>547.8824</ele><time>2026-07-20T20:31:31.000Z</time></trkpt>
        <trkpt lat="29.567645" lon="103.438616"><ele>547.63043</ele><time>2026-07-20T20:31:33.000Z</time></trkpt>
        <trkpt lat="29.567628" lon="103.438594"><ele>546.7799</ele><time>2026-07-20T20:31:35.000Z</time></trkpt>
        <trkpt lat="29.567611" lon="103.438572"><ele>546.8829</ele><time>2026-07-20T20:31:37.000Z</time></trkpt>
        <trkpt lat="29.567597" lon="103.438553"><ele>547.3137</ele><time>2026-07-20T20:31:39.000Z</time></trkpt>
        <trkpt lat="29.567583" lon="103.438534"><ele>547.2643</ele><time>2026-07-20T20:31:41.000Z</time></trkpt>
        <trkpt lat="29.56757" lon="103.438517"><ele>548.9333</ele><time>2026-07-20T20:31:43.000Z</time></trkpt>
        <trkpt lat="29.567554" lon="103.438499"><ele>549.46643</ele><time>2026-07-20T20:31:45.000Z</time></trkpt>
        <trkpt lat="29.567537" lon="103.43848"><ele>550.5804</ele><time>2026-07-20T20:31:47.000Z</time></trkpt>
        <trkpt lat="29.567518" lon="103.438458"><ele>550.94696</ele><time>2026-07-20T20:31:49.000Z</time></trkpt>
        <trkpt lat="29.567502" lon="103.438439"><ele>551.24133</ele><time>2026-07-20T20:31:51.000Z</time></trkpt>
        <trkpt lat="29.567489" lon="103.438418"><ele>552.0913</ele><time>2026-07-20T20:31:53.000Z</time></trkpt>
        <trkpt lat="29.567481" lon="103.438399"><ele>552.466</ele><time>2026-07-20T20:31:55.000Z</time></trkpt>
        <trkpt lat="29.567474" lon="103.438383"><ele>552.7337</ele><time>2026-07-20T20:31:57.000Z</time></trkpt>
        <trkpt lat="29.567466" lon="103.438368"><ele>553.2331</ele><time>2026-07-20T20:31:59.000Z</time></trkpt>
        <trkpt lat="29.567456" lon="103.438347"><ele>553.6636</ele><time>2026-07-20T20:32:01.000Z</time></trkpt>
        <trkpt lat="29.567446" lon="103.438328"><ele>554.1002</ele><time>2026-07-20T20:32:03.000Z</time></trkpt>
        <trkpt lat="29.567434" lon="103.438308"><ele>554.3285</ele><time>2026-07-20T20:32:05.000Z</time></trkpt>
        <trkpt lat="29.567422" lon="103.438294"><ele>553.89343</ele><time>2026-07-20T20:32:07.000Z</time></trkpt>
        <trkpt lat="29.567409" lon="103.438281"><ele>553.1484</ele><time>2026-07-20T20:32:09.000Z</time></trkpt>
        <trkpt lat="29.567395" lon="103.438266"><ele>551.9843</ele><time>2026-07-20T20:32:11.000Z</time></trkpt>
        <trkpt lat="29.567381" lon="103.438252"><ele>551.4911</ele><time>2026-07-20T20:32:13.000Z</time></trkpt>
        <trkpt lat="29.567363" lon="103.438236"><ele>551.16516</ele><time>2026-07-20T20:32:15.000Z</time></trkpt>
        <trkpt lat="29.567344" lon="103.438218"><ele>550.5343</ele><time>2026-07-20T20:32:17.000Z</time></trkpt>
        <trkpt lat="29.567328" lon="103.438199"><ele>550.147</ele><time>2026-07-20T20:32:19.000Z</time></trkpt>
        <trkpt lat="29.567315" lon="103.438181"><ele>550.6755</ele><time>2026-07-20T20:32:21.000Z</time></trkpt>
        <trkpt lat="29.567302" lon="103.438158"><ele>550.4428</ele><time>2026-07-20T20:32:23.000Z</time></trkpt>
        <trkpt lat="29.567288" lon="103.438138"><ele>550.39655</ele><time>2026-07-20T20:32:25.000Z</time></trkpt>
        <trkpt lat="29.567274" lon="103.438119"><ele>550.56055</ele><time>2026-07-20T20:32:27.000Z</time></trkpt>
        <trkpt lat="29.567258" lon="103.438098"><ele>551.3019</ele><time>2026-07-20T20:32:29.000Z</time></trkpt>
        <trkpt lat="29.567242" lon="103.438078"><ele>551.48645</ele><time>2026-07-20T20:32:31.000Z</time></trkpt>
        <trkpt lat="29.567228" lon="103.438059"><ele>552.37836</ele><time>2026-07-20T20:32:33.000Z</time></trkpt>
        <trkpt lat="29.567216" lon="103.438038"><ele>552.62396</ele><time>2026-07-20T20:32:35.000Z</time></trkpt>
        <trkpt lat="29.567205" lon="103.438015"><ele>552.5414</ele><time>2026-07-20T20:32:37.000Z</time></trkpt>
        <trkpt lat="29.567194" lon="103.437991"><ele>551.7624</ele><time>2026-07-20T20:32:39.000Z</time></trkpt>
        <trkpt lat="29.567187" lon="103.437967"><ele>552.1703</ele><time>2026-07-20T20:32:41.000Z</time></trkpt>
        <trkpt lat="29.56718" lon="103.437944"><ele>552.86884</ele><time>2026-07-20T20:32:43.000Z</time></trkpt>
        <trkpt lat="29.567174" lon="103.437923"><ele>553.4432</ele><time>2026-07-20T20:32:45.000Z</time></trkpt>
        <trkpt lat="29.567168" lon="103.437903"><ele>553.58044</ele><time>2026-07-20T20:32:47.000Z</time></trkpt>
        <trkpt lat="29.567161" lon="103.437887"><ele>554.439</ele><time>2026-07-20T20:32:49.000Z</time></trkpt>
        <trkpt lat="29.567154" lon="103.437874"><ele>554.5647</ele><time>2026-07-20T20:32:51.000Z</time></trkpt>
        <trkpt lat="29.567147" lon="103.43786"><ele>555.0456</ele><time>2026-07-20T20:32:53.000Z</time></trkpt>
        <trkpt lat="29.56714" lon="103.437845"><ele>554.8625</ele><time>2026-07-20T20:32:55.000Z</time></trkpt>
        <trkpt lat="29.56713" lon="103.437823"><ele>554.3666</ele><time>2026-07-20T20:32:57.000Z</time></trkpt>
        <trkpt lat="29.567119" lon="103.437799"><ele>554.1768</ele><time>2026-07-20T20:32:59.000Z</time></trkpt>
        <trkpt lat="29.567107" lon="103.437774"><ele>554.4971</ele><time>2026-07-20T20:33:01.000Z</time></trkpt>
        <trkpt lat="29.567096" lon="103.437752"><ele>555.3803</ele><time>2026-07-20T20:33:03.000Z</time></trkpt>
        <trkpt lat="29.567083" lon="103.437732"><ele>555.2891</ele><time>2026-07-20T20:33:05.000Z</time></trkpt>
        <trkpt lat="29.567073" lon="103.43771"><ele>555.9967</ele><time>2026-07-20T20:33:07.000Z</time></trkpt>
        <trkpt lat="29.567063" lon="103.437686"><ele>556.37756</ele><time>2026-07-20T20:33:09.000Z</time></trkpt>
        <trkpt lat="29.567052" lon="103.437659"><ele>556.67786</ele><time>2026-07-20T20:33:11.000Z</time></trkpt>
        <trkpt lat="29.567043" lon="103.437637"><ele>557.1726</ele><time>2026-07-20T20:33:13.000Z</time></trkpt>
        <trkpt lat="29.567035" lon="103.437619"><ele>556.79443</ele><time>2026-07-20T20:33:15.000Z</time></trkpt>
        <trkpt lat="29.567027" lon="103.437604"><ele>557.5776</ele><time>2026-07-20T20:33:17.000Z</time></trkpt>
        <trkpt lat="29.567015" lon="103.437585"><ele>557.48584</ele><time>2026-07-20T20:33:19.000Z</time></trkpt>
        <trkpt lat="29.567002" lon="103.437565"><ele>557.4948</ele><time>2026-07-20T20:33:21.000Z</time></trkpt>
        <trkpt lat="29.56699" lon="103.437548"><ele>558.1163</ele><time>2026-07-20T20:33:23.000Z</time></trkpt>
        <trkpt lat="29.566978" lon="103.437529"><ele>558.53186</ele><time>2026-07-20T20:33:25.000Z</time></trkpt>
        <trkpt lat="29.566968" lon="103.437514"><ele>559.2137</ele><time>2026-07-20T20:33:27.000Z</time></trkpt>
        <trkpt lat="29.566958" lon="103.437499"><ele>559.5963</ele><time>2026-07-20T20:33:29.000Z</time></trkpt>
        <trkpt lat="29.566946" lon="103.437484"><ele>560.15216</ele><time>2026-07-20T20:33:31.000Z</time></trkpt>
        <trkpt lat="29.566932" lon="103.43747"><ele>560.8258</ele><time>2026-07-20T20:33:33.000Z</time></trkpt>
        <trkpt lat="29.566919" lon="103.437455"><ele>560.6179</ele><time>2026-07-20T20:33:35.000Z</time></trkpt>
        <trkpt lat="29.566906" lon="103.437439"><ele>560.61566</ele><time>2026-07-20T20:33:37.000Z</time></trkpt>
        <trkpt lat="29.566895" lon="103.437422"><ele>560.7624</ele><time>2026-07-20T20:33:39.000Z</time></trkpt>
        <trkpt lat="29.566884" lon="103.437407"><ele>562.074</ele><time>2026-07-20T20:33:41.000Z</time></trkpt>
        <trkpt lat="29.566874" lon="103.437391"><ele>562.45496</ele><time>2026-07-20T20:33:43.000Z</time></trkpt>
        <trkpt lat="29.566862" lon="103.437372"><ele>562.2662</ele><time>2026-07-20T20:33:45.000Z</time></trkpt>
        <trkpt lat="29.566845" lon="103.437349"><ele>561.4099</ele><time>2026-07-20T20:33:47.000Z</time></trkpt>
        <trkpt lat="29.566828" lon="103.437324"><ele>561.1558</ele><time>2026-07-20T20:33:49.000Z</time></trkpt>
        <trkpt lat="29.566816" lon="103.437303"><ele>561.63324</ele><time>2026-07-20T20:33:51.000Z</time></trkpt>
        <trkpt lat="29.566806" lon="103.43728"><ele>562.3966</ele><time>2026-07-20T20:33:53.000Z</time></trkpt>
        <trkpt lat="29.566799" lon="103.437259"><ele>563.0822</ele><time>2026-07-20T20:33:55.000Z</time></trkpt>
        <trkpt lat="29.566793" lon="103.437235"><ele>563.46967</ele><time>2026-07-20T20:33:57.000Z</time></trkpt>
        <trkpt lat="29.566785" lon="103.437211"><ele>563.2717</ele><time>2026-07-20T20:33:59.000Z</time></trkpt>
        <trkpt lat="29.566776" lon="103.437186"><ele>563.31195</ele><time>2026-07-20T20:34:01.000Z</time></trkpt>
        <trkpt lat="29.566768" lon="103.437166"><ele>564.1268</ele><time>2026-07-20T20:34:03.000Z</time></trkpt>
        <trkpt lat="29.56676" lon="103.437147"><ele>564.7566</ele><time>2026-07-20T20:34:05.000Z</time></trkpt>
        <trkpt lat="29.566751" lon="103.43713"><ele>564.6316</ele><time>2026-07-20T20:34:07.000Z</time></trkpt>
        <trkpt lat="29.566741" lon="103.437111"><ele>564.36584</ele><time>2026-07-20T20:34:09.000Z</time></trkpt>
        <trkpt lat="29.566729" lon="103.437095"><ele>563.9562</ele><time>2026-07-20T20:34:11.000Z</time></trkpt>
        <trkpt lat="29.566713" lon="103.437077"><ele>564.7468</ele><time>2026-07-20T20:34:13.000Z</time></trkpt>
        <trkpt lat="29.566699" lon="103.437061"><ele>564.5616</ele><time>2026-07-20T20:34:15.000Z</time></trkpt>
        <trkpt lat="29.566686" lon="103.437046"><ele>565.72833</ele><time>2026-07-20T20:34:17.000Z</time></trkpt>
        <trkpt lat="29.566673" lon="103.437031"><ele>566.49615</ele><time>2026-07-20T20:34:19.000Z</time></trkpt>
        <trkpt lat="29.566661" lon="103.437012"><ele>567.4176</ele><time>2026-07-20T20:34:21.000Z</time></trkpt>
        <trkpt lat="29.566651" lon="103.436992"><ele>568.5045</ele><time>2026-07-20T20:34:23.000Z</time></trkpt>
        <trkpt lat="29.566643" lon="103.436976"><ele>570.0798</ele><time>2026-07-20T20:34:25.000Z</time></trkpt>
        <trkpt lat="29.566634" lon="103.436962"><ele>569.5157</ele><time>2026-07-20T20:34:27.000Z</time></trkpt>
        <trkpt lat="29.56662" lon="103.436943"><ele>568.46045</ele><time>2026-07-20T20:34:29.000Z</time></trkpt>
        <trkpt lat="29.566605" lon="103.436923"><ele>568.1787</ele><time>2026-07-20T20:34:31.000Z</time></trkpt>
        <trkpt lat="29.566587" lon="103.4369"><ele>566.8478</ele><time>2026-07-20T20:34:33.000Z</time></trkpt>
        <trkpt lat="29.566571" lon="103.436873"><ele>566.16925</ele><time>2026-07-20T20:34:35.000Z</time></trkpt>
        <trkpt lat="29.566557" lon="103.436847"><ele>565.4895</ele><time>2026-07-20T20:34:37.000Z</time></trkpt>
        <trkpt lat="29.566545" lon="103.436822"><ele>565.1561</ele><time>2026-07-20T20:34:39.000Z</time></trkpt>
        <trkpt lat="29.566537" lon="103.436803"><ele>566.11475</ele><time>2026-07-20T20:34:41.000Z</time></trkpt>
        <trkpt lat="29.566529" lon="103.436784"><ele>565.8171</ele><time>2026-07-20T20:34:43.000Z</time></trkpt>
        <trkpt lat="29.566516" lon="103.436763"><ele>566.1372</ele><time>2026-07-20T20:34:45.000Z</time></trkpt>
        <trkpt lat="29.566503" lon="103.436745"><ele>567.0787</ele><time>2026-07-20T20:34:47.000Z</time></trkpt>
        <trkpt lat="29.566491" lon="103.436726"><ele>566.98</ele><time>2026-07-20T20:34:49.000Z</time></trkpt>
        <trkpt lat="29.56648" lon="103.436711"><ele>566.22076</ele><time>2026-07-20T20:34:51.000Z</time></trkpt>
        <trkpt lat="29.566468" lon="103.436694"><ele>566.737</ele><time>2026-07-20T20:34:53.000Z</time></trkpt>
        <trkpt lat="29.566454" lon="103.43668"><ele>566.4867</ele><time>2026-07-20T20:34:55.000Z</time></trkpt>
        <trkpt lat="29.566439" lon="103.436664"><ele>566.86096</ele><time>2026-07-20T20:34:57.000Z</time></trkpt>
        <trkpt lat="29.566425" lon="103.436644"><ele>566.25714</ele><time>2026-07-20T20:34:59.000Z</time></trkpt>
        <trkpt lat="29.566414" lon="103.436622"><ele>565.3878</ele><time>2026-07-20T20:35:01.000Z</time></trkpt>
        <trkpt lat="29.566405" lon="103.436599"><ele>564.9942</ele><time>2026-07-20T20:35:03.000Z</time></trkpt>
        <trkpt lat="29.566399" lon="103.436576"><ele>565.2264</ele><time>2026-07-20T20:35:05.000Z</time></trkpt>
        <trkpt lat="29.566394" lon="103.436552"><ele>564.9696</ele><time>2026-07-20T20:35:07.000Z</time></trkpt>
        <trkpt lat="29.566389" lon="103.436527"><ele>565.1197</ele><time>2026-07-20T20:35:09.000Z</time></trkpt>
        <trkpt lat="29.566384" lon="103.436503"><ele>565.73175</ele><time>2026-07-20T20:35:11.000Z</time></trkpt>
        <trkpt lat="29.566376" lon="103.43648"><ele>565.60693</ele><time>2026-07-20T20:35:13.000Z</time></trkpt>
        <trkpt lat="29.566368" lon="103.436459"><ele>565.49884</ele><time>2026-07-20T20:35:15.000Z</time></trkpt>
        <trkpt lat="29.566359" lon="103.436437"><ele>565.34595</ele><time>2026-07-20T20:35:17.000Z</time></trkpt>
        <trkpt lat="29.566349" lon="103.436413"><ele>565.824</ele><time>2026-07-20T20:35:19.000Z</time></trkpt>
        <trkpt lat="29.56634" lon="103.436391"><ele>566.03125</ele><time>2026-07-20T20:35:21.000Z</time></trkpt>
        <trkpt lat="29.566331" lon="103.436366"><ele>566.377</ele><time>2026-07-20T20:35:23.000Z</time></trkpt>
        <trkpt lat="29.566322" lon="103.436345"><ele>566.6848</ele><time>2026-07-20T20:35:25.000Z</time></trkpt>
        <trkpt lat="29.566314" lon="103.436325"><ele>566.145</ele><time>2026-07-20T20:35:27.000Z</time></trkpt>
        <trkpt lat="29.566306" lon="103.436307"><ele>567.05853</ele><time>2026-07-20T20:35:29.000Z</time></trkpt>
        <trkpt lat="29.566297" lon="103.436286"><ele>567.8596</ele><time>2026-07-20T20:35:31.000Z</time></trkpt>
        <trkpt lat="29.566289" lon="103.436263"><ele>567.89984</ele><time>2026-07-20T20:35:33.000Z</time></trkpt>
        <trkpt lat="29.566282" lon="103.43624"><ele>568.4303</ele><time>2026-07-20T20:35:35.000Z</time></trkpt>
        <trkpt lat="29.566276" lon="103.43622"><ele>568.9252</ele><time>2026-07-20T20:35:37.000Z</time></trkpt>
        <trkpt lat="29.566267" lon="103.436197"><ele>569.0905</ele><time>2026-07-20T20:35:39.000Z</time></trkpt>
        <trkpt lat="29.566257" lon="103.436174"><ele>569.1999</ele><time>2026-07-20T20:35:41.000Z</time></trkpt>
        <trkpt lat="29.566249" lon="103.436153"><ele>569.003</ele><time>2026-07-20T20:35:43.000Z</time></trkpt>
        <trkpt lat="29.566239" lon="103.436131"><ele>568.5721</ele><time>2026-07-20T20:35:45.000Z</time></trkpt>
        <trkpt lat="29.566228" lon="103.436105"><ele>568.4063</ele><time>2026-07-20T20:35:47.000Z</time></trkpt>
        <trkpt lat="29.56622" lon="103.436083"><ele>568.4964</ele><time>2026-07-20T20:35:49.000Z</time></trkpt>
        <trkpt lat="29.566214" lon="103.43606"><ele>568.835</ele><time>2026-07-20T20:35:51.000Z</time></trkpt>
        <trkpt lat="29.566211" lon="103.436035"><ele>568.5445</ele><time>2026-07-20T20:35:53.000Z</time></trkpt>
        <trkpt lat="29.566207" lon="103.436009"><ele>568.0917</ele><time>2026-07-20T20:35:55.000Z</time></trkpt>
        <trkpt lat="29.566204" lon="103.435988"><ele>568.4069</ele><time>2026-07-20T20:35:57.000Z</time></trkpt>
        <trkpt lat="29.566199" lon="103.435966"><ele>568.58026</ele><time>2026-07-20T20:35:59.000Z</time></trkpt>
        <trkpt lat="29.566193" lon="103.43594"><ele>568.07385</ele><time>2026-07-20T20:36:01.000Z</time></trkpt>
        <trkpt lat="29.566186" lon="103.435914"><ele>567.5912</ele><time>2026-07-20T20:36:03.000Z</time></trkpt>
        <trkpt lat="29.566181" lon="103.43589"><ele>566.9931</ele><time>2026-07-20T20:36:05.000Z</time></trkpt>
        <trkpt lat="29.566177" lon="103.435864"><ele>568.358</ele><time>2026-07-20T20:36:07.000Z</time></trkpt>
        <trkpt lat="29.566171" lon="103.435835"><ele>568.632</ele><time>2026-07-20T20:36:09.000Z</time></trkpt>
        <trkpt lat="29.566163" lon="103.435811"><ele>568.9164</ele><time>2026-07-20T20:36:11.000Z</time></trkpt>
        <trkpt lat="29.566155" lon="103.435784"><ele>569.48895</ele><time>2026-07-20T20:36:13.000Z</time></trkpt>
        <trkpt lat="29.566146" lon="103.435759"><ele>569.7619</ele><time>2026-07-20T20:36:15.000Z</time></trkpt>
        <trkpt lat="29.566137" lon="103.435738"><ele>569.7575</ele><time>2026-07-20T20:36:17.000Z</time></trkpt>
        <trkpt lat="29.566129" lon="103.435719"><ele>569.64185</ele><time>2026-07-20T20:36:19.000Z</time></trkpt>
        <trkpt lat="29.566122" lon="103.435699"><ele>570.5205</ele><time>2026-07-20T20:36:21.000Z</time></trkpt>
        <trkpt lat="29.566114" lon="103.435681"><ele>572.39813</ele><time>2026-07-20T20:36:23.000Z</time></trkpt>
        <trkpt lat="29.566104" lon="103.435666"><ele>571.96857</ele><time>2026-07-20T20:36:25.000Z</time></trkpt>
        <trkpt lat="29.566091" lon="103.435653"><ele>572.16394</ele><time>2026-07-20T20:36:27.000Z</time></trkpt>
        <trkpt lat="29.566078" lon="103.435643"><ele>572.64465</ele><time>2026-07-20T20:36:29.000Z</time></trkpt>
        <trkpt lat="29.566062" lon="103.435635"><ele>572.5089</ele><time>2026-07-20T20:36:31.000Z</time></trkpt>
        <trkpt lat="29.566044" lon="103.435626"><ele>573.4301</ele><time>2026-07-20T20:36:33.000Z</time></trkpt>
        <trkpt lat="29.566028" lon="103.435618"><ele>572.6827</ele><time>2026-07-20T20:36:35.000Z</time></trkpt>
        <trkpt lat="29.566011" lon="103.435607"><ele>571.82947</ele><time>2026-07-20T20:36:37.000Z</time></trkpt>
        <trkpt lat="29.565998" lon="103.435596"><ele>571.48395</ele><time>2026-07-20T20:36:39.000Z</time></trkpt>
        <trkpt lat="29.565987" lon="103.435585"><ele>571.1229</ele><time>2026-07-20T20:36:41.000Z</time></trkpt>
        <trkpt lat="29.565977" lon="103.435572"><ele>571.0889</ele><time>2026-07-20T20:36:43.000Z</time></trkpt>
        <trkpt lat="29.565965" lon="103.435555"><ele>570.4726</ele><time>2026-07-20T20:36:45.000Z</time></trkpt>
        <trkpt lat="29.565952" lon="103.435542"><ele>570.05505</ele><time>2026-07-20T20:36:47.000Z</time></trkpt>
        <trkpt lat="29.565942" lon="103.435532"><ele>570.8427</ele><time>2026-07-20T20:36:49.000Z</time></trkpt>
        <trkpt lat="29.565931" lon="103.435519"><ele>571.0719</ele><time>2026-07-20T20:36:51.000Z</time></trkpt>
        <trkpt lat="29.565918" lon="103.435503"><ele>572.0094</ele><time>2026-07-20T20:36:53.000Z</time></trkpt>
        <trkpt lat="29.565903" lon="103.435486"><ele>570.9828</ele><time>2026-07-20T20:36:55.000Z</time></trkpt>
        <trkpt lat="29.565884" lon="103.435468"><ele>570.79193</ele><time>2026-07-20T20:36:57.000Z</time></trkpt>
        <trkpt lat="29.565861" lon="103.435446"><ele>573.1198</ele><time>2026-07-20T20:36:59.000Z</time></trkpt>
        <trkpt lat="29.565844" lon="103.435425"><ele>573.3196</ele><time>2026-07-20T20:37:01.000Z</time></trkpt>
        <trkpt lat="29.565828" lon="103.435405"><ele>572.2644</ele><time>2026-07-20T20:37:03.000Z</time></trkpt>
        <trkpt lat="29.565815" lon="103.435386"><ele>571.0367</ele><time>2026-07-20T20:37:05.000Z</time></trkpt>
        <trkpt lat="29.565802" lon="103.435376"><ele>572.52454</ele><time>2026-07-20T20:37:07.000Z</time></trkpt>
        <trkpt lat="29.565791" lon="103.43537"><ele>575.89526</ele><time>2026-07-20T20:37:09.000Z</time></trkpt>
        <trkpt lat="29.56579" lon="103.435366"><ele>576.3161</ele><time>2026-07-20T20:37:11.000Z</time></trkpt>
        <trkpt lat="29.565787" lon="103.435344"><ele>574.9005</ele><time>2026-07-20T20:37:15.000Z</time></trkpt>
        <trkpt lat="29.565785" lon="103.435333"><ele>571.71063</ele><time>2026-07-20T20:37:21.000Z</time></trkpt>
        <trkpt lat="29.565783" lon="103.435315"><ele>571.26276</ele><time>2026-07-20T20:37:23.000Z</time></trkpt>
        <trkpt lat="29.565784" lon="103.435313"><ele>571.26276</ele><time>2026-07-20T20:37:25.000Z</time></trkpt>
        <trkpt lat="29.56578" lon="103.435301"><ele>570.99274</ele><time>2026-07-20T20:37:51.000Z</time></trkpt>
        <trkpt lat="29.565769" lon="103.435267"><ele>571.8898</ele><time>2026-07-20T20:37:55.000Z</time></trkpt>
        <trkpt lat="29.565761" lon="103.435244"><ele>571.873</ele><time>2026-07-20T20:37:57.000Z</time></trkpt>
        <trkpt lat="29.56576" lon="103.435243"><ele>572.02606</ele><time>2026-07-20T20:37:59.000Z</time></trkpt>
        <trkpt lat="29.565747" lon="103.435229"><ele>573.49817</ele><time>2026-07-20T20:38:03.000Z</time></trkpt>
        <trkpt lat="29.565732" lon="103.435209"><ele>573.8948</ele><time>2026-07-20T20:38:05.000Z</time></trkpt>
        <trkpt lat="29.565718" lon="103.435187"><ele>574.28503</ele><time>2026-07-20T20:38:07.000Z</time></trkpt>
        <trkpt lat="29.565703" lon="103.435162"><ele>573.65607</ele><time>2026-07-20T20:38:09.000Z</time></trkpt>
        <trkpt lat="29.565687" lon="103.435144"><ele>574.05634</ele><time>2026-07-20T20:38:11.000Z</time></trkpt>
        <trkpt lat="29.565667" lon="103.435124"><ele>573.0169</ele><time>2026-07-20T20:38:13.000Z</time></trkpt>
        <trkpt lat="29.565647" lon="103.435107"><ele>574.36096</ele><time>2026-07-20T20:38:15.000Z</time></trkpt>
        <trkpt lat="29.565628" lon="103.435097"><ele>576.24786</ele><time>2026-07-20T20:38:17.000Z</time></trkpt>
        <trkpt lat="29.56561" lon="103.435095"><ele>576.45715</ele><time>2026-07-20T20:38:19.000Z</time></trkpt>
        <trkpt lat="29.565604" lon="103.435088"><ele>578.1382</ele><time>2026-07-20T20:38:21.000Z</time></trkpt>
        <trkpt lat="29.565595" lon="103.435077"><ele>578.34155</ele><time>2026-07-20T20:38:23.000Z</time></trkpt>
        <trkpt lat="29.56558" lon="103.435067"><ele>577.2375</ele><time>2026-07-20T20:38:25.000Z</time></trkpt>
        <trkpt lat="29.565563" lon="103.435062"><ele>575.5872</ele><time>2026-07-20T20:38:27.000Z</time></trkpt>
        <trkpt lat="29.565541" lon="103.435062"><ele>575.4757</ele><time>2026-07-20T20:38:29.000Z</time></trkpt>
        <trkpt lat="29.565502" lon="103.435064"><ele>575.0253</ele><time>2026-07-20T20:38:31.000Z</time></trkpt>
        <trkpt lat="29.56547" lon="103.435067"><ele>574.9416</ele><time>2026-07-20T20:38:33.000Z</time></trkpt>
        <trkpt lat="29.565451" lon="103.435068"><ele>575.13275</ele><time>2026-07-20T20:38:35.000Z</time></trkpt>
        <trkpt lat="29.565437" lon="103.435067"><ele>574.6143</ele><time>2026-07-20T20:38:37.000Z</time></trkpt>
        <trkpt lat="29.565423" lon="103.435066"><ele>574.3128</ele><time>2026-07-20T20:38:39.000Z</time></trkpt>
        <trkpt lat="29.5654" lon="103.43506"><ele>572.6812</ele><time>2026-07-20T20:38:41.000Z</time></trkpt>
        <trkpt lat="29.565378" lon="103.435055"><ele>572.04285</ele><time>2026-07-20T20:38:43.000Z</time></trkpt>
        <trkpt lat="29.565359" lon="103.43505"><ele>571.8766</ele><time>2026-07-20T20:38:45.000Z</time></trkpt>
        <trkpt lat="29.565347" lon="103.435039"><ele>571.7584</ele><time>2026-07-20T20:38:47.000Z</time></trkpt>
        <trkpt lat="29.565339" lon="103.435022"><ele>570.47437</ele><time>2026-07-20T20:38:49.000Z</time></trkpt>
        <trkpt lat="29.565338" lon="103.435001"><ele>570.0229</ele><time>2026-07-20T20:38:51.000Z</time></trkpt>
        <trkpt lat="29.56534" lon="103.434965"><ele>569.3549</ele><time>2026-07-20T20:38:53.000Z</time></trkpt>
        <trkpt lat="29.565345" lon="103.434933"><ele>569.9655</ele><time>2026-07-20T20:38:55.000Z</time></trkpt>
        <trkpt lat="29.565348" lon="103.434908"><ele>569.224</ele><time>2026-07-20T20:38:57.000Z</time></trkpt>
        <trkpt lat="29.565349" lon="103.434885"><ele>569.51605</ele><time>2026-07-20T20:38:59.000Z</time></trkpt>
        <trkpt lat="29.565348" lon="103.434866"><ele>569.1892</ele><time>2026-07-20T20:39:01.000Z</time></trkpt>
        <trkpt lat="29.565341" lon="103.434849"><ele>569.4793</ele><time>2026-07-20T20:39:03.000Z</time></trkpt>
        <trkpt lat="29.565332" lon="103.434838"><ele>569.362</ele><time>2026-07-20T20:39:05.000Z</time></trkpt>
        <trkpt lat="29.565321" lon="103.434827"><ele>567.62366</ele><time>2026-07-20T20:39:07.000Z</time></trkpt>
        <trkpt lat="29.56531" lon="103.434818"><ele>567.1631</ele><time>2026-07-20T20:39:09.000Z</time></trkpt>
        <trkpt lat="29.565305" lon="103.43482"><ele>567.8683</ele><time>2026-07-20T20:39:11.000Z</time></trkpt>
        <trkpt lat="29.565284" lon="103.434835"><ele>570.02313</ele><time>2026-07-20T20:39:17.000Z</time></trkpt>
        <trkpt lat="29.565278" lon="103.434846"><ele>570.11786</ele><time>2026-07-20T20:39:19.000Z</time></trkpt>
        <trkpt lat="29.565265" lon="103.434869"><ele>571.01556</ele><time>2026-07-20T20:39:21.000Z</time></trkpt>
        <trkpt lat="29.565245" lon="103.434897"><ele>570.6148</ele><time>2026-07-20T20:39:23.000Z</time></trkpt>
        <trkpt lat="29.565224" lon="103.434928"><ele>569.9801</ele><time>2026-07-20T20:39:25.000Z</time></trkpt>
        <trkpt lat="29.565205" lon="103.434958"><ele>570.6278</ele><time>2026-07-20T20:39:27.000Z</time></trkpt>
        <trkpt lat="29.565188" lon="103.434982"><ele>571.43933</ele><time>2026-07-20T20:39:29.000Z</time></trkpt>
        <trkpt lat="29.565175" lon="103.435003"><ele>571.91125</ele><time>2026-07-20T20:39:31.000Z</time></trkpt>
        <trkpt lat="29.565164" lon="103.435022"><ele>572.6475</ele><time>2026-07-20T20:39:33.000Z</time></trkpt>
        <trkpt lat="29.565157" lon="103.435038"><ele>572.6969</ele><time>2026-07-20T20:39:35.000Z</time></trkpt>
        <trkpt lat="29.565148" lon="103.435058"><ele>571.97095</ele><time>2026-07-20T20:39:37.000Z</time></trkpt>
        <trkpt lat="29.565141" lon="103.435077"><ele>572.1918</ele><time>2026-07-20T20:39:39.000Z</time></trkpt>
        <trkpt lat="29.565137" lon="103.43509"><ele>572.416</ele><time>2026-07-20T20:39:41.000Z</time></trkpt>
        <trkpt lat="29.565132" lon="103.4351"><ele>573.05347</ele><time>2026-07-20T20:39:43.000Z</time></trkpt>
        <trkpt lat="29.565127" lon="103.435115"><ele>573.64075</ele><time>2026-07-20T20:39:45.000Z</time></trkpt>
        <trkpt lat="29.565123" lon="103.435132"><ele>573.87646</ele><time>2026-07-20T20:39:47.000Z</time></trkpt>
        <trkpt lat="29.565123" lon="103.435147"><ele>573.9777</ele><time>2026-07-20T20:39:49.000Z</time></trkpt>
        <trkpt lat="29.565125" lon="103.435166"><ele>574.03656</ele><time>2026-07-20T20:39:51.000Z</time></trkpt>
        <trkpt lat="29.565128" lon="103.43519"><ele>573.7629</ele><time>2026-07-20T20:39:53.000Z</time></trkpt>
        <trkpt lat="29.565129" lon="103.435208"><ele>573.9409</ele><time>2026-07-20T20:39:55.000Z</time></trkpt>
        <trkpt lat="29.565126" lon="103.435215"><ele>573.7719</ele><time>2026-07-20T20:39:57.000Z</time></trkpt>
        <trkpt lat="29.565119" lon="103.435227"><ele>573.6677</ele><time>2026-07-20T20:39:59.000Z</time></trkpt>
        <trkpt lat="29.565109" lon="103.435241"><ele>573.97034</ele><time>2026-07-20T20:40:01.000Z</time></trkpt>
        <trkpt lat="29.565096" lon="103.435257"><ele>574.2697</ele><time>2026-07-20T20:40:03.000Z</time></trkpt>
        <trkpt lat="29.565079" lon="103.43527"><ele>575.37836</ele><time>2026-07-20T20:40:05.000Z</time></trkpt>
        <trkpt lat="29.565059" lon="103.435285"><ele>575.4032</ele><time>2026-07-20T20:40:07.000Z</time></trkpt>
        <trkpt lat="29.565043" lon="103.435298"><ele>575.84406</ele><time>2026-07-20T20:40:09.000Z</time></trkpt>
        <trkpt lat="29.565026" lon="103.435314"><ele>575.18036</ele><time>2026-07-20T20:40:11.000Z</time></trkpt>
        <trkpt lat="29.565011" lon="103.435331"><ele>575.2697</ele><time>2026-07-20T20:40:13.000Z</time></trkpt>
        <trkpt lat="29.564998" lon="103.435346"><ele>575.60236</ele><time>2026-07-20T20:40:15.000Z</time></trkpt>
        <trkpt lat="29.564987" lon="103.435357"><ele>575.2654</ele><time>2026-07-20T20:40:17.000Z</time></trkpt>
        <trkpt lat="29.564975" lon="103.435365"><ele>576.00543</ele><time>2026-07-20T20:40:19.000Z</time></trkpt>
        <trkpt lat="29.564961" lon="103.435374"><ele>577.2553</ele><time>2026-07-20T20:40:21.000Z</time></trkpt>
        <trkpt lat="29.564947" lon="103.435385"><ele>577.64856</ele><time>2026-07-20T20:40:23.000Z</time></trkpt>
        <trkpt lat="29.56494" lon="103.435395"><ele>578.074</ele><time>2026-07-20T20:40:25.000Z</time></trkpt>
        <trkpt lat="29.564941" lon="103.435402"><ele>577.577</ele><time>2026-07-20T20:40:27.000Z</time></trkpt>
        <trkpt lat="29.564945" lon="103.435424"><ele>576.58435</ele><time>2026-07-20T20:40:31.000Z</time></trkpt>
        <trkpt lat="29.564949" lon="103.435435"><ele>576.3379</ele><time>2026-07-20T20:40:33.000Z</time></trkpt>
        <trkpt lat="29.564947" lon="103.435439"><ele>576.23914</ele><time>2026-07-20T20:40:35.000Z</time></trkpt>
        <trkpt lat="29.564931" lon="103.435462"><ele>577.2669</ele><time>2026-07-20T20:40:41.000Z</time></trkpt>
        <trkpt lat="29.564927" lon="103.435465"><ele>576.8223</ele><time>2026-07-20T20:40:43.000Z</time></trkpt>
        <trkpt lat="29.564925" lon="103.435464"><ele>577.48444</ele><time>2026-07-20T20:40:45.000Z</time></trkpt>
        <trkpt lat="29.564905" lon="103.435453"><ele>575.53845</ele><time>2026-07-20T20:40:53.000Z</time></trkpt>
        <trkpt lat="29.564902" lon="103.435451"><ele>579.69135</ele><time>2026-07-20T20:40:59.000Z</time></trkpt>
        <trkpt lat="29.564901" lon="103.435449"><ele>577.6935</ele><time>2026-07-20T20:41:01.000Z</time></trkpt>
        <trkpt lat="29.564881" lon="103.435431"><ele>578.1647</ele><time>2026-07-20T20:41:07.000Z</time></trkpt>
        <trkpt lat="29.564864" lon="103.435417"><ele>578.3954</ele><time>2026-07-20T20:41:09.000Z</time></trkpt>
        <trkpt lat="29.564863" lon="103.435415"><ele>579.8576</ele><time>2026-07-20T20:41:11.000Z</time></trkpt>
        <trkpt lat="29.564853" lon="103.435407"><ele>579.2199</ele><time>2026-07-20T20:41:15.000Z</time></trkpt>
        <trkpt lat="29.56483" lon="103.435388"><ele>577.7042</ele><time>2026-07-20T20:41:19.000Z</time></trkpt>
        <trkpt lat="29.564827" lon="103.435383"><ele>578.6928</ele><time>2026-07-20T20:41:21.000Z</time></trkpt>
        <trkpt lat="29.564827" lon="103.435383"><ele>578.4775</ele><time>2026-07-20T20:41:23.000Z</time></trkpt>
        <trkpt lat="29.564816" lon="103.435359"><ele>579.1513</ele><time>2026-07-20T20:41:31.000Z</time></trkpt>
        <trkpt lat="29.564801" lon="103.435344"><ele>580.4485</ele><time>2026-07-20T20:41:33.000Z</time></trkpt>
        <trkpt lat="29.56479" lon="103.435334"><ele>580.4514</ele><time>2026-07-20T20:41:35.000Z</time></trkpt>
        <trkpt lat="29.564789" lon="103.435333"><ele>581.5923</ele><time>2026-07-20T20:41:37.000Z</time></trkpt>
        <trkpt lat="29.564775" lon="103.435319"><ele>583.43243</ele><time>2026-07-20T20:41:41.000Z</time></trkpt>
        <trkpt lat="29.564753" lon="103.4353"><ele>584.1723</ele><time>2026-07-20T20:41:43.000Z</time></trkpt>
        <trkpt lat="29.564726" lon="103.435278"><ele>583.75385</ele><time>2026-07-20T20:41:45.000Z</time></trkpt>
        <trkpt lat="29.564696" lon="103.435256"><ele>583.36615</ele><time>2026-07-20T20:41:47.000Z</time></trkpt>
        <trkpt lat="29.564669" lon="103.435238"><ele>584.6711</ele><time>2026-07-20T20:41:49.000Z</time></trkpt>
        <trkpt lat="29.564648" lon="103.435228"><ele>584.49744</ele><time>2026-07-20T20:41:51.000Z</time></trkpt>
        <trkpt lat="29.564631" lon="103.435222"><ele>585.8435</ele><time>2026-07-20T20:41:53.000Z</time></trkpt>
        <trkpt lat="29.564619" lon="103.435214"><ele>586.95355</ele><time>2026-07-20T20:41:55.000Z</time></trkpt>
        <trkpt lat="29.564609" lon="103.435203"><ele>587.06366</ele><time>2026-07-20T20:41:57.000Z</time></trkpt>
        <trkpt lat="29.564597" lon="103.435188"><ele>587.05115</ele><time>2026-07-20T20:41:59.000Z</time></trkpt>
        <trkpt lat="29.564587" lon="103.435173"><ele>588.20325</ele><time>2026-07-20T20:42:01.000Z</time></trkpt>
        <trkpt lat="29.564573" lon="103.435153"><ele>586.5064</ele><time>2026-07-20T20:42:03.000Z</time></trkpt>
        <trkpt lat="29.564559" lon="103.435134"><ele>586.5174</ele><time>2026-07-20T20:42:05.000Z</time></trkpt>
        <trkpt lat="29.564547" lon="103.435116"><ele>586.54614</ele><time>2026-07-20T20:42:07.000Z</time></trkpt>
        <trkpt lat="29.564538" lon="103.435106"><ele>585.34143</ele><time>2026-07-20T20:42:09.000Z</time></trkpt>
        <trkpt lat="29.564526" lon="103.435095"><ele>584.86346</ele><time>2026-07-20T20:42:11.000Z</time></trkpt>
        <trkpt lat="29.564517" lon="103.435085"><ele>584.8325</ele><time>2026-07-20T20:42:13.000Z</time></trkpt>
        <trkpt lat="29.564507" lon="103.435075"><ele>584.8272</ele><time>2026-07-20T20:42:15.000Z</time></trkpt>
        <trkpt lat="29.564495" lon="103.435063"><ele>584.71466</ele><time>2026-07-20T20:42:17.000Z</time></trkpt>
        <trkpt lat="29.564484" lon="103.435051"><ele>585.2545</ele><time>2026-07-20T20:42:19.000Z</time></trkpt>
        <trkpt lat="29.564472" lon="103.43504"><ele>584.4224</ele><time>2026-07-20T20:42:21.000Z</time></trkpt>
        <trkpt lat="29.564457" lon="103.435033"><ele>585.0199</ele><time>2026-07-20T20:42:23.000Z</time></trkpt>
        <trkpt lat="29.564441" lon="103.43503"><ele>585.8136</ele><time>2026-07-20T20:42:25.000Z</time></trkpt>
        <trkpt lat="29.564429" lon="103.435034"><ele>586.4089</ele><time>2026-07-20T20:42:27.000Z</time></trkpt>
        <trkpt lat="29.56441" lon="103.435043"><ele>586.40234</ele><time>2026-07-20T20:42:29.000Z</time></trkpt>
        <trkpt lat="29.56439" lon="103.435054"><ele>586.3327</ele><time>2026-07-20T20:42:31.000Z</time></trkpt>
        <trkpt lat="29.564369" lon="103.435064"><ele>586.82855</ele><time>2026-07-20T20:42:33.000Z</time></trkpt>
        <trkpt lat="29.564348" lon="103.435075"><ele>587.8891</ele><time>2026-07-20T20:42:35.000Z</time></trkpt>
        <trkpt lat="29.564328" lon="103.435083"><ele>588.3917</ele><time>2026-07-20T20:42:37.000Z</time></trkpt>
        <trkpt lat="29.564315" lon="103.43509"><ele>589.0116</ele><time>2026-07-20T20:42:39.000Z</time></trkpt>
        <trkpt lat="29.564302" lon="103.435096"><ele>590.437</ele><time>2026-07-20T20:42:41.000Z</time></trkpt>
        <trkpt lat="29.564292" lon="103.435099"><ele>592.123</ele><time>2026-07-20T20:42:43.000Z</time></trkpt>
        <trkpt lat="29.564292" lon="103.4351"><ele>593.03375</ele><time>2026-07-20T20:42:45.000Z</time></trkpt>
        <trkpt lat="29.56429" lon="103.435065"><ele>596.6994</ele><time>2026-07-20T20:43:01.000Z</time></trkpt>
        <trkpt lat="29.564289" lon="103.435061"><ele>597.4217</ele><time>2026-07-20T20:43:03.000Z</time></trkpt>
        <trkpt lat="29.564285" lon="103.435059"><ele>597.6833</ele><time>2026-07-20T20:43:05.000Z</time></trkpt>
        <trkpt lat="29.564272" lon="103.435036"><ele>600.8306</ele><time>2026-07-20T20:43:11.000Z</time></trkpt>
        <trkpt lat="29.564265" lon="103.435024"><ele>600.7669</ele><time>2026-07-20T20:43:13.000Z</time></trkpt>
        <trkpt lat="29.564265" lon="103.435023"><ele>601.3371</ele><time>2026-07-20T20:43:15.000Z</time></trkpt>
        <trkpt lat="29.56426" lon="103.434988"><ele>599.6771</ele><time>2026-07-20T20:43:21.000Z</time></trkpt>
        <trkpt lat="29.564255" lon="103.434959"><ele>599.3211</ele><time>2026-07-20T20:43:23.000Z</time></trkpt>
        <trkpt lat="29.564249" lon="103.434929"><ele>599.797</ele><time>2026-07-20T20:43:25.000Z</time></trkpt>
        <trkpt lat="29.564246" lon="103.434904"><ele>599.726</ele><time>2026-07-20T20:43:27.000Z</time></trkpt>
        <trkpt lat="29.564244" lon="103.434881"><ele>600.14087</ele><time>2026-07-20T20:43:29.000Z</time></trkpt>
        <trkpt lat="29.56424" lon="103.434866"><ele>601.0704</ele><time>2026-07-20T20:43:31.000Z</time></trkpt>
        <trkpt lat="29.564234" lon="103.434857"><ele>601.98615</ele><time>2026-07-20T20:43:33.000Z</time></trkpt>
        <trkpt lat="29.564229" lon="103.434851"><ele>602.5746</ele><time>2026-07-20T20:43:35.000Z</time></trkpt>
        <trkpt lat="29.564213" lon="103.434841"><ele>604.07355</ele><time>2026-07-20T20:43:41.000Z</time></trkpt>
        <trkpt lat="29.564205" lon="103.434836"><ele>605.77826</ele><time>2026-07-20T20:43:45.000Z</time></trkpt>
        <trkpt lat="29.564201" lon="103.434834"><ele>606.5715</ele><time>2026-07-20T20:43:47.000Z</time></trkpt>
        <trkpt lat="29.56418" lon="103.434817"><ele>603.38983</ele><time>2026-07-20T20:43:59.000Z</time></trkpt>
        <trkpt lat="29.564164" lon="103.434804"><ele>603.65015</ele><time>2026-07-20T20:44:01.000Z</time></trkpt>
        <trkpt lat="29.564163" lon="103.434802"><ele>603.19006</ele><time>2026-07-20T20:44:03.000Z</time></trkpt>
        <trkpt lat="29.564155" lon="103.434789"><ele>603.38043</ele><time>2026-07-20T20:44:11.000Z</time></trkpt>
        <trkpt lat="29.564141" lon="103.434766"><ele>603.45325</ele><time>2026-07-20T20:44:13.000Z</time></trkpt>
        <trkpt lat="29.56414" lon="103.434765"><ele>602.5996</ele><time>2026-07-20T20:44:15.000Z</time></trkpt>
        <trkpt lat="29.564134" lon="103.434758"><ele>601.8789</ele><time>2026-07-20T20:44:19.000Z</time></trkpt>
        <trkpt lat="29.564116" lon="103.434739"><ele>603.25854</ele><time>2026-07-20T20:44:27.000Z</time></trkpt>
        <trkpt lat="29.564112" lon="103.434735"><ele>603.69763</ele><time>2026-07-20T20:44:29.000Z</time></trkpt>
        <trkpt lat="29.564109" lon="103.43473"><ele>604.70215</ele><time>2026-07-20T20:44:31.000Z</time></trkpt>
        <trkpt lat="29.564085" lon="103.434695"><ele>607.0788</ele><time>2026-07-20T20:44:34.000Z</time></trkpt>
        <trkpt lat="29.564084" lon="103.434693"><ele>607.79333</ele><time>2026-07-20T20:44:36.000Z</time></trkpt>
        <trkpt lat="29.564084" lon="103.434693"><ele>607.0367</ele><time>2026-07-20T20:44:38.000Z</time></trkpt>
        <trkpt lat="29.564056" lon="103.434653"><ele>606.8266</ele><time>2026-07-20T20:44:44.000Z</time></trkpt>
        <trkpt lat="29.564056" lon="103.434653"><ele>606.06134</ele><time>2026-07-20T20:44:46.000Z</time></trkpt>
        <trkpt lat="29.564054" lon="103.434652"><ele>606.6447</ele><time>2026-07-20T20:44:48.000Z</time></trkpt>
        <trkpt lat="29.56402" lon="103.434633"><ele>610.08276</ele><time>2026-07-20T20:44:54.000Z</time></trkpt>
        <trkpt lat="29.564014" lon="103.434625"><ele>609.5605</ele><time>2026-07-20T20:44:56.000Z</time></trkpt>
        <trkpt lat="29.564011" lon="103.434611"><ele>610.6445</ele><time>2026-07-20T20:44:58.000Z</time></trkpt>
        <trkpt lat="29.564011" lon="103.434598"><ele>611.5181</ele><time>2026-07-20T20:45:00.000Z</time></trkpt>
        <trkpt lat="29.564009" lon="103.434577"><ele>612.1857</ele><time>2026-07-20T20:45:02.000Z</time></trkpt>
        <trkpt lat="29.564002" lon="103.434562"><ele>610.047</ele><time>2026-07-20T20:45:04.000Z</time></trkpt>
        <trkpt lat="29.563996" lon="103.434558"><ele>608.48334</ele><time>2026-07-20T20:45:06.000Z</time></trkpt>
        <trkpt lat="29.563984" lon="103.434559"><ele>609.09644</ele><time>2026-07-20T20:45:10.000Z</time></trkpt>
        <trkpt lat="29.56397" lon="103.434562"><ele>610.2649</ele><time>2026-07-20T20:45:12.000Z</time></trkpt>
        <trkpt lat="29.563962" lon="103.434566"><ele>611.3784</ele><time>2026-07-20T20:45:14.000Z</time></trkpt>
        <trkpt lat="29.563955" lon="103.434569"><ele>612.67316</ele><time>2026-07-20T20:45:16.000Z</time></trkpt>
        <trkpt lat="29.563934" lon="103.434576"><ele>613.11224</ele><time>2026-07-20T20:45:20.000Z</time></trkpt>
        <trkpt lat="29.563926" lon="103.434579"><ele>613.56244</ele><time>2026-07-20T20:45:22.000Z</time></trkpt>
        <trkpt lat="29.563926" lon="103.434578"><ele>613.91144</ele><time>2026-07-20T20:45:24.000Z</time></trkpt>
        <trkpt lat="29.563911" lon="103.434532"><ele>615.67395</ele><time>2026-07-20T20:45:34.000Z</time></trkpt>
        <trkpt lat="29.563911" lon="103.434532"><ele>615.3519</ele><time>2026-07-20T20:45:36.000Z</time></trkpt>
        <trkpt lat="29.563908" lon="103.434531"><ele>615.6091</ele><time>2026-07-20T20:45:38.000Z</time></trkpt>
        <trkpt lat="29.56386" lon="103.434518"><ele>615.7099</ele><time>2026-07-20T20:45:42.000Z</time></trkpt>
        <trkpt lat="29.563773" lon="103.434494"><ele>612.83167</ele><time>2026-07-20T20:45:44.000Z</time></trkpt>
        <trkpt lat="29.563767" lon="103.434493"><ele>611.99396</ele><time>2026-07-20T20:45:46.000Z</time></trkpt>
        <trkpt lat="29.563766" lon="103.434494"><ele>611.2747</ele><time>2026-07-20T20:45:48.000Z</time></trkpt>
        <trkpt lat="29.563737" lon="103.434529"><ele>611.3436</ele><time>2026-07-20T20:45:54.000Z</time></trkpt>
        <trkpt lat="29.56372" lon="103.434549"><ele>611.4113</ele><time>2026-07-20T20:45:56.000Z</time></trkpt>
        <trkpt lat="29.563706" lon="103.434564"><ele>612.6721</ele><time>2026-07-20T20:45:58.000Z</time></trkpt>
        <trkpt lat="29.563708" lon="103.43457"><ele>613.0691</ele><time>2026-07-20T20:46:00.000Z</time></trkpt>
        <trkpt lat="29.563687" lon="103.4345"><ele>615.7458</ele><time>2026-07-20T20:46:12.000Z</time></trkpt>
        <trkpt lat="29.563687" lon="103.4345"><ele>615.2678</ele><time>2026-07-20T20:46:14.000Z</time></trkpt>
        <trkpt lat="29.563687" lon="103.4345"><ele>615.52325</ele><time>2026-07-20T20:46:16.000Z</time></trkpt>
        <trkpt lat="29.563651" lon="103.434464"><ele>615.35046</ele><time>2026-07-20T20:46:26.000Z</time></trkpt>
        <trkpt lat="29.563651" lon="103.434464"><ele>615.8831</ele><time>2026-07-20T20:46:28.000Z</time></trkpt>
        <trkpt lat="29.56365" lon="103.434465"><ele>616.4858</ele><time>2026-07-20T20:46:30.000Z</time></trkpt>
        <trkpt lat="29.56362" lon="103.43448"><ele>616.23865</ele><time>2026-07-20T20:46:33.000Z</time></trkpt>
        <trkpt lat="29.56362" lon="103.43448"><ele>616.454</ele><time>2026-07-20T20:46:35.000Z</time></trkpt>
        <trkpt lat="29.563619" lon="103.43448"><ele>616.8033</ele><time>2026-07-20T20:46:37.000Z</time></trkpt>
        <trkpt lat="29.563583" lon="103.434487"><ele>618.8555</ele><time>2026-07-20T20:46:43.000Z</time></trkpt>
        <trkpt lat="29.563565" lon="103.434492"><ele>618.7333</ele><time>2026-07-20T20:46:45.000Z</time></trkpt>
        <trkpt lat="29.56355" lon="103.434497"><ele>618.93634</ele><time>2026-07-20T20:46:47.000Z</time></trkpt>
        <trkpt lat="29.563534" lon="103.434504"><ele>618.7093</ele><time>2026-07-20T20:46:49.000Z</time></trkpt>
        <trkpt lat="29.563521" lon="103.434513"><ele>618.5993</ele><time>2026-07-20T20:46:51.000Z</time></trkpt>
        <trkpt lat="29.563507" lon="103.434524"><ele>618.59875</ele><time>2026-07-20T20:46:53.000Z</time></trkpt>
        <trkpt lat="29.56349" lon="103.434536"><ele>618.32263</ele><time>2026-07-20T20:46:55.000Z</time></trkpt>
        <trkpt lat="29.563475" lon="103.434547"><ele>617.70526</ele><time>2026-07-20T20:46:57.000Z</time></trkpt>
        <trkpt lat="29.563461" lon="103.434563"><ele>616.368</ele><time>2026-07-20T20:46:59.000Z</time></trkpt>
        <trkpt lat="29.563445" lon="103.434584"><ele>615.78625</ele><time>2026-07-20T20:47:01.000Z</time></trkpt>
        <trkpt lat="29.563432" lon="103.434606"><ele>615.23364</ele><time>2026-07-20T20:47:03.000Z</time></trkpt>
        <trkpt lat="29.563424" lon="103.434627"><ele>615.15643</ele><time>2026-07-20T20:47:05.000Z</time></trkpt>
        <trkpt lat="29.563417" lon="103.434648"><ele>615.8199</ele><time>2026-07-20T20:47:07.000Z</time></trkpt>
        <trkpt lat="29.56341" lon="103.434664"><ele>616.10864</ele><time>2026-07-20T20:47:09.000Z</time></trkpt>
        <trkpt lat="29.563406" lon="103.434676"><ele>615.96704</ele><time>2026-07-20T20:47:11.000Z</time></trkpt>
        <trkpt lat="29.563398" lon="103.43469"><ele>616.8109</ele><time>2026-07-20T20:47:13.000Z</time></trkpt>
        <trkpt lat="29.563395" lon="103.434708"><ele>616.8752</ele><time>2026-07-20T20:47:17.000Z</time></trkpt>
        <trkpt lat="29.563393" lon="103.434737"><ele>616.7732</ele><time>2026-07-20T20:47:19.000Z</time></trkpt>
        <trkpt lat="29.563391" lon="103.434761"><ele>617.4879</ele><time>2026-07-20T20:47:21.000Z</time></trkpt>
        <trkpt lat="29.563388" lon="103.434786"><ele>618.10864</ele><time>2026-07-20T20:47:23.000Z</time></trkpt>
        <trkpt lat="29.563391" lon="103.434807"><ele>618.18353</ele><time>2026-07-20T20:47:25.000Z</time></trkpt>
        <trkpt lat="29.563398" lon="103.43482"><ele>619.0814</ele><time>2026-07-20T20:47:27.000Z</time></trkpt>
        <trkpt lat="29.56341" lon="103.434833"><ele>618.98334</ele><time>2026-07-20T20:47:29.000Z</time></trkpt>
        <trkpt lat="29.563427" lon="103.434845"><ele>619.37476</ele><time>2026-07-20T20:47:31.000Z</time></trkpt>
        <trkpt lat="29.563447" lon="103.43486"><ele>619.86865</ele><time>2026-07-20T20:47:33.000Z</time></trkpt>
        <trkpt lat="29.563464" lon="103.434873"><ele>621.41425</ele><time>2026-07-20T20:47:35.000Z</time></trkpt>
        <trkpt lat="29.563477" lon="103.434885"><ele>621.2925</ele><time>2026-07-20T20:47:37.000Z</time></trkpt>
        <trkpt lat="29.563486" lon="103.434892"><ele>620.69196</ele><time>2026-07-20T20:47:39.000Z</time></trkpt>
        <trkpt lat="29.563494" lon="103.434903"><ele>620.28754</ele><time>2026-07-20T20:47:41.000Z</time></trkpt>
        <trkpt lat="29.563496" lon="103.434912"><ele>619.5327</ele><time>2026-07-20T20:47:43.000Z</time></trkpt>
        <trkpt lat="29.563491" lon="103.434916"><ele>619.0215</ele><time>2026-07-20T20:47:47.000Z</time></trkpt>
        <trkpt lat="29.563464" lon="103.434941"><ele>618.7886</ele><time>2026-07-20T20:47:51.000Z</time></trkpt>
        <trkpt lat="29.563464" lon="103.434941"><ele>619.14325</ele><time>2026-07-20T20:47:53.000Z</time></trkpt>
        <trkpt lat="29.563464" lon="103.434942"><ele>620.44464</ele><time>2026-07-20T20:47:55.000Z</time></trkpt>
        <trkpt lat="29.563511" lon="103.435009"><ele>622.1029</ele><time>2026-07-20T20:48:01.000Z</time></trkpt>
        <trkpt lat="29.563511" lon="103.435009"><ele>622.3105</ele><time>2026-07-20T20:48:03.000Z</time></trkpt>
        <trkpt lat="29.563511" lon="103.43501"><ele>622.6631</ele><time>2026-07-20T20:48:05.000Z</time></trkpt>
        <trkpt lat="29.563506" lon="103.435095"><ele>622.58765</ele><time>2026-07-20T20:48:13.000Z</time></trkpt>
        <trkpt lat="29.563517" lon="103.435068"><ele>623.1168</ele><time>2026-07-20T20:48:15.000Z</time></trkpt>
        <trkpt lat="29.563555" lon="103.434945"><ele>625.2463</ele><time>2026-07-20T20:49:08.000Z</time></trkpt>
        <trkpt lat="29.563565" lon="103.434911"><ele>625.2463</ele><time>2026-07-20T20:49:10.000Z</time></trkpt>
        <trkpt lat="29.563565" lon="103.434911"><ele>625.2463</ele><time>2026-07-20T20:49:12.000Z</time></trkpt>
        <trkpt lat="29.563844" lon="103.434823"><ele>624.4542</ele><time>2026-07-20T20:50:55.000Z</time></trkpt>
        <trkpt lat="29.563844" lon="103.434823"><ele>624.47504</ele><time>2026-07-20T20:50:57.000Z</time></trkpt>
        <trkpt lat="29.563838" lon="103.434824"><ele>621.5768</ele><time>2026-07-20T20:50:59.000Z</time></trkpt>
        <trkpt lat="29.563651" lon="103.434848"><ele>620.9461</ele><time>2026-07-20T20:51:01.000Z</time></trkpt>
        <trkpt lat="29.563642" lon="103.434849"><ele>622.6392</ele><time>2026-07-20T20:51:03.000Z</time></trkpt>
        <trkpt lat="29.563633" lon="103.434853"><ele>620.4477</ele><time>2026-07-20T20:51:05.000Z</time></trkpt>
        <trkpt lat="29.563556" lon="103.43488"><ele>621.3408</ele><time>2026-07-20T20:51:09.000Z</time></trkpt>
        <trkpt lat="29.563517" lon="103.434895"><ele>621.3868</ele><time>2026-07-20T20:51:11.000Z</time></trkpt>
        <trkpt lat="29.563491" lon="103.434905"><ele>620.9323</ele><time>2026-07-20T20:51:13.000Z</time></trkpt>
        <trkpt lat="29.563476" lon="103.434908"><ele>619.88837</ele><time>2026-07-20T20:51:15.000Z</time></trkpt>
        <trkpt lat="29.563475" lon="103.434907"><ele>619.6332</ele><time>2026-07-20T20:51:17.000Z</time></trkpt>
        <trkpt lat="29.563452" lon="103.434851"><ele>618.7913</ele><time>2026-07-20T20:51:25.000Z</time></trkpt>
        <trkpt lat="29.563452" lon="103.434851"><ele>617.50793</ele><time>2026-07-20T20:51:27.000Z</time></trkpt>
        <trkpt lat="29.563449" lon="103.434851"><ele>617.8142</ele><time>2026-07-20T20:51:29.000Z</time></trkpt>
        <trkpt lat="29.563408" lon="103.434849"><ele>618.8039</ele><time>2026-07-20T20:51:33.000Z</time></trkpt>
        <trkpt lat="29.563378" lon="103.434847"><ele>619.9227</ele><time>2026-07-20T20:51:35.000Z</time></trkpt>
        <trkpt lat="29.563349" lon="103.434845"><ele>620.52484</ele><time>2026-07-20T20:51:37.000Z</time></trkpt>
        <trkpt lat="29.563323" lon="103.434843"><ele>621.01965</ele><time>2026-07-20T20:51:39.000Z</time></trkpt>
        <trkpt lat="29.5633" lon="103.43484"><ele>621.5363</ele><time>2026-07-20T20:51:41.000Z</time></trkpt>
        <trkpt lat="29.56328" lon="103.434833"><ele>621.0133</ele><time>2026-07-20T20:51:43.000Z</time></trkpt>
        <trkpt lat="29.563263" lon="103.434822"><ele>621.4433</ele><time>2026-07-20T20:51:45.000Z</time></trkpt>
        <trkpt lat="29.563248" lon="103.434809"><ele>621.31604</ele><time>2026-07-20T20:51:47.000Z</time></trkpt>
        <trkpt lat="29.563236" lon="103.434792"><ele>621.73615</ele><time>2026-07-20T20:51:49.000Z</time></trkpt>
        <trkpt lat="29.563227" lon="103.434776"><ele>621.6461</ele><time>2026-07-20T20:51:51.000Z</time></trkpt>
        <trkpt lat="29.56322" lon="103.434761"><ele>621.7947</ele><time>2026-07-20T20:51:53.000Z</time></trkpt>
        <trkpt lat="29.563211" lon="103.434744"><ele>621.62946</ele><time>2026-07-20T20:51:55.000Z</time></trkpt>
        <trkpt lat="29.563206" lon="103.434732"><ele>622.5867</ele><time>2026-07-20T20:51:57.000Z</time></trkpt>
        <trkpt lat="29.563203" lon="103.434724"><ele>623.34534</ele><time>2026-07-20T20:51:59.000Z</time></trkpt>
        <trkpt lat="29.563198" lon="103.434717"><ele>623.0732</ele><time>2026-07-20T20:52:01.000Z</time></trkpt>
        <trkpt lat="29.563189" lon="103.434704"><ele>622.45746</ele><time>2026-07-20T20:52:03.000Z</time></trkpt>
        <trkpt lat="29.563176" lon="103.434689"><ele>623.4262</ele><time>2026-07-20T20:52:05.000Z</time></trkpt>
        <trkpt lat="29.563163" lon="103.434674"><ele>622.734</ele><time>2026-07-20T20:52:07.000Z</time></trkpt>
        <trkpt lat="29.563152" lon="103.434662"><ele>622.83527</ele><time>2026-07-20T20:52:09.000Z</time></trkpt>
        <trkpt lat="29.563141" lon="103.434651"><ele>623.3273</ele><time>2026-07-20T20:52:11.000Z</time></trkpt>
        <trkpt lat="29.563133" lon="103.434641"><ele>623.37463</ele><time>2026-07-20T20:52:13.000Z</time></trkpt>
        <trkpt lat="29.563126" lon="103.434629"><ele>623.5181</ele><time>2026-07-20T20:52:15.000Z</time></trkpt>
        <trkpt lat="29.563119" lon="103.434616"><ele>624.5899</ele><time>2026-07-20T20:52:17.000Z</time></trkpt>
        <trkpt lat="29.563111" lon="103.434604"><ele>625.2924</ele><time>2026-07-20T20:52:19.000Z</time></trkpt>
        <trkpt lat="29.563102" lon="103.434592"><ele>625.0068</ele><time>2026-07-20T20:52:21.000Z</time></trkpt>
        <trkpt lat="29.563093" lon="103.434582"><ele>625.4083</ele><time>2026-07-20T20:52:23.000Z</time></trkpt>
        <trkpt lat="29.563084" lon="103.434572"><ele>625.46173</ele><time>2026-07-20T20:52:25.000Z</time></trkpt>
        <trkpt lat="29.563078" lon="103.434563"><ele>625.68176</ele><time>2026-07-20T20:52:27.000Z</time></trkpt>
        <trkpt lat="29.563073" lon="103.434554"><ele>626.1531</ele><time>2026-07-20T20:52:29.000Z</time></trkpt>
        <trkpt lat="29.563072" lon="103.434539"><ele>626.0786</ele><time>2026-07-20T20:52:31.000Z</time></trkpt>
        <trkpt lat="29.563075" lon="103.434524"><ele>626.5797</ele><time>2026-07-20T20:52:33.000Z</time></trkpt>
        <trkpt lat="29.563081" lon="103.434504"><ele>627.0652</ele><time>2026-07-20T20:52:35.000Z</time></trkpt>
        <trkpt lat="29.563087" lon="103.434484"><ele>627.395</ele><time>2026-07-20T20:52:37.000Z</time></trkpt>
        <trkpt lat="29.563091" lon="103.434462"><ele>627.4776</ele><time>2026-07-20T20:52:39.000Z</time></trkpt>
        <trkpt lat="29.56309" lon="103.434439"><ele>627.07434</ele><time>2026-07-20T20:52:41.000Z</time></trkpt>
        <trkpt lat="29.563084" lon="103.434419"><ele>626.87695</ele><time>2026-07-20T20:52:43.000Z</time></trkpt>
        <trkpt lat="29.563074" lon="103.434397"><ele>626.11414</ele><time>2026-07-20T20:52:45.000Z</time></trkpt>
        <trkpt lat="29.563062" lon="103.434374"><ele>625.72955</ele><time>2026-07-20T20:52:47.000Z</time></trkpt>
        <trkpt lat="29.563048" lon="103.43435"><ele>625.33923</ele><time>2026-07-20T20:52:49.000Z</time></trkpt>
        <trkpt lat="29.563037" lon="103.434326"><ele>625.5493</ele><time>2026-07-20T20:52:51.000Z</time></trkpt>
        <trkpt lat="29.563031" lon="103.434305"><ele>626.3862</ele><time>2026-07-20T20:52:53.000Z</time></trkpt>
        <trkpt lat="29.563032" lon="103.434286"><ele>626.9031</ele><time>2026-07-20T20:52:55.000Z</time></trkpt>
        <trkpt lat="29.563039" lon="103.434269"><ele>627.4004</ele><time>2026-07-20T20:52:57.000Z</time></trkpt>
        <trkpt lat="29.56305" lon="103.434252"><ele>627.0923</ele><time>2026-07-20T20:52:59.000Z</time></trkpt>
        <trkpt lat="29.563065" lon="103.434235"><ele>626.9259</ele><time>2026-07-20T20:53:01.000Z</time></trkpt>
        <trkpt lat="29.563083" lon="103.434218"><ele>626.64343</ele><time>2026-07-20T20:53:03.000Z</time></trkpt>
        <trkpt lat="29.563098" lon="103.434204"><ele>627.0556</ele><time>2026-07-20T20:53:05.000Z</time></trkpt>
        <trkpt lat="29.563113" lon="103.434194"><ele>627.0404</ele><time>2026-07-20T20:53:07.000Z</time></trkpt>
        <trkpt lat="29.563125" lon="103.434184"><ele>627.4753</ele><time>2026-07-20T20:53:09.000Z</time></trkpt>
        <trkpt lat="29.563135" lon="103.434177"><ele>627.78143</ele><time>2026-07-20T20:53:11.000Z</time></trkpt>
        <trkpt lat="29.563144" lon="103.434172"><ele>627.4223</ele><time>2026-07-20T20:53:13.000Z</time></trkpt>
        <trkpt lat="29.563155" lon="103.434167"><ele>627.2874</ele><time>2026-07-20T20:53:15.000Z</time></trkpt>
        <trkpt lat="29.563163" lon="103.434165"><ele>626.47925</ele><time>2026-07-20T20:53:17.000Z</time></trkpt>
        <trkpt lat="29.563163" lon="103.434166"><ele>626.20703</ele><time>2026-07-20T20:53:19.000Z</time></trkpt>
        <trkpt lat="29.563166" lon="103.434183"><ele>629.2747</ele><time>2026-07-20T20:53:27.000Z</time></trkpt>
        <trkpt lat="29.563167" lon="103.43419"><ele>629.9559</ele><time>2026-07-20T20:53:29.000Z</time></trkpt>
        <trkpt lat="29.56317" lon="103.434194"><ele>631.6247</ele><time>2026-07-20T20:53:31.000Z</time></trkpt>
        <trkpt lat="29.563185" lon="103.434215"><ele>630.656</ele><time>2026-07-20T20:53:33.000Z</time></trkpt>
        <trkpt lat="29.563185" lon="103.434215"><ele>630.3838</ele><time>2026-07-20T20:53:35.000Z</time></trkpt>
        <trkpt lat="29.563197" lon="103.434203"><ele>627.6794</ele><time>2026-07-20T20:53:41.000Z</time></trkpt>
        <trkpt lat="29.563201" lon="103.434202"><ele>628.4206</ele><time>2026-07-20T20:53:43.000Z</time></trkpt>
        <trkpt lat="29.563206" lon="103.434205"><ele>627.94824</ele><time>2026-07-20T20:53:45.000Z</time></trkpt>
        <trkpt lat="29.563227" lon="103.434217"><ele>627.17914</ele><time>2026-07-20T20:53:47.000Z</time></trkpt>
        <trkpt lat="29.563228" lon="103.434218"><ele>626.79364</ele><time>2026-07-20T20:53:49.000Z</time></trkpt>
        <trkpt lat="29.563233" lon="103.43423"><ele>625.73816</ele><time>2026-07-20T20:53:53.000Z</time></trkpt>
        <trkpt lat="29.563242" lon="103.434253"><ele>625.1127</ele><time>2026-07-20T20:53:55.000Z</time></trkpt>
        <trkpt lat="29.563249" lon="103.434278"><ele>624.4137</ele><time>2026-07-20T20:53:57.000Z</time></trkpt>
        <trkpt lat="29.563249" lon="103.434298"><ele>623.8587</ele><time>2026-07-20T20:53:59.000Z</time></trkpt>
        <trkpt lat="29.563249" lon="103.434315"><ele>623.10645</ele><time>2026-07-20T20:54:01.000Z</time></trkpt>
        <trkpt lat="29.563249" lon="103.434332"><ele>622.8188</ele><time>2026-07-20T20:54:03.000Z</time></trkpt>
        <trkpt lat="29.563254" lon="103.434347"><ele>622.1045</ele><time>2026-07-20T20:54:05.000Z</time></trkpt>
        <trkpt lat="29.563264" lon="103.434365"><ele>621.1846</ele><time>2026-07-20T20:54:07.000Z</time></trkpt>
        <trkpt lat="29.563281" lon="103.43438"><ele>620.72046</ele><time>2026-07-20T20:54:09.000Z</time></trkpt>
        <trkpt lat="29.5633" lon="103.43439"><ele>620.3592</ele><time>2026-07-20T20:54:11.000Z</time></trkpt>
        <trkpt lat="29.563322" lon="103.434397"><ele>620.69946</ele><time>2026-07-20T20:54:13.000Z</time></trkpt>
        <trkpt lat="29.563348" lon="103.434402"><ele>621.30194</ele><time>2026-07-20T20:54:15.000Z</time></trkpt>
        <trkpt lat="29.563373" lon="103.434404"><ele>621.27344</ele><time>2026-07-20T20:54:17.000Z</time></trkpt>
        <trkpt lat="29.563395" lon="103.434406"><ele>620.69885</ele><time>2026-07-20T20:54:19.000Z</time></trkpt>
        <trkpt lat="29.563413" lon="103.434409"><ele>620.1647</ele><time>2026-07-20T20:54:21.000Z</time></trkpt>
        <trkpt lat="29.563427" lon="103.434413"><ele>619.7208</ele><time>2026-07-20T20:54:23.000Z</time></trkpt>
        <trkpt lat="29.563437" lon="103.434419"><ele>618.5251</ele><time>2026-07-20T20:54:25.000Z</time></trkpt>
        <trkpt lat="29.563446" lon="103.434429"><ele>617.9274</ele><time>2026-07-20T20:54:27.000Z</time></trkpt>
        <trkpt lat="29.563458" lon="103.434442"><ele>618.37164</ele><time>2026-07-20T20:54:29.000Z</time></trkpt>
        <trkpt lat="29.56347" lon="103.434455"><ele>618.30414</ele><time>2026-07-20T20:54:31.000Z</time></trkpt>
        <trkpt lat="29.563485" lon="103.434472"><ele>618.61163</ele><time>2026-07-20T20:54:33.000Z</time></trkpt>
        <trkpt lat="29.563499" lon="103.434491"><ele>619.3106</ele><time>2026-07-20T20:54:35.000Z</time></trkpt>
        <trkpt lat="29.563514" lon="103.434509"><ele>619.08044</ele><time>2026-07-20T20:54:37.000Z</time></trkpt>
        <trkpt lat="29.563529" lon="103.434522"><ele>618.0732</ele><time>2026-07-20T20:54:39.000Z</time></trkpt>
        <trkpt lat="29.563549" lon="103.434533"><ele>616.8031</ele><time>2026-07-20T20:54:41.000Z</time></trkpt>
        <trkpt lat="29.563566" lon="103.43454"><ele>616.1998</ele><time>2026-07-20T20:54:43.000Z</time></trkpt>
        <trkpt lat="29.56358" lon="103.434543"><ele>615.8699</ele><time>2026-07-20T20:54:45.000Z</time></trkpt>
        <trkpt lat="29.563588" lon="103.43454"><ele>615.76526</ele><time>2026-07-20T20:54:47.000Z</time></trkpt>
        <trkpt lat="29.563593" lon="103.434533"><ele>615.2696</ele><time>2026-07-20T20:54:49.000Z</time></trkpt>
        <trkpt lat="29.563595" lon="103.434522"><ele>615.38336</ele><time>2026-07-20T20:54:51.000Z</time></trkpt>
        <trkpt lat="29.563597" lon="103.434507"><ele>616.60126</ele><time>2026-07-20T20:54:55.000Z</time></trkpt>
        <trkpt lat="29.563597" lon="103.434507"><ele>616.9328</ele><time>2026-07-20T20:54:57.000Z</time></trkpt>
        <trkpt lat="29.563571" lon="103.434516"><ele>618.04</ele><time>2026-07-20T20:55:05.000Z</time></trkpt>
        <trkpt lat="29.563565" lon="103.434519"><ele>618.0927</ele><time>2026-07-20T20:55:07.000Z</time></trkpt>
        <trkpt lat="29.563562" lon="103.434522"><ele>618.59204</ele><time>2026-07-20T20:55:09.000Z</time></trkpt>
        <trkpt lat="29.563477" lon="103.434607"><ele>610.4806</ele><time>2026-07-20T20:55:27.000Z</time></trkpt>
        <trkpt lat="29.563493" lon="103.434633"><ele>610.60144</ele><time>2026-07-20T20:55:38.000Z</time></trkpt>
        <trkpt lat="29.563494" lon="103.434632"><ele>609.1501</ele><time>2026-07-20T20:55:40.000Z</time></trkpt>
        <trkpt lat="29.563521" lon="103.43458"><ele>609.7823</ele><time>2026-07-20T20:56:06.000Z</time></trkpt>
        <trkpt lat="29.563539" lon="103.434547"><ele>609.0177</ele><time>2026-07-20T20:56:08.000Z</time></trkpt>
        <trkpt lat="29.56354" lon="103.434546"><ele>608.69476</ele><time>2026-07-20T20:56:10.000Z</time></trkpt>
        <trkpt lat="29.56357" lon="103.434516"><ele>610.84863</ele><time>2026-07-20T20:56:13.000Z</time></trkpt>
        <trkpt lat="29.563571" lon="103.434515"><ele>610.9913</ele><time>2026-07-20T20:56:17.000Z</time></trkpt>
        <trkpt lat="29.563576" lon="103.434509"><ele>612.20996</ele><time>2026-07-20T20:56:19.000Z</time></trkpt>
        <trkpt lat="29.563598" lon="103.434473"><ele>613.16046</ele><time>2026-07-20T20:56:23.000Z</time></trkpt>
        <trkpt lat="29.563604" lon="103.434453"><ele>613.571</ele><time>2026-07-20T20:56:25.000Z</time></trkpt>
        <trkpt lat="29.563611" lon="103.434426"><ele>615.16675</ele><time>2026-07-20T20:56:27.000Z</time></trkpt>
        <trkpt lat="29.563619" lon="103.434402"><ele>615.5963</ele><time>2026-07-20T20:56:29.000Z</time></trkpt>
        <trkpt lat="29.563632" lon="103.434387"><ele>616.0634</ele><time>2026-07-20T20:56:31.000Z</time></trkpt>
        <trkpt lat="29.563649" lon="103.434379"><ele>616.2389</ele><time>2026-07-20T20:56:33.000Z</time></trkpt>
        <trkpt lat="29.56367" lon="103.434372"><ele>617.35455</ele><time>2026-07-20T20:56:35.000Z</time></trkpt>
        <trkpt lat="29.56369" lon="103.434369"><ele>617.9105</ele><time>2026-07-20T20:56:37.000Z</time></trkpt>
        <trkpt lat="29.563708" lon="103.434365"><ele>618.1146</ele><time>2026-07-20T20:56:39.000Z</time></trkpt>
        <trkpt lat="29.563729" lon="103.434354"><ele>617.36865</ele><time>2026-07-20T20:56:41.000Z</time></trkpt>
        <trkpt lat="29.56375" lon="103.434339"><ele>616.67</ele><time>2026-07-20T20:56:43.000Z</time></trkpt>
        <trkpt lat="29.56377" lon="103.434318"><ele>616.929</ele><time>2026-07-20T20:56:45.000Z</time></trkpt>
        <trkpt lat="29.563788" lon="103.434296"><ele>617.0601</ele><time>2026-07-20T20:56:47.000Z</time></trkpt>
        <trkpt lat="29.563802" lon="103.434274"><ele>617.097</ele><time>2026-07-20T20:56:49.000Z</time></trkpt>
        <trkpt lat="29.563818" lon="103.434249"><ele>616.928</ele><time>2026-07-20T20:56:51.000Z</time></trkpt>
        <trkpt lat="29.563833" lon="103.434225"><ele>617.4971</ele><time>2026-07-20T20:56:53.000Z</time></trkpt>
        <trkpt lat="29.563848" lon="103.434201"><ele>617.6122</ele><time>2026-07-20T20:56:55.000Z</time></trkpt>
        <trkpt lat="29.56386" lon="103.43418"><ele>618.0899</ele><time>2026-07-20T20:56:57.000Z</time></trkpt>
        <trkpt lat="29.56387" lon="103.434165"><ele>618.9399</ele><time>2026-07-20T20:56:59.000Z</time></trkpt>
        <trkpt lat="29.563879" lon="103.434159"><ele>619.2713</ele><time>2026-07-20T20:57:01.000Z</time></trkpt>
        <trkpt lat="29.56388" lon="103.434156"><ele>619.234</ele><time>2026-07-20T20:57:03.000Z</time></trkpt>
        <trkpt lat="29.563853" lon="103.43422"><ele>620.7762</ele><time>2026-07-20T20:57:09.000Z</time></trkpt>
        <trkpt lat="29.563853" lon="103.43422"><ele>620.6839</ele><time>2026-07-20T20:57:11.000Z</time></trkpt>
        <trkpt lat="29.563852" lon="103.434224"><ele>619.95886</ele><time>2026-07-20T20:57:13.000Z</time></trkpt>
        <trkpt lat="29.56385" lon="103.434258"><ele>617.8683</ele><time>2026-07-20T20:57:17.000Z</time></trkpt>
        <trkpt lat="29.563854" lon="103.434275"><ele>617.87537</ele><time>2026-07-20T20:57:19.000Z</time></trkpt>
        <trkpt lat="29.563861" lon="103.434292"><ele>617.96985</ele><time>2026-07-20T20:57:21.000Z</time></trkpt>
        <trkpt lat="29.563868" lon="103.434306"><ele>618.3394</ele><time>2026-07-20T20:57:23.000Z</time></trkpt>
        <trkpt lat="29.563877" lon="103.434317"><ele>618.2674</ele><time>2026-07-20T20:57:25.000Z</time></trkpt>
        <trkpt lat="29.563883" lon="103.434327"><ele>618.0287</ele><time>2026-07-20T20:57:27.000Z</time></trkpt>
        <trkpt lat="29.563882" lon="103.434331"><ele>618.8451</ele><time>2026-07-20T20:57:29.000Z</time></trkpt>
        <trkpt lat="29.563869" lon="103.434346"><ele>619.7407</ele><time>2026-07-20T20:57:33.000Z</time></trkpt>
        <trkpt lat="29.563853" lon="103.434363"><ele>619.51996</ele><time>2026-07-20T20:57:35.000Z</time></trkpt>
        <trkpt lat="29.563838" lon="103.43438"><ele>619.6007</ele><time>2026-07-20T20:57:37.000Z</time></trkpt>
        <trkpt lat="29.563829" lon="103.434393"><ele>618.6497</ele><time>2026-07-20T20:57:39.000Z</time></trkpt>
        <trkpt lat="29.56383" lon="103.434395"><ele>618.50555</ele><time>2026-07-20T20:57:41.000Z</time></trkpt>
        <trkpt lat="29.563839" lon="103.43441"><ele>618.87317</ele><time>2026-07-20T20:57:45.000Z</time></trkpt>
        <trkpt lat="29.563857" lon="103.43444"><ele>619.7551</ele><time>2026-07-20T20:57:47.000Z</time></trkpt>
        <trkpt lat="29.563858" lon="103.434441"><ele>619.47565</ele><time>2026-07-20T20:57:49.000Z</time></trkpt>
        <trkpt lat="29.563859" lon="103.434443"><ele>618.58984</ele><time>2026-07-20T20:57:51.000Z</time></trkpt>
        <trkpt lat="29.563887" lon="103.434487"><ele>613.72974</ele><time>2026-07-20T20:57:55.000Z</time></trkpt>
        <trkpt lat="29.563911" lon="103.434519"><ele>612.4182</ele><time>2026-07-20T20:57:57.000Z</time></trkpt>
        <trkpt lat="29.563936" lon="103.434549"><ele>611.0521</ele><time>2026-07-20T20:57:59.000Z</time></trkpt>
        <trkpt lat="29.563955" lon="103.434575"><ele>610.8762</ele><time>2026-07-20T20:58:01.000Z</time></trkpt>
        <trkpt lat="29.563967" lon="103.434591"><ele>610.3764</ele><time>2026-07-20T20:58:03.000Z</time></trkpt>
        <trkpt lat="29.563981" lon="103.434605"><ele>611.58203</ele><time>2026-07-20T20:58:05.000Z</time></trkpt>
        <trkpt lat="29.563996" lon="103.434613"><ele>610.35864</ele><time>2026-07-20T20:58:07.000Z</time></trkpt>
        <trkpt lat="29.564005" lon="103.434617"><ele>609.49976</ele><time>2026-07-20T20:58:09.000Z</time></trkpt>
        <trkpt lat="29.564014" lon="103.434617"><ele>608.7795</ele><time>2026-07-20T20:58:11.000Z</time></trkpt>
        <trkpt lat="29.564022" lon="103.434611"><ele>609.55084</ele><time>2026-07-20T20:58:13.000Z</time></trkpt>
        <trkpt lat="29.564029" lon="103.4346"><ele>608.8785</ele><time>2026-07-20T20:58:15.000Z</time></trkpt>
        <trkpt lat="29.564042" lon="103.434576"><ele>608.42426</ele><time>2026-07-20T20:58:17.000Z</time></trkpt>
        <trkpt lat="29.564058" lon="103.434553"><ele>609.2029</ele><time>2026-07-20T20:58:19.000Z</time></trkpt>
        <trkpt lat="29.564072" lon="103.434535"><ele>609.7314</ele><time>2026-07-20T20:58:21.000Z</time></trkpt>
        <trkpt lat="29.564088" lon="103.434513"><ele>609.15875</ele><time>2026-07-20T20:58:23.000Z</time></trkpt>
        <trkpt lat="29.564105" lon="103.434491"><ele>608.7405</ele><time>2026-07-20T20:58:25.000Z</time></trkpt>
        <trkpt lat="29.564122" lon="103.434467"><ele>609.262</ele><time>2026-07-20T20:58:27.000Z</time></trkpt>
        <trkpt lat="29.56414" lon="103.434444"><ele>609.28986</ele><time>2026-07-20T20:58:29.000Z</time></trkpt>
        <trkpt lat="29.564159" lon="103.43442"><ele>610.02</ele><time>2026-07-20T20:58:31.000Z</time></trkpt>
        <trkpt lat="29.564178" lon="103.434401"><ele>610.3497</ele><time>2026-07-20T20:58:33.000Z</time></trkpt>
        <trkpt lat="29.564197" lon="103.434386"><ele>610.9588</ele><time>2026-07-20T20:58:35.000Z</time></trkpt>
        <trkpt lat="29.564218" lon="103.434373"><ele>611.3663</ele><time>2026-07-20T20:58:37.000Z</time></trkpt>
        <trkpt lat="29.564236" lon="103.434359"><ele>611.66656</ele><time>2026-07-20T20:58:39.000Z</time></trkpt>
        <trkpt lat="29.56425" lon="103.434345"><ele>611.2818</ele><time>2026-07-20T20:58:41.000Z</time></trkpt>
        <trkpt lat="29.564265" lon="103.434329"><ele>610.5008</ele><time>2026-07-20T20:58:43.000Z</time></trkpt>
        <trkpt lat="29.564279" lon="103.434316"><ele>610.4292</ele><time>2026-07-20T20:58:45.000Z</time></trkpt>
        <trkpt lat="29.564292" lon="103.434309"><ele>610.5332</ele><time>2026-07-20T20:58:47.000Z</time></trkpt>
        <trkpt lat="29.564306" lon="103.434307"><ele>610.85315</ele><time>2026-07-20T20:58:49.000Z</time></trkpt>
        <trkpt lat="29.564318" lon="103.434306"><ele>611.1684</ele><time>2026-07-20T20:58:51.000Z</time></trkpt>
        <trkpt lat="29.564332" lon="103.434303"><ele>611.0698</ele><time>2026-07-20T20:58:53.000Z</time></trkpt>
        <trkpt lat="29.564353" lon="103.434297"><ele>609.4136</ele><time>2026-07-20T20:58:55.000Z</time></trkpt>
        <trkpt lat="29.564375" lon="103.434288"><ele>607.80896</ele><time>2026-07-20T20:58:57.000Z</time></trkpt>
        <trkpt lat="29.564397" lon="103.434274"><ele>607.3366</ele><time>2026-07-20T20:58:59.000Z</time></trkpt>
        <trkpt lat="29.564417" lon="103.434256"><ele>607.083</ele><time>2026-07-20T20:59:01.000Z</time></trkpt>
        <trkpt lat="29.564437" lon="103.434235"><ele>606.6072</ele><time>2026-07-20T20:59:03.000Z</time></trkpt>
        <trkpt lat="29.564456" lon="103.434212"><ele>606.10785</ele><time>2026-07-20T20:59:05.000Z</time></trkpt>
        <trkpt lat="29.564471" lon="103.434189"><ele>606.3311</ele><time>2026-07-20T20:59:07.000Z</time></trkpt>
        <trkpt lat="29.564488" lon="103.434164"><ele>606.337</ele><time>2026-07-20T20:59:09.000Z</time></trkpt>
        <trkpt lat="29.564502" lon="103.43414"><ele>606.58606</ele><time>2026-07-20T20:59:11.000Z</time></trkpt>
        <trkpt lat="29.564517" lon="103.434116"><ele>606.9945</ele><time>2026-07-20T20:59:13.000Z</time></trkpt>
        <trkpt lat="29.56453" lon="103.434092"><ele>607.4114</ele><time>2026-07-20T20:59:15.000Z</time></trkpt>
        <trkpt lat="29.564543" lon="103.434068"><ele>607.51373</ele><time>2026-07-20T20:59:17.000Z</time></trkpt>
        <trkpt lat="29.564557" lon="103.434046"><ele>607.315</ele><time>2026-07-20T20:59:19.000Z</time></trkpt>
        <trkpt lat="29.564573" lon="103.434033"><ele>607.9554</ele><time>2026-07-20T20:59:21.000Z</time></trkpt>
        <trkpt lat="29.564586" lon="103.434034"><ele>607.28424</ele><time>2026-07-20T20:59:23.000Z</time></trkpt>
        <trkpt lat="29.564594" lon="103.434043"><ele>606.4143</ele><time>2026-07-20T20:59:25.000Z</time></trkpt>
        <trkpt lat="29.564597" lon="103.434058"><ele>606.6379</ele><time>2026-07-20T20:59:26.000Z</time></trkpt>
        <trkpt lat="29.564596" lon="103.434079"><ele>606.4166</ele><time>2026-07-20T20:59:28.000Z</time></trkpt>
        <trkpt lat="29.564591" lon="103.434105"><ele>605.7884</ele><time>2026-07-20T20:59:30.000Z</time></trkpt>
        <trkpt lat="29.564581" lon="103.434134"><ele>606.58795</ele><time>2026-07-20T20:59:32.000Z</time></trkpt>
        <trkpt lat="29.564571" lon="103.43416"><ele>607.0269</ele><time>2026-07-20T20:59:34.000Z</time></trkpt>
        <trkpt lat="29.564561" lon="103.434186"><ele>607.49347</ele><time>2026-07-20T20:59:36.000Z</time></trkpt>
        <trkpt lat="29.56455" lon="103.434208"><ele>607.9785</ele><time>2026-07-20T20:59:38.000Z</time></trkpt>
        <trkpt lat="29.564539" lon="103.434231"><ele>607.9412</ele><time>2026-07-20T20:59:40.000Z</time></trkpt>
        <trkpt lat="29.564529" lon="103.434253"><ele>607.32544</ele><time>2026-07-20T20:59:42.000Z</time></trkpt>
        <trkpt lat="29.564521" lon="103.434274"><ele>607.1368</ele><time>2026-07-20T20:59:44.000Z</time></trkpt>
        <trkpt lat="29.564515" lon="103.434294"><ele>606.554</ele><time>2026-07-20T20:59:46.000Z</time></trkpt>
        <trkpt lat="29.564506" lon="103.434314"><ele>606.48596</ele><time>2026-07-20T20:59:48.000Z</time></trkpt>
        <trkpt lat="29.564494" lon="103.434333"><ele>605.555</ele><time>2026-07-20T20:59:50.000Z</time></trkpt>
        <trkpt lat="29.564481" lon="103.434354"><ele>605.04834</ele><time>2026-07-20T20:59:52.000Z</time></trkpt>
        <trkpt lat="29.56447" lon="103.434374"><ele>603.95636</ele><time>2026-07-20T20:59:55.000Z</time></trkpt>
        <trkpt lat="29.564457" lon="103.434393"><ele>603.1701</ele><time>2026-07-20T20:59:57.000Z</time></trkpt>
        <trkpt lat="29.564447" lon="103.434409"><ele>604.21936</ele><time>2026-07-20T20:59:59.000Z</time></trkpt>
        <trkpt lat="29.564434" lon="103.434427"><ele>604.5542</ele><time>2026-07-20T21:00:01.000Z</time></trkpt>
        <trkpt lat="29.564422" lon="103.434442"><ele>604.4354</ele><time>2026-07-20T21:00:03.000Z</time></trkpt>
        <trkpt lat="29.564408" lon="103.434456"><ele>603.4824</ele><time>2026-07-20T21:00:05.000Z</time></trkpt>
        <trkpt lat="29.564394" lon="103.434469"><ele>604.04663</ele><time>2026-07-20T21:00:07.000Z</time></trkpt>
        <trkpt lat="29.564378" lon="103.434483"><ele>603.72845</ele><time>2026-07-20T21:00:09.000Z</time></trkpt>
        <trkpt lat="29.564361" lon="103.434496"><ele>603.79016</ele><time>2026-07-20T21:00:11.000Z</time></trkpt>
        <trkpt lat="29.564341" lon="103.434509"><ele>604.1362</ele><time>2026-07-20T21:00:13.000Z</time></trkpt>
        <trkpt lat="29.564321" lon="103.434523"><ele>604.6238</ele><time>2026-07-20T21:00:15.000Z</time></trkpt>
        <trkpt lat="29.564303" lon="103.434534"><ele>605.5696</ele><time>2026-07-20T21:00:17.000Z</time></trkpt>
        <trkpt lat="29.564283" lon="103.434543"><ele>605.40784</ele><time>2026-07-20T21:00:19.000Z</time></trkpt>
        <trkpt lat="29.564263" lon="103.434552"><ele>605.11584</ele><time>2026-07-20T21:00:21.000Z</time></trkpt>
        <trkpt lat="29.564243" lon="103.434562"><ele>604.79614</ele><time>2026-07-20T21:00:23.000Z</time></trkpt>
        <trkpt lat="29.564228" lon="103.434573"><ele>605.1206</ele><time>2026-07-20T21:00:25.000Z</time></trkpt>
        <trkpt lat="29.564222" lon="103.434585"><ele>605.5947</ele><time>2026-07-20T21:00:27.000Z</time></trkpt>
        <trkpt lat="29.56422" lon="103.434602"><ele>605.68304</ele><time>2026-07-20T21:00:29.000Z</time></trkpt>
        <trkpt lat="29.56422" lon="103.434626"><ele>605.80426</ele><time>2026-07-20T21:00:31.000Z</time></trkpt>
        <trkpt lat="29.564225" lon="103.434659"><ele>605.2181</ele><time>2026-07-20T21:00:33.000Z</time></trkpt>
        <trkpt lat="29.564236" lon="103.434692"><ele>604.44977</ele><time>2026-07-20T21:00:35.000Z</time></trkpt>
        <trkpt lat="29.564251" lon="103.434723"><ele>605.3714</ele><time>2026-07-20T21:00:37.000Z</time></trkpt>
        <trkpt lat="29.564269" lon="103.43475"><ele>606.1555</ele><time>2026-07-20T21:00:39.000Z</time></trkpt>
        <trkpt lat="29.564292" lon="103.434771"><ele>607.47345</ele><time>2026-07-20T21:00:41.000Z</time></trkpt>
        <trkpt lat="29.564318" lon="103.434787"><ele>608.5814</ele><time>2026-07-20T21:00:43.000Z</time></trkpt>
        <trkpt lat="29.564343" lon="103.434796"><ele>608.0209</ele><time>2026-07-20T21:00:45.000Z</time></trkpt>
        <trkpt lat="29.564369" lon="103.4348"><ele>607.6866</ele><time>2026-07-20T21:00:47.000Z</time></trkpt>
        <trkpt lat="29.564397" lon="103.434799"><ele>607.36536</ele><time>2026-07-20T21:00:49.000Z</time></trkpt>
        <trkpt lat="29.564427" lon="103.434794"><ele>607.2731</ele><time>2026-07-20T21:00:51.000Z</time></trkpt>
        <trkpt lat="29.564455" lon="103.434785"><ele>607.2689</ele><time>2026-07-20T21:00:53.000Z</time></trkpt>
        <trkpt lat="29.564482" lon="103.434776"><ele>607.06573</ele><time>2026-07-20T21:00:55.000Z</time></trkpt>
        <trkpt lat="29.564507" lon="103.434765"><ele>606.2656</ele><time>2026-07-20T21:00:57.000Z</time></trkpt>
        <trkpt lat="29.56453" lon="103.434752"><ele>605.19147</ele><time>2026-07-20T21:00:59.000Z</time></trkpt>
        <trkpt lat="29.56455" lon="103.434736"><ele>605.1</ele><time>2026-07-20T21:01:01.000Z</time></trkpt>
        <trkpt lat="29.564568" lon="103.434719"><ele>603.9909</ele><time>2026-07-20T21:01:03.000Z</time></trkpt>
        <trkpt lat="29.564588" lon="103.4347"><ele>603.77045</ele><time>2026-07-20T21:01:05.000Z</time></trkpt>
        <trkpt lat="29.56461" lon="103.434682"><ele>603.336</ele><time>2026-07-20T21:01:07.000Z</time></trkpt>
        <trkpt lat="29.564629" lon="103.434664"><ele>603.32715</ele><time>2026-07-20T21:01:09.000Z</time></trkpt>
        <trkpt lat="29.564645" lon="103.434646"><ele>602.94696</ele><time>2026-07-20T21:01:11.000Z</time></trkpt>
        <trkpt lat="29.564658" lon="103.434627"><ele>602.7416</ele><time>2026-07-20T21:01:13.000Z</time></trkpt>
        <trkpt lat="29.56467" lon="103.434605"><ele>601.446</ele><time>2026-07-20T21:01:15.000Z</time></trkpt>
        <trkpt lat="29.564682" lon="103.434582"><ele>600.5209</ele><time>2026-07-20T21:01:17.000Z</time></trkpt>
        <trkpt lat="29.564692" lon="103.434561"><ele>601.3763</ele><time>2026-07-20T21:01:19.000Z</time></trkpt>
        <trkpt lat="29.564702" lon="103.434537"><ele>600.8187</ele><time>2026-07-20T21:01:21.000Z</time></trkpt>
        <trkpt lat="29.56471" lon="103.434506"><ele>598.7097</ele><time>2026-07-20T21:01:23.000Z</time></trkpt>
        <trkpt lat="29.564717" lon="103.434471"><ele>597.03815</ele><time>2026-07-20T21:01:25.000Z</time></trkpt>
        <trkpt lat="29.564724" lon="103.434435"><ele>596.28955</ele><time>2026-07-20T21:01:27.000Z</time></trkpt>
        <trkpt lat="29.564732" lon="103.434404"><ele>595.1347</ele><time>2026-07-20T21:01:29.000Z</time></trkpt>
        <trkpt lat="29.564742" lon="103.434375"><ele>594.31964</ele><time>2026-07-20T21:01:31.000Z</time></trkpt>
        <trkpt lat="29.564754" lon="103.434346"><ele>593.9188</ele><time>2026-07-20T21:01:32.000Z</time></trkpt>
        <trkpt lat="29.564765" lon="103.434321"><ele>594.63983</ele><time>2026-07-20T21:01:34.000Z</time></trkpt>
        <trkpt lat="29.564779" lon="103.434296"><ele>594.11584</ele><time>2026-07-20T21:01:36.000Z</time></trkpt>
        <trkpt lat="29.564791" lon="103.434276"><ele>593.60266</ele><time>2026-07-20T21:01:38.000Z</time></trkpt>
        <trkpt lat="29.564801" lon="103.434258"><ele>592.56995</ele><time>2026-07-20T21:01:40.000Z</time></trkpt>
        <trkpt lat="29.564811" lon="103.434242"><ele>592.1355</ele><time>2026-07-20T21:01:42.000Z</time></trkpt>
        <trkpt lat="29.56482" lon="103.434228"><ele>591.82965</ele><time>2026-07-20T21:01:44.000Z</time></trkpt>
        <trkpt lat="29.56483" lon="103.434211"><ele>593.18085</ele><time>2026-07-20T21:01:46.000Z</time></trkpt>
        <trkpt lat="29.564839" lon="103.434192"><ele>593.1324</ele><time>2026-07-20T21:01:48.000Z</time></trkpt>
        <trkpt lat="29.564847" lon="103.434171"><ele>592.97906</ele><time>2026-07-20T21:01:50.000Z</time></trkpt>
        <trkpt lat="29.564853" lon="103.434146"><ele>593.35065</ele><time>2026-07-20T21:01:52.000Z</time></trkpt>
        <trkpt lat="29.564857" lon="103.434119"><ele>592.41364</ele><time>2026-07-20T21:01:54.000Z</time></trkpt>
        <trkpt lat="29.564858" lon="103.434096"><ele>591.6708</ele><time>2026-07-20T21:01:56.000Z</time></trkpt>
        <trkpt lat="29.564858" lon="103.434071"><ele>591.0274</ele><time>2026-07-20T21:01:58.000Z</time></trkpt>
        <trkpt lat="29.564857" lon="103.434045"><ele>590.95355</ele><time>2026-07-20T21:02:01.000Z</time></trkpt>
        <trkpt lat="29.564856" lon="103.434016"><ele>590.526</ele><time>2026-07-20T21:02:03.000Z</time></trkpt>
        <trkpt lat="29.564854" lon="103.433985"><ele>590.1617</ele><time>2026-07-20T21:02:05.000Z</time></trkpt>
        <trkpt lat="29.564852" lon="103.433955"><ele>589.8626</ele><time>2026-07-20T21:02:07.000Z</time></trkpt>
        <trkpt lat="29.564851" lon="103.433929"><ele>589.1334</ele><time>2026-07-20T21:02:09.000Z</time></trkpt>
        <trkpt lat="29.564852" lon="103.433916"><ele>589.08264</ele><time>2026-07-20T21:02:11.000Z</time></trkpt>
        <trkpt lat="29.564853" lon="103.433905"><ele>589.5907</ele><time>2026-07-20T21:02:13.000Z</time></trkpt>
        <trkpt lat="29.564855" lon="103.433885"><ele>589.3029</ele><time>2026-07-20T21:02:15.000Z</time></trkpt>
        <trkpt lat="29.564857" lon="103.433864"><ele>589.78644</ele><time>2026-07-20T21:02:17.000Z</time></trkpt>
        <trkpt lat="29.56486" lon="103.433842"><ele>590.01886</ele><time>2026-07-20T21:02:19.000Z</time></trkpt>
        <trkpt lat="29.564863" lon="103.433821"><ele>589.89404</ele><time>2026-07-20T21:02:21.000Z</time></trkpt>
        <trkpt lat="29.564867" lon="103.433803"><ele>588.81775</ele><time>2026-07-20T21:02:23.000Z</time></trkpt>
        <trkpt lat="29.564873" lon="103.433783"><ele>588.705</ele><time>2026-07-20T21:02:25.000Z</time></trkpt>
        <trkpt lat="29.564879" lon="103.433761"><ele>588.48755</ele><time>2026-07-20T21:02:27.000Z</time></trkpt>
        <trkpt lat="29.564885" lon="103.433738"><ele>588.4471</ele><time>2026-07-20T21:02:29.000Z</time></trkpt>
        <trkpt lat="29.564892" lon="103.433714"><ele>587.4353</ele><time>2026-07-20T21:02:31.000Z</time></trkpt>
        <trkpt lat="29.564899" lon="103.43369"><ele>587.54645</ele><time>2026-07-20T21:02:33.000Z</time></trkpt>
        <trkpt lat="29.564906" lon="103.433667"><ele>587.1532</ele><time>2026-07-20T21:02:35.000Z</time></trkpt>
        <trkpt lat="29.56491" lon="103.433643"><ele>587.12915</ele><time>2026-07-20T21:02:37.000Z</time></trkpt>
        <trkpt lat="29.564914" lon="103.433617"><ele>587.0306</ele><time>2026-07-20T21:02:39.000Z</time></trkpt>
        <trkpt lat="29.56492" lon="103.43359"><ele>587.28467</ele><time>2026-07-20T21:02:41.000Z</time></trkpt>
        <trkpt lat="29.564924" lon="103.433561"><ele>586.9851</ele><time>2026-07-20T21:02:43.000Z</time></trkpt>
        <trkpt lat="29.564928" lon="103.433534"><ele>586.24194</ele><time>2026-07-20T21:02:45.000Z</time></trkpt>
        <trkpt lat="29.564932" lon="103.433507"><ele>585.599</ele><time>2026-07-20T21:02:47.000Z</time></trkpt>
        <trkpt lat="29.564936" lon="103.433481"><ele>585.80725</ele><time>2026-07-20T21:02:49.000Z</time></trkpt>
        <trkpt lat="29.56494" lon="103.433458"><ele>585.9491</ele><time>2026-07-20T21:02:51.000Z</time></trkpt>
        <trkpt lat="29.564945" lon="103.433436"><ele>585.77844</ele><time>2026-07-20T21:02:53.000Z</time></trkpt>
        <trkpt lat="29.56495" lon="103.433416"><ele>585.3448</ele><time>2026-07-20T21:02:55.000Z</time></trkpt>
        <trkpt lat="29.564956" lon="103.433394"><ele>585.967</ele><time>2026-07-20T21:02:57.000Z</time></trkpt>
        <trkpt lat="29.564964" lon="103.433368"><ele>586.0718</ele><time>2026-07-20T21:02:59.000Z</time></trkpt>
        <trkpt lat="29.564975" lon="103.433344"><ele>587.4874</ele><time>2026-07-20T21:03:01.000Z</time></trkpt>
        <trkpt lat="29.564986" lon="103.433321"><ele>586.55853</ele><time>2026-07-20T21:03:03.000Z</time></trkpt>
        <trkpt lat="29.564998" lon="103.433299"><ele>586.47</ele><time>2026-07-20T21:03:05.000Z</time></trkpt>
        <trkpt lat="29.565014" lon="103.433277"><ele>586.7509</ele><time>2026-07-20T21:03:07.000Z</time></trkpt>
        <trkpt lat="29.56503" lon="103.433257"><ele>585.7598</ele><time>2026-07-20T21:03:09.000Z</time></trkpt>
        <trkpt lat="29.565046" lon="103.433238"><ele>586.1915</ele><time>2026-07-20T21:03:11.000Z</time></trkpt>
        <trkpt lat="29.565061" lon="103.43322"><ele>586.27747</ele><time>2026-07-20T21:03:13.000Z</time></trkpt>
        <trkpt lat="29.565069" lon="103.433213"><ele>586.00354</ele><time>2026-07-20T21:03:15.000Z</time></trkpt>
        <trkpt lat="29.56508" lon="103.433204"><ele>586.6241</ele><time>2026-07-20T21:03:17.000Z</time></trkpt>
        <trkpt lat="29.565092" lon="103.433195"><ele>587.0524</ele><time>2026-07-20T21:03:19.000Z</time></trkpt>
        <trkpt lat="29.565105" lon="103.433185"><ele>587.1056</ele><time>2026-07-20T21:03:21.000Z</time></trkpt>
        <trkpt lat="29.565119" lon="103.433172"><ele>587.8667</ele><time>2026-07-20T21:03:23.000Z</time></trkpt>
        <trkpt lat="29.565134" lon="103.433161"><ele>588.32855</ele><time>2026-07-20T21:03:25.000Z</time></trkpt>
        <trkpt lat="29.565149" lon="103.433151"><ele>588.103</ele><time>2026-07-20T21:03:27.000Z</time></trkpt>
        <trkpt lat="29.565169" lon="103.433139"><ele>588.4175</ele><time>2026-07-20T21:03:29.000Z</time></trkpt>
        <trkpt lat="29.565187" lon="103.433127"><ele>590.21796</ele><time>2026-07-20T21:03:31.000Z</time></trkpt>
        <trkpt lat="29.565201" lon="103.43312"><ele>590.06635</ele><time>2026-07-20T21:03:33.000Z</time></trkpt>
        <trkpt lat="29.565215" lon="103.433116"><ele>589.7319</ele><time>2026-07-20T21:03:35.000Z</time></trkpt>
        <trkpt lat="29.56523" lon="103.433114"><ele>590.8178</ele><time>2026-07-20T21:03:37.000Z</time></trkpt>
        <trkpt lat="29.565241" lon="103.433113"><ele>590.3201</ele><time>2026-07-20T21:03:38.000Z</time></trkpt>
        <trkpt lat="29.565253" lon="103.433111"><ele>591.19183</ele><time>2026-07-20T21:03:40.000Z</time></trkpt>
        <trkpt lat="29.565265" lon="103.433109"><ele>591.9722</ele><time>2026-07-20T21:03:42.000Z</time></trkpt>
        <trkpt lat="29.56527" lon="103.433111"><ele>592.2025</ele><time>2026-07-20T21:03:44.000Z</time></trkpt>
        <trkpt lat="29.565272" lon="103.433117"><ele>591.58813</ele><time>2026-07-20T21:03:46.000Z</time></trkpt>
        <trkpt lat="29.565285" lon="103.433152"><ele>593.4406</ele><time>2026-07-20T21:03:48.000Z</time></trkpt>
        <trkpt lat="29.565286" lon="103.433153"><ele>595.6469</ele><time>2026-07-20T21:03:50.000Z</time></trkpt>
        <trkpt lat="29.565288" lon="103.433157"><ele>594.82404</ele><time>2026-07-20T21:03:52.000Z</time></trkpt>
        <trkpt lat="29.565313" lon="103.433193"><ele>595.3</ele><time>2026-07-20T21:03:56.000Z</time></trkpt>
        <trkpt lat="29.56533" lon="103.433221"><ele>596.3851</ele><time>2026-07-20T21:03:58.000Z</time></trkpt>
        <trkpt lat="29.565343" lon="103.433248"><ele>596.1617</ele><time>2026-07-20T21:04:01.000Z</time></trkpt>
        <trkpt lat="29.565354" lon="103.433274"><ele>596.9174</ele><time>2026-07-20T21:04:03.000Z</time></trkpt>
        <trkpt lat="29.565362" lon="103.433299"><ele>596.86365</ele><time>2026-07-20T21:04:05.000Z</time></trkpt>
        <trkpt lat="29.565368" lon="103.43332"><ele>597.72296</ele><time>2026-07-20T21:04:07.000Z</time></trkpt>
        <trkpt lat="29.565377" lon="103.433342"><ele>597.7834</ele><time>2026-07-20T21:04:09.000Z</time></trkpt>
        <trkpt lat="29.565383" lon="103.433353"><ele>598.7115</ele><time>2026-07-20T21:04:11.000Z</time></trkpt>
        <trkpt lat="29.565388" lon="103.433361"><ele>598.7062</ele><time>2026-07-20T21:04:13.000Z</time></trkpt>
        <trkpt lat="29.5654" lon="103.433381"><ele>599.2578</ele><time>2026-07-20T21:04:17.000Z</time></trkpt>
        <trkpt lat="29.565408" lon="103.4334"><ele>598.91406</ele><time>2026-07-20T21:04:19.000Z</time></trkpt>
        <trkpt lat="29.565417" lon="103.433419"><ele>599.0211</ele><time>2026-07-20T21:04:21.000Z</time></trkpt>
        <trkpt lat="29.565429" lon="103.433437"><ele>598.3766</ele><time>2026-07-20T21:04:23.000Z</time></trkpt>
        <trkpt lat="29.565443" lon="103.433454"><ele>598.6125</ele><time>2026-07-20T21:04:25.000Z</time></trkpt>
        <trkpt lat="29.565463" lon="103.433479"><ele>597.89453</ele><time>2026-07-20T21:04:27.000Z</time></trkpt>
        <trkpt lat="29.565483" lon="103.433505"><ele>596.4205</ele><time>2026-07-20T21:04:29.000Z</time></trkpt>
        <trkpt lat="29.565506" lon="103.433531"><ele>594.9285</ele><time>2026-07-20T21:04:31.000Z</time></trkpt>
        <trkpt lat="29.565523" lon="103.433546"><ele>593.1148</ele><time>2026-07-20T21:04:33.000Z</time></trkpt>
        <trkpt lat="29.565532" lon="103.433548"><ele>593.1609</ele><time>2026-07-20T21:04:35.000Z</time></trkpt>
        <trkpt lat="29.565535" lon="103.433547"><ele>592.19824</ele><time>2026-07-20T21:04:37.000Z</time></trkpt>
        <trkpt lat="29.565553" lon="103.433549"><ele>590.851</ele><time>2026-07-20T21:04:45.000Z</time></trkpt>
        <trkpt lat="29.565555" lon="103.433554"><ele>590.7324</ele><time>2026-07-20T21:04:49.000Z</time></trkpt>
        <trkpt lat="29.565565" lon="103.433581"><ele>591.2968</ele><time>2026-07-20T21:04:51.000Z</time></trkpt>
        <trkpt lat="29.565576" lon="103.43361"><ele>590.6665</ele><time>2026-07-20T21:04:53.000Z</time></trkpt>
        <trkpt lat="29.565576" lon="103.433612"><ele>590.0379</ele><time>2026-07-20T21:04:55.000Z</time></trkpt>
        <trkpt lat="29.565577" lon="103.433616"><ele>591.4685</ele><time>2026-07-20T21:04:57.000Z</time></trkpt>
        <trkpt lat="29.565586" lon="103.433662"><ele>589.98865</ele><time>2026-07-20T21:05:01.000Z</time></trkpt>
        <trkpt lat="29.565589" lon="103.433692"><ele>590.0098</ele><time>2026-07-20T21:05:03.000Z</time></trkpt>
        <trkpt lat="29.565589" lon="103.433715"><ele>590.06067</ele><time>2026-07-20T21:05:05.000Z</time></trkpt>
        <trkpt lat="29.565589" lon="103.433731"><ele>590.1337</ele><time>2026-07-20T21:05:07.000Z</time></trkpt>
        <trkpt lat="29.565591" lon="103.433747"><ele>590.49725</ele><time>2026-07-20T21:05:09.000Z</time></trkpt>
        <trkpt lat="29.565593" lon="103.433763"><ele>590.3259</ele><time>2026-07-20T21:05:11.000Z</time></trkpt>
        <trkpt lat="29.565593" lon="103.433779"><ele>589.80774</ele><time>2026-07-20T21:05:13.000Z</time></trkpt>
        <trkpt lat="29.565592" lon="103.433794"><ele>589.35345</ele><time>2026-07-20T21:05:15.000Z</time></trkpt>
        <trkpt lat="29.565592" lon="103.433805"><ele>589.2768</ele><time>2026-07-20T21:05:17.000Z</time></trkpt>
        <trkpt lat="29.565593" lon="103.433819"><ele>588.69226</ele><time>2026-07-20T21:05:19.000Z</time></trkpt>
        <trkpt lat="29.565598" lon="103.433838"><ele>588.2259</ele><time>2026-07-20T21:05:21.000Z</time></trkpt>
        <trkpt lat="29.565603" lon="103.433851"><ele>588.47253</ele><time>2026-07-20T21:05:23.000Z</time></trkpt>
        <trkpt lat="29.565607" lon="103.433862"><ele>588.1875</ele><time>2026-07-20T21:05:25.000Z</time></trkpt>
        <trkpt lat="29.56561" lon="103.433874"><ele>588.7093</ele><time>2026-07-20T21:05:27.000Z</time></trkpt>
        <trkpt lat="29.56561" lon="103.433887"><ele>588.8671</ele><time>2026-07-20T21:05:29.000Z</time></trkpt>
        <trkpt lat="29.565611" lon="103.433898"><ele>588.3981</ele><time>2026-07-20T21:05:31.000Z</time></trkpt>
        <trkpt lat="29.565612" lon="103.433913"><ele>588.18756</ele><time>2026-07-20T21:05:33.000Z</time></trkpt>
        <trkpt lat="29.565614" lon="103.433932"><ele>588.29443</ele><time>2026-07-20T21:05:35.000Z</time></trkpt>
        <trkpt lat="29.565616" lon="103.433956"><ele>588.89886</ele><time>2026-07-20T21:05:37.000Z</time></trkpt>
        <trkpt lat="29.565618" lon="103.433978"><ele>589.02264</ele><time>2026-07-20T21:05:39.000Z</time></trkpt>
        <trkpt lat="29.56562" lon="103.434003"><ele>590.2646</ele><time>2026-07-20T21:05:41.000Z</time></trkpt>
        <trkpt lat="29.565623" lon="103.434029"><ele>590.57153</ele><time>2026-07-20T21:05:43.000Z</time></trkpt>
        <trkpt lat="29.565624" lon="103.434056"><ele>590.5003</ele><time>2026-07-20T21:05:45.000Z</time></trkpt>
        <trkpt lat="29.565626" lon="103.434084"><ele>590.23016</ele><time>2026-07-20T21:05:47.000Z</time></trkpt>
        <trkpt lat="29.565628" lon="103.434113"><ele>589.8284</ele><time>2026-07-20T21:05:49.000Z</time></trkpt>
        <trkpt lat="29.565629" lon="103.434141"><ele>589.32996</ele><time>2026-07-20T21:05:51.000Z</time></trkpt>
        <trkpt lat="29.565628" lon="103.434169"><ele>588.17267</ele><time>2026-07-20T21:05:53.000Z</time></trkpt>
        <trkpt lat="29.565629" lon="103.434195"><ele>586.6101</ele><time>2026-07-20T21:05:55.000Z</time></trkpt>
        <trkpt lat="29.565633" lon="103.434222"><ele>586.0763</ele><time>2026-07-20T21:05:57.000Z</time></trkpt>
        <trkpt lat="29.56564" lon="103.43425"><ele>585.18146</ele><time>2026-07-20T21:05:59.000Z</time></trkpt>
        <trkpt lat="29.565652" lon="103.434276"><ele>585.52673</ele><time>2026-07-20T21:06:01.000Z</time></trkpt>
        <trkpt lat="29.565668" lon="103.434298"><ele>586.3887</ele><time>2026-07-20T21:06:03.000Z</time></trkpt>
        <trkpt lat="29.565689" lon="103.434315"><ele>586.6356</ele><time>2026-07-20T21:06:05.000Z</time></trkpt>
        <trkpt lat="29.565712" lon="103.434328"><ele>587.97375</ele><time>2026-07-20T21:06:07.000Z</time></trkpt>
        <trkpt lat="29.565733" lon="103.434333"><ele>588.79047</ele><time>2026-07-20T21:06:09.000Z</time></trkpt>
        <trkpt lat="29.56574" lon="103.43433"><ele>588.9887</ele><time>2026-07-20T21:06:11.000Z</time></trkpt>
        <trkpt lat="29.565696" lon="103.43435"><ele>592.4038</ele><time>2026-07-20T21:06:25.000Z</time></trkpt>
        <trkpt lat="29.565694" lon="103.434351"><ele>593.17993</ele><time>2026-07-20T21:06:27.000Z</time></trkpt>
        <trkpt lat="29.565693" lon="103.434351"><ele>594.01495</ele><time>2026-07-20T21:06:29.000Z</time></trkpt>
        <trkpt lat="29.565736" lon="103.434354"><ele>593.2688</ele><time>2026-07-20T21:07:55.000Z</time></trkpt>
        <trkpt lat="29.565736" lon="103.434354"><ele>593.2948</ele><time>2026-07-20T21:07:57.000Z</time></trkpt>
        <trkpt lat="29.565736" lon="103.434353"><ele>593.1432</ele><time>2026-07-20T21:07:59.000Z</time></trkpt>
        <trkpt lat="29.565742" lon="103.434313"><ele>592.774</ele><time>2026-07-20T21:08:23.000Z</time></trkpt>
        <trkpt lat="29.56574" lon="103.434312"><ele>593.0128</ele><time>2026-07-20T21:08:26.000Z</time></trkpt>
        <trkpt lat="29.565774" lon="103.434335"><ele>591.50446</ele><time>2026-07-20T21:08:50.000Z</time></trkpt>
        <trkpt lat="29.565778" lon="103.434315"><ele>592.88873</ele><time>2026-07-20T21:08:52.000Z</time></trkpt>
        <trkpt lat="29.565783" lon="103.434287"><ele>593.75214</ele><time>2026-07-20T21:08:54.000Z</time></trkpt>
        <trkpt lat="29.56579" lon="103.43425"><ele>594.5884</ele><time>2026-07-20T21:08:57.000Z</time></trkpt>
        <trkpt lat="29.56579" lon="103.434249"><ele>595.02356</ele><time>2026-07-20T21:08:59.000Z</time></trkpt>
        <trkpt lat="29.56579" lon="103.434245"><ele>595.6968</ele><time>2026-07-20T21:09:01.000Z</time></trkpt>
        <trkpt lat="29.565775" lon="103.434187"><ele>596.51685</ele><time>2026-07-20T21:09:05.000Z</time></trkpt>
        <trkpt lat="29.565763" lon="103.434145"><ele>598.627</ele><time>2026-07-20T21:09:07.000Z</time></trkpt>
        <trkpt lat="29.56575" lon="103.434105"><ele>598.16797</ele><time>2026-07-20T21:09:09.000Z</time></trkpt>
        <trkpt lat="29.565737" lon="103.434073"><ele>600.0458</ele><time>2026-07-20T21:09:11.000Z</time></trkpt>
        <trkpt lat="29.56573" lon="103.434055"><ele>601.8744</ele><time>2026-07-20T21:09:13.000Z</time></trkpt>
        <trkpt lat="29.565728" lon="103.434038"><ele>602.7693</ele><time>2026-07-20T21:09:15.000Z</time></trkpt>
        <trkpt lat="29.565728" lon="103.434021"><ele>601.7343</ele><time>2026-07-20T21:09:17.000Z</time></trkpt>
        <trkpt lat="29.56573" lon="103.433997"><ele>601.1001</ele><time>2026-07-20T21:09:19.000Z</time></trkpt>
        <trkpt lat="29.565735" lon="103.43398"><ele>600.36005</ele><time>2026-07-20T21:09:21.000Z</time></trkpt>
        <trkpt lat="29.56574" lon="103.433961"><ele>599.9141</ele><time>2026-07-20T21:09:23.000Z</time></trkpt>
        <trkpt lat="29.565747" lon="103.433943"><ele>600.2708</ele><time>2026-07-20T21:09:25.000Z</time></trkpt>
        <trkpt lat="29.565751" lon="103.433923"><ele>600.2551</ele><time>2026-07-20T21:09:27.000Z</time></trkpt>
        <trkpt lat="29.565749" lon="103.433905"><ele>596.18353</ele><time>2026-07-20T21:09:29.000Z</time></trkpt>
        <trkpt lat="29.56575" lon="103.433879"><ele>594.3946</ele><time>2026-07-20T21:09:31.000Z</time></trkpt>
        <trkpt lat="29.565758" lon="103.433855"><ele>594.05804</ele><time>2026-07-20T21:09:33.000Z</time></trkpt>
        <trkpt lat="29.565769" lon="103.433827"><ele>596.59375</ele><time>2026-07-20T21:09:35.000Z</time></trkpt>
        <trkpt lat="29.565779" lon="103.433792"><ele>596.42096</ele><time>2026-07-20T21:09:37.000Z</time></trkpt>
        <trkpt lat="29.565785" lon="103.433757"><ele>596.66174</ele><time>2026-07-20T21:09:39.000Z</time></trkpt>
        <trkpt lat="29.565787" lon="103.433725"><ele>597.5738</ele><time>2026-07-20T21:09:41.000Z</time></trkpt>
        <trkpt lat="29.565788" lon="103.433692"><ele>597.1789</ele><time>2026-07-20T21:09:43.000Z</time></trkpt>
        <trkpt lat="29.56579" lon="103.433659"><ele>597.2732</ele><time>2026-07-20T21:09:45.000Z</time></trkpt>
        <trkpt lat="29.565796" lon="103.43363"><ele>598.0518</ele><time>2026-07-20T21:09:47.000Z</time></trkpt>
        <trkpt lat="29.565805" lon="103.433601"><ele>598.42584</ele><time>2026-07-20T21:09:49.000Z</time></trkpt>
        <trkpt lat="29.565819" lon="103.433569"><ele>598.5751</ele><time>2026-07-20T21:09:51.000Z</time></trkpt>
        <trkpt lat="29.565834" lon="103.433538"><ele>597.80054</ele><time>2026-07-20T21:09:53.000Z</time></trkpt>
        <trkpt lat="29.565849" lon="103.433507"><ele>598.3022</ele><time>2026-07-20T21:09:55.000Z</time></trkpt>
        <trkpt lat="29.565864" lon="103.433475"><ele>598.89233</ele><time>2026-07-20T21:09:56.000Z</time></trkpt>
        <trkpt lat="29.565876" lon="103.433444"><ele>599.24634</ele><time>2026-07-20T21:09:58.000Z</time></trkpt>
        <trkpt lat="29.565885" lon="103.433414"><ele>600.301</ele><time>2026-07-20T21:10:00.000Z</time></trkpt>
        <trkpt lat="29.565887" lon="103.433393"><ele>602.0322</ele><time>2026-07-20T21:10:02.000Z</time></trkpt>
        <trkpt lat="29.56588" lon="103.43338"><ele>602.501</ele><time>2026-07-20T21:10:04.000Z</time></trkpt>
        <trkpt lat="29.565861" lon="103.433362"><ele>602.5662</ele><time>2026-07-20T21:10:06.000Z</time></trkpt>
        <trkpt lat="29.565835" lon="103.433341"><ele>602.74805</ele><time>2026-07-20T21:10:08.000Z</time></trkpt>
        <trkpt lat="29.565816" lon="103.433314"><ele>602.47516</ele><time>2026-07-20T21:10:10.000Z</time></trkpt>
        <trkpt lat="29.565807" lon="103.433292"><ele>603.05963</ele><time>2026-07-20T21:10:12.000Z</time></trkpt>
        <trkpt lat="29.565793" lon="103.433263"><ele>601.35815</ele><time>2026-07-20T21:10:14.000Z</time></trkpt>
        <trkpt lat="29.565775" lon="103.433219"><ele>600.21716</ele><time>2026-07-20T21:10:16.000Z</time></trkpt>
        <trkpt lat="29.565764" lon="103.433183"><ele>599.72174</ele><time>2026-07-20T21:10:18.000Z</time></trkpt>
        <trkpt lat="29.565754" lon="103.433149"><ele>599.9151</ele><time>2026-07-20T21:10:20.000Z</time></trkpt>
        <trkpt lat="29.565741" lon="103.433115"><ele>599.5403</ele><time>2026-07-20T21:10:22.000Z</time></trkpt>
        <trkpt lat="29.565728" lon="103.43308"><ele>599.3406</ele><time>2026-07-20T21:10:25.000Z</time></trkpt>
        <trkpt lat="29.565717" lon="103.433052"><ele>599.1158</ele><time>2026-07-20T21:10:27.000Z</time></trkpt>
        <trkpt lat="29.565705" lon="103.433023"><ele>599.0629</ele><time>2026-07-20T21:10:29.000Z</time></trkpt>
        <trkpt lat="29.565693" lon="103.432993"><ele>599.21765</ele><time>2026-07-20T21:10:31.000Z</time></trkpt>
        <trkpt lat="29.565684" lon="103.432967"><ele>599.2603</ele><time>2026-07-20T21:10:33.000Z</time></trkpt>
        <trkpt lat="29.565677" lon="103.432936"><ele>599.437</ele><time>2026-07-20T21:10:35.000Z</time></trkpt>
        <trkpt lat="29.565676" lon="103.43291"><ele>600.07556</ele><time>2026-07-20T21:10:37.000Z</time></trkpt>
        <trkpt lat="29.565674" lon="103.432883"><ele>600.7004</ele><time>2026-07-20T21:10:39.000Z</time></trkpt>
        <trkpt lat="29.565674" lon="103.432857"><ele>601.13965</ele><time>2026-07-20T21:10:41.000Z</time></trkpt>
        <trkpt lat="29.565675" lon="103.432831"><ele>601.3653</ele><time>2026-07-20T21:10:43.000Z</time></trkpt>
        <trkpt lat="29.565673" lon="103.432803"><ele>601.6159</ele><time>2026-07-20T21:10:45.000Z</time></trkpt>
        <trkpt lat="29.56567" lon="103.432777"><ele>602.10974</ele><time>2026-07-20T21:10:47.000Z</time></trkpt>
        <trkpt lat="29.565659" lon="103.432757"><ele>601.8992</ele><time>2026-07-20T21:10:49.000Z</time></trkpt>
        <trkpt lat="29.565642" lon="103.43274"><ele>601.5719</ele><time>2026-07-20T21:10:51.000Z</time></trkpt>
        <trkpt lat="29.565623" lon="103.432717"><ele>602.7874</ele><time>2026-07-20T21:10:53.000Z</time></trkpt>
        <trkpt lat="29.565607" lon="103.432688"><ele>602.50415</ele><time>2026-07-20T21:10:55.000Z</time></trkpt>
        <trkpt lat="29.565594" lon="103.432658"><ele>602.38416</ele><time>2026-07-20T21:10:57.000Z</time></trkpt>
        <trkpt lat="29.565582" lon="103.432616"><ele>601.6389</ele><time>2026-07-20T21:10:59.000Z</time></trkpt>
        <trkpt lat="29.565578" lon="103.432582"><ele>601.81976</ele><time>2026-07-20T21:11:01.000Z</time></trkpt>
        <trkpt lat="29.565576" lon="103.432545"><ele>604.11786</ele><time>2026-07-20T21:11:03.000Z</time></trkpt>
        <trkpt lat="29.565572" lon="103.43251"><ele>604.2399</ele><time>2026-07-20T21:11:05.000Z</time></trkpt>
        <trkpt lat="29.565566" lon="103.432484"><ele>604.874</ele><time>2026-07-20T21:11:07.000Z</time></trkpt>
        <trkpt lat="29.565557" lon="103.432461"><ele>604.82666</ele><time>2026-07-20T21:11:09.000Z</time></trkpt>
        <trkpt lat="29.565545" lon="103.432437"><ele>604.1663</ele><time>2026-07-20T21:11:11.000Z</time></trkpt>
        <trkpt lat="29.565534" lon="103.432419"><ele>604.63916</ele><time>2026-07-20T21:11:13.000Z</time></trkpt>
        <trkpt lat="29.56552" lon="103.432401"><ele>604.1713</ele><time>2026-07-20T21:11:15.000Z</time></trkpt>
        <trkpt lat="29.565504" lon="103.432378"><ele>603.78925</ele><time>2026-07-20T21:11:17.000Z</time></trkpt>
        <trkpt lat="29.565489" lon="103.432353"><ele>603.7667</ele><time>2026-07-20T21:11:19.000Z</time></trkpt>
        <trkpt lat="29.565478" lon="103.43233"><ele>604.4567</ele><time>2026-07-20T21:11:21.000Z</time></trkpt>
        <trkpt lat="29.565467" lon="103.432307"><ele>605.0943</ele><time>2026-07-20T21:11:23.000Z</time></trkpt>
        <trkpt lat="29.565459" lon="103.43229"><ele>605.4094</ele><time>2026-07-20T21:11:25.000Z</time></trkpt>
        <trkpt lat="29.56545" lon="103.432269"><ele>606.5802</ele><time>2026-07-20T21:11:27.000Z</time></trkpt>
        <trkpt lat="29.565442" lon="103.432244"><ele>607.8704</ele><time>2026-07-20T21:11:29.000Z</time></trkpt>
        <trkpt lat="29.565434" lon="103.432215"><ele>607.3013</ele><time>2026-07-20T21:11:31.000Z</time></trkpt>
        <trkpt lat="29.565426" lon="103.432188"><ele>607.7875</ele><time>2026-07-20T21:11:33.000Z</time></trkpt>
        <trkpt lat="29.565416" lon="103.432162"><ele>607.695</ele><time>2026-07-20T21:11:35.000Z</time></trkpt>
        <trkpt lat="29.565406" lon="103.432135"><ele>607.7591</ele><time>2026-07-20T21:11:37.000Z</time></trkpt>
        <trkpt lat="29.565396" lon="103.432108"><ele>607.646</ele><time>2026-07-20T21:11:39.000Z</time></trkpt>
        <trkpt lat="29.565387" lon="103.432082"><ele>607.8757</ele><time>2026-07-20T21:11:41.000Z</time></trkpt>
        <trkpt lat="29.565381" lon="103.432057"><ele>607.6502</ele><time>2026-07-20T21:11:43.000Z</time></trkpt>
        <trkpt lat="29.565375" lon="103.432032"><ele>607.783</ele><time>2026-07-20T21:11:45.000Z</time></trkpt>
        <trkpt lat="29.565369" lon="103.432009"><ele>607.86554</ele><time>2026-07-20T21:11:47.000Z</time></trkpt>
        <trkpt lat="29.565363" lon="103.431986"><ele>608.0714</ele><time>2026-07-20T21:11:49.000Z</time></trkpt>
        <trkpt lat="29.56536" lon="103.431962"><ele>607.55096</ele><time>2026-07-20T21:11:51.000Z</time></trkpt>
        <trkpt lat="29.565363" lon="103.431942"><ele>608.141</ele><time>2026-07-20T21:11:53.000Z</time></trkpt>
        <trkpt lat="29.565369" lon="103.431924"><ele>609.129</ele><time>2026-07-20T21:11:55.000Z</time></trkpt>
        <trkpt lat="29.565375" lon="103.431905"><ele>609.52844</ele><time>2026-07-20T21:11:57.000Z</time></trkpt>
        <trkpt lat="29.565379" lon="103.431885"><ele>609.7388</ele><time>2026-07-20T21:11:59.000Z</time></trkpt>
        <trkpt lat="29.565384" lon="103.431862"><ele>610.4824</ele><time>2026-07-20T21:12:01.000Z</time></trkpt>
        <trkpt lat="29.565389" lon="103.431839"><ele>611.9223</ele><time>2026-07-20T21:12:03.000Z</time></trkpt>
        <trkpt lat="29.565395" lon="103.431817"><ele>612.5128</ele><time>2026-07-20T21:12:05.000Z</time></trkpt>
        <trkpt lat="29.565403" lon="103.431796"><ele>613.45856</ele><time>2026-07-20T21:12:07.000Z</time></trkpt>
        <trkpt lat="29.565411" lon="103.431777"><ele>614.2078</ele><time>2026-07-20T21:12:09.000Z</time></trkpt>
        <trkpt lat="29.565418" lon="103.431759"><ele>614.88336</ele><time>2026-07-20T21:12:11.000Z</time></trkpt>
        <trkpt lat="29.565423" lon="103.431742"><ele>614.9436</ele><time>2026-07-20T21:12:13.000Z</time></trkpt>
        <trkpt lat="29.565428" lon="103.431718"><ele>614.9639</ele><time>2026-07-20T21:12:15.000Z</time></trkpt>
        <trkpt lat="29.565432" lon="103.431693"><ele>615.03754</ele><time>2026-07-20T21:12:17.000Z</time></trkpt>
        <trkpt lat="29.565437" lon="103.431671"><ele>615.8108</ele><time>2026-07-20T21:12:19.000Z</time></trkpt>
        <trkpt lat="29.565442" lon="103.431646"><ele>616.6709</ele><time>2026-07-20T21:12:21.000Z</time></trkpt>
        <trkpt lat="29.565449" lon="103.431622"><ele>616.662</ele><time>2026-07-20T21:12:23.000Z</time></trkpt>
        <trkpt lat="29.565456" lon="103.4316"><ele>618.9527</ele><time>2026-07-20T21:12:25.000Z</time></trkpt>
        <trkpt lat="29.565462" lon="103.431577"><ele>619.42316</ele><time>2026-07-20T21:12:27.000Z</time></trkpt>
        <trkpt lat="29.565468" lon="103.431552"><ele>620.12305</ele><time>2026-07-20T21:12:29.000Z</time></trkpt>
        <trkpt lat="29.565473" lon="103.431528"><ele>620.5054</ele><time>2026-07-20T21:12:31.000Z</time></trkpt>
        <trkpt lat="29.565477" lon="103.431507"><ele>620.97656</ele><time>2026-07-20T21:12:33.000Z</time></trkpt>
        <trkpt lat="29.565482" lon="103.431488"><ele>621.6557</ele><time>2026-07-20T21:12:35.000Z</time></trkpt>
        <trkpt lat="29.565487" lon="103.431466"><ele>622.13116</ele><time>2026-07-20T21:12:37.000Z</time></trkpt>
        <trkpt lat="29.565492" lon="103.431443"><ele>622.41626</ele><time>2026-07-20T21:12:39.000Z</time></trkpt>
        <trkpt lat="29.565495" lon="103.431421"><ele>623.8524</ele><time>2026-07-20T21:12:41.000Z</time></trkpt>
        <trkpt lat="29.565497" lon="103.431398"><ele>623.98083</ele><time>2026-07-20T21:12:43.000Z</time></trkpt>
        <trkpt lat="29.565498" lon="103.431381"><ele>624.1036</ele><time>2026-07-20T21:12:45.000Z</time></trkpt>
        <trkpt lat="29.5655" lon="103.431373"><ele>624.1315</ele><time>2026-07-20T21:12:47.000Z</time></trkpt>
        <trkpt lat="29.565503" lon="103.431367"><ele>624.6636</ele><time>2026-07-20T21:12:49.000Z</time></trkpt>
        <trkpt lat="29.565509" lon="103.431347"><ele>624.5782</ele><time>2026-07-20T21:12:51.000Z</time></trkpt>
        <trkpt lat="29.565511" lon="103.431319"><ele>624.64185</ele><time>2026-07-20T21:12:53.000Z</time></trkpt>
        <trkpt lat="29.565513" lon="103.431289"><ele>623.5071</ele><time>2026-07-20T21:12:55.000Z</time></trkpt>
        <trkpt lat="29.565513" lon="103.431262"><ele>623.3536</ele><time>2026-07-20T21:12:57.000Z</time></trkpt>
        <trkpt lat="29.565512" lon="103.431244"><ele>623.1295</ele><time>2026-07-20T21:12:59.000Z</time></trkpt>
        <trkpt lat="29.56551" lon="103.431232"><ele>623.15454</ele><time>2026-07-20T21:13:01.000Z</time></trkpt>
        <trkpt lat="29.56551" lon="103.431225"><ele>623.5842</ele><time>2026-07-20T21:13:03.000Z</time></trkpt>
        <trkpt lat="29.565512" lon="103.431205"><ele>623.4582</ele><time>2026-07-20T21:13:07.000Z</time></trkpt>
        <trkpt lat="29.565516" lon="103.43119"><ele>624.5121</ele><time>2026-07-20T21:13:13.000Z</time></trkpt>
        <trkpt lat="29.565523" lon="103.431166"><ele>625.5119</ele><time>2026-07-20T21:13:15.000Z</time></trkpt>
        <trkpt lat="29.565529" lon="103.431132"><ele>625.4504</ele><time>2026-07-20T21:13:17.000Z</time></trkpt>
        <trkpt lat="29.565533" lon="103.431095"><ele>625.3222</ele><time>2026-07-20T21:13:19.000Z</time></trkpt>
        <trkpt lat="29.565533" lon="103.431065"><ele>625.884</ele><time>2026-07-20T21:13:21.000Z</time></trkpt>
        <trkpt lat="29.565529" lon="103.431037"><ele>626.01044</ele><time>2026-07-20T21:13:23.000Z</time></trkpt>
        <trkpt lat="29.565522" lon="103.43101"><ele>625.8412</ele><time>2026-07-20T21:13:25.000Z</time></trkpt>
        <trkpt lat="29.565514" lon="103.430984"><ele>625.881</ele><time>2026-07-20T21:13:27.000Z</time></trkpt>
        <trkpt lat="29.565505" lon="103.430964"><ele>626.5296</ele><time>2026-07-20T21:13:29.000Z</time></trkpt>
        <trkpt lat="29.565493" lon="103.430944"><ele>627.4701</ele><time>2026-07-20T21:13:31.000Z</time></trkpt>
        <trkpt lat="29.565478" lon="103.430927"><ele>628.09076</ele><time>2026-07-20T21:13:33.000Z</time></trkpt>
        <trkpt lat="29.565464" lon="103.430913"><ele>628.42535</ele><time>2026-07-20T21:13:35.000Z</time></trkpt>
        <trkpt lat="29.565444" lon="103.430898"><ele>627.904</ele><time>2026-07-20T21:13:37.000Z</time></trkpt>
        <trkpt lat="29.565424" lon="103.430888"><ele>627.6055</ele><time>2026-07-20T21:13:39.000Z</time></trkpt>
        <trkpt lat="29.565403" lon="103.430876"><ele>627.54364</ele><time>2026-07-20T21:13:41.000Z</time></trkpt>
        <trkpt lat="29.565385" lon="103.430861"><ele>627.9897</ele><time>2026-07-20T21:13:43.000Z</time></trkpt>
        <trkpt lat="29.565373" lon="103.430844"><ele>626.95856</ele><time>2026-07-20T21:13:45.000Z</time></trkpt>
        <trkpt lat="29.565365" lon="103.430825"><ele>626.3208</ele><time>2026-07-20T21:13:47.000Z</time></trkpt>
        <trkpt lat="29.565358" lon="103.430797"><ele>625.71063</ele><time>2026-07-20T21:13:49.000Z</time></trkpt>
        <trkpt lat="29.565355" lon="103.43077"><ele>625.73364</ele><time>2026-07-20T21:13:51.000Z</time></trkpt>
        <trkpt lat="29.565356" lon="103.430744"><ele>625.3635</ele><time>2026-07-20T21:13:53.000Z</time></trkpt>
        <trkpt lat="29.56536" lon="103.430719"><ele>625.42584</ele><time>2026-07-20T21:13:55.000Z</time></trkpt>
        <trkpt lat="29.565364" lon="103.430695"><ele>625.5602</ele><time>2026-07-20T21:13:57.000Z</time></trkpt>
        <trkpt lat="29.565369" lon="103.430673"><ele>625.7846</ele><time>2026-07-20T21:13:59.000Z</time></trkpt>
        <trkpt lat="29.565371" lon="103.430654"><ele>625.7616</ele><time>2026-07-20T21:14:01.000Z</time></trkpt>
        <trkpt lat="29.565371" lon="103.430633"><ele>626.8395</ele><time>2026-07-20T21:14:03.000Z</time></trkpt>
        <trkpt lat="29.565369" lon="103.430611"><ele>627.435</ele><time>2026-07-20T21:14:05.000Z</time></trkpt>
        <trkpt lat="29.565364" lon="103.430587"><ele>628.9813</ele><time>2026-07-20T21:14:07.000Z</time></trkpt>
        <trkpt lat="29.565356" lon="103.430562"><ele>628.8496</ele><time>2026-07-20T21:14:09.000Z</time></trkpt>
        <trkpt lat="29.565348" lon="103.430541"><ele>629.3027</ele><time>2026-07-20T21:14:11.000Z</time></trkpt>
        <trkpt lat="29.565339" lon="103.430517"><ele>628.5472</ele><time>2026-07-20T21:14:13.000Z</time></trkpt>
        <trkpt lat="29.565329" lon="103.430493"><ele>628.55096</ele><time>2026-07-20T21:14:15.000Z</time></trkpt>
        <trkpt lat="29.565321" lon="103.43047"><ele>628.51624</ele><time>2026-07-20T21:14:17.000Z</time></trkpt>
        <trkpt lat="29.565318" lon="103.430448"><ele>628.0848</ele><time>2026-07-20T21:14:19.000Z</time></trkpt>
        <trkpt lat="29.565317" lon="103.430429"><ele>628.2205</ele><time>2026-07-20T21:14:21.000Z</time></trkpt>
        <trkpt lat="29.565315" lon="103.430412"><ele>628.3594</ele><time>2026-07-20T21:14:23.000Z</time></trkpt>
        <trkpt lat="29.565315" lon="103.430397"><ele>628.9555</ele><time>2026-07-20T21:14:25.000Z</time></trkpt>
        <trkpt lat="29.565317" lon="103.430388"><ele>629.49585</ele><time>2026-07-20T21:14:27.000Z</time></trkpt>
        <trkpt lat="29.56532" lon="103.430374"><ele>630.46747</ele><time>2026-07-20T21:14:29.000Z</time></trkpt>
        <trkpt lat="29.565323" lon="103.430358"><ele>630.4727</ele><time>2026-07-20T21:14:31.000Z</time></trkpt>
        <trkpt lat="29.565326" lon="103.430337"><ele>630.90466</ele><time>2026-07-20T21:14:33.000Z</time></trkpt>
        <trkpt lat="29.565326" lon="103.430312"><ele>630.9972</ele><time>2026-07-20T21:14:35.000Z</time></trkpt>
        <trkpt lat="29.565326" lon="103.430287"><ele>631.2785</ele><time>2026-07-20T21:14:37.000Z</time></trkpt>
        <trkpt lat="29.565325" lon="103.430261"><ele>631.2114</ele><time>2026-07-20T21:14:39.000Z</time></trkpt>
        <trkpt lat="29.565323" lon="103.430233"><ele>630.28894</ele><time>2026-07-20T21:14:41.000Z</time></trkpt>
        <trkpt lat="29.56532" lon="103.430204"><ele>629.6323</ele><time>2026-07-20T21:14:43.000Z</time></trkpt>
        <trkpt lat="29.565316" lon="103.430179"><ele>629.87787</ele><time>2026-07-20T21:14:45.000Z</time></trkpt>
        <trkpt lat="29.565312" lon="103.430156"><ele>630.06165</ele><time>2026-07-20T21:14:47.000Z</time></trkpt>
        <trkpt lat="29.56531" lon="103.430133"><ele>630.6495</ele><time>2026-07-20T21:14:49.000Z</time></trkpt>
        <trkpt lat="29.565308" lon="103.430112"><ele>631.0646</ele><time>2026-07-20T21:14:51.000Z</time></trkpt>
        <trkpt lat="29.565306" lon="103.430087"><ele>631.2563</ele><time>2026-07-20T21:14:53.000Z</time></trkpt>
        <trkpt lat="29.565303" lon="103.430063"><ele>631.1155</ele><time>2026-07-20T21:14:55.000Z</time></trkpt>
        <trkpt lat="29.5653" lon="103.43004"><ele>631.61566</ele><time>2026-07-20T21:14:57.000Z</time></trkpt>
        <trkpt lat="29.565297" lon="103.430021"><ele>632.3608</ele><time>2026-07-20T21:14:59.000Z</time></trkpt>
        <trkpt lat="29.565293" lon="103.430001"><ele>632.8213</ele><time>2026-07-20T21:15:01.000Z</time></trkpt>
        <trkpt lat="29.565288" lon="103.429981"><ele>632.7499</ele><time>2026-07-20T21:15:03.000Z</time></trkpt>
        <trkpt lat="29.565281" lon="103.429962"><ele>632.8925</ele><time>2026-07-20T21:15:05.000Z</time></trkpt>
        <trkpt lat="29.56527" lon="103.429941"><ele>633.85455</ele><time>2026-07-20T21:15:07.000Z</time></trkpt>
        <trkpt lat="29.565258" lon="103.429918"><ele>635.4324</ele><time>2026-07-20T21:15:09.000Z</time></trkpt>
        <trkpt lat="29.565247" lon="103.429896"><ele>635.4122</ele><time>2026-07-20T21:15:11.000Z</time></trkpt>
        <trkpt lat="29.565236" lon="103.429876"><ele>635.1214</ele><time>2026-07-20T21:15:13.000Z</time></trkpt>
        <trkpt lat="29.565225" lon="103.429852"><ele>635.28784</ele><time>2026-07-20T21:15:15.000Z</time></trkpt>
        <trkpt lat="29.565217" lon="103.429829"><ele>635.13434</ele><time>2026-07-20T21:15:17.000Z</time></trkpt>
        <trkpt lat="29.565209" lon="103.429807"><ele>634.443</ele><time>2026-07-20T21:15:19.000Z</time></trkpt>
        <trkpt lat="29.565201" lon="103.429786"><ele>634.4444</ele><time>2026-07-20T21:15:21.000Z</time></trkpt>
        <trkpt lat="29.565193" lon="103.429761"><ele>634.097</ele><time>2026-07-20T21:15:23.000Z</time></trkpt>
        <trkpt lat="29.565186" lon="103.429738"><ele>634.76373</ele><time>2026-07-20T21:15:25.000Z</time></trkpt>
        <trkpt lat="29.565178" lon="103.429716"><ele>635.4871</ele><time>2026-07-20T21:15:27.000Z</time></trkpt>
        <trkpt lat="29.56517" lon="103.429691"><ele>635.4242</ele><time>2026-07-20T21:15:29.000Z</time></trkpt>
        <trkpt lat="29.56516" lon="103.429666"><ele>635.67303</ele><time>2026-07-20T21:15:31.000Z</time></trkpt>
        <trkpt lat="29.565148" lon="103.429644"><ele>635.7012</ele><time>2026-07-20T21:15:33.000Z</time></trkpt>
        <trkpt lat="29.565137" lon="103.429625"><ele>636.16437</ele><time>2026-07-20T21:15:35.000Z</time></trkpt>
        <trkpt lat="29.565125" lon="103.429607"><ele>636.3942</ele><time>2026-07-20T21:15:37.000Z</time></trkpt>
        <trkpt lat="29.565113" lon="103.429589"><ele>637.0082</ele><time>2026-07-20T21:15:39.000Z</time></trkpt>
        <trkpt lat="29.5651" lon="103.42957"><ele>637.50696</ele><time>2026-07-20T21:15:41.000Z</time></trkpt>
        <trkpt lat="29.565088" lon="103.429548"><ele>637.47174</ele><time>2026-07-20T21:15:43.000Z</time></trkpt>
        <trkpt lat="29.565076" lon="103.429526"><ele>637.3632</ele><time>2026-07-20T21:15:45.000Z</time></trkpt>
        <trkpt lat="29.565064" lon="103.429503"><ele>637.12384</ele><time>2026-07-20T21:15:47.000Z</time></trkpt>
        <trkpt lat="29.56505" lon="103.429479"><ele>636.9184</ele><time>2026-07-20T21:15:49.000Z</time></trkpt>
        <trkpt lat="29.565035" lon="103.429454"><ele>637.30475</ele><time>2026-07-20T21:15:51.000Z</time></trkpt>
        <trkpt lat="29.565022" lon="103.429431"><ele>636.76465</ele><time>2026-07-20T21:15:53.000Z</time></trkpt>
        <trkpt lat="29.565011" lon="103.42941"><ele>636.7783</ele><time>2026-07-20T21:15:55.000Z</time></trkpt>
        <trkpt lat="29.565003" lon="103.429389"><ele>636.199</ele><time>2026-07-20T21:15:57.000Z</time></trkpt>
        <trkpt lat="29.564998" lon="103.42937"><ele>635.4363</ele><time>2026-07-20T21:15:59.000Z</time></trkpt>
        <trkpt lat="29.564991" lon="103.429347"><ele>635.5251</ele><time>2026-07-20T21:16:01.000Z</time></trkpt>
        <trkpt lat="29.564986" lon="103.429324"><ele>635.5654</ele><time>2026-07-20T21:16:03.000Z</time></trkpt>
        <trkpt lat="29.564982" lon="103.429297"><ele>634.96234</ele><time>2026-07-20T21:16:05.000Z</time></trkpt>
        <trkpt lat="29.564979" lon="103.429266"><ele>634.8077</ele><time>2026-07-20T21:16:07.000Z</time></trkpt>
        <trkpt lat="29.564977" lon="103.429238"><ele>634.2615</ele><time>2026-07-20T21:16:09.000Z</time></trkpt>
        <trkpt lat="29.564974" lon="103.429206"><ele>633.4</ele><time>2026-07-20T21:16:11.000Z</time></trkpt>
        <trkpt lat="29.564971" lon="103.42918"><ele>633.5399</ele><time>2026-07-20T21:16:13.000Z</time></trkpt>
        <trkpt lat="29.564966" lon="103.429158"><ele>634.2014</ele><time>2026-07-20T21:16:15.000Z</time></trkpt>
        <trkpt lat="29.564961" lon="103.429133"><ele>635.03375</ele><time>2026-07-20T21:16:17.000Z</time></trkpt>
        <trkpt lat="29.564957" lon="103.429108"><ele>635.936</ele><time>2026-07-20T21:16:19.000Z</time></trkpt>
        <trkpt lat="29.564953" lon="103.429081"><ele>636.6434</ele><time>2026-07-20T21:16:21.000Z</time></trkpt>
        <trkpt lat="29.564949" lon="103.429056"><ele>636.91315</ele><time>2026-07-20T21:16:23.000Z</time></trkpt>
        <trkpt lat="29.564944" lon="103.429031"><ele>637.7116</ele><time>2026-07-20T21:16:25.000Z</time></trkpt>
        <trkpt lat="29.564938" lon="103.429005"><ele>638.31903</ele><time>2026-07-20T21:16:27.000Z</time></trkpt>
        <trkpt lat="29.564931" lon="103.428979"><ele>638.6347</ele><time>2026-07-20T21:16:29.000Z</time></trkpt>
        <trkpt lat="29.564923" lon="103.428955"><ele>639.814</ele><time>2026-07-20T21:16:31.000Z</time></trkpt>
        <trkpt lat="29.564915" lon="103.428931"><ele>640.8358</ele><time>2026-07-20T21:16:33.000Z</time></trkpt>
        <trkpt lat="29.564906" lon="103.428905"><ele>640.8913</ele><time>2026-07-20T21:16:35.000Z</time></trkpt>
        <trkpt lat="29.564897" lon="103.428875"><ele>640.5887</ele><time>2026-07-20T21:16:37.000Z</time></trkpt>
        <trkpt lat="29.564888" lon="103.428841"><ele>640.25775</ele><time>2026-07-20T21:16:39.000Z</time></trkpt>
        <trkpt lat="29.564882" lon="103.428806"><ele>640.04004</ele><time>2026-07-20T21:16:41.000Z</time></trkpt>
        <trkpt lat="29.564877" lon="103.428773"><ele>638.69684</ele><time>2026-07-20T21:16:43.000Z</time></trkpt>
        <trkpt lat="29.564874" lon="103.428738"><ele>637.6074</ele><time>2026-07-20T21:16:45.000Z</time></trkpt>
        <trkpt lat="29.564873" lon="103.428702"><ele>637.07587</ele><time>2026-07-20T21:16:47.000Z</time></trkpt>
        <trkpt lat="29.564871" lon="103.42867"><ele>636.55133</ele><time>2026-07-20T21:16:49.000Z</time></trkpt>
        <trkpt lat="29.564869" lon="103.428638"><ele>635.97736</ele><time>2026-07-20T21:16:51.000Z</time></trkpt>
        <trkpt lat="29.564867" lon="103.428608"><ele>636.61786</ele><time>2026-07-20T21:16:53.000Z</time></trkpt>
        <trkpt lat="29.564865" lon="103.428578"><ele>637.23663</ele><time>2026-07-20T21:16:55.000Z</time></trkpt>
        <trkpt lat="29.564864" lon="103.428549"><ele>637.6792</ele><time>2026-07-20T21:16:57.000Z</time></trkpt>
        <trkpt lat="29.564865" lon="103.428522"><ele>638.8307</ele><time>2026-07-20T21:16:59.000Z</time></trkpt>
        <trkpt lat="29.564868" lon="103.428498"><ele>640.3477</ele><time>2026-07-20T21:17:01.000Z</time></trkpt>
        <trkpt lat="29.564875" lon="103.42848"><ele>641.35034</ele><time>2026-07-20T21:17:03.000Z</time></trkpt>
        <trkpt lat="29.564885" lon="103.428465"><ele>641.6441</ele><time>2026-07-20T21:17:05.000Z</time></trkpt>
        <trkpt lat="29.564898" lon="103.428452"><ele>642.824</ele><time>2026-07-20T21:17:07.000Z</time></trkpt>
        <trkpt lat="29.564914" lon="103.428443"><ele>643.5651</ele><time>2026-07-20T21:17:09.000Z</time></trkpt>
        <trkpt lat="29.564932" lon="103.428435"><ele>644.415</ele><time>2026-07-20T21:17:11.000Z</time></trkpt>
        <trkpt lat="29.564952" lon="103.428426"><ele>646.1044</ele><time>2026-07-20T21:17:13.000Z</time></trkpt>
        <trkpt lat="29.564972" lon="103.428418"><ele>647.37</ele><time>2026-07-20T21:17:15.000Z</time></trkpt>
        <trkpt lat="29.564995" lon="103.428411"><ele>649.3156</ele><time>2026-07-20T21:17:17.000Z</time></trkpt>
        <trkpt lat="29.565017" lon="103.428406"><ele>650.7873</ele><time>2026-07-20T21:17:19.000Z</time></trkpt>
        <trkpt lat="29.565039" lon="103.4284"><ele>652.36847</ele><time>2026-07-20T21:17:21.000Z</time></trkpt>
        <trkpt lat="29.565061" lon="103.428392"><ele>653.6256</ele><time>2026-07-20T21:17:23.000Z</time></trkpt>
        <trkpt lat="29.565082" lon="103.428385"><ele>655.17804</ele><time>2026-07-20T21:17:25.000Z</time></trkpt>
        <trkpt lat="29.565102" lon="103.428377"><ele>656.41095</ele><time>2026-07-20T21:17:27.000Z</time></trkpt>
        <trkpt lat="29.565121" lon="103.42837"><ele>657.8879</ele><time>2026-07-20T21:17:29.000Z</time></trkpt>
        <trkpt lat="29.565137" lon="103.42836"><ele>659.498</ele><time>2026-07-20T21:17:31.000Z</time></trkpt>
        <trkpt lat="29.565153" lon="103.428349"><ele>660.3942</ele><time>2026-07-20T21:17:33.000Z</time></trkpt>
        <trkpt lat="29.565169" lon="103.428336"><ele>661.82306</ele><time>2026-07-20T21:17:35.000Z</time></trkpt>
        <trkpt lat="29.565185" lon="103.428321"><ele>662.9858</ele><time>2026-07-20T21:17:37.000Z</time></trkpt>
        <trkpt lat="29.5652" lon="103.428306"><ele>663.89923</ele><time>2026-07-20T21:17:39.000Z</time></trkpt>
        <trkpt lat="29.565216" lon="103.428295"><ele>665.8879</ele><time>2026-07-20T21:17:41.000Z</time></trkpt>
        <trkpt lat="29.56523" lon="103.428282"><ele>666.4597</ele><time>2026-07-20T21:17:43.000Z</time></trkpt>
        <trkpt lat="29.565247" lon="103.428267"><ele>666.95776</ele><time>2026-07-20T21:17:45.000Z</time></trkpt>
        <trkpt lat="29.565264" lon="103.428253"><ele>667.811</ele><time>2026-07-20T21:17:47.000Z</time></trkpt>
        <trkpt lat="29.565282" lon="103.42824"><ele>668.5708</ele><time>2026-07-20T21:17:49.000Z</time></trkpt>
        <trkpt lat="29.565298" lon="103.428226"><ele>669.51337</ele><time>2026-07-20T21:17:51.000Z</time></trkpt>
        <trkpt lat="29.565312" lon="103.428211"><ele>669.84283</ele><time>2026-07-20T21:17:53.000Z</time></trkpt>
        <trkpt lat="29.565325" lon="103.428194"><ele>670.1165</ele><time>2026-07-20T21:17:55.000Z</time></trkpt>
        <trkpt lat="29.565336" lon="103.428172"><ele>669.9133</ele><time>2026-07-20T21:17:57.000Z</time></trkpt>
        <trkpt lat="29.565349" lon="103.428147"><ele>669.86395</ele><time>2026-07-20T21:17:59.000Z</time></trkpt>
        <trkpt lat="29.565363" lon="103.428119"><ele>669.99084</ele><time>2026-07-20T21:18:01.000Z</time></trkpt>
        <trkpt lat="29.565378" lon="103.42809"><ele>670.2506</ele><time>2026-07-20T21:18:03.000Z</time></trkpt>
        <trkpt lat="29.565394" lon="103.428061"><ele>670.1441</ele><time>2026-07-20T21:18:05.000Z</time></trkpt>
        <trkpt lat="29.565409" lon="103.428032"><ele>670.68445</ele><time>2026-07-20T21:18:07.000Z</time></trkpt>
        <trkpt lat="29.565422" lon="103.428002"><ele>670.84467</ele><time>2026-07-20T21:18:09.000Z</time></trkpt>
        <trkpt lat="29.565432" lon="103.42797"><ele>670.79126</ele><time>2026-07-20T21:18:11.000Z</time></trkpt>
        <trkpt lat="29.565436" lon="103.427942"><ele>671.45386</ele><time>2026-07-20T21:18:13.000Z</time></trkpt>
        <trkpt lat="29.565438" lon="103.427907"><ele>671.0702</ele><time>2026-07-20T21:18:15.000Z</time></trkpt>
        <trkpt lat="29.565442" lon="103.427877"><ele>671.9194</ele><time>2026-07-20T21:18:17.000Z</time></trkpt>
        <trkpt lat="29.565443" lon="103.427849"><ele>671.2224</ele><time>2026-07-20T21:18:19.000Z</time></trkpt>
        <trkpt lat="29.565443" lon="103.427829"><ele>671.1609</ele><time>2026-07-20T21:18:21.000Z</time></trkpt>
        <trkpt lat="29.565441" lon="103.427806"><ele>670.8118</ele><time>2026-07-20T21:18:23.000Z</time></trkpt>
        <trkpt lat="29.565437" lon="103.427783"><ele>670.74567</ele><time>2026-07-20T21:18:25.000Z</time></trkpt>
        <trkpt lat="29.565432" lon="103.427755"><ele>670.6535</ele><time>2026-07-20T21:18:27.000Z</time></trkpt>
        <trkpt lat="29.565429" lon="103.427728"><ele>670.2428</ele><time>2026-07-20T21:18:29.000Z</time></trkpt>
        <trkpt lat="29.565427" lon="103.427701"><ele>670.45355</ele><time>2026-07-20T21:18:31.000Z</time></trkpt>
        <trkpt lat="29.565427" lon="103.427673"><ele>670.7109</ele><time>2026-07-20T21:18:33.000Z</time></trkpt>
        <trkpt lat="29.565428" lon="103.427648"><ele>671.29565</ele><time>2026-07-20T21:18:35.000Z</time></trkpt>
        <trkpt lat="29.565428" lon="103.427622"><ele>672.2614</ele><time>2026-07-20T21:18:37.000Z</time></trkpt>
        <trkpt lat="29.565427" lon="103.427593"><ele>671.92236</ele><time>2026-07-20T21:18:39.000Z</time></trkpt>
        <trkpt lat="29.565426" lon="103.427563"><ele>671.9531</ele><time>2026-07-20T21:18:41.000Z</time></trkpt>
        <trkpt lat="29.565422" lon="103.427532"><ele>672.5717</ele><time>2026-07-20T21:18:43.000Z</time></trkpt>
        <trkpt lat="29.565417" lon="103.427506"><ele>673.67114</ele><time>2026-07-20T21:18:45.000Z</time></trkpt>
        <trkpt lat="29.56541" lon="103.427479"><ele>674.1691</ele><time>2026-07-20T21:18:47.000Z</time></trkpt>
        <trkpt lat="29.565405" lon="103.42745"><ele>675.6017</ele><time>2026-07-20T21:18:49.000Z</time></trkpt>
        <trkpt lat="29.565405" lon="103.427426"><ele>675.86743</ele><time>2026-07-20T21:18:51.000Z</time></trkpt>
        <trkpt lat="29.565408" lon="103.427403"><ele>676.9033</ele><time>2026-07-20T21:18:53.000Z</time></trkpt>
        <trkpt lat="29.565413" lon="103.427376"><ele>677.9759</ele><time>2026-07-20T21:18:55.000Z</time></trkpt>
        <trkpt lat="29.565411" lon="103.42735"><ele>678.8119</ele><time>2026-07-20T21:18:57.000Z</time></trkpt>
        <trkpt lat="29.565405" lon="103.427321"><ele>679.669</ele><time>2026-07-20T21:18:59.000Z</time></trkpt>
        <trkpt lat="29.565395" lon="103.42729"><ele>680.4485</ele><time>2026-07-20T21:19:01.000Z</time></trkpt>
        <trkpt lat="29.565389" lon="103.427259"><ele>681.0988</ele><time>2026-07-20T21:19:03.000Z</time></trkpt>
        <trkpt lat="29.565391" lon="103.427236"><ele>680.89465</ele><time>2026-07-20T21:19:05.000Z</time></trkpt>
        <trkpt lat="29.565396" lon="103.427211"><ele>681.0246</ele><time>2026-07-20T21:19:07.000Z</time></trkpt>
        <trkpt lat="29.5654" lon="103.427185"><ele>681.1313</ele><time>2026-07-20T21:19:09.000Z</time></trkpt>
        <trkpt lat="29.565404" lon="103.427161"><ele>682.51166</ele><time>2026-07-20T21:19:11.000Z</time></trkpt>
        <trkpt lat="29.565398" lon="103.427148"><ele>682.74817</ele><time>2026-07-20T21:19:13.000Z</time></trkpt>
        <trkpt lat="29.565383" lon="103.427128"><ele>683.5955</ele><time>2026-07-20T21:19:15.000Z</time></trkpt>
        <trkpt lat="29.56536" lon="103.427108"><ele>683.34314</ele><time>2026-07-20T21:19:17.000Z</time></trkpt>
        <trkpt lat="29.565333" lon="103.42709"><ele>682.3499</ele><time>2026-07-20T21:19:19.000Z</time></trkpt>
        <trkpt lat="29.565303" lon="103.427075"><ele>680.6466</ele><time>2026-07-20T21:19:21.000Z</time></trkpt>
        <trkpt lat="29.565275" lon="103.427066"><ele>678.888</ele><time>2026-07-20T21:19:23.000Z</time></trkpt>
        <trkpt lat="29.565253" lon="103.427061"><ele>678.39417</ele><time>2026-07-20T21:19:25.000Z</time></trkpt>
        <trkpt lat="29.565232" lon="103.427054"><ele>678.42883</ele><time>2026-07-20T21:19:27.000Z</time></trkpt>
        <trkpt lat="29.565216" lon="103.42705"><ele>677.90265</ele><time>2026-07-20T21:19:29.000Z</time></trkpt>
        <trkpt lat="29.565204" lon="103.427049"><ele>677.51733</ele><time>2026-07-20T21:19:31.000Z</time></trkpt>
        <trkpt lat="29.565203" lon="103.427051"><ele>676.0412</ele><time>2026-07-20T21:19:33.000Z</time></trkpt>
        <trkpt lat="29.5652" lon="103.427082"><ele>673.0762</ele><time>2026-07-20T21:19:53.000Z</time></trkpt>
        <trkpt lat="29.565201" lon="103.427096"><ele>673.1225</ele><time>2026-07-20T21:20:14.000Z</time></trkpt>
        <trkpt lat="29.565206" lon="103.427115"><ele>672.6446</ele><time>2026-07-20T21:20:30.000Z</time></trkpt>
        <trkpt lat="29.565205" lon="103.427126"><ele>670.92456</ele><time>2026-07-20T21:21:06.000Z</time></trkpt>
        <trkpt lat="29.565213" lon="103.427137"><ele>670.82715</ele><time>2026-07-20T21:21:18.000Z</time></trkpt>
        <trkpt lat="29.565219" lon="103.427154"><ele>672.0034</ele><time>2026-07-20T21:23:08.000Z</time></trkpt>
        <trkpt lat="29.565195" lon="103.427083"><ele>669.3076</ele><time>2026-07-20T21:23:28.000Z</time></trkpt>
        <trkpt lat="29.565186" lon="103.427054"><ele>668.1696</ele><time>2026-07-20T21:23:30.000Z</time></trkpt>
        <trkpt lat="29.565184" lon="103.427053"><ele>668.5236</ele><time>2026-07-20T21:23:32.000Z</time></trkpt>
        <trkpt lat="29.565169" lon="103.427035"><ele>667.597</ele><time>2026-07-20T21:23:36.000Z</time></trkpt>
        <trkpt lat="29.565146" lon="103.427012"><ele>668.12164</ele><time>2026-07-20T21:23:38.000Z</time></trkpt>
        <trkpt lat="29.565117" lon="103.426987"><ele>668.891</ele><time>2026-07-20T21:23:40.000Z</time></trkpt>
        <trkpt lat="29.565093" lon="103.426969"><ele>668.333</ele><time>2026-07-20T21:23:42.000Z</time></trkpt>
        <trkpt lat="29.565072" lon="103.426955"><ele>668.53546</ele><time>2026-07-20T21:23:44.000Z</time></trkpt>
        <trkpt lat="29.56505" lon="103.42694"><ele>668.82697</ele><time>2026-07-20T21:23:46.000Z</time></trkpt>
        <trkpt lat="29.565032" lon="103.426926"><ele>668.80646</ele><time>2026-07-20T21:23:48.000Z</time></trkpt>
        <trkpt lat="29.565016" lon="103.426913"><ele>668.8767</ele><time>2026-07-20T21:23:50.000Z</time></trkpt>
        <trkpt lat="29.565001" lon="103.4269"><ele>668.95215</ele><time>2026-07-20T21:23:52.000Z</time></trkpt>
        <trkpt lat="29.564991" lon="103.426887"><ele>668.52094</ele><time>2026-07-20T21:23:54.000Z</time></trkpt>
        <trkpt lat="29.564984" lon="103.426873"><ele>667.8139</ele><time>2026-07-20T21:23:56.000Z</time></trkpt>
        <trkpt lat="29.564976" lon="103.426852"><ele>665.86884</ele><time>2026-07-20T21:23:58.000Z</time></trkpt>
        <trkpt lat="29.564973" lon="103.426833"><ele>664.4108</ele><time>2026-07-20T21:24:00.000Z</time></trkpt>
        <trkpt lat="29.56497" lon="103.42681"><ele>662.7289</ele><time>2026-07-20T21:24:02.000Z</time></trkpt>
        <trkpt lat="29.564967" lon="103.426778"><ele>661.9209</ele><time>2026-07-20T21:24:04.000Z</time></trkpt>
        <trkpt lat="29.564967" lon="103.426752"><ele>660.5172</ele><time>2026-07-20T21:24:06.000Z</time></trkpt>
        <trkpt lat="29.564968" lon="103.426732"><ele>660.7201</ele><time>2026-07-20T21:24:08.000Z</time></trkpt>
        <trkpt lat="29.56497" lon="103.426719"><ele>660.5637</ele><time>2026-07-20T21:24:10.000Z</time></trkpt>
        <trkpt lat="29.564973" lon="103.426712"><ele>660.40826</ele><time>2026-07-20T21:24:12.000Z</time></trkpt>
        <trkpt lat="29.564978" lon="103.426703"><ele>659.69806</ele><time>2026-07-20T21:24:20.000Z</time></trkpt>
        <trkpt lat="29.564987" lon="103.426687"><ele>659.93097</ele><time>2026-07-20T21:24:22.000Z</time></trkpt>
        <trkpt lat="29.564988" lon="103.426686"><ele>660.5762</ele><time>2026-07-20T21:24:24.000Z</time></trkpt>
        <trkpt lat="29.565001" lon="103.426683"><ele>660.8307</ele><time>2026-07-20T21:24:28.000Z</time></trkpt>
        <trkpt lat="29.565014" lon="103.426674"><ele>661.7098</ele><time>2026-07-20T21:24:32.000Z</time></trkpt>
        <trkpt lat="29.565019" lon="103.426666"><ele>662.66327</ele><time>2026-07-20T21:24:34.000Z</time></trkpt>
        <trkpt lat="29.565039" lon="103.426629"><ele>665.88385</ele><time>2026-07-20T21:24:40.000Z</time></trkpt>
        <trkpt lat="29.565039" lon="103.426629"><ele>666.7265</ele><time>2026-07-20T21:24:42.000Z</time></trkpt>
        <trkpt lat="29.565039" lon="103.426629"><ele>667.28864</ele><time>2026-07-20T21:24:44.000Z</time></trkpt>
        <trkpt lat="29.565048" lon="103.42657"><ele>667.29425</ele><time>2026-07-20T21:24:52.000Z</time></trkpt>
        <trkpt lat="29.565048" lon="103.42657"><ele>668.84534</ele><time>2026-07-20T21:24:54.000Z</time></trkpt>
        <trkpt lat="29.565048" lon="103.42657"><ele>670.2662</ele><time>2026-07-20T21:24:56.000Z</time></trkpt>
        <trkpt lat="29.565053" lon="103.426531"><ele>671.6071</ele><time>2026-07-20T21:25:04.000Z</time></trkpt>
        <trkpt lat="29.565057" lon="103.426504"><ele>671.99133</ele><time>2026-07-20T21:25:06.000Z</time></trkpt>
        <trkpt lat="29.565057" lon="103.426502"><ele>672.8757</ele><time>2026-07-20T21:25:08.000Z</time></trkpt>
        <trkpt lat="29.565059" lon="103.426491"><ele>673.9478</ele><time>2026-07-20T21:25:12.000Z</time></trkpt>
        <trkpt lat="29.565067" lon="103.426459"><ele>674.78436</ele><time>2026-07-20T21:25:16.000Z</time></trkpt>
        <trkpt lat="29.56507" lon="103.426447"><ele>675.8232</ele><time>2026-07-20T21:25:18.000Z</time></trkpt>
        <trkpt lat="29.565076" lon="103.426437"><ele>675.97375</ele><time>2026-07-20T21:25:20.000Z</time></trkpt>
        <trkpt lat="29.565079" lon="103.426429"><ele>676.8233</ele><time>2026-07-20T21:25:22.000Z</time></trkpt>
        <trkpt lat="29.565091" lon="103.426398"><ele>677.4452</ele><time>2026-07-20T21:25:30.000Z</time></trkpt>
        <trkpt lat="29.565091" lon="103.426398"><ele>676.83777</ele><time>2026-07-20T21:25:32.000Z</time></trkpt>
        <trkpt lat="29.565091" lon="103.426397"><ele>676.33606</ele><time>2026-07-20T21:25:34.000Z</time></trkpt>
        <trkpt lat="29.565098" lon="103.426361"><ele>674.68463</ele><time>2026-07-20T21:25:42.000Z</time></trkpt>
        <trkpt lat="29.565101" lon="103.426345"><ele>673.6903</ele><time>2026-07-20T21:25:44.000Z</time></trkpt>
        <trkpt lat="29.565101" lon="103.426344"><ele>672.6579</ele><time>2026-07-20T21:25:46.000Z</time></trkpt>
        <trkpt lat="29.565097" lon="103.426324"><ele>671.96497</ele><time>2026-07-20T21:25:54.000Z</time></trkpt>
        <trkpt lat="29.565096" lon="103.42631"><ele>671.69855</ele><time>2026-07-20T21:25:58.000Z</time></trkpt>
        <trkpt lat="29.5651" lon="103.426305"><ele>672.4756</ele><time>2026-07-20T21:26:00.000Z</time></trkpt>
        <trkpt lat="29.565109" lon="103.426291"><ele>673.5246</ele><time>2026-07-20T21:26:08.000Z</time></trkpt>
        <trkpt lat="29.565116" lon="103.42628"><ele>674.0362</ele><time>2026-07-20T21:26:14.000Z</time></trkpt>
        <trkpt lat="29.56512" lon="103.426276"><ele>673.73425</ele><time>2026-07-20T21:26:16.000Z</time></trkpt>
        <trkpt lat="29.565127" lon="103.426265"><ele>674.2345</ele><time>2026-07-20T21:26:20.000Z</time></trkpt>
        <trkpt lat="29.565134" lon="103.426253"><ele>677.126</ele><time>2026-07-20T21:26:28.000Z</time></trkpt>
        <trkpt lat="29.565135" lon="103.426248"><ele>677.5386</ele><time>2026-07-20T21:26:30.000Z</time></trkpt>
        <trkpt lat="29.565141" lon="103.426237"><ele>678.4199</ele><time>2026-07-20T21:26:34.000Z</time></trkpt>
        <trkpt lat="29.565147" lon="103.426225"><ele>680.15027</ele><time>2026-07-20T21:26:38.000Z</time></trkpt>
        <trkpt lat="29.565155" lon="103.426212"><ele>680.6108</ele><time>2026-07-20T21:26:40.000Z</time></trkpt>
        <trkpt lat="29.565156" lon="103.426211"><ele>682.12573</ele><time>2026-07-20T21:26:42.000Z</time></trkpt>
        <trkpt lat="29.565163" lon="103.426195"><ele>685.935</ele><time>2026-07-20T21:26:56.000Z</time></trkpt>
        <trkpt lat="29.565176" lon="103.426164"><ele>685.0059</ele><time>2026-07-20T21:27:00.000Z</time></trkpt>
        <trkpt lat="29.565176" lon="103.426164"><ele>684.46814</ele><time>2026-07-20T21:27:02.000Z</time></trkpt>
        <trkpt lat="29.565176" lon="103.426162"><ele>683.6358</ele><time>2026-07-20T21:27:04.000Z</time></trkpt>
        <trkpt lat="29.565168" lon="103.426127"><ele>684.4436</ele><time>2026-07-20T21:27:08.000Z</time></trkpt>
        <trkpt lat="29.565164" lon="103.426103"><ele>684.37396</ele><time>2026-07-20T21:27:10.000Z</time></trkpt>
        <trkpt lat="29.565161" lon="103.426087"><ele>684.4405</ele><time>2026-07-20T21:27:12.000Z</time></trkpt>
        <trkpt lat="29.56516" lon="103.426071"><ele>683.6304</ele><time>2026-07-20T21:27:14.000Z</time></trkpt>
        <trkpt lat="29.565162" lon="103.426067"><ele>684.59686</ele><time>2026-07-20T21:27:16.000Z</time></trkpt>
        <trkpt lat="29.565165" lon="103.426049"><ele>686.8454</ele><time>2026-07-20T21:27:28.000Z</time></trkpt>
        <trkpt lat="29.565168" lon="103.426032"><ele>686.6424</ele><time>2026-07-20T21:27:32.000Z</time></trkpt>
        <trkpt lat="29.565172" lon="103.426013"><ele>687.2866</ele><time>2026-07-20T21:27:34.000Z</time></trkpt>
        <trkpt lat="29.565172" lon="103.426011"><ele>687.0024</ele><time>2026-07-20T21:27:36.000Z</time></trkpt>
        <trkpt lat="29.565174" lon="103.425986"><ele>687.6094</ele><time>2026-07-20T21:27:42.000Z</time></trkpt>
        <trkpt lat="29.565175" lon="103.42597"><ele>688.6829</ele><time>2026-07-20T21:27:44.000Z</time></trkpt>
        <trkpt lat="29.565179" lon="103.425954"><ele>687.5106</ele><time>2026-07-20T21:27:46.000Z</time></trkpt>
        <trkpt lat="29.565183" lon="103.425943"><ele>687.2623</ele><time>2026-07-20T21:27:48.000Z</time></trkpt>
        <trkpt lat="29.565181" lon="103.425936"><ele>687.5245</ele><time>2026-07-20T21:27:50.000Z</time></trkpt>
        <trkpt lat="29.565175" lon="103.425915"><ele>688.0768</ele><time>2026-07-20T21:28:16.000Z</time></trkpt>
        <trkpt lat="29.565175" lon="103.425906"><ele>688.0445</ele><time>2026-07-20T21:28:18.000Z</time></trkpt>
        <trkpt lat="29.565176" lon="103.425898"><ele>688.0671</ele><time>2026-07-20T21:28:20.000Z</time></trkpt>
        <trkpt lat="29.56518" lon="103.425881"><ele>688.57605</ele><time>2026-07-20T21:28:24.000Z</time></trkpt>
        <trkpt lat="29.565182" lon="103.425876"><ele>689.69476</ele><time>2026-07-20T21:28:26.000Z</time></trkpt>
        <trkpt lat="29.565186" lon="103.425868"><ele>689.4195</ele><time>2026-07-20T21:28:28.000Z</time></trkpt>
        <trkpt lat="29.565189" lon="103.425854"><ele>690.1421</ele><time>2026-07-20T21:28:32.000Z</time></trkpt>
        <trkpt lat="29.565193" lon="103.425835"><ele>689.87103</ele><time>2026-07-20T21:28:34.000Z</time></trkpt>
        <trkpt lat="29.565194" lon="103.425835"><ele>689.73914</ele><time>2026-07-20T21:28:36.000Z</time></trkpt>
        <trkpt lat="29.565206" lon="103.425824"><ele>690.5478</ele><time>2026-07-20T21:28:42.000Z</time></trkpt>
        <trkpt lat="29.565222" lon="103.42581"><ele>691.55206</ele><time>2026-07-20T21:28:44.000Z</time></trkpt>
        <trkpt lat="29.565223" lon="103.425809"><ele>692.27435</ele><time>2026-07-20T21:28:46.000Z</time></trkpt>
        <trkpt lat="29.565225" lon="103.425797"><ele>692.97906</ele><time>2026-07-20T21:28:50.000Z</time></trkpt>
        <trkpt lat="29.565228" lon="103.425765"><ele>694.5537</ele><time>2026-07-20T21:28:54.000Z</time></trkpt>
        <trkpt lat="29.565229" lon="103.425755"><ele>695.7768</ele><time>2026-07-20T21:28:56.000Z</time></trkpt>
        <trkpt lat="29.565229" lon="103.425748"><ele>695.8759</ele><time>2026-07-20T21:28:58.000Z</time></trkpt>
        <trkpt lat="29.565227" lon="103.425732"><ele>696.305</ele><time>2026-07-20T21:29:08.000Z</time></trkpt>
        <trkpt lat="29.565224" lon="103.425724"><ele>696.3084</ele><time>2026-07-20T21:29:10.000Z</time></trkpt>
        <trkpt lat="29.565215" lon="103.425702"><ele>696.2741</ele><time>2026-07-20T21:29:12.000Z</time></trkpt>
        <trkpt lat="29.565214" lon="103.4257"><ele>696.3361</ele><time>2026-07-20T21:29:14.000Z</time></trkpt>
        <trkpt lat="29.565209" lon="103.425688"><ele>696.9832</ele><time>2026-07-20T21:29:18.000Z</time></trkpt>
        <trkpt lat="29.5652" lon="103.425672"><ele>697.8305</ele><time>2026-07-20T21:29:20.000Z</time></trkpt>
        <trkpt lat="29.565185" lon="103.42565"><ele>697.52386</ele><time>2026-07-20T21:29:22.000Z</time></trkpt>
        <trkpt lat="29.565168" lon="103.425629"><ele>698.11993</ele><time>2026-07-20T21:29:24.000Z</time></trkpt>
        <trkpt lat="29.565152" lon="103.425611"><ele>697.6759</ele><time>2026-07-20T21:29:26.000Z</time></trkpt>
        <trkpt lat="29.56514" lon="103.425594"><ele>698.8193</ele><time>2026-07-20T21:29:28.000Z</time></trkpt>
        <trkpt lat="29.565128" lon="103.425579"><ele>699.2678</ele><time>2026-07-20T21:29:30.000Z</time></trkpt>
        <trkpt lat="29.565114" lon="103.425564"><ele>699.0927</ele><time>2026-07-20T21:29:32.000Z</time></trkpt>
        <trkpt lat="29.565099" lon="103.425551"><ele>698.9765</ele><time>2026-07-20T21:29:34.000Z</time></trkpt>
        <trkpt lat="29.565086" lon="103.425538"><ele>698.9118</ele><time>2026-07-20T21:29:36.000Z</time></trkpt>
        <trkpt lat="29.565075" lon="103.425525"><ele>699.27625</ele><time>2026-07-20T21:29:38.000Z</time></trkpt>
        <trkpt lat="29.565064" lon="103.42551"><ele>699.2608</ele><time>2026-07-20T21:29:40.000Z</time></trkpt>
        <trkpt lat="29.565054" lon="103.425492"><ele>699.719</ele><time>2026-07-20T21:29:42.000Z</time></trkpt>
        <trkpt lat="29.565047" lon="103.425479"><ele>700.55597</ele><time>2026-07-20T21:29:44.000Z</time></trkpt>
        <trkpt lat="29.565039" lon="103.425466"><ele>701.26874</ele><time>2026-07-20T21:29:46.000Z</time></trkpt>
        <trkpt lat="29.565031" lon="103.425452"><ele>702.2011</ele><time>2026-07-20T21:29:48.000Z</time></trkpt>
        <trkpt lat="29.565024" lon="103.42544"><ele>702.9388</ele><time>2026-07-20T21:29:50.000Z</time></trkpt>
        <trkpt lat="29.565019" lon="103.425428"><ele>703.7747</ele><time>2026-07-20T21:29:52.000Z</time></trkpt>
        <trkpt lat="29.565009" lon="103.425408"><ele>703.3267</ele><time>2026-07-20T21:29:54.000Z</time></trkpt>
        <trkpt lat="29.564999" lon="103.425389"><ele>702.7972</ele><time>2026-07-20T21:29:56.000Z</time></trkpt>
        <trkpt lat="29.564991" lon="103.425376"><ele>702.4797</ele><time>2026-07-20T21:29:58.000Z</time></trkpt>
        <trkpt lat="29.564981" lon="103.42536"><ele>702.54065</ele><time>2026-07-20T21:30:00.000Z</time></trkpt>
        <trkpt lat="29.56497" lon="103.425345"><ele>702.41614</ele><time>2026-07-20T21:30:02.000Z</time></trkpt>
        <trkpt lat="29.564956" lon="103.425328"><ele>702.4151</ele><time>2026-07-20T21:30:04.000Z</time></trkpt>
        <trkpt lat="29.564945" lon="103.425316"><ele>702.32684</ele><time>2026-07-20T21:30:06.000Z</time></trkpt>
        <trkpt lat="29.564935" lon="103.425306"><ele>701.655</ele><time>2026-07-20T21:30:08.000Z</time></trkpt>
        <trkpt lat="29.564923" lon="103.425295"><ele>701.1372</ele><time>2026-07-20T21:30:10.000Z</time></trkpt>
        <trkpt lat="29.564906" lon="103.425278"><ele>701.6495</ele><time>2026-07-20T21:30:12.000Z</time></trkpt>
        <trkpt lat="29.564889" lon="103.42526"><ele>701.8272</ele><time>2026-07-20T21:30:14.000Z</time></trkpt>
        <trkpt lat="29.564871" lon="103.425239"><ele>702.4804</ele><time>2026-07-20T21:30:16.000Z</time></trkpt>
        <trkpt lat="29.564857" lon="103.425219"><ele>702.9242</ele><time>2026-07-20T21:30:18.000Z</time></trkpt>
        <trkpt lat="29.564846" lon="103.425199"><ele>703.54456</ele><time>2026-07-20T21:30:20.000Z</time></trkpt>
        <trkpt lat="29.56484" lon="103.425184"><ele>704.31464</ele><time>2026-07-20T21:30:22.000Z</time></trkpt>
        <trkpt lat="29.564833" lon="103.425171"><ele>705.22626</ele><time>2026-07-20T21:30:24.000Z</time></trkpt>
        <trkpt lat="29.564828" lon="103.425159"><ele>706.09094</ele><time>2026-07-20T21:30:26.000Z</time></trkpt>
        <trkpt lat="29.564825" lon="103.425144"><ele>707.1979</ele><time>2026-07-20T21:30:30.000Z</time></trkpt>
        <trkpt lat="29.564823" lon="103.425129"><ele>708.61914</ele><time>2026-07-20T21:30:44.000Z</time></trkpt>
        <trkpt lat="29.564822" lon="103.425109"><ele>708.695</ele><time>2026-07-20T21:30:46.000Z</time></trkpt>
        <trkpt lat="29.56482" lon="103.42506"><ele>707.7982</ele><time>2026-07-20T21:30:50.000Z</time></trkpt>
        <trkpt lat="29.56482" lon="103.42506"><ele>708.2129</ele><time>2026-07-20T21:30:52.000Z</time></trkpt>
        <trkpt lat="29.56482" lon="103.425058"><ele>708.41254</ele><time>2026-07-20T21:30:54.000Z</time></trkpt>
        <trkpt lat="29.564822" lon="103.42502"><ele>707.73615</ele><time>2026-07-20T21:31:00.000Z</time></trkpt>
        <trkpt lat="29.564821" lon="103.425007"><ele>708.1124</ele><time>2026-07-20T21:31:02.000Z</time></trkpt>
        <trkpt lat="29.56482" lon="103.424996"><ele>708.50635</ele><time>2026-07-20T21:31:04.000Z</time></trkpt>
        <trkpt lat="29.564819" lon="103.424984"><ele>709.2496</ele><time>2026-07-20T21:31:06.000Z</time></trkpt>
        <trkpt lat="29.564816" lon="103.424975"><ele>710.08014</ele><time>2026-07-20T21:31:08.000Z</time></trkpt>
        <trkpt lat="29.564813" lon="103.424966"><ele>709.998</ele><time>2026-07-20T21:31:10.000Z</time></trkpt>
        <trkpt lat="29.564808" lon="103.424954"><ele>710.5251</ele><time>2026-07-20T21:31:12.000Z</time></trkpt>
        <trkpt lat="29.564803" lon="103.424941"><ele>710.68396</ele><time>2026-07-20T21:31:14.000Z</time></trkpt>
        <trkpt lat="29.564798" lon="103.424927"><ele>710.97644</ele><time>2026-07-20T21:31:16.000Z</time></trkpt>
        <trkpt lat="29.564792" lon="103.424917"><ele>711.7033</ele><time>2026-07-20T21:31:18.000Z</time></trkpt>
        <trkpt lat="29.564787" lon="103.424908"><ele>711.8529</ele><time>2026-07-20T21:31:20.000Z</time></trkpt>
        <trkpt lat="29.564783" lon="103.4249"><ele>712.5908</ele><time>2026-07-20T21:31:22.000Z</time></trkpt>
        <trkpt lat="29.56478" lon="103.424893"><ele>712.86584</ele><time>2026-07-20T21:31:24.000Z</time></trkpt>
        <trkpt lat="29.56477" lon="103.424876"><ele>712.5835</ele><time>2026-07-20T21:31:26.000Z</time></trkpt>
        <trkpt lat="29.564769" lon="103.424873"><ele>713.2812</ele><time>2026-07-20T21:31:30.000Z</time></trkpt>
        <trkpt lat="29.56476" lon="103.424853"><ele>713.90625</ele><time>2026-07-20T21:31:34.000Z</time></trkpt>
        <trkpt lat="29.564758" lon="103.424841"><ele>714.11255</ele><time>2026-07-20T21:31:36.000Z</time></trkpt>
        <trkpt lat="29.564756" lon="103.424823"><ele>713.9813</ele><time>2026-07-20T21:31:38.000Z</time></trkpt>
        <trkpt lat="29.564755" lon="103.424804"><ele>714.3284</ele><time>2026-07-20T21:31:40.000Z</time></trkpt>
        <trkpt lat="29.564755" lon="103.424784"><ele>714.6263</ele><time>2026-07-20T21:31:42.000Z</time></trkpt>
        <trkpt lat="29.564754" lon="103.424769"><ele>715.0988</ele><time>2026-07-20T21:31:44.000Z</time></trkpt>
        <trkpt lat="29.564753" lon="103.424752"><ele>715.0871</ele><time>2026-07-20T21:31:46.000Z</time></trkpt>
        <trkpt lat="29.564749" lon="103.424739"><ele>715.5376</ele><time>2026-07-20T21:31:48.000Z</time></trkpt>
        <trkpt lat="29.564744" lon="103.424726"><ele>715.4349</ele><time>2026-07-20T21:31:50.000Z</time></trkpt>
        <trkpt lat="29.564742" lon="103.424714"><ele>716.0323</ele><time>2026-07-20T21:31:52.000Z</time></trkpt>
        <trkpt lat="29.564742" lon="103.424702"><ele>715.22406</ele><time>2026-07-20T21:31:54.000Z</time></trkpt>
        <trkpt lat="29.564742" lon="103.424688"><ele>715.45953</ele><time>2026-07-20T21:31:56.000Z</time></trkpt>
        <trkpt lat="29.564743" lon="103.424675"><ele>715.3401</ele><time>2026-07-20T21:31:58.000Z</time></trkpt>
        <trkpt lat="29.564742" lon="103.424664"><ele>715.05237</ele><time>2026-07-20T21:32:00.000Z</time></trkpt>
        <trkpt lat="29.56474" lon="103.424646"><ele>713.7199</ele><time>2026-07-20T21:32:02.000Z</time></trkpt>
        <trkpt lat="29.564738" lon="103.424631"><ele>714.1077</ele><time>2026-07-20T21:32:04.000Z</time></trkpt>
        <trkpt lat="29.564739" lon="103.424623"><ele>714.487</ele><time>2026-07-20T21:32:06.000Z</time></trkpt>
        <trkpt lat="29.564738" lon="103.424615"><ele>714.92053</ele><time>2026-07-20T21:32:08.000Z</time></trkpt>
        <trkpt lat="29.564735" lon="103.424595"><ele>715.8838</ele><time>2026-07-20T21:32:12.000Z</time></trkpt>
        <trkpt lat="29.564735" lon="103.424584"><ele>716.76306</ele><time>2026-07-20T21:32:14.000Z</time></trkpt>
        <trkpt lat="29.564732" lon="103.42457"><ele>717.09283</ele><time>2026-07-20T21:32:16.000Z</time></trkpt>
        <trkpt lat="29.564728" lon="103.424556"><ele>716.9109</ele><time>2026-07-20T21:32:18.000Z</time></trkpt>
        <trkpt lat="29.56472" lon="103.424544"><ele>717.1254</ele><time>2026-07-20T21:32:20.000Z</time></trkpt>
        <trkpt lat="29.564711" lon="103.424534"><ele>717.93646</ele><time>2026-07-20T21:32:22.000Z</time></trkpt>
        <trkpt lat="29.564701" lon="103.424521"><ele>717.90576</ele><time>2026-07-20T21:32:24.000Z</time></trkpt>
        <trkpt lat="29.564694" lon="103.424511"><ele>718.9592</ele><time>2026-07-20T21:32:26.000Z</time></trkpt>
        <trkpt lat="29.564695" lon="103.424506"><ele>719.1175</ele><time>2026-07-20T21:32:28.000Z</time></trkpt>
        <trkpt lat="29.564701" lon="103.424489"><ele>719.4579</ele><time>2026-07-20T21:32:34.000Z</time></trkpt>
        <trkpt lat="29.564708" lon="103.424468"><ele>719.2845</ele><time>2026-07-20T21:32:36.000Z</time></trkpt>
        <trkpt lat="29.564707" lon="103.424468"><ele>719.11884</ele><time>2026-07-20T21:32:38.000Z</time></trkpt>
        <trkpt lat="29.564697" lon="103.42444"><ele>718.52313</ele><time>2026-07-20T21:32:44.000Z</time></trkpt>
        <trkpt lat="29.56469" lon="103.424425"><ele>718.549</ele><time>2026-07-20T21:32:46.000Z</time></trkpt>
        <trkpt lat="29.56468" lon="103.424406"><ele>717.92334</ele><time>2026-07-20T21:32:48.000Z</time></trkpt>
        <trkpt lat="29.564672" lon="103.424394"><ele>717.7154</ele><time>2026-07-20T21:32:50.000Z</time></trkpt>
        <trkpt lat="29.564666" lon="103.42439"><ele>717.71674</ele><time>2026-07-20T21:32:52.000Z</time></trkpt>
        <trkpt lat="29.564649" lon="103.424383"><ele>715.24603</ele><time>2026-07-20T21:33:00.000Z</time></trkpt>
        <trkpt lat="29.564647" lon="103.424386"><ele>716.0444</ele><time>2026-07-20T21:33:06.000Z</time></trkpt>
        <trkpt lat="29.564669" lon="103.424347"><ele>716.05536</ele><time>2026-07-20T21:33:31.000Z</time></trkpt>
        <trkpt lat="29.564671" lon="103.424342"><ele>716.3541</ele><time>2026-07-20T21:33:33.000Z</time></trkpt>
        <trkpt lat="29.564671" lon="103.424338"><ele>716.3667</ele><time>2026-07-20T21:33:35.000Z</time></trkpt>
        <trkpt lat="29.564671" lon="103.4243"><ele>719.7279</ele><time>2026-07-20T21:33:45.000Z</time></trkpt>
        <trkpt lat="29.564671" lon="103.424299"><ele>721.47174</ele><time>2026-07-20T21:33:47.000Z</time></trkpt>
        <trkpt lat="29.564669" lon="103.424294"><ele>726.6412</ele><time>2026-07-20T21:33:55.000Z</time></trkpt>
        <trkpt lat="29.564651" lon="103.424258"><ele>728.5571</ele><time>2026-07-20T21:34:01.000Z</time></trkpt>
        <trkpt lat="29.564651" lon="103.424258"><ele>728.6307</ele><time>2026-07-20T21:34:03.000Z</time></trkpt>
        <trkpt lat="29.564651" lon="103.424257"><ele>728.79456</ele><time>2026-07-20T21:34:05.000Z</time></trkpt>
        <trkpt lat="29.564649" lon="103.424213"><ele>731.2438</ele><time>2026-07-20T21:34:15.000Z</time></trkpt>
        <trkpt lat="29.564649" lon="103.424213"><ele>730.7656</ele><time>2026-07-20T21:34:17.000Z</time></trkpt>
        <trkpt lat="29.564648" lon="103.424212"><ele>729.8744</ele><time>2026-07-20T21:34:19.000Z</time></trkpt>
        <trkpt lat="29.564605" lon="103.424179"><ele>732.3519</ele><time>2026-07-20T21:34:27.000Z</time></trkpt>
        <trkpt lat="29.564605" lon="103.424179"><ele>732.0407</ele><time>2026-07-20T21:34:29.000Z</time></trkpt>
        <trkpt lat="29.564604" lon="103.424178"><ele>732.93286</ele><time>2026-07-20T21:34:31.000Z</time></trkpt>
        <trkpt lat="29.564571" lon="103.424149"><ele>735.55035</ele><time>2026-07-20T21:35:06.000Z</time></trkpt>
        <trkpt lat="29.564557" lon="103.424136"><ele>736.55133</ele><time>2026-07-20T21:35:08.000Z</time></trkpt>
        <trkpt lat="29.564556" lon="103.424135"><ele>736.89185</ele><time>2026-07-20T21:35:10.000Z</time></trkpt>
        <trkpt lat="29.56454" lon="103.424119"><ele>736.4666</ele><time>2026-07-20T21:35:18.000Z</time></trkpt>
        <trkpt lat="29.564518" lon="103.424096"><ele>735.4161</ele><time>2026-07-20T21:35:20.000Z</time></trkpt>
        <trkpt lat="29.564517" lon="103.424094"><ele>736.46155</ele><time>2026-07-20T21:35:22.000Z</time></trkpt>
        <trkpt lat="29.564514" lon="103.424078"><ele>736.9816</ele><time>2026-07-20T21:35:28.000Z</time></trkpt>
        <trkpt lat="29.564503" lon="103.424033"><ele>736.83124</ele><time>2026-07-20T21:35:34.000Z</time></trkpt>
        <trkpt lat="29.564503" lon="103.424033"><ele>736.66437</ele><time>2026-07-20T21:35:36.000Z</time></trkpt>
        <trkpt lat="29.564506" lon="103.424003"><ele>736.15735</ele><time>2026-07-20T21:35:38.000Z</time></trkpt>
        <trkpt lat="29.564508" lon="103.423971"><ele>739.07056</ele><time>2026-07-20T21:35:46.000Z</time></trkpt>
        <trkpt lat="29.56451" lon="103.42395"><ele>739.85657</ele><time>2026-07-20T21:35:48.000Z</time></trkpt>
        <trkpt lat="29.564511" lon="103.423932"><ele>740.1458</ele><time>2026-07-20T21:35:50.000Z</time></trkpt>
        <trkpt lat="29.564506" lon="103.423927"><ele>740.14276</ele><time>2026-07-20T21:35:52.000Z</time></trkpt>
        <trkpt lat="29.564489" lon="103.423918"><ele>740.5318</ele><time>2026-07-20T21:35:56.000Z</time></trkpt>
        <trkpt lat="29.564476" lon="103.423911"><ele>740.76385</ele><time>2026-07-20T21:35:58.000Z</time></trkpt>
        <trkpt lat="29.564471" lon="103.423904"><ele>740.8255</ele><time>2026-07-20T21:36:00.000Z</time></trkpt>
        <trkpt lat="29.564456" lon="103.423878"><ele>739.9463</ele><time>2026-07-20T21:36:04.000Z</time></trkpt>
        <trkpt lat="29.56445" lon="103.423862"><ele>739.75977</ele><time>2026-07-20T21:36:06.000Z</time></trkpt>
        <trkpt lat="29.564449" lon="103.423849"><ele>740.17566</ele><time>2026-07-20T21:36:08.000Z</time></trkpt>
        <trkpt lat="29.564449" lon="103.423829"><ele>740.2429</ele><time>2026-07-20T21:36:12.000Z</time></trkpt>
        <trkpt lat="29.564449" lon="103.423818"><ele>740.52246</ele><time>2026-07-20T21:36:14.000Z</time></trkpt>
        <trkpt lat="29.564444" lon="103.423809"><ele>739.57837</ele><time>2026-07-20T21:36:18.000Z</time></trkpt>
        <trkpt lat="29.56443" lon="103.423787"><ele>737.6619</ele><time>2026-07-20T21:36:22.000Z</time></trkpt>
        <trkpt lat="29.564425" lon="103.423784"><ele>736.61005</ele><time>2026-07-20T21:36:28.000Z</time></trkpt>
        <trkpt lat="29.564406" lon="103.423764"><ele>737.01654</ele><time>2026-07-20T21:36:30.000Z</time></trkpt>
        <trkpt lat="29.564407" lon="103.423759"><ele>738.91034</ele><time>2026-07-20T21:36:36.000Z</time></trkpt>
        <trkpt lat="29.564413" lon="103.423722"><ele>739.9755</ele><time>2026-07-20T21:36:38.000Z</time></trkpt>
        <trkpt lat="29.564413" lon="103.423719"><ele>740.2801</ele><time>2026-07-20T21:36:40.000Z</time></trkpt>
        <trkpt lat="29.564413" lon="103.423717"><ele>740.3649</ele><time>2026-07-20T21:36:42.000Z</time></trkpt>
        <trkpt lat="29.564412" lon="103.423672"><ele>740.7158</ele><time>2026-07-20T21:36:48.000Z</time></trkpt>
        <trkpt lat="29.564409" lon="103.423656"><ele>741.3053</ele><time>2026-07-20T21:36:50.000Z</time></trkpt>
        <trkpt lat="29.564407" lon="103.423639"><ele>742.0367</ele><time>2026-07-20T21:36:52.000Z</time></trkpt>
        <trkpt lat="29.564407" lon="103.423626"><ele>742.946</ele><time>2026-07-20T21:36:54.000Z</time></trkpt>
        <trkpt lat="29.564411" lon="103.423619"><ele>744.1976</ele><time>2026-07-20T21:36:56.000Z</time></trkpt>
        <trkpt lat="29.564426" lon="103.423594"><ele>743.94995</ele><time>2026-07-20T21:37:00.000Z</time></trkpt>
        <trkpt lat="29.564432" lon="103.423581"><ele>743.73157</ele><time>2026-07-20T21:37:02.000Z</time></trkpt>
        <trkpt lat="29.564438" lon="103.423564"><ele>742.98883</ele><time>2026-07-20T21:37:04.000Z</time></trkpt>
        <trkpt lat="29.564441" lon="103.423549"><ele>741.6418</ele><time>2026-07-20T21:37:06.000Z</time></trkpt>
        <trkpt lat="29.564442" lon="103.423538"><ele>741.59265</ele><time>2026-07-20T21:37:08.000Z</time></trkpt>
        <trkpt lat="29.564443" lon="103.423523"><ele>742.02045</ele><time>2026-07-20T21:37:10.000Z</time></trkpt>
        <trkpt lat="29.564448" lon="103.423517"><ele>742.4389</ele><time>2026-07-20T21:37:12.000Z</time></trkpt>
        <trkpt lat="29.564462" lon="103.423504"><ele>741.75696</ele><time>2026-07-20T21:37:16.000Z</time></trkpt>
        <trkpt lat="29.564469" lon="103.423495"><ele>742.1579</ele><time>2026-07-20T21:37:18.000Z</time></trkpt>
        <trkpt lat="29.564476" lon="103.423484"><ele>742.4345</ele><time>2026-07-20T21:37:20.000Z</time></trkpt>
        <trkpt lat="29.564479" lon="103.423471"><ele>742.536</ele><time>2026-07-20T21:37:22.000Z</time></trkpt>
        <trkpt lat="29.564479" lon="103.423458"><ele>742.0121</ele><time>2026-07-20T21:37:24.000Z</time></trkpt>
        <trkpt lat="29.564476" lon="103.423449"><ele>741.64087</ele><time>2026-07-20T21:37:26.000Z</time></trkpt>
        <trkpt lat="29.564476" lon="103.423431"><ele>743.5348</ele><time>2026-07-20T21:37:34.000Z</time></trkpt>
        <trkpt lat="29.56448" lon="103.423429"><ele>743.8017</ele><time>2026-07-20T21:37:40.000Z</time></trkpt>
        <trkpt lat="29.5645" lon="103.423405"><ele>748.8705</ele><time>2026-07-20T21:38:09.000Z</time></trkpt>
        <trkpt lat="29.564519" lon="103.423381"><ele>749.626</ele><time>2026-07-20T21:38:11.000Z</time></trkpt>
        <trkpt lat="29.56452" lon="103.423379"><ele>749.86475</ele><time>2026-07-20T21:38:13.000Z</time></trkpt>
        <trkpt lat="29.564523" lon="103.423369"><ele>750.78485</ele><time>2026-07-20T21:38:17.000Z</time></trkpt>
        <trkpt lat="29.564529" lon="103.423331"><ele>751.6069</ele><time>2026-07-20T21:38:21.000Z</time></trkpt>
        <trkpt lat="29.564533" lon="103.423311"><ele>751.81616</ele><time>2026-07-20T21:38:23.000Z</time></trkpt>
        <trkpt lat="29.564536" lon="103.423296"><ele>752.8291</ele><time>2026-07-20T21:38:25.000Z</time></trkpt>
        <trkpt lat="29.564539" lon="103.423285"><ele>752.7639</ele><time>2026-07-20T21:38:27.000Z</time></trkpt>
        <trkpt lat="29.56454" lon="103.423275"><ele>753.2596</ele><time>2026-07-20T21:38:29.000Z</time></trkpt>
        <trkpt lat="29.564541" lon="103.423254"><ele>752.0562</ele><time>2026-07-20T21:38:33.000Z</time></trkpt>
        <trkpt lat="29.564544" lon="103.423241"><ele>752.97406</ele><time>2026-07-20T21:38:35.000Z</time></trkpt>
        <trkpt lat="29.564548" lon="103.423228"><ele>753.8076</ele><time>2026-07-20T21:38:37.000Z</time></trkpt>
        <trkpt lat="29.564553" lon="103.423218"><ele>755.63544</ele><time>2026-07-20T21:38:39.000Z</time></trkpt>
        <trkpt lat="29.564554" lon="103.42321"><ele>757.2398</ele><time>2026-07-20T21:38:41.000Z</time></trkpt>
        <trkpt lat="29.564554" lon="103.423196"><ele>758.5105</ele><time>2026-07-20T21:38:47.000Z</time></trkpt>
        <trkpt lat="29.564554" lon="103.423181"><ele>758.7621</ele><time>2026-07-20T21:38:51.000Z</time></trkpt>
        <trkpt lat="29.564555" lon="103.423175"><ele>758.5549</ele><time>2026-07-20T21:38:55.000Z</time></trkpt>
        <trkpt lat="29.564564" lon="103.423156"><ele>759.8887</ele><time>2026-07-20T21:39:09.000Z</time></trkpt>
        <trkpt lat="29.564577" lon="103.423131"><ele>759.47394</ele><time>2026-07-20T21:39:11.000Z</time></trkpt>
        <trkpt lat="29.564577" lon="103.423129"><ele>759.2935</ele><time>2026-07-20T21:39:13.000Z</time></trkpt>
        <trkpt lat="29.564578" lon="103.423115"><ele>759.8132</ele><time>2026-07-20T21:39:17.000Z</time></trkpt>
        <trkpt lat="29.564577" lon="103.423097"><ele>760.2459</ele><time>2026-07-20T21:39:19.000Z</time></trkpt>
        <trkpt lat="29.564574" lon="103.423079"><ele>760.9883</ele><time>2026-07-20T21:39:21.000Z</time></trkpt>
        <trkpt lat="29.56457" lon="103.423062"><ele>762.04724</ele><time>2026-07-20T21:39:23.000Z</time></trkpt>
        <trkpt lat="29.564568" lon="103.423048"><ele>762.6192</ele><time>2026-07-20T21:39:25.000Z</time></trkpt>
        <trkpt lat="29.564566" lon="103.423036"><ele>762.59344</ele><time>2026-07-20T21:39:27.000Z</time></trkpt>
        <trkpt lat="29.564566" lon="103.423023"><ele>762.42664</ele><time>2026-07-20T21:39:29.000Z</time></trkpt>
        <trkpt lat="29.564565" lon="103.423013"><ele>762.23224</ele><time>2026-07-20T21:39:31.000Z</time></trkpt>
        <trkpt lat="29.564562" lon="103.423001"><ele>762.3044</ele><time>2026-07-20T21:39:35.000Z</time></trkpt>
        <trkpt lat="29.564559" lon="103.422986"><ele>763.7785</ele><time>2026-07-20T21:39:39.000Z</time></trkpt>
        <trkpt lat="29.564558" lon="103.42298"><ele>764.7138</ele><time>2026-07-20T21:39:41.000Z</time></trkpt>
        <trkpt lat="29.564558" lon="103.42297"><ele>766.3365</ele><time>2026-07-20T21:39:43.000Z</time></trkpt>
        <trkpt lat="29.564555" lon="103.422947"><ele>765.7402</ele><time>2026-07-20T21:39:45.000Z</time></trkpt>
        <trkpt lat="29.564555" lon="103.422946"><ele>765.19745</ele><time>2026-07-20T21:39:47.000Z</time></trkpt>
        <trkpt lat="29.564554" lon="103.422936"><ele>764.8368</ele><time>2026-07-20T21:39:51.000Z</time></trkpt>
        <trkpt lat="29.56455" lon="103.422908"><ele>765.7336</ele><time>2026-07-20T21:39:55.000Z</time></trkpt>
        <trkpt lat="29.564548" lon="103.422887"><ele>766.0972</ele><time>2026-07-20T21:39:57.000Z</time></trkpt>
        <trkpt lat="29.564548" lon="103.422885"><ele>765.654</ele><time>2026-07-20T21:39:59.000Z</time></trkpt>
        <trkpt lat="29.564549" lon="103.422877"><ele>766.6859</ele><time>2026-07-20T21:40:03.000Z</time></trkpt>
        <trkpt lat="29.564555" lon="103.422831"><ele>767.70465</ele><time>2026-07-20T21:40:07.000Z</time></trkpt>
        <trkpt lat="29.564555" lon="103.42283"><ele>768.3571</ele><time>2026-07-20T21:40:09.000Z</time></trkpt>
        <trkpt lat="29.564555" lon="103.42283"><ele>768.87445</ele><time>2026-07-20T21:40:11.000Z</time></trkpt>
        <trkpt lat="29.564545" lon="103.422792"><ele>768.22986</ele><time>2026-07-20T21:40:17.000Z</time></trkpt>
        <trkpt lat="29.564536" lon="103.42277"><ele>767.8154</ele><time>2026-07-20T21:40:19.000Z</time></trkpt>
        <trkpt lat="29.564527" lon="103.422747"><ele>767.1606</ele><time>2026-07-20T21:40:21.000Z</time></trkpt>
        <trkpt lat="29.564519" lon="103.422729"><ele>767.257</ele><time>2026-07-20T21:40:23.000Z</time></trkpt>
        <trkpt lat="29.564514" lon="103.422713"><ele>767.89154</ele><time>2026-07-20T21:40:25.000Z</time></trkpt>
        <trkpt lat="29.56451" lon="103.422702"><ele>767.7687</ele><time>2026-07-20T21:40:27.000Z</time></trkpt>
        <trkpt lat="29.564506" lon="103.422701"><ele>767.29376</ele><time>2026-07-20T21:40:29.000Z</time></trkpt>
        <trkpt lat="29.564486" lon="103.42269"><ele>766.54193</ele><time>2026-07-20T21:40:49.000Z</time></trkpt>
        <trkpt lat="29.564487" lon="103.422689"><ele>766.37524</ele><time>2026-07-20T21:40:51.000Z</time></trkpt>
        <trkpt lat="29.564498" lon="103.422603"><ele>765.1081</ele><time>2026-07-20T21:41:06.000Z</time></trkpt>
        <trkpt lat="29.564498" lon="103.422588"><ele>766.65533</ele><time>2026-07-20T21:41:13.000Z</time></trkpt>
        <trkpt lat="29.564497" lon="103.422567"><ele>767.243</ele><time>2026-07-20T21:41:15.000Z</time></trkpt>
        <trkpt lat="29.564497" lon="103.422565"><ele>767.3988</ele><time>2026-07-20T21:41:17.000Z</time></trkpt>
        <trkpt lat="29.564493" lon="103.42255"><ele>768.8221</ele><time>2026-07-20T21:41:25.000Z</time></trkpt>
        <trkpt lat="29.564485" lon="103.422526"><ele>766.8062</ele><time>2026-07-20T21:41:43.000Z</time></trkpt>
        <trkpt lat="29.564478" lon="103.422507"><ele>766.8499</ele><time>2026-07-20T21:41:45.000Z</time></trkpt>
        <trkpt lat="29.564478" lon="103.422506"><ele>767.5218</ele><time>2026-07-20T21:41:47.000Z</time></trkpt>
        <trkpt lat="29.564475" lon="103.422474"><ele>770.6919</ele><time>2026-07-20T21:42:07.000Z</time></trkpt>
        <trkpt lat="29.564472" lon="103.422457"><ele>770.84485</ele><time>2026-07-20T21:42:09.000Z</time></trkpt>
        <trkpt lat="29.564471" lon="103.422445"><ele>772.21704</ele><time>2026-07-20T21:42:11.000Z</time></trkpt>
        <trkpt lat="29.564471" lon="103.422436"><ele>772.93396</ele><time>2026-07-20T21:42:17.000Z</time></trkpt>
        <trkpt lat="29.564471" lon="103.422418"><ele>775.2769</ele><time>2026-07-20T21:42:29.000Z</time></trkpt>
        <trkpt lat="29.564471" lon="103.422406"><ele>774.96075</ele><time>2026-07-20T21:42:33.000Z</time></trkpt>
        <trkpt lat="29.56447" lon="103.422394"><ele>773.7966</ele><time>2026-07-20T21:42:37.000Z</time></trkpt>
        <trkpt lat="29.564468" lon="103.422378"><ele>773.4505</ele><time>2026-07-20T21:42:41.000Z</time></trkpt>
        <trkpt lat="29.564464" lon="103.422363"><ele>773.48676</ele><time>2026-07-20T21:42:45.000Z</time></trkpt>
        <trkpt lat="29.564462" lon="103.422348"><ele>773.874</ele><time>2026-07-20T21:42:47.000Z</time></trkpt>
        <trkpt lat="29.564461" lon="103.422343"><ele>772.933</ele><time>2026-07-20T21:42:51.000Z</time></trkpt>
        <trkpt lat="29.56446" lon="103.422305"><ele>772.6586</ele><time>2026-07-20T21:42:55.000Z</time></trkpt>
        <trkpt lat="29.564458" lon="103.422283"><ele>773.87524</ele><time>2026-07-20T21:42:57.000Z</time></trkpt>
        <trkpt lat="29.564455" lon="103.422265"><ele>773.9908</ele><time>2026-07-20T21:42:59.000Z</time></trkpt>
        <trkpt lat="29.564453" lon="103.422254"><ele>774.20264</ele><time>2026-07-20T21:43:01.000Z</time></trkpt>
        <trkpt lat="29.564453" lon="103.422251"><ele>774.2719</ele><time>2026-07-20T21:43:03.000Z</time></trkpt>
        <trkpt lat="29.564455" lon="103.42222"><ele>774.3446</ele><time>2026-07-20T21:43:30.000Z</time></trkpt>
        <trkpt lat="29.564457" lon="103.422197"><ele>774.2417</ele><time>2026-07-20T21:43:32.000Z</time></trkpt>
        <trkpt lat="29.564457" lon="103.422195"><ele>774.51917</ele><time>2026-07-20T21:43:34.000Z</time></trkpt>
        <trkpt lat="29.564455" lon="103.422188"><ele>774.8292</ele><time>2026-07-20T21:43:38.000Z</time></trkpt>
        <trkpt lat="29.564449" lon="103.422165"><ele>777.154</ele><time>2026-07-20T21:43:44.000Z</time></trkpt>
        <trkpt lat="29.564446" lon="103.422159"><ele>777.562</ele><time>2026-07-20T21:43:46.000Z</time></trkpt>
        <trkpt lat="29.564443" lon="103.422152"><ele>778.2589</ele><time>2026-07-20T21:43:48.000Z</time></trkpt>
        <trkpt lat="29.564434" lon="103.422125"><ele>778.58307</ele><time>2026-07-20T21:43:52.000Z</time></trkpt>
        <trkpt lat="29.564434" lon="103.422125"><ele>778.05676</ele><time>2026-07-20T21:43:54.000Z</time></trkpt>
        <trkpt lat="29.564432" lon="103.422121"><ele>778.21094</ele><time>2026-07-20T21:43:58.000Z</time></trkpt>
        <trkpt lat="29.564411" lon="103.422064"><ele>776.11316</ele><time>2026-07-20T21:44:10.000Z</time></trkpt>
        <trkpt lat="29.564411" lon="103.422064"><ele>776.9909</ele><time>2026-07-20T21:44:12.000Z</time></trkpt>
        <trkpt lat="29.564411" lon="103.422064"><ele>777.3882</ele><time>2026-07-20T21:44:14.000Z</time></trkpt>
        <trkpt lat="29.564399" lon="103.422032"><ele>779.5829</ele><time>2026-07-20T21:44:24.000Z</time></trkpt>
        <trkpt lat="29.564399" lon="103.422025"><ele>780.7646</ele><time>2026-07-20T21:44:26.000Z</time></trkpt>
        <trkpt lat="29.5644" lon="103.42202"><ele>781.05865</ele><time>2026-07-20T21:44:28.000Z</time></trkpt>
        <trkpt lat="29.564399" lon="103.421999"><ele>781.855</ele><time>2026-07-20T21:44:44.000Z</time></trkpt>
        <trkpt lat="29.564398" lon="103.421979"><ele>782.0895</ele><time>2026-07-20T21:44:46.000Z</time></trkpt>
        <trkpt lat="29.564398" lon="103.421978"><ele>782.62994</ele><time>2026-07-20T21:44:48.000Z</time></trkpt>
        <trkpt lat="29.564392" lon="103.421964"><ele>782.6177</ele><time>2026-07-20T21:44:52.000Z</time></trkpt>
        <trkpt lat="29.564388" lon="103.421947"><ele>784.13</ele><time>2026-07-20T21:44:54.000Z</time></trkpt>
        <trkpt lat="29.564385" lon="103.421927"><ele>784.2461</ele><time>2026-07-20T21:44:56.000Z</time></trkpt>
        <trkpt lat="29.564386" lon="103.421912"><ele>784.95544</ele><time>2026-07-20T21:44:58.000Z</time></trkpt>
        <trkpt lat="29.564388" lon="103.421902"><ele>785.0553</ele><time>2026-07-20T21:45:00.000Z</time></trkpt>
        <trkpt lat="29.564392" lon="103.421892"><ele>786.583</ele><time>2026-07-20T21:45:04.000Z</time></trkpt>
        <trkpt lat="29.564397" lon="103.421877"><ele>786.5492</ele><time>2026-07-20T21:45:08.000Z</time></trkpt>
        <trkpt lat="29.564399" lon="103.421868"><ele>786.4872</ele><time>2026-07-20T21:45:10.000Z</time></trkpt>
        <trkpt lat="29.564398" lon="103.421859"><ele>785.617</ele><time>2026-07-20T21:45:12.000Z</time></trkpt>
        <trkpt lat="29.564397" lon="103.421832"><ele>785.632</ele><time>2026-07-20T21:45:16.000Z</time></trkpt>
        <trkpt lat="29.564397" lon="103.421832"><ele>787.17255</ele><time>2026-07-20T21:45:18.000Z</time></trkpt>
        <trkpt lat="29.564407" lon="103.421828"><ele>789.33026</ele><time>2026-07-20T21:45:26.000Z</time></trkpt>
        <trkpt lat="29.564423" lon="103.421821"><ele>791.323</ele><time>2026-07-20T21:45:40.000Z</time></trkpt>
        <trkpt lat="29.564427" lon="103.421817"><ele>791.85187</ele><time>2026-07-20T21:45:42.000Z</time></trkpt>
        <trkpt lat="29.564427" lon="103.421814"><ele>792.0575</ele><time>2026-07-20T21:45:44.000Z</time></trkpt>
        <trkpt lat="29.564424" lon="103.421792"><ele>793.02826</ele><time>2026-07-20T21:45:52.000Z</time></trkpt>
        <trkpt lat="29.56442" lon="103.421772"><ele>791.667</ele><time>2026-07-20T21:45:54.000Z</time></trkpt>
        <trkpt lat="29.56442" lon="103.421771"><ele>791.63446</ele><time>2026-07-20T21:45:56.000Z</time></trkpt>
        <trkpt lat="29.56441" lon="103.42176"><ele>792.3046</ele><time>2026-07-20T21:46:04.000Z</time></trkpt>
        <trkpt lat="29.564403" lon="103.421747"><ele>793.0173</ele><time>2026-07-20T21:46:08.000Z</time></trkpt>
        <trkpt lat="29.564402" lon="103.421741"><ele>793.2554</ele><time>2026-07-20T21:46:10.000Z</time></trkpt>
        <trkpt lat="29.5644" lon="103.421722"><ele>792.78796</ele><time>2026-07-20T21:46:14.000Z</time></trkpt>
        <trkpt lat="29.564399" lon="103.421713"><ele>794.3783</ele><time>2026-07-20T21:46:18.000Z</time></trkpt>
        <trkpt lat="29.564399" lon="103.421711"><ele>795.62085</ele><time>2026-07-20T21:46:20.000Z</time></trkpt>
        <trkpt lat="29.564402" lon="103.421691"><ele>797.2089</ele><time>2026-07-20T21:46:28.000Z</time></trkpt>
        <trkpt lat="29.5644" lon="103.421686"><ele>798.46094</ele><time>2026-07-20T21:46:32.000Z</time></trkpt>
        <trkpt lat="29.564399" lon="103.421682"><ele>798.57043</ele><time>2026-07-20T21:46:34.000Z</time></trkpt>
        <trkpt lat="29.564388" lon="103.421643"><ele>797.3927</ele><time>2026-07-20T21:46:49.000Z</time></trkpt>
        <trkpt lat="29.564375" lon="103.4216"><ele>801.1094</ele><time>2026-07-20T21:47:04.000Z</time></trkpt>
        <trkpt lat="29.564357" lon="103.421566"><ele>803.33466</ele><time>2026-07-20T21:47:19.000Z</time></trkpt>
        <trkpt lat="29.564346" lon="103.421547"><ele>803.9593</ele><time>2026-07-20T21:47:30.000Z</time></trkpt>
        <trkpt lat="29.564345" lon="103.42154"><ele>803.99835</ele><time>2026-07-20T21:47:32.000Z</time></trkpt>
        <trkpt lat="29.564344" lon="103.421518"><ele>803.8948</ele><time>2026-07-20T21:47:34.000Z</time></trkpt>
        <trkpt lat="29.564345" lon="103.421514"><ele>804.47235</ele><time>2026-07-20T21:47:38.000Z</time></trkpt>
        <trkpt lat="29.564345" lon="103.421493"><ele>805.0435</ele><time>2026-07-20T21:47:42.000Z</time></trkpt>
        <trkpt lat="29.564342" lon="103.421475"><ele>804.85144</ele><time>2026-07-20T21:47:44.000Z</time></trkpt>
        <trkpt lat="29.564336" lon="103.421455"><ele>803.885</ele><time>2026-07-20T21:47:46.000Z</time></trkpt>
        <trkpt lat="29.56433" lon="103.421436"><ele>804.09717</ele><time>2026-07-20T21:47:48.000Z</time></trkpt>
        <trkpt lat="29.564326" lon="103.421421"><ele>804.2539</ele><time>2026-07-20T21:47:50.000Z</time></trkpt>
        <trkpt lat="29.564322" lon="103.421406"><ele>804.55505</ele><time>2026-07-20T21:47:52.000Z</time></trkpt>
        <trkpt lat="29.564319" lon="103.421392"><ele>805.25214</ele><time>2026-07-20T21:47:54.000Z</time></trkpt>
        <trkpt lat="29.564318" lon="103.421379"><ele>804.94</ele><time>2026-07-20T21:47:56.000Z</time></trkpt>
        <trkpt lat="29.564318" lon="103.421379"><ele>805.5851</ele><time>2026-07-20T21:47:58.000Z</time></trkpt>
        <trkpt lat="29.564354" lon="103.421375"><ele>806.7946</ele><time>2026-07-20T21:48:04.000Z</time></trkpt>
        <trkpt lat="29.564354" lon="103.421375"><ele>807.41144</ele><time>2026-07-20T21:48:06.000Z</time></trkpt>
        <trkpt lat="29.564357" lon="103.421375"><ele>808.6711</ele><time>2026-07-20T21:48:08.000Z</time></trkpt>
        <trkpt lat="29.564394" lon="103.421378"><ele>810.76465</ele><time>2026-07-20T21:48:12.000Z</time></trkpt>
        <trkpt lat="29.564419" lon="103.42138"><ele>810.97736</ele><time>2026-07-20T21:48:14.000Z</time></trkpt>
        <trkpt lat="29.56444" lon="103.421381"><ele>812.0519</ele><time>2026-07-20T21:48:16.000Z</time></trkpt>
        <trkpt lat="29.564457" lon="103.42138"><ele>811.70087</ele><time>2026-07-20T21:48:18.000Z</time></trkpt>
        <trkpt lat="29.564468" lon="103.421378"><ele>811.0988</ele><time>2026-07-20T21:48:20.000Z</time></trkpt>
        <trkpt lat="29.564477" lon="103.421376"><ele>810.5022</ele><time>2026-07-20T21:48:22.000Z</time></trkpt>
        <trkpt lat="29.564486" lon="103.421375"><ele>810.0547</ele><time>2026-07-20T21:48:24.000Z</time></trkpt>
        <trkpt lat="29.564493" lon="103.421373"><ele>809.83734</ele><time>2026-07-20T21:48:26.000Z</time></trkpt>
        <trkpt lat="29.564504" lon="103.421367"><ele>809.96375</ele><time>2026-07-20T21:48:32.000Z</time></trkpt>
        <trkpt lat="29.56451" lon="103.421365"><ele>809.7771</ele><time>2026-07-20T21:48:34.000Z</time></trkpt>
        <trkpt lat="29.564516" lon="103.421366"><ele>809.80273</ele><time>2026-07-20T21:48:38.000Z</time></trkpt>
        <trkpt lat="29.564481" lon="103.421353"><ele>803.40454</ele><time>2026-07-20T21:49:17.000Z</time></trkpt>
        <trkpt lat="29.56448" lon="103.421353"><ele>803.40454</ele><time>2026-07-20T21:49:19.000Z</time></trkpt>
        <trkpt lat="29.564478" lon="103.421352"><ele>803.1583</ele><time>2026-07-20T21:49:21.000Z</time></trkpt>
        <trkpt lat="29.564451" lon="103.421342"><ele>803.58386</ele><time>2026-07-20T21:49:33.000Z</time></trkpt>
        <trkpt lat="29.564451" lon="103.421341"><ele>802.42444</ele><time>2026-07-20T21:49:35.000Z</time></trkpt>
        <trkpt lat="29.56447" lon="103.421387"><ele>803.2974</ele><time>2026-07-20T21:50:07.000Z</time></trkpt>
        <trkpt lat="29.56447" lon="103.421387"><ele>803.23</ele><time>2026-07-20T21:50:22.000Z</time></trkpt>
        <trkpt lat="29.564476" lon="103.421378"><ele>803.23584</ele><time>2026-07-20T21:50:37.000Z</time></trkpt>
        <trkpt lat="29.564492" lon="103.421348"><ele>808.0791</ele><time>2026-07-20T21:52:07.000Z</time></trkpt>
        <trkpt lat="29.564494" lon="103.421345"><ele>807.02136</ele><time>2026-07-20T21:52:09.000Z</time></trkpt>
        <trkpt lat="29.564494" lon="103.421341"><ele>806.85944</ele><time>2026-07-20T21:52:11.000Z</time></trkpt>
        <trkpt lat="29.564484" lon="103.421383"><ele>809.77057</ele><time>2026-07-20T21:53:42.000Z</time></trkpt>
        <trkpt lat="29.564488" lon="103.42139"><ele>812.4829</ele><time>2026-07-20T21:53:57.000Z</time></trkpt>
        <trkpt lat="29.5645" lon="103.421411"><ele>810.6561</ele><time>2026-07-20T21:54:12.000Z</time></trkpt>
        <trkpt lat="29.564508" lon="103.421355"><ele>807.4014</ele><time>2026-07-20T21:56:30.000Z</time></trkpt>
        <trkpt lat="29.564512" lon="103.421336"><ele>807.1422</ele><time>2026-07-20T21:56:32.000Z</time></trkpt>
        <trkpt lat="29.564512" lon="103.421334"><ele>807.82697</ele><time>2026-07-20T21:56:34.000Z</time></trkpt>
        <trkpt lat="29.564511" lon="103.421326"><ele>809.2665</ele><time>2026-07-20T21:56:40.000Z</time></trkpt>
        <trkpt lat="29.564513" lon="103.421296"><ele>811.8212</ele><time>2026-07-20T21:57:18.000Z</time></trkpt>
        <trkpt lat="29.564514" lon="103.421296"><ele>811.6285</ele><time>2026-07-20T21:57:20.000Z</time></trkpt>
        <trkpt lat="29.56452" lon="103.421298"><ele>812.28735</ele><time>2026-07-20T21:57:22.000Z</time></trkpt>
        <trkpt lat="29.564546" lon="103.421304"><ele>812.0146</ele><time>2026-07-20T21:57:26.000Z</time></trkpt>
        <trkpt lat="29.564546" lon="103.421304"><ele>812.7611</ele><time>2026-07-20T21:57:28.000Z</time></trkpt>
        <trkpt lat="29.564553" lon="103.421297"><ele>811.992</ele><time>2026-07-20T21:57:32.000Z</time></trkpt>
        <trkpt lat="29.564576" lon="103.421271"><ele>812.8003</ele><time>2026-07-20T21:57:36.000Z</time></trkpt>
        <trkpt lat="29.564587" lon="103.42126"><ele>812.10675</ele><time>2026-07-20T21:57:38.000Z</time></trkpt>
        <trkpt lat="29.564598" lon="103.421252"><ele>813.1231</ele><time>2026-07-20T21:57:40.000Z</time></trkpt>
        <trkpt lat="29.56461" lon="103.421247"><ele>814.8957</ele><time>2026-07-20T21:57:42.000Z</time></trkpt>
        <trkpt lat="29.564618" lon="103.421242"><ele>815.4393</ele><time>2026-07-20T21:57:44.000Z</time></trkpt>
        <trkpt lat="29.564623" lon="103.421237"><ele>815.2512</ele><time>2026-07-20T21:57:46.000Z</time></trkpt>
        <trkpt lat="29.564642" lon="103.421219"><ele>816.21234</ele><time>2026-07-20T21:57:52.000Z</time></trkpt>
        <trkpt lat="29.56465" lon="103.42121"><ele>816.32135</ele><time>2026-07-20T21:57:54.000Z</time></trkpt>
        <trkpt lat="29.564658" lon="103.421198"><ele>816.5887</ele><time>2026-07-20T21:57:56.000Z</time></trkpt>
        <trkpt lat="29.564666" lon="103.421186"><ele>817.3038</ele><time>2026-07-20T21:57:58.000Z</time></trkpt>
        <trkpt lat="29.564677" lon="103.421174"><ele>817.89905</ele><time>2026-07-20T21:58:00.000Z</time></trkpt>
        <trkpt lat="29.564685" lon="103.421168"><ele>818.87573</ele><time>2026-07-20T21:58:02.000Z</time></trkpt>
        <trkpt lat="29.564694" lon="103.421161"><ele>818.92444</ele><time>2026-07-20T21:58:04.000Z</time></trkpt>
        <trkpt lat="29.564697" lon="103.421153"><ele>818.3322</ele><time>2026-07-20T21:58:06.000Z</time></trkpt>
        <trkpt lat="29.564704" lon="103.42113"><ele>816.5138</ele><time>2026-07-20T21:58:10.000Z</time></trkpt>
        <trkpt lat="29.564708" lon="103.421118"><ele>816.0951</ele><time>2026-07-20T21:58:12.000Z</time></trkpt>
        <trkpt lat="29.564705" lon="103.421108"><ele>815.89246</ele><time>2026-07-20T21:58:14.000Z</time></trkpt>
        <trkpt lat="29.564722" lon="103.421171"><ele>822.6266</ele><time>2026-07-20T21:58:34.000Z</time></trkpt>
        <trkpt lat="29.564726" lon="103.421177"><ele>822.67596</ele><time>2026-07-20T21:58:36.000Z</time></trkpt>
        <trkpt lat="29.564731" lon="103.421179"><ele>822.0285</ele><time>2026-07-20T21:58:38.000Z</time></trkpt>
        <trkpt lat="29.564756" lon="103.421189"><ele>821.5992</ele><time>2026-07-20T21:58:42.000Z</time></trkpt>
        <trkpt lat="29.564769" lon="103.421195"><ele>821.672</ele><time>2026-07-20T21:58:44.000Z</time></trkpt>
        <trkpt lat="29.564783" lon="103.421203"><ele>822.4414</ele><time>2026-07-20T21:58:46.000Z</time></trkpt>
        <trkpt lat="29.564795" lon="103.421212"><ele>822.6763</ele><time>2026-07-20T21:58:48.000Z</time></trkpt>
        <trkpt lat="29.564805" lon="103.42122"><ele>822.2606</ele><time>2026-07-20T21:58:50.000Z</time></trkpt>
        <trkpt lat="29.564815" lon="103.421227"><ele>821.27997</ele><time>2026-07-20T21:58:52.000Z</time></trkpt>
        <trkpt lat="29.564827" lon="103.421234"><ele>821.2996</ele><time>2026-07-20T21:58:54.000Z</time></trkpt>
        <trkpt lat="29.564837" lon="103.421241"><ele>820.7825</ele><time>2026-07-20T21:58:56.000Z</time></trkpt>
        <trkpt lat="29.564845" lon="103.421246"><ele>820.4667</ele><time>2026-07-20T21:58:58.000Z</time></trkpt>
        <trkpt lat="29.564854" lon="103.421252"><ele>820.5714</ele><time>2026-07-20T21:59:00.000Z</time></trkpt>
        <trkpt lat="29.564865" lon="103.421257"><ele>820.10364</ele><time>2026-07-20T21:59:02.000Z</time></trkpt>
        <trkpt lat="29.564879" lon="103.421263"><ele>820.58295</ele><time>2026-07-20T21:59:04.000Z</time></trkpt>
        <trkpt lat="29.564889" lon="103.421268"><ele>820.0194</ele><time>2026-07-20T21:59:06.000Z</time></trkpt>
        <trkpt lat="29.564896" lon="103.421272"><ele>819.1455</ele><time>2026-07-20T21:59:08.000Z</time></trkpt>
        <trkpt lat="29.564906" lon="103.421281"><ele>818.3766</ele><time>2026-07-20T21:59:12.000Z</time></trkpt>
        <trkpt lat="29.564913" lon="103.421287"><ele>819.08594</ele><time>2026-07-20T21:59:16.000Z</time></trkpt>
        <trkpt lat="29.564915" lon="103.421292"><ele>818.83057</ele><time>2026-07-20T21:59:18.000Z</time></trkpt>
        <trkpt lat="29.56492" lon="103.421306"><ele>819.7537</ele><time>2026-07-20T21:59:22.000Z</time></trkpt>
        <trkpt lat="29.564924" lon="103.421319"><ele>819.10315</ele><time>2026-07-20T21:59:30.000Z</time></trkpt>
        <trkpt lat="29.564926" lon="103.421322"><ele>818.88556</ele><time>2026-07-20T21:59:32.000Z</time></trkpt>
        <trkpt lat="29.564934" lon="103.421335"><ele>820.9867</ele><time>2026-07-20T21:59:49.000Z</time></trkpt>
        <trkpt lat="29.564943" lon="103.421347"><ele>821.0421</ele><time>2026-07-20T21:59:54.000Z</time></trkpt>
        <trkpt lat="29.564947" lon="103.421352"><ele>820.635</ele><time>2026-07-20T21:59:56.000Z</time></trkpt>
        <trkpt lat="29.564953" lon="103.421355"><ele>820.73895</ele><time>2026-07-20T21:59:58.000Z</time></trkpt>
        <trkpt lat="29.564962" lon="103.421364"><ele>821.78217</ele><time>2026-07-20T22:00:10.000Z</time></trkpt>
        <trkpt lat="29.564969" lon="103.421371"><ele>823.5754</ele><time>2026-07-20T22:00:14.000Z</time></trkpt>
        <trkpt lat="29.564971" lon="103.421371"><ele>823.7902</ele><time>2026-07-20T22:00:16.000Z</time></trkpt>
        <trkpt lat="29.56501" lon="103.42137"><ele>822.7195</ele><time>2026-07-20T22:00:41.000Z</time></trkpt>
        <trkpt lat="29.56501" lon="103.421369"><ele>823.105</ele><time>2026-07-20T22:00:56.000Z</time></trkpt>
        <trkpt lat="29.56501" lon="103.421369"><ele>819.3951</ele><time>2026-07-20T22:01:11.000Z</time></trkpt>
        <trkpt lat="29.565044" lon="103.421368"><ele>823.29877</ele><time>2026-07-20T22:01:51.000Z</time></trkpt>
        <trkpt lat="29.565046" lon="103.421367"><ele>823.3256</ele><time>2026-07-20T22:01:53.000Z</time></trkpt>
        <trkpt lat="29.565051" lon="103.421364"><ele>823.61456</ele><time>2026-07-20T22:01:55.000Z</time></trkpt>
        <trkpt lat="29.565075" lon="103.421356"><ele>823.2146</ele><time>2026-07-20T22:02:05.000Z</time></trkpt>
        <trkpt lat="29.565083" lon="103.421354"><ele>823.7871</ele><time>2026-07-20T22:02:07.000Z</time></trkpt>
        <trkpt lat="29.565089" lon="103.421352"><ele>823.57916</ele><time>2026-07-20T22:02:09.000Z</time></trkpt>
        <trkpt lat="29.5651" lon="103.421346"><ele>823.8573</ele><time>2026-07-20T22:02:13.000Z</time></trkpt>
        <trkpt lat="29.565113" lon="103.42134"><ele>825.0825</ele><time>2026-07-20T22:02:17.000Z</time></trkpt>
        <trkpt lat="29.56512" lon="103.421337"><ele>826.7161</ele><time>2026-07-20T22:02:19.000Z</time></trkpt>
        <trkpt lat="29.565127" lon="103.421337"><ele>827.6403</ele><time>2026-07-20T22:02:21.000Z</time></trkpt>
        <trkpt lat="29.565141" lon="103.421339"><ele>828.03174</ele><time>2026-07-20T22:02:23.000Z</time></trkpt>
        <trkpt lat="29.565152" lon="103.421341"><ele>828.67487</ele><time>2026-07-20T22:02:28.000Z</time></trkpt>
        <trkpt lat="29.565166" lon="103.421341"><ele>827.59436</ele><time>2026-07-20T22:02:30.000Z</time></trkpt>
        <trkpt lat="29.565181" lon="103.421338"><ele>827.2438</ele><time>2026-07-20T22:02:32.000Z</time></trkpt>
        <trkpt lat="29.565195" lon="103.421334"><ele>827.5747</ele><time>2026-07-20T22:02:34.000Z</time></trkpt>
        <trkpt lat="29.565206" lon="103.421332"><ele>828.1031</ele><time>2026-07-20T22:02:36.000Z</time></trkpt>
        <trkpt lat="29.56521" lon="103.421328"><ele>828.504</ele><time>2026-07-20T22:02:38.000Z</time></trkpt>
        <trkpt lat="29.565222" lon="103.421313"><ele>828.02356</ele><time>2026-07-20T22:02:42.000Z</time></trkpt>
        <trkpt lat="29.565226" lon="103.421306"><ele>827.5745</ele><time>2026-07-20T22:02:45.000Z</time></trkpt>
        <trkpt lat="29.565231" lon="103.421294"><ele>826.8072</ele><time>2026-07-20T22:02:47.000Z</time></trkpt>
        <trkpt lat="29.565237" lon="103.42128"><ele>827.1811</ele><time>2026-07-20T22:02:49.000Z</time></trkpt>
        <trkpt lat="29.565243" lon="103.421276"><ele>827.8774</ele><time>2026-07-20T22:02:51.000Z</time></trkpt>
        <trkpt lat="29.565248" lon="103.421278"><ele>828.6296</ele><time>2026-07-20T22:02:55.000Z</time></trkpt>
        <trkpt lat="29.565266" lon="103.421285"><ele>829.54193</ele><time>2026-07-20T22:03:03.000Z</time></trkpt>
        <trkpt lat="29.565283" lon="103.421292"><ele>829.83777</ele><time>2026-07-20T22:03:05.000Z</time></trkpt>
        <trkpt lat="29.565284" lon="103.421292"><ele>830.1122</ele><time>2026-07-20T22:03:07.000Z</time></trkpt>
        <trkpt lat="29.565294" lon="103.421283"><ele>831</ele><time>2026-07-20T22:03:13.000Z</time></trkpt>
        <trkpt lat="29.565306" lon="103.421273"><ele>831.98724</ele><time>2026-07-20T22:03:17.000Z</time></trkpt>
        <trkpt lat="29.565307" lon="103.42127"><ele>831.98724</ele><time>2026-07-20T22:03:19.000Z</time></trkpt>
        <trkpt lat="29.565313" lon="103.421267"><ele>833.11896</ele><time>2026-07-20T22:03:23.000Z</time></trkpt>
        <trkpt lat="29.565332" lon="103.421268"><ele>836.10956</ele><time>2026-07-20T22:03:31.000Z</time></trkpt>
        <trkpt lat="29.565341" lon="103.42127"><ele>837.4428</ele><time>2026-07-20T22:03:33.000Z</time></trkpt>
        <trkpt lat="29.565342" lon="103.421269"><ele>838.1717</ele><time>2026-07-20T22:03:35.000Z</time></trkpt>
        <trkpt lat="29.565364" lon="103.421257"><ele>839.2234</ele><time>2026-07-20T22:03:43.000Z</time></trkpt>
        <trkpt lat="29.565382" lon="103.421247"><ele>839.14667</ele><time>2026-07-20T22:03:45.000Z</time></trkpt>
        <trkpt lat="29.565383" lon="103.421246"><ele>838.6998</ele><time>2026-07-20T22:03:47.000Z</time></trkpt>
        <trkpt lat="29.565384" lon="103.421242"><ele>836.70135</ele><time>2026-07-20T22:03:55.000Z</time></trkpt>
        <trkpt lat="29.565376" lon="103.421299"><ele>835.57825</ele><time>2026-07-20T22:04:16.000Z</time></trkpt>
        <trkpt lat="29.565374" lon="103.421343"><ele>834.80237</ele><time>2026-07-20T22:04:20.000Z</time></trkpt>
        <trkpt lat="29.565374" lon="103.421366"><ele>833.97656</ele><time>2026-07-20T22:04:22.000Z</time></trkpt>
        <trkpt lat="29.565374" lon="103.421367"><ele>833.6034</ele><time>2026-07-20T22:04:24.000Z</time></trkpt>
        <trkpt lat="29.565379" lon="103.421384"><ele>832.3216</ele><time>2026-07-20T22:04:28.000Z</time></trkpt>
        <trkpt lat="29.565386" lon="103.421399"><ele>832.79047</ele><time>2026-07-20T22:04:30.000Z</time></trkpt>
        <trkpt lat="29.565395" lon="103.421408"><ele>833.1601</ele><time>2026-07-20T22:04:32.000Z</time></trkpt>
        <trkpt lat="29.565398" lon="103.421407"><ele>833.0575</ele><time>2026-07-20T22:04:34.000Z</time></trkpt>
        <trkpt lat="29.565398" lon="103.4214"><ele>833.6561</ele><time>2026-07-20T22:04:38.000Z</time></trkpt>
        <trkpt lat="29.565399" lon="103.42136"><ele>833.38135</ele><time>2026-07-20T22:04:42.000Z</time></trkpt>
        <trkpt lat="29.565399" lon="103.42136"><ele>833.5429</ele><time>2026-07-20T22:04:44.000Z</time></trkpt>
        <trkpt lat="29.565399" lon="103.421359"><ele>833.4821</ele><time>2026-07-20T22:04:46.000Z</time></trkpt>
        <trkpt lat="29.565398" lon="103.421313"><ele>832.12384</ele><time>2026-07-20T22:04:52.000Z</time></trkpt>
        <trkpt lat="29.565396" lon="103.421295"><ele>832.9008</ele><time>2026-07-20T22:04:54.000Z</time></trkpt>
        <trkpt lat="29.565394" lon="103.421281"><ele>832.97003</ele><time>2026-07-20T22:04:56.000Z</time></trkpt>
        <trkpt lat="29.565392" lon="103.42127"><ele>833.2024</ele><time>2026-07-20T22:04:58.000Z</time></trkpt>
        <trkpt lat="29.56539" lon="103.421261"><ele>833.1188</ele><time>2026-07-20T22:05:00.000Z</time></trkpt>
        <trkpt lat="29.565388" lon="103.421256"><ele>833.859</ele><time>2026-07-20T22:05:02.000Z</time></trkpt>
        <trkpt lat="29.565382" lon="103.421247"><ele>837.0312</ele><time>2026-07-20T22:05:18.000Z</time></trkpt>
        <trkpt lat="29.56537" lon="103.421236"><ele>838.17615</ele><time>2026-07-20T22:05:33.000Z</time></trkpt>
        <trkpt lat="29.56537" lon="103.421234"><ele>839.8004</ele><time>2026-07-20T22:05:48.000Z</time></trkpt>
        <trkpt lat="29.565371" lon="103.42127"><ele>839.61316</ele><time>2026-07-20T22:06:01.000Z</time></trkpt>
        <trkpt lat="29.565371" lon="103.42127"><ele>838.7901</ele><time>2026-07-20T22:06:03.000Z</time></trkpt>
        <trkpt lat="29.565371" lon="103.42127"><ele>838.43774</ele><time>2026-07-20T22:06:05.000Z</time></trkpt>
        <trkpt lat="29.565397" lon="103.421272"><ele>833.9462</ele><time>2026-07-20T22:07:41.000Z</time></trkpt>
        <trkpt lat="29.565405" lon="103.421269"><ele>834.5077</ele><time>2026-07-20T22:07:43.000Z</time></trkpt>
        <trkpt lat="29.565407" lon="103.421265"><ele>834.4323</ele><time>2026-07-20T22:07:45.000Z</time></trkpt>
        <trkpt lat="29.565421" lon="103.42124"><ele>834.1575</ele><time>2026-07-20T22:07:47.000Z</time></trkpt>
        <trkpt lat="29.565422" lon="103.421239"><ele>835.30774</ele><time>2026-07-20T22:07:49.000Z</time></trkpt>
        <trkpt lat="29.565423" lon="103.421238"><ele>835.2567</ele><time>2026-07-20T22:07:51.000Z</time></trkpt>
        <trkpt lat="29.565448" lon="103.421229"><ele>835.8983</ele><time>2026-07-20T22:07:55.000Z</time></trkpt>
        <trkpt lat="29.565474" lon="103.421222"><ele>835.677</ele><time>2026-07-20T22:07:57.000Z</time></trkpt>
        <trkpt lat="29.565507" lon="103.421213"><ele>835.9485</ele><time>2026-07-20T22:07:59.000Z</time></trkpt>
        <trkpt lat="29.565539" lon="103.421205"><ele>835.5554</ele><time>2026-07-20T22:08:01.000Z</time></trkpt>
        <trkpt lat="29.565562" lon="103.421202"><ele>835.7082</ele><time>2026-07-20T22:08:03.000Z</time></trkpt>
        <trkpt lat="29.56558" lon="103.421204"><ele>836.27747</ele><time>2026-07-20T22:08:05.000Z</time></trkpt>
        <trkpt lat="29.565592" lon="103.421206"><ele>835.9606</ele><time>2026-07-20T22:08:07.000Z</time></trkpt>
        <trkpt lat="29.565596" lon="103.421212"><ele>834.92694</ele><time>2026-07-20T22:08:09.000Z</time></trkpt>
        <trkpt lat="29.565595" lon="103.42122"><ele>833.9724</ele><time>2026-07-20T22:08:13.000Z</time></trkpt>
        <trkpt lat="29.565591" lon="103.421257"><ele>834.41425</ele><time>2026-07-20T22:08:17.000Z</time></trkpt>
        <trkpt lat="29.565591" lon="103.421257"><ele>834.086</ele><time>2026-07-20T22:08:19.000Z</time></trkpt>
        <trkpt lat="29.56559" lon="103.421257"><ele>833.5579</ele><time>2026-07-20T22:08:21.000Z</time></trkpt>
        <trkpt lat="29.565617" lon="103.421261"><ele>832.5597</ele><time>2026-07-20T22:08:37.000Z</time></trkpt>
        <trkpt lat="29.565618" lon="103.421262"><ele>832.44763</ele><time>2026-07-20T22:08:39.000Z</time></trkpt>
        <trkpt lat="29.565621" lon="103.421263"><ele>832.15076</ele><time>2026-07-20T22:08:41.000Z</time></trkpt>
        <trkpt lat="29.565556" lon="103.421235"><ele>833.97314</ele><time>2026-07-20T22:11:49.000Z</time></trkpt>
        <trkpt lat="29.565533" lon="103.421224"><ele>834.48737</ele><time>2026-07-20T22:11:51.000Z</time></trkpt>
        <trkpt lat="29.56551" lon="103.421219"><ele>835.00665</ele><time>2026-07-20T22:11:53.000Z</time></trkpt>
        <trkpt lat="29.565486" lon="103.421213"><ele>836.06177</ele><time>2026-07-20T22:11:56.000Z</time></trkpt>
        <trkpt lat="29.565485" lon="103.421213"><ele>836.65924</ele><time>2026-07-20T22:11:58.000Z</time></trkpt>
        <trkpt lat="29.565477" lon="103.421216"><ele>837.5845</ele><time>2026-07-20T22:12:02.000Z</time></trkpt>
        <trkpt lat="29.565438" lon="103.421231"><ele>837.90686</ele><time>2026-07-20T22:12:06.000Z</time></trkpt>
        <trkpt lat="29.565416" lon="103.421245"><ele>837.2239</ele><time>2026-07-20T22:12:08.000Z</time></trkpt>
        <trkpt lat="29.565396" lon="103.421265"><ele>836.45306</ele><time>2026-07-20T22:12:10.000Z</time></trkpt>
        <trkpt lat="29.565381" lon="103.421289"><ele>835.26404</ele><time>2026-07-20T22:12:12.000Z</time></trkpt>
        <trkpt lat="29.565372" lon="103.421314"><ele>834.8269</ele><time>2026-07-20T22:12:14.000Z</time></trkpt>
        <trkpt lat="29.565371" lon="103.421341"><ele>835.0902</ele><time>2026-07-20T22:12:16.000Z</time></trkpt>
        <trkpt lat="29.565374" lon="103.421374"><ele>835.64355</ele><time>2026-07-20T22:12:18.000Z</time></trkpt>
        <trkpt lat="29.565378" lon="103.421405"><ele>835.24335</ele><time>2026-07-20T22:12:20.000Z</time></trkpt>
        <trkpt lat="29.565383" lon="103.421423"><ele>834.538</ele><time>2026-07-20T22:12:22.000Z</time></trkpt>
        <trkpt lat="29.565386" lon="103.421432"><ele>834.116</ele><time>2026-07-20T22:12:24.000Z</time></trkpt>
        <trkpt lat="29.565386" lon="103.421436"><ele>833.8505</ele><time>2026-07-20T22:12:26.000Z</time></trkpt>
        <trkpt lat="29.565396" lon="103.421391"><ele>834.1741</ele><time>2026-07-20T22:12:42.000Z</time></trkpt>
        <trkpt lat="29.565396" lon="103.421391"><ele>832.65326</ele><time>2026-07-20T22:12:44.000Z</time></trkpt>
        <trkpt lat="29.565395" lon="103.42139"><ele>833.0071</ele><time>2026-07-20T22:12:46.000Z</time></trkpt>
        <trkpt lat="29.565386" lon="103.421362"><ele>831.5526</ele><time>2026-07-20T22:12:52.000Z</time></trkpt>
        <trkpt lat="29.565385" lon="103.421356"><ele>831.5498</ele><time>2026-07-20T22:12:54.000Z</time></trkpt>
        <trkpt lat="29.565385" lon="103.421353"><ele>831.5498</ele><time>2026-07-20T22:12:56.000Z</time></trkpt>
        <trkpt lat="29.56539" lon="103.421312"><ele>833.0104</ele><time>2026-07-20T22:13:10.000Z</time></trkpt>
        <trkpt lat="29.565392" lon="103.421293"><ele>833.60394</ele><time>2026-07-20T22:13:12.000Z</time></trkpt>
        <trkpt lat="29.565393" lon="103.421292"><ele>833.5265</ele><time>2026-07-20T22:13:14.000Z</time></trkpt>
        <trkpt lat="29.565402" lon="103.421274"><ele>836.47455</ele><time>2026-07-20T22:13:20.000Z</time></trkpt>
        <trkpt lat="29.565406" lon="103.421273"><ele>838.05066</ele><time>2026-07-20T22:13:22.000Z</time></trkpt>
        <trkpt lat="29.56542" lon="103.421264"><ele>838.96765</ele><time>2026-07-20T22:13:24.000Z</time></trkpt>
        <trkpt lat="29.565429" lon="103.42126"><ele>838.6812</ele><time>2026-07-20T22:13:32.000Z</time></trkpt>
        <trkpt lat="29.565452" lon="103.421247"><ele>839.02045</ele><time>2026-07-20T22:13:34.000Z</time></trkpt>
        <trkpt lat="29.565453" lon="103.421246"><ele>837.9055</ele><time>2026-07-20T22:13:36.000Z</time></trkpt>
        <trkpt lat="29.565455" lon="103.421245"><ele>838.3569</ele><time>2026-07-20T22:13:38.000Z</time></trkpt>
        <trkpt lat="29.565481" lon="103.421232"><ele>837.5875</ele><time>2026-07-20T22:13:42.000Z</time></trkpt>
        <trkpt lat="29.565501" lon="103.421223"><ele>837.9433</ele><time>2026-07-20T22:13:44.000Z</time></trkpt>
        <trkpt lat="29.565522" lon="103.421213"><ele>838.2449</ele><time>2026-07-20T22:13:46.000Z</time></trkpt>
        <trkpt lat="29.565535" lon="103.421206"><ele>837.86816</ele><time>2026-07-20T22:13:48.000Z</time></trkpt>
        <trkpt lat="29.565542" lon="103.421201"><ele>837.95917</ele><time>2026-07-20T22:13:50.000Z</time></trkpt>
        <trkpt lat="29.565547" lon="103.421197"><ele>838.00256</ele><time>2026-07-20T22:13:52.000Z</time></trkpt>
        <trkpt lat="29.565563" lon="103.421182"><ele>838.6644</ele><time>2026-07-20T22:13:56.000Z</time></trkpt>
        <trkpt lat="29.565565" lon="103.421181"><ele>837.5603</ele><time>2026-07-20T22:14:00.000Z</time></trkpt>
        <trkpt lat="29.565574" lon="103.421176"><ele>837.679</ele><time>2026-07-20T22:14:02.000Z</time></trkpt>
        <trkpt lat="29.565594" lon="103.421166"><ele>838.2316</ele><time>2026-07-20T22:14:04.000Z</time></trkpt>
        <trkpt lat="29.56562" lon="103.421155"><ele>837.5733</ele><time>2026-07-20T22:14:06.000Z</time></trkpt>
        <trkpt lat="29.565645" lon="103.421145"><ele>838.0289</ele><time>2026-07-20T22:14:08.000Z</time></trkpt>
        <trkpt lat="29.565667" lon="103.421141"><ele>839.5623</ele><time>2026-07-20T22:14:10.000Z</time></trkpt>
        <trkpt lat="29.565685" lon="103.421141"><ele>840.1568</ele><time>2026-07-20T22:14:12.000Z</time></trkpt>
        <trkpt lat="29.565701" lon="103.421144"><ele>840.1856</ele><time>2026-07-20T22:14:14.000Z</time></trkpt>
        <trkpt lat="29.565719" lon="103.421149"><ele>841.0191</ele><time>2026-07-20T22:14:16.000Z</time></trkpt>
        <trkpt lat="29.565731" lon="103.421155"><ele>842.0436</ele><time>2026-07-20T22:14:18.000Z</time></trkpt>
        <trkpt lat="29.565731" lon="103.421155"><ele>842.09</ele><time>2026-07-20T22:14:20.000Z</time></trkpt>
        <trkpt lat="29.565719" lon="103.421185"><ele>845.14703</ele><time>2026-07-20T22:14:40.000Z</time></trkpt>
        <trkpt lat="29.565719" lon="103.421188"><ele>844.83075</ele><time>2026-07-20T22:14:42.000Z</time></trkpt>
        <trkpt lat="29.56572" lon="103.421188"><ele>845.1685</ele><time>2026-07-20T22:14:44.000Z</time></trkpt>
        <trkpt lat="29.565762" lon="103.421195"><ele>845.3886</ele><time>2026-07-20T22:14:48.000Z</time></trkpt>
        <trkpt lat="29.565762" lon="103.421195"><ele>845.954</ele><time>2026-07-20T22:14:50.000Z</time></trkpt>
        <trkpt lat="29.565765" lon="103.421194"><ele>846.6297</ele><time>2026-07-20T22:14:52.000Z</time></trkpt>
        <trkpt lat="29.565799" lon="103.421181"><ele>846.12366</ele><time>2026-07-20T22:14:56.000Z</time></trkpt>
        <trkpt lat="29.565822" lon="103.421172"><ele>845.3955</ele><time>2026-07-20T22:14:58.000Z</time></trkpt>
        <trkpt lat="29.565845" lon="103.421165"><ele>846.165</ele><time>2026-07-20T22:15:00.000Z</time></trkpt>
        <trkpt lat="29.565868" lon="103.421161"><ele>845.7693</ele><time>2026-07-20T22:15:02.000Z</time></trkpt>
        <trkpt lat="29.565887" lon="103.421162"><ele>846.1084</ele><time>2026-07-20T22:15:04.000Z</time></trkpt>
        <trkpt lat="29.565905" lon="103.421167"><ele>847.0592</ele><time>2026-07-20T22:15:06.000Z</time></trkpt>
        <trkpt lat="29.565924" lon="103.421173"><ele>846.6947</ele><time>2026-07-20T22:15:08.000Z</time></trkpt>
        <trkpt lat="29.565944" lon="103.421181"><ele>846.5829</ele><time>2026-07-20T22:15:10.000Z</time></trkpt>
        <trkpt lat="29.565963" lon="103.421191"><ele>847.0474</ele><time>2026-07-20T22:15:12.000Z</time></trkpt>
        <trkpt lat="29.565977" lon="103.4212"><ele>847.4618</ele><time>2026-07-20T22:15:14.000Z</time></trkpt>
        <trkpt lat="29.565989" lon="103.421205"><ele>847.4074</ele><time>2026-07-20T22:15:16.000Z</time></trkpt>
        <trkpt lat="29.566002" lon="103.42121"><ele>847.39557</ele><time>2026-07-20T22:15:18.000Z</time></trkpt>
        <trkpt lat="29.566013" lon="103.421211"><ele>848.64813</ele><time>2026-07-20T22:15:20.000Z</time></trkpt>
        <trkpt lat="29.566018" lon="103.421212"><ele>848.86865</ele><time>2026-07-20T22:15:22.000Z</time></trkpt>
        <trkpt lat="29.566039" lon="103.421216"><ele>851.72723</ele><time>2026-07-20T22:15:26.000Z</time></trkpt>
        <trkpt lat="29.566048" lon="103.421217"><ele>852.3173</ele><time>2026-07-20T22:15:28.000Z</time></trkpt>
        <trkpt lat="29.566057" lon="103.421216"><ele>852.26404</ele><time>2026-07-20T22:15:30.000Z</time></trkpt>
        <trkpt lat="29.566066" lon="103.421209"><ele>849.86774</ele><time>2026-07-20T22:15:34.000Z</time></trkpt>
        <trkpt lat="29.566079" lon="103.421197"><ele>848.2228</ele><time>2026-07-20T22:15:38.000Z</time></trkpt>
        <trkpt lat="29.56608" lon="103.42119"><ele>847.605</ele><time>2026-07-20T22:15:40.000Z</time></trkpt>
        <trkpt lat="29.566083" lon="103.421164"><ele>848.05206</ele><time>2026-07-20T22:15:42.000Z</time></trkpt>
        <trkpt lat="29.566084" lon="103.421164"><ele>848.6337</ele><time>2026-07-20T22:15:44.000Z</time></trkpt>
        <trkpt lat="29.566106" lon="103.421157"><ele>846.46875</ele><time>2026-07-20T22:15:50.000Z</time></trkpt>
        <trkpt lat="29.566123" lon="103.421148"><ele>846.7788</ele><time>2026-07-20T22:15:52.000Z</time></trkpt>
        <trkpt lat="29.566141" lon="103.421139"><ele>846.27637</ele><time>2026-07-20T22:15:54.000Z</time></trkpt>
        <trkpt lat="29.566157" lon="103.421134"><ele>845.54865</ele><time>2026-07-20T22:15:56.000Z</time></trkpt>
        <trkpt lat="29.566171" lon="103.421131"><ele>845.46436</ele><time>2026-07-20T22:15:58.000Z</time></trkpt>
        <trkpt lat="29.566181" lon="103.421129"><ele>846.6596</ele><time>2026-07-20T22:16:00.000Z</time></trkpt>
        <trkpt lat="29.566189" lon="103.421125"><ele>846.7444</ele><time>2026-07-20T22:16:02.000Z</time></trkpt>
        <trkpt lat="29.566197" lon="103.42112"><ele>847.5584</ele><time>2026-07-20T22:16:04.000Z</time></trkpt>
        <trkpt lat="29.566206" lon="103.421113"><ele>847.4738</ele><time>2026-07-20T22:16:06.000Z</time></trkpt>
        <trkpt lat="29.566215" lon="103.421105"><ele>847.133</ele><time>2026-07-20T22:16:08.000Z</time></trkpt>
        <trkpt lat="29.566223" lon="103.421094"><ele>847.2646</ele><time>2026-07-20T22:16:10.000Z</time></trkpt>
        <trkpt lat="29.566231" lon="103.421081"><ele>848.2667</ele><time>2026-07-20T22:16:12.000Z</time></trkpt>
        <trkpt lat="29.566237" lon="103.421069"><ele>849.61676</ele><time>2026-07-20T22:16:14.000Z</time></trkpt>
        <trkpt lat="29.566242" lon="103.421054"><ele>849.84326</ele><time>2026-07-20T22:16:16.000Z</time></trkpt>
        <trkpt lat="29.566249" lon="103.42103"><ele>849.0129</ele><time>2026-07-20T22:16:18.000Z</time></trkpt>
        <trkpt lat="29.566252" lon="103.42101"><ele>849.2624</ele><time>2026-07-20T22:16:20.000Z</time></trkpt>
        <trkpt lat="29.566256" lon="103.420991"><ele>850.0667</ele><time>2026-07-20T22:16:22.000Z</time></trkpt>
        <trkpt lat="29.566261" lon="103.420971"><ele>850.0379</ele><time>2026-07-20T22:16:24.000Z</time></trkpt>
        <trkpt lat="29.56627" lon="103.420947"><ele>851.3235</ele><time>2026-07-20T22:16:26.000Z</time></trkpt>
        <trkpt lat="29.566281" lon="103.420926"><ele>851.2855</ele><time>2026-07-20T22:16:28.000Z</time></trkpt>
        <trkpt lat="29.566289" lon="103.420909"><ele>851.21814</ele><time>2026-07-20T22:16:30.000Z</time></trkpt>
        <trkpt lat="29.566293" lon="103.420895"><ele>851.6169</ele><time>2026-07-20T22:16:32.000Z</time></trkpt>
        <trkpt lat="29.566294" lon="103.420887"><ele>850.5595</ele><time>2026-07-20T22:16:34.000Z</time></trkpt>
        <trkpt lat="29.566298" lon="103.420871"><ele>850.2417</ele><time>2026-07-20T22:16:38.000Z</time></trkpt>
        <trkpt lat="29.566302" lon="103.420859"><ele>849.9638</ele><time>2026-07-20T22:16:40.000Z</time></trkpt>
        <trkpt lat="29.566302" lon="103.420858"><ele>849.51917</ele><time>2026-07-20T22:16:42.000Z</time></trkpt>
        <trkpt lat="29.566318" lon="103.420827"><ele>847.52594</ele><time>2026-07-20T22:16:48.000Z</time></trkpt>
        <trkpt lat="29.566329" lon="103.420801"><ele>846.83105</ele><time>2026-07-20T22:16:50.000Z</time></trkpt>
        <trkpt lat="29.566334" lon="103.420779"><ele>846.7121</ele><time>2026-07-20T22:16:52.000Z</time></trkpt>
        <trkpt lat="29.566338" lon="103.420757"><ele>846.9915</ele><time>2026-07-20T22:16:54.000Z</time></trkpt>
        <trkpt lat="29.566342" lon="103.420737"><ele>846.557</ele><time>2026-07-20T22:16:56.000Z</time></trkpt>
        <trkpt lat="29.566345" lon="103.420718"><ele>846.4978</ele><time>2026-07-20T22:16:58.000Z</time></trkpt>
        <trkpt lat="29.566347" lon="103.420701"><ele>846.2749</ele><time>2026-07-20T22:17:00.000Z</time></trkpt>
        <trkpt lat="29.566349" lon="103.42069"><ele>845.60846</ele><time>2026-07-20T22:17:02.000Z</time></trkpt>
        <trkpt lat="29.566349" lon="103.420684"><ele>846.0569</ele><time>2026-07-20T22:17:04.000Z</time></trkpt>
        <trkpt lat="29.566352" lon="103.420653"><ele>848.5983</ele><time>2026-07-20T22:17:14.000Z</time></trkpt>
        <trkpt lat="29.566355" lon="103.420633"><ele>848.7872</ele><time>2026-07-20T22:17:16.000Z</time></trkpt>
        <trkpt lat="29.566355" lon="103.420631"><ele>848.47894</ele><time>2026-07-20T22:17:18.000Z</time></trkpt>
        <trkpt lat="29.566358" lon="103.420618"><ele>848.15094</ele><time>2026-07-20T22:17:22.000Z</time></trkpt>
        <trkpt lat="29.566362" lon="103.420597"><ele>847.47626</ele><time>2026-07-20T22:17:24.000Z</time></trkpt>
        <trkpt lat="29.566366" lon="103.420572"><ele>846.7987</ele><time>2026-07-20T22:17:26.000Z</time></trkpt>
        <trkpt lat="29.566371" lon="103.420551"><ele>845.875</ele><time>2026-07-20T22:17:28.000Z</time></trkpt>
        <trkpt lat="29.566378" lon="103.420529"><ele>845.28503</ele><time>2026-07-20T22:17:30.000Z</time></trkpt>
        <trkpt lat="29.566386" lon="103.420509"><ele>844.54065</ele><time>2026-07-20T22:17:32.000Z</time></trkpt>
        <trkpt lat="29.566395" lon="103.42049"><ele>844.84784</ele><time>2026-07-20T22:17:34.000Z</time></trkpt>
        <trkpt lat="29.566404" lon="103.420475"><ele>844.1886</ele><time>2026-07-20T22:17:36.000Z</time></trkpt>
        <trkpt lat="29.566416" lon="103.420461"><ele>844.54443</ele><time>2026-07-20T22:17:38.000Z</time></trkpt>
        <trkpt lat="29.566427" lon="103.420452"><ele>844.131</ele><time>2026-07-20T22:17:40.000Z</time></trkpt>
        <trkpt lat="29.566437" lon="103.420445"><ele>844.78217</ele><time>2026-07-20T22:17:42.000Z</time></trkpt>
        <trkpt lat="29.566447" lon="103.420437"><ele>844.75824</ele><time>2026-07-20T22:17:44.000Z</time></trkpt>
        <trkpt lat="29.56646" lon="103.420425"><ele>844.122</ele><time>2026-07-20T22:17:46.000Z</time></trkpt>
        <trkpt lat="29.566471" lon="103.420414"><ele>843.714</ele><time>2026-07-20T22:17:48.000Z</time></trkpt>
        <trkpt lat="29.566483" lon="103.420399"><ele>843.5385</ele><time>2026-07-20T22:17:50.000Z</time></trkpt>
        <trkpt lat="29.566498" lon="103.420382"><ele>844.1283</ele><time>2026-07-20T22:17:52.000Z</time></trkpt>
        <trkpt lat="29.566511" lon="103.420363"><ele>844.797</ele><time>2026-07-20T22:17:54.000Z</time></trkpt>
        <trkpt lat="29.566524" lon="103.420341"><ele>845.10315</ele><time>2026-07-20T22:17:56.000Z</time></trkpt>
        <trkpt lat="29.566537" lon="103.420316"><ele>845.8184</ele><time>2026-07-20T22:17:58.000Z</time></trkpt>
        <trkpt lat="29.566548" lon="103.420292"><ele>846.18616</ele><time>2026-07-20T22:18:00.000Z</time></trkpt>
        <trkpt lat="29.566557" lon="103.420269"><ele>845.85114</ele><time>2026-07-20T22:18:02.000Z</time></trkpt>
        <trkpt lat="29.566568" lon="103.420248"><ele>844.81744</ele><time>2026-07-20T22:18:04.000Z</time></trkpt>
        <trkpt lat="29.56658" lon="103.42023"><ele>844.17004</ele><time>2026-07-20T22:18:06.000Z</time></trkpt>
        <trkpt lat="29.566593" lon="103.420213"><ele>843.3848</ele><time>2026-07-20T22:18:08.000Z</time></trkpt>
        <trkpt lat="29.566608" lon="103.420196"><ele>843.12616</ele><time>2026-07-20T22:18:10.000Z</time></trkpt>
        <trkpt lat="29.566623" lon="103.420179"><ele>843.2373</ele><time>2026-07-20T22:18:12.000Z</time></trkpt>
        <trkpt lat="29.566636" lon="103.42016"><ele>842.5509</ele><time>2026-07-20T22:18:14.000Z</time></trkpt>
        <trkpt lat="29.566646" lon="103.420142"><ele>842.21704</ele><time>2026-07-20T22:18:16.000Z</time></trkpt>
        <trkpt lat="29.566655" lon="103.420123"><ele>842.4983</ele><time>2026-07-20T22:18:18.000Z</time></trkpt>
        <trkpt lat="29.566662" lon="103.420105"><ele>843.24915</ele><time>2026-07-20T22:18:20.000Z</time></trkpt>
        <trkpt lat="29.566667" lon="103.420083"><ele>842.9571</ele><time>2026-07-20T22:18:22.000Z</time></trkpt>
        <trkpt lat="29.56667" lon="103.420063"><ele>843.38245</ele><time>2026-07-20T22:18:24.000Z</time></trkpt>
        <trkpt lat="29.56667" lon="103.42004"><ele>842.92633</ele><time>2026-07-20T22:18:26.000Z</time></trkpt>
        <trkpt lat="29.56667" lon="103.42002"><ele>843.6351</ele><time>2026-07-20T22:18:28.000Z</time></trkpt>
        <trkpt lat="29.566668" lon="103.42"><ele>844.3601</ele><time>2026-07-20T22:18:30.000Z</time></trkpt>
        <trkpt lat="29.566667" lon="103.419977"><ele>844.3713</ele><time>2026-07-20T22:18:32.000Z</time></trkpt>
        <trkpt lat="29.56667" lon="103.419953"><ele>844.77014</ele><time>2026-07-20T22:18:34.000Z</time></trkpt>
        <trkpt lat="29.566676" lon="103.419929"><ele>845.13605</ele><time>2026-07-20T22:18:36.000Z</time></trkpt>
        <trkpt lat="29.566685" lon="103.419909"><ele>846.01855</ele><time>2026-07-20T22:18:38.000Z</time></trkpt>
        <trkpt lat="29.566696" lon="103.419893"><ele>846.9761</ele><time>2026-07-20T22:18:40.000Z</time></trkpt>
        <trkpt lat="29.566708" lon="103.419879"><ele>848.40485</ele><time>2026-07-20T22:18:42.000Z</time></trkpt>
        <trkpt lat="29.566721" lon="103.419864"><ele>849.268</ele><time>2026-07-20T22:18:44.000Z</time></trkpt>
        <trkpt lat="29.566734" lon="103.419857"><ele>847.5409</ele><time>2026-07-20T22:18:46.000Z</time></trkpt>
        <trkpt lat="29.566748" lon="103.419854"><ele>848.2144</ele><time>2026-07-20T22:18:48.000Z</time></trkpt>
        <trkpt lat="29.566762" lon="103.419855"><ele>848.98535</ele><time>2026-07-20T22:18:50.000Z</time></trkpt>
        <trkpt lat="29.566772" lon="103.419857"><ele>848.947</ele><time>2026-07-20T22:18:52.000Z</time></trkpt>
        <trkpt lat="29.566777" lon="103.419857"><ele>849.64514</ele><time>2026-07-20T22:18:54.000Z</time></trkpt>
        <trkpt lat="29.566787" lon="103.419868"><ele>851.3782</ele><time>2026-07-20T22:19:06.000Z</time></trkpt>
        <trkpt lat="29.5668" lon="103.419878"><ele>852.38245</ele><time>2026-07-20T22:19:22.000Z</time></trkpt>
        <trkpt lat="29.566836" lon="103.419904"><ele>851.526</ele><time>2026-07-20T22:19:24.000Z</time></trkpt>
        <trkpt lat="29.566838" lon="103.419906"><ele>850.6146</ele><time>2026-07-20T22:19:26.000Z</time></trkpt>
        <trkpt lat="29.566874" lon="103.419921"><ele>850.04285</ele><time>2026-07-20T22:19:29.000Z</time></trkpt>
        <trkpt lat="29.566874" lon="103.419921"><ele>849.9874</ele><time>2026-07-20T22:19:31.000Z</time></trkpt>
        <trkpt lat="29.566876" lon="103.419923"><ele>850.73627</ele><time>2026-07-20T22:19:33.000Z</time></trkpt>
        <trkpt lat="29.56691" lon="103.419951"><ele>852.04047</ele><time>2026-07-20T22:19:39.000Z</time></trkpt>
        <trkpt lat="29.566922" lon="103.419961"><ele>852.5467</ele><time>2026-07-20T22:19:41.000Z</time></trkpt>
        <trkpt lat="29.566933" lon="103.41997"><ele>853.79846</ele><time>2026-07-20T22:19:43.000Z</time></trkpt>
        <trkpt lat="29.56694" lon="103.419976"><ele>853.57404</ele><time>2026-07-20T22:19:45.000Z</time></trkpt>
        <trkpt lat="29.566946" lon="103.419985"><ele>854.77576</ele><time>2026-07-20T22:19:47.000Z</time></trkpt>
        <trkpt lat="29.566951" lon="103.41999"><ele>854.4398</ele><time>2026-07-20T22:19:51.000Z</time></trkpt>
        <trkpt lat="29.566958" lon="103.419997"><ele>855.4346</ele><time>2026-07-20T22:19:55.000Z</time></trkpt>
        <trkpt lat="29.566969" lon="103.420008"><ele>855.0427</ele><time>2026-07-20T22:19:59.000Z</time></trkpt>
        <trkpt lat="29.566975" lon="103.420014"><ele>855.09393</ele><time>2026-07-20T22:20:01.000Z</time></trkpt>
        <trkpt lat="29.56698" lon="103.420019"><ele>855.8456</ele><time>2026-07-20T22:20:03.000Z</time></trkpt>
        <trkpt lat="29.566985" lon="103.420024"><ele>856.3168</ele><time>2026-07-20T22:20:05.000Z</time></trkpt>
        <trkpt lat="29.566989" lon="103.42003"><ele>856.24066</ele><time>2026-07-20T22:20:07.000Z</time></trkpt>
        <trkpt lat="29.567022" lon="103.420088"><ele>862.0464</ele><time>2026-07-20T22:20:24.000Z</time></trkpt>
        <trkpt lat="29.567034" lon="103.420109"><ele>863.3278</ele><time>2026-07-20T22:20:26.000Z</time></trkpt>
        <trkpt lat="29.567034" lon="103.42011"><ele>863.6984</ele><time>2026-07-20T22:20:28.000Z</time></trkpt>
        <trkpt lat="29.567034" lon="103.420126"><ele>863.6742</ele><time>2026-07-20T22:20:32.000Z</time></trkpt>
        <trkpt lat="29.567035" lon="103.420149"><ele>863.57904</ele><time>2026-07-20T22:20:34.000Z</time></trkpt>
        <trkpt lat="29.567034" lon="103.420179"><ele>863.2965</ele><time>2026-07-20T22:20:36.000Z</time></trkpt>
        <trkpt lat="29.567031" lon="103.420207"><ele>864.0397</ele><time>2026-07-20T22:20:38.000Z</time></trkpt>
        <trkpt lat="29.567029" lon="103.42023"><ele>864.3944</ele><time>2026-07-20T22:20:40.000Z</time></trkpt>
        <trkpt lat="29.567027" lon="103.42025"><ele>865.1784</ele><time>2026-07-20T22:20:42.000Z</time></trkpt>
        <trkpt lat="29.567025" lon="103.420271"><ele>864.94183</ele><time>2026-07-20T22:20:44.000Z</time></trkpt>
        <trkpt lat="29.567025" lon="103.420287"><ele>865.74695</ele><time>2026-07-20T22:20:46.000Z</time></trkpt>
        <trkpt lat="29.567027" lon="103.420302"><ele>865.9499</ele><time>2026-07-20T22:20:48.000Z</time></trkpt>
        <trkpt lat="29.56703" lon="103.420316"><ele>865.8774</ele><time>2026-07-20T22:20:50.000Z</time></trkpt>
        <trkpt lat="29.567033" lon="103.420323"><ele>865.99677</ele><time>2026-07-20T22:20:52.000Z</time></trkpt>
        <trkpt lat="29.56704" lon="103.420329"><ele>865.2216</ele><time>2026-07-20T22:20:56.000Z</time></trkpt>
        <trkpt lat="29.56705" lon="103.42034"><ele>865.27966</ele><time>2026-07-20T22:21:00.000Z</time></trkpt>
        <trkpt lat="29.567055" lon="103.420348"><ele>865.99915</ele><time>2026-07-20T22:21:04.000Z</time></trkpt>
        <trkpt lat="29.567058" lon="103.420354"><ele>866.7338</ele><time>2026-07-20T22:21:06.000Z</time></trkpt>
        <trkpt lat="29.56707" lon="103.420373"><ele>866.6699</ele><time>2026-07-20T22:21:12.000Z</time></trkpt>
        <trkpt lat="29.567078" lon="103.420386"><ele>867.45233</ele><time>2026-07-20T22:21:14.000Z</time></trkpt>
        <trkpt lat="29.567078" lon="103.420386"><ele>867.5598</ele><time>2026-07-20T22:21:16.000Z</time></trkpt>
        <trkpt lat="29.567094" lon="103.420409"><ele>865.96027</ele><time>2026-07-20T22:21:24.000Z</time></trkpt>
        <trkpt lat="29.567103" lon="103.420423"><ele>866.107</ele><time>2026-07-20T22:21:26.000Z</time></trkpt>
        <trkpt lat="29.567104" lon="103.420424"><ele>867.0607</ele><time>2026-07-20T22:21:28.000Z</time></trkpt>
        <trkpt lat="29.567116" lon="103.42044"><ele>868.16315</ele><time>2026-07-20T22:21:34.000Z</time></trkpt>
        <trkpt lat="29.567124" lon="103.420449"><ele>869.0587</ele><time>2026-07-20T22:21:36.000Z</time></trkpt>
        <trkpt lat="29.567133" lon="103.420456"><ele>869.61835</ele><time>2026-07-20T22:21:38.000Z</time></trkpt>
        <trkpt lat="29.567142" lon="103.420462"><ele>870.1264</ele><time>2026-07-20T22:21:40.000Z</time></trkpt>
        <trkpt lat="29.567149" lon="103.420463"><ele>870.22424</ele><time>2026-07-20T22:21:42.000Z</time></trkpt>
        <trkpt lat="29.567167" lon="103.420467"><ele>870.86206</ele><time>2026-07-20T22:21:46.000Z</time></trkpt>
        <trkpt lat="29.567175" lon="103.42047"><ele>871.06354</ele><time>2026-07-20T22:21:48.000Z</time></trkpt>
        <trkpt lat="29.567183" lon="103.420472"><ele>871.5218</ele><time>2026-07-20T22:21:50.000Z</time></trkpt>
        <trkpt lat="29.567197" lon="103.42048"><ele>873.21484</ele><time>2026-07-20T22:21:54.000Z</time></trkpt>
        <trkpt lat="29.567209" lon="103.420487"><ele>873.9823</ele><time>2026-07-20T22:21:56.000Z</time></trkpt>
        <trkpt lat="29.56721" lon="103.420487"><ele>874.4206</ele><time>2026-07-20T22:21:58.000Z</time></trkpt>
        <trkpt lat="29.567233" lon="103.420478"><ele>874.4368</ele><time>2026-07-20T22:22:04.000Z</time></trkpt>
        <trkpt lat="29.567241" lon="103.420472"><ele>874.20886</ele><time>2026-07-20T22:22:06.000Z</time></trkpt>
        <trkpt lat="29.567252" lon="103.420464"><ele>873.94586</ele><time>2026-07-20T22:22:08.000Z</time></trkpt>
        <trkpt lat="29.567255" lon="103.42046"><ele>873.9969</ele><time>2026-07-20T22:22:18.000Z</time></trkpt>
        <trkpt lat="29.567258" lon="103.420462"><ele>874.7018</ele><time>2026-07-20T22:22:28.000Z</time></trkpt>
        <trkpt lat="29.567308" lon="103.420487"><ele>879.2896</ele><time>2026-07-20T22:22:44.000Z</time></trkpt>
        <trkpt lat="29.56732" lon="103.420493"><ele>878.88043</ele><time>2026-07-20T22:22:46.000Z</time></trkpt>
        <trkpt lat="29.567321" lon="103.420493"><ele>879.04254</ele><time>2026-07-20T22:22:48.000Z</time></trkpt>
        <trkpt lat="29.567352" lon="103.420476"><ele>877.6229</ele><time>2026-07-20T22:22:52.000Z</time></trkpt>
        <trkpt lat="29.567352" lon="103.420476"><ele>877.9693</ele><time>2026-07-20T22:22:54.000Z</time></trkpt>
        <trkpt lat="29.567353" lon="103.420476"><ele>879.1365</ele><time>2026-07-20T22:22:56.000Z</time></trkpt>
        <trkpt lat="29.567389" lon="103.420467"><ele>882.25275</ele><time>2026-07-20T22:23:04.000Z</time></trkpt>
        <trkpt lat="29.567397" lon="103.420466"><ele>883.0064</ele><time>2026-07-20T22:23:06.000Z</time></trkpt>
        <trkpt lat="29.567404" lon="103.420465"><ele>883.4942</ele><time>2026-07-20T22:23:08.000Z</time></trkpt>
        <trkpt lat="29.567415" lon="103.420462"><ele>883.43414</ele><time>2026-07-20T22:23:14.000Z</time></trkpt>
        <trkpt lat="29.567427" lon="103.420458"><ele>881.2153</ele><time>2026-07-20T22:23:18.000Z</time></trkpt>
        <trkpt lat="29.567432" lon="103.420454"><ele>880.9411</ele><time>2026-07-20T22:23:20.000Z</time></trkpt>
        <trkpt lat="29.567445" lon="103.420449"><ele>882.92505</ele><time>2026-07-20T22:23:26.000Z</time></trkpt>
        <trkpt lat="29.567465" lon="103.42044"><ele>882.4143</ele><time>2026-07-20T22:23:28.000Z</time></trkpt>
        <trkpt lat="29.567466" lon="103.42044"><ele>881.933</ele><time>2026-07-20T22:23:30.000Z</time></trkpt>
        <trkpt lat="29.567481" lon="103.420432"><ele>882.3031</ele><time>2026-07-20T22:23:36.000Z</time></trkpt>
        <trkpt lat="29.567495" lon="103.420424"><ele>882.3526</ele><time>2026-07-20T22:23:38.000Z</time></trkpt>
        <trkpt lat="29.567511" lon="103.420414"><ele>882.90265</ele><time>2026-07-20T22:23:40.000Z</time></trkpt>
        <trkpt lat="29.567526" lon="103.420409"><ele>881.9212</ele><time>2026-07-20T22:23:42.000Z</time></trkpt>
        <trkpt lat="29.567537" lon="103.420404"><ele>881.7124</ele><time>2026-07-20T22:23:44.000Z</time></trkpt>
        <trkpt lat="29.567544" lon="103.420402"><ele>881.53906</ele><time>2026-07-20T22:23:46.000Z</time></trkpt>
        <trkpt lat="29.567554" lon="103.420394"><ele>881.8831</ele><time>2026-07-20T22:23:50.000Z</time></trkpt>
        <trkpt lat="29.567566" lon="103.420386"><ele>883.27325</ele><time>2026-07-20T22:23:56.000Z</time></trkpt>
        <trkpt lat="29.56757" lon="103.420382"><ele>883.30853</ele><time>2026-07-20T22:23:58.000Z</time></trkpt>
        <trkpt lat="29.567581" lon="103.420375"><ele>884.8409</ele><time>2026-07-20T22:24:04.000Z</time></trkpt>
        <trkpt lat="29.567595" lon="103.42037"><ele>885.60284</ele><time>2026-07-20T22:24:14.000Z</time></trkpt>
        <trkpt lat="29.567602" lon="103.420368"><ele>885.43585</ele><time>2026-07-20T22:24:16.000Z</time></trkpt>
        <trkpt lat="29.567608" lon="103.420363"><ele>885.81256</ele><time>2026-07-20T22:24:18.000Z</time></trkpt>
        <trkpt lat="29.567623" lon="103.420356"><ele>889.2716</ele><time>2026-07-20T22:24:32.000Z</time></trkpt>
        <trkpt lat="29.567635" lon="103.42035"><ele>888.8938</ele><time>2026-07-20T22:24:36.000Z</time></trkpt>
        <trkpt lat="29.567639" lon="103.420349"><ele>889.377</ele><time>2026-07-20T22:24:38.000Z</time></trkpt>
        <trkpt lat="29.567663" lon="103.420345"><ele>888.4355</ele><time>2026-07-20T22:24:48.000Z</time></trkpt>
        <trkpt lat="29.56767" lon="103.420343"><ele>888.9564</ele><time>2026-07-20T22:24:50.000Z</time></trkpt>
        <trkpt lat="29.567674" lon="103.42034"><ele>888.9712</ele><time>2026-07-20T22:24:52.000Z</time></trkpt>
        <trkpt lat="29.567684" lon="103.420324"><ele>892.127</ele><time>2026-07-20T22:25:00.000Z</time></trkpt>
        <trkpt lat="29.567687" lon="103.420315"><ele>891.855</ele><time>2026-07-20T22:25:06.000Z</time></trkpt>
        <trkpt lat="29.567691" lon="103.420313"><ele>892.5925</ele><time>2026-07-20T22:25:08.000Z</time></trkpt>
        <trkpt lat="29.567716" lon="103.420302"><ele>893.7159</ele><time>2026-07-20T22:25:14.000Z</time></trkpt>
        <trkpt lat="29.567738" lon="103.420293"><ele>892.9591</ele><time>2026-07-20T22:25:16.000Z</time></trkpt>
        <trkpt lat="29.567739" lon="103.420292"><ele>893.19995</ele><time>2026-07-20T22:25:18.000Z</time></trkpt>
        <trkpt lat="29.567744" lon="103.420288"><ele>893.51013</ele><time>2026-07-20T22:25:22.000Z</time></trkpt>
        <trkpt lat="29.567767" lon="103.420264"><ele>895.13574</ele><time>2026-07-20T22:25:26.000Z</time></trkpt>
        <trkpt lat="29.567767" lon="103.420264"><ele>895.39606</ele><time>2026-07-20T22:25:28.000Z</time></trkpt>
        <trkpt lat="29.567768" lon="103.420264"><ele>893.9586</ele><time>2026-07-20T22:25:30.000Z</time></trkpt>
        <trkpt lat="29.567801" lon="103.420252"><ele>894.13214</ele><time>2026-07-20T22:25:36.000Z</time></trkpt>
        <trkpt lat="29.567811" lon="103.420247"><ele>893.7711</ele><time>2026-07-20T22:25:38.000Z</time></trkpt>
        <trkpt lat="29.567816" lon="103.420242"><ele>892.9899</ele><time>2026-07-20T22:25:40.000Z</time></trkpt>
        <trkpt lat="29.567828" lon="103.420232"><ele>894.4454</ele><time>2026-07-20T22:25:52.000Z</time></trkpt>
        <trkpt lat="29.567833" lon="103.420226"><ele>894.68744</ele><time>2026-07-20T22:25:54.000Z</time></trkpt>
        <trkpt lat="29.567841" lon="103.420221"><ele>895.28436</ele><time>2026-07-20T22:25:56.000Z</time></trkpt>
        <trkpt lat="29.567856" lon="103.420211"><ele>895.88525</ele><time>2026-07-20T22:26:00.000Z</time></trkpt>
        <trkpt lat="29.567862" lon="103.420208"><ele>895.68475</ele><time>2026-07-20T22:26:02.000Z</time></trkpt>
        <trkpt lat="29.567868" lon="103.420205"><ele>895.5109</ele><time>2026-07-20T22:26:04.000Z</time></trkpt>
        <trkpt lat="29.567884" lon="103.420196"><ele>895.66077</ele><time>2026-07-20T22:26:08.000Z</time></trkpt>
        <trkpt lat="29.567895" lon="103.42019"><ele>895.592</ele><time>2026-07-20T22:26:10.000Z</time></trkpt>
        <trkpt lat="29.567896" lon="103.42019"><ele>896.08954</ele><time>2026-07-20T22:26:12.000Z</time></trkpt>
        <trkpt lat="29.567909" lon="103.42018"><ele>896.5698</ele><time>2026-07-20T22:26:18.000Z</time></trkpt>
        <trkpt lat="29.567927" lon="103.420166"><ele>897.03937</ele><time>2026-07-20T22:26:20.000Z</time></trkpt>
        <trkpt lat="29.567929" lon="103.420165"><ele>897.2463</ele><time>2026-07-20T22:26:22.000Z</time></trkpt>
        <trkpt lat="29.567939" lon="103.420163"><ele>896.64026</ele><time>2026-07-20T22:26:26.000Z</time></trkpt>
        <trkpt lat="29.567967" lon="103.420159"><ele>898.1133</ele><time>2026-07-20T22:26:30.000Z</time></trkpt>
        <trkpt lat="29.567979" lon="103.420157"><ele>898.7258</ele><time>2026-07-20T22:26:32.000Z</time></trkpt>
        <trkpt lat="29.567988" lon="103.420154"><ele>900.6037</ele><time>2026-07-20T22:26:34.000Z</time></trkpt>
        <trkpt lat="29.567996" lon="103.420149"><ele>901.05743</ele><time>2026-07-20T22:26:38.000Z</time></trkpt>
        <trkpt lat="29.568009" lon="103.420143"><ele>901.68036</ele><time>2026-07-20T22:26:44.000Z</time></trkpt>
        <trkpt lat="29.568014" lon="103.420138"><ele>901.5656</ele><time>2026-07-20T22:26:46.000Z</time></trkpt>
        <trkpt lat="29.568029" lon="103.420133"><ele>902.6102</ele><time>2026-07-20T22:26:48.000Z</time></trkpt>
        <trkpt lat="29.568045" lon="103.42013"><ele>904.2103</ele><time>2026-07-20T22:26:56.000Z</time></trkpt>
        <trkpt lat="29.568057" lon="103.420128"><ele>904.71796</ele><time>2026-07-20T22:26:58.000Z</time></trkpt>
        <trkpt lat="29.568058" lon="103.420128"><ele>904.99664</ele><time>2026-07-20T22:27:00.000Z</time></trkpt>
        <trkpt lat="29.56808" lon="103.420126"><ele>907.66406</ele><time>2026-07-20T22:27:08.000Z</time></trkpt>
        <trkpt lat="29.568087" lon="103.420124"><ele>906.9331</ele><time>2026-07-20T22:27:10.000Z</time></trkpt>
        <trkpt lat="29.568094" lon="103.420121"><ele>906.92633</ele><time>2026-07-20T22:27:12.000Z</time></trkpt>
        <trkpt lat="29.568106" lon="103.420116"><ele>908.015</ele><time>2026-07-20T22:27:16.000Z</time></trkpt>
        <trkpt lat="29.568114" lon="103.420113"><ele>908.7859</ele><time>2026-07-20T22:27:20.000Z</time></trkpt>
        <trkpt lat="29.568127" lon="103.420112"><ele>909.544</ele><time>2026-07-20T22:27:24.000Z</time></trkpt>
        <trkpt lat="29.568148" lon="103.420108"><ele>909.9576</ele><time>2026-07-20T22:27:32.000Z</time></trkpt>
        <trkpt lat="29.568153" lon="103.420105"><ele>909.66626</ele><time>2026-07-20T22:27:34.000Z</time></trkpt>
        <trkpt lat="29.568158" lon="103.420107"><ele>910.03534</ele><time>2026-07-20T22:27:36.000Z</time></trkpt>
        <trkpt lat="29.568179" lon="103.420112"><ele>911.1951</ele><time>2026-07-20T22:27:46.000Z</time></trkpt>
        <trkpt lat="29.568181" lon="103.420111"><ele>911.99756</ele><time>2026-07-20T22:27:48.000Z</time></trkpt>
        <trkpt lat="29.568191" lon="103.420109"><ele>912.4143</ele><time>2026-07-20T22:27:52.000Z</time></trkpt>
        <trkpt lat="29.568211" lon="103.420108"><ele>912.75745</ele><time>2026-07-20T22:27:58.000Z</time></trkpt>
        <trkpt lat="29.568228" lon="103.420107"><ele>911.7611</ele><time>2026-07-20T22:28:00.000Z</time></trkpt>
        <trkpt lat="29.568229" lon="103.420107"><ele>912.1498</ele><time>2026-07-20T22:28:02.000Z</time></trkpt>
        <trkpt lat="29.56824" lon="103.420106"><ele>914.55023</ele><time>2026-07-20T22:28:08.000Z</time></trkpt>
        <trkpt lat="29.568255" lon="103.420105"><ele>915.61505</ele><time>2026-07-20T22:28:12.000Z</time></trkpt>
        <trkpt lat="29.568272" lon="103.420103"><ele>916.0104</ele><time>2026-07-20T22:28:14.000Z</time></trkpt>
        <trkpt lat="29.568273" lon="103.420103"><ele>916.14795</ele><time>2026-07-20T22:28:16.000Z</time></trkpt>
        <trkpt lat="29.568283" lon="103.420104"><ele>917.20984</ele><time>2026-07-20T22:28:20.000Z</time></trkpt>
        <trkpt lat="29.568315" lon="103.420106"><ele>916.6619</ele><time>2026-07-20T22:28:24.000Z</time></trkpt>
        <trkpt lat="29.56833" lon="103.420106"><ele>915.6443</ele><time>2026-07-20T22:28:26.000Z</time></trkpt>
        <trkpt lat="29.568343" lon="103.420106"><ele>915.9029</ele><time>2026-07-20T22:28:28.000Z</time></trkpt>
        <trkpt lat="29.568354" lon="103.420106"><ele>916.15265</ele><time>2026-07-20T22:28:30.000Z</time></trkpt>
        <trkpt lat="29.568363" lon="103.420106"><ele>917.2852</ele><time>2026-07-20T22:28:32.000Z</time></trkpt>
        <trkpt lat="29.568368" lon="103.420107"><ele>918.3759</ele><time>2026-07-20T22:28:36.000Z</time></trkpt>
        <trkpt lat="29.568382" lon="103.420112"><ele>921.6194</ele><time>2026-07-20T22:28:50.000Z</time></trkpt>
        <trkpt lat="29.568387" lon="103.420113"><ele>922.5598</ele><time>2026-07-20T22:28:52.000Z</time></trkpt>
        <trkpt lat="29.568392" lon="103.420111"><ele>923.28094</ele><time>2026-07-20T22:28:54.000Z</time></trkpt>
        <trkpt lat="29.56841" lon="103.420105"><ele>922.9338</ele><time>2026-07-20T22:29:00.000Z</time></trkpt>
        <trkpt lat="29.568416" lon="103.420101"><ele>924.4893</ele><time>2026-07-20T22:29:02.000Z</time></trkpt>
        <trkpt lat="29.568417" lon="103.420096"><ele>924.1531</ele><time>2026-07-20T22:29:04.000Z</time></trkpt>
        <trkpt lat="29.568426" lon="103.420087"><ele>925.21045</ele><time>2026-07-20T22:29:06.000Z</time></trkpt>
        <trkpt lat="29.568438" lon="103.420077"><ele>924.8499</ele><time>2026-07-20T22:29:14.000Z</time></trkpt>
        <trkpt lat="29.56845" lon="103.420067"><ele>925.45166</ele><time>2026-07-20T22:29:16.000Z</time></trkpt>
        <trkpt lat="29.568451" lon="103.420067"><ele>925.00214</ele><time>2026-07-20T22:29:18.000Z</time></trkpt>
        <trkpt lat="29.568466" lon="103.420067"><ele>925.9419</ele><time>2026-07-20T22:29:24.000Z</time></trkpt>
        <trkpt lat="29.568474" lon="103.420068"><ele>926.045</ele><time>2026-07-20T22:29:26.000Z</time></trkpt>
        <trkpt lat="29.568479" lon="103.42007"><ele>926.71857</ele><time>2026-07-20T22:29:28.000Z</time></trkpt>
        <trkpt lat="29.568495" lon="103.420077"><ele>927.73804</ele><time>2026-07-20T22:29:32.000Z</time></trkpt>
        <trkpt lat="29.568501" lon="103.42008"><ele>927.5918</ele><time>2026-07-20T22:29:34.000Z</time></trkpt>
        <trkpt lat="29.568522" lon="103.42009"><ele>927.5006</ele><time>2026-07-20T22:29:36.000Z</time></trkpt>
        <trkpt lat="29.568524" lon="103.42009"><ele>927.4341</ele><time>2026-07-20T22:29:38.000Z</time></trkpt>
        <trkpt lat="29.568526" lon="103.42009"><ele>926.7845</ele><time>2026-07-20T22:29:40.000Z</time></trkpt>
        <trkpt lat="29.568557" lon="103.420084"><ele>925.9235</ele><time>2026-07-20T22:29:44.000Z</time></trkpt>
        <trkpt lat="29.568572" lon="103.420081"><ele>925.7956</ele><time>2026-07-20T22:29:46.000Z</time></trkpt>
        <trkpt lat="29.568583" lon="103.42008"><ele>925.7956</ele><time>2026-07-20T22:29:48.000Z</time></trkpt>
        <trkpt lat="29.568589" lon="103.42008"><ele>925.7956</ele><time>2026-07-20T22:29:50.000Z</time></trkpt>
        <trkpt lat="29.568596" lon="103.42008"><ele>925.3249</ele><time>2026-07-20T22:29:52.000Z</time></trkpt>
        <trkpt lat="29.5686" lon="103.420085"><ele>926.26904</ele><time>2026-07-20T22:30:12.000Z</time></trkpt>
        <trkpt lat="29.568608" lon="103.420106"><ele>927.4517</ele><time>2026-07-20T22:30:23.000Z</time></trkpt>
        <trkpt lat="29.568609" lon="103.420111"><ele>927.3049</ele><time>2026-07-20T22:30:25.000Z</time></trkpt>
        <trkpt lat="29.568609" lon="103.420113"><ele>926.9789</ele><time>2026-07-20T22:30:27.000Z</time></trkpt>
        <trkpt lat="29.568618" lon="103.42008"><ele>926.93677</ele><time>2026-07-20T22:32:00.000Z</time></trkpt>
        <trkpt lat="29.56862" lon="103.420079"><ele>927.44885</ele><time>2026-07-20T22:32:02.000Z</time></trkpt>
        <trkpt lat="29.568624" lon="103.42008"><ele>927.4592</ele><time>2026-07-20T22:32:04.000Z</time></trkpt>
        <trkpt lat="29.568643" lon="103.420083"><ele>930.1198</ele><time>2026-07-20T22:32:10.000Z</time></trkpt>
        <trkpt lat="29.568653" lon="103.420081"><ele>930.91125</ele><time>2026-07-20T22:32:13.000Z</time></trkpt>
        <trkpt lat="29.568665" lon="103.420077"><ele>931.0015</ele><time>2026-07-20T22:32:15.000Z</time></trkpt>
        <trkpt lat="29.568666" lon="103.420077"><ele>930.8705</ele><time>2026-07-20T22:32:17.000Z</time></trkpt>
        <trkpt lat="29.568687" lon="103.420062"><ele>930.0605</ele><time>2026-07-20T22:32:23.000Z</time></trkpt>
        <trkpt lat="29.5687" lon="103.420053"><ele>929.94275</ele><time>2026-07-20T22:32:25.000Z</time></trkpt>
        <trkpt lat="29.568712" lon="103.420046"><ele>930.3273</ele><time>2026-07-20T22:32:27.000Z</time></trkpt>
        <trkpt lat="29.568723" lon="103.420042"><ele>930.4113</ele><time>2026-07-20T22:32:29.000Z</time></trkpt>
        <trkpt lat="29.568732" lon="103.420041"><ele>930.8805</ele><time>2026-07-20T22:32:31.000Z</time></trkpt>
        <trkpt lat="29.568745" lon="103.420041"><ele>931.9491</ele><time>2026-07-20T22:32:33.000Z</time></trkpt>
        <trkpt lat="29.568761" lon="103.420039"><ele>932.31824</ele><time>2026-07-20T22:32:35.000Z</time></trkpt>
        <trkpt lat="29.568773" lon="103.420035"><ele>932.1093</ele><time>2026-07-20T22:32:37.000Z</time></trkpt>
        <trkpt lat="29.568787" lon="103.420032"><ele>932.1671</ele><time>2026-07-20T22:32:39.000Z</time></trkpt>
        <trkpt lat="29.568803" lon="103.420028"><ele>931.50366</ele><time>2026-07-20T22:32:41.000Z</time></trkpt>
        <trkpt lat="29.568817" lon="103.420024"><ele>932.19116</ele><time>2026-07-20T22:32:43.000Z</time></trkpt>
        <trkpt lat="29.568833" lon="103.420019"><ele>932.83075</ele><time>2026-07-20T22:32:45.000Z</time></trkpt>
        <trkpt lat="29.568847" lon="103.420012"><ele>932.8076</ele><time>2026-07-20T22:32:47.000Z</time></trkpt>
        <trkpt lat="29.568857" lon="103.420005"><ele>932.5987</ele><time>2026-07-20T22:32:49.000Z</time></trkpt>
        <trkpt lat="29.568865" lon="103.419997"><ele>933.3574</ele><time>2026-07-20T22:32:51.000Z</time></trkpt>
        <trkpt lat="29.568876" lon="103.419988"><ele>933.1068</ele><time>2026-07-20T22:32:53.000Z</time></trkpt>
        <trkpt lat="29.568888" lon="103.419981"><ele>933.22076</ele><time>2026-07-20T22:32:55.000Z</time></trkpt>
        <trkpt lat="29.568899" lon="103.419975"><ele>933.68805</ele><time>2026-07-20T22:32:57.000Z</time></trkpt>
        <trkpt lat="29.568909" lon="103.419971"><ele>934.75037</ele><time>2026-07-20T22:32:59.000Z</time></trkpt>
        <trkpt lat="29.568919" lon="103.419967"><ele>934.72144</ele><time>2026-07-20T22:33:01.000Z</time></trkpt>
        <trkpt lat="29.568931" lon="103.419963"><ele>934.8098</ele><time>2026-07-20T22:33:03.000Z</time></trkpt>
        <trkpt lat="29.568943" lon="103.419958"><ele>934.20404</ele><time>2026-07-20T22:33:05.000Z</time></trkpt>
        <trkpt lat="29.568956" lon="103.419952"><ele>934.7565</ele><time>2026-07-20T22:33:07.000Z</time></trkpt>
        <trkpt lat="29.568971" lon="103.419943"><ele>935.63477</ele><time>2026-07-20T22:33:09.000Z</time></trkpt>
        <trkpt lat="29.568986" lon="103.419934"><ele>936.00275</ele><time>2026-07-20T22:33:11.000Z</time></trkpt>
        <trkpt lat="29.569003" lon="103.419926"><ele>936.39874</ele><time>2026-07-20T22:33:13.000Z</time></trkpt>
        <trkpt lat="29.569018" lon="103.41992"><ele>936.3785</ele><time>2026-07-20T22:33:15.000Z</time></trkpt>
        <trkpt lat="29.569032" lon="103.419914"><ele>936.58527</ele><time>2026-07-20T22:33:17.000Z</time></trkpt>
        <trkpt lat="29.569044" lon="103.419911"><ele>936.20557</ele><time>2026-07-20T22:33:19.000Z</time></trkpt>
        <trkpt lat="29.569056" lon="103.41991"><ele>937.0457</ele><time>2026-07-20T22:33:21.000Z</time></trkpt>
        <trkpt lat="29.569068" lon="103.41991"><ele>938.30835</ele><time>2026-07-20T22:33:23.000Z</time></trkpt>
        <trkpt lat="29.569082" lon="103.419909"><ele>938.55804</ele><time>2026-07-20T22:33:25.000Z</time></trkpt>
        <trkpt lat="29.569094" lon="103.419909"><ele>939.4157</ele><time>2026-07-20T22:33:27.000Z</time></trkpt>
        <trkpt lat="29.569107" lon="103.419908"><ele>939.13293</ele><time>2026-07-20T22:33:29.000Z</time></trkpt>
        <trkpt lat="29.56912" lon="103.419905"><ele>938.79364</ele><time>2026-07-20T22:33:31.000Z</time></trkpt>
        <trkpt lat="29.569131" lon="103.419898"><ele>938.2816</ele><time>2026-07-20T22:33:33.000Z</time></trkpt>
        <trkpt lat="29.569144" lon="103.419885"><ele>937.37805</ele><time>2026-07-20T22:33:35.000Z</time></trkpt>
        <trkpt lat="29.569159" lon="103.419871"><ele>933.7653</ele><time>2026-07-20T22:33:37.000Z</time></trkpt>
        <trkpt lat="29.569174" lon="103.419856"><ele>933.81134</ele><time>2026-07-20T22:33:39.000Z</time></trkpt>
        <trkpt lat="29.569189" lon="103.419842"><ele>932.0684</ele><time>2026-07-20T22:33:41.000Z</time></trkpt>
        <trkpt lat="29.569206" lon="103.419831"><ele>932.0674</ele><time>2026-07-20T22:33:43.000Z</time></trkpt>
        <trkpt lat="29.569221" lon="103.419822"><ele>932.185</ele><time>2026-07-20T22:33:45.000Z</time></trkpt>
        <trkpt lat="29.569234" lon="103.419816"><ele>932.821</ele><time>2026-07-20T22:33:47.000Z</time></trkpt>
        <trkpt lat="29.569243" lon="103.419812"><ele>933.4497</ele><time>2026-07-20T22:33:49.000Z</time></trkpt>
        <trkpt lat="29.569251" lon="103.419807"><ele>933.2651</ele><time>2026-07-20T22:33:51.000Z</time></trkpt>
        <trkpt lat="29.56926" lon="103.419802"><ele>932.42163</ele><time>2026-07-20T22:33:53.000Z</time></trkpt>
        <trkpt lat="29.569269" lon="103.419798"><ele>932.80005</ele><time>2026-07-20T22:33:55.000Z</time></trkpt>
        <trkpt lat="29.569279" lon="103.419793"><ele>932.93134</ele><time>2026-07-20T22:33:57.000Z</time></trkpt>
        <trkpt lat="29.569291" lon="103.419786"><ele>932.4117</ele><time>2026-07-20T22:33:59.000Z</time></trkpt>
        <trkpt lat="29.569305" lon="103.41978"><ele>932.20715</ele><time>2026-07-20T22:34:01.000Z</time></trkpt>
        <trkpt lat="29.569319" lon="103.419775"><ele>932.4263</ele><time>2026-07-20T22:34:03.000Z</time></trkpt>
        <trkpt lat="29.569332" lon="103.419771"><ele>931.8325</ele><time>2026-07-20T22:34:05.000Z</time></trkpt>
        <trkpt lat="29.569344" lon="103.419767"><ele>932.2882</ele><time>2026-07-20T22:34:07.000Z</time></trkpt>
        <trkpt lat="29.569355" lon="103.419763"><ele>932.18054</ele><time>2026-07-20T22:34:09.000Z</time></trkpt>
        <trkpt lat="29.569365" lon="103.41976"><ele>931.57825</ele><time>2026-07-20T22:34:11.000Z</time></trkpt>
        <trkpt lat="29.569374" lon="103.419754"><ele>931.47345</ele><time>2026-07-20T22:34:13.000Z</time></trkpt>
        <trkpt lat="29.569384" lon="103.419748"><ele>932.0159</ele><time>2026-07-20T22:34:15.000Z</time></trkpt>
        <trkpt lat="29.569397" lon="103.41974"><ele>931.9715</ele><time>2026-07-20T22:34:17.000Z</time></trkpt>
        <trkpt lat="29.569413" lon="103.41973"><ele>932.5381</ele><time>2026-07-20T22:34:19.000Z</time></trkpt>
        <trkpt lat="29.56943" lon="103.419719"><ele>932.39056</ele><time>2026-07-20T22:34:21.000Z</time></trkpt>
        <trkpt lat="29.569449" lon="103.419707"><ele>932.49097</ele><time>2026-07-20T22:34:23.000Z</time></trkpt>
        <trkpt lat="29.569469" lon="103.419691"><ele>932.83185</ele><time>2026-07-20T22:34:25.000Z</time></trkpt>
        <trkpt lat="29.569487" lon="103.419672"><ele>932.3967</ele><time>2026-07-20T22:34:27.000Z</time></trkpt>
        <trkpt lat="29.569503" lon="103.419653"><ele>932.4779</ele><time>2026-07-20T22:34:29.000Z</time></trkpt>
        <trkpt lat="29.569519" lon="103.419636"><ele>933.00745</ele><time>2026-07-20T22:34:31.000Z</time></trkpt>
        <trkpt lat="29.569534" lon="103.419619"><ele>932.9478</ele><time>2026-07-20T22:34:33.000Z</time></trkpt>
        <trkpt lat="29.569547" lon="103.419607"><ele>932.6118</ele><time>2026-07-20T22:34:35.000Z</time></trkpt>
        <trkpt lat="29.569557" lon="103.419598"><ele>932.7409</ele><time>2026-07-20T22:34:37.000Z</time></trkpt>
        <trkpt lat="29.569564" lon="103.419592"><ele>932.69977</ele><time>2026-07-20T22:34:39.000Z</time></trkpt>
        <trkpt lat="29.569567" lon="103.419588"><ele>932.88416</ele><time>2026-07-20T22:34:41.000Z</time></trkpt>
        <trkpt lat="29.569579" lon="103.419562"><ele>931.33746</ele><time>2026-07-20T22:34:51.000Z</time></trkpt>
        <trkpt lat="29.56959" lon="103.419538"><ele>931.2497</ele><time>2026-07-20T22:34:53.000Z</time></trkpt>
        <trkpt lat="29.569591" lon="103.419536"><ele>930.6943</ele><time>2026-07-20T22:34:55.000Z</time></trkpt>
        <trkpt lat="29.569595" lon="103.419531"><ele>930.9037</ele><time>2026-07-20T22:34:59.000Z</time></trkpt>
        <trkpt lat="29.569608" lon="103.419508"><ele>929.94104</ele><time>2026-07-20T22:35:05.000Z</time></trkpt>
        <trkpt lat="29.569607" lon="103.419507"><ele>930.21643</ele><time>2026-07-20T22:35:07.000Z</time></trkpt>
        <trkpt lat="29.56961" lon="103.419502"><ele>931.2815</ele><time>2026-07-20T22:35:17.000Z</time></trkpt>
        <trkpt lat="29.569628" lon="103.419475"><ele>932.7563</ele><time>2026-07-20T22:35:33.000Z</time></trkpt>
        <trkpt lat="29.569639" lon="103.419459"><ele>932.4049</ele><time>2026-07-20T22:35:35.000Z</time></trkpt>
        <trkpt lat="29.56964" lon="103.419458"><ele>931.7618</ele><time>2026-07-20T22:35:37.000Z</time></trkpt>
        <trkpt lat="29.569665" lon="103.41942"><ele>932.2266</ele><time>2026-07-20T22:35:40.000Z</time></trkpt>
        <trkpt lat="29.569665" lon="103.41942"><ele>932.6189</ele><time>2026-07-20T22:35:42.000Z</time></trkpt>
        <trkpt lat="29.569665" lon="103.419419"><ele>931.9107</ele><time>2026-07-20T22:35:44.000Z</time></trkpt>
        <trkpt lat="29.569691" lon="103.419383"><ele>932.20276</ele><time>2026-07-20T22:36:10.000Z</time></trkpt>
        <trkpt lat="29.569705" lon="103.419365"><ele>932.11786</ele><time>2026-07-20T22:36:12.000Z</time></trkpt>
        <trkpt lat="29.569706" lon="103.419364"><ele>931.49475</ele><time>2026-07-20T22:36:14.000Z</time></trkpt>
        <trkpt lat="29.569725" lon="103.41934"><ele>930.6064</ele><time>2026-07-20T22:36:20.000Z</time></trkpt>
        <trkpt lat="29.56974" lon="103.419321"><ele>930.5952</ele><time>2026-07-20T22:36:22.000Z</time></trkpt>
        <trkpt lat="29.569753" lon="103.4193"><ele>930.5483</ele><time>2026-07-20T22:36:24.000Z</time></trkpt>
        <trkpt lat="29.569764" lon="103.41928"><ele>930.02637</ele><time>2026-07-20T22:36:26.000Z</time></trkpt>
        <trkpt lat="29.569774" lon="103.419262"><ele>930.52026</ele><time>2026-07-20T22:36:28.000Z</time></trkpt>
        <trkpt lat="29.56978" lon="103.419245"><ele>929.81146</ele><time>2026-07-20T22:36:30.000Z</time></trkpt>
        <trkpt lat="29.569784" lon="103.419229"><ele>930.08</ele><time>2026-07-20T22:36:32.000Z</time></trkpt>
        <trkpt lat="29.569786" lon="103.419212"><ele>929.59326</ele><time>2026-07-20T22:36:34.000Z</time></trkpt>
        <trkpt lat="29.569787" lon="103.419198"><ele>929.1978</ele><time>2026-07-20T22:36:36.000Z</time></trkpt>
        <trkpt lat="29.569785" lon="103.419184"><ele>928.5825</ele><time>2026-07-20T22:36:38.000Z</time></trkpt>
        <trkpt lat="29.56978" lon="103.419171"><ele>928.4658</ele><time>2026-07-20T22:36:40.000Z</time></trkpt>
        <trkpt lat="29.569776" lon="103.419159"><ele>928.5261</ele><time>2026-07-20T22:36:42.000Z</time></trkpt>
        <trkpt lat="29.569771" lon="103.419145"><ele>929.24945</ele><time>2026-07-20T22:36:44.000Z</time></trkpt>
        <trkpt lat="29.569767" lon="103.41913"><ele>929.1421</ele><time>2026-07-20T22:36:46.000Z</time></trkpt>
        <trkpt lat="29.569763" lon="103.419116"><ele>928.7209</ele><time>2026-07-20T22:36:48.000Z</time></trkpt>
        <trkpt lat="29.569761" lon="103.4191"><ele>927.97424</ele><time>2026-07-20T22:36:50.000Z</time></trkpt>
        <trkpt lat="29.56976" lon="103.419087"><ele>927.58514</ele><time>2026-07-20T22:36:52.000Z</time></trkpt>
        <trkpt lat="29.569758" lon="103.419073"><ele>927.47473</ele><time>2026-07-20T22:36:54.000Z</time></trkpt>
        <trkpt lat="29.569757" lon="103.419059"><ele>927.3347</ele><time>2026-07-20T22:36:56.000Z</time></trkpt>
        <trkpt lat="29.569757" lon="103.419042"><ele>927.59283</ele><time>2026-07-20T22:36:58.000Z</time></trkpt>
        <trkpt lat="29.569757" lon="103.419022"><ele>928.0474</ele><time>2026-07-20T22:37:00.000Z</time></trkpt>
        <trkpt lat="29.569758" lon="103.419003"><ele>928.0293</ele><time>2026-07-20T22:37:02.000Z</time></trkpt>
        <trkpt lat="29.56976" lon="103.418985"><ele>928.1921</ele><time>2026-07-20T22:37:04.000Z</time></trkpt>
        <trkpt lat="29.569762" lon="103.418967"><ele>928.65063</ele><time>2026-07-20T22:37:06.000Z</time></trkpt>
        <trkpt lat="29.569766" lon="103.418951"><ele>928.01434</ele><time>2026-07-20T22:37:08.000Z</time></trkpt>
        <trkpt lat="29.569769" lon="103.418934"><ele>928.1166</ele><time>2026-07-20T22:37:10.000Z</time></trkpt>
        <trkpt lat="29.569773" lon="103.41892"><ele>928.12317</ele><time>2026-07-20T22:37:12.000Z</time></trkpt>
        <trkpt lat="29.569777" lon="103.418908"><ele>928.52966</ele><time>2026-07-20T22:37:14.000Z</time></trkpt>
        <trkpt lat="29.569782" lon="103.418895"><ele>929.3457</ele><time>2026-07-20T22:37:16.000Z</time></trkpt>
        <trkpt lat="29.569785" lon="103.418883"><ele>929.64453</ele><time>2026-07-20T22:37:18.000Z</time></trkpt>
        <trkpt lat="29.569787" lon="103.41887"><ele>928.9017</ele><time>2026-07-20T22:37:20.000Z</time></trkpt>
        <trkpt lat="29.569787" lon="103.418855"><ele>928.77686</ele><time>2026-07-20T22:37:22.000Z</time></trkpt>
        <trkpt lat="29.569788" lon="103.418839"><ele>927.9477</ele><time>2026-07-20T22:37:24.000Z</time></trkpt>
        <trkpt lat="29.569789" lon="103.418818"><ele>927.59814</ele><time>2026-07-20T22:37:26.000Z</time></trkpt>
        <trkpt lat="29.569789" lon="103.418797"><ele>927.17773</ele><time>2026-07-20T22:37:28.000Z</time></trkpt>
        <trkpt lat="29.569791" lon="103.418776"><ele>926.6668</ele><time>2026-07-20T22:37:30.000Z</time></trkpt>
        <trkpt lat="29.569793" lon="103.418757"><ele>926.6777</ele><time>2026-07-20T22:37:32.000Z</time></trkpt>
        <trkpt lat="29.569798" lon="103.418741"><ele>926.61786</ele><time>2026-07-20T22:37:34.000Z</time></trkpt>
        <trkpt lat="29.569804" lon="103.418727"><ele>927.36566</ele><time>2026-07-20T22:37:36.000Z</time></trkpt>
        <trkpt lat="29.569809" lon="103.418711"><ele>927.66437</ele><time>2026-07-20T22:37:38.000Z</time></trkpt>
        <trkpt lat="29.569812" lon="103.418694"><ele>927.2948</ele><time>2026-07-20T22:37:40.000Z</time></trkpt>
        <trkpt lat="29.569813" lon="103.418676"><ele>927.8247</ele><time>2026-07-20T22:37:42.000Z</time></trkpt>
        <trkpt lat="29.569816" lon="103.418657"><ele>927.0855</ele><time>2026-07-20T22:37:44.000Z</time></trkpt>
        <trkpt lat="29.569821" lon="103.418638"><ele>926.6804</ele><time>2026-07-20T22:37:46.000Z</time></trkpt>
        <trkpt lat="29.569827" lon="103.418619"><ele>927.2639</ele><time>2026-07-20T22:37:48.000Z</time></trkpt>
        <trkpt lat="29.569832" lon="103.418599"><ele>926.8251</ele><time>2026-07-20T22:37:50.000Z</time></trkpt>
        <trkpt lat="29.569836" lon="103.418581"><ele>927.0066</ele><time>2026-07-20T22:37:52.000Z</time></trkpt>
        <trkpt lat="29.569839" lon="103.41856"><ele>926.8028</ele><time>2026-07-20T22:37:54.000Z</time></trkpt>
        <trkpt lat="29.569841" lon="103.41854"><ele>927.04706</ele><time>2026-07-20T22:37:56.000Z</time></trkpt>
        <trkpt lat="29.569843" lon="103.418519"><ele>927.1833</ele><time>2026-07-20T22:37:58.000Z</time></trkpt>
        <trkpt lat="29.569843" lon="103.4185"><ele>927.5265</ele><time>2026-07-20T22:38:00.000Z</time></trkpt>
        <trkpt lat="29.569843" lon="103.418484"><ele>928.13275</ele><time>2026-07-20T22:38:02.000Z</time></trkpt>
        <trkpt lat="29.569844" lon="103.418467"><ele>927.95087</ele><time>2026-07-20T22:38:04.000Z</time></trkpt>
        <trkpt lat="29.569843" lon="103.41845"><ele>927.829</ele><time>2026-07-20T22:38:06.000Z</time></trkpt>
        <trkpt lat="29.569843" lon="103.418431"><ele>927.1494</ele><time>2026-07-20T22:38:08.000Z</time></trkpt>
        <trkpt lat="29.569844" lon="103.418413"><ele>926.61285</ele><time>2026-07-20T22:38:10.000Z</time></trkpt>
        <trkpt lat="29.569846" lon="103.418397"><ele>926.79724</ele><time>2026-07-20T22:38:12.000Z</time></trkpt>
        <trkpt lat="29.569846" lon="103.41838"><ele>927.1207</ele><time>2026-07-20T22:38:14.000Z</time></trkpt>
        <trkpt lat="29.569843" lon="103.418363"><ele>926.58386</ele><time>2026-07-20T22:38:16.000Z</time></trkpt>
        <trkpt lat="29.569838" lon="103.418347"><ele>926.3233</ele><time>2026-07-20T22:38:18.000Z</time></trkpt>
        <trkpt lat="29.569834" lon="103.418331"><ele>925.8441</ele><time>2026-07-20T22:38:20.000Z</time></trkpt>
        <trkpt lat="29.56983" lon="103.418315"><ele>925.1024</ele><time>2026-07-20T22:38:22.000Z</time></trkpt>
        <trkpt lat="29.569828" lon="103.418301"><ele>925.19586</ele><time>2026-07-20T22:38:24.000Z</time></trkpt>
        <trkpt lat="29.569827" lon="103.418286"><ele>924.10065</ele><time>2026-07-20T22:38:26.000Z</time></trkpt>
        <trkpt lat="29.569828" lon="103.418269"><ele>923.2958</ele><time>2026-07-20T22:38:28.000Z</time></trkpt>
        <trkpt lat="29.569829" lon="103.418254"><ele>922.6974</ele><time>2026-07-20T22:38:30.000Z</time></trkpt>
        <trkpt lat="29.569832" lon="103.41824"><ele>923.0815</ele><time>2026-07-20T22:38:32.000Z</time></trkpt>
        <trkpt lat="29.569833" lon="103.418224"><ele>922.9266</ele><time>2026-07-20T22:38:34.000Z</time></trkpt>
        <trkpt lat="29.569834" lon="103.418209"><ele>922.0457</ele><time>2026-07-20T22:38:36.000Z</time></trkpt>
        <trkpt lat="29.569838" lon="103.41819"><ele>922.35175</ele><time>2026-07-20T22:38:38.000Z</time></trkpt>
        <trkpt lat="29.569844" lon="103.418172"><ele>923.01587</ele><time>2026-07-20T22:38:40.000Z</time></trkpt>
        <trkpt lat="29.56985" lon="103.418157"><ele>923.729</ele><time>2026-07-20T22:38:42.000Z</time></trkpt>
        <trkpt lat="29.569856" lon="103.418143"><ele>924.13116</ele><time>2026-07-20T22:38:44.000Z</time></trkpt>
        <trkpt lat="29.56986" lon="103.418127"><ele>924.9894</ele><time>2026-07-20T22:38:46.000Z</time></trkpt>
        <trkpt lat="29.569862" lon="103.418116"><ele>925.4285</ele><time>2026-07-20T22:38:48.000Z</time></trkpt>
        <trkpt lat="29.569865" lon="103.418106"><ele>924.5338</ele><time>2026-07-20T22:38:50.000Z</time></trkpt>
        <trkpt lat="29.569867" lon="103.418095"><ele>924.5533</ele><time>2026-07-20T22:38:52.000Z</time></trkpt>
        <trkpt lat="29.56987" lon="103.418085"><ele>924.752</ele><time>2026-07-20T22:38:54.000Z</time></trkpt>
        <trkpt lat="29.569874" lon="103.418075"><ele>924.211</ele><time>2026-07-20T22:38:56.000Z</time></trkpt>
        <trkpt lat="29.56988" lon="103.418067"><ele>924.7669</ele><time>2026-07-20T22:38:58.000Z</time></trkpt>
        <trkpt lat="29.569889" lon="103.418058"><ele>925.02936</ele><time>2026-07-20T22:39:00.000Z</time></trkpt>
        <trkpt lat="29.569898" lon="103.418049"><ele>924.7077</ele><time>2026-07-20T22:39:02.000Z</time></trkpt>
        <trkpt lat="29.56991" lon="103.418038"><ele>924.9148</ele><time>2026-07-20T22:39:04.000Z</time></trkpt>
        <trkpt lat="29.569923" lon="103.418026"><ele>925.2455</ele><time>2026-07-20T22:39:06.000Z</time></trkpt>
        <trkpt lat="29.569935" lon="103.418013"><ele>925.04816</ele><time>2026-07-20T22:39:08.000Z</time></trkpt>
        <trkpt lat="29.569943" lon="103.418"><ele>924.65576</ele><time>2026-07-20T22:39:10.000Z</time></trkpt>
        <trkpt lat="29.569947" lon="103.417987"><ele>923.9497</ele><time>2026-07-20T22:39:12.000Z</time></trkpt>
        <trkpt lat="29.56995" lon="103.417973"><ele>923.6669</ele><time>2026-07-20T22:39:14.000Z</time></trkpt>
        <trkpt lat="29.569953" lon="103.417959"><ele>923.8711</ele><time>2026-07-20T22:39:16.000Z</time></trkpt>
        <trkpt lat="29.569958" lon="103.417944"><ele>923.9361</ele><time>2026-07-20T22:39:18.000Z</time></trkpt>
        <trkpt lat="29.569965" lon="103.417926"><ele>924.4105</ele><time>2026-07-20T22:39:20.000Z</time></trkpt>
        <trkpt lat="29.569973" lon="103.41791"><ele>924.67957</ele><time>2026-07-20T22:39:22.000Z</time></trkpt>
        <trkpt lat="29.56998" lon="103.417895"><ele>924.44824</ele><time>2026-07-20T22:39:24.000Z</time></trkpt>
        <trkpt lat="29.569986" lon="103.417881"><ele>924.8665</ele><time>2026-07-20T22:39:26.000Z</time></trkpt>
        <trkpt lat="29.569992" lon="103.417868"><ele>923.7462</ele><time>2026-07-20T22:39:28.000Z</time></trkpt>
        <trkpt lat="29.569997" lon="103.417858"><ele>923.82983</ele><time>2026-07-20T22:39:30.000Z</time></trkpt>
        <trkpt lat="29.570002" lon="103.417848"><ele>924.9624</ele><time>2026-07-20T22:39:32.000Z</time></trkpt>
        <trkpt lat="29.570008" lon="103.417836"><ele>924.90497</ele><time>2026-07-20T22:39:34.000Z</time></trkpt>
        <trkpt lat="29.570014" lon="103.417825"><ele>924.06464</ele><time>2026-07-20T22:39:36.000Z</time></trkpt>
        <trkpt lat="29.57002" lon="103.417812"><ele>924.2415</ele><time>2026-07-20T22:39:38.000Z</time></trkpt>
        <trkpt lat="29.570025" lon="103.417799"><ele>924.6588</ele><time>2026-07-20T22:39:40.000Z</time></trkpt>
        <trkpt lat="29.570028" lon="103.417787"><ele>923.7422</ele><time>2026-07-20T22:39:42.000Z</time></trkpt>
        <trkpt lat="29.57003" lon="103.417777"><ele>923.7854</ele><time>2026-07-20T22:39:44.000Z</time></trkpt>
        <trkpt lat="29.570033" lon="103.417768"><ele>923.5877</ele><time>2026-07-20T22:39:46.000Z</time></trkpt>
        <trkpt lat="29.570034" lon="103.417757"><ele>923.31476</ele><time>2026-07-20T22:39:48.000Z</time></trkpt>
        <trkpt lat="29.570035" lon="103.417744"><ele>923.2656</ele><time>2026-07-20T22:39:50.000Z</time></trkpt>
        <trkpt lat="29.570034" lon="103.417733"><ele>923.0102</ele><time>2026-07-20T22:39:52.000Z</time></trkpt>
        <trkpt lat="29.570034" lon="103.417724"><ele>922.0913</ele><time>2026-07-20T22:39:54.000Z</time></trkpt>
        <trkpt lat="29.570034" lon="103.417714"><ele>922.11005</ele><time>2026-07-20T22:39:56.000Z</time></trkpt>
        <trkpt lat="29.570033" lon="103.417701"><ele>921.5764</ele><time>2026-07-20T22:39:58.000Z</time></trkpt>
        <trkpt lat="29.570033" lon="103.417689"><ele>922.16907</ele><time>2026-07-20T22:40:00.000Z</time></trkpt>
        <trkpt lat="29.570035" lon="103.417678"><ele>922.24084</ele><time>2026-07-20T22:40:02.000Z</time></trkpt>
        <trkpt lat="29.570038" lon="103.417667"><ele>921.9411</ele><time>2026-07-20T22:40:04.000Z</time></trkpt>
        <trkpt lat="29.570041" lon="103.417655"><ele>921.8919</ele><time>2026-07-20T22:40:06.000Z</time></trkpt>
        <trkpt lat="29.570043" lon="103.417643"><ele>921.5389</ele><time>2026-07-20T22:40:08.000Z</time></trkpt>
        <trkpt lat="29.570044" lon="103.417632"><ele>921.2082</ele><time>2026-07-20T22:40:10.000Z</time></trkpt>
        <trkpt lat="29.570046" lon="103.41762"><ele>921.1366</ele><time>2026-07-20T22:40:11.000Z</time></trkpt>
        <trkpt lat="29.570045" lon="103.417609"><ele>921.7426</ele><time>2026-07-20T22:40:13.000Z</time></trkpt>
        <trkpt lat="29.570042" lon="103.417598"><ele>921.506</ele><time>2026-07-20T22:40:15.000Z</time></trkpt>
        <trkpt lat="29.570036" lon="103.417584"><ele>921.0043</ele><time>2026-07-20T22:40:17.000Z</time></trkpt>
        <trkpt lat="29.570032" lon="103.417566"><ele>920.39453</ele><time>2026-07-20T22:40:19.000Z</time></trkpt>
        <trkpt lat="29.57003" lon="103.417549"><ele>921.8394</ele><time>2026-07-20T22:40:21.000Z</time></trkpt>
        <trkpt lat="29.570029" lon="103.417531"><ele>921.0693</ele><time>2026-07-20T22:40:23.000Z</time></trkpt>
        <trkpt lat="29.570028" lon="103.417513"><ele>920.03894</ele><time>2026-07-20T22:40:25.000Z</time></trkpt>
        <trkpt lat="29.570028" lon="103.417495"><ele>919.74664</ele><time>2026-07-20T22:40:27.000Z</time></trkpt>
        <trkpt lat="29.57003" lon="103.417476"><ele>921.1329</ele><time>2026-07-20T22:40:29.000Z</time></trkpt>
        <trkpt lat="29.570032" lon="103.417458"><ele>922.8706</ele><time>2026-07-20T22:40:31.000Z</time></trkpt>
        <trkpt lat="29.570037" lon="103.41744"><ele>923.37494</ele><time>2026-07-20T22:40:33.000Z</time></trkpt>
        <trkpt lat="29.570045" lon="103.417423"><ele>923.5924</ele><time>2026-07-20T22:40:36.000Z</time></trkpt>
        <trkpt lat="29.570054" lon="103.417404"><ele>923.72577</ele><time>2026-07-20T22:40:38.000Z</time></trkpt>
        <trkpt lat="29.57006" lon="103.417389"><ele>923.9493</ele><time>2026-07-20T22:40:40.000Z</time></trkpt>
        <trkpt lat="29.570065" lon="103.417373"><ele>924.05365</ele><time>2026-07-20T22:40:42.000Z</time></trkpt>
        <trkpt lat="29.570067" lon="103.417356"><ele>923.6219</ele><time>2026-07-20T22:40:44.000Z</time></trkpt>
        <trkpt lat="29.570067" lon="103.417341"><ele>922.39685</ele><time>2026-07-20T22:40:46.000Z</time></trkpt>
        <trkpt lat="29.570067" lon="103.417327"><ele>922.339</ele><time>2026-07-20T22:40:48.000Z</time></trkpt>
        <trkpt lat="29.570066" lon="103.417313"><ele>921.8635</ele><time>2026-07-20T22:40:50.000Z</time></trkpt>
        <trkpt lat="29.570065" lon="103.417297"><ele>921.343</ele><time>2026-07-20T22:40:52.000Z</time></trkpt>
        <trkpt lat="29.570062" lon="103.417282"><ele>920.55505</ele><time>2026-07-20T22:40:54.000Z</time></trkpt>
        <trkpt lat="29.57006" lon="103.417267"><ele>919.3828</ele><time>2026-07-20T22:40:56.000Z</time></trkpt>
        <trkpt lat="29.570059" lon="103.417253"><ele>918.83484</ele><time>2026-07-20T22:40:58.000Z</time></trkpt>
        <trkpt lat="29.570058" lon="103.417241"><ele>918.9639</ele><time>2026-07-20T22:41:00.000Z</time></trkpt>
        <trkpt lat="29.57006" lon="103.417226"><ele>918.7344</ele><time>2026-07-20T22:41:02.000Z</time></trkpt>
        <trkpt lat="29.570065" lon="103.41721"><ele>918.98645</ele><time>2026-07-20T22:41:04.000Z</time></trkpt>
        <trkpt lat="29.570073" lon="103.417194"><ele>919.48676</ele><time>2026-07-20T22:41:06.000Z</time></trkpt>
        <trkpt lat="29.57008" lon="103.417181"><ele>919.6478</ele><time>2026-07-20T22:41:08.000Z</time></trkpt>
        <trkpt lat="29.570089" lon="103.417167"><ele>919.4035</ele><time>2026-07-20T22:41:10.000Z</time></trkpt>
        <trkpt lat="29.570098" lon="103.417151"><ele>919.79297</ele><time>2026-07-20T22:41:12.000Z</time></trkpt>
        <trkpt lat="29.570109" lon="103.417133"><ele>919.92145</ele><time>2026-07-20T22:41:14.000Z</time></trkpt>
        <trkpt lat="29.57012" lon="103.417116"><ele>920.60474</ele><time>2026-07-20T22:41:16.000Z</time></trkpt>
        <trkpt lat="29.570133" lon="103.417101"><ele>921.1224</ele><time>2026-07-20T22:41:18.000Z</time></trkpt>
        <trkpt lat="29.570144" lon="103.417088"><ele>921.5994</ele><time>2026-07-20T22:41:20.000Z</time></trkpt>
        <trkpt lat="29.570154" lon="103.417082"><ele>921.61975</ele><time>2026-07-20T22:41:22.000Z</time></trkpt>
        <trkpt lat="29.570161" lon="103.417083"><ele>921.54456</ele><time>2026-07-20T22:41:24.000Z</time></trkpt>
        <trkpt lat="29.570177" lon="103.417087"><ele>920.60364</ele><time>2026-07-20T22:41:28.000Z</time></trkpt>
        <trkpt lat="29.570184" lon="103.417088"><ele>919.7379</ele><time>2026-07-20T22:41:30.000Z</time></trkpt>
        <trkpt lat="29.570192" lon="103.417088"><ele>918.3435</ele><time>2026-07-20T22:41:32.000Z</time></trkpt>
        <trkpt lat="29.570211" lon="103.417088"><ele>918.6647</ele><time>2026-07-20T22:41:34.000Z</time></trkpt>
        <trkpt lat="29.570213" lon="103.417088"><ele>919.1446</ele><time>2026-07-20T22:41:36.000Z</time></trkpt>
        <trkpt lat="29.570229" lon="103.417088"><ele>919.74066</ele><time>2026-07-20T22:41:40.000Z</time></trkpt>
        <trkpt lat="29.570249" lon="103.417089"><ele>919.6531</ele><time>2026-07-20T22:41:42.000Z</time></trkpt>
        <trkpt lat="29.57027" lon="103.417092"><ele>919.84033</ele><time>2026-07-20T22:41:44.000Z</time></trkpt>
        <trkpt lat="29.57029" lon="103.417096"><ele>920.3119</ele><time>2026-07-20T22:41:46.000Z</time></trkpt>
        <trkpt lat="29.570304" lon="103.4171"><ele>920.3489</ele><time>2026-07-20T22:41:48.000Z</time></trkpt>
        <trkpt lat="29.570312" lon="103.417099"><ele>920.65936</ele><time>2026-07-20T22:41:50.000Z</time></trkpt>
        <trkpt lat="29.570315" lon="103.417096"><ele>919.0312</ele><time>2026-07-20T22:41:52.000Z</time></trkpt>
        <trkpt lat="29.570329" lon="103.417072"><ele>917.30835</ele><time>2026-07-20T22:41:56.000Z</time></trkpt>
        <trkpt lat="29.570334" lon="103.417061"><ele>917.5583</ele><time>2026-07-20T22:41:58.000Z</time></trkpt>
        <trkpt lat="29.570336" lon="103.417054"><ele>917.5539</ele><time>2026-07-20T22:42:00.000Z</time></trkpt>
        <trkpt lat="29.570342" lon="103.417034"><ele>917.72455</ele><time>2026-07-20T22:42:04.000Z</time></trkpt>
        <trkpt lat="29.57035" lon="103.417022"><ele>917.5631</ele><time>2026-07-20T22:42:06.000Z</time></trkpt>
        <trkpt lat="29.570357" lon="103.417009"><ele>916.36206</ele><time>2026-07-20T22:42:08.000Z</time></trkpt>
        <trkpt lat="29.570364" lon="103.416995"><ele>916.3403</ele><time>2026-07-20T22:42:10.000Z</time></trkpt>
        <trkpt lat="29.57037" lon="103.416982"><ele>916.4267</ele><time>2026-07-20T22:42:12.000Z</time></trkpt>
        <trkpt lat="29.570377" lon="103.416969"><ele>915.6985</ele><time>2026-07-20T22:42:14.000Z</time></trkpt>
        <trkpt lat="29.570383" lon="103.416957"><ele>915.281</ele><time>2026-07-20T22:42:16.000Z</time></trkpt>
        <trkpt lat="29.570389" lon="103.416944"><ele>915.2015</ele><time>2026-07-20T22:42:17.000Z</time></trkpt>
        <trkpt lat="29.570393" lon="103.41693"><ele>916.4047</ele><time>2026-07-20T22:42:19.000Z</time></trkpt>
        <trkpt lat="29.570397" lon="103.416914"><ele>916.7274</ele><time>2026-07-20T22:42:21.000Z</time></trkpt>
        <trkpt lat="29.570399" lon="103.416895"><ele>917.3693</ele><time>2026-07-20T22:42:23.000Z</time></trkpt>
        <trkpt lat="29.570397" lon="103.416872"><ele>916.68744</ele><time>2026-07-20T22:42:25.000Z</time></trkpt>
        <trkpt lat="29.57039" lon="103.416849"><ele>916.98474</ele><time>2026-07-20T22:42:27.000Z</time></trkpt>
        <trkpt lat="29.570382" lon="103.416823"><ele>916.26</ele><time>2026-07-20T22:42:29.000Z</time></trkpt>
        <trkpt lat="29.570375" lon="103.416799"><ele>916.2592</ele><time>2026-07-20T22:42:31.000Z</time></trkpt>
        <trkpt lat="29.570369" lon="103.416775"><ele>915.27264</ele><time>2026-07-20T22:42:33.000Z</time></trkpt>
        <trkpt lat="29.570367" lon="103.416753"><ele>915.93524</ele><time>2026-07-20T22:42:35.000Z</time></trkpt>
        <trkpt lat="29.570365" lon="103.416731"><ele>914.889</ele><time>2026-07-20T22:42:37.000Z</time></trkpt>
        <trkpt lat="29.570364" lon="103.416712"><ele>913.595</ele><time>2026-07-20T22:42:39.000Z</time></trkpt>
        <trkpt lat="29.570364" lon="103.416694"><ele>913.76324</ele><time>2026-07-20T22:42:41.000Z</time></trkpt>
        <trkpt lat="29.570365" lon="103.41668"><ele>914.7345</ele><time>2026-07-20T22:42:43.000Z</time></trkpt>
        <trkpt lat="29.570364" lon="103.416662"><ele>914.2876</ele><time>2026-07-20T22:42:45.000Z</time></trkpt>
        <trkpt lat="29.570364" lon="103.416647"><ele>914.9522</ele><time>2026-07-20T22:42:48.000Z</time></trkpt>
        <trkpt lat="29.570365" lon="103.416632"><ele>914.1226</ele><time>2026-07-20T22:42:50.000Z</time></trkpt>
        <trkpt lat="29.570366" lon="103.416615"><ele>913.7642</ele><time>2026-07-20T22:42:52.000Z</time></trkpt>
        <trkpt lat="29.570367" lon="103.416595"><ele>914.02673</ele><time>2026-07-20T22:42:54.000Z</time></trkpt>
        <trkpt lat="29.570367" lon="103.416574"><ele>914.35925</ele><time>2026-07-20T22:42:56.000Z</time></trkpt>
        <trkpt lat="29.570366" lon="103.416549"><ele>914.69885</ele><time>2026-07-20T22:42:58.000Z</time></trkpt>
        <trkpt lat="29.570366" lon="103.416526"><ele>914.20935</ele><time>2026-07-20T22:43:00.000Z</time></trkpt>
        <trkpt lat="29.570368" lon="103.416506"><ele>914.44183</ele><time>2026-07-20T22:43:02.000Z</time></trkpt>
        <trkpt lat="29.570372" lon="103.416485"><ele>914.4564</ele><time>2026-07-20T22:43:04.000Z</time></trkpt>
        <trkpt lat="29.570377" lon="103.416464"><ele>914.95184</ele><time>2026-07-20T22:43:06.000Z</time></trkpt>
        <trkpt lat="29.570383" lon="103.416443"><ele>914.4155</ele><time>2026-07-20T22:43:08.000Z</time></trkpt>
        <trkpt lat="29.570388" lon="103.416424"><ele>913.9296</ele><time>2026-07-20T22:43:10.000Z</time></trkpt>
        <trkpt lat="29.570392" lon="103.416406"><ele>913.64124</ele><time>2026-07-20T22:43:12.000Z</time></trkpt>
        <trkpt lat="29.570394" lon="103.416386"><ele>913.4477</ele><time>2026-07-20T22:43:14.000Z</time></trkpt>
        <trkpt lat="29.570394" lon="103.416368"><ele>913.35364</ele><time>2026-07-20T22:43:16.000Z</time></trkpt>
        <trkpt lat="29.570394" lon="103.416354"><ele>913.6313</ele><time>2026-07-20T22:43:18.000Z</time></trkpt>
        <trkpt lat="29.570392" lon="103.41634"><ele>914.0022</ele><time>2026-07-20T22:43:20.000Z</time></trkpt>
        <trkpt lat="29.570391" lon="103.416326"><ele>914.9213</ele><time>2026-07-20T22:43:22.000Z</time></trkpt>
        <trkpt lat="29.570391" lon="103.416308"><ele>916.3239</ele><time>2026-07-20T22:43:24.000Z</time></trkpt>
        <trkpt lat="29.570394" lon="103.416291"><ele>916.15674</ele><time>2026-07-20T22:43:26.000Z</time></trkpt>
        <trkpt lat="29.570402" lon="103.416275"><ele>916.1401</ele><time>2026-07-20T22:43:28.000Z</time></trkpt>
        <trkpt lat="29.570412" lon="103.416259"><ele>916.60406</ele><time>2026-07-20T22:43:30.000Z</time></trkpt>
        <trkpt lat="29.570425" lon="103.416241"><ele>916.2533</ele><time>2026-07-20T22:43:32.000Z</time></trkpt>
        <trkpt lat="29.570439" lon="103.416226"><ele>916.7855</ele><time>2026-07-20T22:43:34.000Z</time></trkpt>
        <trkpt lat="29.570454" lon="103.416214"><ele>917.4665</ele><time>2026-07-20T22:43:36.000Z</time></trkpt>
        <trkpt lat="29.570472" lon="103.416206"><ele>918.66235</ele><time>2026-07-20T22:43:38.000Z</time></trkpt>
        <trkpt lat="29.570492" lon="103.4162"><ele>918.9129</ele><time>2026-07-20T22:43:40.000Z</time></trkpt>
        <trkpt lat="29.570516" lon="103.416194"><ele>919.73706</ele><time>2026-07-20T22:43:42.000Z</time></trkpt>
        <trkpt lat="29.570536" lon="103.416189"><ele>920.1889</ele><time>2026-07-20T22:43:44.000Z</time></trkpt>
        <trkpt lat="29.570553" lon="103.416182"><ele>919.1795</ele><time>2026-07-20T22:43:46.000Z</time></trkpt>
        <trkpt lat="29.570563" lon="103.416177"><ele>918.94147</ele><time>2026-07-20T22:43:48.000Z</time></trkpt>
        <trkpt lat="29.570572" lon="103.416171"><ele>918.74097</ele><time>2026-07-20T22:43:50.000Z</time></trkpt>
        <trkpt lat="29.570578" lon="103.416166"><ele>918.45605</ele><time>2026-07-20T22:43:52.000Z</time></trkpt>
        <trkpt lat="29.570585" lon="103.416161"><ele>918.24365</ele><time>2026-07-20T22:43:54.000Z</time></trkpt>
        <trkpt lat="29.570593" lon="103.416157"><ele>919.03723</ele><time>2026-07-20T22:43:56.000Z</time></trkpt>
        <trkpt lat="29.5706" lon="103.416154"><ele>919.54297</ele><time>2026-07-20T22:43:58.000Z</time></trkpt>
        <trkpt lat="29.570607" lon="103.416148"><ele>920.5164</ele><time>2026-07-20T22:44:00.000Z</time></trkpt>
        <trkpt lat="29.570618" lon="103.416136"><ele>920.5385</ele><time>2026-07-20T22:44:02.000Z</time></trkpt>
        <trkpt lat="29.570619" lon="103.416135"><ele>920.624</ele><time>2026-07-20T22:44:06.000Z</time></trkpt>
        <trkpt lat="29.570621" lon="103.416135"><ele>919.67535</ele><time>2026-07-20T22:44:12.000Z</time></trkpt>
        <trkpt lat="29.570645" lon="103.416135"><ele>921.1894</ele><time>2026-07-20T22:44:18.000Z</time></trkpt>
        <trkpt lat="29.570651" lon="103.416135"><ele>922.324</ele><time>2026-07-20T22:44:20.000Z</time></trkpt>
        <trkpt lat="29.570667" lon="103.416131"><ele>923.1261</ele><time>2026-07-20T22:44:22.000Z</time></trkpt>
        <trkpt lat="29.570674" lon="103.416125"><ele>923.0323</ele><time>2026-07-20T22:44:28.000Z</time></trkpt>
        <trkpt lat="29.570684" lon="103.416114"><ele>922.0483</ele><time>2026-07-20T22:44:30.000Z</time></trkpt>
        <trkpt lat="29.570694" lon="103.4161"><ele>922.4463</ele><time>2026-07-20T22:44:32.000Z</time></trkpt>
        <trkpt lat="29.570703" lon="103.416088"><ele>922.0168</ele><time>2026-07-20T22:44:34.000Z</time></trkpt>
        <trkpt lat="29.570713" lon="103.416075"><ele>922.2995</ele><time>2026-07-20T22:44:36.000Z</time></trkpt>
        <trkpt lat="29.570722" lon="103.416066"><ele>921.51215</ele><time>2026-07-20T22:44:38.000Z</time></trkpt>
        <trkpt lat="29.570728" lon="103.416062"><ele>922.3908</ele><time>2026-07-20T22:44:40.000Z</time></trkpt>
        <trkpt lat="29.570736" lon="103.416059"><ele>923.50946</ele><time>2026-07-20T22:44:42.000Z</time></trkpt>
        <trkpt lat="29.570752" lon="103.416056"><ele>923.1771</ele><time>2026-07-20T22:44:46.000Z</time></trkpt>
        <trkpt lat="29.570763" lon="103.416055"><ele>923.73645</ele><time>2026-07-20T22:44:48.000Z</time></trkpt>
        <trkpt lat="29.570778" lon="103.416053"><ele>923.44476</ele><time>2026-07-20T22:44:50.000Z</time></trkpt>
        <trkpt lat="29.570789" lon="103.41605"><ele>922.6895</ele><time>2026-07-20T22:44:52.000Z</time></trkpt>
        <trkpt lat="29.57079" lon="103.416052"><ele>922.55023</ele><time>2026-07-20T22:44:54.000Z</time></trkpt>
        <trkpt lat="29.57077" lon="103.416029"><ele>924.0423</ele><time>2026-07-20T22:45:06.000Z</time></trkpt>
        <trkpt lat="29.570757" lon="103.416016"><ele>924.5196</ele><time>2026-07-20T22:45:08.000Z</time></trkpt>
        <trkpt lat="29.570757" lon="103.416014"><ele>925.24304</ele><time>2026-07-20T22:45:10.000Z</time></trkpt>
        <trkpt lat="29.57075" lon="103.416002"><ele>924.2652</ele><time>2026-07-20T22:45:14.000Z</time></trkpt>
        <trkpt lat="29.570741" lon="103.415988"><ele>923.94543</ele><time>2026-07-20T22:45:16.000Z</time></trkpt>
        <trkpt lat="29.57073" lon="103.415971"><ele>923.2782</ele><time>2026-07-20T22:45:18.000Z</time></trkpt>
        <trkpt lat="29.570719" lon="103.415958"><ele>923.9796</ele><time>2026-07-20T22:45:20.000Z</time></trkpt>
        <trkpt lat="29.570708" lon="103.415944"><ele>923.84906</ele><time>2026-07-20T22:45:22.000Z</time></trkpt>
        <trkpt lat="29.570697" lon="103.415932"><ele>924.72974</ele><time>2026-07-20T22:45:24.000Z</time></trkpt>
        <trkpt lat="29.570685" lon="103.415918"><ele>923.224</ele><time>2026-07-20T22:45:26.000Z</time></trkpt>
        <trkpt lat="29.57067" lon="103.415902"><ele>922.0162</ele><time>2026-07-20T22:45:28.000Z</time></trkpt>
        <trkpt lat="29.570656" lon="103.415886"><ele>920.9702</ele><time>2026-07-20T22:45:30.000Z</time></trkpt>
        <trkpt lat="29.570648" lon="103.415872"><ele>920.4418</ele><time>2026-07-20T22:45:32.000Z</time></trkpt>
        <trkpt lat="29.570641" lon="103.415858"><ele>920.55505</ele><time>2026-07-20T22:45:34.000Z</time></trkpt>
        <trkpt lat="29.570632" lon="103.415846"><ele>922.38043</ele><time>2026-07-20T22:45:36.000Z</time></trkpt>
        <trkpt lat="29.57062" lon="103.415838"><ele>921.91077</ele><time>2026-07-20T22:45:38.000Z</time></trkpt>
        <trkpt lat="29.570608" lon="103.415834"><ele>923.3707</ele><time>2026-07-20T22:45:40.000Z</time></trkpt>
        <trkpt lat="29.570596" lon="103.415831"><ele>924.0531</ele><time>2026-07-20T22:45:42.000Z</time></trkpt>
        <trkpt lat="29.570584" lon="103.41583"><ele>924.73596</ele><time>2026-07-20T22:45:44.000Z</time></trkpt>
        <trkpt lat="29.570576" lon="103.41583"><ele>924.6772</ele><time>2026-07-20T22:45:46.000Z</time></trkpt>
        <trkpt lat="29.570566" lon="103.41583"><ele>925.54083</ele><time>2026-07-20T22:45:50.000Z</time></trkpt>
        <trkpt lat="29.57055" lon="103.415829"><ele>924.83655</ele><time>2026-07-20T22:45:54.000Z</time></trkpt>
        <trkpt lat="29.570538" lon="103.415826"><ele>924.78516</ele><time>2026-07-20T22:45:56.000Z</time></trkpt>
        <trkpt lat="29.570524" lon="103.41582"><ele>924.758</ele><time>2026-07-20T22:45:58.000Z</time></trkpt>
        <trkpt lat="29.570509" lon="103.415811"><ele>925.015</ele><time>2026-07-20T22:46:00.000Z</time></trkpt>
        <trkpt lat="29.570499" lon="103.415802"><ele>925.0448</ele><time>2026-07-20T22:46:02.000Z</time></trkpt>
        <trkpt lat="29.570489" lon="103.41579"><ele>924.8388</ele><time>2026-07-20T22:46:04.000Z</time></trkpt>
        <trkpt lat="29.570481" lon="103.415776"><ele>924.55853</ele><time>2026-07-20T22:46:06.000Z</time></trkpt>
        <trkpt lat="29.570474" lon="103.415759"><ele>925.684</ele><time>2026-07-20T22:46:08.000Z</time></trkpt>
        <trkpt lat="29.570466" lon="103.415743"><ele>925.39594</ele><time>2026-07-20T22:46:10.000Z</time></trkpt>
        <trkpt lat="29.57046" lon="103.415729"><ele>925.24023</ele><time>2026-07-20T22:46:12.000Z</time></trkpt>
        <trkpt lat="29.570453" lon="103.415714"><ele>925.2527</ele><time>2026-07-20T22:46:14.000Z</time></trkpt>
        <trkpt lat="29.570447" lon="103.415696"><ele>924.92737</ele><time>2026-07-20T22:46:16.000Z</time></trkpt>
        <trkpt lat="29.570441" lon="103.415678"><ele>925.21674</ele><time>2026-07-20T22:46:18.000Z</time></trkpt>
        <trkpt lat="29.570433" lon="103.415661"><ele>926.5637</ele><time>2026-07-20T22:46:20.000Z</time></trkpt>
        <trkpt lat="29.570423" lon="103.415649"><ele>926.41473</ele><time>2026-07-20T22:46:22.000Z</time></trkpt>
        <trkpt lat="29.570412" lon="103.415636"><ele>926.5217</ele><time>2026-07-20T22:46:24.000Z</time></trkpt>
        <trkpt lat="29.570402" lon="103.415627"><ele>926.07764</ele><time>2026-07-20T22:46:26.000Z</time></trkpt>
        <trkpt lat="29.570389" lon="103.415617"><ele>925.5027</ele><time>2026-07-20T22:46:28.000Z</time></trkpt>
        <trkpt lat="29.570377" lon="103.415609"><ele>926.5493</ele><time>2026-07-20T22:46:30.000Z</time></trkpt>
        <trkpt lat="29.570362" lon="103.415598"><ele>926.4018</ele><time>2026-07-20T22:46:32.000Z</time></trkpt>
        <trkpt lat="29.570344" lon="103.415584"><ele>926.4178</ele><time>2026-07-20T22:46:34.000Z</time></trkpt>
        <trkpt lat="29.570325" lon="103.415572"><ele>927.35614</ele><time>2026-07-20T22:46:36.000Z</time></trkpt>
        <trkpt lat="29.570304" lon="103.415559"><ele>927.00494</ele><time>2026-07-20T22:46:38.000Z</time></trkpt>
        <trkpt lat="29.570286" lon="103.415549"><ele>927.50836</ele><time>2026-07-20T22:46:40.000Z</time></trkpt>
        <trkpt lat="29.570272" lon="103.415543"><ele>927.7746</ele><time>2026-07-20T22:46:42.000Z</time></trkpt>
        <trkpt lat="29.570258" lon="103.415539"><ele>928.5624</ele><time>2026-07-20T22:46:44.000Z</time></trkpt>
        <trkpt lat="29.57024" lon="103.415538"><ele>928.3561</ele><time>2026-07-20T22:46:46.000Z</time></trkpt>
        <trkpt lat="29.570226" lon="103.415539"><ele>928.4493</ele><time>2026-07-20T22:46:48.000Z</time></trkpt>
        <trkpt lat="29.570212" lon="103.415544"><ele>927.8401</ele><time>2026-07-20T22:46:50.000Z</time></trkpt>
        <trkpt lat="29.570197" lon="103.41555"><ele>927.82</ele><time>2026-07-20T22:46:52.000Z</time></trkpt>
        <trkpt lat="29.570179" lon="103.415553"><ele>927.57086</ele><time>2026-07-20T22:46:54.000Z</time></trkpt>
        <trkpt lat="29.570167" lon="103.415554"><ele>929.0078</ele><time>2026-07-20T22:46:56.000Z</time></trkpt>
        <trkpt lat="29.570161" lon="103.415553"><ele>929.1647</ele><time>2026-07-20T22:46:58.000Z</time></trkpt>
        <trkpt lat="29.570144" lon="103.415548"><ele>929.20807</ele><time>2026-07-20T22:47:02.000Z</time></trkpt>
        <trkpt lat="29.570134" lon="103.415544"><ele>929.46356</ele><time>2026-07-20T22:47:08.000Z</time></trkpt>
        <trkpt lat="29.57012" lon="103.415536"><ele>929.8755</ele><time>2026-07-20T22:47:10.000Z</time></trkpt>
        <trkpt lat="29.570105" lon="103.415526"><ele>930.44666</ele><time>2026-07-20T22:47:12.000Z</time></trkpt>
        <trkpt lat="29.570086" lon="103.415512"><ele>930.7319</ele><time>2026-07-20T22:47:14.000Z</time></trkpt>
        <trkpt lat="29.570071" lon="103.415499"><ele>931.5282</ele><time>2026-07-20T22:47:16.000Z</time></trkpt>
        <trkpt lat="29.570056" lon="103.415485"><ele>931.2954</ele><time>2026-07-20T22:47:18.000Z</time></trkpt>
        <trkpt lat="29.570042" lon="103.415471"><ele>931.5427</ele><time>2026-07-20T22:47:20.000Z</time></trkpt>
        <trkpt lat="29.570027" lon="103.415456"><ele>931.2391</ele><time>2026-07-20T22:47:22.000Z</time></trkpt>
        <trkpt lat="29.570015" lon="103.415444"><ele>930.9921</ele><time>2026-07-20T22:47:24.000Z</time></trkpt>
        <trkpt lat="29.570003" lon="103.415431"><ele>931.10675</ele><time>2026-07-20T22:47:26.000Z</time></trkpt>
        <trkpt lat="29.569989" lon="103.415416"><ele>931.0716</ele><time>2026-07-20T22:47:28.000Z</time></trkpt>
        <trkpt lat="29.569976" lon="103.415402"><ele>930.8551</ele><time>2026-07-20T22:47:30.000Z</time></trkpt>
        <trkpt lat="29.569964" lon="103.415389"><ele>929.7562</ele><time>2026-07-20T22:47:32.000Z</time></trkpt>
        <trkpt lat="29.569955" lon="103.415378"><ele>930.1788</ele><time>2026-07-20T22:47:34.000Z</time></trkpt>
        <trkpt lat="29.569948" lon="103.415368"><ele>929.8785</ele><time>2026-07-20T22:47:36.000Z</time></trkpt>
        <trkpt lat="29.569943" lon="103.415357"><ele>930.84357</ele><time>2026-07-20T22:47:38.000Z</time></trkpt>
        <trkpt lat="29.569937" lon="103.415344"><ele>931.33405</ele><time>2026-07-20T22:47:40.000Z</time></trkpt>
        <trkpt lat="29.569933" lon="103.415329"><ele>932.1949</ele><time>2026-07-20T22:47:42.000Z</time></trkpt>
        <trkpt lat="29.56993" lon="103.415314"><ele>932.2977</ele><time>2026-07-20T22:47:44.000Z</time></trkpt>
        <trkpt lat="29.569928" lon="103.415299"><ele>932.42365</ele><time>2026-07-20T22:47:46.000Z</time></trkpt>
        <trkpt lat="29.569928" lon="103.415284"><ele>932.9862</ele><time>2026-07-20T22:47:48.000Z</time></trkpt>
        <trkpt lat="29.569928" lon="103.41527"><ele>932.4051</ele><time>2026-07-20T22:47:50.000Z</time></trkpt>
        <trkpt lat="29.569928" lon="103.415251"><ele>931.94244</ele><time>2026-07-20T22:47:52.000Z</time></trkpt>
        <trkpt lat="29.569927" lon="103.415227"><ele>931.6882</ele><time>2026-07-20T22:47:54.000Z</time></trkpt>
        <trkpt lat="29.569926" lon="103.415203"><ele>931.68207</ele><time>2026-07-20T22:47:56.000Z</time></trkpt>
        <trkpt lat="29.569925" lon="103.415179"><ele>933.0389</ele><time>2026-07-20T22:47:58.000Z</time></trkpt>
        <trkpt lat="29.569923" lon="103.415156"><ele>933.24805</ele><time>2026-07-20T22:48:00.000Z</time></trkpt>
        <trkpt lat="29.569922" lon="103.415134"><ele>932.13885</ele><time>2026-07-20T22:48:02.000Z</time></trkpt>
        <trkpt lat="29.56992" lon="103.415112"><ele>931.21454</ele><time>2026-07-20T22:48:04.000Z</time></trkpt>
        <trkpt lat="29.569917" lon="103.41509"><ele>930.1493</ele><time>2026-07-20T22:48:06.000Z</time></trkpt>
        <trkpt lat="29.569913" lon="103.415069"><ele>929.6997</ele><time>2026-07-20T22:48:08.000Z</time></trkpt>
        <trkpt lat="29.569909" lon="103.415051"><ele>929.6883</ele><time>2026-07-20T22:48:10.000Z</time></trkpt>
        <trkpt lat="29.569905" lon="103.415032"><ele>929.72363</ele><time>2026-07-20T22:48:12.000Z</time></trkpt>
        <trkpt lat="29.569901" lon="103.415013"><ele>930.11176</ele><time>2026-07-20T22:48:14.000Z</time></trkpt>
        <trkpt lat="29.569897" lon="103.414991"><ele>930.3519</ele><time>2026-07-20T22:48:16.000Z</time></trkpt>
        <trkpt lat="29.569892" lon="103.414976"><ele>931.5051</ele><time>2026-07-20T22:48:18.000Z</time></trkpt>
        <trkpt lat="29.569886" lon="103.414959"><ele>931.25696</ele><time>2026-07-20T22:48:20.000Z</time></trkpt>
        <trkpt lat="29.569876" lon="103.414942"><ele>931.8465</ele><time>2026-07-20T22:48:22.000Z</time></trkpt>
        <trkpt lat="29.569863" lon="103.414924"><ele>931.9662</ele><time>2026-07-20T22:48:24.000Z</time></trkpt>
        <trkpt lat="29.569848" lon="103.414908"><ele>931.7377</ele><time>2026-07-20T22:48:26.000Z</time></trkpt>
        <trkpt lat="29.56983" lon="103.414889"><ele>931.0736</ele><time>2026-07-20T22:48:28.000Z</time></trkpt>
        <trkpt lat="29.569812" lon="103.41487"><ele>930.40826</ele><time>2026-07-20T22:48:30.000Z</time></trkpt>
        <trkpt lat="29.569795" lon="103.414853"><ele>930.1482</ele><time>2026-07-20T22:48:32.000Z</time></trkpt>
        <trkpt lat="29.56978" lon="103.414836"><ele>929.9534</ele><time>2026-07-20T22:48:34.000Z</time></trkpt>
        <trkpt lat="29.569767" lon="103.414821"><ele>930.57635</ele><time>2026-07-20T22:48:36.000Z</time></trkpt>
        <trkpt lat="29.569755" lon="103.414806"><ele>931.733</ele><time>2026-07-20T22:48:38.000Z</time></trkpt>
        <trkpt lat="29.569745" lon="103.414795"><ele>931.25433</ele><time>2026-07-20T22:48:40.000Z</time></trkpt>
        <trkpt lat="29.569736" lon="103.414786"><ele>930.4944</ele><time>2026-07-20T22:48:42.000Z</time></trkpt>
        <trkpt lat="29.569727" lon="103.414777"><ele>929.69965</ele><time>2026-07-20T22:48:44.000Z</time></trkpt>
        <trkpt lat="29.569718" lon="103.414768"><ele>929.72516</ele><time>2026-07-20T22:48:46.000Z</time></trkpt>
        <trkpt lat="29.569706" lon="103.414757"><ele>930.107</ele><time>2026-07-20T22:48:48.000Z</time></trkpt>
        <trkpt lat="29.569691" lon="103.414749"><ele>929.75726</ele><time>2026-07-20T22:48:50.000Z</time></trkpt>
        <trkpt lat="29.569674" lon="103.414747"><ele>929.16406</ele><time>2026-07-20T22:48:52.000Z</time></trkpt>
        <trkpt lat="29.569656" lon="103.414749"><ele>929.23505</ele><time>2026-07-20T22:48:54.000Z</time></trkpt>
        <trkpt lat="29.569638" lon="103.414753"><ele>928.7729</ele><time>2026-07-20T22:48:56.000Z</time></trkpt>
        <trkpt lat="29.569616" lon="103.414759"><ele>928.391</ele><time>2026-07-20T22:48:58.000Z</time></trkpt>
        <trkpt lat="29.569595" lon="103.414765"><ele>928.51733</ele><time>2026-07-20T22:49:00.000Z</time></trkpt>
        <trkpt lat="29.569571" lon="103.414773"><ele>928.2575</ele><time>2026-07-20T22:49:02.000Z</time></trkpt>
        <trkpt lat="29.56955" lon="103.414781"><ele>928.4696</ele><time>2026-07-20T22:49:04.000Z</time></trkpt>
        <trkpt lat="29.569533" lon="103.414787"><ele>928.80334</ele><time>2026-07-20T22:49:06.000Z</time></trkpt>
        <trkpt lat="29.569519" lon="103.414793"><ele>928.7311</ele><time>2026-07-20T22:49:08.000Z</time></trkpt>
        <trkpt lat="29.569504" lon="103.414799"><ele>928.97504</ele><time>2026-07-20T22:49:10.000Z</time></trkpt>
        <trkpt lat="29.56949" lon="103.414806"><ele>928.6615</ele><time>2026-07-20T22:49:12.000Z</time></trkpt>
        <trkpt lat="29.569474" lon="103.414813"><ele>929.31445</ele><time>2026-07-20T22:49:14.000Z</time></trkpt>
        <trkpt lat="29.569459" lon="103.414818"><ele>929.526</ele><time>2026-07-20T22:49:16.000Z</time></trkpt>
        <trkpt lat="29.569444" lon="103.414822"><ele>929.5577</ele><time>2026-07-20T22:49:18.000Z</time></trkpt>
        <trkpt lat="29.569426" lon="103.414824"><ele>929.09125</ele><time>2026-07-20T22:49:20.000Z</time></trkpt>
        <trkpt lat="29.569411" lon="103.414825"><ele>929.6442</ele><time>2026-07-20T22:49:22.000Z</time></trkpt>
        <trkpt lat="29.569392" lon="103.414827"><ele>928.9734</ele><time>2026-07-20T22:49:24.000Z</time></trkpt>
        <trkpt lat="29.569371" lon="103.414832"><ele>928.1226</ele><time>2026-07-20T22:49:26.000Z</time></trkpt>
        <trkpt lat="29.569353" lon="103.41484"><ele>928.60266</ele><time>2026-07-20T22:49:28.000Z</time></trkpt>
        <trkpt lat="29.569334" lon="103.414848"><ele>928.1809</ele><time>2026-07-20T22:49:30.000Z</time></trkpt>
        <trkpt lat="29.569315" lon="103.414856"><ele>927.9189</ele><time>2026-07-20T22:49:32.000Z</time></trkpt>
        <trkpt lat="29.569293" lon="103.414862"><ele>926.4934</ele><time>2026-07-20T22:49:34.000Z</time></trkpt>
        <trkpt lat="29.569276" lon="103.414863"><ele>926.5782</ele><time>2026-07-20T22:49:36.000Z</time></trkpt>
        <trkpt lat="29.569261" lon="103.414858"><ele>925.0253</ele><time>2026-07-20T22:49:38.000Z</time></trkpt>
        <trkpt lat="29.569247" lon="103.414847"><ele>925.32654</ele><time>2026-07-20T22:49:40.000Z</time></trkpt>
        <trkpt lat="29.569238" lon="103.414836"><ele>924.4358</ele><time>2026-07-20T22:49:42.000Z</time></trkpt>
        <trkpt lat="29.569232" lon="103.414826"><ele>923.5543</ele><time>2026-07-20T22:49:44.000Z</time></trkpt>
        <trkpt lat="29.569228" lon="103.414813"><ele>923.7235</ele><time>2026-07-20T22:49:46.000Z</time></trkpt>
        <trkpt lat="29.569226" lon="103.414797"><ele>924.18726</ele><time>2026-07-20T22:49:48.000Z</time></trkpt>
        <trkpt lat="29.569225" lon="103.41478"><ele>923.6191</ele><time>2026-07-20T22:49:50.000Z</time></trkpt>
        <trkpt lat="29.569226" lon="103.414767"><ele>923.50275</ele><time>2026-07-20T22:49:52.000Z</time></trkpt>
        <trkpt lat="29.56923" lon="103.414759"><ele>924.8569</ele><time>2026-07-20T22:49:54.000Z</time></trkpt>
        <trkpt lat="29.56923" lon="103.414759"><ele>926.9319</ele><time>2026-07-20T22:49:58.000Z</time></trkpt>
        <trkpt lat="29.569203" lon="103.414735"><ele>927.1574</ele><time>2026-07-20T22:50:06.000Z</time></trkpt>
        <trkpt lat="29.569184" lon="103.414718"><ele>926.98175</ele><time>2026-07-20T22:50:08.000Z</time></trkpt>
        <trkpt lat="29.569183" lon="103.414716"><ele>926.67615</ele><time>2026-07-20T22:50:10.000Z</time></trkpt>
        <trkpt lat="29.569181" lon="103.414713"><ele>927.52155</ele><time>2026-07-20T22:50:12.000Z</time></trkpt>
        <trkpt lat="29.569159" lon="103.414673"><ele>927.43024</ele><time>2026-07-20T22:50:16.000Z</time></trkpt>
        <trkpt lat="29.569143" lon="103.414646"><ele>927.03394</ele><time>2026-07-20T22:50:18.000Z</time></trkpt>
        <trkpt lat="29.569128" lon="103.414618"><ele>927.0646</ele><time>2026-07-20T22:50:20.000Z</time></trkpt>
        <trkpt lat="29.569115" lon="103.414591"><ele>926.99854</ele><time>2026-07-20T22:50:22.000Z</time></trkpt>
        <trkpt lat="29.569104" lon="103.414568"><ele>927.1556</ele><time>2026-07-20T22:50:24.000Z</time></trkpt>
        <trkpt lat="29.569096" lon="103.414546"><ele>926.84863</ele><time>2026-07-20T22:50:26.000Z</time></trkpt>
        <trkpt lat="29.569088" lon="103.414525"><ele>926.7007</ele><time>2026-07-20T22:50:28.000Z</time></trkpt>
        <trkpt lat="29.569082" lon="103.414504"><ele>926.6479</ele><time>2026-07-20T22:50:30.000Z</time></trkpt>
        <trkpt lat="29.569076" lon="103.414483"><ele>926.48004</ele><time>2026-07-20T22:50:32.000Z</time></trkpt>
        <trkpt lat="29.569071" lon="103.414463"><ele>926.51263</ele><time>2026-07-20T22:50:34.000Z</time></trkpt>
        <trkpt lat="29.569071" lon="103.414442"><ele>926.1714</ele><time>2026-07-20T22:50:36.000Z</time></trkpt>
        <trkpt lat="29.569076" lon="103.414425"><ele>926.13495</ele><time>2026-07-20T22:50:38.000Z</time></trkpt>
        <trkpt lat="29.569086" lon="103.414406"><ele>925.97485</ele><time>2026-07-20T22:50:40.000Z</time></trkpt>
        <trkpt lat="29.569098" lon="103.414387"><ele>925.5757</ele><time>2026-07-20T22:50:42.000Z</time></trkpt>
        <trkpt lat="29.56911" lon="103.414369"><ele>925.33496</ele><time>2026-07-20T22:50:44.000Z</time></trkpt>
        <trkpt lat="29.569121" lon="103.41435"><ele>925.25903</ele><time>2026-07-20T22:50:46.000Z</time></trkpt>
        <trkpt lat="29.569127" lon="103.414333"><ele>924.2579</ele><time>2026-07-20T22:50:48.000Z</time></trkpt>
        <trkpt lat="29.56913" lon="103.414313"><ele>923.4561</ele><time>2026-07-20T22:50:50.000Z</time></trkpt>
        <trkpt lat="29.569131" lon="103.414294"><ele>923.5435</ele><time>2026-07-20T22:50:52.000Z</time></trkpt>
        <trkpt lat="29.569132" lon="103.414278"><ele>923.17487</ele><time>2026-07-20T22:50:54.000Z</time></trkpt>
        <trkpt lat="29.569132" lon="103.414261"><ele>922.76807</ele><time>2026-07-20T22:50:56.000Z</time></trkpt>
        <trkpt lat="29.569132" lon="103.414245"><ele>922.2813</ele><time>2026-07-20T22:50:58.000Z</time></trkpt>
        <trkpt lat="29.569131" lon="103.414227"><ele>922.7919</ele><time>2026-07-20T22:51:00.000Z</time></trkpt>
        <trkpt lat="29.569129" lon="103.414209"><ele>922.8855</ele><time>2026-07-20T22:51:02.000Z</time></trkpt>
        <trkpt lat="29.569128" lon="103.414192"><ele>923.29535</ele><time>2026-07-20T22:51:04.000Z</time></trkpt>
        <trkpt lat="29.569128" lon="103.414175"><ele>924.98303</ele><time>2026-07-20T22:51:06.000Z</time></trkpt>
        <trkpt lat="29.569127" lon="103.414159"><ele>923.0345</ele><time>2026-07-20T22:51:08.000Z</time></trkpt>
        <trkpt lat="29.569125" lon="103.414138"><ele>922.9415</ele><time>2026-07-20T22:51:10.000Z</time></trkpt>
        <trkpt lat="29.569124" lon="103.414118"><ele>922.82294</ele><time>2026-07-20T22:51:12.000Z</time></trkpt>
        <trkpt lat="29.569124" lon="103.414099"><ele>922.77563</ele><time>2026-07-20T22:51:14.000Z</time></trkpt>
        <trkpt lat="29.569128" lon="103.414083"><ele>923.233</ele><time>2026-07-20T22:51:16.000Z</time></trkpt>
        <trkpt lat="29.569133" lon="103.414069"><ele>924.03455</ele><time>2026-07-20T22:51:18.000Z</time></trkpt>
        <trkpt lat="29.56914" lon="103.414053"><ele>923.35474</ele><time>2026-07-20T22:51:20.000Z</time></trkpt>
        <trkpt lat="29.569148" lon="103.414037"><ele>923.92957</ele><time>2026-07-20T22:51:22.000Z</time></trkpt>
        <trkpt lat="29.569156" lon="103.414021"><ele>923.404</ele><time>2026-07-20T22:51:24.000Z</time></trkpt>
        <trkpt lat="29.569164" lon="103.414007"><ele>922.9515</ele><time>2026-07-20T22:51:26.000Z</time></trkpt>
        <trkpt lat="29.569171" lon="103.413994"><ele>922.649</ele><time>2026-07-20T22:51:28.000Z</time></trkpt>
        <trkpt lat="29.569178" lon="103.413978"><ele>922.7254</ele><time>2026-07-20T22:51:30.000Z</time></trkpt>
        <trkpt lat="29.569183" lon="103.41396"><ele>923.50555</ele><time>2026-07-20T22:51:32.000Z</time></trkpt>
        <trkpt lat="29.569186" lon="103.413944"><ele>923.6056</ele><time>2026-07-20T22:51:34.000Z</time></trkpt>
        <trkpt lat="29.569186" lon="103.413927"><ele>923.4187</ele><time>2026-07-20T22:51:36.000Z</time></trkpt>
        <trkpt lat="29.569185" lon="103.413912"><ele>923.3689</ele><time>2026-07-20T22:51:38.000Z</time></trkpt>
        <trkpt lat="29.569182" lon="103.413896"><ele>923.48193</ele><time>2026-07-20T22:51:40.000Z</time></trkpt>
        <trkpt lat="29.569177" lon="103.413879"><ele>923.4345</ele><time>2026-07-20T22:51:42.000Z</time></trkpt>
        <trkpt lat="29.569173" lon="103.413865"><ele>922.75525</ele><time>2026-07-20T22:51:44.000Z</time></trkpt>
        <trkpt lat="29.569168" lon="103.413851"><ele>922.7486</ele><time>2026-07-20T22:51:46.000Z</time></trkpt>
        <trkpt lat="29.569163" lon="103.413836"><ele>923.34454</ele><time>2026-07-20T22:51:48.000Z</time></trkpt>
        <trkpt lat="29.569157" lon="103.413818"><ele>923.53357</ele><time>2026-07-20T22:51:50.000Z</time></trkpt>
        <trkpt lat="29.569151" lon="103.4138"><ele>923.47095</ele><time>2026-07-20T22:51:52.000Z</time></trkpt>
        <trkpt lat="29.569144" lon="103.413782"><ele>922.51953</ele><time>2026-07-20T22:51:54.000Z</time></trkpt>
        <trkpt lat="29.569136" lon="103.413763"><ele>922.6919</ele><time>2026-07-20T22:51:56.000Z</time></trkpt>
        <trkpt lat="29.569126" lon="103.413741"><ele>923.02704</ele><time>2026-07-20T22:51:58.000Z</time></trkpt>
        <trkpt lat="29.569118" lon="103.413722"><ele>922.5312</ele><time>2026-07-20T22:52:00.000Z</time></trkpt>
        <trkpt lat="29.569109" lon="103.413702"><ele>922.81055</ele><time>2026-07-20T22:52:02.000Z</time></trkpt>
        <trkpt lat="29.5691" lon="103.41368"><ele>923.3892</ele><time>2026-07-20T22:52:04.000Z</time></trkpt>
        <trkpt lat="29.569091" lon="103.413658"><ele>923.387</ele><time>2026-07-20T22:52:06.000Z</time></trkpt>
        <trkpt lat="29.569084" lon="103.41364"><ele>922.55835</ele><time>2026-07-20T22:52:08.000Z</time></trkpt>
        <trkpt lat="29.569078" lon="103.413621"><ele>922.33887</ele><time>2026-07-20T22:52:10.000Z</time></trkpt>
        <trkpt lat="29.569073" lon="103.413606"><ele>922.3213</ele><time>2026-07-20T22:52:12.000Z</time></trkpt>
        <trkpt lat="29.569066" lon="103.413592"><ele>921.95703</ele><time>2026-07-20T22:52:14.000Z</time></trkpt>
        <trkpt lat="29.569056" lon="103.413577"><ele>921.36304</ele><time>2026-07-20T22:52:16.000Z</time></trkpt>
        <trkpt lat="29.569047" lon="103.413563"><ele>921.0186</ele><time>2026-07-20T22:52:18.000Z</time></trkpt>
        <trkpt lat="29.569038" lon="103.413544"><ele>921.27295</ele><time>2026-07-20T22:52:20.000Z</time></trkpt>
        <trkpt lat="29.569032" lon="103.413529"><ele>920.5894</ele><time>2026-07-20T22:52:22.000Z</time></trkpt>
        <trkpt lat="29.569028" lon="103.413516"><ele>921.0097</ele><time>2026-07-20T22:52:24.000Z</time></trkpt>
        <trkpt lat="29.569026" lon="103.413504"><ele>920.4818</ele><time>2026-07-20T22:52:26.000Z</time></trkpt>
        <trkpt lat="29.569025" lon="103.413486"><ele>921.5565</ele><time>2026-07-20T22:52:28.000Z</time></trkpt>
        <trkpt lat="29.569024" lon="103.413471"><ele>921.201</ele><time>2026-07-20T22:52:30.000Z</time></trkpt>
        <trkpt lat="29.569024" lon="103.413456"><ele>920.9519</ele><time>2026-07-20T22:52:32.000Z</time></trkpt>
        <trkpt lat="29.569024" lon="103.413442"><ele>921.13763</ele><time>2026-07-20T22:52:34.000Z</time></trkpt>
        <trkpt lat="29.569024" lon="103.413424"><ele>920.6802</ele><time>2026-07-20T22:52:36.000Z</time></trkpt>
        <trkpt lat="29.569023" lon="103.413404"><ele>920.04144</ele><time>2026-07-20T22:52:38.000Z</time></trkpt>
        <trkpt lat="29.569023" lon="103.41339"><ele>919.7086</ele><time>2026-07-20T22:52:40.000Z</time></trkpt>
        <trkpt lat="29.569024" lon="103.413378"><ele>920.0891</ele><time>2026-07-20T22:52:42.000Z</time></trkpt>
        <trkpt lat="29.569026" lon="103.413362"><ele>919.443</ele><time>2026-07-20T22:52:44.000Z</time></trkpt>
        <trkpt lat="29.569029" lon="103.413349"><ele>919.44275</ele><time>2026-07-20T22:52:46.000Z</time></trkpt>
        <trkpt lat="29.569032" lon="103.413332"><ele>919.30554</ele><time>2026-07-20T22:52:48.000Z</time></trkpt>
        <trkpt lat="29.569035" lon="103.413316"><ele>920.17395</ele><time>2026-07-20T22:52:50.000Z</time></trkpt>
        <trkpt lat="29.56904" lon="103.413298"><ele>921.33246</ele><time>2026-07-20T22:52:52.000Z</time></trkpt>
        <trkpt lat="29.569045" lon="103.413281"><ele>922.3892</ele><time>2026-07-20T22:52:54.000Z</time></trkpt>
        <trkpt lat="29.56905" lon="103.413263"><ele>923.0379</ele><time>2026-07-20T22:52:56.000Z</time></trkpt>
        <trkpt lat="29.569052" lon="103.413244"><ele>923.2225</ele><time>2026-07-20T22:52:58.000Z</time></trkpt>
        <trkpt lat="29.569053" lon="103.413223"><ele>922.93646</ele><time>2026-07-20T22:53:00.000Z</time></trkpt>
        <trkpt lat="29.569054" lon="103.413205"><ele>922.6465</ele><time>2026-07-20T22:53:02.000Z</time></trkpt>
        <trkpt lat="29.569053" lon="103.413188"><ele>922.7516</ele><time>2026-07-20T22:53:04.000Z</time></trkpt>
        <trkpt lat="29.56905" lon="103.413173"><ele>922.2438</ele><time>2026-07-20T22:53:06.000Z</time></trkpt>
        <trkpt lat="29.569049" lon="103.413159"><ele>921.81726</ele><time>2026-07-20T22:53:08.000Z</time></trkpt>
        <trkpt lat="29.569052" lon="103.413147"><ele>922.036</ele><time>2026-07-20T22:53:10.000Z</time></trkpt>
        <trkpt lat="29.56906" lon="103.413134"><ele>922.7053</ele><time>2026-07-20T22:53:12.000Z</time></trkpt>
        <trkpt lat="29.569072" lon="103.413121"><ele>922.6747</ele><time>2026-07-20T22:53:14.000Z</time></trkpt>
        <trkpt lat="29.569084" lon="103.413103"><ele>922.4493</ele><time>2026-07-20T22:53:16.000Z</time></trkpt>
        <trkpt lat="29.569093" lon="103.413086"><ele>921.54034</ele><time>2026-07-20T22:53:18.000Z</time></trkpt>
        <trkpt lat="29.569102" lon="103.413068"><ele>920.7292</ele><time>2026-07-20T22:53:20.000Z</time></trkpt>
        <trkpt lat="29.569109" lon="103.413051"><ele>918.56573</ele><time>2026-07-20T22:53:22.000Z</time></trkpt>
        <trkpt lat="29.569116" lon="103.413036"><ele>917.84314</ele><time>2026-07-20T22:53:24.000Z</time></trkpt>
        <trkpt lat="29.569125" lon="103.41302"><ele>917.63513</ele><time>2026-07-20T22:53:26.000Z</time></trkpt>
        <trkpt lat="29.569137" lon="103.413006"><ele>917.6214</ele><time>2026-07-20T22:53:28.000Z</time></trkpt>
        <trkpt lat="29.569151" lon="103.412989"><ele>917.696</ele><time>2026-07-20T22:53:30.000Z</time></trkpt>
        <trkpt lat="29.569164" lon="103.41297"><ele>915.91614</ele><time>2026-07-20T22:53:32.000Z</time></trkpt>
        <trkpt lat="29.569175" lon="103.412951"><ele>915.26263</ele><time>2026-07-20T22:53:34.000Z</time></trkpt>
        <trkpt lat="29.569185" lon="103.412935"><ele>914.68097</ele><time>2026-07-20T22:53:36.000Z</time></trkpt>
        <trkpt lat="29.569196" lon="103.412917"><ele>913.73804</ele><time>2026-07-20T22:53:38.000Z</time></trkpt>
        <trkpt lat="29.569208" lon="103.412901"><ele>913.5211</ele><time>2026-07-20T22:53:40.000Z</time></trkpt>
        <trkpt lat="29.56922" lon="103.412887"><ele>913.4617</ele><time>2026-07-20T22:53:42.000Z</time></trkpt>
        <trkpt lat="29.569233" lon="103.412874"><ele>913.31836</ele><time>2026-07-20T22:53:44.000Z</time></trkpt>
        <trkpt lat="29.569247" lon="103.412861"><ele>913.3719</ele><time>2026-07-20T22:53:46.000Z</time></trkpt>
        <trkpt lat="29.56926" lon="103.412848"><ele>913.8028</ele><time>2026-07-20T22:53:48.000Z</time></trkpt>
        <trkpt lat="29.569275" lon="103.412833"><ele>911.8143</ele><time>2026-07-20T22:53:50.000Z</time></trkpt>
        <trkpt lat="29.569292" lon="103.412822"><ele>912.1313</ele><time>2026-07-20T22:53:52.000Z</time></trkpt>
        <trkpt lat="29.56931" lon="103.412812"><ele>913.78357</ele><time>2026-07-20T22:53:54.000Z</time></trkpt>
        <trkpt lat="29.569326" lon="103.412803"><ele>914.2542</ele><time>2026-07-20T22:53:56.000Z</time></trkpt>
        <trkpt lat="29.56934" lon="103.412794"><ele>914.63336</ele><time>2026-07-20T22:53:58.000Z</time></trkpt>
        <trkpt lat="29.569355" lon="103.412785"><ele>913.64594</ele><time>2026-07-20T22:54:00.000Z</time></trkpt>
        <trkpt lat="29.569372" lon="103.412775"><ele>914.8789</ele><time>2026-07-20T22:54:02.000Z</time></trkpt>
        <trkpt lat="29.56939" lon="103.412764"><ele>915.51465</ele><time>2026-07-20T22:54:04.000Z</time></trkpt>
        <trkpt lat="29.569406" lon="103.412752"><ele>915.8</ele><time>2026-07-20T22:54:06.000Z</time></trkpt>
        <trkpt lat="29.56942" lon="103.41274"><ele>917.21387</ele><time>2026-07-20T22:54:08.000Z</time></trkpt>
        <trkpt lat="29.569433" lon="103.412724"><ele>916.9142</ele><time>2026-07-20T22:54:10.000Z</time></trkpt>
        <trkpt lat="29.569441" lon="103.412707"><ele>916.74786</ele><time>2026-07-20T22:54:12.000Z</time></trkpt>
        <trkpt lat="29.569442" lon="103.41269"><ele>917.9644</ele><time>2026-07-20T22:54:14.000Z</time></trkpt>
        <trkpt lat="29.569437" lon="103.412672"><ele>916.6684</ele><time>2026-07-20T22:54:16.000Z</time></trkpt>
        <trkpt lat="29.569426" lon="103.412651"><ele>915.99274</ele><time>2026-07-20T22:54:18.000Z</time></trkpt>
        <trkpt lat="29.56941" lon="103.412627"><ele>915.8493</ele><time>2026-07-20T22:54:20.000Z</time></trkpt>
        <trkpt lat="29.569396" lon="103.412607"><ele>914.7914</ele><time>2026-07-20T22:54:22.000Z</time></trkpt>
        <trkpt lat="29.569382" lon="103.412587"><ele>914.2026</ele><time>2026-07-20T22:54:24.000Z</time></trkpt>
        <trkpt lat="29.569374" lon="103.412572"><ele>913.14404</ele><time>2026-07-20T22:54:26.000Z</time></trkpt>
        <trkpt lat="29.569372" lon="103.412558"><ele>914.15063</ele><time>2026-07-20T22:54:28.000Z</time></trkpt>
        <trkpt lat="29.569375" lon="103.412545"><ele>915.1429</ele><time>2026-07-20T22:54:30.000Z</time></trkpt>
        <trkpt lat="29.569382" lon="103.412532"><ele>915.0697</ele><time>2026-07-20T22:54:32.000Z</time></trkpt>
        <trkpt lat="29.569389" lon="103.412516"><ele>915.0462</ele><time>2026-07-20T22:54:34.000Z</time></trkpt>
        <trkpt lat="29.569394" lon="103.412502"><ele>913.3481</ele><time>2026-07-20T22:54:36.000Z</time></trkpt>
        <trkpt lat="29.569396" lon="103.412489"><ele>913.62756</ele><time>2026-07-20T22:54:38.000Z</time></trkpt>
        <trkpt lat="29.569398" lon="103.412477"><ele>913.31116</ele><time>2026-07-20T22:54:40.000Z</time></trkpt>
        <trkpt lat="29.5694" lon="103.412466"><ele>912.6589</ele><time>2026-07-20T22:54:42.000Z</time></trkpt>
        <trkpt lat="29.5694" lon="103.412455"><ele>913.38336</ele><time>2026-07-20T22:54:44.000Z</time></trkpt>
        <trkpt lat="29.569398" lon="103.412444"><ele>912.5618</ele><time>2026-07-20T22:54:46.000Z</time></trkpt>
        <trkpt lat="29.569395" lon="103.412434"><ele>911.8686</ele><time>2026-07-20T22:54:48.000Z</time></trkpt>
        <trkpt lat="29.56939" lon="103.412424"><ele>910.6457</ele><time>2026-07-20T22:54:50.000Z</time></trkpt>
        <trkpt lat="29.569385" lon="103.412414"><ele>911.0161</ele><time>2026-07-20T22:54:52.000Z</time></trkpt>
        <trkpt lat="29.56938" lon="103.412402"><ele>911.21967</ele><time>2026-07-20T22:54:54.000Z</time></trkpt>
        <trkpt lat="29.569375" lon="103.412388"><ele>910.64075</ele><time>2026-07-20T22:54:56.000Z</time></trkpt>
        <trkpt lat="29.569372" lon="103.412375"><ele>911.0649</ele><time>2026-07-20T22:54:58.000Z</time></trkpt>
        <trkpt lat="29.569371" lon="103.412356"><ele>911.2065</ele><time>2026-07-20T22:55:00.000Z</time></trkpt>
        <trkpt lat="29.569373" lon="103.412339"><ele>911.07117</ele><time>2026-07-20T22:55:02.000Z</time></trkpt>
        <trkpt lat="29.569377" lon="103.412321"><ele>910.15643</ele><time>2026-07-20T22:55:04.000Z</time></trkpt>
        <trkpt lat="29.569381" lon="103.412308"><ele>910.0537</ele><time>2026-07-20T22:55:06.000Z</time></trkpt>
        <trkpt lat="29.569383" lon="103.412297"><ele>909.52936</ele><time>2026-07-20T22:55:08.000Z</time></trkpt>
        <trkpt lat="29.569385" lon="103.412284"><ele>908.5821</ele><time>2026-07-20T22:55:10.000Z</time></trkpt>
        <trkpt lat="29.569388" lon="103.412273"><ele>908.1441</ele><time>2026-07-20T22:55:12.000Z</time></trkpt>
        <trkpt lat="29.569388" lon="103.412262"><ele>908.16534</ele><time>2026-07-20T22:55:14.000Z</time></trkpt>
        <trkpt lat="29.569385" lon="103.412252"><ele>906.8424</ele><time>2026-07-20T22:55:16.000Z</time></trkpt>
        <trkpt lat="29.569381" lon="103.412244"><ele>906.67834</ele><time>2026-07-20T22:55:18.000Z</time></trkpt>
        <trkpt lat="29.569374" lon="103.412231"><ele>906.4897</ele><time>2026-07-20T22:55:22.000Z</time></trkpt>
        <trkpt lat="29.569369" lon="103.412226"><ele>906.6033</ele><time>2026-07-20T22:55:24.000Z</time></trkpt>
        <trkpt lat="29.569363" lon="103.412224"><ele>906.6542</ele><time>2026-07-20T22:55:26.000Z</time></trkpt>
        <trkpt lat="29.569347" lon="103.412219"><ele>906.7987</ele><time>2026-07-20T22:55:28.000Z</time></trkpt>
        <trkpt lat="29.569336" lon="103.412215"><ele>905.7414</ele><time>2026-07-20T22:55:34.000Z</time></trkpt>
        <trkpt lat="29.569325" lon="103.412213"><ele>905.69073</ele><time>2026-07-20T22:55:36.000Z</time></trkpt>
        <trkpt lat="29.569311" lon="103.41221"><ele>905.56714</ele><time>2026-07-20T22:55:38.000Z</time></trkpt>
        <trkpt lat="29.569295" lon="103.412209"><ele>905.81555</ele><time>2026-07-20T22:55:40.000Z</time></trkpt>
        <trkpt lat="29.569274" lon="103.412209"><ele>903.7098</ele><time>2026-07-20T22:55:42.000Z</time></trkpt>
        <trkpt lat="29.569255" lon="103.412209"><ele>903.66345</ele><time>2026-07-20T22:55:44.000Z</time></trkpt>
        <trkpt lat="29.569239" lon="103.412212"><ele>904.38354</ele><time>2026-07-20T22:55:46.000Z</time></trkpt>
        <trkpt lat="29.569225" lon="103.412216"><ele>904.56055</ele><time>2026-07-20T22:55:48.000Z</time></trkpt>
        <trkpt lat="29.569216" lon="103.412217"><ele>905.83624</ele><time>2026-07-20T22:55:50.000Z</time></trkpt>
        <trkpt lat="29.569211" lon="103.412214"><ele>905.277</ele><time>2026-07-20T22:55:52.000Z</time></trkpt>
        <trkpt lat="29.569194" lon="103.412202"><ele>904.55945</ele><time>2026-07-20T22:55:56.000Z</time></trkpt>
        <trkpt lat="29.569194" lon="103.412202"><ele>904.5511</ele><time>2026-07-20T22:55:58.000Z</time></trkpt>
        <trkpt lat="29.569189" lon="103.412201"><ele>902.7449</ele><time>2026-07-20T22:56:02.000Z</time></trkpt>
        <trkpt lat="29.569161" lon="103.412194"><ele>902.98883</ele><time>2026-07-20T22:56:06.000Z</time></trkpt>
        <trkpt lat="29.56915" lon="103.412189"><ele>902.1797</ele><time>2026-07-20T22:56:08.000Z</time></trkpt>
        <trkpt lat="29.569136" lon="103.412183"><ele>902.7753</ele><time>2026-07-20T22:56:10.000Z</time></trkpt>
        <trkpt lat="29.569124" lon="103.412177"><ele>901.5816</ele><time>2026-07-20T22:56:12.000Z</time></trkpt>
        <trkpt lat="29.569115" lon="103.412172"><ele>900.7917</ele><time>2026-07-20T22:56:14.000Z</time></trkpt>
        <trkpt lat="29.569105" lon="103.412163"><ele>900.4155</ele><time>2026-07-20T22:56:16.000Z</time></trkpt>
        <trkpt lat="29.569101" lon="103.412156"><ele>900.6631</ele><time>2026-07-20T22:56:18.000Z</time></trkpt>
        <trkpt lat="29.569097" lon="103.412148"><ele>900.29346</ele><time>2026-07-20T22:56:20.000Z</time></trkpt>
        <trkpt lat="29.569087" lon="103.412138"><ele>898.9263</ele><time>2026-07-20T22:56:24.000Z</time></trkpt>
        <trkpt lat="29.569075" lon="103.412131"><ele>899.22253</ele><time>2026-07-20T22:56:26.000Z</time></trkpt>
        <trkpt lat="29.569065" lon="103.412125"><ele>898.6593</ele><time>2026-07-20T22:56:28.000Z</time></trkpt>
        <trkpt lat="29.569057" lon="103.412119"><ele>899.1159</ele><time>2026-07-20T22:56:30.000Z</time></trkpt>
        <trkpt lat="29.56905" lon="103.412112"><ele>899.15857</ele><time>2026-07-20T22:56:32.000Z</time></trkpt>
        <trkpt lat="29.569039" lon="103.412102"><ele>899.60114</ele><time>2026-07-20T22:56:34.000Z</time></trkpt>
        <trkpt lat="29.569027" lon="103.412092"><ele>899.462</ele><time>2026-07-20T22:56:36.000Z</time></trkpt>
        <trkpt lat="29.569014" lon="103.41208"><ele>898.75867</ele><time>2026-07-20T22:56:38.000Z</time></trkpt>
        <trkpt lat="29.568999" lon="103.412068"><ele>898.9943</ele><time>2026-07-20T22:56:40.000Z</time></trkpt>
        <trkpt lat="29.568987" lon="103.412054"><ele>898.78094</ele><time>2026-07-20T22:56:42.000Z</time></trkpt>
        <trkpt lat="29.568976" lon="103.412039"><ele>898.1831</ele><time>2026-07-20T22:56:44.000Z</time></trkpt>
        <trkpt lat="29.568967" lon="103.412023"><ele>897.80774</ele><time>2026-07-20T22:56:46.000Z</time></trkpt>
        <trkpt lat="29.568959" lon="103.412008"><ele>896.5819</ele><time>2026-07-20T22:56:48.000Z</time></trkpt>
        <trkpt lat="29.568956" lon="103.411996"><ele>895.89856</ele><time>2026-07-20T22:56:50.000Z</time></trkpt>
        <trkpt lat="29.568953" lon="103.411984"><ele>895.871</ele><time>2026-07-20T22:56:52.000Z</time></trkpt>
        <trkpt lat="29.56895" lon="103.411969"><ele>895.13654</ele><time>2026-07-20T22:56:54.000Z</time></trkpt>
        <trkpt lat="29.568944" lon="103.411953"><ele>895.3546</ele><time>2026-07-20T22:56:56.000Z</time></trkpt>
        <trkpt lat="29.568936" lon="103.411935"><ele>894.7096</ele><time>2026-07-20T22:56:58.000Z</time></trkpt>
        <trkpt lat="29.568927" lon="103.411914"><ele>894.72296</ele><time>2026-07-20T22:57:00.000Z</time></trkpt>
        <trkpt lat="29.568915" lon="103.411896"><ele>893.8495</ele><time>2026-07-20T22:57:02.000Z</time></trkpt>
        <trkpt lat="29.568898" lon="103.411882"><ele>893.58105</ele><time>2026-07-20T22:57:04.000Z</time></trkpt>
        <trkpt lat="29.568879" lon="103.411871"><ele>893.4461</ele><time>2026-07-20T22:57:06.000Z</time></trkpt>
        <trkpt lat="29.568858" lon="103.411865"><ele>893.1679</ele><time>2026-07-20T22:57:08.000Z</time></trkpt>
        <trkpt lat="29.568836" lon="103.411862"><ele>892.75464</ele><time>2026-07-20T22:57:10.000Z</time></trkpt>
        <trkpt lat="29.568815" lon="103.411862"><ele>892.9217</ele><time>2026-07-20T22:57:12.000Z</time></trkpt>
        <trkpt lat="29.568795" lon="103.411863"><ele>891.907</ele><time>2026-07-20T22:57:14.000Z</time></trkpt>
        <trkpt lat="29.568777" lon="103.411863"><ele>892.7173</ele><time>2026-07-20T22:57:16.000Z</time></trkpt>
        <trkpt lat="29.568767" lon="103.41186"><ele>892.77155</ele><time>2026-07-20T22:57:18.000Z</time></trkpt>
        <trkpt lat="29.568756" lon="103.411856"><ele>892.66766</ele><time>2026-07-20T22:57:20.000Z</time></trkpt>
        <trkpt lat="29.568746" lon="103.411853"><ele>892.5954</ele><time>2026-07-20T22:57:22.000Z</time></trkpt>
        <trkpt lat="29.568737" lon="103.411849"><ele>892.69116</ele><time>2026-07-20T22:57:24.000Z</time></trkpt>
        <trkpt lat="29.568726" lon="103.411845"><ele>892.88837</ele><time>2026-07-20T22:57:28.000Z</time></trkpt>
        <trkpt lat="29.56871" lon="103.411838"><ele>892.2616</ele><time>2026-07-20T22:57:30.000Z</time></trkpt>
        <trkpt lat="29.568709" lon="103.411838"><ele>891.9304</ele><time>2026-07-20T22:57:32.000Z</time></trkpt>
        <trkpt lat="29.568691" lon="103.41184"><ele>890.64276</ele><time>2026-07-20T22:57:38.000Z</time></trkpt>
        <trkpt lat="29.568669" lon="103.411843"><ele>890.1731</ele><time>2026-07-20T22:57:40.000Z</time></trkpt>
        <trkpt lat="29.568668" lon="103.411843"><ele>889.5721</ele><time>2026-07-20T22:57:42.000Z</time></trkpt>
        <trkpt lat="29.568667" lon="103.411843"><ele>889.00916</ele><time>2026-07-20T22:57:44.000Z</time></trkpt>
        <trkpt lat="29.568639" lon="103.411832"><ele>887.6897</ele><time>2026-07-20T22:57:48.000Z</time></trkpt>
        <trkpt lat="29.568639" lon="103.411832"><ele>888.06995</ele><time>2026-07-20T22:57:50.000Z</time></trkpt>
        <trkpt lat="29.568638" lon="103.411831"><ele>888.07465</ele><time>2026-07-20T22:57:52.000Z</time></trkpt>
        <trkpt lat="29.56861" lon="103.4118"><ele>887.80743</ele><time>2026-07-20T22:57:58.000Z</time></trkpt>
        <trkpt lat="29.568598" lon="103.411786"><ele>886.71606</ele><time>2026-07-20T22:58:00.000Z</time></trkpt>
        <trkpt lat="29.568586" lon="103.411772"><ele>885.90796</ele><time>2026-07-20T22:58:02.000Z</time></trkpt>
        <trkpt lat="29.568575" lon="103.41176"><ele>886.0321</ele><time>2026-07-20T22:58:04.000Z</time></trkpt>
        <trkpt lat="29.568563" lon="103.411745"><ele>885.6885</ele><time>2026-07-20T22:58:06.000Z</time></trkpt>
        <trkpt lat="29.568551" lon="103.41173"><ele>885.38165</ele><time>2026-07-20T22:58:08.000Z</time></trkpt>
        <trkpt lat="29.56854" lon="103.411717"><ele>884.66833</ele><time>2026-07-20T22:58:10.000Z</time></trkpt>
        <trkpt lat="29.568528" lon="103.411701"><ele>884.5141</ele><time>2026-07-20T22:58:12.000Z</time></trkpt>
        <trkpt lat="29.568515" lon="103.411688"><ele>884.58057</ele><time>2026-07-20T22:58:14.000Z</time></trkpt>
        <trkpt lat="29.568502" lon="103.411673"><ele>884.7495</ele><time>2026-07-20T22:58:16.000Z</time></trkpt>
        <trkpt lat="29.56849" lon="103.411657"><ele>884.7002</ele><time>2026-07-20T22:58:18.000Z</time></trkpt>
        <trkpt lat="29.568478" lon="103.411642"><ele>884.38275</ele><time>2026-07-20T22:58:20.000Z</time></trkpt>
        <trkpt lat="29.568467" lon="103.411626"><ele>884.42883</ele><time>2026-07-20T22:58:22.000Z</time></trkpt>
        <trkpt lat="29.568457" lon="103.41161"><ele>884.2625</ele><time>2026-07-20T22:58:24.000Z</time></trkpt>
        <trkpt lat="29.568445" lon="103.411594"><ele>884.4621</ele><time>2026-07-20T22:58:26.000Z</time></trkpt>
        <trkpt lat="29.568433" lon="103.411577"><ele>884.5683</ele><time>2026-07-20T22:58:28.000Z</time></trkpt>
        <trkpt lat="29.568424" lon="103.411568"><ele>884.7685</ele><time>2026-07-20T22:58:30.000Z</time></trkpt>
        <trkpt lat="29.568416" lon="103.411561"><ele>884.7642</ele><time>2026-07-20T22:58:32.000Z</time></trkpt>
        <trkpt lat="29.568407" lon="103.411552"><ele>884.67</ele><time>2026-07-20T22:58:34.000Z</time></trkpt>
        <trkpt lat="29.568402" lon="103.411543"><ele>884.02405</ele><time>2026-07-20T22:58:36.000Z</time></trkpt>
        <trkpt lat="29.5684" lon="103.411532"><ele>884.5117</ele><time>2026-07-20T22:58:38.000Z</time></trkpt>
        <trkpt lat="29.568402" lon="103.41152"><ele>884.6065</ele><time>2026-07-20T22:58:40.000Z</time></trkpt>
        <trkpt lat="29.568405" lon="103.411506"><ele>884.00854</ele><time>2026-07-20T22:58:42.000Z</time></trkpt>
        <trkpt lat="29.568408" lon="103.411487"><ele>883.88074</ele><time>2026-07-20T22:58:44.000Z</time></trkpt>
        <trkpt lat="29.568413" lon="103.411468"><ele>885.0646</ele><time>2026-07-20T22:58:46.000Z</time></trkpt>
        <trkpt lat="29.568417" lon="103.411447"><ele>884.88336</ele><time>2026-07-20T22:58:48.000Z</time></trkpt>
        <trkpt lat="29.568418" lon="103.41143"><ele>885.09247</ele><time>2026-07-20T22:58:50.000Z</time></trkpt>
        <trkpt lat="29.568419" lon="103.411417"><ele>885.12146</ele><time>2026-07-20T22:58:52.000Z</time></trkpt>
        <trkpt lat="29.568423" lon="103.4114"><ele>884.6195</ele><time>2026-07-20T22:58:54.000Z</time></trkpt>
        <trkpt lat="29.568427" lon="103.411385"><ele>883.7736</ele><time>2026-07-20T22:58:56.000Z</time></trkpt>
        <trkpt lat="29.568434" lon="103.411363"><ele>882.43976</ele><time>2026-07-20T22:58:58.000Z</time></trkpt>
        <trkpt lat="29.568442" lon="103.411338"><ele>879.939</ele><time>2026-07-20T22:59:00.000Z</time></trkpt>
        <trkpt lat="29.568451" lon="103.411315"><ele>880.02075</ele><time>2026-07-20T22:59:02.000Z</time></trkpt>
        <trkpt lat="29.568458" lon="103.411294"><ele>879.76337</ele><time>2026-07-20T22:59:04.000Z</time></trkpt>
        <trkpt lat="29.568465" lon="103.411273"><ele>879.76227</ele><time>2026-07-20T22:59:06.000Z</time></trkpt>
        <trkpt lat="29.568471" lon="103.411255"><ele>879.499</ele><time>2026-07-20T22:59:08.000Z</time></trkpt>
        <trkpt lat="29.568478" lon="103.411238"><ele>879.37787</ele><time>2026-07-20T22:59:10.000Z</time></trkpt>
        <trkpt lat="29.568484" lon="103.41122"><ele>879.63153</ele><time>2026-07-20T22:59:12.000Z</time></trkpt>
        <trkpt lat="29.56849" lon="103.411206"><ele>879.5959</ele><time>2026-07-20T22:59:14.000Z</time></trkpt>
        <trkpt lat="29.568497" lon="103.41119"><ele>879.6781</ele><time>2026-07-20T22:59:16.000Z</time></trkpt>
        <trkpt lat="29.568502" lon="103.411175"><ele>880.0603</ele><time>2026-07-20T22:59:18.000Z</time></trkpt>
        <trkpt lat="29.568505" lon="103.411163"><ele>879.4512</ele><time>2026-07-20T22:59:20.000Z</time></trkpt>
        <trkpt lat="29.568507" lon="103.411148"><ele>879.39795</ele><time>2026-07-20T22:59:22.000Z</time></trkpt>
        <trkpt lat="29.568508" lon="103.411134"><ele>879.25946</ele><time>2026-07-20T22:59:24.000Z</time></trkpt>
        <trkpt lat="29.568509" lon="103.411116"><ele>878.8524</ele><time>2026-07-20T22:59:26.000Z</time></trkpt>
        <trkpt lat="29.568509" lon="103.411102"><ele>879.159</ele><time>2026-07-20T22:59:28.000Z</time></trkpt>
        <trkpt lat="29.568509" lon="103.411086"><ele>878.8275</ele><time>2026-07-20T22:59:30.000Z</time></trkpt>
        <trkpt lat="29.568509" lon="103.411067"><ele>878.4736</ele><time>2026-07-20T22:59:32.000Z</time></trkpt>
        <trkpt lat="29.56851" lon="103.411048"><ele>877.92804</ele><time>2026-07-20T22:59:34.000Z</time></trkpt>
        <trkpt lat="29.568513" lon="103.411028"><ele>877.995</ele><time>2026-07-20T22:59:36.000Z</time></trkpt>
        <trkpt lat="29.568516" lon="103.41101"><ele>878.12213</ele><time>2026-07-20T22:59:38.000Z</time></trkpt>
        <trkpt lat="29.56852" lon="103.410993"><ele>878.3312</ele><time>2026-07-20T22:59:40.000Z</time></trkpt>
        <trkpt lat="29.568525" lon="103.410976"><ele>877.9713</ele><time>2026-07-20T22:59:42.000Z</time></trkpt>
        <trkpt lat="29.568531" lon="103.410961"><ele>878.1133</ele><time>2026-07-20T22:59:44.000Z</time></trkpt>
        <trkpt lat="29.568537" lon="103.410946"><ele>878.65704</ele><time>2026-07-20T22:59:46.000Z</time></trkpt>
        <trkpt lat="29.568543" lon="103.410929"><ele>878.48236</ele><time>2026-07-20T22:59:48.000Z</time></trkpt>
        <trkpt lat="29.568547" lon="103.410914"><ele>878.0635</ele><time>2026-07-20T22:59:50.000Z</time></trkpt>
        <trkpt lat="29.56855" lon="103.410902"><ele>877.74243</ele><time>2026-07-20T22:59:52.000Z</time></trkpt>
        <trkpt lat="29.568554" lon="103.410889"><ele>878.5539</ele><time>2026-07-20T22:59:54.000Z</time></trkpt>
        <trkpt lat="29.568558" lon="103.410876"><ele>878.58655</ele><time>2026-07-20T22:59:56.000Z</time></trkpt>
        <trkpt lat="29.568563" lon="103.410863"><ele>878.2675</ele><time>2026-07-20T22:59:58.000Z</time></trkpt>
        <trkpt lat="29.568568" lon="103.41085"><ele>877.8952</ele><time>2026-07-20T23:00:00.000Z</time></trkpt>
        <trkpt lat="29.568573" lon="103.410838"><ele>877.29663</ele><time>2026-07-20T23:00:02.000Z</time></trkpt>
        <trkpt lat="29.56858" lon="103.410827"><ele>876.862</ele><time>2026-07-20T23:00:04.000Z</time></trkpt>
        <trkpt lat="29.568585" lon="103.410815"><ele>877.00275</ele><time>2026-07-20T23:00:06.000Z</time></trkpt>
        <trkpt lat="29.568589" lon="103.410802"><ele>876.62616</ele><time>2026-07-20T23:00:08.000Z</time></trkpt>
        <trkpt lat="29.568594" lon="103.410789"><ele>875.7306</ele><time>2026-07-20T23:00:10.000Z</time></trkpt>
        <trkpt lat="29.5686" lon="103.410772"><ele>874.5618</ele><time>2026-07-20T23:00:12.000Z</time></trkpt>
        <trkpt lat="29.568608" lon="103.410757"><ele>873.9087</ele><time>2026-07-20T23:00:14.000Z</time></trkpt>
        <trkpt lat="29.568617" lon="103.410741"><ele>874.34015</ele><time>2026-07-20T23:00:16.000Z</time></trkpt>
        <trkpt lat="29.568627" lon="103.410725"><ele>874.8634</ele><time>2026-07-20T23:00:18.000Z</time></trkpt>
        <trkpt lat="29.568634" lon="103.410706"><ele>875.1041</ele><time>2026-07-20T23:00:20.000Z</time></trkpt>
        <trkpt lat="29.568639" lon="103.410687"><ele>874.7651</ele><time>2026-07-20T23:00:22.000Z</time></trkpt>
        <trkpt lat="29.568643" lon="103.410668"><ele>875.2658</ele><time>2026-07-20T23:00:24.000Z</time></trkpt>
        <trkpt lat="29.568644" lon="103.410651"><ele>875.41925</ele><time>2026-07-20T23:00:26.000Z</time></trkpt>
        <trkpt lat="29.568645" lon="103.410636"><ele>875.5694</ele><time>2026-07-20T23:00:28.000Z</time></trkpt>
        <trkpt lat="29.568646" lon="103.410615"><ele>875.67694</ele><time>2026-07-20T23:00:30.000Z</time></trkpt>
        <trkpt lat="29.568648" lon="103.410592"><ele>875.25696</ele><time>2026-07-20T23:00:32.000Z</time></trkpt>
        <trkpt lat="29.568651" lon="103.41057"><ele>874.59204</ele><time>2026-07-20T23:00:34.000Z</time></trkpt>
        <trkpt lat="29.568656" lon="103.410548"><ele>874.8023</ele><time>2026-07-20T23:00:36.000Z</time></trkpt>
        <trkpt lat="29.568662" lon="103.410527"><ele>874.74634</ele><time>2026-07-20T23:00:38.000Z</time></trkpt>
        <trkpt lat="29.568667" lon="103.410505"><ele>875.3601</ele><time>2026-07-20T23:00:40.000Z</time></trkpt>
        <trkpt lat="29.568672" lon="103.410482"><ele>874.9973</ele><time>2026-07-20T23:00:42.000Z</time></trkpt>
        <trkpt lat="29.568674" lon="103.41046"><ele>874.8658</ele><time>2026-07-20T23:00:44.000Z</time></trkpt>
        <trkpt lat="29.568674" lon="103.410439"><ele>874.8719</ele><time>2026-07-20T23:00:46.000Z</time></trkpt>
        <trkpt lat="29.568674" lon="103.410417"><ele>875.0004</ele><time>2026-07-20T23:00:48.000Z</time></trkpt>
        <trkpt lat="29.568675" lon="103.410401"><ele>875.5963</ele><time>2026-07-20T23:00:50.000Z</time></trkpt>
        <trkpt lat="29.568674" lon="103.410383"><ele>874.95404</ele><time>2026-07-20T23:00:52.000Z</time></trkpt>
        <trkpt lat="29.568673" lon="103.410366"><ele>875.5548</ele><time>2026-07-20T23:00:54.000Z</time></trkpt>
        <trkpt lat="29.568672" lon="103.410347"><ele>875.51654</ele><time>2026-07-20T23:00:56.000Z</time></trkpt>
        <trkpt lat="29.568673" lon="103.410327"><ele>875.74835</ele><time>2026-07-20T23:00:58.000Z</time></trkpt>
        <trkpt lat="29.568676" lon="103.410308"><ele>876.4232</ele><time>2026-07-20T23:01:00.000Z</time></trkpt>
        <trkpt lat="29.568682" lon="103.41029"><ele>876.15155</ele><time>2026-07-20T23:01:02.000Z</time></trkpt>
        <trkpt lat="29.56869" lon="103.410275"><ele>874.8705</ele><time>2026-07-20T23:01:04.000Z</time></trkpt>
        <trkpt lat="29.568699" lon="103.410259"><ele>874.27344</ele><time>2026-07-20T23:01:06.000Z</time></trkpt>
        <trkpt lat="29.568707" lon="103.410242"><ele>874.2511</ele><time>2026-07-20T23:01:08.000Z</time></trkpt>
        <trkpt lat="29.568713" lon="103.410226"><ele>874.02216</ele><time>2026-07-20T23:01:10.000Z</time></trkpt>
        <trkpt lat="29.568718" lon="103.410208"><ele>874.1372</ele><time>2026-07-20T23:01:12.000Z</time></trkpt>
        <trkpt lat="29.568718" lon="103.410191"><ele>873.2183</ele><time>2026-07-20T23:01:14.000Z</time></trkpt>
        <trkpt lat="29.568716" lon="103.410174"><ele>873.72363</ele><time>2026-07-20T23:01:16.000Z</time></trkpt>
        <trkpt lat="29.568712" lon="103.410157"><ele>872.50446</ele><time>2026-07-20T23:01:18.000Z</time></trkpt>
        <trkpt lat="29.568707" lon="103.410138"><ele>873.0484</ele><time>2026-07-20T23:01:20.000Z</time></trkpt>
        <trkpt lat="29.568704" lon="103.410124"><ele>873.50964</ele><time>2026-07-20T23:01:22.000Z</time></trkpt>
        <trkpt lat="29.568701" lon="103.410118"><ele>873.85504</ele><time>2026-07-20T23:01:24.000Z</time></trkpt>
        <trkpt lat="29.568694" lon="103.410105"><ele>872.31067</ele><time>2026-07-20T23:01:28.000Z</time></trkpt>
        <trkpt lat="29.568686" lon="103.410095"><ele>872.78876</ele><time>2026-07-20T23:01:30.000Z</time></trkpt>
        <trkpt lat="29.568673" lon="103.410083"><ele>873.14386</ele><time>2026-07-20T23:01:32.000Z</time></trkpt>
        <trkpt lat="29.568659" lon="103.410069"><ele>873.41284</ele><time>2026-07-20T23:01:34.000Z</time></trkpt>
        <trkpt lat="29.568644" lon="103.410055"><ele>873.70233</ele><time>2026-07-20T23:01:36.000Z</time></trkpt>
        <trkpt lat="29.568628" lon="103.410042"><ele>873.7671</ele><time>2026-07-20T23:01:38.000Z</time></trkpt>
        <trkpt lat="29.568612" lon="103.410029"><ele>874.0758</ele><time>2026-07-20T23:01:40.000Z</time></trkpt>
        <trkpt lat="29.568599" lon="103.410016"><ele>874.28485</ele><time>2026-07-20T23:01:42.000Z</time></trkpt>
        <trkpt lat="29.568587" lon="103.410002"><ele>873.8251</ele><time>2026-07-20T23:01:44.000Z</time></trkpt>
        <trkpt lat="29.568577" lon="103.409986"><ele>874.28253</ele><time>2026-07-20T23:01:46.000Z</time></trkpt>
        <trkpt lat="29.568566" lon="103.409967"><ele>874.2913</ele><time>2026-07-20T23:01:48.000Z</time></trkpt>
        <trkpt lat="29.568554" lon="103.409958"><ele>874.16473</ele><time>2026-07-20T23:01:50.000Z</time></trkpt>
        <trkpt lat="29.568547" lon="103.409959"><ele>875.2171</ele><time>2026-07-20T23:01:52.000Z</time></trkpt>
        <trkpt lat="29.568536" lon="103.409966"><ele>875.71783</ele><time>2026-07-20T23:01:54.000Z</time></trkpt>
        <trkpt lat="29.568522" lon="103.409979"><ele>875.42773</ele><time>2026-07-20T23:01:56.000Z</time></trkpt>
        <trkpt lat="29.568505" lon="103.40999"><ele>875.31793</ele><time>2026-07-20T23:01:58.000Z</time></trkpt>
        <trkpt lat="29.568488" lon="103.409994"><ele>875.2057</ele><time>2026-07-20T23:02:00.000Z</time></trkpt>
        <trkpt lat="29.568476" lon="103.40999"><ele>874.25824</ele><time>2026-07-20T23:02:02.000Z</time></trkpt>
        <trkpt lat="29.568466" lon="103.409981"><ele>873.2579</ele><time>2026-07-20T23:02:04.000Z</time></trkpt>
        <trkpt lat="29.568459" lon="103.409969"><ele>873.95734</ele><time>2026-07-20T23:02:06.000Z</time></trkpt>
        <trkpt lat="29.568453" lon="103.409952"><ele>873.99884</ele><time>2026-07-20T23:02:08.000Z</time></trkpt>
        <trkpt lat="29.568447" lon="103.409931"><ele>873.48224</ele><time>2026-07-20T23:02:10.000Z</time></trkpt>
        <trkpt lat="29.568444" lon="103.409915"><ele>873.2754</ele><time>2026-07-20T23:02:12.000Z</time></trkpt>
        <trkpt lat="29.568441" lon="103.409901"><ele>872.31903</ele><time>2026-07-20T23:02:14.000Z</time></trkpt>
        <trkpt lat="29.568438" lon="103.40989"><ele>872.5656</ele><time>2026-07-20T23:02:16.000Z</time></trkpt>
        <trkpt lat="29.568434" lon="103.409879"><ele>872.62823</ele><time>2026-07-20T23:02:18.000Z</time></trkpt>
        <trkpt lat="29.56843" lon="103.409869"><ele>873.0244</ele><time>2026-07-20T23:02:20.000Z</time></trkpt>
        <trkpt lat="29.568424" lon="103.409858"><ele>873.187</ele><time>2026-07-20T23:02:22.000Z</time></trkpt>
        <trkpt lat="29.568417" lon="103.409848"><ele>873.12146</ele><time>2026-07-20T23:02:24.000Z</time></trkpt>
        <trkpt lat="29.568409" lon="103.409838"><ele>872.48596</ele><time>2026-07-20T23:02:26.000Z</time></trkpt>
        <trkpt lat="29.568401" lon="103.409828"><ele>872.6141</ele><time>2026-07-20T23:02:28.000Z</time></trkpt>
        <trkpt lat="29.568393" lon="103.409817"><ele>872.73267</ele><time>2026-07-20T23:02:30.000Z</time></trkpt>
        <trkpt lat="29.568386" lon="103.409804"><ele>873.25476</ele><time>2026-07-20T23:02:32.000Z</time></trkpt>
        <trkpt lat="29.568381" lon="103.409791"><ele>873.2519</ele><time>2026-07-20T23:02:34.000Z</time></trkpt>
        <trkpt lat="29.568374" lon="103.409772"><ele>872.5291</ele><time>2026-07-20T23:02:36.000Z</time></trkpt>
        <trkpt lat="29.568365" lon="103.409756"><ele>872.35706</ele><time>2026-07-20T23:02:38.000Z</time></trkpt>
        <trkpt lat="29.568354" lon="103.409743"><ele>871.59906</ele><time>2026-07-20T23:02:40.000Z</time></trkpt>
        <trkpt lat="29.568343" lon="103.409732"><ele>871.3126</ele><time>2026-07-20T23:02:42.000Z</time></trkpt>
        <trkpt lat="29.568335" lon="103.409722"><ele>870.8539</ele><time>2026-07-20T23:02:44.000Z</time></trkpt>
        <trkpt lat="29.568327" lon="103.409711"><ele>870.5021</ele><time>2026-07-20T23:02:46.000Z</time></trkpt>
        <trkpt lat="29.56832" lon="103.409701"><ele>870.773</ele><time>2026-07-20T23:02:48.000Z</time></trkpt>
        <trkpt lat="29.568316" lon="103.40969"><ele>870.14667</ele><time>2026-07-20T23:02:50.000Z</time></trkpt>
        <trkpt lat="29.568311" lon="103.409678"><ele>868.94403</ele><time>2026-07-20T23:02:52.000Z</time></trkpt>
        <trkpt lat="29.568306" lon="103.409663"><ele>867.29956</ele><time>2026-07-20T23:02:54.000Z</time></trkpt>
        <trkpt lat="29.568304" lon="103.409654"><ele>866.99414</ele><time>2026-07-20T23:02:56.000Z</time></trkpt>
        <trkpt lat="29.568303" lon="103.409644"><ele>866.4535</ele><time>2026-07-20T23:02:58.000Z</time></trkpt>
        <trkpt lat="29.568303" lon="103.409625"><ele>867.3769</ele><time>2026-07-20T23:03:02.000Z</time></trkpt>
        <trkpt lat="29.568304" lon="103.409618"><ele>866.8277</ele><time>2026-07-20T23:03:04.000Z</time></trkpt>
        <trkpt lat="29.568306" lon="103.409602"><ele>866.2767</ele><time>2026-07-20T23:03:06.000Z</time></trkpt>
        <trkpt lat="29.568306" lon="103.409601"><ele>865.83325</ele><time>2026-07-20T23:03:08.000Z</time></trkpt>
        <trkpt lat="29.568301" lon="103.409588"><ele>866.9467</ele><time>2026-07-20T23:03:14.000Z</time></trkpt>
        <trkpt lat="29.568292" lon="103.409566"><ele>866.3766</ele><time>2026-07-20T23:03:16.000Z</time></trkpt>
        <trkpt lat="29.568292" lon="103.409564"><ele>865.8983</ele><time>2026-07-20T23:03:18.000Z</time></trkpt>
        <trkpt lat="29.568291" lon="103.409563"><ele>865.34595</ele><time>2026-07-20T23:03:20.000Z</time></trkpt>
        <trkpt lat="29.568276" lon="103.409521"><ele>865.22266</ele><time>2026-07-20T23:03:26.000Z</time></trkpt>
        <trkpt lat="29.56827" lon="103.409507"><ele>865.5197</ele><time>2026-07-20T23:03:28.000Z</time></trkpt>
        <trkpt lat="29.568262" lon="103.409493"><ele>864.95886</ele><time>2026-07-20T23:03:30.000Z</time></trkpt>
        <trkpt lat="29.568256" lon="103.409486"><ele>865.116</ele><time>2026-07-20T23:03:32.000Z</time></trkpt>
        <trkpt lat="29.56825" lon="103.409479"><ele>864.57825</ele><time>2026-07-20T23:03:34.000Z</time></trkpt>
        <trkpt lat="29.568243" lon="103.409462"><ele>863.4838</ele><time>2026-07-20T23:03:38.000Z</time></trkpt>
        <trkpt lat="29.568239" lon="103.409451"><ele>863.075</ele><time>2026-07-20T23:03:40.000Z</time></trkpt>
        <trkpt lat="29.568239" lon="103.40945"><ele>862.17334</ele><time>2026-07-20T23:03:42.000Z</time></trkpt>
        <trkpt lat="29.568228" lon="103.40942"><ele>860.35596</ele><time>2026-07-20T23:03:48.000Z</time></trkpt>
        <trkpt lat="29.56822" lon="103.409402"><ele>860.10565</ele><time>2026-07-20T23:03:50.000Z</time></trkpt>
        <trkpt lat="29.568212" lon="103.409385"><ele>860.86584</ele><time>2026-07-20T23:03:52.000Z</time></trkpt>
        <trkpt lat="29.568205" lon="103.409372"><ele>860.7741</ele><time>2026-07-20T23:03:54.000Z</time></trkpt>
        <trkpt lat="29.568199" lon="103.409363"><ele>860.5734</ele><time>2026-07-20T23:03:56.000Z</time></trkpt>
        <trkpt lat="29.568192" lon="103.409354"><ele>861.4093</ele><time>2026-07-20T23:03:58.000Z</time></trkpt>
        <trkpt lat="29.568185" lon="103.409343"><ele>860.5569</ele><time>2026-07-20T23:04:00.000Z</time></trkpt>
        <trkpt lat="29.568179" lon="103.409332"><ele>859.1423</ele><time>2026-07-20T23:04:02.000Z</time></trkpt>
        <trkpt lat="29.56817" lon="103.409315"><ele>858.4466</ele><time>2026-07-20T23:04:04.000Z</time></trkpt>
        <trkpt lat="29.568163" lon="103.409299"><ele>857.5727</ele><time>2026-07-20T23:04:06.000Z</time></trkpt>
        <trkpt lat="29.568156" lon="103.409283"><ele>856.9629</ele><time>2026-07-20T23:04:08.000Z</time></trkpt>
        <trkpt lat="29.56815" lon="103.409267"><ele>856.7173</ele><time>2026-07-20T23:04:10.000Z</time></trkpt>
        <trkpt lat="29.568144" lon="103.409254"><ele>856.03766</ele><time>2026-07-20T23:04:12.000Z</time></trkpt>
        <trkpt lat="29.568138" lon="103.409236"><ele>855.0809</ele><time>2026-07-20T23:04:14.000Z</time></trkpt>
        <trkpt lat="29.568134" lon="103.409219"><ele>853.56036</ele><time>2026-07-20T23:04:16.000Z</time></trkpt>
        <trkpt lat="29.56813" lon="103.409206"><ele>851.2785</ele><time>2026-07-20T23:04:18.000Z</time></trkpt>
        <trkpt lat="29.568128" lon="103.409196"><ele>851.17303</ele><time>2026-07-20T23:04:20.000Z</time></trkpt>
        <trkpt lat="29.568126" lon="103.409187"><ele>850.60596</ele><time>2026-07-20T23:04:22.000Z</time></trkpt>
        <trkpt lat="29.568121" lon="103.409169"><ele>850.03033</ele><time>2026-07-20T23:04:26.000Z</time></trkpt>
        <trkpt lat="29.568119" lon="103.409161"><ele>850.7195</ele><time>2026-07-20T23:04:28.000Z</time></trkpt>
        <trkpt lat="29.568114" lon="103.409154"><ele>850.3123</ele><time>2026-07-20T23:04:30.000Z</time></trkpt>
        <trkpt lat="29.568103" lon="103.409139"><ele>850.57056</ele><time>2026-07-20T23:04:32.000Z</time></trkpt>
        <trkpt lat="29.568101" lon="103.409135"><ele>850.72754</ele><time>2026-07-20T23:04:36.000Z</time></trkpt>
        <trkpt lat="29.568097" lon="103.409128"><ele>850.141</ele><time>2026-07-20T23:04:38.000Z</time></trkpt>
        <trkpt lat="29.568089" lon="103.409113"><ele>849.0022</ele><time>2026-07-20T23:04:40.000Z</time></trkpt>
        <trkpt lat="29.568081" lon="103.409096"><ele>847.26807</ele><time>2026-07-20T23:04:42.000Z</time></trkpt>
        <trkpt lat="29.568073" lon="103.409078"><ele>845.9643</ele><time>2026-07-20T23:04:44.000Z</time></trkpt>
        <trkpt lat="29.568069" lon="103.409066"><ele>845.1472</ele><time>2026-07-20T23:04:46.000Z</time></trkpt>
        <trkpt lat="29.568066" lon="103.409057"><ele>845.63605</ele><time>2026-07-20T23:04:48.000Z</time></trkpt>
        <trkpt lat="29.568063" lon="103.409047"><ele>845.8798</ele><time>2026-07-20T23:04:50.000Z</time></trkpt>
        <trkpt lat="29.568055" lon="103.409029"><ele>843.7633</ele><time>2026-07-20T23:04:54.000Z</time></trkpt>
        <trkpt lat="29.568046" lon="103.409013"><ele>843.9869</ele><time>2026-07-20T23:04:56.000Z</time></trkpt>
        <trkpt lat="29.568032" lon="103.408993"><ele>843.53</ele><time>2026-07-20T23:04:58.000Z</time></trkpt>
        <trkpt lat="29.568019" lon="103.408973"><ele>841.2615</ele><time>2026-07-20T23:05:00.000Z</time></trkpt>
        <trkpt lat="29.568011" lon="103.408959"><ele>840.40515</ele><time>2026-07-20T23:05:02.000Z</time></trkpt>
        <trkpt lat="29.568007" lon="103.408947"><ele>838.8596</ele><time>2026-07-20T23:05:04.000Z</time></trkpt>
        <trkpt lat="29.568004" lon="103.408938"><ele>839.0296</ele><time>2026-07-20T23:05:06.000Z</time></trkpt>
        <trkpt lat="29.568001" lon="103.40893"><ele>838.7585</ele><time>2026-07-20T23:05:08.000Z</time></trkpt>
        <trkpt lat="29.567994" lon="103.408913"><ele>839.37506</ele><time>2026-07-20T23:05:12.000Z</time></trkpt>
        <trkpt lat="29.567992" lon="103.408906"><ele>839.58514</ele><time>2026-07-20T23:05:14.000Z</time></trkpt>
        <trkpt lat="29.567989" lon="103.408896"><ele>839.2196</ele><time>2026-07-20T23:05:16.000Z</time></trkpt>
        <trkpt lat="29.567985" lon="103.408878"><ele>839.54095</ele><time>2026-07-20T23:05:20.000Z</time></trkpt>
        <trkpt lat="29.567984" lon="103.40887"><ele>839.5614</ele><time>2026-07-20T23:05:22.000Z</time></trkpt>
        <trkpt lat="29.567984" lon="103.408847"><ele>838.8408</ele><time>2026-07-20T23:05:24.000Z</time></trkpt>
        <trkpt lat="29.567984" lon="103.408845"><ele>837.2976</ele><time>2026-07-20T23:05:26.000Z</time></trkpt>
        <trkpt lat="29.567983" lon="103.408834"><ele>836.4403</ele><time>2026-07-20T23:05:30.000Z</time></trkpt>
        <trkpt lat="29.567978" lon="103.408796"><ele>834.0259</ele><time>2026-07-20T23:05:34.000Z</time></trkpt>
        <trkpt lat="29.567972" lon="103.40877"><ele>833.7691</ele><time>2026-07-20T23:05:36.000Z</time></trkpt>
        <trkpt lat="29.567963" lon="103.408743"><ele>833.9879</ele><time>2026-07-20T23:05:38.000Z</time></trkpt>
        <trkpt lat="29.567953" lon="103.408723"><ele>833.48676</ele><time>2026-07-20T23:05:40.000Z</time></trkpt>
        <trkpt lat="29.567941" lon="103.408703"><ele>832.4681</ele><time>2026-07-20T23:05:42.000Z</time></trkpt>
        <trkpt lat="29.567927" lon="103.408683"><ele>832.03424</ele><time>2026-07-20T23:05:44.000Z</time></trkpt>
        <trkpt lat="29.567913" lon="103.408662"><ele>832.11694</ele><time>2026-07-20T23:05:46.000Z</time></trkpt>
        <trkpt lat="29.567901" lon="103.408646"><ele>832.35144</ele><time>2026-07-20T23:05:48.000Z</time></trkpt>
        <trkpt lat="29.567893" lon="103.408636"><ele>831.179</ele><time>2026-07-20T23:05:50.000Z</time></trkpt>
        <trkpt lat="29.567886" lon="103.408627"><ele>831.24005</ele><time>2026-07-20T23:05:52.000Z</time></trkpt>
        <trkpt lat="29.567878" lon="103.408617"><ele>829.6459</ele><time>2026-07-20T23:05:54.000Z</time></trkpt>
        <trkpt lat="29.567869" lon="103.408609"><ele>829.4615</ele><time>2026-07-20T23:05:56.000Z</time></trkpt>
        <trkpt lat="29.567864" lon="103.408605"><ele>829.6298</ele><time>2026-07-20T23:05:58.000Z</time></trkpt>
        <trkpt lat="29.567861" lon="103.408599"><ele>829.2298</ele><time>2026-07-20T23:06:02.000Z</time></trkpt>
        <trkpt lat="29.567852" lon="103.408585"><ele>827.87286</ele><time>2026-07-20T23:06:10.000Z</time></trkpt>
        <trkpt lat="29.56784" lon="103.408565"><ele>828.38806</ele><time>2026-07-20T23:06:12.000Z</time></trkpt>
        <trkpt lat="29.567827" lon="103.408544"><ele>829.03455</ele><time>2026-07-20T23:06:14.000Z</time></trkpt>
        <trkpt lat="29.567826" lon="103.408542"><ele>828.7677</ele><time>2026-07-20T23:06:16.000Z</time></trkpt>
        <trkpt lat="29.567822" lon="103.408538"><ele>827.7659</ele><time>2026-07-20T23:06:20.000Z</time></trkpt>
        <trkpt lat="29.567797" lon="103.408516"><ele>828.6691</ele><time>2026-07-20T23:06:26.000Z</time></trkpt>
        <trkpt lat="29.567797" lon="103.408516"><ele>828.272</ele><time>2026-07-20T23:06:28.000Z</time></trkpt>
        <trkpt lat="29.567796" lon="103.408516"><ele>828.3479</ele><time>2026-07-20T23:06:30.000Z</time></trkpt>
        <trkpt lat="29.567756" lon="103.408487"><ele>829.87286</ele><time>2026-07-20T23:06:36.000Z</time></trkpt>
        <trkpt lat="29.567756" lon="103.408487"><ele>829.8343</ele><time>2026-07-20T23:06:38.000Z</time></trkpt>
        <trkpt lat="29.567754" lon="103.408486"><ele>829.3388</ele><time>2026-07-20T23:06:40.000Z</time></trkpt>
        <trkpt lat="29.567714" lon="103.40847"><ele>827.6338</ele><time>2026-07-20T23:06:46.000Z</time></trkpt>
        <trkpt lat="29.567697" lon="103.408466"><ele>827.335</ele><time>2026-07-20T23:06:48.000Z</time></trkpt>
        <trkpt lat="29.567683" lon="103.408467"><ele>827.44244</ele><time>2026-07-20T23:06:50.000Z</time></trkpt>
        <trkpt lat="29.567674" lon="103.408473"><ele>827.2275</ele><time>2026-07-20T23:06:52.000Z</time></trkpt>
        <trkpt lat="29.567669" lon="103.408482"><ele>826.8309</ele><time>2026-07-20T23:06:54.000Z</time></trkpt>
        <trkpt lat="29.567668" lon="103.408496"><ele>826.3185</ele><time>2026-07-20T23:06:56.000Z</time></trkpt>
        <trkpt lat="29.567668" lon="103.408512"><ele>826.314</ele><time>2026-07-20T23:06:58.000Z</time></trkpt>
        <trkpt lat="29.56767" lon="103.408532"><ele>825.0558</ele><time>2026-07-20T23:07:00.000Z</time></trkpt>
        <trkpt lat="29.567671" lon="103.40855"><ele>825.17163</ele><time>2026-07-20T23:07:02.000Z</time></trkpt>
        <trkpt lat="29.567671" lon="103.408569"><ele>825.4191</ele><time>2026-07-20T23:07:04.000Z</time></trkpt>
        <trkpt lat="29.567668" lon="103.408586"><ele>825.91187</ele><time>2026-07-20T23:07:06.000Z</time></trkpt>
        <trkpt lat="29.567661" lon="103.408603"><ele>825.5751</ele><time>2026-07-20T23:07:08.000Z</time></trkpt>
        <trkpt lat="29.567652" lon="103.408616"><ele>825.0293</ele><time>2026-07-20T23:07:10.000Z</time></trkpt>
        <trkpt lat="29.567643" lon="103.408625"><ele>825.336</ele><time>2026-07-20T23:07:12.000Z</time></trkpt>
        <trkpt lat="29.567631" lon="103.408633"><ele>824.65845</ele><time>2026-07-20T23:07:14.000Z</time></trkpt>
        <trkpt lat="29.567617" lon="103.408639"><ele>823.88715</ele><time>2026-07-20T23:07:16.000Z</time></trkpt>
        <trkpt lat="29.567603" lon="103.408645"><ele>824.37177</ele><time>2026-07-20T23:07:18.000Z</time></trkpt>
        <trkpt lat="29.56759" lon="103.40865"><ele>824.91223</ele><time>2026-07-20T23:07:20.000Z</time></trkpt>
        <trkpt lat="29.56758" lon="103.408655"><ele>825.10876</ele><time>2026-07-20T23:07:22.000Z</time></trkpt>
        <trkpt lat="29.567569" lon="103.40866"><ele>826.8875</ele><time>2026-07-20T23:07:24.000Z</time></trkpt>
        <trkpt lat="29.567555" lon="103.408664"><ele>827.05817</ele><time>2026-07-20T23:07:26.000Z</time></trkpt>
        <trkpt lat="29.567535" lon="103.408667"><ele>826.64655</ele><time>2026-07-20T23:07:28.000Z</time></trkpt>
        <trkpt lat="29.567514" lon="103.408667"><ele>827.14606</ele><time>2026-07-20T23:07:30.000Z</time></trkpt>
        <trkpt lat="29.567493" lon="103.408663"><ele>826.57794</ele><time>2026-07-20T23:07:32.000Z</time></trkpt>
        <trkpt lat="29.567473" lon="103.408656"><ele>825.85614</ele><time>2026-07-20T23:07:34.000Z</time></trkpt>
        <trkpt lat="29.567449" lon="103.408648"><ele>825.4871</ele><time>2026-07-20T23:07:36.000Z</time></trkpt>
        <trkpt lat="29.567428" lon="103.408638"><ele>825.31976</ele><time>2026-07-20T23:07:38.000Z</time></trkpt>
        <trkpt lat="29.567409" lon="103.408629"><ele>824.4568</ele><time>2026-07-20T23:07:40.000Z</time></trkpt>
        <trkpt lat="29.56739" lon="103.408621"><ele>824.78284</ele><time>2026-07-20T23:07:42.000Z</time></trkpt>
        <trkpt lat="29.567372" lon="103.408615"><ele>825.08765</ele><time>2026-07-20T23:07:44.000Z</time></trkpt>
        <trkpt lat="29.567355" lon="103.408608"><ele>825.3192</ele><time>2026-07-20T23:07:46.000Z</time></trkpt>
        <trkpt lat="29.56734" lon="103.4086"><ele>825.1169</ele><time>2026-07-20T23:07:48.000Z</time></trkpt>
        <trkpt lat="29.567325" lon="103.40859"><ele>824.9405</ele><time>2026-07-20T23:07:50.000Z</time></trkpt>
        <trkpt lat="29.56731" lon="103.408577"><ele>824.2629</ele><time>2026-07-20T23:07:52.000Z</time></trkpt>
        <trkpt lat="29.567295" lon="103.408563"><ele>823.43695</ele><time>2026-07-20T23:07:54.000Z</time></trkpt>
        <trkpt lat="29.56728" lon="103.40855"><ele>823.733</ele><time>2026-07-20T23:07:56.000Z</time></trkpt>
        <trkpt lat="29.567265" lon="103.408531"><ele>823.829</ele><time>2026-07-20T23:07:58.000Z</time></trkpt>
        <trkpt lat="29.567252" lon="103.408516"><ele>822.8326</ele><time>2026-07-20T23:08:00.000Z</time></trkpt>
        <trkpt lat="29.567242" lon="103.408505"><ele>820.5087</ele><time>2026-07-20T23:08:02.000Z</time></trkpt>
        <trkpt lat="29.567229" lon="103.408494"><ele>819.9499</ele><time>2026-07-20T23:08:04.000Z</time></trkpt>
        <trkpt lat="29.567211" lon="103.408488"><ele>819.6707</ele><time>2026-07-20T23:08:06.000Z</time></trkpt>
        <trkpt lat="29.56719" lon="103.408484"><ele>819.86475</ele><time>2026-07-20T23:08:08.000Z</time></trkpt>
        <trkpt lat="29.567169" lon="103.408484"><ele>819.58624</ele><time>2026-07-20T23:08:10.000Z</time></trkpt>
        <trkpt lat="29.567148" lon="103.408487"><ele>819.3953</ele><time>2026-07-20T23:08:12.000Z</time></trkpt>
        <trkpt lat="29.567127" lon="103.408491"><ele>819.2572</ele><time>2026-07-20T23:08:14.000Z</time></trkpt>
        <trkpt lat="29.567107" lon="103.408495"><ele>818.5547</ele><time>2026-07-20T23:08:16.000Z</time></trkpt>
        <trkpt lat="29.567087" lon="103.408498"><ele>817.9646</ele><time>2026-07-20T23:08:18.000Z</time></trkpt>
        <trkpt lat="29.567068" lon="103.408502"><ele>818.4715</ele><time>2026-07-20T23:08:20.000Z</time></trkpt>
        <trkpt lat="29.56705" lon="103.408503"><ele>818.0608</ele><time>2026-07-20T23:08:22.000Z</time></trkpt>
        <trkpt lat="29.567031" lon="103.408501"><ele>818.3173</ele><time>2026-07-20T23:08:24.000Z</time></trkpt>
        <trkpt lat="29.567013" lon="103.408499"><ele>817.7224</ele><time>2026-07-20T23:08:26.000Z</time></trkpt>
        <trkpt lat="29.566995" lon="103.408498"><ele>817.6032</ele><time>2026-07-20T23:08:28.000Z</time></trkpt>
        <trkpt lat="29.566976" lon="103.408497"><ele>817.93054</ele><time>2026-07-20T23:08:30.000Z</time></trkpt>
        <trkpt lat="29.566958" lon="103.408497"><ele>817.5436</ele><time>2026-07-20T23:08:32.000Z</time></trkpt>
        <trkpt lat="29.56694" lon="103.408497"><ele>818.0839</ele><time>2026-07-20T23:08:34.000Z</time></trkpt>
        <trkpt lat="29.566922" lon="103.408497"><ele>818.52594</ele><time>2026-07-20T23:08:36.000Z</time></trkpt>
        <trkpt lat="29.566907" lon="103.408499"><ele>818.8812</ele><time>2026-07-20T23:08:38.000Z</time></trkpt>
        <trkpt lat="29.566892" lon="103.408501"><ele>818.49554</ele><time>2026-07-20T23:08:40.000Z</time></trkpt>
        <trkpt lat="29.566876" lon="103.408503"><ele>817.7554</ele><time>2026-07-20T23:08:42.000Z</time></trkpt>
        <trkpt lat="29.566858" lon="103.408503"><ele>817.624</ele><time>2026-07-20T23:08:44.000Z</time></trkpt>
        <trkpt lat="29.56684" lon="103.408503"><ele>818.1084</ele><time>2026-07-20T23:08:46.000Z</time></trkpt>
        <trkpt lat="29.566823" lon="103.408498"><ele>818.4811</ele><time>2026-07-20T23:08:48.000Z</time></trkpt>
        <trkpt lat="29.566807" lon="103.40849"><ele>819.3339</ele><time>2026-07-20T23:08:50.000Z</time></trkpt>
        <trkpt lat="29.566792" lon="103.408478"><ele>819.44086</ele><time>2026-07-20T23:08:52.000Z</time></trkpt>
        <trkpt lat="29.566779" lon="103.408461"><ele>819.3282</ele><time>2026-07-20T23:08:54.000Z</time></trkpt>
        <trkpt lat="29.566768" lon="103.408441"><ele>818.815</ele><time>2026-07-20T23:08:56.000Z</time></trkpt>
        <trkpt lat="29.566759" lon="103.408417"><ele>818.43884</ele><time>2026-07-20T23:08:58.000Z</time></trkpt>
        <trkpt lat="29.566752" lon="103.408394"><ele>818.12103</ele><time>2026-07-20T23:09:00.000Z</time></trkpt>
        <trkpt lat="29.566749" lon="103.408367"><ele>818.2306</ele><time>2026-07-20T23:09:02.000Z</time></trkpt>
        <trkpt lat="29.566749" lon="103.408346"><ele>817.8283</ele><time>2026-07-20T23:09:04.000Z</time></trkpt>
        <trkpt lat="29.566752" lon="103.408326"><ele>817.47296</ele><time>2026-07-20T23:09:06.000Z</time></trkpt>
        <trkpt lat="29.566756" lon="103.4083"><ele>816.5747</ele><time>2026-07-20T23:09:08.000Z</time></trkpt>
        <trkpt lat="29.566761" lon="103.408275"><ele>815.0763</ele><time>2026-07-20T23:09:10.000Z</time></trkpt>
        <trkpt lat="29.566768" lon="103.408246"><ele>815.86926</ele><time>2026-07-20T23:09:12.000Z</time></trkpt>
        <trkpt lat="29.566776" lon="103.408218"><ele>815.10767</ele><time>2026-07-20T23:09:14.000Z</time></trkpt>
        <trkpt lat="29.566782" lon="103.408202"><ele>814.7772</ele><time>2026-07-20T23:09:16.000Z</time></trkpt>
        <trkpt lat="29.566784" lon="103.408194"><ele>814.82886</ele><time>2026-07-20T23:09:18.000Z</time></trkpt>
        <trkpt lat="29.566787" lon="103.408182"><ele>814.8212</ele><time>2026-07-20T23:09:20.000Z</time></trkpt>
        <trkpt lat="29.566791" lon="103.408169"><ele>814.32385</ele><time>2026-07-20T23:09:22.000Z</time></trkpt>
        <trkpt lat="29.566795" lon="103.408152"><ele>814.8027</ele><time>2026-07-20T23:09:24.000Z</time></trkpt>
        <trkpt lat="29.566799" lon="103.408132"><ele>815.34595</ele><time>2026-07-20T23:09:26.000Z</time></trkpt>
        <trkpt lat="29.566798" lon="103.408112"><ele>815.8934</ele><time>2026-07-20T23:09:28.000Z</time></trkpt>
        <trkpt lat="29.566792" lon="103.408093"><ele>814.97296</ele><time>2026-07-20T23:09:30.000Z</time></trkpt>
        <trkpt lat="29.566784" lon="103.408075"><ele>814.90607</ele><time>2026-07-20T23:09:32.000Z</time></trkpt>
        <trkpt lat="29.566773" lon="103.408057"><ele>814.8163</ele><time>2026-07-20T23:09:34.000Z</time></trkpt>
        <trkpt lat="29.566762" lon="103.408042"><ele>815.28613</ele><time>2026-07-20T23:09:36.000Z</time></trkpt>
        <trkpt lat="29.566754" lon="103.408032"><ele>816.5311</ele><time>2026-07-20T23:09:38.000Z</time></trkpt>
        <trkpt lat="29.566751" lon="103.408026"><ele>816.52386</ele><time>2026-07-20T23:09:40.000Z</time></trkpt>
        <trkpt lat="29.566746" lon="103.408007"><ele>817.1124</ele><time>2026-07-20T23:09:44.000Z</time></trkpt>
        <trkpt lat="29.566744" lon="103.407994"><ele>816.86957</ele><time>2026-07-20T23:09:46.000Z</time></trkpt>
        <trkpt lat="29.56674" lon="103.40798"><ele>816.7907</ele><time>2026-07-20T23:09:48.000Z</time></trkpt>
        <trkpt lat="29.566735" lon="103.407964"><ele>816.659</ele><time>2026-07-20T23:09:50.000Z</time></trkpt>
        <trkpt lat="29.566731" lon="103.407948"><ele>816.28143</ele><time>2026-07-20T23:09:52.000Z</time></trkpt>
        <trkpt lat="29.566726" lon="103.407929"><ele>816.9582</ele><time>2026-07-20T23:09:54.000Z</time></trkpt>
        <trkpt lat="29.56672" lon="103.407909"><ele>816.2271</ele><time>2026-07-20T23:09:56.000Z</time></trkpt>
        <trkpt lat="29.566712" lon="103.407891"><ele>817.2321</ele><time>2026-07-20T23:09:58.000Z</time></trkpt>
        <trkpt lat="29.566703" lon="103.40787"><ele>817.3736</ele><time>2026-07-20T23:10:00.000Z</time></trkpt>
        <trkpt lat="29.566697" lon="103.407855"><ele>817.3536</ele><time>2026-07-20T23:10:02.000Z</time></trkpt>
        <trkpt lat="29.566691" lon="103.407839"><ele>817.062</ele><time>2026-07-20T23:10:04.000Z</time></trkpt>
        <trkpt lat="29.566685" lon="103.407817"><ele>817.8456</ele><time>2026-07-20T23:10:06.000Z</time></trkpt>
        <trkpt lat="29.566681" lon="103.407794"><ele>817.7104</ele><time>2026-07-20T23:10:08.000Z</time></trkpt>
        <trkpt lat="29.56668" lon="103.407777"><ele>817.7108</ele><time>2026-07-20T23:10:10.000Z</time></trkpt>
        <trkpt lat="29.566677" lon="103.40776"><ele>817.43756</ele><time>2026-07-20T23:10:12.000Z</time></trkpt>
        <trkpt lat="29.566671" lon="103.407736"><ele>817.832</ele><time>2026-07-20T23:10:14.000Z</time></trkpt>
        <trkpt lat="29.566662" lon="103.407709"><ele>818.4481</ele><time>2026-07-20T23:10:16.000Z</time></trkpt>
        <trkpt lat="29.566653" lon="103.407683"><ele>818.40454</ele><time>2026-07-20T23:10:18.000Z</time></trkpt>
        <trkpt lat="29.566643" lon="103.407658"><ele>818.2647</ele><time>2026-07-20T23:10:20.000Z</time></trkpt>
        <trkpt lat="29.566635" lon="103.407634"><ele>818.345</ele><time>2026-07-20T23:10:22.000Z</time></trkpt>
        <trkpt lat="29.566626" lon="103.40761"><ele>817.7542</ele><time>2026-07-20T23:10:24.000Z</time></trkpt>
        <trkpt lat="29.566618" lon="103.40759"><ele>817.6226</ele><time>2026-07-20T23:10:26.000Z</time></trkpt>
        <trkpt lat="29.566611" lon="103.407576"><ele>817.27924</ele><time>2026-07-20T23:10:28.000Z</time></trkpt>
        <trkpt lat="29.566604" lon="103.407559"><ele>816.82574</ele><time>2026-07-20T23:10:30.000Z</time></trkpt>
        <trkpt lat="29.566596" lon="103.407538"><ele>816.4877</ele><time>2026-07-20T23:10:32.000Z</time></trkpt>
        <trkpt lat="29.566588" lon="103.407509"><ele>817.1188</ele><time>2026-07-20T23:10:34.000Z</time></trkpt>
        <trkpt lat="29.566581" lon="103.407484"><ele>817.45197</ele><time>2026-07-20T23:10:36.000Z</time></trkpt>
        <trkpt lat="29.566574" lon="103.407461"><ele>818.26263</ele><time>2026-07-20T23:10:38.000Z</time></trkpt>
        <trkpt lat="29.566568" lon="103.407435"><ele>818.59937</ele><time>2026-07-20T23:10:40.000Z</time></trkpt>
        <trkpt lat="29.566561" lon="103.407406"><ele>819.0546</ele><time>2026-07-20T23:10:42.000Z</time></trkpt>
        <trkpt lat="29.566554" lon="103.407376"><ele>819.1287</ele><time>2026-07-20T23:10:44.000Z</time></trkpt>
        <trkpt lat="29.566548" lon="103.407349"><ele>819.27234</ele><time>2026-07-20T23:10:46.000Z</time></trkpt>
        <trkpt lat="29.566544" lon="103.407329"><ele>819.6267</ele><time>2026-07-20T23:10:48.000Z</time></trkpt>
        <trkpt lat="29.56654" lon="103.407311"><ele>818.7364</ele><time>2026-07-20T23:10:50.000Z</time></trkpt>
        <trkpt lat="29.566535" lon="103.407291"><ele>817.4307</ele><time>2026-07-20T23:10:52.000Z</time></trkpt>
        <trkpt lat="29.566529" lon="103.40727"><ele>817.25964</ele><time>2026-07-20T23:10:54.000Z</time></trkpt>
        <trkpt lat="29.566523" lon="103.407248"><ele>817.29224</ele><time>2026-07-20T23:10:56.000Z</time></trkpt>
        <trkpt lat="29.566518" lon="103.407225"><ele>817.31555</ele><time>2026-07-20T23:10:58.000Z</time></trkpt>
        <trkpt lat="29.566513" lon="103.407202"><ele>817.4848</ele><time>2026-07-20T23:11:00.000Z</time></trkpt>
        <trkpt lat="29.56651" lon="103.407179"><ele>816.44855</ele><time>2026-07-20T23:11:02.000Z</time></trkpt>
        <trkpt lat="29.566509" lon="103.407159"><ele>816.24054</ele><time>2026-07-20T23:11:04.000Z</time></trkpt>
        <trkpt lat="29.56651" lon="103.40714"><ele>815.06335</ele><time>2026-07-20T23:11:06.000Z</time></trkpt>
        <trkpt lat="29.56651" lon="103.407122"><ele>816.3278</ele><time>2026-07-20T23:11:08.000Z</time></trkpt>
        <trkpt lat="29.56651" lon="103.407102"><ele>816.67725</ele><time>2026-07-20T23:11:10.000Z</time></trkpt>
        <trkpt lat="29.56651" lon="103.407082"><ele>816.828</ele><time>2026-07-20T23:11:12.000Z</time></trkpt>
        <trkpt lat="29.566511" lon="103.407061"><ele>817.3872</ele><time>2026-07-20T23:11:14.000Z</time></trkpt>
        <trkpt lat="29.566511" lon="103.407034"><ele>816.94965</ele><time>2026-07-20T23:11:16.000Z</time></trkpt>
        <trkpt lat="29.566511" lon="103.407009"><ele>816.0706</ele><time>2026-07-20T23:11:18.000Z</time></trkpt>
        <trkpt lat="29.566511" lon="103.406983"><ele>815.5565</ele><time>2026-07-20T23:11:20.000Z</time></trkpt>
        <trkpt lat="29.566513" lon="103.406957"><ele>814.9716</ele><time>2026-07-20T23:11:22.000Z</time></trkpt>
        <trkpt lat="29.566516" lon="103.406931"><ele>814.9371</ele><time>2026-07-20T23:11:24.000Z</time></trkpt>
        <trkpt lat="29.566521" lon="103.406905"><ele>814.9819</ele><time>2026-07-20T23:11:26.000Z</time></trkpt>
        <trkpt lat="29.566528" lon="103.40688"><ele>815.2245</ele><time>2026-07-20T23:11:28.000Z</time></trkpt>
        <trkpt lat="29.566537" lon="103.406857"><ele>815.5232</ele><time>2026-07-20T23:11:30.000Z</time></trkpt>
        <trkpt lat="29.566547" lon="103.406835"><ele>815.70557</ele><time>2026-07-20T23:11:32.000Z</time></trkpt>
        <trkpt lat="29.566559" lon="103.406813"><ele>815.75696</ele><time>2026-07-20T23:11:34.000Z</time></trkpt>
        <trkpt lat="29.566573" lon="103.406793"><ele>815.5665</ele><time>2026-07-20T23:11:36.000Z</time></trkpt>
        <trkpt lat="29.566587" lon="103.406775"><ele>815.1232</ele><time>2026-07-20T23:11:38.000Z</time></trkpt>
        <trkpt lat="29.566602" lon="103.406759"><ele>814.78046</ele><time>2026-07-20T23:11:40.000Z</time></trkpt>
        <trkpt lat="29.566616" lon="103.406745"><ele>814.5712</ele><time>2026-07-20T23:11:41.000Z</time></trkpt>
        <trkpt lat="29.566628" lon="103.406732"><ele>814.61163</ele><time>2026-07-20T23:11:43.000Z</time></trkpt>
        <trkpt lat="29.566639" lon="103.406722"><ele>814.2392</ele><time>2026-07-20T23:11:45.000Z</time></trkpt>
        <trkpt lat="29.566651" lon="103.406712"><ele>814.70123</ele><time>2026-07-20T23:11:47.000Z</time></trkpt>
        <trkpt lat="29.566663" lon="103.406702"><ele>813.5131</ele><time>2026-07-20T23:11:49.000Z</time></trkpt>
        <trkpt lat="29.566675" lon="103.406692"><ele>813.24713</ele><time>2026-07-20T23:11:51.000Z</time></trkpt>
        <trkpt lat="29.566686" lon="103.40668"><ele>813.04846</ele><time>2026-07-20T23:11:53.000Z</time></trkpt>
        <trkpt lat="29.566696" lon="103.406666"><ele>812.82825</ele><time>2026-07-20T23:11:55.000Z</time></trkpt>
        <trkpt lat="29.566707" lon="103.40665"><ele>812.5378</ele><time>2026-07-20T23:11:57.000Z</time></trkpt>
        <trkpt lat="29.566719" lon="103.406634"><ele>812.74414</ele><time>2026-07-20T23:12:00.000Z</time></trkpt>
        <trkpt lat="29.566731" lon="103.406622"><ele>811.5741</ele><time>2026-07-20T23:12:02.000Z</time></trkpt>
        <trkpt lat="29.566743" lon="103.406615"><ele>810.8582</ele><time>2026-07-20T23:12:04.000Z</time></trkpt>
        <trkpt lat="29.566752" lon="103.406611"><ele>810.52704</ele><time>2026-07-20T23:12:06.000Z</time></trkpt>
        <trkpt lat="29.566756" lon="103.406611"><ele>810.4384</ele><time>2026-07-20T23:12:08.000Z</time></trkpt>
        <trkpt lat="29.566764" lon="103.406605"><ele>809.49445</ele><time>2026-07-20T23:12:17.000Z</time></trkpt>
        <trkpt lat="29.566776" lon="103.406593"><ele>809.54456</ele><time>2026-07-20T23:12:19.000Z</time></trkpt>
        <trkpt lat="29.566788" lon="103.406581"><ele>809.6962</ele><time>2026-07-20T23:12:21.000Z</time></trkpt>
        <trkpt lat="29.566789" lon="103.40658"><ele>809.5589</ele><time>2026-07-20T23:12:23.000Z</time></trkpt>
        <trkpt lat="29.5668" lon="103.406567"><ele>809.4462</ele><time>2026-07-20T23:12:27.000Z</time></trkpt>
        <trkpt lat="29.566816" lon="103.406549"><ele>809.9763</ele><time>2026-07-20T23:12:29.000Z</time></trkpt>
        <trkpt lat="29.566835" lon="103.406526"><ele>809.0672</ele><time>2026-07-20T23:12:31.000Z</time></trkpt>
        <trkpt lat="29.566852" lon="103.406504"><ele>808.73914</ele><time>2026-07-20T23:12:33.000Z</time></trkpt>
        <trkpt lat="29.56687" lon="103.406482"><ele>809.2603</ele><time>2026-07-20T23:12:35.000Z</time></trkpt>
        <trkpt lat="29.566887" lon="103.406463"><ele>808.96387</ele><time>2026-07-20T23:12:37.000Z</time></trkpt>
        <trkpt lat="29.566902" lon="103.406446"><ele>808.4267</ele><time>2026-07-20T23:12:39.000Z</time></trkpt>
        <trkpt lat="29.566915" lon="103.406432"><ele>808.8576</ele><time>2026-07-20T23:12:41.000Z</time></trkpt>
        <trkpt lat="29.566928" lon="103.406417"><ele>808.73865</ele><time>2026-07-20T23:12:43.000Z</time></trkpt>
        <trkpt lat="29.566939" lon="103.406401"><ele>809.0555</ele><time>2026-07-20T23:12:45.000Z</time></trkpt>
        <trkpt lat="29.56695" lon="103.406385"><ele>809.5269</ele><time>2026-07-20T23:12:47.000Z</time></trkpt>
        <trkpt lat="29.566961" lon="103.406368"><ele>809.84186</ele><time>2026-07-20T23:12:49.000Z</time></trkpt>
        <trkpt lat="29.566971" lon="103.40635"><ele>809.99426</ele><time>2026-07-20T23:12:51.000Z</time></trkpt>
        <trkpt lat="29.566982" lon="103.406332"><ele>809.7156</ele><time>2026-07-20T23:12:53.000Z</time></trkpt>
        <trkpt lat="29.566993" lon="103.406314"><ele>809.73535</ele><time>2026-07-20T23:12:55.000Z</time></trkpt>
        <trkpt lat="29.567005" lon="103.406295"><ele>809.58746</ele><time>2026-07-20T23:12:57.000Z</time></trkpt>
        <trkpt lat="29.567016" lon="103.406276"><ele>809.42017</ele><time>2026-07-20T23:12:59.000Z</time></trkpt>
        <trkpt lat="29.567025" lon="103.406257"><ele>808.69556</ele><time>2026-07-20T23:13:01.000Z</time></trkpt>
        <trkpt lat="29.567034" lon="103.406239"><ele>808.8445</ele><time>2026-07-20T23:13:03.000Z</time></trkpt>
        <trkpt lat="29.567042" lon="103.406221"><ele>808.4778</ele><time>2026-07-20T23:13:05.000Z</time></trkpt>
        <trkpt lat="29.56705" lon="103.406204"><ele>807.7512</ele><time>2026-07-20T23:13:07.000Z</time></trkpt>
        <trkpt lat="29.567058" lon="103.406187"><ele>807.7829</ele><time>2026-07-20T23:13:09.000Z</time></trkpt>
        <trkpt lat="29.567067" lon="103.406172"><ele>807.80426</ele><time>2026-07-20T23:13:11.000Z</time></trkpt>
        <trkpt lat="29.567077" lon="103.406156"><ele>807.68134</ele><time>2026-07-20T23:13:13.000Z</time></trkpt>
        <trkpt lat="29.567088" lon="103.40614"><ele>807.84796</ele><time>2026-07-20T23:13:15.000Z</time></trkpt>
        <trkpt lat="29.5671" lon="103.406122"><ele>808.0758</ele><time>2026-07-20T23:13:17.000Z</time></trkpt>
        <trkpt lat="29.567112" lon="103.406106"><ele>808.0923</ele><time>2026-07-20T23:13:19.000Z</time></trkpt>
        <trkpt lat="29.567124" lon="103.406093"><ele>807.20197</ele><time>2026-07-20T23:13:21.000Z</time></trkpt>
        <trkpt lat="29.567136" lon="103.406078"><ele>806.8301</ele><time>2026-07-20T23:13:23.000Z</time></trkpt>
        <trkpt lat="29.567149" lon="103.406062"><ele>806.71906</ele><time>2026-07-20T23:13:25.000Z</time></trkpt>
        <trkpt lat="29.56716" lon="103.406045"><ele>806.2906</ele><time>2026-07-20T23:13:27.000Z</time></trkpt>
        <trkpt lat="29.56717" lon="103.406027"><ele>805.51965</ele><time>2026-07-20T23:13:29.000Z</time></trkpt>
        <trkpt lat="29.567179" lon="103.406009"><ele>804.3279</ele><time>2026-07-20T23:13:31.000Z</time></trkpt>
        <trkpt lat="29.567187" lon="103.405991"><ele>804.2207</ele><time>2026-07-20T23:13:33.000Z</time></trkpt>
        <trkpt lat="29.567195" lon="103.405972"><ele>804.56476</ele><time>2026-07-20T23:13:35.000Z</time></trkpt>
        <trkpt lat="29.567203" lon="103.405951"><ele>803.8186</ele><time>2026-07-20T23:13:37.000Z</time></trkpt>
        <trkpt lat="29.56721" lon="103.40593"><ele>804.4288</ele><time>2026-07-20T23:13:39.000Z</time></trkpt>
        <trkpt lat="29.567215" lon="103.405907"><ele>804.2825</ele><time>2026-07-20T23:13:41.000Z</time></trkpt>
        <trkpt lat="29.567221" lon="103.405886"><ele>804.6823</ele><time>2026-07-20T23:13:43.000Z</time></trkpt>
        <trkpt lat="29.567224" lon="103.40588"><ele>805.3369</ele><time>2026-07-20T23:13:45.000Z</time></trkpt>
        <trkpt lat="29.567222" lon="103.405867"><ele>806.15784</ele><time>2026-07-20T23:13:53.000Z</time></trkpt>
        <trkpt lat="29.567217" lon="103.405853"><ele>804.77844</ele><time>2026-07-20T23:13:59.000Z</time></trkpt>
        <trkpt lat="29.567205" lon="103.405834"><ele>805.64594</ele><time>2026-07-20T23:14:01.000Z</time></trkpt>
        <trkpt lat="29.567188" lon="103.405812"><ele>806.03595</ele><time>2026-07-20T23:14:03.000Z</time></trkpt>
        <trkpt lat="29.567169" lon="103.40579"><ele>805.5698</ele><time>2026-07-20T23:14:05.000Z</time></trkpt>
        <trkpt lat="29.567152" lon="103.40577"><ele>805.1322</ele><time>2026-07-20T23:14:07.000Z</time></trkpt>
        <trkpt lat="29.567136" lon="103.405753"><ele>805.5879</ele><time>2026-07-20T23:14:09.000Z</time></trkpt>
        <trkpt lat="29.56712" lon="103.405739"><ele>806.285</ele><time>2026-07-20T23:14:11.000Z</time></trkpt>
        <trkpt lat="29.567104" lon="103.405725"><ele>806.15857</ele><time>2026-07-20T23:14:14.000Z</time></trkpt>
        <trkpt lat="29.567088" lon="103.405713"><ele>805.91516</ele><time>2026-07-20T23:14:16.000Z</time></trkpt>
        <trkpt lat="29.567073" lon="103.405701"><ele>805.7105</ele><time>2026-07-20T23:14:18.000Z</time></trkpt>
        <trkpt lat="29.567058" lon="103.405689"><ele>805.57916</ele><time>2026-07-20T23:14:20.000Z</time></trkpt>
        <trkpt lat="29.567041" lon="103.405677"><ele>804.66144</ele><time>2026-07-20T23:14:22.000Z</time></trkpt>
        <trkpt lat="29.567023" lon="103.405663"><ele>803.7127</ele><time>2026-07-20T23:14:24.000Z</time></trkpt>
        <trkpt lat="29.567008" lon="103.405651"><ele>803.8484</ele><time>2026-07-20T23:14:26.000Z</time></trkpt>
        <trkpt lat="29.566993" lon="103.405638"><ele>803.9163</ele><time>2026-07-20T23:14:28.000Z</time></trkpt>
        <trkpt lat="29.566979" lon="103.405626"><ele>804.0033</ele><time>2026-07-20T23:14:30.000Z</time></trkpt>
        <trkpt lat="29.566967" lon="103.405614"><ele>804.8054</ele><time>2026-07-20T23:14:32.000Z</time></trkpt>
        <trkpt lat="29.566954" lon="103.4056"><ele>803.83154</ele><time>2026-07-20T23:14:34.000Z</time></trkpt>
        <trkpt lat="29.566943" lon="103.405587"><ele>803.2105</ele><time>2026-07-20T23:14:36.000Z</time></trkpt>
        <trkpt lat="29.56693" lon="103.405575"><ele>803.728</ele><time>2026-07-20T23:14:38.000Z</time></trkpt>
        <trkpt lat="29.566916" lon="103.405563"><ele>802.7213</ele><time>2026-07-20T23:14:40.000Z</time></trkpt>
        <trkpt lat="29.566902" lon="103.40555"><ele>802.5473</ele><time>2026-07-20T23:14:42.000Z</time></trkpt>
        <trkpt lat="29.566888" lon="103.405535"><ele>802.503</ele><time>2026-07-20T23:14:44.000Z</time></trkpt>
        <trkpt lat="29.566876" lon="103.405519"><ele>803.6836</ele><time>2026-07-20T23:14:46.000Z</time></trkpt>
        <trkpt lat="29.566866" lon="103.405501"><ele>803.4362</ele><time>2026-07-20T23:14:48.000Z</time></trkpt>
        <trkpt lat="29.566857" lon="103.405484"><ele>803.5234</ele><time>2026-07-20T23:14:50.000Z</time></trkpt>
        <trkpt lat="29.566851" lon="103.405466"><ele>803.7623</ele><time>2026-07-20T23:14:52.000Z</time></trkpt>
        <trkpt lat="29.566844" lon="103.405449"><ele>803.46313</ele><time>2026-07-20T23:14:54.000Z</time></trkpt>
        <trkpt lat="29.566836" lon="103.405432"><ele>803.3929</ele><time>2026-07-20T23:14:56.000Z</time></trkpt>
        <trkpt lat="29.566828" lon="103.405413"><ele>803.0819</ele><time>2026-07-20T23:14:58.000Z</time></trkpt>
        <trkpt lat="29.566822" lon="103.405394"><ele>801.86316</ele><time>2026-07-20T23:15:00.000Z</time></trkpt>
        <trkpt lat="29.566818" lon="103.405376"><ele>801.6631</ele><time>2026-07-20T23:15:02.000Z</time></trkpt>
        <trkpt lat="29.566816" lon="103.405355"><ele>801.98505</ele><time>2026-07-20T23:15:04.000Z</time></trkpt>
        <trkpt lat="29.566814" lon="103.405333"><ele>802.9247</ele><time>2026-07-20T23:15:06.000Z</time></trkpt>
        <trkpt lat="29.566812" lon="103.40531"><ele>803.8919</ele><time>2026-07-20T23:15:08.000Z</time></trkpt>
        <trkpt lat="29.56681" lon="103.405285"><ele>804.8002</ele><time>2026-07-20T23:15:10.000Z</time></trkpt>
        <trkpt lat="29.566806" lon="103.405258"><ele>804.40424</ele><time>2026-07-20T23:15:12.000Z</time></trkpt>
        <trkpt lat="29.566802" lon="103.405235"><ele>804.36816</ele><time>2026-07-20T23:15:14.000Z</time></trkpt>
        <trkpt lat="29.566798" lon="103.405215"><ele>803.8034</ele><time>2026-07-20T23:15:16.000Z</time></trkpt>
        <trkpt lat="29.566794" lon="103.405198"><ele>804.09515</ele><time>2026-07-20T23:15:18.000Z</time></trkpt>
        <trkpt lat="29.566797" lon="103.405182"><ele>805.9401</ele><time>2026-07-20T23:15:20.000Z</time></trkpt>
        <trkpt lat="29.566803" lon="103.405169"><ele>806.7728</ele><time>2026-07-20T23:15:22.000Z</time></trkpt>
        <trkpt lat="29.566816" lon="103.405156"><ele>806.9794</ele><time>2026-07-20T23:15:24.000Z</time></trkpt>
        <trkpt lat="29.566832" lon="103.405145"><ele>806.8786</ele><time>2026-07-20T23:15:26.000Z</time></trkpt>
        <trkpt lat="29.566852" lon="103.405138"><ele>806.79895</ele><time>2026-07-20T23:15:28.000Z</time></trkpt>
        <trkpt lat="29.566877" lon="103.405134"><ele>806.4768</ele><time>2026-07-20T23:15:30.000Z</time></trkpt>
        <trkpt lat="29.566904" lon="103.405134"><ele>806.43933</ele><time>2026-07-20T23:15:32.000Z</time></trkpt>
        <trkpt lat="29.566931" lon="103.405137"><ele>805.28076</ele><time>2026-07-20T23:15:34.000Z</time></trkpt>
        <trkpt lat="29.566954" lon="103.405143"><ele>804.3062</ele><time>2026-07-20T23:15:36.000Z</time></trkpt>
        <trkpt lat="29.566975" lon="103.405148"><ele>804.54315</ele><time>2026-07-20T23:15:38.000Z</time></trkpt>
        <trkpt lat="29.566996" lon="103.405153"><ele>804.67114</ele><time>2026-07-20T23:15:40.000Z</time></trkpt>
        <trkpt lat="29.567014" lon="103.405158"><ele>804.37103</ele><time>2026-07-20T23:15:42.000Z</time></trkpt>
        <trkpt lat="29.567031" lon="103.405163"><ele>804.8657</ele><time>2026-07-20T23:15:44.000Z</time></trkpt>
        <trkpt lat="29.56705" lon="103.405167"><ele>804.8219</ele><time>2026-07-20T23:15:46.000Z</time></trkpt>
        <trkpt lat="29.56707" lon="103.405168"><ele>804.91595</ele><time>2026-07-20T23:15:48.000Z</time></trkpt>
        <trkpt lat="29.567088" lon="103.405169"><ele>804.59265</ele><time>2026-07-20T23:15:50.000Z</time></trkpt>
        <trkpt lat="29.567105" lon="103.405167"><ele>803.96564</ele><time>2026-07-20T23:15:52.000Z</time></trkpt>
        <trkpt lat="29.567122" lon="103.405161"><ele>804.2984</ele><time>2026-07-20T23:15:53.000Z</time></trkpt>
        <trkpt lat="29.567136" lon="103.405153"><ele>804.6321</ele><time>2026-07-20T23:15:55.000Z</time></trkpt>
        <trkpt lat="29.567148" lon="103.405145"><ele>805.1112</ele><time>2026-07-20T23:15:57.000Z</time></trkpt>
        <trkpt lat="29.56716" lon="103.405137"><ele>805.0989</ele><time>2026-07-20T23:15:59.000Z</time></trkpt>
        <trkpt lat="29.567176" lon="103.405126"><ele>805.256</ele><time>2026-07-20T23:16:01.000Z</time></trkpt>
        <trkpt lat="29.567192" lon="103.405116"><ele>804.4704</ele><time>2026-07-20T23:16:03.000Z</time></trkpt>
        <trkpt lat="29.567207" lon="103.405106"><ele>804.3547</ele><time>2026-07-20T23:16:05.000Z</time></trkpt>
        <trkpt lat="29.567224" lon="103.405095"><ele>804.34906</ele><time>2026-07-20T23:16:07.000Z</time></trkpt>
        <trkpt lat="29.56724" lon="103.405088"><ele>804.6226</ele><time>2026-07-20T23:16:09.000Z</time></trkpt>
        <trkpt lat="29.567258" lon="103.405082"><ele>804.65894</ele><time>2026-07-20T23:16:11.000Z</time></trkpt>
        <trkpt lat="29.567278" lon="103.405077"><ele>805.3354</ele><time>2026-07-20T23:16:13.000Z</time></trkpt>
        <trkpt lat="29.5673" lon="103.405074"><ele>805.8117</ele><time>2026-07-20T23:16:15.000Z</time></trkpt>
        <trkpt lat="29.567323" lon="103.405072"><ele>805.38715</ele><time>2026-07-20T23:16:17.000Z</time></trkpt>
        <trkpt lat="29.567345" lon="103.405074"><ele>804.85864</ele><time>2026-07-20T23:16:19.000Z</time></trkpt>
        <trkpt lat="29.567365" lon="103.405075"><ele>804.4881</ele><time>2026-07-20T23:16:21.000Z</time></trkpt>
        <trkpt lat="29.567385" lon="103.405077"><ele>805.32587</ele><time>2026-07-20T23:16:23.000Z</time></trkpt>
        <trkpt lat="29.567403" lon="103.405077"><ele>805.24243</ele><time>2026-07-20T23:16:25.000Z</time></trkpt>
        <trkpt lat="29.567421" lon="103.405075"><ele>804.3254</ele><time>2026-07-20T23:16:28.000Z</time></trkpt>
        <trkpt lat="29.567441" lon="103.405073"><ele>804.1497</ele><time>2026-07-20T23:16:30.000Z</time></trkpt>
        <trkpt lat="29.567461" lon="103.40507"><ele>804.1377</ele><time>2026-07-20T23:16:32.000Z</time></trkpt>
        <trkpt lat="29.567481" lon="103.405069"><ele>804.2287</ele><time>2026-07-20T23:16:34.000Z</time></trkpt>
        <trkpt lat="29.567502" lon="103.40507"><ele>804.9076</ele><time>2026-07-20T23:16:36.000Z</time></trkpt>
        <trkpt lat="29.567521" lon="103.405071"><ele>805.3906</ele><time>2026-07-20T23:16:38.000Z</time></trkpt>
        <trkpt lat="29.567541" lon="103.405073"><ele>805.4344</ele><time>2026-07-20T23:16:40.000Z</time></trkpt>
        <trkpt lat="29.56756" lon="103.405074"><ele>804.9946</ele><time>2026-07-20T23:16:42.000Z</time></trkpt>
        <trkpt lat="29.56758" lon="103.405075"><ele>805.4464</ele><time>2026-07-20T23:16:44.000Z</time></trkpt>
        <trkpt lat="29.567599" lon="103.405076"><ele>805.6597</ele><time>2026-07-20T23:16:46.000Z</time></trkpt>
        <trkpt lat="29.567617" lon="103.405078"><ele>805.3781</ele><time>2026-07-20T23:16:48.000Z</time></trkpt>
        <trkpt lat="29.567636" lon="103.405084"><ele>805.3197</ele><time>2026-07-20T23:16:50.000Z</time></trkpt>
        <trkpt lat="29.567655" lon="103.405092"><ele>805.06995</ele><time>2026-07-20T23:16:52.000Z</time></trkpt>
        <trkpt lat="29.567671" lon="103.405099"><ele>805.19476</ele><time>2026-07-20T23:16:54.000Z</time></trkpt>
        <trkpt lat="29.567685" lon="103.405104"><ele>804.14233</ele><time>2026-07-20T23:16:56.000Z</time></trkpt>
        <trkpt lat="29.567698" lon="103.405106"><ele>803.2027</ele><time>2026-07-20T23:16:58.000Z</time></trkpt>
        <trkpt lat="29.567713" lon="103.405106"><ele>802.7133</ele><time>2026-07-20T23:17:00.000Z</time></trkpt>
        <trkpt lat="29.567729" lon="103.405106"><ele>801.21893</ele><time>2026-07-20T23:17:02.000Z</time></trkpt>
        <trkpt lat="29.567746" lon="103.405105"><ele>802.136</ele><time>2026-07-20T23:17:04.000Z</time></trkpt>
        <trkpt lat="29.567767" lon="103.405104"><ele>803.0832</ele><time>2026-07-20T23:17:06.000Z</time></trkpt>
        <trkpt lat="29.567788" lon="103.405103"><ele>802.4258</ele><time>2026-07-20T23:17:08.000Z</time></trkpt>
        <trkpt lat="29.567809" lon="103.405101"><ele>802.24786</ele><time>2026-07-20T23:17:10.000Z</time></trkpt>
        <trkpt lat="29.567829" lon="103.4051"><ele>801.7548</ele><time>2026-07-20T23:17:12.000Z</time></trkpt>
        <trkpt lat="29.567851" lon="103.405099"><ele>802.0819</ele><time>2026-07-20T23:17:14.000Z</time></trkpt>
        <trkpt lat="29.567872" lon="103.405096"><ele>801.6506</ele><time>2026-07-20T23:17:16.000Z</time></trkpt>
        <trkpt lat="29.567892" lon="103.40509"><ele>801.4318</ele><time>2026-07-20T23:17:18.000Z</time></trkpt>
        <trkpt lat="29.567909" lon="103.405081"><ele>800.9</ele><time>2026-07-20T23:17:20.000Z</time></trkpt>
        <trkpt lat="29.567923" lon="103.405071"><ele>801.0788</ele><time>2026-07-20T23:17:22.000Z</time></trkpt>
        <trkpt lat="29.567938" lon="103.405057"><ele>800.5113</ele><time>2026-07-20T23:17:24.000Z</time></trkpt>
        <trkpt lat="29.567951" lon="103.405043"><ele>800.029</ele><time>2026-07-20T23:17:26.000Z</time></trkpt>
        <trkpt lat="29.567965" lon="103.405032"><ele>799.8413</ele><time>2026-07-20T23:17:28.000Z</time></trkpt>
        <trkpt lat="29.56798" lon="103.405021"><ele>799.1335</ele><time>2026-07-20T23:17:30.000Z</time></trkpt>
        <trkpt lat="29.567995" lon="103.405008"><ele>798.477</ele><time>2026-07-20T23:17:32.000Z</time></trkpt>
        <trkpt lat="29.56801" lon="103.404996"><ele>798.55286</ele><time>2026-07-20T23:17:34.000Z</time></trkpt>
        <trkpt lat="29.568024" lon="103.404987"><ele>798.24335</ele><time>2026-07-20T23:17:36.000Z</time></trkpt>
        <trkpt lat="29.568042" lon="103.404977"><ele>798.27734</ele><time>2026-07-20T23:17:38.000Z</time></trkpt>
        <trkpt lat="29.568062" lon="103.40497"><ele>797.8205</ele><time>2026-07-20T23:17:40.000Z</time></trkpt>
        <trkpt lat="29.568082" lon="103.404963"><ele>797.4126</ele><time>2026-07-20T23:17:42.000Z</time></trkpt>
        <trkpt lat="29.568103" lon="103.404955"><ele>797.8394</ele><time>2026-07-20T23:17:44.000Z</time></trkpt>
        <trkpt lat="29.568119" lon="103.404948"><ele>798.0352</ele><time>2026-07-20T23:17:46.000Z</time></trkpt>
        <trkpt lat="29.568137" lon="103.40494"><ele>797.8508</ele><time>2026-07-20T23:17:48.000Z</time></trkpt>
        <trkpt lat="29.568155" lon="103.404932"><ele>797.63696</ele><time>2026-07-20T23:17:50.000Z</time></trkpt>
        <trkpt lat="29.568174" lon="103.404924"><ele>797.74506</ele><time>2026-07-20T23:17:52.000Z</time></trkpt>
        <trkpt lat="29.568194" lon="103.404915"><ele>797.22797</ele><time>2026-07-20T23:17:54.000Z</time></trkpt>
        <trkpt lat="29.568212" lon="103.404905"><ele>796.9908</ele><time>2026-07-20T23:17:56.000Z</time></trkpt>
        <trkpt lat="29.568228" lon="103.404896"><ele>796.6758</ele><time>2026-07-20T23:17:58.000Z</time></trkpt>
        <trkpt lat="29.568246" lon="103.404886"><ele>795.6334</ele><time>2026-07-20T23:17:59.000Z</time></trkpt>
        <trkpt lat="29.568264" lon="103.404878"><ele>795.348</ele><time>2026-07-20T23:18:01.000Z</time></trkpt>
        <trkpt lat="29.568284" lon="103.404869"><ele>795.14056</ele><time>2026-07-20T23:18:03.000Z</time></trkpt>
        <trkpt lat="29.568302" lon="103.404859"><ele>795.7114</ele><time>2026-07-20T23:18:05.000Z</time></trkpt>
        <trkpt lat="29.568319" lon="103.404846"><ele>795.56055</ele><time>2026-07-20T23:18:07.000Z</time></trkpt>
        <trkpt lat="29.568337" lon="103.404832"><ele>794.7568</ele><time>2026-07-20T23:18:09.000Z</time></trkpt>
        <trkpt lat="29.568353" lon="103.404818"><ele>794.5492</ele><time>2026-07-20T23:18:11.000Z</time></trkpt>
        <trkpt lat="29.568369" lon="103.404801"><ele>793.85046</ele><time>2026-07-20T23:18:13.000Z</time></trkpt>
        <trkpt lat="29.568384" lon="103.404785"><ele>793.77893</ele><time>2026-07-20T23:18:15.000Z</time></trkpt>
        <trkpt lat="29.568398" lon="103.404769"><ele>793.7074</ele><time>2026-07-20T23:18:17.000Z</time></trkpt>
        <trkpt lat="29.568409" lon="103.404754"><ele>794.07135</ele><time>2026-07-20T23:18:19.000Z</time></trkpt>
        <trkpt lat="29.568417" lon="103.404737"><ele>793.77966</ele><time>2026-07-20T23:18:21.000Z</time></trkpt>
        <trkpt lat="29.568426" lon="103.404717"><ele>793.8347</ele><time>2026-07-20T23:18:23.000Z</time></trkpt>
        <trkpt lat="29.568433" lon="103.404697"><ele>792.9848</ele><time>2026-07-20T23:18:26.000Z</time></trkpt>
        <trkpt lat="29.568441" lon="103.404673"><ele>793.4613</ele><time>2026-07-20T23:18:28.000Z</time></trkpt>
        <trkpt lat="29.568448" lon="103.404651"><ele>793.6421</ele><time>2026-07-20T23:18:30.000Z</time></trkpt>
        <trkpt lat="29.568456" lon="103.40463"><ele>793.0148</ele><time>2026-07-20T23:18:32.000Z</time></trkpt>
        <trkpt lat="29.568464" lon="103.404609"><ele>793.6327</ele><time>2026-07-20T23:18:34.000Z</time></trkpt>
        <trkpt lat="29.568473" lon="103.404589"><ele>792.9113</ele><time>2026-07-20T23:18:36.000Z</time></trkpt>
        <trkpt lat="29.568483" lon="103.404571"><ele>792.49475</ele><time>2026-07-20T23:18:38.000Z</time></trkpt>
        <trkpt lat="29.568496" lon="103.404552"><ele>791.9709</ele><time>2026-07-20T23:18:40.000Z</time></trkpt>
        <trkpt lat="29.568509" lon="103.404534"><ele>791.9429</ele><time>2026-07-20T23:18:42.000Z</time></trkpt>
        <trkpt lat="29.568519" lon="103.404517"><ele>791.40686</ele><time>2026-07-20T23:18:44.000Z</time></trkpt>
        <trkpt lat="29.56853" lon="103.4045"><ele>791.3652</ele><time>2026-07-20T23:18:46.000Z</time></trkpt>
        <trkpt lat="29.56854" lon="103.404482"><ele>791.8579</ele><time>2026-07-20T23:18:48.000Z</time></trkpt>
        <trkpt lat="29.56855" lon="103.404463"><ele>791.9238</ele><time>2026-07-20T23:18:50.000Z</time></trkpt>
        <trkpt lat="29.568559" lon="103.404442"><ele>791.5293</ele><time>2026-07-20T23:18:52.000Z</time></trkpt>
        <trkpt lat="29.568569" lon="103.404423"><ele>791.66864</ele><time>2026-07-20T23:18:54.000Z</time></trkpt>
        <trkpt lat="29.568578" lon="103.404403"><ele>791.3604</ele><time>2026-07-20T23:18:56.000Z</time></trkpt>
        <trkpt lat="29.568589" lon="103.404383"><ele>791.0131</ele><time>2026-07-20T23:18:58.000Z</time></trkpt>
        <trkpt lat="29.5686" lon="103.404368"><ele>791.9213</ele><time>2026-07-20T23:19:00.000Z</time></trkpt>
        <trkpt lat="29.568612" lon="103.404352"><ele>792.08655</ele><time>2026-07-20T23:19:02.000Z</time></trkpt>
        <trkpt lat="29.568625" lon="103.404335"><ele>791.93085</ele><time>2026-07-20T23:19:04.000Z</time></trkpt>
        <trkpt lat="29.568636" lon="103.404318"><ele>791.812</ele><time>2026-07-20T23:19:06.000Z</time></trkpt>
        <trkpt lat="29.568647" lon="103.404299"><ele>791.5019</ele><time>2026-07-20T23:19:08.000Z</time></trkpt>
        <trkpt lat="29.568655" lon="103.40428"><ele>790.9615</ele><time>2026-07-20T23:19:10.000Z</time></trkpt>
        <trkpt lat="29.568663" lon="103.404262"><ele>790.3214</ele><time>2026-07-20T23:19:12.000Z</time></trkpt>
        <trkpt lat="29.568672" lon="103.404249"><ele>791.44824</ele><time>2026-07-20T23:19:14.000Z</time></trkpt>
        <trkpt lat="29.568685" lon="103.404233"><ele>791.6249</ele><time>2026-07-20T23:19:16.000Z</time></trkpt>
        <trkpt lat="29.568701" lon="103.404215"><ele>791.497</ele><time>2026-07-20T23:19:18.000Z</time></trkpt>
        <trkpt lat="29.568718" lon="103.404196"><ele>790.6312</ele><time>2026-07-20T23:19:20.000Z</time></trkpt>
        <trkpt lat="29.568734" lon="103.404176"><ele>790.6475</ele><time>2026-07-20T23:19:22.000Z</time></trkpt>
        <trkpt lat="29.568749" lon="103.404158"><ele>790.15344</ele><time>2026-07-20T23:19:24.000Z</time></trkpt>
        <trkpt lat="29.568761" lon="103.404142"><ele>789.9928</ele><time>2026-07-20T23:19:26.000Z</time></trkpt>
        <trkpt lat="29.568773" lon="103.404126"><ele>788.89526</ele><time>2026-07-20T23:19:28.000Z</time></trkpt>
        <trkpt lat="29.568786" lon="103.404109"><ele>788.9599</ele><time>2026-07-20T23:19:30.000Z</time></trkpt>
        <trkpt lat="29.568798" lon="103.404092"><ele>789.2561</ele><time>2026-07-20T23:19:32.000Z</time></trkpt>
        <trkpt lat="29.568812" lon="103.404075"><ele>789.20294</ele><time>2026-07-20T23:19:34.000Z</time></trkpt>
        <trkpt lat="29.568826" lon="103.404059"><ele>789.6342</ele><time>2026-07-20T23:19:36.000Z</time></trkpt>
        <trkpt lat="29.568841" lon="103.404042"><ele>790.01117</ele><time>2026-07-20T23:19:38.000Z</time></trkpt>
        <trkpt lat="29.568856" lon="103.404026"><ele>790.55396</ele><time>2026-07-20T23:19:40.000Z</time></trkpt>
        <trkpt lat="29.568871" lon="103.404012"><ele>790.6583</ele><time>2026-07-20T23:19:42.000Z</time></trkpt>
        <trkpt lat="29.568888" lon="103.403998"><ele>789.89923</ele><time>2026-07-20T23:19:44.000Z</time></trkpt>
        <trkpt lat="29.568904" lon="103.403988"><ele>790.23804</ele><time>2026-07-20T23:19:46.000Z</time></trkpt>
        <trkpt lat="29.568923" lon="103.403982"><ele>791.1869</ele><time>2026-07-20T23:19:48.000Z</time></trkpt>
        <trkpt lat="29.568939" lon="103.403978"><ele>791.7579</ele><time>2026-07-20T23:19:50.000Z</time></trkpt>
        <trkpt lat="29.568955" lon="103.403975"><ele>792.329</ele><time>2026-07-20T23:19:52.000Z</time></trkpt>
        <trkpt lat="29.56897" lon="103.403972"><ele>792.74664</ele><time>2026-07-20T23:19:54.000Z</time></trkpt>
        <trkpt lat="29.568983" lon="103.403971"><ele>792.7118</ele><time>2026-07-20T23:19:56.000Z</time></trkpt>
        <trkpt lat="29.569002" lon="103.403969"><ele>792.3915</ele><time>2026-07-20T23:19:58.000Z</time></trkpt>
        <trkpt lat="29.569023" lon="103.40397"><ele>791.17163</ele><time>2026-07-20T23:20:00.000Z</time></trkpt>
        <trkpt lat="29.569045" lon="103.403974"><ele>791.0274</ele><time>2026-07-20T23:20:02.000Z</time></trkpt>
        <trkpt lat="29.569069" lon="103.40398"><ele>791.4796</ele><time>2026-07-20T23:20:04.000Z</time></trkpt>
        <trkpt lat="29.569091" lon="103.403987"><ele>790.7125</ele><time>2026-07-20T23:20:06.000Z</time></trkpt>
        <trkpt lat="29.569114" lon="103.403993"><ele>790.35486</ele><time>2026-07-20T23:20:08.000Z</time></trkpt>
        <trkpt lat="29.569138" lon="103.403997"><ele>790.4625</ele><time>2026-07-20T23:20:10.000Z</time></trkpt>
        <trkpt lat="29.569163" lon="103.403998"><ele>790.67505</ele><time>2026-07-20T23:20:12.000Z</time></trkpt>
        <trkpt lat="29.569185" lon="103.403997"><ele>790.386</ele><time>2026-07-20T23:20:14.000Z</time></trkpt>
        <trkpt lat="29.569205" lon="103.403992"><ele>790.2475</ele><time>2026-07-20T23:20:16.000Z</time></trkpt>
        <trkpt lat="29.569223" lon="103.403985"><ele>789.8578</ele><time>2026-07-20T23:20:18.000Z</time></trkpt>
        <trkpt lat="29.569239" lon="103.403975"><ele>789.4831</ele><time>2026-07-20T23:20:20.000Z</time></trkpt>
        <trkpt lat="29.569254" lon="103.403963"><ele>789.0586</ele><time>2026-07-20T23:20:22.000Z</time></trkpt>
        <trkpt lat="29.569268" lon="103.403951"><ele>788.63104</ele><time>2026-07-20T23:20:24.000Z</time></trkpt>
        <trkpt lat="29.569282" lon="103.403939"><ele>788.37115</ele><time>2026-07-20T23:20:26.000Z</time></trkpt>
        <trkpt lat="29.569296" lon="103.403927"><ele>788.19055</ele><time>2026-07-20T23:20:28.000Z</time></trkpt>
        <trkpt lat="29.56931" lon="103.403914"><ele>787.712</ele><time>2026-07-20T23:20:30.000Z</time></trkpt>
        <trkpt lat="29.569324" lon="103.403902"><ele>787.45026</ele><time>2026-07-20T23:20:32.000Z</time></trkpt>
        <trkpt lat="29.569337" lon="103.40389"><ele>786.9883</ele><time>2026-07-20T23:20:34.000Z</time></trkpt>
        <trkpt lat="29.569352" lon="103.403878"><ele>786.67004</ele><time>2026-07-20T23:20:36.000Z</time></trkpt>
        <trkpt lat="29.569366" lon="103.403869"><ele>786.2524</ele><time>2026-07-20T23:20:38.000Z</time></trkpt>
        <trkpt lat="29.569383" lon="103.40386"><ele>786.27185</ele><time>2026-07-20T23:20:40.000Z</time></trkpt>
        <trkpt lat="29.569401" lon="103.403851"><ele>786.5978</ele><time>2026-07-20T23:20:42.000Z</time></trkpt>
        <trkpt lat="29.569421" lon="103.403841"><ele>786.09467</ele><time>2026-07-20T23:20:44.000Z</time></trkpt>
        <trkpt lat="29.56944" lon="103.40383"><ele>786.387</ele><time>2026-07-20T23:20:46.000Z</time></trkpt>
        <trkpt lat="29.569459" lon="103.403819"><ele>786.48663</ele><time>2026-07-20T23:20:48.000Z</time></trkpt>
        <trkpt lat="29.569478" lon="103.403809"><ele>785.8026</ele><time>2026-07-20T23:20:50.000Z</time></trkpt>
        <trkpt lat="29.569496" lon="103.4038"><ele>785.45013</ele><time>2026-07-20T23:20:52.000Z</time></trkpt>
        <trkpt lat="29.569514" lon="103.403791"><ele>785.30316</ele><time>2026-07-20T23:20:54.000Z</time></trkpt>
        <trkpt lat="29.56953" lon="103.403781"><ele>784.2338</ele><time>2026-07-20T23:20:56.000Z</time></trkpt>
        <trkpt lat="29.569546" lon="103.403773"><ele>783.24506</ele><time>2026-07-20T23:20:58.000Z</time></trkpt>
        <trkpt lat="29.569561" lon="103.403769"><ele>783.42413</ele><time>2026-07-20T23:21:00.000Z</time></trkpt>
        <trkpt lat="29.569579" lon="103.403765"><ele>783.5316</ele><time>2026-07-20T23:21:02.000Z</time></trkpt>
        <trkpt lat="29.569596" lon="103.40376"><ele>782.54486</ele><time>2026-07-20T23:21:04.000Z</time></trkpt>
        <trkpt lat="29.569611" lon="103.403754"><ele>782.73346</ele><time>2026-07-20T23:21:06.000Z</time></trkpt>
        <trkpt lat="29.569628" lon="103.403746"><ele>782.81134</ele><time>2026-07-20T23:21:08.000Z</time></trkpt>
        <trkpt lat="29.569647" lon="103.403736"><ele>783.2136</ele><time>2026-07-20T23:21:10.000Z</time></trkpt>
        <trkpt lat="29.569662" lon="103.403726"><ele>783.0787</ele><time>2026-07-20T23:21:12.000Z</time></trkpt>
        <trkpt lat="29.569676" lon="103.403716"><ele>783.4266</ele><time>2026-07-20T23:21:14.000Z</time></trkpt>
        <trkpt lat="29.569692" lon="103.403704"><ele>783.1324</ele><time>2026-07-20T23:21:16.000Z</time></trkpt>
        <trkpt lat="29.569708" lon="103.40369"><ele>783.2224</ele><time>2026-07-20T23:21:18.000Z</time></trkpt>
        <trkpt lat="29.569723" lon="103.403673"><ele>783.27905</ele><time>2026-07-20T23:21:20.000Z</time></trkpt>
        <trkpt lat="29.56974" lon="103.403655"><ele>783.0722</ele><time>2026-07-20T23:21:22.000Z</time></trkpt>
        <trkpt lat="29.56976" lon="103.403635"><ele>783.00525</ele><time>2026-07-20T23:21:24.000Z</time></trkpt>
        <trkpt lat="29.569779" lon="103.403619"><ele>783.3704</ele><time>2026-07-20T23:21:26.000Z</time></trkpt>
        <trkpt lat="29.569794" lon="103.403604"><ele>783.93225</ele><time>2026-07-20T23:21:28.000Z</time></trkpt>
        <trkpt lat="29.569809" lon="103.403586"><ele>783.70416</ele><time>2026-07-20T23:21:30.000Z</time></trkpt>
        <trkpt lat="29.569824" lon="103.403565"><ele>782.8565</ele><time>2026-07-20T23:21:32.000Z</time></trkpt>
        <trkpt lat="29.569838" lon="103.403544"><ele>782.0681</ele><time>2026-07-20T23:21:34.000Z</time></trkpt>
        <trkpt lat="29.569851" lon="103.403525"><ele>782.16473</ele><time>2026-07-20T23:21:36.000Z</time></trkpt>
        <trkpt lat="29.569866" lon="103.4035"><ele>782.2919</ele><time>2026-07-20T23:21:38.000Z</time></trkpt>
        <trkpt lat="29.56988" lon="103.403475"><ele>782.65424</ele><time>2026-07-20T23:21:40.000Z</time></trkpt>
        <trkpt lat="29.569894" lon="103.403449"><ele>782.04504</ele><time>2026-07-20T23:21:42.000Z</time></trkpt>
        <trkpt lat="29.569907" lon="103.403423"><ele>780.3483</ele><time>2026-07-20T23:21:44.000Z</time></trkpt>
        <trkpt lat="29.56992" lon="103.403401"><ele>778.7824</ele><time>2026-07-20T23:21:46.000Z</time></trkpt>
        <trkpt lat="29.569934" lon="103.403379"><ele>779.02576</ele><time>2026-07-20T23:21:48.000Z</time></trkpt>
        <trkpt lat="29.569949" lon="103.403358"><ele>779.52954</ele><time>2026-07-20T23:21:50.000Z</time></trkpt>
        <trkpt lat="29.569962" lon="103.40334"><ele>779.34216</ele><time>2026-07-20T23:21:52.000Z</time></trkpt>
        <trkpt lat="29.569975" lon="103.403322"><ele>779.1133</ele><time>2026-07-20T23:21:54.000Z</time></trkpt>
        <trkpt lat="29.569986" lon="103.403308"><ele>780.3079</ele><time>2026-07-20T23:21:56.000Z</time></trkpt>
        <trkpt lat="29.569999" lon="103.403294"><ele>780.0092</ele><time>2026-07-20T23:21:58.000Z</time></trkpt>
        <trkpt lat="29.570012" lon="103.403278"><ele>780.19525</ele><time>2026-07-20T23:22:00.000Z</time></trkpt>
        <trkpt lat="29.570024" lon="103.403263"><ele>781.0942</ele><time>2026-07-20T23:22:02.000Z</time></trkpt>
        <trkpt lat="29.570041" lon="103.403243"><ele>780.0684</ele><time>2026-07-20T23:22:04.000Z</time></trkpt>
        <trkpt lat="29.570056" lon="103.403222"><ele>779.8019</ele><time>2026-07-20T23:22:06.000Z</time></trkpt>
        <trkpt lat="29.570068" lon="103.403204"><ele>780.04724</ele><time>2026-07-20T23:22:08.000Z</time></trkpt>
        <trkpt lat="29.570075" lon="103.403186"><ele>780.87585</ele><time>2026-07-20T23:22:10.000Z</time></trkpt>
        <trkpt lat="29.570081" lon="103.403165"><ele>780.86896</ele><time>2026-07-20T23:22:12.000Z</time></trkpt>
        <trkpt lat="29.570083" lon="103.40314"><ele>780.2086</ele><time>2026-07-20T23:22:14.000Z</time></trkpt>
        <trkpt lat="29.570084" lon="103.403115"><ele>779.34894</ele><time>2026-07-20T23:22:16.000Z</time></trkpt>
        <trkpt lat="29.570085" lon="103.403086"><ele>779.0421</ele><time>2026-07-20T23:22:18.000Z</time></trkpt>
        <trkpt lat="29.570088" lon="103.403058"><ele>779.61</ele><time>2026-07-20T23:22:20.000Z</time></trkpt>
        <trkpt lat="29.570093" lon="103.40303"><ele>779.4206</ele><time>2026-07-20T23:22:22.000Z</time></trkpt>
        <trkpt lat="29.570101" lon="103.403003"><ele>779.5126</ele><time>2026-07-20T23:22:24.000Z</time></trkpt>
        <trkpt lat="29.57011" lon="103.402983"><ele>779.6901</ele><time>2026-07-20T23:22:26.000Z</time></trkpt>
        <trkpt lat="29.570121" lon="103.402966"><ele>779.5406</ele><time>2026-07-20T23:22:28.000Z</time></trkpt>
        <trkpt lat="29.570134" lon="103.40295"><ele>779.10205</ele><time>2026-07-20T23:22:30.000Z</time></trkpt>
        <trkpt lat="29.57015" lon="103.402938"><ele>779.4782</ele><time>2026-07-20T23:22:32.000Z</time></trkpt>
        <trkpt lat="29.570168" lon="103.402927"><ele>779.69354</ele><time>2026-07-20T23:22:34.000Z</time></trkpt>
        <trkpt lat="29.570189" lon="103.402917"><ele>779.46106</ele><time>2026-07-20T23:22:36.000Z</time></trkpt>
        <trkpt lat="29.570214" lon="103.402909"><ele>780.2896</ele><time>2026-07-20T23:22:38.000Z</time></trkpt>
        <trkpt lat="29.570239" lon="103.402903"><ele>780.7754</ele><time>2026-07-20T23:22:40.000Z</time></trkpt>
        <trkpt lat="29.570262" lon="103.402899"><ele>781.50507</ele><time>2026-07-20T23:22:42.000Z</time></trkpt>
        <trkpt lat="29.570284" lon="103.402897"><ele>782.2272</ele><time>2026-07-20T23:22:44.000Z</time></trkpt>
        <trkpt lat="29.570308" lon="103.402892"><ele>782.4169</ele><time>2026-07-20T23:22:46.000Z</time></trkpt>
        <trkpt lat="29.570332" lon="103.402887"><ele>782.6373</ele><time>2026-07-20T23:22:48.000Z</time></trkpt>
        <trkpt lat="29.570356" lon="103.402879"><ele>782.7129</ele><time>2026-07-20T23:22:50.000Z</time></trkpt>
        <trkpt lat="29.570375" lon="103.40287"><ele>782.35486</ele><time>2026-07-20T23:22:52.000Z</time></trkpt>
        <trkpt lat="29.570395" lon="103.402862"><ele>781.11926</ele><time>2026-07-20T23:22:54.000Z</time></trkpt>
        <trkpt lat="29.570412" lon="103.402857"><ele>781.27216</ele><time>2026-07-20T23:22:56.000Z</time></trkpt>
        <trkpt lat="29.570428" lon="103.402854"><ele>781.31647</ele><time>2026-07-20T23:22:58.000Z</time></trkpt>
        <trkpt lat="29.570441" lon="103.402852"><ele>782.5271</ele><time>2026-07-20T23:23:00.000Z</time></trkpt>
        <trkpt lat="29.57046" lon="103.40285"><ele>783.6239</ele><time>2026-07-20T23:23:02.000Z</time></trkpt>
        <trkpt lat="29.570482" lon="103.402851"><ele>783.1829</ele><time>2026-07-20T23:23:04.000Z</time></trkpt>
        <trkpt lat="29.570503" lon="103.402853"><ele>782.9202</ele><time>2026-07-20T23:23:06.000Z</time></trkpt>
        <trkpt lat="29.570525" lon="103.402855"><ele>782.5635</ele><time>2026-07-20T23:23:08.000Z</time></trkpt>
        <trkpt lat="29.570547" lon="103.402855"><ele>783.0628</ele><time>2026-07-20T23:23:10.000Z</time></trkpt>
        <trkpt lat="29.570569" lon="103.402856"><ele>784.33295</ele><time>2026-07-20T23:23:12.000Z</time></trkpt>
        <trkpt lat="29.57059" lon="103.402854"><ele>784.546</ele><time>2026-07-20T23:23:14.000Z</time></trkpt>
        <trkpt lat="29.570608" lon="103.402852"><ele>785.1508</ele><time>2026-07-20T23:23:16.000Z</time></trkpt>
        <trkpt lat="29.570626" lon="103.402851"><ele>785.2408</ele><time>2026-07-20T23:23:18.000Z</time></trkpt>
        <trkpt lat="29.570645" lon="103.402847"><ele>783.663</ele><time>2026-07-20T23:23:20.000Z</time></trkpt>
        <trkpt lat="29.570668" lon="103.402841"><ele>782.21515</ele><time>2026-07-20T23:23:22.000Z</time></trkpt>
        <trkpt lat="29.570693" lon="103.402835"><ele>782.1976</ele><time>2026-07-20T23:23:24.000Z</time></trkpt>
        <trkpt lat="29.570716" lon="103.402829"><ele>781.4356</ele><time>2026-07-20T23:23:26.000Z</time></trkpt>
        <trkpt lat="29.57074" lon="103.402823"><ele>780.46313</ele><time>2026-07-20T23:23:28.000Z</time></trkpt>
        <trkpt lat="29.570763" lon="103.402816"><ele>779.6954</ele><time>2026-07-20T23:23:30.000Z</time></trkpt>
        <trkpt lat="29.570785" lon="103.402809"><ele>779.15546</ele><time>2026-07-20T23:23:32.000Z</time></trkpt>
        <trkpt lat="29.570806" lon="103.4028"><ele>778.93</ele><time>2026-07-20T23:23:34.000Z</time></trkpt>
        <trkpt lat="29.570826" lon="103.402791"><ele>777.96497</ele><time>2026-07-20T23:23:36.000Z</time></trkpt>
        <trkpt lat="29.570845" lon="103.402782"><ele>777.5052</ele><time>2026-07-20T23:23:38.000Z</time></trkpt>
        <trkpt lat="29.570866" lon="103.402771"><ele>777.36847</ele><time>2026-07-20T23:23:40.000Z</time></trkpt>
        <trkpt lat="29.570888" lon="103.40276"><ele>776.3237</ele><time>2026-07-20T23:23:42.000Z</time></trkpt>
        <trkpt lat="29.570909" lon="103.402747"><ele>776.71765</ele><time>2026-07-20T23:23:44.000Z</time></trkpt>
        <trkpt lat="29.57093" lon="103.402736"><ele>776.0634</ele><time>2026-07-20T23:23:46.000Z</time></trkpt>
        <trkpt lat="29.570953" lon="103.402722"><ele>774.7569</ele><time>2026-07-20T23:23:48.000Z</time></trkpt>
        <trkpt lat="29.570975" lon="103.402707"><ele>773.87134</ele><time>2026-07-20T23:23:50.000Z</time></trkpt>
        <trkpt lat="29.570999" lon="103.402692"><ele>773.0391</ele><time>2026-07-20T23:23:52.000Z</time></trkpt>
        <trkpt lat="29.571022" lon="103.402679"><ele>773.43646</ele><time>2026-07-20T23:23:54.000Z</time></trkpt>
        <trkpt lat="29.571043" lon="103.402666"><ele>773.64825</ele><time>2026-07-20T23:23:56.000Z</time></trkpt>
        <trkpt lat="29.571062" lon="103.402653"><ele>772.28534</ele><time>2026-07-20T23:23:58.000Z</time></trkpt>
        <trkpt lat="29.571081" lon="103.402639"><ele>772.12964</ele><time>2026-07-20T23:24:00.000Z</time></trkpt>
        <trkpt lat="29.571097" lon="103.402625"><ele>771.8498</ele><time>2026-07-20T23:24:02.000Z</time></trkpt>
        <trkpt lat="29.571111" lon="103.402612"><ele>771.21747</ele><time>2026-07-20T23:24:04.000Z</time></trkpt>
        <trkpt lat="29.571125" lon="103.402602"><ele>769.776</ele><time>2026-07-20T23:24:06.000Z</time></trkpt>
        <trkpt lat="29.571137" lon="103.402593"><ele>770.53265</ele><time>2026-07-20T23:24:08.000Z</time></trkpt>
        <trkpt lat="29.571151" lon="103.402585"><ele>770.8743</ele><time>2026-07-20T23:24:10.000Z</time></trkpt>
        <trkpt lat="29.571166" lon="103.40258"><ele>770.38165</ele><time>2026-07-20T23:24:12.000Z</time></trkpt>
        <trkpt lat="29.571178" lon="103.402577"><ele>770.30585</ele><time>2026-07-20T23:24:14.000Z</time></trkpt>
        <trkpt lat="29.571179" lon="103.402579"><ele>769.30304</ele><time>2026-07-20T23:24:16.000Z</time></trkpt>
        <trkpt lat="29.571187" lon="103.402601"><ele>768.5248</ele><time>2026-07-20T23:24:24.000Z</time></trkpt>
        <trkpt lat="29.57119" lon="103.402606"><ele>767.7016</ele><time>2026-07-20T23:24:26.000Z</time></trkpt>
        <trkpt lat="29.57119" lon="103.402609"><ele>766.8738</ele><time>2026-07-20T23:24:28.000Z</time></trkpt>
        <trkpt lat="29.571199" lon="103.402567"><ele>767.2366</ele><time>2026-07-20T23:24:41.000Z</time></trkpt>
        <trkpt lat="29.571206" lon="103.402549"><ele>766.6927</ele><time>2026-07-20T23:24:43.000Z</time></trkpt>
        <trkpt lat="29.571215" lon="103.402528"><ele>766.9682</ele><time>2026-07-20T23:24:45.000Z</time></trkpt>
        <trkpt lat="29.571216" lon="103.402527"><ele>767.70667</ele><time>2026-07-20T23:24:47.000Z</time></trkpt>
        <trkpt lat="29.571225" lon="103.402517"><ele>767.6855</ele><time>2026-07-20T23:24:51.000Z</time></trkpt>
        <trkpt lat="29.57124" lon="103.4025"><ele>767.9179</ele><time>2026-07-20T23:24:53.000Z</time></trkpt>
        <trkpt lat="29.571259" lon="103.402476"><ele>768.5999</ele><time>2026-07-20T23:24:55.000Z</time></trkpt>
        <trkpt lat="29.571276" lon="103.402453"><ele>767.5926</ele><time>2026-07-20T23:24:57.000Z</time></trkpt>
        <trkpt lat="29.571293" lon="103.402429"><ele>767.4323</ele><time>2026-07-20T23:24:59.000Z</time></trkpt>
        <trkpt lat="29.571308" lon="103.402404"><ele>767.73145</ele><time>2026-07-20T23:25:01.000Z</time></trkpt>
        <trkpt lat="29.571321" lon="103.40238"><ele>767.3699</ele><time>2026-07-20T23:25:03.000Z</time></trkpt>
        <trkpt lat="29.571331" lon="103.402359"><ele>767.3599</ele><time>2026-07-20T23:25:05.000Z</time></trkpt>
        <trkpt lat="29.57134" lon="103.402338"><ele>766.43945</ele><time>2026-07-20T23:25:07.000Z</time></trkpt>
        <trkpt lat="29.571346" lon="103.402318"><ele>765.5857</ele><time>2026-07-20T23:25:09.000Z</time></trkpt>
        <trkpt lat="29.571353" lon="103.402298"><ele>765.4157</ele><time>2026-07-20T23:25:11.000Z</time></trkpt>
        <trkpt lat="29.571361" lon="103.402282"><ele>765.93475</ele><time>2026-07-20T23:25:13.000Z</time></trkpt>
        <trkpt lat="29.571371" lon="103.402265"><ele>766.3546</ele><time>2026-07-20T23:25:15.000Z</time></trkpt>
        <trkpt lat="29.571384" lon="103.402249"><ele>766.55206</ele><time>2026-07-20T23:25:17.000Z</time></trkpt>
        <trkpt lat="29.571397" lon="103.402231"><ele>767.12305</ele><time>2026-07-20T23:25:19.000Z</time></trkpt>
        <trkpt lat="29.571409" lon="103.402213"><ele>767.96674</ele><time>2026-07-20T23:25:21.000Z</time></trkpt>
        <trkpt lat="29.571424" lon="103.402194"><ele>768.2124</ele><time>2026-07-20T23:25:23.000Z</time></trkpt>
        <trkpt lat="29.571438" lon="103.402176"><ele>767.60956</ele><time>2026-07-20T23:25:25.000Z</time></trkpt>
        <trkpt lat="29.571453" lon="103.402158"><ele>767.09576</ele><time>2026-07-20T23:25:27.000Z</time></trkpt>
        <trkpt lat="29.571468" lon="103.402138"><ele>767.39844</ele><time>2026-07-20T23:25:29.000Z</time></trkpt>
        <trkpt lat="29.571481" lon="103.402119"><ele>767.717</ele><time>2026-07-20T23:25:31.000Z</time></trkpt>
        <trkpt lat="29.571494" lon="103.4021"><ele>767.29913</ele><time>2026-07-20T23:25:33.000Z</time></trkpt>
        <trkpt lat="29.571507" lon="103.40208"><ele>767.1402</ele><time>2026-07-20T23:25:35.000Z</time></trkpt>
        <trkpt lat="29.57152" lon="103.40206"><ele>767.2284</ele><time>2026-07-20T23:25:37.000Z</time></trkpt>
        <trkpt lat="29.571533" lon="103.402041"><ele>765.9603</ele><time>2026-07-20T23:25:39.000Z</time></trkpt>
        <trkpt lat="29.571548" lon="103.402024"><ele>768.6326</ele><time>2026-07-20T23:25:41.000Z</time></trkpt>
        <trkpt lat="29.571565" lon="103.402006"><ele>767.3169</ele><time>2026-07-20T23:25:43.000Z</time></trkpt>
        <trkpt lat="29.571582" lon="103.401989"><ele>767.75146</ele><time>2026-07-20T23:25:45.000Z</time></trkpt>
        <trkpt lat="29.571597" lon="103.401971"><ele>768.3841</ele><time>2026-07-20T23:25:47.000Z</time></trkpt>
        <trkpt lat="29.571611" lon="103.401955"><ele>768.62555</ele><time>2026-07-20T23:25:49.000Z</time></trkpt>
        <trkpt lat="29.571625" lon="103.401943"><ele>768.37714</ele><time>2026-07-20T23:25:51.000Z</time></trkpt>
        <trkpt lat="29.57164" lon="103.401937"><ele>768.2841</ele><time>2026-07-20T23:25:53.000Z</time></trkpt>
        <trkpt lat="29.571651" lon="103.401936"><ele>768.6454</ele><time>2026-07-20T23:25:55.000Z</time></trkpt>
        <trkpt lat="29.571665" lon="103.401937"><ele>769.0253</ele><time>2026-07-20T23:25:57.000Z</time></trkpt>
        <trkpt lat="29.571681" lon="103.401938"><ele>768.8835</ele><time>2026-07-20T23:25:59.000Z</time></trkpt>
        <trkpt lat="29.571698" lon="103.40194"><ele>768.8726</ele><time>2026-07-20T23:26:01.000Z</time></trkpt>
        <trkpt lat="29.571717" lon="103.401942"><ele>769.4947</ele><time>2026-07-20T23:26:03.000Z</time></trkpt>
        <trkpt lat="29.571737" lon="103.401943"><ele>769.9666</ele><time>2026-07-20T23:26:05.000Z</time></trkpt>
        <trkpt lat="29.571759" lon="103.401938"><ele>768.6747</ele><time>2026-07-20T23:26:07.000Z</time></trkpt>
        <trkpt lat="29.571777" lon="103.401928"><ele>767.4762</ele><time>2026-07-20T23:26:09.000Z</time></trkpt>
        <trkpt lat="29.571787" lon="103.40192"><ele>767.8967</ele><time>2026-07-20T23:26:11.000Z</time></trkpt>
        <trkpt lat="29.571794" lon="103.40191"><ele>768.1345</ele><time>2026-07-20T23:26:13.000Z</time></trkpt>
        <trkpt lat="29.571802" lon="103.401902"><ele>767.4509</ele><time>2026-07-20T23:26:15.000Z</time></trkpt>
        <trkpt lat="29.571809" lon="103.401894"><ele>768.38074</ele><time>2026-07-20T23:26:17.000Z</time></trkpt>
        <trkpt lat="29.571815" lon="103.401888"><ele>769.18054</ele><time>2026-07-20T23:26:19.000Z</time></trkpt>
        <trkpt lat="29.571833" lon="103.40187"><ele>768.38904</ele><time>2026-07-20T23:26:23.000Z</time></trkpt>
        <trkpt lat="29.571833" lon="103.40187"><ele>769.7482</ele><time>2026-07-20T23:26:25.000Z</time></trkpt>
        <trkpt lat="29.571844" lon="103.401858"><ele>768.8013</ele><time>2026-07-20T23:26:29.000Z</time></trkpt>
        <trkpt lat="29.571859" lon="103.401841"><ele>769.73096</ele><time>2026-07-20T23:26:31.000Z</time></trkpt>
        <trkpt lat="29.571876" lon="103.401819"><ele>769.5186</ele><time>2026-07-20T23:26:33.000Z</time></trkpt>
        <trkpt lat="29.571889" lon="103.4018"><ele>770.11127</ele><time>2026-07-20T23:26:35.000Z</time></trkpt>
        <trkpt lat="29.571901" lon="103.401784"><ele>771.60876</ele><time>2026-07-20T23:26:37.000Z</time></trkpt>
        <trkpt lat="29.57191" lon="103.401771"><ele>772.8953</ele><time>2026-07-20T23:26:39.000Z</time></trkpt>
        <trkpt lat="29.571917" lon="103.401761"><ele>773.42633</ele><time>2026-07-20T23:26:41.000Z</time></trkpt>
        <trkpt lat="29.571928" lon="103.401746"><ele>772.9897</ele><time>2026-07-20T23:26:43.000Z</time></trkpt>
        <trkpt lat="29.57194" lon="103.401728"><ele>772.01624</ele><time>2026-07-20T23:26:45.000Z</time></trkpt>
        <trkpt lat="29.571954" lon="103.401709"><ele>769.8021</ele><time>2026-07-20T23:26:47.000Z</time></trkpt>
        <trkpt lat="29.571969" lon="103.401692"><ele>769.42</ele><time>2026-07-20T23:26:49.000Z</time></trkpt>
        <trkpt lat="29.571987" lon="103.401676"><ele>770.1696</ele><time>2026-07-20T23:26:51.000Z</time></trkpt>
        <trkpt lat="29.572006" lon="103.401661"><ele>770.75226</ele><time>2026-07-20T23:26:53.000Z</time></trkpt>
        <trkpt lat="29.572025" lon="103.401646"><ele>770.56274</ele><time>2026-07-20T23:26:55.000Z</time></trkpt>
        <trkpt lat="29.572042" lon="103.401633"><ele>770.7129</ele><time>2026-07-20T23:26:57.000Z</time></trkpt>
        <trkpt lat="29.572059" lon="103.401619"><ele>770.79663</ele><time>2026-07-20T23:26:59.000Z</time></trkpt>
        <trkpt lat="29.572072" lon="103.401607"><ele>771.15576</ele><time>2026-07-20T23:27:01.000Z</time></trkpt>
        <trkpt lat="29.572084" lon="103.401594"><ele>771.3799</ele><time>2026-07-20T23:27:03.000Z</time></trkpt>
        <trkpt lat="29.572094" lon="103.401581"><ele>771.3734</ele><time>2026-07-20T23:27:05.000Z</time></trkpt>
        <trkpt lat="29.572103" lon="103.401566"><ele>771.0584</ele><time>2026-07-20T23:27:07.000Z</time></trkpt>
        <trkpt lat="29.572107" lon="103.401552"><ele>770.9031</ele><time>2026-07-20T23:27:09.000Z</time></trkpt>
        <trkpt lat="29.572107" lon="103.401542"><ele>770.61224</ele><time>2026-07-20T23:27:11.000Z</time></trkpt>
        <trkpt lat="29.572105" lon="103.401529"><ele>771.01166</ele><time>2026-07-20T23:27:13.000Z</time></trkpt>
        <trkpt lat="29.572103" lon="103.401515"><ele>770.40765</ele><time>2026-07-20T23:27:15.000Z</time></trkpt>
        <trkpt lat="29.572103" lon="103.401503"><ele>769.90717</ele><time>2026-07-20T23:27:17.000Z</time></trkpt>
        <trkpt lat="29.572104" lon="103.401492"><ele>770.1419</ele><time>2026-07-20T23:27:19.000Z</time></trkpt>
        <trkpt lat="29.572103" lon="103.401484"><ele>770.5789</ele><time>2026-07-20T23:27:21.000Z</time></trkpt>
        <trkpt lat="29.572103" lon="103.401467"><ele>770.455</ele><time>2026-07-20T23:27:25.000Z</time></trkpt>
        <trkpt lat="29.572103" lon="103.401451"><ele>770.88525</ele><time>2026-07-20T23:27:27.000Z</time></trkpt>
        <trkpt lat="29.572102" lon="103.40145"><ele>771.08246</ele><time>2026-07-20T23:27:29.000Z</time></trkpt>
        <trkpt lat="29.572098" lon="103.401421"><ele>770.75574</ele><time>2026-07-20T23:27:35.000Z</time></trkpt>
        <trkpt lat="29.572096" lon="103.4014"><ele>770.27997</ele><time>2026-07-20T23:27:37.000Z</time></trkpt>
        <trkpt lat="29.572093" lon="103.401381"><ele>770.3613</ele><time>2026-07-20T23:27:39.000Z</time></trkpt>
        <trkpt lat="29.572088" lon="103.401365"><ele>771.60333</ele><time>2026-07-20T23:27:41.000Z</time></trkpt>
        <trkpt lat="29.572084" lon="103.401351"><ele>772.3399</ele><time>2026-07-20T23:27:43.000Z</time></trkpt>
        <trkpt lat="29.572081" lon="103.401339"><ele>772.2653</ele><time>2026-07-20T23:27:45.000Z</time></trkpt>
        <trkpt lat="29.572078" lon="103.401327"><ele>773.26184</ele><time>2026-07-20T23:27:47.000Z</time></trkpt>
        <trkpt lat="29.572074" lon="103.401316"><ele>775.0953</ele><time>2026-07-20T23:27:49.000Z</time></trkpt>
        <trkpt lat="29.57207" lon="103.401303"><ele>774.7081</ele><time>2026-07-20T23:27:51.000Z</time></trkpt>
        <trkpt lat="29.572066" lon="103.401289"><ele>773.92834</ele><time>2026-07-20T23:27:53.000Z</time></trkpt>
        <trkpt lat="29.572063" lon="103.401279"><ele>774.3883</ele><time>2026-07-20T23:27:55.000Z</time></trkpt>
        <trkpt lat="29.572062" lon="103.401272"><ele>774.4442</ele><time>2026-07-20T23:27:57.000Z</time></trkpt>
        <trkpt lat="29.572059" lon="103.401252"><ele>774.67487</ele><time>2026-07-20T23:28:21.000Z</time></trkpt>
        <trkpt lat="29.572059" lon="103.401247"><ele>774.04987</ele><time>2026-07-20T23:28:23.000Z</time></trkpt>
        <trkpt lat="29.572056" lon="103.401237"><ele>773.1086</ele><time>2026-07-20T23:28:28.000Z</time></trkpt>
        <trkpt lat="29.572037" lon="103.40118"><ele>773.68506</ele><time>2026-07-20T23:29:04.000Z</time></trkpt>
        <trkpt lat="29.572032" lon="103.401167"><ele>774.0604</ele><time>2026-07-20T23:29:06.000Z</time></trkpt>
        <trkpt lat="29.572032" lon="103.401166"><ele>773.3568</ele><time>2026-07-20T23:29:08.000Z</time></trkpt>
        <trkpt lat="29.572031" lon="103.401237"><ele>776.8647</ele><time>2026-07-20T23:29:24.000Z</time></trkpt>
        <trkpt lat="29.572031" lon="103.401237"><ele>777.5913</ele><time>2026-07-20T23:29:26.000Z</time></trkpt>
        <trkpt lat="29.572028" lon="103.401231"><ele>778.5593</ele><time>2026-07-20T23:29:28.000Z</time></trkpt>
        <trkpt lat="29.571974" lon="103.401115"><ele>779.41473</ele><time>2026-07-20T23:29:30.000Z</time></trkpt>
        <trkpt lat="29.571972" lon="103.401106"><ele>780.54095</ele><time>2026-07-20T23:29:32.000Z</time></trkpt>
        <trkpt lat="29.571974" lon="103.401102"><ele>780.7434</ele><time>2026-07-20T23:29:34.000Z</time></trkpt>
        <trkpt lat="29.571994" lon="103.401048"><ele>782.0208</ele><time>2026-07-20T23:29:38.000Z</time></trkpt>
        <trkpt lat="29.572004" lon="103.401017"><ele>781.2323</ele><time>2026-07-20T23:29:40.000Z</time></trkpt>
        <trkpt lat="29.572012" lon="103.400988"><ele>780.369</ele><time>2026-07-20T23:29:42.000Z</time></trkpt>
        <trkpt lat="29.572016" lon="103.400966"><ele>780.45435</ele><time>2026-07-20T23:29:44.000Z</time></trkpt>
        <trkpt lat="29.572015" lon="103.400952"><ele>781.0935</ele><time>2026-07-20T23:29:46.000Z</time></trkpt>
        <trkpt lat="29.572014" lon="103.400928"><ele>781.9431</ele><time>2026-07-20T23:29:50.000Z</time></trkpt>
        <trkpt lat="29.572012" lon="103.400911"><ele>781.8395</ele><time>2026-07-20T23:29:54.000Z</time></trkpt>
        <trkpt lat="29.572012" lon="103.400903"><ele>781.74133</ele><time>2026-07-20T23:29:56.000Z</time></trkpt>
        <trkpt lat="29.572011" lon="103.400882"><ele>782.4873</ele><time>2026-07-20T23:30:00.000Z</time></trkpt>
        <trkpt lat="29.572011" lon="103.400864"><ele>783.4205</ele><time>2026-07-20T23:30:04.000Z</time></trkpt>
        <trkpt lat="29.572015" lon="103.400859"><ele>783.8108</ele><time>2026-07-20T23:30:06.000Z</time></trkpt>
        <trkpt lat="29.572014" lon="103.400847"><ele>784.81964</ele><time>2026-07-20T23:30:12.000Z</time></trkpt>
        <trkpt lat="29.572007" lon="103.400823"><ele>785.4787</ele><time>2026-07-20T23:30:26.000Z</time></trkpt>
        <trkpt lat="29.572003" lon="103.400808"><ele>786.26855</ele><time>2026-07-20T23:30:28.000Z</time></trkpt>
        <trkpt lat="29.572003" lon="103.400807"><ele>786.3633</ele><time>2026-07-20T23:30:30.000Z</time></trkpt>
        <trkpt lat="29.571991" lon="103.400742"><ele>787.96204</ele><time>2026-07-20T23:30:45.000Z</time></trkpt>
        <trkpt lat="29.571986" lon="103.400717"><ele>789.35565</ele><time>2026-07-20T23:30:49.000Z</time></trkpt>
        <trkpt lat="29.571986" lon="103.400717"><ele>789.9114</ele><time>2026-07-20T23:30:52.000Z</time></trkpt>
        <trkpt lat="29.571987" lon="103.400707"><ele>791.86176</ele><time>2026-07-20T23:30:54.000Z</time></trkpt>
        <trkpt lat="29.571987" lon="103.400681"><ele>795.58246</ele><time>2026-07-20T23:31:06.000Z</time></trkpt>
        <trkpt lat="29.571987" lon="103.400656"><ele>795.3267</ele><time>2026-07-20T23:31:08.000Z</time></trkpt>
        <trkpt lat="29.571986" lon="103.400656"><ele>794.2714</ele><time>2026-07-20T23:31:10.000Z</time></trkpt>
        <trkpt lat="29.571978" lon="103.400643"><ele>793.6876</ele><time>2026-07-20T23:31:18.000Z</time></trkpt>
        <trkpt lat="29.57197" lon="103.400623"><ele>795.4882</ele><time>2026-07-20T23:31:39.000Z</time></trkpt>
        <trkpt lat="29.571968" lon="103.400616"><ele>794.81995</ele><time>2026-07-20T23:31:41.000Z</time></trkpt>
        <trkpt lat="29.571963" lon="103.400597"><ele>794.13654</ele><time>2026-07-20T23:31:45.000Z</time></trkpt>
        <trkpt lat="29.571957" lon="103.400579"><ele>794.70703</ele><time>2026-07-20T23:31:49.000Z</time></trkpt>
        <trkpt lat="29.571955" lon="103.40057"><ele>794.9089</ele><time>2026-07-20T23:31:51.000Z</time></trkpt>
        <trkpt lat="29.571952" lon="103.400544"><ele>795.90515</ele><time>2026-07-20T23:31:55.000Z</time></trkpt>
        <trkpt lat="29.571951" lon="103.400533"><ele>797.15796</ele><time>2026-07-20T23:32:03.000Z</time></trkpt>
        <trkpt lat="29.57195" lon="103.400523"><ele>798.8864</ele><time>2026-07-20T23:32:05.000Z</time></trkpt>
        <trkpt lat="29.571951" lon="103.400506"><ele>799.52167</ele><time>2026-07-20T23:32:09.000Z</time></trkpt>
        <trkpt lat="29.571951" lon="103.400497"><ele>801.60913</ele><time>2026-07-20T23:32:11.000Z</time></trkpt>
        <trkpt lat="29.571952" lon="103.400488"><ele>802.48</ele><time>2026-07-20T23:32:13.000Z</time></trkpt>
        <trkpt lat="29.571951" lon="103.400469"><ele>803.5675</ele><time>2026-07-20T23:32:17.000Z</time></trkpt>
        <trkpt lat="29.571956" lon="103.400461"><ele>803.23395</ele><time>2026-07-20T23:32:21.000Z</time></trkpt>
        <trkpt lat="29.57196" lon="103.400453"><ele>805.5511</ele><time>2026-07-20T23:32:25.000Z</time></trkpt>
        <trkpt lat="29.571959" lon="103.400439"><ele>804.8127</ele><time>2026-07-20T23:32:29.000Z</time></trkpt>
        <trkpt lat="29.571956" lon="103.400416"><ele>803.83514</ele><time>2026-07-20T23:32:31.000Z</time></trkpt>
        <trkpt lat="29.571955" lon="103.400414"><ele>802.4168</ele><time>2026-07-20T23:32:33.000Z</time></trkpt>
        <trkpt lat="29.571951" lon="103.400401"><ele>804.2329</ele><time>2026-07-20T23:32:37.000Z</time></trkpt>
        <trkpt lat="29.571945" lon="103.400386"><ele>804.76654</ele><time>2026-07-20T23:32:39.000Z</time></trkpt>
        <trkpt lat="29.571938" lon="103.400369"><ele>806.0899</ele><time>2026-07-20T23:32:41.000Z</time></trkpt>
        <trkpt lat="29.571935" lon="103.400355"><ele>805.3145</ele><time>2026-07-20T23:32:42.000Z</time></trkpt>
        <trkpt lat="29.571935" lon="103.400347"><ele>806.0208</ele><time>2026-07-20T23:32:44.000Z</time></trkpt>
        <trkpt lat="29.571935" lon="103.400338"><ele>805.6461</ele><time>2026-07-20T23:32:46.000Z</time></trkpt>
        <trkpt lat="29.571932" lon="103.400323"><ele>805.49054</ele><time>2026-07-20T23:32:52.000Z</time></trkpt>
        <trkpt lat="29.571933" lon="103.400317"><ele>804.3508</ele><time>2026-07-20T23:32:56.000Z</time></trkpt>
        <trkpt lat="29.571935" lon="103.400302"><ele>806.745</ele><time>2026-07-20T23:33:07.000Z</time></trkpt>
        <trkpt lat="29.571939" lon="103.400291"><ele>808.08124</ele><time>2026-07-20T23:33:11.000Z</time></trkpt>
        <trkpt lat="29.57194" lon="103.400285"><ele>809.23193</ele><time>2026-07-20T23:33:13.000Z</time></trkpt>
        <trkpt lat="29.571936" lon="103.400267"><ele>806.78204</ele><time>2026-07-20T23:33:33.000Z</time></trkpt>
        <trkpt lat="29.571931" lon="103.400249"><ele>806.80115</ele><time>2026-07-20T23:33:35.000Z</time></trkpt>
        <trkpt lat="29.571931" lon="103.400248"><ele>807.76874</ele><time>2026-07-20T23:33:37.000Z</time></trkpt>
        <trkpt lat="29.571924" lon="103.400233"><ele>807.737</ele><time>2026-07-20T23:33:43.000Z</time></trkpt>
        <trkpt lat="29.571913" lon="103.400206"><ele>807.5457</ele><time>2026-07-20T23:33:45.000Z</time></trkpt>
        <trkpt lat="29.571912" lon="103.400204"><ele>807.9659</ele><time>2026-07-20T23:33:47.000Z</time></trkpt>
        <trkpt lat="29.571912" lon="103.400197"><ele>810.3401</ele><time>2026-07-20T23:33:51.000Z</time></trkpt>
        <trkpt lat="29.571911" lon="103.400158"><ele>809.93005</ele><time>2026-07-20T23:33:55.000Z</time></trkpt>
        <trkpt lat="29.571911" lon="103.400158"><ele>810.3124</ele><time>2026-07-20T23:33:57.000Z</time></trkpt>
        <trkpt lat="29.571911" lon="103.400157"><ele>810.4544</ele><time>2026-07-20T23:33:59.000Z</time></trkpt>
        <trkpt lat="29.571905" lon="103.400116"><ele>812.2298</ele><time>2026-07-20T23:34:05.000Z</time></trkpt>
        <trkpt lat="29.571905" lon="103.400116"><ele>812.316</ele><time>2026-07-20T23:34:07.000Z</time></trkpt>
        <trkpt lat="29.571905" lon="103.400116"><ele>813.17993</ele><time>2026-07-20T23:34:09.000Z</time></trkpt>
        <trkpt lat="29.571908" lon="103.400078"><ele>814.94666</ele><time>2026-07-20T23:34:19.000Z</time></trkpt>
        <trkpt lat="29.571907" lon="103.400076"><ele>814.5385</ele><time>2026-07-20T23:34:21.000Z</time></trkpt>
        <trkpt lat="29.571907" lon="103.400074"><ele>815.7485</ele><time>2026-07-20T23:34:23.000Z</time></trkpt>
        <trkpt lat="29.571912" lon="103.400043"><ele>819.4121</ele><time>2026-07-20T23:34:34.000Z</time></trkpt>
        <trkpt lat="29.571912" lon="103.400043"><ele>819.2326</ele><time>2026-07-20T23:34:36.000Z</time></trkpt>
        <trkpt lat="29.571908" lon="103.400037"><ele>819.1523</ele><time>2026-07-20T23:34:42.000Z</time></trkpt>
        <trkpt lat="29.571893" lon="103.400011"><ele>821.1818</ele><time>2026-07-20T23:34:50.000Z</time></trkpt>
        <trkpt lat="29.571894" lon="103.400006"><ele>821.1846</ele><time>2026-07-20T23:34:52.000Z</time></trkpt>
        <trkpt lat="29.5719" lon="103.399989"><ele>820.6473</ele><time>2026-07-20T23:34:54.000Z</time></trkpt>
        <trkpt lat="29.571906" lon="103.399974"><ele>820.77997</ele><time>2026-07-20T23:34:56.000Z</time></trkpt>
        <trkpt lat="29.571906" lon="103.399973"><ele>822.0674</ele><time>2026-07-20T23:34:58.000Z</time></trkpt>
        <trkpt lat="29.571909" lon="103.399954"><ele>824.0534</ele><time>2026-07-20T23:35:04.000Z</time></trkpt>
        <trkpt lat="29.571915" lon="103.399917"><ele>825.6971</ele><time>2026-07-20T23:35:08.000Z</time></trkpt>
        <trkpt lat="29.571915" lon="103.399917"><ele>825.48083</ele><time>2026-07-20T23:35:10.000Z</time></trkpt>
        <trkpt lat="29.571915" lon="103.399916"><ele>826.1951</ele><time>2026-07-20T23:35:12.000Z</time></trkpt>
        <trkpt lat="29.571928" lon="103.399882"><ele>826.8765</ele><time>2026-07-20T23:35:18.000Z</time></trkpt>
        <trkpt lat="29.57193" lon="103.399868"><ele>827.252</ele><time>2026-07-20T23:35:20.000Z</time></trkpt>
        <trkpt lat="29.57193" lon="103.399853"><ele>827.6778</ele><time>2026-07-20T23:35:22.000Z</time></trkpt>
        <trkpt lat="29.571928" lon="103.399838"><ele>827.3158</ele><time>2026-07-20T23:35:24.000Z</time></trkpt>
        <trkpt lat="29.571925" lon="103.399821"><ele>826.8533</ele><time>2026-07-20T23:35:26.000Z</time></trkpt>
        <trkpt lat="29.571923" lon="103.399802"><ele>825.9266</ele><time>2026-07-20T23:35:28.000Z</time></trkpt>
        <trkpt lat="29.571923" lon="103.399783"><ele>825.56696</ele><time>2026-07-20T23:35:30.000Z</time></trkpt>
        <trkpt lat="29.571923" lon="103.399766"><ele>826.6589</ele><time>2026-07-20T23:35:32.000Z</time></trkpt>
        <trkpt lat="29.571924" lon="103.399756"><ele>827.5925</ele><time>2026-07-20T23:35:34.000Z</time></trkpt>
        <trkpt lat="29.571921" lon="103.399747"><ele>829.26904</ele><time>2026-07-20T23:36:40.000Z</time></trkpt>
        <trkpt lat="29.571916" lon="103.39973"><ele>830.37756</ele><time>2026-07-20T23:36:42.000Z</time></trkpt>
        <trkpt lat="29.571914" lon="103.399721"><ele>831.8399</ele><time>2026-07-20T23:36:48.000Z</time></trkpt>
        <trkpt lat="29.571908" lon="103.399687"><ele>831.05035</ele><time>2026-07-20T23:36:50.000Z</time></trkpt>
        <trkpt lat="29.571907" lon="103.399685"><ele>832.4137</ele><time>2026-07-20T23:36:52.000Z</time></trkpt>
        <trkpt lat="29.571906" lon="103.399683"><ele>832.10065</ele><time>2026-07-20T23:36:54.000Z</time></trkpt>
        <trkpt lat="29.571887" lon="103.399655"><ele>832.45435</ele><time>2026-07-20T23:37:00.000Z</time></trkpt>
        <trkpt lat="29.571887" lon="103.399649"><ele>832.381</ele><time>2026-07-20T23:37:02.000Z</time></trkpt>
        <trkpt lat="29.571889" lon="103.399646"><ele>833.39484</ele><time>2026-07-20T23:37:04.000Z</time></trkpt>
        <trkpt lat="29.571897" lon="103.399618"><ele>834.03784</ele><time>2026-07-20T23:37:18.000Z</time></trkpt>
        <trkpt lat="29.571903" lon="103.399598"><ele>833.6957</ele><time>2026-07-20T23:37:20.000Z</time></trkpt>
        <trkpt lat="29.571903" lon="103.399596"><ele>834.23975</ele><time>2026-07-20T23:37:22.000Z</time></trkpt>
        <trkpt lat="29.571903" lon="103.399574"><ele>834.16376</ele><time>2026-07-20T23:37:28.000Z</time></trkpt>
        <trkpt lat="29.571903" lon="103.399555"><ele>834.09076</ele><time>2026-07-20T23:37:30.000Z</time></trkpt>
        <trkpt lat="29.571902" lon="103.399532"><ele>834.2685</ele><time>2026-07-20T23:37:32.000Z</time></trkpt>
        <trkpt lat="29.571901" lon="103.399508"><ele>833.5341</ele><time>2026-07-20T23:37:34.000Z</time></trkpt>
        <trkpt lat="29.5719" lon="103.399487"><ele>833.8333</ele><time>2026-07-20T23:37:36.000Z</time></trkpt>
        <trkpt lat="29.571896" lon="103.399461"><ele>833.5083</ele><time>2026-07-20T23:37:38.000Z</time></trkpt>
        <trkpt lat="29.571893" lon="103.399441"><ele>833.78625</ele><time>2026-07-20T23:37:40.000Z</time></trkpt>
        <trkpt lat="29.571888" lon="103.399422"><ele>834.4681</ele><time>2026-07-20T23:37:42.000Z</time></trkpt>
        <trkpt lat="29.57188" lon="103.399406"><ele>835.03314</ele><time>2026-07-20T23:37:44.000Z</time></trkpt>
        <trkpt lat="29.57187" lon="103.39939"><ele>835.0528</ele><time>2026-07-20T23:37:46.000Z</time></trkpt>
        <trkpt lat="29.571859" lon="103.399371"><ele>833.92236</ele><time>2026-07-20T23:37:48.000Z</time></trkpt>
        <trkpt lat="29.571853" lon="103.399362"><ele>834.3743</ele><time>2026-07-20T23:37:50.000Z</time></trkpt>
        <trkpt lat="29.571844" lon="103.399348"><ele>834.73047</ele><time>2026-07-20T23:37:52.000Z</time></trkpt>
        <trkpt lat="29.571834" lon="103.399333"><ele>834.48883</ele><time>2026-07-20T23:37:54.000Z</time></trkpt>
        <trkpt lat="29.571825" lon="103.399322"><ele>835.02936</ele><time>2026-07-20T23:37:56.000Z</time></trkpt>
        <trkpt lat="29.571815" lon="103.399312"><ele>834.8911</ele><time>2026-07-20T23:37:58.000Z</time></trkpt>
        <trkpt lat="29.571805" lon="103.399302"><ele>834.4616</ele><time>2026-07-20T23:38:00.000Z</time></trkpt>
        <trkpt lat="29.571796" lon="103.399296"><ele>834.19775</ele><time>2026-07-20T23:38:02.000Z</time></trkpt>
        <trkpt lat="29.571788" lon="103.39929"><ele>835.4554</ele><time>2026-07-20T23:38:04.000Z</time></trkpt>
        <trkpt lat="29.571784" lon="103.39928"><ele>836.1534</ele><time>2026-07-20T23:38:06.000Z</time></trkpt>
        <trkpt lat="29.571786" lon="103.399267"><ele>838.0975</ele><time>2026-07-20T23:38:10.000Z</time></trkpt>
        <trkpt lat="29.571789" lon="103.399255"><ele>839.3836</ele><time>2026-07-20T23:38:14.000Z</time></trkpt>
        <trkpt lat="29.571792" lon="103.399243"><ele>840.1936</ele><time>2026-07-20T23:38:18.000Z</time></trkpt>
        <trkpt lat="29.571789" lon="103.399226"><ele>840.5006</ele><time>2026-07-20T23:38:20.000Z</time></trkpt>
        <trkpt lat="29.571784" lon="103.399217"><ele>841.16235</ele><time>2026-07-20T23:38:26.000Z</time></trkpt>
        <trkpt lat="29.571775" lon="103.399205"><ele>841.8599</ele><time>2026-07-20T23:38:28.000Z</time></trkpt>
        <trkpt lat="29.571764" lon="103.399187"><ele>841.9583</ele><time>2026-07-20T23:38:30.000Z</time></trkpt>
        <trkpt lat="29.571752" lon="103.399168"><ele>842.21136</ele><time>2026-07-20T23:38:32.000Z</time></trkpt>
        <trkpt lat="29.571748" lon="103.399155"><ele>842.64874</ele><time>2026-07-20T23:38:34.000Z</time></trkpt>
        <trkpt lat="29.571746" lon="103.399138"><ele>843.0791</ele><time>2026-07-20T23:38:36.000Z</time></trkpt>
        <trkpt lat="29.571743" lon="103.399121"><ele>844.34985</ele><time>2026-07-20T23:38:38.000Z</time></trkpt>
        <trkpt lat="29.57174" lon="103.399106"><ele>845.21124</ele><time>2026-07-20T23:38:40.000Z</time></trkpt>
        <trkpt lat="29.571738" lon="103.399093"><ele>844.9275</ele><time>2026-07-20T23:38:42.000Z</time></trkpt>
        <trkpt lat="29.571735" lon="103.39908"><ele>845.1745</ele><time>2026-07-20T23:38:44.000Z</time></trkpt>
        <trkpt lat="29.571732" lon="103.399064"><ele>845.6439</ele><time>2026-07-20T23:38:46.000Z</time></trkpt>
        <trkpt lat="29.571729" lon="103.399051"><ele>846.0299</ele><time>2026-07-20T23:38:48.000Z</time></trkpt>
        <trkpt lat="29.571727" lon="103.399039"><ele>846.76154</ele><time>2026-07-20T23:38:50.000Z</time></trkpt>
        <trkpt lat="29.571722" lon="103.399027"><ele>847.7214</ele><time>2026-07-20T23:38:52.000Z</time></trkpt>
        <trkpt lat="29.571716" lon="103.399016"><ele>847.6853</ele><time>2026-07-20T23:38:54.000Z</time></trkpt>
        <trkpt lat="29.57171" lon="103.399003"><ele>849.467</ele><time>2026-07-20T23:38:56.000Z</time></trkpt>
        <trkpt lat="29.571701" lon="103.398986"><ele>848.7693</ele><time>2026-07-20T23:38:58.000Z</time></trkpt>
        <trkpt lat="29.571694" lon="103.398967"><ele>848.85034</ele><time>2026-07-20T23:39:00.000Z</time></trkpt>
        <trkpt lat="29.571691" lon="103.398951"><ele>847.67255</ele><time>2026-07-20T23:39:02.000Z</time></trkpt>
        <trkpt lat="29.571689" lon="103.398941"><ele>847.64453</ele><time>2026-07-20T23:39:04.000Z</time></trkpt>
        <trkpt lat="29.571686" lon="103.398935"><ele>847.9551</ele><time>2026-07-20T23:39:06.000Z</time></trkpt>
        <trkpt lat="29.571715" lon="103.398985"><ele>847.6138</ele><time>2026-07-20T23:39:45.000Z</time></trkpt>
        <trkpt lat="29.571715" lon="103.398989"><ele>847.6138</ele><time>2026-07-20T23:40:00.000Z</time></trkpt>
        <trkpt lat="29.571714" lon="103.398987"><ele>847.6138</ele><time>2026-07-20T23:40:15.000Z</time></trkpt>
        <trkpt lat="29.571699" lon="103.398952"><ele>847.3107</ele><time>2026-07-20T23:40:40.000Z</time></trkpt>
        <trkpt lat="29.571699" lon="103.398951"><ele>847.5171</ele><time>2026-07-20T23:40:42.000Z</time></trkpt>
        <trkpt lat="29.571699" lon="103.398948"><ele>847.86725</ele><time>2026-07-20T23:40:44.000Z</time></trkpt>
        <trkpt lat="29.571681" lon="103.398888"><ele>845.771</ele><time>2026-07-20T23:41:06.000Z</time></trkpt>
        <trkpt lat="29.571678" lon="103.398873"><ele>845.7801</ele><time>2026-07-20T23:41:08.000Z</time></trkpt>
        <trkpt lat="29.571673" lon="103.398849"><ele>846.2061</ele><time>2026-07-20T23:41:10.000Z</time></trkpt>
        <trkpt lat="29.571673" lon="103.398847"><ele>847.42224</ele><time>2026-07-20T23:41:12.000Z</time></trkpt>
        <trkpt lat="29.571671" lon="103.39883"><ele>846.6726</ele><time>2026-07-20T23:41:16.000Z</time></trkpt>
        <trkpt lat="29.571668" lon="103.398805"><ele>846.57074</ele><time>2026-07-20T23:41:18.000Z</time></trkpt>
        <trkpt lat="29.571667" lon="103.398772"><ele>846.5025</ele><time>2026-07-20T23:41:20.000Z</time></trkpt>
        <trkpt lat="29.571664" lon="103.398739"><ele>846.3705</ele><time>2026-07-20T23:41:22.000Z</time></trkpt>
        <trkpt lat="29.571662" lon="103.39871"><ele>845.9827</ele><time>2026-07-20T23:41:24.000Z</time></trkpt>
        <trkpt lat="29.571659" lon="103.398681"><ele>846.4856</ele><time>2026-07-20T23:41:26.000Z</time></trkpt>
        <trkpt lat="29.571655" lon="103.398656"><ele>847.1248</ele><time>2026-07-20T23:41:28.000Z</time></trkpt>
        <trkpt lat="29.571651" lon="103.398636"><ele>846.5143</ele><time>2026-07-20T23:41:30.000Z</time></trkpt>
        <trkpt lat="29.571646" lon="103.39862"><ele>845.1392</ele><time>2026-07-20T23:41:32.000Z</time></trkpt>
        <trkpt lat="29.571638" lon="103.398607"><ele>844.5975</ele><time>2026-07-20T23:41:34.000Z</time></trkpt>
        <trkpt lat="29.57163" lon="103.398594"><ele>845.60364</ele><time>2026-07-20T23:41:36.000Z</time></trkpt>
        <trkpt lat="29.571622" lon="103.398581"><ele>844.67206</ele><time>2026-07-20T23:41:38.000Z</time></trkpt>
        <trkpt lat="29.571615" lon="103.398565"><ele>843.85046</ele><time>2026-07-20T23:41:40.000Z</time></trkpt>
        <trkpt lat="29.57161" lon="103.398548"><ele>844.28894</ele><time>2026-07-20T23:41:42.000Z</time></trkpt>
        <trkpt lat="29.571608" lon="103.398528"><ele>845.04584</ele><time>2026-07-20T23:41:44.000Z</time></trkpt>
        <trkpt lat="29.571609" lon="103.398511"><ele>844.94867</ele><time>2026-07-20T23:41:46.000Z</time></trkpt>
        <trkpt lat="29.571611" lon="103.398496"><ele>845.1906</ele><time>2026-07-20T23:41:48.000Z</time></trkpt>
        <trkpt lat="29.571614" lon="103.398484"><ele>844.7025</ele><time>2026-07-20T23:41:50.000Z</time></trkpt>
        <trkpt lat="29.571616" lon="103.398472"><ele>844.3267</ele><time>2026-07-20T23:41:52.000Z</time></trkpt>
        <trkpt lat="29.571619" lon="103.398462"><ele>844.64545</ele><time>2026-07-20T23:41:54.000Z</time></trkpt>
        <trkpt lat="29.571625" lon="103.398443"><ele>845.01917</ele><time>2026-07-20T23:41:58.000Z</time></trkpt>
        <trkpt lat="29.571629" lon="103.398436"><ele>845.65</ele><time>2026-07-20T23:42:00.000Z</time></trkpt>
        <trkpt lat="29.571633" lon="103.398426"><ele>844.594</ele><time>2026-07-20T23:42:02.000Z</time></trkpt>
        <trkpt lat="29.571639" lon="103.398411"><ele>843.72675</ele><time>2026-07-20T23:42:04.000Z</time></trkpt>
        <trkpt lat="29.571643" lon="103.398393"><ele>844.0528</ele><time>2026-07-20T23:42:06.000Z</time></trkpt>
        <trkpt lat="29.571646" lon="103.398373"><ele>845.0442</ele><time>2026-07-20T23:42:08.000Z</time></trkpt>
        <trkpt lat="29.571648" lon="103.398357"><ele>845.00836</ele><time>2026-07-20T23:42:10.000Z</time></trkpt>
        <trkpt lat="29.571647" lon="103.39834"><ele>842.4683</ele><time>2026-07-20T23:42:12.000Z</time></trkpt>
        <trkpt lat="29.571645" lon="103.398321"><ele>841.68225</ele><time>2026-07-20T23:42:14.000Z</time></trkpt>
        <trkpt lat="29.571641" lon="103.398305"><ele>841.97266</ele><time>2026-07-20T23:42:16.000Z</time></trkpt>
        <trkpt lat="29.571636" lon="103.398297"><ele>842.1373</ele><time>2026-07-20T23:42:18.000Z</time></trkpt>
        <trkpt lat="29.571632" lon="103.398287"><ele>843.20966</ele><time>2026-07-20T23:42:24.000Z</time></trkpt>
        <trkpt lat="29.57163" lon="103.398265"><ele>844.11926</ele><time>2026-07-20T23:42:46.000Z</time></trkpt>
        <trkpt lat="29.571629" lon="103.398242"><ele>843.3761</ele><time>2026-07-20T23:42:48.000Z</time></trkpt>
        <trkpt lat="29.571629" lon="103.39824"><ele>843.6152</ele><time>2026-07-20T23:42:50.000Z</time></trkpt>
        <trkpt lat="29.571628" lon="103.398226"><ele>843.4342</ele><time>2026-07-20T23:42:56.000Z</time></trkpt>
        <trkpt lat="29.571627" lon="103.398194"><ele>841.0034</ele><time>2026-07-20T23:43:00.000Z</time></trkpt>
        <trkpt lat="29.571627" lon="103.398194"><ele>840.53064</ele><time>2026-07-20T23:43:02.000Z</time></trkpt>
        <trkpt lat="29.571628" lon="103.398186"><ele>841.1574</ele><time>2026-07-20T23:43:06.000Z</time></trkpt>
        <trkpt lat="29.571636" lon="103.398152"><ele>839.5708</ele><time>2026-07-20T23:43:10.000Z</time></trkpt>
        <trkpt lat="29.571639" lon="103.398136"><ele>838.8203</ele><time>2026-07-20T23:43:12.000Z</time></trkpt>
        <trkpt lat="29.571641" lon="103.398119"><ele>838.2449</ele><time>2026-07-20T23:43:14.000Z</time></trkpt>
        <trkpt lat="29.571643" lon="103.398102"><ele>837.2132</ele><time>2026-07-20T23:43:16.000Z</time></trkpt>
        <trkpt lat="29.571643" lon="103.398084"><ele>836.38983</ele><time>2026-07-20T23:43:18.000Z</time></trkpt>
        <trkpt lat="29.571642" lon="103.39807"><ele>835.5163</ele><time>2026-07-20T23:43:20.000Z</time></trkpt>
        <trkpt lat="29.571637" lon="103.39806"><ele>834.9206</ele><time>2026-07-20T23:43:22.000Z</time></trkpt>
        <trkpt lat="29.57163" lon="103.398045"><ele>833.3648</ele><time>2026-07-20T23:43:24.000Z</time></trkpt>
        <trkpt lat="29.57162" lon="103.398031"><ele>833.3797</ele><time>2026-07-20T23:43:26.000Z</time></trkpt>
        <trkpt lat="29.571611" lon="103.398019"><ele>833.5253</ele><time>2026-07-20T23:43:28.000Z</time></trkpt>
        <trkpt lat="29.571602" lon="103.398007"><ele>833.7214</ele><time>2026-07-20T23:43:30.000Z</time></trkpt>
        <trkpt lat="29.571596" lon="103.397997"><ele>833.421</ele><time>2026-07-20T23:43:32.000Z</time></trkpt>
        <trkpt lat="29.57159" lon="103.397986"><ele>832.5693</ele><time>2026-07-20T23:43:34.000Z</time></trkpt>
        <trkpt lat="29.571584" lon="103.397972"><ele>832.23517</ele><time>2026-07-20T23:43:36.000Z</time></trkpt>
        <trkpt lat="29.57158" lon="103.397958"><ele>831.5827</ele><time>2026-07-20T23:43:38.000Z</time></trkpt>
        <trkpt lat="29.571576" lon="103.397944"><ele>831.0837</ele><time>2026-07-20T23:43:40.000Z</time></trkpt>
        <trkpt lat="29.571574" lon="103.397928"><ele>829.8013</ele><time>2026-07-20T23:43:42.000Z</time></trkpt>
        <trkpt lat="29.571573" lon="103.397911"><ele>829.26605</ele><time>2026-07-20T23:43:44.000Z</time></trkpt>
        <trkpt lat="29.571573" lon="103.397894"><ele>828.0752</ele><time>2026-07-20T23:43:46.000Z</time></trkpt>
        <trkpt lat="29.571572" lon="103.397881"><ele>828.0227</ele><time>2026-07-20T23:43:48.000Z</time></trkpt>
        <trkpt lat="29.57157" lon="103.397871"><ele>827.61804</ele><time>2026-07-20T23:43:50.000Z</time></trkpt>
        <trkpt lat="29.571566" lon="103.397861"><ele>826.9879</ele><time>2026-07-20T23:43:52.000Z</time></trkpt>
        <trkpt lat="29.571562" lon="103.39785"><ele>826.36804</ele><time>2026-07-20T23:43:54.000Z</time></trkpt>
        <trkpt lat="29.571559" lon="103.39784"><ele>825.952</ele><time>2026-07-20T23:43:56.000Z</time></trkpt>
        <trkpt lat="29.571551" lon="103.397819"><ele>826.2006</ele><time>2026-07-20T23:44:00.000Z</time></trkpt>
        <trkpt lat="29.571548" lon="103.397813"><ele>826.5198</ele><time>2026-07-20T23:44:02.000Z</time></trkpt>
        <trkpt lat="29.571545" lon="103.397807"><ele>826.7472</ele><time>2026-07-20T23:44:04.000Z</time></trkpt>
        <trkpt lat="29.571545" lon="103.397788"><ele>825.35535</ele><time>2026-07-20T23:44:12.000Z</time></trkpt>
        <trkpt lat="29.571544" lon="103.397739"><ele>823.7797</ele><time>2026-07-20T23:44:27.000Z</time></trkpt>
        <trkpt lat="29.571541" lon="103.397731"><ele>822.75775</ele><time>2026-07-20T23:44:29.000Z</time></trkpt>
        <trkpt lat="29.571533" lon="103.397711"><ele>822.04767</ele><time>2026-07-20T23:44:31.000Z</time></trkpt>
        <trkpt lat="29.571531" lon="103.397707"><ele>820.9897</ele><time>2026-07-20T23:44:35.000Z</time></trkpt>
        <trkpt lat="29.571527" lon="103.397701"><ele>819.717</ele><time>2026-07-20T23:44:37.000Z</time></trkpt>
        <trkpt lat="29.571508" lon="103.397665"><ele>819.72174</ele><time>2026-07-20T23:44:41.000Z</time></trkpt>
        <trkpt lat="29.571499" lon="103.397643"><ele>819.3051</ele><time>2026-07-20T23:44:43.000Z</time></trkpt>
        <trkpt lat="29.571493" lon="103.397621"><ele>818.83746</ele><time>2026-07-20T23:44:45.000Z</time></trkpt>
        <trkpt lat="29.571491" lon="103.397603"><ele>818.22974</ele><time>2026-07-20T23:44:47.000Z</time></trkpt>
        <trkpt lat="29.57149" lon="103.397583"><ele>817.5559</ele><time>2026-07-20T23:44:49.000Z</time></trkpt>
        <trkpt lat="29.571487" lon="103.39756"><ele>816.96576</ele><time>2026-07-20T23:44:51.000Z</time></trkpt>
        <trkpt lat="29.571485" lon="103.397535"><ele>816.07043</ele><time>2026-07-20T23:44:53.000Z</time></trkpt>
        <trkpt lat="29.571487" lon="103.397511"><ele>815.3794</ele><time>2026-07-20T23:44:55.000Z</time></trkpt>
        <trkpt lat="29.571491" lon="103.39749"><ele>814.66876</ele><time>2026-07-20T23:44:57.000Z</time></trkpt>
        <trkpt lat="29.571495" lon="103.397471"><ele>814.8283</ele><time>2026-07-20T23:44:59.000Z</time></trkpt>
        <trkpt lat="29.571499" lon="103.397454"><ele>814.5824</ele><time>2026-07-20T23:45:01.000Z</time></trkpt>
        <trkpt lat="29.571504" lon="103.397439"><ele>814.4294</ele><time>2026-07-20T23:45:03.000Z</time></trkpt>
        <trkpt lat="29.571508" lon="103.397423"><ele>814.5667</ele><time>2026-07-20T23:45:05.000Z</time></trkpt>
        <trkpt lat="29.571513" lon="103.397406"><ele>814.00745</ele><time>2026-07-20T23:45:07.000Z</time></trkpt>
        <trkpt lat="29.571518" lon="103.397389"><ele>814.1065</ele><time>2026-07-20T23:45:09.000Z</time></trkpt>
        <trkpt lat="29.571524" lon="103.397374"><ele>814.4659</ele><time>2026-07-20T23:45:11.000Z</time></trkpt>
        <trkpt lat="29.57153" lon="103.39736"><ele>813.6591</ele><time>2026-07-20T23:45:13.000Z</time></trkpt>
        <trkpt lat="29.571535" lon="103.397347"><ele>814.47186</ele><time>2026-07-20T23:45:15.000Z</time></trkpt>
        <trkpt lat="29.571541" lon="103.397333"><ele>813.72876</ele><time>2026-07-20T23:45:17.000Z</time></trkpt>
        <trkpt lat="29.571546" lon="103.397319"><ele>813.433</ele><time>2026-07-20T23:45:19.000Z</time></trkpt>
        <trkpt lat="29.571551" lon="103.397303"><ele>812.70746</ele><time>2026-07-20T23:45:21.000Z</time></trkpt>
        <trkpt lat="29.571557" lon="103.397286"><ele>811.7101</ele><time>2026-07-20T23:45:23.000Z</time></trkpt>
        <trkpt lat="29.571563" lon="103.397273"><ele>811.5851</ele><time>2026-07-20T23:45:25.000Z</time></trkpt>
        <trkpt lat="29.57157" lon="103.397262"><ele>811.1992</ele><time>2026-07-20T23:45:27.000Z</time></trkpt>
        <trkpt lat="29.571578" lon="103.397251"><ele>810.9317</ele><time>2026-07-20T23:45:29.000Z</time></trkpt>
        <trkpt lat="29.571587" lon="103.397238"><ele>810.3454</ele><time>2026-07-20T23:45:31.000Z</time></trkpt>
        <trkpt lat="29.571595" lon="103.397223"><ele>809.6393</ele><time>2026-07-20T23:45:33.000Z</time></trkpt>
        <trkpt lat="29.571603" lon="103.397208"><ele>809.44336</ele><time>2026-07-20T23:45:35.000Z</time></trkpt>
        <trkpt lat="29.571612" lon="103.397193"><ele>808.301</ele><time>2026-07-20T23:45:37.000Z</time></trkpt>
        <trkpt lat="29.571621" lon="103.39718"><ele>807.3872</ele><time>2026-07-20T23:45:39.000Z</time></trkpt>
        <trkpt lat="29.571631" lon="103.397168"><ele>807.8669</ele><time>2026-07-20T23:45:41.000Z</time></trkpt>
        <trkpt lat="29.571641" lon="103.397156"><ele>808.4094</ele><time>2026-07-20T23:45:43.000Z</time></trkpt>
        <trkpt lat="29.571652" lon="103.397145"><ele>808.55963</ele><time>2026-07-20T23:45:45.000Z</time></trkpt>
        <trkpt lat="29.57166" lon="103.397136"><ele>808.1757</ele><time>2026-07-20T23:45:47.000Z</time></trkpt>
        <trkpt lat="29.571668" lon="103.397126"><ele>808.08905</ele><time>2026-07-20T23:45:49.000Z</time></trkpt>
        <trkpt lat="29.571676" lon="103.397114"><ele>807.5425</ele><time>2026-07-20T23:45:51.000Z</time></trkpt>
        <trkpt lat="29.571684" lon="103.397099"><ele>807.0962</ele><time>2026-07-20T23:45:53.000Z</time></trkpt>
        <trkpt lat="29.57169" lon="103.397084"><ele>806.23193</ele><time>2026-07-20T23:45:55.000Z</time></trkpt>
        <trkpt lat="29.571697" lon="103.397069"><ele>804.9024</ele><time>2026-07-20T23:45:57.000Z</time></trkpt>
        <trkpt lat="29.571706" lon="103.397056"><ele>803.76306</ele><time>2026-07-20T23:45:59.000Z</time></trkpt>
        <trkpt lat="29.571716" lon="103.397042"><ele>803.2933</ele><time>2026-07-20T23:46:01.000Z</time></trkpt>
        <trkpt lat="29.571727" lon="103.39703"><ele>802.74194</ele><time>2026-07-20T23:46:03.000Z</time></trkpt>
        <trkpt lat="29.571734" lon="103.397018"><ele>801.7967</ele><time>2026-07-20T23:46:05.000Z</time></trkpt>
        <trkpt lat="29.571738" lon="103.397007"><ele>800.2749</ele><time>2026-07-20T23:46:07.000Z</time></trkpt>
        <trkpt lat="29.57174" lon="103.396996"><ele>799.48016</ele><time>2026-07-20T23:46:09.000Z</time></trkpt>
        <trkpt lat="29.571743" lon="103.396983"><ele>799.6992</ele><time>2026-07-20T23:46:11.000Z</time></trkpt>
        <trkpt lat="29.571746" lon="103.396975"><ele>800.4774</ele><time>2026-07-20T23:46:13.000Z</time></trkpt>
        <trkpt lat="29.571756" lon="103.396954"><ele>799.6299</ele><time>2026-07-20T23:46:17.000Z</time></trkpt>
        <trkpt lat="29.571764" lon="103.396942"><ele>798.7267</ele><time>2026-07-20T23:46:19.000Z</time></trkpt>
        <trkpt lat="29.571771" lon="103.396933"><ele>798.2089</ele><time>2026-07-20T23:46:21.000Z</time></trkpt>
        <trkpt lat="29.571778" lon="103.396924"><ele>797.39905</ele><time>2026-07-20T23:46:23.000Z</time></trkpt>
        <trkpt lat="29.571786" lon="103.396914"><ele>797.0665</ele><time>2026-07-20T23:46:25.000Z</time></trkpt>
        <trkpt lat="29.571793" lon="103.396902"><ele>797.59766</ele><time>2026-07-20T23:46:27.000Z</time></trkpt>
        <trkpt lat="29.571801" lon="103.396894"><ele>797.715</ele><time>2026-07-20T23:46:29.000Z</time></trkpt>
        <trkpt lat="29.57181" lon="103.396885"><ele>797.7129</ele><time>2026-07-20T23:46:31.000Z</time></trkpt>
        <trkpt lat="29.571821" lon="103.396873"><ele>798.00836</ele><time>2026-07-20T23:46:33.000Z</time></trkpt>
        <trkpt lat="29.571831" lon="103.396865"><ele>796.4613</ele><time>2026-07-20T23:46:35.000Z</time></trkpt>
        <trkpt lat="29.57184" lon="103.396858"><ele>797.56824</ele><time>2026-07-20T23:46:37.000Z</time></trkpt>
        <trkpt lat="29.571852" lon="103.396852"><ele>797.43176</ele><time>2026-07-20T23:46:39.000Z</time></trkpt>
        <trkpt lat="29.571863" lon="103.396846"><ele>797.9936</ele><time>2026-07-20T23:46:41.000Z</time></trkpt>
        <trkpt lat="29.571873" lon="103.396841"><ele>798.03754</ele><time>2026-07-20T23:46:43.000Z</time></trkpt>
        <trkpt lat="29.571883" lon="103.396838"><ele>797.451</ele><time>2026-07-20T23:46:45.000Z</time></trkpt>
        <trkpt lat="29.571894" lon="103.396834"><ele>795.4716</ele><time>2026-07-20T23:46:47.000Z</time></trkpt>
        <trkpt lat="29.571911" lon="103.396829"><ele>795.4674</ele><time>2026-07-20T23:46:49.000Z</time></trkpt>
        <trkpt lat="29.57193" lon="103.396824"><ele>794.5222</ele><time>2026-07-20T23:46:51.000Z</time></trkpt>
        <trkpt lat="29.571945" lon="103.396821"><ele>794.3717</ele><time>2026-07-20T23:46:53.000Z</time></trkpt>
        <trkpt lat="29.571958" lon="103.396818"><ele>792.80774</ele><time>2026-07-20T23:46:55.000Z</time></trkpt>
        <trkpt lat="29.571969" lon="103.396816"><ele>791.67017</ele><time>2026-07-20T23:46:57.000Z</time></trkpt>
        <trkpt lat="29.571982" lon="103.396813"><ele>791.85956</ele><time>2026-07-20T23:46:59.000Z</time></trkpt>
        <trkpt lat="29.571991" lon="103.396812"><ele>791.28284</ele><time>2026-07-20T23:47:01.000Z</time></trkpt>
        <trkpt lat="29.572006" lon="103.396812"><ele>791.8815</ele><time>2026-07-20T23:47:05.000Z</time></trkpt>
        <trkpt lat="29.572013" lon="103.396812"><ele>790.74963</ele><time>2026-07-20T23:47:07.000Z</time></trkpt>
        <trkpt lat="29.572028" lon="103.396811"><ele>789.9026</ele><time>2026-07-20T23:47:09.000Z</time></trkpt>
        <trkpt lat="29.57204" lon="103.396808"><ele>789.097</ele><time>2026-07-20T23:47:11.000Z</time></trkpt>
        <trkpt lat="29.57205" lon="103.396804"><ele>789.07025</ele><time>2026-07-20T23:47:13.000Z</time></trkpt>
        <trkpt lat="29.572057" lon="103.396799"><ele>788.6696</ele><time>2026-07-20T23:47:15.000Z</time></trkpt>
        <trkpt lat="29.57207" lon="103.396784"><ele>787.04456</ele><time>2026-07-20T23:47:19.000Z</time></trkpt>
        <trkpt lat="29.572074" lon="103.396778"><ele>785.7152</ele><time>2026-07-20T23:47:21.000Z</time></trkpt>
        <trkpt lat="29.572078" lon="103.396776"><ele>786.396</ele><time>2026-07-20T23:47:23.000Z</time></trkpt>
        <trkpt lat="29.572098" lon="103.396774"><ele>785.60004</ele><time>2026-07-20T23:47:29.000Z</time></trkpt>
        <trkpt lat="29.572119" lon="103.396771"><ele>785.45215</ele><time>2026-07-20T23:47:31.000Z</time></trkpt>
        <trkpt lat="29.572121" lon="103.396771"><ele>784.5705</ele><time>2026-07-20T23:47:33.000Z</time></trkpt>
        <trkpt lat="29.57213" lon="103.396772"><ele>784.494</ele><time>2026-07-20T23:47:37.000Z</time></trkpt>
        <trkpt lat="29.572167" lon="103.396773"><ele>785.39264</ele><time>2026-07-20T23:47:41.000Z</time></trkpt>
        <trkpt lat="29.572185" lon="103.396773"><ele>785.426</ele><time>2026-07-20T23:47:43.000Z</time></trkpt>
        <trkpt lat="29.572202" lon="103.396771"><ele>785.6666</ele><time>2026-07-20T23:47:45.000Z</time></trkpt>
        <trkpt lat="29.572216" lon="103.39677"><ele>785.60284</ele><time>2026-07-20T23:47:47.000Z</time></trkpt>
        <trkpt lat="29.572227" lon="103.396769"><ele>784.7108</ele><time>2026-07-20T23:47:49.000Z</time></trkpt>
        <trkpt lat="29.57224" lon="103.396768"><ele>783.4479</ele><time>2026-07-20T23:47:51.000Z</time></trkpt>
        <trkpt lat="29.572247" lon="103.396767"><ele>783.65295</ele><time>2026-07-20T23:47:53.000Z</time></trkpt>
        <trkpt lat="29.572257" lon="103.396764"><ele>782.9497</ele><time>2026-07-20T23:47:55.000Z</time></trkpt>
        <trkpt lat="29.572277" lon="103.396757"><ele>782.569</ele><time>2026-07-20T23:47:59.000Z</time></trkpt>
        <trkpt lat="29.57229" lon="103.396753"><ele>783.13617</ele><time>2026-07-20T23:48:01.000Z</time></trkpt>
        <trkpt lat="29.572305" lon="103.396746"><ele>783.21313</ele><time>2026-07-20T23:48:03.000Z</time></trkpt>
        <trkpt lat="29.572317" lon="103.396739"><ele>783.3237</ele><time>2026-07-20T23:48:05.000Z</time></trkpt>
        <trkpt lat="29.572328" lon="103.39673"><ele>783.18823</ele><time>2026-07-20T23:48:07.000Z</time></trkpt>
        <trkpt lat="29.572335" lon="103.396719"><ele>782.4087</ele><time>2026-07-20T23:48:09.000Z</time></trkpt>
        <trkpt lat="29.572341" lon="103.396706"><ele>781.26</ele><time>2026-07-20T23:48:11.000Z</time></trkpt>
        <trkpt lat="29.572347" lon="103.396689"><ele>779.7282</ele><time>2026-07-20T23:48:13.000Z</time></trkpt>
        <trkpt lat="29.572352" lon="103.396674"><ele>779.71735</ele><time>2026-07-20T23:48:15.000Z</time></trkpt>
        <trkpt lat="29.572358" lon="103.396657"><ele>779.5244</ele><time>2026-07-20T23:48:17.000Z</time></trkpt>
        <trkpt lat="29.572364" lon="103.396642"><ele>778.2016</ele><time>2026-07-20T23:48:19.000Z</time></trkpt>
        <trkpt lat="29.572372" lon="103.396626"><ele>777.49243</ele><time>2026-07-20T23:48:21.000Z</time></trkpt>
        <trkpt lat="29.572381" lon="103.396608"><ele>776.19476</ele><time>2026-07-20T23:48:23.000Z</time></trkpt>
        <trkpt lat="29.572391" lon="103.396589"><ele>776.7699</ele><time>2026-07-20T23:48:25.000Z</time></trkpt>
        <trkpt lat="29.572399" lon="103.396573"><ele>776.5528</ele><time>2026-07-20T23:48:27.000Z</time></trkpt>
        <trkpt lat="29.572404" lon="103.396556"><ele>775.70807</ele><time>2026-07-20T23:48:29.000Z</time></trkpt>
        <trkpt lat="29.572409" lon="103.396538"><ele>776.581</ele><time>2026-07-20T23:48:31.000Z</time></trkpt>
        <trkpt lat="29.572409" lon="103.396525"><ele>775.68054</ele><time>2026-07-20T23:48:33.000Z</time></trkpt>
        <trkpt lat="29.572406" lon="103.396512"><ele>775.3092</ele><time>2026-07-20T23:48:35.000Z</time></trkpt>
        <trkpt lat="29.572401" lon="103.396496"><ele>776.04236</ele><time>2026-07-20T23:48:37.000Z</time></trkpt>
        <trkpt lat="29.572395" lon="103.396475"><ele>775.13995</ele><time>2026-07-20T23:48:39.000Z</time></trkpt>
        <trkpt lat="29.572391" lon="103.39645"><ele>775.1296</ele><time>2026-07-20T23:48:41.000Z</time></trkpt>
        <trkpt lat="29.572389" lon="103.396425"><ele>775.58276</ele><time>2026-07-20T23:48:43.000Z</time></trkpt>
        <trkpt lat="29.572388" lon="103.396401"><ele>775.4632</ele><time>2026-07-20T23:48:45.000Z</time></trkpt>
        <trkpt lat="29.572389" lon="103.396382"><ele>775.8532</ele><time>2026-07-20T23:48:47.000Z</time></trkpt>
        <trkpt lat="29.572394" lon="103.396366"><ele>775.9583</ele><time>2026-07-20T23:48:49.000Z</time></trkpt>
        <trkpt lat="29.5724" lon="103.396354"><ele>775.34766</ele><time>2026-07-20T23:48:51.000Z</time></trkpt>
        <trkpt lat="29.572406" lon="103.396345"><ele>775.24585</ele><time>2026-07-20T23:48:53.000Z</time></trkpt>
        <trkpt lat="29.572413" lon="103.396332"><ele>773.84827</ele><time>2026-07-20T23:48:55.000Z</time></trkpt>
        <trkpt lat="29.57242" lon="103.396317"><ele>772.40784</ele><time>2026-07-20T23:48:57.000Z</time></trkpt>
        <trkpt lat="29.572425" lon="103.396301"><ele>772.78815</ele><time>2026-07-20T23:48:59.000Z</time></trkpt>
        <trkpt lat="29.572427" lon="103.396283"><ele>772.32776</ele><time>2026-07-20T23:49:01.000Z</time></trkpt>
        <trkpt lat="29.572427" lon="103.396263"><ele>772.0985</ele><time>2026-07-20T23:49:03.000Z</time></trkpt>
        <trkpt lat="29.572426" lon="103.396247"><ele>771.8227</ele><time>2026-07-20T23:49:05.000Z</time></trkpt>
        <trkpt lat="29.572426" lon="103.396229"><ele>771.18335</ele><time>2026-07-20T23:49:07.000Z</time></trkpt>
        <trkpt lat="29.572427" lon="103.396214"><ele>770.5467</ele><time>2026-07-20T23:49:09.000Z</time></trkpt>
        <trkpt lat="29.572427" lon="103.396197"><ele>770.8928</ele><time>2026-07-20T23:49:11.000Z</time></trkpt>
        <trkpt lat="29.572428" lon="103.396179"><ele>771.6501</ele><time>2026-07-20T23:49:13.000Z</time></trkpt>
        <trkpt lat="29.572429" lon="103.396161"><ele>770.51074</ele><time>2026-07-20T23:49:15.000Z</time></trkpt>
        <trkpt lat="29.572432" lon="103.39614"><ele>770.232</ele><time>2026-07-20T23:49:17.000Z</time></trkpt>
        <trkpt lat="29.572436" lon="103.396119"><ele>768.792</ele><time>2026-07-20T23:49:19.000Z</time></trkpt>
        <trkpt lat="29.572439" lon="103.396102"><ele>769.57556</ele><time>2026-07-20T23:49:21.000Z</time></trkpt>
        <trkpt lat="29.572443" lon="103.396088"><ele>770.1582</ele><time>2026-07-20T23:49:23.000Z</time></trkpt>
        <trkpt lat="29.572447" lon="103.396077"><ele>770.6634</ele><time>2026-07-20T23:49:25.000Z</time></trkpt>
        <trkpt lat="29.572452" lon="103.396067"><ele>770.61566</ele><time>2026-07-20T23:49:27.000Z</time></trkpt>
        <trkpt lat="29.572458" lon="103.39606"><ele>770.09674</ele><time>2026-07-20T23:49:29.000Z</time></trkpt>
        <trkpt lat="29.572471" lon="103.396049"><ele>768.86053</ele><time>2026-07-20T23:49:33.000Z</time></trkpt>
        <trkpt lat="29.572477" lon="103.396046"><ele>767.5995</ele><time>2026-07-20T23:49:35.000Z</time></trkpt>
        <trkpt lat="29.572489" lon="103.396041"><ele>767.6834</ele><time>2026-07-20T23:49:37.000Z</time></trkpt>
        <trkpt lat="29.572503" lon="103.396034"><ele>767.46594</ele><time>2026-07-20T23:49:43.000Z</time></trkpt>
        <trkpt lat="29.572521" lon="103.396026"><ele>767.0033</ele><time>2026-07-20T23:49:45.000Z</time></trkpt>
        <trkpt lat="29.572541" lon="103.396018"><ele>766.7861</ele><time>2026-07-20T23:49:47.000Z</time></trkpt>
        <trkpt lat="29.572552" lon="103.396009"><ele>765.5829</ele><time>2026-07-20T23:49:49.000Z</time></trkpt>
        <trkpt lat="29.572559" lon="103.396001"><ele>764.2656</ele><time>2026-07-20T23:49:51.000Z</time></trkpt>
        <trkpt lat="29.572617" lon="103.395936"><ele>760.77057</ele><time>2026-07-20T23:50:06.000Z</time></trkpt>
        <trkpt lat="29.572626" lon="103.395927"><ele>761.2255</ele><time>2026-07-20T23:50:08.000Z</time></trkpt>
        <trkpt lat="29.572636" lon="103.39592"><ele>760.411</ele><time>2026-07-20T23:50:10.000Z</time></trkpt>
        <trkpt lat="29.572648" lon="103.395911"><ele>760.80597</ele><time>2026-07-20T23:50:12.000Z</time></trkpt>
        <trkpt lat="29.572659" lon="103.395903"><ele>761.43054</ele><time>2026-07-20T23:50:14.000Z</time></trkpt>
        <trkpt lat="29.572671" lon="103.395896"><ele>761.22723</ele><time>2026-07-20T23:50:16.000Z</time></trkpt>
        <trkpt lat="29.572684" lon="103.395888"><ele>762.32697</ele><time>2026-07-20T23:50:18.000Z</time></trkpt>
        <trkpt lat="29.572696" lon="103.395881"><ele>762.6169</ele><time>2026-07-20T23:50:20.000Z</time></trkpt>
        <trkpt lat="29.572705" lon="103.395874"><ele>762.2592</ele><time>2026-07-20T23:50:22.000Z</time></trkpt>
        <trkpt lat="29.57271" lon="103.395867"><ele>762.32294</ele><time>2026-07-20T23:50:24.000Z</time></trkpt>
        <trkpt lat="29.57272" lon="103.395854"><ele>761.65686</ele><time>2026-07-20T23:50:28.000Z</time></trkpt>
        <trkpt lat="29.572726" lon="103.395848"><ele>761.4438</ele><time>2026-07-20T23:50:30.000Z</time></trkpt>
        <trkpt lat="29.572732" lon="103.39584"><ele>761.02344</ele><time>2026-07-20T23:50:32.000Z</time></trkpt>
        <trkpt lat="29.572749" lon="103.395821"><ele>759.6706</ele><time>2026-07-20T23:50:36.000Z</time></trkpt>
        <trkpt lat="29.572757" lon="103.395814"><ele>759.9026</ele><time>2026-07-20T23:50:38.000Z</time></trkpt>
        <trkpt lat="29.572763" lon="103.395809"><ele>759.9033</ele><time>2026-07-20T23:50:40.000Z</time></trkpt>
        <trkpt lat="29.572779" lon="103.395798"><ele>759.7033</ele><time>2026-07-20T23:50:44.000Z</time></trkpt>
        <trkpt lat="29.572789" lon="103.39579"><ele>759.35535</ele><time>2026-07-20T23:50:46.000Z</time></trkpt>
        <trkpt lat="29.572799" lon="103.395779"><ele>758.86835</ele><time>2026-07-20T23:50:48.000Z</time></trkpt>
        <trkpt lat="29.572808" lon="103.395766"><ele>758.70703</ele><time>2026-07-20T23:50:50.000Z</time></trkpt>
        <trkpt lat="29.572817" lon="103.39575"><ele>758.4617</ele><time>2026-07-20T23:50:52.000Z</time></trkpt>
        <trkpt lat="29.572826" lon="103.395734"><ele>759.1259</ele><time>2026-07-20T23:50:54.000Z</time></trkpt>
        <trkpt lat="29.572838" lon="103.395716"><ele>761.08826</ele><time>2026-07-20T23:50:56.000Z</time></trkpt>
        <trkpt lat="29.572849" lon="103.395699"><ele>761.00995</ele><time>2026-07-20T23:50:58.000Z</time></trkpt>
        <trkpt lat="29.572859" lon="103.395683"><ele>759.73914</ele><time>2026-07-20T23:51:00.000Z</time></trkpt>
        <trkpt lat="29.572867" lon="103.395669"><ele>759.9448</ele><time>2026-07-20T23:51:02.000Z</time></trkpt>
        <trkpt lat="29.572876" lon="103.395655"><ele>759.86224</ele><time>2026-07-20T23:51:04.000Z</time></trkpt>
        <trkpt lat="29.572885" lon="103.39564"><ele>759.63696</ele><time>2026-07-20T23:51:06.000Z</time></trkpt>
        <trkpt lat="29.572893" lon="103.395626"><ele>758.9436</ele><time>2026-07-20T23:51:08.000Z</time></trkpt>
        <trkpt lat="29.572901" lon="103.39561"><ele>759.15155</ele><time>2026-07-20T23:51:10.000Z</time></trkpt>
        <trkpt lat="29.572907" lon="103.395592"><ele>758.5086</ele><time>2026-07-20T23:51:12.000Z</time></trkpt>
        <trkpt lat="29.572913" lon="103.395572"><ele>757.47675</ele><time>2026-07-20T23:51:14.000Z</time></trkpt>
        <trkpt lat="29.572918" lon="103.395551"><ele>755.887</ele><time>2026-07-20T23:51:16.000Z</time></trkpt>
        <trkpt lat="29.572923" lon="103.395533"><ele>755.472</ele><time>2026-07-20T23:51:18.000Z</time></trkpt>
        <trkpt lat="29.57293" lon="103.395517"><ele>756.6688</ele><time>2026-07-20T23:51:20.000Z</time></trkpt>
        <trkpt lat="29.572938" lon="103.395503"><ele>756.8467</ele><time>2026-07-20T23:51:22.000Z</time></trkpt>
        <trkpt lat="29.572947" lon="103.395491"><ele>757.61414</ele><time>2026-07-20T23:51:24.000Z</time></trkpt>
        <trkpt lat="29.572955" lon="103.395477"><ele>757.5066</ele><time>2026-07-20T23:51:26.000Z</time></trkpt>
        <trkpt lat="29.572963" lon="103.39546"><ele>756.4689</ele><time>2026-07-20T23:51:28.000Z</time></trkpt>
        <trkpt lat="29.572971" lon="103.395442"><ele>755.8373</ele><time>2026-07-20T23:51:30.000Z</time></trkpt>
        <trkpt lat="29.57298" lon="103.395427"><ele>755.5313</ele><time>2026-07-20T23:51:32.000Z</time></trkpt>
        <trkpt lat="29.572989" lon="103.395412"><ele>756.55347</ele><time>2026-07-20T23:51:34.000Z</time></trkpt>
        <trkpt lat="29.572999" lon="103.395399"><ele>755.68335</ele><time>2026-07-20T23:51:36.000Z</time></trkpt>
        <trkpt lat="29.573008" lon="103.395385"><ele>755.4</ele><time>2026-07-20T23:51:38.000Z</time></trkpt>
        <trkpt lat="29.573019" lon="103.395367"><ele>756.09644</ele><time>2026-07-20T23:51:40.000Z</time></trkpt>
        <trkpt lat="29.573024" lon="103.395351"><ele>756.0211</ele><time>2026-07-20T23:51:42.000Z</time></trkpt>
        <trkpt lat="29.573025" lon="103.395332"><ele>754.6465</ele><time>2026-07-20T23:51:44.000Z</time></trkpt>
        <trkpt lat="29.573025" lon="103.395315"><ele>754.1507</ele><time>2026-07-20T23:51:46.000Z</time></trkpt>
        <trkpt lat="29.573025" lon="103.395298"><ele>753.1569</ele><time>2026-07-20T23:51:48.000Z</time></trkpt>
        <trkpt lat="29.573025" lon="103.395279"><ele>753.0982</ele><time>2026-07-20T23:51:50.000Z</time></trkpt>
        <trkpt lat="29.573024" lon="103.395264"><ele>752.7244</ele><time>2026-07-20T23:51:52.000Z</time></trkpt>
        <trkpt lat="29.57302" lon="103.395251"><ele>752.80273</ele><time>2026-07-20T23:51:54.000Z</time></trkpt>
        <trkpt lat="29.573014" lon="103.395236"><ele>752.50696</ele><time>2026-07-20T23:51:56.000Z</time></trkpt>
        <trkpt lat="29.573006" lon="103.395221"><ele>752.6851</ele><time>2026-07-20T23:51:58.000Z</time></trkpt>
        <trkpt lat="29.572998" lon="103.395207"><ele>752.9535</ele><time>2026-07-20T23:52:00.000Z</time></trkpt>
        <trkpt lat="29.572988" lon="103.395192"><ele>752.3738</ele><time>2026-07-20T23:52:02.000Z</time></trkpt>
        <trkpt lat="29.572981" lon="103.39518"><ele>752.0883</ele><time>2026-07-20T23:52:04.000Z</time></trkpt>
        <trkpt lat="29.572972" lon="103.395166"><ele>752.43805</ele><time>2026-07-20T23:52:06.000Z</time></trkpt>
        <trkpt lat="29.572963" lon="103.395148"><ele>751.993</ele><time>2026-07-20T23:52:08.000Z</time></trkpt>
        <trkpt lat="29.572959" lon="103.395133"><ele>751.19446</ele><time>2026-07-20T23:52:10.000Z</time></trkpt>
        <trkpt lat="29.572957" lon="103.395114"><ele>750.2822</ele><time>2026-07-20T23:52:12.000Z</time></trkpt>
        <trkpt lat="29.572956" lon="103.395092"><ele>750.6776</ele><time>2026-07-20T23:52:14.000Z</time></trkpt>
        <trkpt lat="29.572957" lon="103.395073"><ele>750.79047</ele><time>2026-07-20T23:52:16.000Z</time></trkpt>
        <trkpt lat="29.572958" lon="103.395056"><ele>750.80414</ele><time>2026-07-20T23:52:18.000Z</time></trkpt>
        <trkpt lat="29.57296" lon="103.395039"><ele>750.7756</ele><time>2026-07-20T23:52:20.000Z</time></trkpt>
        <trkpt lat="29.572962" lon="103.395024"><ele>751.2771</ele><time>2026-07-20T23:52:22.000Z</time></trkpt>
        <trkpt lat="29.572963" lon="103.395006"><ele>750.80585</ele><time>2026-07-20T23:52:24.000Z</time></trkpt>
        <trkpt lat="29.572966" lon="103.394988"><ele>750.1582</ele><time>2026-07-20T23:52:26.000Z</time></trkpt>
        <trkpt lat="29.572971" lon="103.394967"><ele>749.2746</ele><time>2026-07-20T23:52:28.000Z</time></trkpt>
        <trkpt lat="29.572975" lon="103.394942"><ele>748.7528</ele><time>2026-07-20T23:52:30.000Z</time></trkpt>
        <trkpt lat="29.572976" lon="103.394919"><ele>747.6864</ele><time>2026-07-20T23:52:32.000Z</time></trkpt>
        <trkpt lat="29.572975" lon="103.394899"><ele>747.23517</ele><time>2026-07-20T23:52:34.000Z</time></trkpt>
        <trkpt lat="29.572972" lon="103.394875"><ele>746.84436</ele><time>2026-07-20T23:52:36.000Z</time></trkpt>
        <trkpt lat="29.572966" lon="103.394854"><ele>746.88</ele><time>2026-07-20T23:52:38.000Z</time></trkpt>
        <trkpt lat="29.572958" lon="103.394838"><ele>746.8902</ele><time>2026-07-20T23:52:40.000Z</time></trkpt>
        <trkpt lat="29.57295" lon="103.394825"><ele>746.47186</ele><time>2026-07-20T23:52:42.000Z</time></trkpt>
        <trkpt lat="29.57294" lon="103.394812"><ele>745.7993</ele><time>2026-07-20T23:52:44.000Z</time></trkpt>
        <trkpt lat="29.572928" lon="103.3948"><ele>745.1721</ele><time>2026-07-20T23:52:46.000Z</time></trkpt>
        <trkpt lat="29.572917" lon="103.394788"><ele>744.83563</ele><time>2026-07-20T23:52:48.000Z</time></trkpt>
        <trkpt lat="29.572908" lon="103.394776"><ele>744.7604</ele><time>2026-07-20T23:52:50.000Z</time></trkpt>
        <trkpt lat="29.572902" lon="103.394767"><ele>744.96265</ele><time>2026-07-20T23:52:52.000Z</time></trkpt>
        <trkpt lat="29.572896" lon="103.394761"><ele>744.58234</ele><time>2026-07-20T23:52:54.000Z</time></trkpt>
        <trkpt lat="29.572878" lon="103.394743"><ele>745.40466</ele><time>2026-07-20T23:52:58.000Z</time></trkpt>
        <trkpt lat="29.572868" lon="103.394735"><ele>745.1591</ele><time>2026-07-20T23:53:00.000Z</time></trkpt>
        <trkpt lat="29.572856" lon="103.394724"><ele>744.44086</ele><time>2026-07-20T23:53:02.000Z</time></trkpt>
        <trkpt lat="29.572846" lon="103.394712"><ele>743.7326</ele><time>2026-07-20T23:53:04.000Z</time></trkpt>
        <trkpt lat="29.572838" lon="103.3947"><ele>742.42194</ele><time>2026-07-20T23:53:06.000Z</time></trkpt>
        <trkpt lat="29.57283" lon="103.394687"><ele>742.16254</ele><time>2026-07-20T23:53:08.000Z</time></trkpt>
        <trkpt lat="29.572823" lon="103.394679"><ele>742.1203</ele><time>2026-07-20T23:53:10.000Z</time></trkpt>
        <trkpt lat="29.572815" lon="103.394671"><ele>741.97455</ele><time>2026-07-20T23:53:12.000Z</time></trkpt>
        <trkpt lat="29.572805" lon="103.394664"><ele>740.98535</ele><time>2026-07-20T23:53:14.000Z</time></trkpt>
        <trkpt lat="29.572796" lon="103.394656"><ele>741.29865</ele><time>2026-07-20T23:53:16.000Z</time></trkpt>
        <trkpt lat="29.572789" lon="103.394647"><ele>741.33514</ele><time>2026-07-20T23:53:18.000Z</time></trkpt>
        <trkpt lat="29.572788" lon="103.394639"><ele>741.04504</ele><time>2026-07-20T23:53:20.000Z</time></trkpt>
        <trkpt lat="29.572794" lon="103.394624"><ele>740.57336</ele><time>2026-07-20T23:53:24.000Z</time></trkpt>
        <trkpt lat="29.572801" lon="103.394608"><ele>738.83057</ele><time>2026-07-20T23:53:26.000Z</time></trkpt>
        <trkpt lat="29.572802" lon="103.394607"><ele>738.2588</ele><time>2026-07-20T23:53:28.000Z</time></trkpt>
        <trkpt lat="29.572802" lon="103.394585"><ele>737.87506</ele><time>2026-07-20T23:53:34.000Z</time></trkpt>
        <trkpt lat="29.572801" lon="103.394569"><ele>737.4442</ele><time>2026-07-20T23:53:36.000Z</time></trkpt>
        <trkpt lat="29.572801" lon="103.394552"><ele>736.23706</ele><time>2026-07-20T23:53:38.000Z</time></trkpt>
        <trkpt lat="29.572802" lon="103.394535"><ele>735.75665</ele><time>2026-07-20T23:53:40.000Z</time></trkpt>
        <trkpt lat="29.572805" lon="103.394515"><ele>736.3909</ele><time>2026-07-20T23:53:42.000Z</time></trkpt>
        <trkpt lat="29.572809" lon="103.394499"><ele>737.3193</ele><time>2026-07-20T23:53:44.000Z</time></trkpt>
        <trkpt lat="29.572813" lon="103.394485"><ele>735.8552</ele><time>2026-07-20T23:53:46.000Z</time></trkpt>
        <trkpt lat="29.572821" lon="103.394466"><ele>734.7629</ele><time>2026-07-20T23:53:48.000Z</time></trkpt>
        <trkpt lat="29.572829" lon="103.394444"><ele>733.7334</ele><time>2026-07-20T23:53:50.000Z</time></trkpt>
        <trkpt lat="29.572835" lon="103.394422"><ele>732.7112</ele><time>2026-07-20T23:53:52.000Z</time></trkpt>
        <trkpt lat="29.57284" lon="103.394403"><ele>732.2051</ele><time>2026-07-20T23:53:54.000Z</time></trkpt>
        <trkpt lat="29.572844" lon="103.394385"><ele>731.205</ele><time>2026-07-20T23:53:56.000Z</time></trkpt>
        <trkpt lat="29.572847" lon="103.394373"><ele>730.7921</ele><time>2026-07-20T23:53:58.000Z</time></trkpt>
        <trkpt lat="29.57285" lon="103.39436"><ele>730.0964</ele><time>2026-07-20T23:54:00.000Z</time></trkpt>
        <trkpt lat="29.572853" lon="103.394346"><ele>729.3496</ele><time>2026-07-20T23:54:02.000Z</time></trkpt>
        <trkpt lat="29.572857" lon="103.39434"><ele>729.03357</ele><time>2026-07-20T23:54:04.000Z</time></trkpt>
        <trkpt lat="29.572865" lon="103.39433"><ele>729.2952</ele><time>2026-07-20T23:54:10.000Z</time></trkpt>
        <trkpt lat="29.572883" lon="103.394307"><ele>729.5327</ele><time>2026-07-20T23:54:20.000Z</time></trkpt>
        <trkpt lat="29.572883" lon="103.394307"><ele>729.22076</ele><time>2026-07-20T23:54:22.000Z</time></trkpt>
        <trkpt lat="29.572895" lon="103.394287"><ele>728.99915</ele><time>2026-07-20T23:54:24.000Z</time></trkpt>
        <trkpt lat="29.572906" lon="103.394265"><ele>728.7413</ele><time>2026-07-20T23:54:26.000Z</time></trkpt>
        <trkpt lat="29.572907" lon="103.394263"><ele>728.26056</ele><time>2026-07-20T23:54:28.000Z</time></trkpt>
        <trkpt lat="29.572912" lon="103.394247"><ele>727.23145</ele><time>2026-07-20T23:54:32.000Z</time></trkpt>
        <trkpt lat="29.572918" lon="103.394227"><ele>727.0525</ele><time>2026-07-20T23:54:34.000Z</time></trkpt>
        <trkpt lat="29.572925" lon="103.394198"><ele>726.82007</ele><time>2026-07-20T23:54:36.000Z</time></trkpt>
        <trkpt lat="29.572931" lon="103.394169"><ele>725.70624</ele><time>2026-07-20T23:54:38.000Z</time></trkpt>
        <trkpt lat="29.572938" lon="103.394143"><ele>725.68414</ele><time>2026-07-20T23:54:40.000Z</time></trkpt>
        <trkpt lat="29.572944" lon="103.39412"><ele>725.45026</ele><time>2026-07-20T23:54:42.000Z</time></trkpt>
        <trkpt lat="29.572951" lon="103.394098"><ele>725.46985</ele><time>2026-07-20T23:54:44.000Z</time></trkpt>
        <trkpt lat="29.57296" lon="103.394078"><ele>726.03</ele><time>2026-07-20T23:54:46.000Z</time></trkpt>
        <trkpt lat="29.572971" lon="103.394057"><ele>725.35046</ele><time>2026-07-20T23:54:48.000Z</time></trkpt>
        <trkpt lat="29.57298" lon="103.394039"><ele>725.75507</ele><time>2026-07-20T23:54:50.000Z</time></trkpt>
        <trkpt lat="29.572991" lon="103.394018"><ele>724.6759</ele><time>2026-07-20T23:54:52.000Z</time></trkpt>
        <trkpt lat="29.573" lon="103.393997"><ele>723.54486</ele><time>2026-07-20T23:54:54.000Z</time></trkpt>
        <trkpt lat="29.573009" lon="103.393975"><ele>723.1876</ele><time>2026-07-20T23:54:56.000Z</time></trkpt>
        <trkpt lat="29.573016" lon="103.393955"><ele>722.6643</ele><time>2026-07-20T23:54:58.000Z</time></trkpt>
        <trkpt lat="29.573024" lon="103.393929"><ele>722.3463</ele><time>2026-07-20T23:55:00.000Z</time></trkpt>
        <trkpt lat="29.573032" lon="103.393904"><ele>722.2522</ele><time>2026-07-20T23:55:02.000Z</time></trkpt>
        <trkpt lat="29.573039" lon="103.393879"><ele>722.4002</ele><time>2026-07-20T23:55:04.000Z</time></trkpt>
        <trkpt lat="29.573047" lon="103.393855"><ele>722.8394</ele><time>2026-07-20T23:55:06.000Z</time></trkpt>
        <trkpt lat="29.573057" lon="103.393832"><ele>724.1006</ele><time>2026-07-20T23:55:08.000Z</time></trkpt>
        <trkpt lat="29.573067" lon="103.393813"><ele>725.1139</ele><time>2026-07-20T23:55:10.000Z</time></trkpt>
        <trkpt lat="29.57308" lon="103.393793"><ele>725.991</ele><time>2026-07-20T23:55:12.000Z</time></trkpt>
        <trkpt lat="29.573093" lon="103.39378"><ele>726.8121</ele><time>2026-07-20T23:55:14.000Z</time></trkpt>
        <trkpt lat="29.573108" lon="103.393769"><ele>727.04205</ele><time>2026-07-20T23:55:16.000Z</time></trkpt>
        <trkpt lat="29.573125" lon="103.393759"><ele>727.63654</ele><time>2026-07-20T23:55:18.000Z</time></trkpt>
        <trkpt lat="29.573144" lon="103.393754"><ele>728.45355</ele><time>2026-07-20T23:55:20.000Z</time></trkpt>
        <trkpt lat="29.573164" lon="103.393751"><ele>729.07086</ele><time>2026-07-20T23:55:22.000Z</time></trkpt>
        <trkpt lat="29.573181" lon="103.393748"><ele>729.4656</ele><time>2026-07-20T23:55:24.000Z</time></trkpt>
        <trkpt lat="29.573196" lon="103.393748"><ele>729.9425</ele><time>2026-07-20T23:55:26.000Z</time></trkpt>
        <trkpt lat="29.573212" lon="103.393751"><ele>730.4729</ele><time>2026-07-20T23:55:28.000Z</time></trkpt>
        <trkpt lat="29.573228" lon="103.393757"><ele>729.3642</ele><time>2026-07-20T23:55:30.000Z</time></trkpt>
        <trkpt lat="29.57324" lon="103.393763"><ele>728.11975</ele><time>2026-07-20T23:55:32.000Z</time></trkpt>
        <trkpt lat="29.573255" lon="103.393772"><ele>727.28864</ele><time>2026-07-20T23:55:34.000Z</time></trkpt>
        <trkpt lat="29.57327" lon="103.393779"><ele>726.17615</ele><time>2026-07-20T23:55:36.000Z</time></trkpt>
        <trkpt lat="29.573285" lon="103.393783"><ele>725.08594</ele><time>2026-07-20T23:55:38.000Z</time></trkpt>
        <trkpt lat="29.573298" lon="103.393783"><ele>724.4175</ele><time>2026-07-20T23:55:40.000Z</time></trkpt>
        <trkpt lat="29.573314" lon="103.393781"><ele>725.02026</ele><time>2026-07-20T23:55:42.000Z</time></trkpt>
        <trkpt lat="29.573323" lon="103.393776"><ele>725.0963</ele><time>2026-07-20T23:55:44.000Z</time></trkpt>
        <trkpt lat="29.573331" lon="103.393767"><ele>725.6858</ele><time>2026-07-20T23:55:46.000Z</time></trkpt>
        <trkpt lat="29.573339" lon="103.393752"><ele>725.40656</ele><time>2026-07-20T23:55:48.000Z</time></trkpt>
        <trkpt lat="29.573348" lon="103.393732"><ele>724.64154</ele><time>2026-07-20T23:55:50.000Z</time></trkpt>
        <trkpt lat="29.57336" lon="103.39371"><ele>725.4809</ele><time>2026-07-20T23:55:52.000Z</time></trkpt>
        <trkpt lat="29.573372" lon="103.393689"><ele>725.83374</ele><time>2026-07-20T23:55:54.000Z</time></trkpt>
        <trkpt lat="29.573385" lon="103.393669"><ele>725.89044</ele><time>2026-07-20T23:55:56.000Z</time></trkpt>
        <trkpt lat="29.573398" lon="103.39365"><ele>725.9911</ele><time>2026-07-20T23:55:58.000Z</time></trkpt>
        <trkpt lat="29.573407" lon="103.393634"><ele>726.56976</ele><time>2026-07-20T23:56:00.000Z</time></trkpt>
        <trkpt lat="29.573416" lon="103.393623"><ele>725.4447</ele><time>2026-07-20T23:56:02.000Z</time></trkpt>
        <trkpt lat="29.573429" lon="103.393611"><ele>726.14325</ele><time>2026-07-20T23:56:04.000Z</time></trkpt>
        <trkpt lat="29.573445" lon="103.393601"><ele>726.5915</ele><time>2026-07-20T23:56:06.000Z</time></trkpt>
        <trkpt lat="29.573462" lon="103.393589"><ele>727.9305</ele><time>2026-07-20T23:56:08.000Z</time></trkpt>
        <trkpt lat="29.573475" lon="103.393581"><ele>728.33875</ele><time>2026-07-20T23:56:10.000Z</time></trkpt>
        <trkpt lat="29.57349" lon="103.393574"><ele>726.8537</ele><time>2026-07-20T23:56:12.000Z</time></trkpt>
        <trkpt lat="29.573504" lon="103.393569"><ele>725.7665</ele><time>2026-07-20T23:56:14.000Z</time></trkpt>
        <trkpt lat="29.573521" lon="103.393566"><ele>725.04865</ele><time>2026-07-20T23:56:16.000Z</time></trkpt>
        <trkpt lat="29.573541" lon="103.393567"><ele>723.6509</ele><time>2026-07-20T23:56:18.000Z</time></trkpt>
        <trkpt lat="29.573556" lon="103.39357"><ele>723.0658</ele><time>2026-07-20T23:56:20.000Z</time></trkpt>
        <trkpt lat="29.573563" lon="103.393574"><ele>721.968</ele><time>2026-07-20T23:56:22.000Z</time></trkpt>
        <trkpt lat="29.573573" lon="103.393575"><ele>721.1152</ele><time>2026-07-20T23:56:30.000Z</time></trkpt>
        <trkpt lat="29.573584" lon="103.393571"><ele>720.0466</ele><time>2026-07-20T23:56:32.000Z</time></trkpt>
        <trkpt lat="29.573615" lon="103.393558"><ele>720.07916</ele><time>2026-07-20T23:56:36.000Z</time></trkpt>
        <trkpt lat="29.573615" lon="103.393558"><ele>719.46497</ele><time>2026-07-20T23:56:38.000Z</time></trkpt>
        <trkpt lat="29.573617" lon="103.393557"><ele>719.4751</ele><time>2026-07-20T23:56:40.000Z</time></trkpt>
        <trkpt lat="29.573645" lon="103.393541"><ele>719.9947</ele><time>2026-07-20T23:56:44.000Z</time></trkpt>
        <trkpt lat="29.573663" lon="103.39353"><ele>719.671</ele><time>2026-07-20T23:56:46.000Z</time></trkpt>
        <trkpt lat="29.573668" lon="103.39352"><ele>719.96735</ele><time>2026-07-20T23:56:48.000Z</time></trkpt>
        <trkpt lat="29.573667" lon="103.393518"><ele>720.74384</ele><time>2026-07-20T23:56:50.000Z</time></trkpt>
        <trkpt lat="29.573651" lon="103.393496"><ele>723.09155</ele><time>2026-07-20T23:56:54.000Z</time></trkpt>
        <trkpt lat="29.573645" lon="103.39349"><ele>723.52594</ele><time>2026-07-20T23:56:56.000Z</time></trkpt>
        <trkpt lat="29.573638" lon="103.393483"><ele>724.2768</ele><time>2026-07-20T23:56:58.000Z</time></trkpt>
        <trkpt lat="29.573624" lon="103.393472"><ele>725.1137</ele><time>2026-07-20T23:57:02.000Z</time></trkpt>
        <trkpt lat="29.573619" lon="103.393471"><ele>725.53503</ele><time>2026-07-20T23:57:04.000Z</time></trkpt>
        <trkpt lat="29.573616" lon="103.393466"><ele>724.9601</ele><time>2026-07-20T23:57:08.000Z</time></trkpt>
        <trkpt lat="29.573643" lon="103.393515"><ele>720.9318</ele><time>2026-07-20T23:57:46.000Z</time></trkpt>
        <trkpt lat="29.573656" lon="103.393503"><ele>721.1265</ele><time>2026-07-20T23:57:49.000Z</time></trkpt>
        <trkpt lat="29.573674" lon="103.393491"><ele>722.3282</ele><time>2026-07-20T23:57:51.000Z</time></trkpt>
        <trkpt lat="29.573706" lon="103.39347"><ele>724.23206</ele><time>2026-07-20T23:57:54.000Z</time></trkpt>
        <trkpt lat="29.573708" lon="103.393469"><ele>725.7705</ele><time>2026-07-20T23:57:56.000Z</time></trkpt>
        <trkpt lat="29.573711" lon="103.393469"><ele>726.67096</ele><time>2026-07-20T23:57:58.000Z</time></trkpt>
        <trkpt lat="29.573754" lon="103.393463"><ele>724.9943</ele><time>2026-07-20T23:58:02.000Z</time></trkpt>
        <trkpt lat="29.573785" lon="103.393454"><ele>724.00494</ele><time>2026-07-20T23:58:04.000Z</time></trkpt>
        <trkpt lat="29.573818" lon="103.393443"><ele>723.4587</ele><time>2026-07-20T23:58:06.000Z</time></trkpt>
        <trkpt lat="29.573848" lon="103.393433"><ele>722.7094</ele><time>2026-07-20T23:58:08.000Z</time></trkpt>
        <trkpt lat="29.573873" lon="103.393426"><ele>722.93445</ele><time>2026-07-20T23:58:10.000Z</time></trkpt>
        <trkpt lat="29.573894" lon="103.39342"><ele>722.35315</ele><time>2026-07-20T23:58:12.000Z</time></trkpt>
        <trkpt lat="29.573909" lon="103.393412"><ele>722.1892</ele><time>2026-07-20T23:58:14.000Z</time></trkpt>
        <trkpt lat="29.573924" lon="103.393402"><ele>722.2363</ele><time>2026-07-20T23:58:16.000Z</time></trkpt>
        <trkpt lat="29.573938" lon="103.393391"><ele>722.341</ele><time>2026-07-20T23:58:18.000Z</time></trkpt>
        <trkpt lat="29.57395" lon="103.393378"><ele>723.3197</ele><time>2026-07-20T23:58:20.000Z</time></trkpt>
        <trkpt lat="29.573962" lon="103.393363"><ele>723.577</ele><time>2026-07-20T23:58:22.000Z</time></trkpt>
        <trkpt lat="29.573974" lon="103.393344"><ele>723.6404</ele><time>2026-07-20T23:58:24.000Z</time></trkpt>
        <trkpt lat="29.573986" lon="103.393325"><ele>722.8201</ele><time>2026-07-20T23:58:26.000Z</time></trkpt>
        <trkpt lat="29.573996" lon="103.393306"><ele>723.2083</ele><time>2026-07-20T23:58:28.000Z</time></trkpt>
        <trkpt lat="29.574006" lon="103.393287"><ele>722.6821</ele><time>2026-07-20T23:58:30.000Z</time></trkpt>
        <trkpt lat="29.574012" lon="103.393272"><ele>722.1458</ele><time>2026-07-20T23:58:32.000Z</time></trkpt>
        <trkpt lat="29.574016" lon="103.393261"><ele>721.71497</ele><time>2026-07-20T23:58:34.000Z</time></trkpt>
        <trkpt lat="29.57402" lon="103.393255"><ele>722.36334</ele><time>2026-07-20T23:58:36.000Z</time></trkpt>
        <trkpt lat="29.574028" lon="103.39324"><ele>721.7208</ele><time>2026-07-20T23:58:40.000Z</time></trkpt>
        <trkpt lat="29.574035" lon="103.393225"><ele>721.1102</ele><time>2026-07-20T23:58:44.000Z</time></trkpt>
        <trkpt lat="29.574034" lon="103.393219"><ele>720.6885</ele><time>2026-07-20T23:58:46.000Z</time></trkpt>
        <trkpt lat="29.574028" lon="103.393187"><ele>719.49365</ele><time>2026-07-20T23:58:50.000Z</time></trkpt>
        <trkpt lat="29.574028" lon="103.393187"><ele>718.9053</ele><time>2026-07-20T23:58:52.000Z</time></trkpt>
        <trkpt lat="29.574028" lon="103.393185"><ele>718.8201</ele><time>2026-07-20T23:58:54.000Z</time></trkpt>
        <trkpt lat="29.574029" lon="103.393132"><ele>719.5472</ele><time>2026-07-20T23:59:00.000Z</time></trkpt>
        <trkpt lat="29.574032" lon="103.393113"><ele>717.3576</ele><time>2026-07-20T23:59:02.000Z</time></trkpt>
        <trkpt lat="29.574039" lon="103.393093"><ele>716.6894</ele><time>2026-07-20T23:59:04.000Z</time></trkpt>
        <trkpt lat="29.574045" lon="103.393076"><ele>716.73236</ele><time>2026-07-20T23:59:06.000Z</time></trkpt>
        <trkpt lat="29.57405" lon="103.39306"><ele>715.73944</ele><time>2026-07-20T23:59:08.000Z</time></trkpt>
        <trkpt lat="29.574051" lon="103.393048"><ele>714.5029</ele><time>2026-07-20T23:59:10.000Z</time></trkpt>
        <trkpt lat="29.574051" lon="103.393034"><ele>713.8774</ele><time>2026-07-20T23:59:12.000Z</time></trkpt>
        <trkpt lat="29.574051" lon="103.393021"><ele>713.30396</ele><time>2026-07-20T23:59:14.000Z</time></trkpt>
        <trkpt lat="29.574053" lon="103.393011"><ele>712.7258</ele><time>2026-07-20T23:59:16.000Z</time></trkpt>
        <trkpt lat="29.574058" lon="103.392994"><ele>712.2986</ele><time>2026-07-20T23:59:20.000Z</time></trkpt>
        <trkpt lat="29.574062" lon="103.39298"><ele>712.5691</ele><time>2026-07-20T23:59:22.000Z</time></trkpt>
        <trkpt lat="29.574063" lon="103.392979"><ele>712.5957</ele><time>2026-07-20T23:59:24.000Z</time></trkpt>
        <trkpt lat="29.574077" lon="103.392949"><ele>711.40985</ele><time>2026-07-20T23:59:30.000Z</time></trkpt>
        <trkpt lat="29.574085" lon="103.392935"><ele>711.7891</ele><time>2026-07-20T23:59:32.000Z</time></trkpt>
        <trkpt lat="29.574092" lon="103.392922"><ele>711.29944</ele><time>2026-07-20T23:59:34.000Z</time></trkpt>
        <trkpt lat="29.574098" lon="103.392911"><ele>710.01355</ele><time>2026-07-20T23:59:36.000Z</time></trkpt>
        <trkpt lat="29.574102" lon="103.392902"><ele>709.34314</ele><time>2026-07-20T23:59:38.000Z</time></trkpt>
        <trkpt lat="29.574107" lon="103.39289"><ele>708.41266</ele><time>2026-07-20T23:59:40.000Z</time></trkpt>
        <trkpt lat="29.574109" lon="103.39288"><ele>707.6439</ele><time>2026-07-20T23:59:42.000Z</time></trkpt>
        <trkpt lat="29.574109" lon="103.392866"><ele>707.6363</ele><time>2026-07-20T23:59:44.000Z</time></trkpt>
        <trkpt lat="29.574108" lon="103.392849"><ele>707.805</ele><time>2026-07-20T23:59:46.000Z</time></trkpt>
        <trkpt lat="29.574108" lon="103.392834"><ele>708.0106</ele><time>2026-07-20T23:59:48.000Z</time></trkpt>
        <trkpt lat="29.57411" lon="103.392819"><ele>707.74725</ele><time>2026-07-20T23:59:50.000Z</time></trkpt>
        <trkpt lat="29.574113" lon="103.392806"><ele>707.2709</ele><time>2026-07-20T23:59:52.000Z</time></trkpt>
        <trkpt lat="29.574117" lon="103.392795"><ele>707.3281</ele><time>2026-07-20T23:59:54.000Z</time></trkpt>
        <trkpt lat="29.574117" lon="103.392786"><ele>707.8974</ele><time>2026-07-20T23:59:56.000Z</time></trkpt>
        <trkpt lat="29.574117" lon="103.392769"><ele>707.8685</ele><time>2026-07-21T00:00:00.000Z</time></trkpt>
        <trkpt lat="29.574117" lon="103.39276"><ele>707.44995</ele><time>2026-07-21T00:00:02.000Z</time></trkpt>
        <trkpt lat="29.574118" lon="103.392745"><ele>707.85547</ele><time>2026-07-21T00:00:04.000Z</time></trkpt>
        <trkpt lat="29.574119" lon="103.392727"><ele>708.0225</ele><time>2026-07-21T00:00:06.000Z</time></trkpt>
        <trkpt lat="29.574121" lon="103.392713"><ele>707.5939</ele><time>2026-07-21T00:00:08.000Z</time></trkpt>
        <trkpt lat="29.574123" lon="103.392697"><ele>707.36456</ele><time>2026-07-21T00:00:10.000Z</time></trkpt>
        <trkpt lat="29.574125" lon="103.39268"><ele>707.5639</ele><time>2026-07-21T00:00:12.000Z</time></trkpt>
        <trkpt lat="29.574125" lon="103.392665"><ele>705.9633</ele><time>2026-07-21T00:00:14.000Z</time></trkpt>
        <trkpt lat="29.574123" lon="103.392651"><ele>705.7009</ele><time>2026-07-21T00:00:16.000Z</time></trkpt>
        <trkpt lat="29.574121" lon="103.392638"><ele>705.5384</ele><time>2026-07-21T00:00:18.000Z</time></trkpt>
        <trkpt lat="29.574119" lon="103.392623"><ele>705.8062</ele><time>2026-07-21T00:00:20.000Z</time></trkpt>
        <trkpt lat="29.574114" lon="103.392606"><ele>705.5328</ele><time>2026-07-21T00:00:22.000Z</time></trkpt>
        <trkpt lat="29.574108" lon="103.392588"><ele>704.981</ele><time>2026-07-21T00:00:24.000Z</time></trkpt>
        <trkpt lat="29.574102" lon="103.392571"><ele>704.14417</ele><time>2026-07-21T00:00:26.000Z</time></trkpt>
        <trkpt lat="29.574094" lon="103.392557"><ele>704.33527</ele><time>2026-07-21T00:00:28.000Z</time></trkpt>
        <trkpt lat="29.574089" lon="103.392547"><ele>704.122</ele><time>2026-07-21T00:00:30.000Z</time></trkpt>
        <trkpt lat="29.574085" lon="103.392535"><ele>704.74536</ele><time>2026-07-21T00:00:32.000Z</time></trkpt>
        <trkpt lat="29.574082" lon="103.392523"><ele>705.15137</ele><time>2026-07-21T00:00:36.000Z</time></trkpt>
        <trkpt lat="29.574079" lon="103.392515"><ele>703.57684</ele><time>2026-07-21T00:00:38.000Z</time></trkpt>
        <trkpt lat="29.57407" lon="103.392499"><ele>702.283</ele><time>2026-07-21T00:00:40.000Z</time></trkpt>
        <trkpt lat="29.574063" lon="103.392487"><ele>698.0483</ele><time>2026-07-21T00:00:46.000Z</time></trkpt>
        <trkpt lat="29.574058" lon="103.392473"><ele>698.4995</ele><time>2026-07-21T00:00:48.000Z</time></trkpt>
        <trkpt lat="29.574056" lon="103.392457"><ele>698.0974</ele><time>2026-07-21T00:00:50.000Z</time></trkpt>
        <trkpt lat="29.57406" lon="103.392445"><ele>696.81213</ele><time>2026-07-21T00:00:52.000Z</time></trkpt>
        <trkpt lat="29.574061" lon="103.392446"><ele>695.7975</ele><time>2026-07-21T00:00:54.000Z</time></trkpt>
        <trkpt lat="29.574094" lon="103.392457"><ele>696.11304</ele><time>2026-07-21T00:01:00.000Z</time></trkpt>
        <trkpt lat="29.574101" lon="103.392462"><ele>695.6005</ele><time>2026-07-21T00:01:02.000Z</time></trkpt>
        <trkpt lat="29.574109" lon="103.392462"><ele>695.3905</ele><time>2026-07-21T00:01:04.000Z</time></trkpt>
        <trkpt lat="29.574134" lon="103.392463"><ele>696.24536</ele><time>2026-07-21T00:01:08.000Z</time></trkpt>
        <trkpt lat="29.574144" lon="103.392461"><ele>697.48895</ele><time>2026-07-21T00:01:10.000Z</time></trkpt>
        <trkpt lat="29.574153" lon="103.392462"><ele>697.0389</ele><time>2026-07-21T00:01:12.000Z</time></trkpt>
        <trkpt lat="29.574173" lon="103.392465"><ele>696.369</ele><time>2026-07-21T00:01:16.000Z</time></trkpt>
        <trkpt lat="29.574179" lon="103.392464"><ele>696.3274</ele><time>2026-07-21T00:01:18.000Z</time></trkpt>
        <trkpt lat="29.574181" lon="103.39246"><ele>696.50183</ele><time>2026-07-21T00:01:20.000Z</time></trkpt>
        <trkpt lat="29.574202" lon="103.392418"><ele>697.08734</ele><time>2026-07-21T00:01:26.000Z</time></trkpt>
        <trkpt lat="29.574202" lon="103.392418"><ele>697.1546</ele><time>2026-07-21T00:01:28.000Z</time></trkpt>
        <trkpt lat="29.574202" lon="103.392418"><ele>696.6399</ele><time>2026-07-21T00:01:30.000Z</time></trkpt>
        <trkpt lat="29.574232" lon="103.392371"><ele>699.4089</ele><time>2026-07-21T00:01:48.000Z</time></trkpt>
        <trkpt lat="29.574232" lon="103.392371"><ele>699.0948</ele><time>2026-07-21T00:01:50.000Z</time></trkpt>
        <trkpt lat="29.574233" lon="103.392371"><ele>698.5818</ele><time>2026-07-21T00:01:52.000Z</time></trkpt>
        <trkpt lat="29.574264" lon="103.392348"><ele>697.82007</ele><time>2026-07-21T00:01:56.000Z</time></trkpt>
        <trkpt lat="29.574264" lon="103.392348"><ele>697.0678</ele><time>2026-07-21T00:01:58.000Z</time></trkpt>
        <trkpt lat="29.574264" lon="103.392348"><ele>695.2356</ele><time>2026-07-21T00:02:00.000Z</time></trkpt>
        <trkpt lat="29.574278" lon="103.392291"><ele>693.83813</ele><time>2026-07-21T00:02:09.000Z</time></trkpt>
        <trkpt lat="29.574278" lon="103.392291"><ele>693.8678</ele><time>2026-07-21T00:02:11.000Z</time></trkpt>
        <trkpt lat="29.574276" lon="103.39229"><ele>693.5538</ele><time>2026-07-21T00:02:13.000Z</time></trkpt>
        <trkpt lat="29.574218" lon="103.392268"><ele>693.9416</ele><time>2026-07-21T00:02:20.000Z</time></trkpt>
        <trkpt lat="29.574189" lon="103.392258"><ele>695.1498</ele><time>2026-07-21T00:02:22.000Z</time></trkpt>
        <trkpt lat="29.574176" lon="103.392245"><ele>695.0689</ele><time>2026-07-21T00:02:24.000Z</time></trkpt>
        <trkpt lat="29.574175" lon="103.39224"><ele>695.57025</ele><time>2026-07-21T00:02:26.000Z</time></trkpt>
        <trkpt lat="29.574182" lon="103.392311"><ele>698.2332</ele><time>2026-07-21T00:02:48.000Z</time></trkpt>
        <trkpt lat="29.574184" lon="103.39233"><ele>698.2332</ele><time>2026-07-21T00:02:50.000Z</time></trkpt>
        <trkpt lat="29.574183" lon="103.39233"><ele>698.23376</ele><time>2026-07-21T00:02:52.000Z</time></trkpt>
        <trkpt lat="29.574232" lon="103.392283"><ele>698.2377</ele><time>2026-07-21T00:02:55.000Z</time></trkpt>
        <trkpt lat="29.574232" lon="103.392283"><ele>698.2377</ele><time>2026-07-21T00:02:57.000Z</time></trkpt>
        <trkpt lat="29.574233" lon="103.392283"><ele>698.53705</ele><time>2026-07-21T00:02:59.000Z</time></trkpt>
        <trkpt lat="29.574281" lon="103.392291"><ele>700.52936</ele><time>2026-07-21T00:03:11.000Z</time></trkpt>
        <trkpt lat="29.574322" lon="103.39224"><ele>700.9402</ele><time>2026-07-21T00:03:13.000Z</time></trkpt>
        <trkpt lat="29.574323" lon="103.392236"><ele>701.1072</ele><time>2026-07-21T00:03:15.000Z</time></trkpt>
        <trkpt lat="29.574324" lon="103.392231"><ele>701.8222</ele><time>2026-07-21T00:03:17.000Z</time></trkpt>
        <trkpt lat="29.574325" lon="103.392196"><ele>702.55743</ele><time>2026-07-21T00:03:21.000Z</time></trkpt>
        <trkpt lat="29.574344" lon="103.392275"><ele>703.8249</ele><time>2026-07-21T00:03:51.000Z</time></trkpt>
        <trkpt lat="29.57437" lon="103.392275"><ele>704.24347</ele><time>2026-07-21T00:03:53.000Z</time></trkpt>
        <trkpt lat="29.57437" lon="103.392275"><ele>704.2494</ele><time>2026-07-21T00:04:08.000Z</time></trkpt>
        <trkpt lat="29.574393" lon="103.392177"><ele>701.90674</ele><time>2026-07-21T00:04:23.000Z</time></trkpt>
        <trkpt lat="29.574393" lon="103.392177"><ele>701.8859</ele><time>2026-07-21T00:04:25.000Z</time></trkpt>
        <trkpt lat="29.574406" lon="103.392129"><ele>703.5296</ele><time>2026-07-21T00:04:28.000Z</time></trkpt>
        <trkpt lat="29.574406" lon="103.392125"><ele>704.871</ele><time>2026-07-21T00:04:30.000Z</time></trkpt>
        <trkpt lat="29.574405" lon="103.392125"><ele>705.2265</ele><time>2026-07-21T00:04:32.000Z</time></trkpt>
        <trkpt lat="29.574375" lon="103.392121"><ele>705.562</ele><time>2026-07-21T00:04:40.000Z</time></trkpt>
        <trkpt lat="29.574374" lon="103.392122"><ele>705.562</ele><time>2026-07-21T00:04:42.000Z</time></trkpt>
        <trkpt lat="29.574374" lon="103.392123"><ele>705.35333</ele><time>2026-07-21T00:04:44.000Z</time></trkpt>
        <trkpt lat="29.574384" lon="103.392165"><ele>705.6814</ele><time>2026-07-21T00:04:50.000Z</time></trkpt>
        <trkpt lat="29.57439" lon="103.392183"><ele>706.24634</ele><time>2026-07-21T00:04:52.000Z</time></trkpt>
        <trkpt lat="29.574395" lon="103.3922"><ele>706.04034</ele><time>2026-07-21T00:04:54.000Z</time></trkpt>
        <trkpt lat="29.574394" lon="103.392209"><ele>706.0653</ele><time>2026-07-21T00:04:56.000Z</time></trkpt>
        <trkpt lat="29.574377" lon="103.392334"><ele>705.12665</ele><time>2026-07-21T00:04:58.000Z</time></trkpt>
        <trkpt lat="29.574375" lon="103.392343"><ele>705.01886</ele><time>2026-07-21T00:05:00.000Z</time></trkpt>
        <trkpt lat="29.574374" lon="103.392347"><ele>705.01886</ele><time>2026-07-21T00:05:02.000Z</time></trkpt>
        <trkpt lat="29.574329" lon="103.392412"><ele>705.1064</ele><time>2026-07-21T00:05:06.000Z</time></trkpt>
        <trkpt lat="29.574287" lon="103.392472"><ele>705.2187</ele><time>2026-07-21T00:05:08.000Z</time></trkpt>
        <trkpt lat="29.574083" lon="103.392635"><ele>705.189</ele><time>2026-07-21T00:05:10.000Z</time></trkpt>
        <trkpt lat="29.574068" lon="103.392648"><ele>706.4422</ele><time>2026-07-21T00:05:12.000Z</time></trkpt>
        <trkpt lat="29.574061" lon="103.392657"><ele>708.2127</ele><time>2026-07-21T00:05:14.000Z</time></trkpt>
        <trkpt lat="29.574038" lon="103.392685"><ele>710.0779</ele><time>2026-07-21T00:05:16.000Z</time></trkpt>
        <trkpt lat="29.574" lon="103.392735"><ele>711.79767</ele><time>2026-07-21T00:05:18.000Z</time></trkpt>
        <trkpt lat="29.573969" lon="103.392769"><ele>712.9998</ele><time>2026-07-21T00:05:20.000Z</time></trkpt>
        <trkpt lat="29.573972" lon="103.392762"><ele>713.66534</ele><time>2026-07-21T00:05:22.000Z</time></trkpt>
        <trkpt lat="29.574011" lon="103.392664"><ele>715.5933</ele><time>2026-07-21T00:05:30.000Z</time></trkpt>
        <trkpt lat="29.574019" lon="103.392642"><ele>715.5933</ele><time>2026-07-21T00:05:32.000Z</time></trkpt>
        <trkpt lat="29.574024" lon="103.392626"><ele>715.5933</ele><time>2026-07-21T00:05:34.000Z</time></trkpt>
        <trkpt lat="29.574034" lon="103.392602"><ele>716.27826</ele><time>2026-07-21T00:05:36.000Z</time></trkpt>
        <trkpt lat="29.574051" lon="103.392562"><ele>717.1524</ele><time>2026-07-21T00:05:38.000Z</time></trkpt>
        <trkpt lat="29.57407" lon="103.39252"><ele>717.2908</ele><time>2026-07-21T00:05:40.000Z</time></trkpt>
        <trkpt lat="29.574081" lon="103.392487"><ele>717.07715</ele><time>2026-07-21T00:05:42.000Z</time></trkpt>
        <trkpt lat="29.574088" lon="103.392474"><ele>716.88336</ele><time>2026-07-21T00:05:44.000Z</time></trkpt>
        <trkpt lat="29.574095" lon="103.392462"><ele>716.2679</ele><time>2026-07-21T00:05:46.000Z</time></trkpt>
        <trkpt lat="29.574123" lon="103.392418"><ele>714.41187</ele><time>2026-07-21T00:05:50.000Z</time></trkpt>
        <trkpt lat="29.574143" lon="103.392379"><ele>713.9149</ele><time>2026-07-21T00:05:52.000Z</time></trkpt>
        <trkpt lat="29.574157" lon="103.392349"><ele>713.1595</ele><time>2026-07-21T00:05:54.000Z</time></trkpt>
        <trkpt lat="29.574168" lon="103.392332"><ele>713.1934</ele><time>2026-07-21T00:05:56.000Z</time></trkpt>
        <trkpt lat="29.57418" lon="103.392326"><ele>711.94305</ele><time>2026-07-21T00:05:58.000Z</time></trkpt>
        <trkpt lat="29.574214" lon="103.3923"><ele>707.8755</ele><time>2026-07-21T00:06:16.000Z</time></trkpt>
        <trkpt lat="29.574234" lon="103.392285"><ele>707.8755</ele><time>2026-07-21T00:06:18.000Z</time></trkpt>
        <trkpt lat="29.574235" lon="103.392284"><ele>707.8755</ele><time>2026-07-21T00:06:20.000Z</time></trkpt>
        <trkpt lat="29.574008" lon="103.392423"><ele>699.63885</ele><time>2026-07-21T00:07:41.000Z</time></trkpt>
        <trkpt lat="29.574008" lon="103.392423"><ele>699.649</ele><time>2026-07-21T00:07:43.000Z</time></trkpt>
        <trkpt lat="29.574009" lon="103.392423"><ele>699.649</ele><time>2026-07-21T00:07:45.000Z</time></trkpt>
        <trkpt lat="29.574044" lon="103.392408"><ele>708.1422</ele><time>2026-07-21T00:08:05.000Z</time></trkpt>
        <trkpt lat="29.574049" lon="103.392407"><ele>708.1422</ele><time>2026-07-21T00:08:07.000Z</time></trkpt>
        <trkpt lat="29.574052" lon="103.392405"><ele>708.1422</ele><time>2026-07-21T00:08:09.000Z</time></trkpt>
        <trkpt lat="29.574142" lon="103.392353"><ele>703.4415</ele><time>2026-07-21T00:08:44.000Z</time></trkpt>
        <trkpt lat="29.574206" lon="103.392316"><ele>703.0812</ele><time>2026-07-21T00:08:46.000Z</time></trkpt>
        <trkpt lat="29.574211" lon="103.392314"><ele>703.0652</ele><time>2026-07-21T00:08:48.000Z</time></trkpt>
        <trkpt lat="29.574212" lon="103.392313"><ele>702.6985</ele><time>2026-07-21T00:08:50.000Z</time></trkpt>
        <trkpt lat="29.574234" lon="103.392301"><ele>700.87787</ele><time>2026-07-21T00:08:58.000Z</time></trkpt>
        <trkpt lat="29.574248" lon="103.392294"><ele>700.87787</ele><time>2026-07-21T00:09:00.000Z</time></trkpt>
        <trkpt lat="29.574249" lon="103.392293"><ele>700.87787</ele><time>2026-07-21T00:09:02.000Z</time></trkpt>
        <trkpt lat="29.574278" lon="103.392283"><ele>701.6275</ele><time>2026-07-21T00:09:37.000Z</time></trkpt>
        <trkpt lat="29.574293" lon="103.392278"><ele>701.11475</ele><time>2026-07-21T00:10:07.000Z</time></trkpt>
        <trkpt lat="29.574274" lon="103.392254"><ele>701.76746</ele><time>2026-07-21T00:10:14.000Z</time></trkpt>
        <trkpt lat="29.574284" lon="103.392235"><ele>702.1682</ele><time>2026-07-21T00:10:20.000Z</time></trkpt>
        <trkpt lat="29.574313" lon="103.392188"><ele>702.4545</ele><time>2026-07-21T00:10:22.000Z</time></trkpt>
        <trkpt lat="29.574314" lon="103.392184"><ele>703.0792</ele><time>2026-07-21T00:10:24.000Z</time></trkpt>
        <trkpt lat="29.574315" lon="103.392184"><ele>703.23517</ele><time>2026-07-21T00:10:26.000Z</time></trkpt>
        <trkpt lat="29.574324" lon="103.392152"><ele>704.6857</ele><time>2026-07-21T00:10:36.000Z</time></trkpt>
        <trkpt lat="29.574324" lon="103.392148"><ele>704.6857</ele><time>2026-07-21T00:10:38.000Z</time></trkpt>
        <trkpt lat="29.574325" lon="103.392147"><ele>704.6857</ele><time>2026-07-21T00:10:40.000Z</time></trkpt>
        <trkpt lat="29.574293" lon="103.392202"><ele>702.7001</ele><time>2026-07-21T00:11:16.000Z</time></trkpt>
        <trkpt lat="29.574284" lon="103.392218"><ele>703.06665</ele><time>2026-07-21T00:11:31.000Z</time></trkpt>
        <trkpt lat="29.574294" lon="103.392193"><ele>702.979</ele><time>2026-07-21T00:11:46.000Z</time></trkpt>
        <trkpt lat="29.574312" lon="103.392169"><ele>702.6706</ele><time>2026-07-21T00:12:01.000Z</time></trkpt>
        <trkpt lat="29.574318" lon="103.39216"><ele>703.59796</ele><time>2026-07-21T00:12:16.000Z</time></trkpt>
        <trkpt lat="29.574318" lon="103.392161"><ele>703.59796</ele><time>2026-07-21T00:12:31.000Z</time></trkpt>
        <trkpt lat="29.574337" lon="103.392144"><ele>705.3045</ele><time>2026-07-21T00:15:02.000Z</time></trkpt>
        <trkpt lat="29.574381" lon="103.392106"><ele>706.93555</ele><time>2026-07-21T00:15:09.000Z</time></trkpt>
        <trkpt lat="29.574381" lon="103.392106"><ele>707.6236</ele><time>2026-07-21T00:15:11.000Z</time></trkpt>
        <trkpt lat="29.574382" lon="103.392107"><ele>708.8071</ele><time>2026-07-21T00:15:13.000Z</time></trkpt>
        <trkpt lat="29.574404" lon="103.392133"><ele>711.1698</ele><time>2026-07-21T00:15:19.000Z</time></trkpt>
        <trkpt lat="29.574404" lon="103.392134"><ele>710.78735</ele><time>2026-07-21T00:15:21.000Z</time></trkpt>
        <trkpt lat="29.574398" lon="103.392137"><ele>709.4922</ele><time>2026-07-21T00:15:23.000Z</time></trkpt>
        <trkpt lat="29.57437" lon="103.392152"><ele>708.39484</ele><time>2026-07-21T00:15:46.000Z</time></trkpt>
        <trkpt lat="29.574354" lon="103.39216"><ele>708.398</ele><time>2026-07-21T00:15:48.000Z</time></trkpt>
        <trkpt lat="29.574388" lon="103.392207"><ele>709.5906</ele><time>2026-07-21T00:16:15.000Z</time></trkpt>
        <trkpt lat="29.574388" lon="103.392207"><ele>707.2454</ele><time>2026-07-21T00:16:17.000Z</time></trkpt>
        <trkpt lat="29.574383" lon="103.392214"><ele>706.1279</ele><time>2026-07-21T00:16:19.000Z</time></trkpt>
        <trkpt lat="29.574296" lon="103.39234"><ele>703.5528</ele><time>2026-07-21T00:16:21.000Z</time></trkpt>
        <trkpt lat="29.574293" lon="103.392345"><ele>701.8013</ele><time>2026-07-21T00:16:23.000Z</time></trkpt>
        <trkpt lat="29.574293" lon="103.392345"><ele>702.031</ele><time>2026-07-21T00:16:25.000Z</time></trkpt>
        <trkpt lat="29.574335" lon="103.39238"><ele>700.312</ele><time>2026-07-21T00:16:35.000Z</time></trkpt>
        <trkpt lat="29.574341" lon="103.392388"><ele>697.75885</ele><time>2026-07-21T00:16:37.000Z</time></trkpt>
        <trkpt lat="29.574345" lon="103.392396"><ele>695.41</ele><time>2026-07-21T00:16:39.000Z</time></trkpt>
        <trkpt lat="29.574351" lon="103.392409"><ele>697.01276</ele><time>2026-07-21T00:16:41.000Z</time></trkpt>
        <trkpt lat="29.574358" lon="103.392423"><ele>698.0734</ele><time>2026-07-21T00:16:43.000Z</time></trkpt>
        <trkpt lat="29.574364" lon="103.392438"><ele>697.36957</ele><time>2026-07-21T00:16:45.000Z</time></trkpt>
        <trkpt lat="29.574368" lon="103.392453"><ele>697.5531</ele><time>2026-07-21T00:16:46.000Z</time></trkpt>
        <trkpt lat="29.574371" lon="103.392468"><ele>697.4043</ele><time>2026-07-21T00:16:48.000Z</time></trkpt>
        <trkpt lat="29.574373" lon="103.392486"><ele>696.45123</ele><time>2026-07-21T00:16:50.000Z</time></trkpt>
        <trkpt lat="29.574375" lon="103.392504"><ele>695.21</ele><time>2026-07-21T00:16:52.000Z</time></trkpt>
        <trkpt lat="29.574378" lon="103.392518"><ele>696.956</ele><time>2026-07-21T00:16:54.000Z</time></trkpt>
        <trkpt lat="29.574382" lon="103.392534"><ele>696.0852</ele><time>2026-07-21T00:16:56.000Z</time></trkpt>
        <trkpt lat="29.574387" lon="103.392549"><ele>695.6269</ele><time>2026-07-21T00:16:58.000Z</time></trkpt>
        <trkpt lat="29.574392" lon="103.392562"><ele>694.02625</ele><time>2026-07-21T00:17:00.000Z</time></trkpt>
        <trkpt lat="29.574397" lon="103.392573"><ele>692.53064</ele><time>2026-07-21T00:17:02.000Z</time></trkpt>
        <trkpt lat="29.574404" lon="103.392585"><ele>690.2605</ele><time>2026-07-21T00:17:04.000Z</time></trkpt>
        <trkpt lat="29.574413" lon="103.392597"><ele>693.0489</ele><time>2026-07-21T00:17:06.000Z</time></trkpt>
        <trkpt lat="29.574422" lon="103.39261"><ele>696.8886</ele><time>2026-07-21T00:17:08.000Z</time></trkpt>
        <trkpt lat="29.574428" lon="103.392622"><ele>695.79694</ele><time>2026-07-21T00:17:10.000Z</time></trkpt>
        <trkpt lat="29.574434" lon="103.392632"><ele>693.34247</ele><time>2026-07-21T00:17:12.000Z</time></trkpt>
        <trkpt lat="29.57444" lon="103.392637"><ele>692.70355</ele><time>2026-07-21T00:17:14.000Z</time></trkpt>
        <trkpt lat="29.574453" lon="103.392645"><ele>692.0299</ele><time>2026-07-21T00:17:18.000Z</time></trkpt>
        <trkpt lat="29.57446" lon="103.392651"><ele>691.436</ele><time>2026-07-21T00:17:22.000Z</time></trkpt>
        <trkpt lat="29.574472" lon="103.392652"><ele>691.70734</ele><time>2026-07-21T00:17:28.000Z</time></trkpt>
        <trkpt lat="29.574492" lon="103.392653"><ele>690.8637</ele><time>2026-07-21T00:17:30.000Z</time></trkpt>
        <trkpt lat="29.574493" lon="103.392653"><ele>690.96625</ele><time>2026-07-21T00:17:32.000Z</time></trkpt>
        <trkpt lat="29.574533" lon="103.392642"><ele>692.18365</ele><time>2026-07-21T00:17:35.000Z</time></trkpt>
        <trkpt lat="29.574533" lon="103.392642"><ele>691.99445</ele><time>2026-07-21T00:17:38.000Z</time></trkpt>
        <trkpt lat="29.574534" lon="103.392642"><ele>690.9049</ele><time>2026-07-21T00:17:40.000Z</time></trkpt>
        <trkpt lat="29.574578" lon="103.392645"><ele>691.7142</ele><time>2026-07-21T00:17:46.000Z</time></trkpt>
        <trkpt lat="29.57459" lon="103.392641"><ele>689.3894</ele><time>2026-07-21T00:17:48.000Z</time></trkpt>
        <trkpt lat="29.574603" lon="103.392637"><ele>688.94183</ele><time>2026-07-21T00:17:50.000Z</time></trkpt>
        <trkpt lat="29.574616" lon="103.392638"><ele>690.10034</ele><time>2026-07-21T00:17:52.000Z</time></trkpt>
        <trkpt lat="29.574628" lon="103.392643"><ele>690.27216</ele><time>2026-07-21T00:17:54.000Z</time></trkpt>
        <trkpt lat="29.574643" lon="103.392656"><ele>689.49347</ele><time>2026-07-21T00:17:56.000Z</time></trkpt>
        <trkpt lat="29.574659" lon="103.392672"><ele>689.7223</ele><time>2026-07-21T00:17:58.000Z</time></trkpt>
        <trkpt lat="29.574674" lon="103.392687"><ele>688.8166</ele><time>2026-07-21T00:18:00.000Z</time></trkpt>
        <trkpt lat="29.574689" lon="103.392698"><ele>689.6388</ele><time>2026-07-21T00:18:02.000Z</time></trkpt>
        <trkpt lat="29.574705" lon="103.392704"><ele>692.94476</ele><time>2026-07-21T00:18:04.000Z</time></trkpt>
        <trkpt lat="29.574721" lon="103.392707"><ele>694.4615</ele><time>2026-07-21T00:18:06.000Z</time></trkpt>
        <trkpt lat="29.574737" lon="103.392706"><ele>694.76886</ele><time>2026-07-21T00:18:08.000Z</time></trkpt>
        <trkpt lat="29.574754" lon="103.392704"><ele>693.2568</ele><time>2026-07-21T00:18:10.000Z</time></trkpt>
        <trkpt lat="29.57477" lon="103.392701"><ele>694.59076</ele><time>2026-07-21T00:18:12.000Z</time></trkpt>
        <trkpt lat="29.574789" lon="103.392696"><ele>693.8907</ele><time>2026-07-21T00:18:14.000Z</time></trkpt>
        <trkpt lat="29.574808" lon="103.392691"><ele>692.54224</ele><time>2026-07-21T00:18:16.000Z</time></trkpt>
        <trkpt lat="29.57483" lon="103.392688"><ele>693.5053</ele><time>2026-07-21T00:18:18.000Z</time></trkpt>
        <trkpt lat="29.574855" lon="103.392687"><ele>693.7827</ele><time>2026-07-21T00:18:20.000Z</time></trkpt>
        <trkpt lat="29.574879" lon="103.392685"><ele>692.1541</ele><time>2026-07-21T00:18:22.000Z</time></trkpt>
        <trkpt lat="29.574902" lon="103.392684"><ele>693.10406</ele><time>2026-07-21T00:18:24.000Z</time></trkpt>
        <trkpt lat="29.574925" lon="103.392685"><ele>693.6845</ele><time>2026-07-21T00:18:26.000Z</time></trkpt>
        <trkpt lat="29.574944" lon="103.392686"><ele>694.40063</ele><time>2026-07-21T00:18:28.000Z</time></trkpt>
        <trkpt lat="29.574962" lon="103.392686"><ele>694.63385</ele><time>2026-07-21T00:18:30.000Z</time></trkpt>
        <trkpt lat="29.574981" lon="103.392687"><ele>694.4815</ele><time>2026-07-21T00:18:32.000Z</time></trkpt>
        <trkpt lat="29.574992" lon="103.392691"><ele>692.0845</ele><time>2026-07-21T00:18:34.000Z</time></trkpt>
        <trkpt lat="29.575002" lon="103.392698"><ele>693.111</ele><time>2026-07-21T00:18:36.000Z</time></trkpt>
        <trkpt lat="29.575017" lon="103.392713"><ele>692.7859</ele><time>2026-07-21T00:18:38.000Z</time></trkpt>
        <trkpt lat="29.575036" lon="103.392735"><ele>694.21814</ele><time>2026-07-21T00:18:40.000Z</time></trkpt>
        <trkpt lat="29.575089" lon="103.392717"><ele>711.6701</ele><time>2026-07-21T00:22:54.000Z</time></trkpt>
        <trkpt lat="29.574999" lon="103.392879"><ele>692.3045</ele><time>2026-07-21T00:23:34.000Z</time></trkpt>
        <trkpt lat="29.574999" lon="103.392878"><ele>692.3045</ele><time>2026-07-21T00:24:05.000Z</time></trkpt>
        <trkpt lat="29.574893" lon="103.392738"><ele>689.3792</ele><time>2026-07-21T00:27:51.000Z</time></trkpt>
        <trkpt lat="29.574893" lon="103.392738"><ele>689.8698</ele><time>2026-07-21T00:27:53.000Z</time></trkpt>
        <trkpt lat="29.574892" lon="103.392738"><ele>689.919</ele><time>2026-07-21T00:27:55.000Z</time></trkpt>
        <trkpt lat="29.574852" lon="103.392742"><ele>690.7113</ele><time>2026-07-21T00:28:01.000Z</time></trkpt>
        <trkpt lat="29.574839" lon="103.392744"><ele>689.29767</ele><time>2026-07-21T00:28:03.000Z</time></trkpt>
        <trkpt lat="29.574838" lon="103.392744"><ele>689.53723</ele><time>2026-07-21T00:28:05.000Z</time></trkpt>
        <trkpt lat="29.574815" lon="103.392744"><ele>689.87616</ele><time>2026-07-21T00:28:11.000Z</time></trkpt>
        <trkpt lat="29.5748" lon="103.392745"><ele>688.5494</ele><time>2026-07-21T00:28:13.000Z</time></trkpt>
        <trkpt lat="29.574784" lon="103.392749"><ele>689.6747</ele><time>2026-07-21T00:28:15.000Z</time></trkpt>
        <trkpt lat="29.574771" lon="103.392756"><ele>691.13586</ele><time>2026-07-21T00:28:17.000Z</time></trkpt>
        <trkpt lat="29.574761" lon="103.392766"><ele>692.5271</ele><time>2026-07-21T00:28:19.000Z</time></trkpt>
        <trkpt lat="29.574754" lon="103.392777"><ele>693.0707</ele><time>2026-07-21T00:28:21.000Z</time></trkpt>
        <trkpt lat="29.574756" lon="103.392785"><ele>692.8559</ele><time>2026-07-21T00:28:23.000Z</time></trkpt>
        <trkpt lat="29.574763" lon="103.392805"><ele>690.2764</ele><time>2026-07-21T00:28:27.000Z</time></trkpt>
        <trkpt lat="29.574769" lon="103.392813"><ele>689.7351</ele><time>2026-07-21T00:28:29.000Z</time></trkpt>
        <trkpt lat="29.574767" lon="103.392819"><ele>688.9938</ele><time>2026-07-21T00:28:31.000Z</time></trkpt>
        <trkpt lat="29.574759" lon="103.392845"><ele>686.49426</ele><time>2026-07-21T00:28:47.000Z</time></trkpt>
        <trkpt lat="29.574751" lon="103.392866"><ele>684.9687</ele><time>2026-07-21T00:28:49.000Z</time></trkpt>
        <trkpt lat="29.574751" lon="103.392867"><ele>683.9969</ele><time>2026-07-21T00:28:51.000Z</time></trkpt>
        <trkpt lat="29.57475" lon="103.392878"><ele>683.0247</ele><time>2026-07-21T00:28:57.000Z</time></trkpt>
        <trkpt lat="29.574749" lon="103.392901"><ele>682.3275</ele><time>2026-07-21T00:29:18.000Z</time></trkpt>
        <trkpt lat="29.574747" lon="103.392905"><ele>681.15375</ele><time>2026-07-21T00:29:20.000Z</time></trkpt>
        <trkpt lat="29.574748" lon="103.392905"><ele>681.04834</ele><time>2026-07-21T00:29:26.000Z</time></trkpt>
        <trkpt lat="29.574717" lon="103.392893"><ele>684.3312</ele><time>2026-07-21T00:34:03.000Z</time></trkpt>
        <trkpt lat="29.574709" lon="103.392891"><ele>684.24664</ele><time>2026-07-21T00:34:05.000Z</time></trkpt>
        <trkpt lat="29.574708" lon="103.392891"><ele>684.8065</ele><time>2026-07-21T00:34:07.000Z</time></trkpt>
        <trkpt lat="29.574749" lon="103.392899"><ele>682.4766</ele><time>2026-07-21T00:34:21.000Z</time></trkpt>
        <trkpt lat="29.574754" lon="103.392899"><ele>682.5816</ele><time>2026-07-21T00:34:23.000Z</time></trkpt>
        <trkpt lat="29.574756" lon="103.392899"><ele>682.5995</ele><time>2026-07-21T00:34:25.000Z</time></trkpt>
        <trkpt lat="29.574717" lon="103.392904"><ele>681.84045</ele><time>2026-07-21T00:35:51.000Z</time></trkpt>
        <trkpt lat="29.57475" lon="103.392847"><ele>685.3475</ele><time>2026-07-21T00:39:44.000Z</time></trkpt>
        <trkpt lat="29.574762" lon="103.392827"><ele>686.2935</ele><time>2026-07-21T00:39:46.000Z</time></trkpt>
        <trkpt lat="29.574764" lon="103.392826"><ele>686.23804</ele><time>2026-07-21T00:39:48.000Z</time></trkpt>
        <trkpt lat="29.574775" lon="103.392825"><ele>686.71783</ele><time>2026-07-21T00:39:54.000Z</time></trkpt>
        <trkpt lat="29.574793" lon="103.392823"><ele>687.6583</ele><time>2026-07-21T00:39:58.000Z</time></trkpt>
        <trkpt lat="29.574793" lon="103.392824"><ele>687.66455</ele><time>2026-07-21T00:40:00.000Z</time></trkpt>
        <trkpt lat="29.574757" lon="103.39277"><ele>689.24304</ele><time>2026-07-21T00:40:10.000Z</time></trkpt>
        <trkpt lat="29.57475" lon="103.392759"><ele>688.84064</ele><time>2026-07-21T00:40:12.000Z</time></trkpt>
        <trkpt lat="29.57475" lon="103.392758"><ele>689.1704</ele><time>2026-07-21T00:40:14.000Z</time></trkpt>
        <trkpt lat="29.574731" lon="103.392733"><ele>689.383</ele><time>2026-07-21T00:40:20.000Z</time></trkpt>
        <trkpt lat="29.574716" lon="103.392715"><ele>690.2726</ele><time>2026-07-21T00:40:22.000Z</time></trkpt>
        <trkpt lat="29.574699" lon="103.392697"><ele>690.87726</ele><time>2026-07-21T00:40:24.000Z</time></trkpt>
        <trkpt lat="29.574683" lon="103.39268"><ele>691.3256</ele><time>2026-07-21T00:40:26.000Z</time></trkpt>
        <trkpt lat="29.574667" lon="103.392663"><ele>690.2467</ele><time>2026-07-21T00:40:28.000Z</time></trkpt>
        <trkpt lat="29.574655" lon="103.39265"><ele>690.8501</ele><time>2026-07-21T00:40:30.000Z</time></trkpt>
        <trkpt lat="29.574647" lon="103.39264"><ele>691.5993</ele><time>2026-07-21T00:40:32.000Z</time></trkpt>
        <trkpt lat="29.57464" lon="103.392634"><ele>692.42615</ele><time>2026-07-21T00:40:34.000Z</time></trkpt>
        <trkpt lat="29.574632" lon="103.392633"><ele>692.7052</ele><time>2026-07-21T00:40:36.000Z</time></trkpt>
        <trkpt lat="29.57461" lon="103.392634"><ele>693.38574</ele><time>2026-07-21T00:40:40.000Z</time></trkpt>
        <trkpt lat="29.574596" lon="103.392637"><ele>693.55</ele><time>2026-07-21T00:40:42.000Z</time></trkpt>
        <trkpt lat="29.574581" lon="103.392643"><ele>694.0046</ele><time>2026-07-21T00:40:44.000Z</time></trkpt>
        <trkpt lat="29.574567" lon="103.39265"><ele>695.4194</ele><time>2026-07-21T00:40:46.000Z</time></trkpt>
        <trkpt lat="29.574554" lon="103.392661"><ele>695.35406</ele><time>2026-07-21T00:40:48.000Z</time></trkpt>
        <trkpt lat="29.574544" lon="103.392671"><ele>696.1221</ele><time>2026-07-21T00:40:50.000Z</time></trkpt>
        <trkpt lat="29.574535" lon="103.392681"><ele>695.14026</ele><time>2026-07-21T00:40:52.000Z</time></trkpt>
        <trkpt lat="29.574529" lon="103.392687"><ele>694.712</ele><time>2026-07-21T00:40:54.000Z</time></trkpt>
        <trkpt lat="29.574522" lon="103.392691"><ele>694.01013</ele><time>2026-07-21T00:40:56.000Z</time></trkpt>
        <trkpt lat="29.574506" lon="103.392693"><ele>693.5531</ele><time>2026-07-21T00:41:00.000Z</time></trkpt>
        <trkpt lat="29.574503" lon="103.39269"><ele>694.0383</ele><time>2026-07-21T00:41:02.000Z</time></trkpt>
        <trkpt lat="29.574484" lon="103.392671"><ele>694.0947</ele><time>2026-07-21T00:41:04.000Z</time></trkpt>
        <trkpt lat="29.574483" lon="103.39267"><ele>693.99854</ele><time>2026-07-21T00:41:06.000Z</time></trkpt>
        <trkpt lat="29.574478" lon="103.392662"><ele>693.8307</ele><time>2026-07-21T00:41:10.000Z</time></trkpt>
        <trkpt lat="29.574462" lon="103.392634"><ele>695.3273</ele><time>2026-07-21T00:41:14.000Z</time></trkpt>
        <trkpt lat="29.574456" lon="103.392618"><ele>695.98956</ele><time>2026-07-21T00:41:16.000Z</time></trkpt>
        <trkpt lat="29.574449" lon="103.392604"><ele>693.0663</ele><time>2026-07-21T00:41:18.000Z</time></trkpt>
        <trkpt lat="29.574443" lon="103.392594"><ele>693.97485</ele><time>2026-07-21T00:41:20.000Z</time></trkpt>
        <trkpt lat="29.574438" lon="103.392585"><ele>694.15454</ele><time>2026-07-21T00:41:22.000Z</time></trkpt>
        <trkpt lat="29.574434" lon="103.392572"><ele>693.4278</ele><time>2026-07-21T00:41:24.000Z</time></trkpt>
        <trkpt lat="29.574432" lon="103.392555"><ele>693.2925</ele><time>2026-07-21T00:41:26.000Z</time></trkpt>
        <trkpt lat="29.57443" lon="103.392544"><ele>692.8432</ele><time>2026-07-21T00:41:28.000Z</time></trkpt>
        <trkpt lat="29.574429" lon="103.39253"><ele>691.8868</ele><time>2026-07-21T00:41:30.000Z</time></trkpt>
        <trkpt lat="29.574428" lon="103.392515"><ele>691.5519</ele><time>2026-07-21T00:41:32.000Z</time></trkpt>
        <trkpt lat="29.574425" lon="103.392501"><ele>692.72644</ele><time>2026-07-21T00:41:34.000Z</time></trkpt>
        <trkpt lat="29.574421" lon="103.392488"><ele>692.88995</ele><time>2026-07-21T00:41:36.000Z</time></trkpt>
        <trkpt lat="29.574418" lon="103.392476"><ele>693.48145</ele><time>2026-07-21T00:41:38.000Z</time></trkpt>
        <trkpt lat="29.574414" lon="103.392463"><ele>693.8219</ele><time>2026-07-21T00:41:40.000Z</time></trkpt>
        <trkpt lat="29.57441" lon="103.392456"><ele>695.62213</ele><time>2026-07-21T00:41:42.000Z</time></trkpt>
        <trkpt lat="29.574401" lon="103.392448"><ele>694.8596</ele><time>2026-07-21T00:41:46.000Z</time></trkpt>
        <trkpt lat="29.574383" lon="103.392433"><ele>694.5058</ele><time>2026-07-21T00:41:48.000Z</time></trkpt>
        <trkpt lat="29.574382" lon="103.392433"><ele>694.4505</ele><time>2026-07-21T00:41:50.000Z</time></trkpt>
        <trkpt lat="29.574371" lon="103.392425"><ele>695.699</ele><time>2026-07-21T00:41:56.000Z</time></trkpt>
        <trkpt lat="29.574355" lon="103.392412"><ele>697.2968</ele><time>2026-07-21T00:42:02.000Z</time></trkpt>
        <trkpt lat="29.574349" lon="103.392406"><ele>697.2013</ele><time>2026-07-21T00:42:04.000Z</time></trkpt>
        <trkpt lat="29.574346" lon="103.3924"><ele>697.37213</ele><time>2026-07-21T00:42:06.000Z</time></trkpt>
        <trkpt lat="29.574332" lon="103.392378"><ele>697.39954</ele><time>2026-07-21T00:42:10.000Z</time></trkpt>
        <trkpt lat="29.574325" lon="103.392366"><ele>697.5751</ele><time>2026-07-21T00:42:12.000Z</time></trkpt>
        <trkpt lat="29.574318" lon="103.392354"><ele>697.7295</ele><time>2026-07-21T00:42:14.000Z</time></trkpt>
        <trkpt lat="29.574312" lon="103.392344"><ele>697.62067</ele><time>2026-07-21T00:42:16.000Z</time></trkpt>
        <trkpt lat="29.57431" lon="103.392335"><ele>697.03455</ele><time>2026-07-21T00:42:18.000Z</time></trkpt>
        <trkpt lat="29.574311" lon="103.392322"><ele>697.0182</ele><time>2026-07-21T00:42:20.000Z</time></trkpt>
        <trkpt lat="29.574315" lon="103.392304"><ele>696.7542</ele><time>2026-07-21T00:42:22.000Z</time></trkpt>
        <trkpt lat="29.574324" lon="103.392278"><ele>696.07983</ele><time>2026-07-21T00:42:24.000Z</time></trkpt>
        <trkpt lat="29.574335" lon="103.392251"><ele>696.2887</ele><time>2026-07-21T00:42:26.000Z</time></trkpt>
        <trkpt lat="29.574346" lon="103.392227"><ele>697.25415</ele><time>2026-07-21T00:42:28.000Z</time></trkpt>
        <trkpt lat="29.574358" lon="103.392207"><ele>698.6382</ele><time>2026-07-21T00:42:30.000Z</time></trkpt>
        <trkpt lat="29.574372" lon="103.392191"><ele>698.0045</ele><time>2026-07-21T00:42:32.000Z</time></trkpt>
        <trkpt lat="29.574386" lon="103.392179"><ele>698.58356</ele><time>2026-07-21T00:42:34.000Z</time></trkpt>
        <trkpt lat="29.574399" lon="103.392172"><ele>698.6178</ele><time>2026-07-21T00:42:36.000Z</time></trkpt>
        <trkpt lat="29.574412" lon="103.392166"><ele>698.618</ele><time>2026-07-21T00:42:38.000Z</time></trkpt>
        <trkpt lat="29.574423" lon="103.392161"><ele>699.254</ele><time>2026-07-21T00:42:40.000Z</time></trkpt>
        <trkpt lat="29.574431" lon="103.392159"><ele>699.32336</ele><time>2026-07-21T00:42:42.000Z</time></trkpt>
        <trkpt lat="29.57444" lon="103.392154"><ele>699.7805</ele><time>2026-07-21T00:42:46.000Z</time></trkpt>
        <trkpt lat="29.574453" lon="103.392152"><ele>700.4744</ele><time>2026-07-21T00:42:54.000Z</time></trkpt>
        <trkpt lat="29.574472" lon="103.392149"><ele>701.29535</ele><time>2026-07-21T00:42:56.000Z</time></trkpt>
        <trkpt lat="29.574474" lon="103.392149"><ele>701.9523</ele><time>2026-07-21T00:42:58.000Z</time></trkpt>
        <trkpt lat="29.574485" lon="103.39215"><ele>703.0247</ele><time>2026-07-21T00:43:02.000Z</time></trkpt>
        <trkpt lat="29.574523" lon="103.392151"><ele>703.78076</ele><time>2026-07-21T00:43:06.000Z</time></trkpt>
        <trkpt lat="29.574545" lon="103.392151"><ele>702.0632</ele><time>2026-07-21T00:43:08.000Z</time></trkpt>
        <trkpt lat="29.574567" lon="103.392152"><ele>702.4315</ele><time>2026-07-21T00:43:10.000Z</time></trkpt>
        <trkpt lat="29.574583" lon="103.392153"><ele>703.5491</ele><time>2026-07-21T00:43:12.000Z</time></trkpt>
        <trkpt lat="29.574595" lon="103.392154"><ele>704.0115</ele><time>2026-07-21T00:43:14.000Z</time></trkpt>
        <trkpt lat="29.574607" lon="103.392154"><ele>704.13257</ele><time>2026-07-21T00:43:16.000Z</time></trkpt>
        <trkpt lat="29.574617" lon="103.392154"><ele>704.03345</ele><time>2026-07-21T00:43:18.000Z</time></trkpt>
        <trkpt lat="29.574629" lon="103.392155"><ele>704.0228</ele><time>2026-07-21T00:43:20.000Z</time></trkpt>
        <trkpt lat="29.57464" lon="103.392157"><ele>704.5993</ele><time>2026-07-21T00:43:22.000Z</time></trkpt>
        <trkpt lat="29.57465" lon="103.392158"><ele>705.6754</ele><time>2026-07-21T00:43:24.000Z</time></trkpt>
        <trkpt lat="29.574659" lon="103.392158"><ele>705.6727</ele><time>2026-07-21T00:43:26.000Z</time></trkpt>
        <trkpt lat="29.574676" lon="103.392157"><ele>707.0201</ele><time>2026-07-21T00:43:30.000Z</time></trkpt>
        <trkpt lat="29.574687" lon="103.392156"><ele>707.3526</ele><time>2026-07-21T00:43:32.000Z</time></trkpt>
        <trkpt lat="29.574699" lon="103.392155"><ele>709.3891</ele><time>2026-07-21T00:43:34.000Z</time></trkpt>
        <trkpt lat="29.574711" lon="103.392155"><ele>710.5289</ele><time>2026-07-21T00:43:36.000Z</time></trkpt>
        <trkpt lat="29.574723" lon="103.392154"><ele>711.3468</ele><time>2026-07-21T00:43:38.000Z</time></trkpt>
        <trkpt lat="29.574732" lon="103.392152"><ele>711.3206</ele><time>2026-07-21T00:43:40.000Z</time></trkpt>
        <trkpt lat="29.57474" lon="103.392153"><ele>710.64026</ele><time>2026-07-21T00:43:42.000Z</time></trkpt>
        <trkpt lat="29.574759" lon="103.392155"><ele>711.7389</ele><time>2026-07-21T00:43:46.000Z</time></trkpt>
        <trkpt lat="29.574767" lon="103.392156"><ele>712.2535</ele><time>2026-07-21T00:43:48.000Z</time></trkpt>
        <trkpt lat="29.574777" lon="103.392156"><ele>712.64923</ele><time>2026-07-21T00:43:50.000Z</time></trkpt>
        <trkpt lat="29.574795" lon="103.392157"><ele>712.59644</ele><time>2026-07-21T00:43:54.000Z</time></trkpt>
        <trkpt lat="29.574803" lon="103.392157"><ele>713.47644</ele><time>2026-07-21T00:43:56.000Z</time></trkpt>
        <trkpt lat="29.57481" lon="103.392156"><ele>713.4844</ele><time>2026-07-21T00:43:58.000Z</time></trkpt>
        <trkpt lat="29.574832" lon="103.392153"><ele>714.1791</ele><time>2026-07-21T00:44:04.000Z</time></trkpt>
        <trkpt lat="29.574841" lon="103.392152"><ele>714.3102</ele><time>2026-07-21T00:44:06.000Z</time></trkpt>
        <trkpt lat="29.574849" lon="103.392151"><ele>714.206</ele><time>2026-07-21T00:44:08.000Z</time></trkpt>
        <trkpt lat="29.57487" lon="103.392152"><ele>713.90314</ele><time>2026-07-21T00:44:12.000Z</time></trkpt>
        <trkpt lat="29.574877" lon="103.392153"><ele>714.9326</ele><time>2026-07-21T00:44:14.000Z</time></trkpt>
        <trkpt lat="29.574882" lon="103.392151"><ele>716.0045</ele><time>2026-07-21T00:44:16.000Z</time></trkpt>
        <trkpt lat="29.574904" lon="103.392141"><ele>717.59845</ele><time>2026-07-21T00:44:32.000Z</time></trkpt>
        <trkpt lat="29.574912" lon="103.392138"><ele>718.5223</ele><time>2026-07-21T00:44:34.000Z</time></trkpt>
        <trkpt lat="29.57492" lon="103.392135"><ele>718.86896</ele><time>2026-07-21T00:44:36.000Z</time></trkpt>
        <trkpt lat="29.574938" lon="103.392128"><ele>719.58575</ele><time>2026-07-21T00:44:40.000Z</time></trkpt>
        <trkpt lat="29.574947" lon="103.392126"><ele>719.5563</ele><time>2026-07-21T00:44:42.000Z</time></trkpt>
        <trkpt lat="29.574955" lon="103.392124"><ele>721.195</ele><time>2026-07-21T00:44:44.000Z</time></trkpt>
        <trkpt lat="29.574976" lon="103.392119"><ele>721.52094</ele><time>2026-07-21T00:44:48.000Z</time></trkpt>
        <trkpt lat="29.574983" lon="103.392116"><ele>721.63464</ele><time>2026-07-21T00:44:50.000Z</time></trkpt>
        <trkpt lat="29.574994" lon="103.392111"><ele>722.71387</ele><time>2026-07-21T00:44:52.000Z</time></trkpt>
        <trkpt lat="29.575004" lon="103.392105"><ele>722.22906</ele><time>2026-07-21T00:44:54.000Z</time></trkpt>
        <trkpt lat="29.575013" lon="103.392098"><ele>722.06415</ele><time>2026-07-21T00:44:56.000Z</time></trkpt>
        <trkpt lat="29.57502" lon="103.392093"><ele>722.5118</ele><time>2026-07-21T00:44:58.000Z</time></trkpt>
        <trkpt lat="29.575029" lon="103.392086"><ele>723.12445</ele><time>2026-07-21T00:45:00.000Z</time></trkpt>
        <trkpt lat="29.57504" lon="103.392077"><ele>723.2898</ele><time>2026-07-21T00:45:02.000Z</time></trkpt>
        <trkpt lat="29.57505" lon="103.392069"><ele>723.65436</ele><time>2026-07-21T00:45:04.000Z</time></trkpt>
        <trkpt lat="29.575059" lon="103.392062"><ele>723.7898</ele><time>2026-07-21T00:45:06.000Z</time></trkpt>
        <trkpt lat="29.575065" lon="103.392058"><ele>724.1261</ele><time>2026-07-21T00:45:08.000Z</time></trkpt>
        <trkpt lat="29.575084" lon="103.39205"><ele>723.15027</ele><time>2026-07-21T00:45:14.000Z</time></trkpt>
        <trkpt lat="29.575091" lon="103.392047"><ele>722.7927</ele><time>2026-07-21T00:45:16.000Z</time></trkpt>
        <trkpt lat="29.575104" lon="103.392043"><ele>722.5007</ele><time>2026-07-21T00:45:18.000Z</time></trkpt>
        <trkpt lat="29.575121" lon="103.392037"><ele>723.3438</ele><time>2026-07-21T00:45:26.000Z</time></trkpt>
        <trkpt lat="29.575141" lon="103.392029"><ele>723.24207</ele><time>2026-07-21T00:45:28.000Z</time></trkpt>
        <trkpt lat="29.575142" lon="103.392028"><ele>722.6006</ele><time>2026-07-21T00:45:30.000Z</time></trkpt>
        <trkpt lat="29.575149" lon="103.392024"><ele>722.8345</ele><time>2026-07-21T00:45:34.000Z</time></trkpt>
        <trkpt lat="29.575193" lon="103.391995"><ele>724.58795</ele><time>2026-07-21T00:45:38.000Z</time></trkpt>
        <trkpt lat="29.575193" lon="103.391995"><ele>726.1442</ele><time>2026-07-21T00:45:40.000Z</time></trkpt>
        <trkpt lat="29.575193" lon="103.391995"><ele>727.357</ele><time>2026-07-21T00:45:42.000Z</time></trkpt>
        <trkpt lat="29.575221" lon="103.391989"><ele>727.55206</ele><time>2026-07-21T00:45:50.000Z</time></trkpt>
        <trkpt lat="29.575233" lon="103.391982"><ele>727.99646</ele><time>2026-07-21T00:45:52.000Z</time></trkpt>
        <trkpt lat="29.575253" lon="103.391967"><ele>726.92413</ele><time>2026-07-21T00:45:54.000Z</time></trkpt>
        <trkpt lat="29.575255" lon="103.391966"><ele>727.55597</ele><time>2026-07-21T00:45:56.000Z</time></trkpt>
        <trkpt lat="29.575265" lon="103.391963"><ele>729.1744</ele><time>2026-07-21T00:46:00.000Z</time></trkpt>
        <trkpt lat="29.575294" lon="103.391953"><ele>730.3049</ele><time>2026-07-21T00:46:04.000Z</time></trkpt>
        <trkpt lat="29.575309" lon="103.391947"><ele>731.358</ele><time>2026-07-21T00:46:06.000Z</time></trkpt>
        <trkpt lat="29.575323" lon="103.391939"><ele>731.5401</ele><time>2026-07-21T00:46:08.000Z</time></trkpt>
        <trkpt lat="29.575335" lon="103.39193"><ele>732.8299</ele><time>2026-07-21T00:46:10.000Z</time></trkpt>
        <trkpt lat="29.575343" lon="103.391926"><ele>733.1192</ele><time>2026-07-21T00:46:12.000Z</time></trkpt>
        <trkpt lat="29.575352" lon="103.391927"><ele>733.63574</ele><time>2026-07-21T00:46:14.000Z</time></trkpt>
        <trkpt lat="29.575372" lon="103.39193"><ele>733.3147</ele><time>2026-07-21T00:46:18.000Z</time></trkpt>
        <trkpt lat="29.575385" lon="103.391929"><ele>731.51544</ele><time>2026-07-21T00:46:20.000Z</time></trkpt>
        <trkpt lat="29.575396" lon="103.391928"><ele>732.4788</ele><time>2026-07-21T00:46:22.000Z</time></trkpt>
        <trkpt lat="29.575407" lon="103.391925"><ele>734.2511</ele><time>2026-07-21T00:46:23.000Z</time></trkpt>
        <trkpt lat="29.575424" lon="103.391919"><ele>735.24524</ele><time>2026-07-21T00:46:27.000Z</time></trkpt>
        <trkpt lat="29.575427" lon="103.391918"><ele>735.1514</ele><time>2026-07-21T00:46:29.000Z</time></trkpt>
        <trkpt lat="29.575444" lon="103.391905"><ele>736.6867</ele><time>2026-07-21T00:46:35.000Z</time></trkpt>
        <trkpt lat="29.57545" lon="103.391901"><ele>736.24945</ele><time>2026-07-21T00:46:41.000Z</time></trkpt>
        <trkpt lat="29.575468" lon="103.391886"><ele>736.91956</ele><time>2026-07-21T00:46:43.000Z</time></trkpt>
        <trkpt lat="29.57547" lon="103.391885"><ele>737.0299</ele><time>2026-07-21T00:46:45.000Z</time></trkpt>
        <trkpt lat="29.575475" lon="103.391886"><ele>736.95807</ele><time>2026-07-21T00:46:49.000Z</time></trkpt>
        <trkpt lat="29.575521" lon="103.39189"><ele>736.2316</ele><time>2026-07-21T00:46:53.000Z</time></trkpt>
        <trkpt lat="29.575521" lon="103.39189"><ele>736.6442</ele><time>2026-07-21T00:46:55.000Z</time></trkpt>
        <trkpt lat="29.575522" lon="103.391891"><ele>736.7792</ele><time>2026-07-21T00:46:57.000Z</time></trkpt>
        <trkpt lat="29.575549" lon="103.39191"><ele>741.44977</ele><time>2026-07-21T00:47:04.000Z</time></trkpt>
        <trkpt lat="29.575553" lon="103.391909"><ele>740.38745</ele><time>2026-07-21T00:47:06.000Z</time></trkpt>
        <trkpt lat="29.57556" lon="103.391912"><ele>741.71985</ele><time>2026-07-21T00:47:08.000Z</time></trkpt>
        <trkpt lat="29.575585" lon="103.391922"><ele>743.84326</ele><time>2026-07-21T00:47:12.000Z</time></trkpt>
        <trkpt lat="29.575585" lon="103.391922"><ele>744.0513</ele><time>2026-07-21T00:47:14.000Z</time></trkpt>
        <trkpt lat="29.575593" lon="103.391923"><ele>743.5712</ele><time>2026-07-21T00:47:18.000Z</time></trkpt>
        <trkpt lat="29.575626" lon="103.391925"><ele>744.80396</ele><time>2026-07-21T00:47:22.000Z</time></trkpt>
        <trkpt lat="29.575644" lon="103.39193"><ele>745.28894</ele><time>2026-07-21T00:47:24.000Z</time></trkpt>
        <trkpt lat="29.575657" lon="103.391937"><ele>745.2832</ele><time>2026-07-21T00:47:26.000Z</time></trkpt>
        <trkpt lat="29.575665" lon="103.391946"><ele>745.7801</ele><time>2026-07-21T00:47:28.000Z</time></trkpt>
        <trkpt lat="29.575673" lon="103.391954"><ele>747.1945</ele><time>2026-07-21T00:47:30.000Z</time></trkpt>
        <trkpt lat="29.57568" lon="103.391956"><ele>748.8818</ele><time>2026-07-21T00:47:32.000Z</time></trkpt>
        <trkpt lat="29.575704" lon="103.391964"><ele>751.7292</ele><time>2026-07-21T00:47:38.000Z</time></trkpt>
        <trkpt lat="29.575704" lon="103.391964"><ele>751.0359</ele><time>2026-07-21T00:47:40.000Z</time></trkpt>
        <trkpt lat="29.575722" lon="103.39198"><ele>752.6903</ele><time>2026-07-21T00:47:42.000Z</time></trkpt>
        <trkpt lat="29.575732" lon="103.391984"><ele>754.109</ele><time>2026-07-21T00:47:50.000Z</time></trkpt>
        <trkpt lat="29.57575" lon="103.391993"><ele>753.442</ele><time>2026-07-21T00:47:52.000Z</time></trkpt>
        <trkpt lat="29.575752" lon="103.391993"><ele>753.81964</ele><time>2026-07-21T00:47:54.000Z</time></trkpt>
        <trkpt lat="29.575767" lon="103.391995"><ele>753.5515</ele><time>2026-07-21T00:48:00.000Z</time></trkpt>
        <trkpt lat="29.575782" lon="103.391998"><ele>752.79297</ele><time>2026-07-21T00:48:04.000Z</time></trkpt>
        <trkpt lat="29.575782" lon="103.391997"><ele>752.79297</ele><time>2026-07-21T00:48:06.000Z</time></trkpt>
        <trkpt lat="29.575797" lon="103.391978"><ele>746.87585</ele><time>2026-07-21T00:50:20.000Z</time></trkpt>
        <trkpt lat="29.575809" lon="103.391964"><ele>746.8068</ele><time>2026-07-21T00:50:22.000Z</time></trkpt>
        <trkpt lat="29.57581" lon="103.391964"><ele>748.1899</ele><time>2026-07-21T00:50:24.000Z</time></trkpt>
        <trkpt lat="29.575834" lon="103.391955"><ele>750.3214</ele><time>2026-07-21T00:50:30.000Z</time></trkpt>
        <trkpt lat="29.575849" lon="103.39195"><ele>750.1639</ele><time>2026-07-21T00:50:32.000Z</time></trkpt>
        <trkpt lat="29.575863" lon="103.391943"><ele>750.2816</ele><time>2026-07-21T00:50:34.000Z</time></trkpt>
        <trkpt lat="29.575882" lon="103.391933"><ele>749.75116</ele><time>2026-07-21T00:50:35.000Z</time></trkpt>
        <trkpt lat="29.5759" lon="103.391923"><ele>749.1976</ele><time>2026-07-21T00:50:37.000Z</time></trkpt>
        <trkpt lat="29.575915" lon="103.391915"><ele>749.2258</ele><time>2026-07-21T00:50:39.000Z</time></trkpt>
        <trkpt lat="29.575925" lon="103.391912"><ele>749.7792</ele><time>2026-07-21T00:50:41.000Z</time></trkpt>
        <trkpt lat="29.575936" lon="103.391909"><ele>751.077</ele><time>2026-07-21T00:50:43.000Z</time></trkpt>
        <trkpt lat="29.575953" lon="103.391906"><ele>752.7171</ele><time>2026-07-21T00:50:47.000Z</time></trkpt>
        <trkpt lat="29.575961" lon="103.391904"><ele>752.997</ele><time>2026-07-21T00:50:49.000Z</time></trkpt>
        <trkpt lat="29.575971" lon="103.391903"><ele>754.1353</ele><time>2026-07-21T00:50:51.000Z</time></trkpt>
        <trkpt lat="29.575982" lon="103.391903"><ele>755.64276</ele><time>2026-07-21T00:50:53.000Z</time></trkpt>
        <trkpt lat="29.576" lon="103.391906"><ele>757.359</ele><time>2026-07-21T00:50:58.000Z</time></trkpt>
        <trkpt lat="29.576014" lon="103.391909"><ele>756.60956</ele><time>2026-07-21T00:51:00.000Z</time></trkpt>
        <trkpt lat="29.576029" lon="103.391913"><ele>755.0928</ele><time>2026-07-21T00:51:02.000Z</time></trkpt>
        <trkpt lat="29.576045" lon="103.39192"><ele>755.60876</ele><time>2026-07-21T00:51:04.000Z</time></trkpt>
        <trkpt lat="29.576062" lon="103.391927"><ele>755.2289</ele><time>2026-07-21T00:51:06.000Z</time></trkpt>
        <trkpt lat="29.576075" lon="103.391932"><ele>754.6134</ele><time>2026-07-21T00:51:08.000Z</time></trkpt>
        <trkpt lat="29.576092" lon="103.391937"><ele>755.2295</ele><time>2026-07-21T00:51:10.000Z</time></trkpt>
        <trkpt lat="29.576108" lon="103.391941"><ele>755.5333</ele><time>2026-07-21T00:51:12.000Z</time></trkpt>
        <trkpt lat="29.576119" lon="103.391947"><ele>756.6978</ele><time>2026-07-21T00:51:14.000Z</time></trkpt>
        <trkpt lat="29.576135" lon="103.391955"><ele>758.3201</ele><time>2026-07-21T00:51:16.000Z</time></trkpt>
        <trkpt lat="29.576145" lon="103.39196"><ele>758.8572</ele><time>2026-07-21T00:51:18.000Z</time></trkpt>
        <trkpt lat="29.576158" lon="103.391965"><ele>758.4148</ele><time>2026-07-21T00:51:20.000Z</time></trkpt>
        <trkpt lat="29.576169" lon="103.39197"><ele>758.9297</ele><time>2026-07-21T00:51:22.000Z</time></trkpt>
        <trkpt lat="29.576182" lon="103.391976"><ele>759.882</ele><time>2026-07-21T00:51:24.000Z</time></trkpt>
        <trkpt lat="29.576196" lon="103.391983"><ele>760.5428</ele><time>2026-07-21T00:51:26.000Z</time></trkpt>
        <trkpt lat="29.576201" lon="103.391987"><ele>762.28564</ele><time>2026-07-21T00:51:28.000Z</time></trkpt>
        <trkpt lat="29.576209" lon="103.391991"><ele>762.4662</ele><time>2026-07-21T00:51:30.000Z</time></trkpt>
        <trkpt lat="29.57623" lon="103.391999"><ele>762.12634</ele><time>2026-07-21T00:51:34.000Z</time></trkpt>
        <trkpt lat="29.576242" lon="103.392004"><ele>762.84064</ele><time>2026-07-21T00:51:36.000Z</time></trkpt>
        <trkpt lat="29.576256" lon="103.39201"><ele>764.168</ele><time>2026-07-21T00:51:38.000Z</time></trkpt>
        <trkpt lat="29.57627" lon="103.392014"><ele>765.133</ele><time>2026-07-21T00:51:40.000Z</time></trkpt>
        <trkpt lat="29.576287" lon="103.392018"><ele>765.4749</ele><time>2026-07-21T00:51:42.000Z</time></trkpt>
        <trkpt lat="29.576295" lon="103.392019"><ele>764.782</ele><time>2026-07-21T00:51:44.000Z</time></trkpt>
        <trkpt lat="29.576308" lon="103.392021"><ele>765.5991</ele><time>2026-07-21T00:51:46.000Z</time></trkpt>
        <trkpt lat="29.576318" lon="103.392021"><ele>766.8463</ele><time>2026-07-21T00:51:50.000Z</time></trkpt>
        <trkpt lat="29.576325" lon="103.392022"><ele>767.11993</ele><time>2026-07-21T00:51:52.000Z</time></trkpt>
        <trkpt lat="29.576344" lon="103.392022"><ele>768.6258</ele><time>2026-07-21T00:51:56.000Z</time></trkpt>
        <trkpt lat="29.576356" lon="103.392023"><ele>767.3499</ele><time>2026-07-21T00:51:58.000Z</time></trkpt>
        <trkpt lat="29.576362" lon="103.392024"><ele>768.1722</ele><time>2026-07-21T00:52:00.000Z</time></trkpt>
        <trkpt lat="29.57638" lon="103.39203"><ele>767.49036</ele><time>2026-07-21T00:52:04.000Z</time></trkpt>
        <trkpt lat="29.576388" lon="103.392032"><ele>768.17664</ele><time>2026-07-21T00:52:06.000Z</time></trkpt>
        <trkpt lat="29.576396" lon="103.392031"><ele>768.6155</ele><time>2026-07-21T00:52:08.000Z</time></trkpt>
        <trkpt lat="29.576415" lon="103.392027"><ele>770.20856</ele><time>2026-07-21T00:52:12.000Z</time></trkpt>
        <trkpt lat="29.576423" lon="103.392023"><ele>771.3724</ele><time>2026-07-21T00:52:14.000Z</time></trkpt>
        <trkpt lat="29.57643" lon="103.392012"><ele>771.2689</ele><time>2026-07-21T00:52:16.000Z</time></trkpt>
        <trkpt lat="29.576442" lon="103.391991"><ele>770.43195</ele><time>2026-07-21T00:52:18.000Z</time></trkpt>
        <trkpt lat="29.576451" lon="103.391977"><ele>771.15796</ele><time>2026-07-21T00:52:20.000Z</time></trkpt>
        <trkpt lat="29.576459" lon="103.391967"><ele>770.7933</ele><time>2026-07-21T00:52:22.000Z</time></trkpt>
        <trkpt lat="29.57647" lon="103.391961"><ele>772.877</ele><time>2026-07-21T00:52:24.000Z</time></trkpt>
        <trkpt lat="29.576485" lon="103.391956"><ele>772.0553</ele><time>2026-07-21T00:52:26.000Z</time></trkpt>
        <trkpt lat="29.5765" lon="103.391952"><ele>770.62164</ele><time>2026-07-21T00:52:28.000Z</time></trkpt>
        <trkpt lat="29.576515" lon="103.391954"><ele>770.7113</ele><time>2026-07-21T00:52:30.000Z</time></trkpt>
        <trkpt lat="29.576525" lon="103.391958"><ele>770.7602</ele><time>2026-07-21T00:52:32.000Z</time></trkpt>
        <trkpt lat="29.576536" lon="103.391965"><ele>769.81854</ele><time>2026-07-21T00:52:34.000Z</time></trkpt>
        <trkpt lat="29.576549" lon="103.391974"><ele>767.5894</ele><time>2026-07-21T00:52:36.000Z</time></trkpt>
        <trkpt lat="29.576563" lon="103.391981"><ele>767.0255</ele><time>2026-07-21T00:52:38.000Z</time></trkpt>
        <trkpt lat="29.576573" lon="103.391981"><ele>766.95197</ele><time>2026-07-21T00:52:40.000Z</time></trkpt>
        <trkpt lat="29.576581" lon="103.391978"><ele>768.7589</ele><time>2026-07-21T00:52:44.000Z</time></trkpt>
        <trkpt lat="29.576605" lon="103.391967"><ele>768.4282</ele><time>2026-07-21T00:52:48.000Z</time></trkpt>
        <trkpt lat="29.576623" lon="103.391963"><ele>768.83307</ele><time>2026-07-21T00:52:50.000Z</time></trkpt>
        <trkpt lat="29.576639" lon="103.391959"><ele>769.44434</ele><time>2026-07-21T00:52:52.000Z</time></trkpt>
        <trkpt lat="29.576654" lon="103.391953"><ele>769.9197</ele><time>2026-07-21T00:52:54.000Z</time></trkpt>
        <trkpt lat="29.576667" lon="103.391948"><ele>769.69904</ele><time>2026-07-21T00:52:56.000Z</time></trkpt>
        <trkpt lat="29.57668" lon="103.391943"><ele>768.9843</ele><time>2026-07-21T00:52:58.000Z</time></trkpt>
        <trkpt lat="29.576694" lon="103.391936"><ele>767.6112</ele><time>2026-07-21T00:53:00.000Z</time></trkpt>
        <trkpt lat="29.57671" lon="103.39193"><ele>766.2824</ele><time>2026-07-21T00:53:02.000Z</time></trkpt>
        <trkpt lat="29.576719" lon="103.391923"><ele>767.6261</ele><time>2026-07-21T00:53:04.000Z</time></trkpt>
        <trkpt lat="29.576729" lon="103.391916"><ele>768.11865</ele><time>2026-07-21T00:53:06.000Z</time></trkpt>
        <trkpt lat="29.576739" lon="103.391907"><ele>770.0109</ele><time>2026-07-21T00:53:08.000Z</time></trkpt>
        <trkpt lat="29.57675" lon="103.391899"><ele>769.65674</ele><time>2026-07-21T00:53:10.000Z</time></trkpt>
        <trkpt lat="29.576763" lon="103.39189"><ele>769.14484</ele><time>2026-07-21T00:53:12.000Z</time></trkpt>
        <trkpt lat="29.576775" lon="103.391881"><ele>768.9938</ele><time>2026-07-21T00:53:14.000Z</time></trkpt>
        <trkpt lat="29.576786" lon="103.39187"><ele>769.8387</ele><time>2026-07-21T00:53:16.000Z</time></trkpt>
        <trkpt lat="29.576797" lon="103.391855"><ele>769.63403</ele><time>2026-07-21T00:53:18.000Z</time></trkpt>
        <trkpt lat="29.576807" lon="103.391839"><ele>770.57947</ele><time>2026-07-21T00:53:20.000Z</time></trkpt>
        <trkpt lat="29.576818" lon="103.391825"><ele>770.8938</ele><time>2026-07-21T00:53:22.000Z</time></trkpt>
        <trkpt lat="29.576826" lon="103.391813"><ele>771.0547</ele><time>2026-07-21T00:53:24.000Z</time></trkpt>
        <trkpt lat="29.576832" lon="103.391802"><ele>770.2811</ele><time>2026-07-21T00:53:26.000Z</time></trkpt>
        <trkpt lat="29.576837" lon="103.391794"><ele>771.2789</ele><time>2026-07-21T00:53:28.000Z</time></trkpt>
        <trkpt lat="29.576842" lon="103.391785"><ele>772.4363</ele><time>2026-07-21T00:53:30.000Z</time></trkpt>
        <trkpt lat="29.576847" lon="103.391772"><ele>772.6123</ele><time>2026-07-21T00:53:32.000Z</time></trkpt>
        <trkpt lat="29.576853" lon="103.391763"><ele>772.92487</ele><time>2026-07-21T00:53:34.000Z</time></trkpt>
        <trkpt lat="29.576857" lon="103.391755"><ele>772.2632</ele><time>2026-07-21T00:53:36.000Z</time></trkpt>
        <trkpt lat="29.576868" lon="103.391733"><ele>771.80054</ele><time>2026-07-21T00:53:40.000Z</time></trkpt>
        <trkpt lat="29.576871" lon="103.391722"><ele>772.779</ele><time>2026-07-21T00:53:42.000Z</time></trkpt>
        <trkpt lat="29.576874" lon="103.391707"><ele>771.8978</ele><time>2026-07-21T00:53:44.000Z</time></trkpt>
        <trkpt lat="29.576878" lon="103.391693"><ele>772.7471</ele><time>2026-07-21T00:53:46.000Z</time></trkpt>
        <trkpt lat="29.576881" lon="103.391683"><ele>773.2455</ele><time>2026-07-21T00:53:48.000Z</time></trkpt>
        <trkpt lat="29.576883" lon="103.391673"><ele>773.7176</ele><time>2026-07-21T00:53:50.000Z</time></trkpt>
        <trkpt lat="29.576888" lon="103.39166"><ele>773.91425</ele><time>2026-07-21T00:53:52.000Z</time></trkpt>
        <trkpt lat="29.576891" lon="103.391648"><ele>774.80615</ele><time>2026-07-21T00:53:54.000Z</time></trkpt>
        <trkpt lat="29.576896" lon="103.391634"><ele>775.3957</ele><time>2026-07-21T00:53:56.000Z</time></trkpt>
        <trkpt lat="29.5769" lon="103.391618"><ele>775.44476</ele><time>2026-07-21T00:53:58.000Z</time></trkpt>
        <trkpt lat="29.576904" lon="103.391605"><ele>777.32275</ele><time>2026-07-21T00:54:00.000Z</time></trkpt>
        <trkpt lat="29.576908" lon="103.391591"><ele>776.8521</ele><time>2026-07-21T00:54:02.000Z</time></trkpt>
        <trkpt lat="29.576913" lon="103.391579"><ele>776.7459</ele><time>2026-07-21T00:54:04.000Z</time></trkpt>
        <trkpt lat="29.576919" lon="103.391567"><ele>776.6216</ele><time>2026-07-21T00:54:06.000Z</time></trkpt>
        <trkpt lat="29.576926" lon="103.391554"><ele>777.0319</ele><time>2026-07-21T00:54:08.000Z</time></trkpt>
        <trkpt lat="29.576931" lon="103.391544"><ele>777.25385</ele><time>2026-07-21T00:54:10.000Z</time></trkpt>
        <trkpt lat="29.576934" lon="103.391535"><ele>777.394</ele><time>2026-07-21T00:54:12.000Z</time></trkpt>
        <trkpt lat="29.576939" lon="103.391523"><ele>777.71497</ele><time>2026-07-21T00:54:14.000Z</time></trkpt>
        <trkpt lat="29.576944" lon="103.391508"><ele>776.86005</ele><time>2026-07-21T00:54:16.000Z</time></trkpt>
        <trkpt lat="29.57695" lon="103.391489"><ele>776.9065</ele><time>2026-07-21T00:54:18.000Z</time></trkpt>
        <trkpt lat="29.576956" lon="103.391469"><ele>776.9444</ele><time>2026-07-21T00:54:20.000Z</time></trkpt>
        <trkpt lat="29.576962" lon="103.391449"><ele>777.86194</ele><time>2026-07-21T00:54:22.000Z</time></trkpt>
        <trkpt lat="29.57697" lon="103.391433"><ele>778.3243</ele><time>2026-07-21T00:54:24.000Z</time></trkpt>
        <trkpt lat="29.576976" lon="103.391423"><ele>778.8542</ele><time>2026-07-21T00:54:26.000Z</time></trkpt>
        <trkpt lat="29.57698" lon="103.391417"><ele>779.0375</ele><time>2026-07-21T00:54:28.000Z</time></trkpt>
        <trkpt lat="29.57699" lon="103.391392"><ele>779.3141</ele><time>2026-07-21T00:54:32.000Z</time></trkpt>
        <trkpt lat="29.576997" lon="103.391377"><ele>779.19165</ele><time>2026-07-21T00:54:34.000Z</time></trkpt>
        <trkpt lat="29.577005" lon="103.391361"><ele>779.23694</ele><time>2026-07-21T00:54:36.000Z</time></trkpt>
        <trkpt lat="29.577013" lon="103.391346"><ele>779.779</ele><time>2026-07-21T00:54:38.000Z</time></trkpt>
        <trkpt lat="29.577021" lon="103.391332"><ele>779.00104</ele><time>2026-07-21T00:54:40.000Z</time></trkpt>
        <trkpt lat="29.577028" lon="103.391319"><ele>778.9826</ele><time>2026-07-21T00:54:42.000Z</time></trkpt>
        <trkpt lat="29.577035" lon="103.391305"><ele>779.17316</ele><time>2026-07-21T00:54:44.000Z</time></trkpt>
        <trkpt lat="29.577043" lon="103.391291"><ele>779.1984</ele><time>2026-07-21T00:54:46.000Z</time></trkpt>
        <trkpt lat="29.577052" lon="103.391274"><ele>779.66156</ele><time>2026-07-21T00:54:47.000Z</time></trkpt>
        <trkpt lat="29.577061" lon="103.391259"><ele>780.5741</ele><time>2026-07-21T00:54:49.000Z</time></trkpt>
        <trkpt lat="29.577072" lon="103.391242"><ele>780.5395</ele><time>2026-07-21T00:54:51.000Z</time></trkpt>
        <trkpt lat="29.577084" lon="103.391227"><ele>782.2875</ele><time>2026-07-21T00:54:53.000Z</time></trkpt>
        <trkpt lat="29.577095" lon="103.391212"><ele>782.3289</ele><time>2026-07-21T00:54:55.000Z</time></trkpt>
        <trkpt lat="29.577105" lon="103.391198"><ele>782.8293</ele><time>2026-07-21T00:54:58.000Z</time></trkpt>
        <trkpt lat="29.577115" lon="103.391182"><ele>782.4707</ele><time>2026-07-21T00:55:00.000Z</time></trkpt>
        <trkpt lat="29.577122" lon="103.391167"><ele>782.9604</ele><time>2026-07-21T00:55:02.000Z</time></trkpt>
        <trkpt lat="29.577125" lon="103.391156"><ele>783.29834</ele><time>2026-07-21T00:55:04.000Z</time></trkpt>
        <trkpt lat="29.577128" lon="103.391147"><ele>783.9398</ele><time>2026-07-21T00:55:06.000Z</time></trkpt>
        <trkpt lat="29.57714" lon="103.391128"><ele>783.3686</ele><time>2026-07-21T00:55:10.000Z</time></trkpt>
        <trkpt lat="29.577147" lon="103.391124"><ele>784.1345</ele><time>2026-07-21T00:55:12.000Z</time></trkpt>
        <trkpt lat="29.577162" lon="103.391114"><ele>785.12396</ele><time>2026-07-21T00:55:14.000Z</time></trkpt>
        <trkpt lat="29.577173" lon="103.391103"><ele>785.48145</ele><time>2026-07-21T00:55:16.000Z</time></trkpt>
        <trkpt lat="29.577183" lon="103.391089"><ele>784.8879</ele><time>2026-07-21T00:55:18.000Z</time></trkpt>
        <trkpt lat="29.577193" lon="103.391072"><ele>785.58344</ele><time>2026-07-21T00:55:20.000Z</time></trkpt>
        <trkpt lat="29.577201" lon="103.391053"><ele>785.3796</ele><time>2026-07-21T00:55:22.000Z</time></trkpt>
        <trkpt lat="29.577208" lon="103.391037"><ele>785.3611</ele><time>2026-07-21T00:55:24.000Z</time></trkpt>
        <trkpt lat="29.577215" lon="103.391023"><ele>784.8618</ele><time>2026-07-21T00:55:26.000Z</time></trkpt>
        <trkpt lat="29.577223" lon="103.39101"><ele>784.691</ele><time>2026-07-21T00:55:28.000Z</time></trkpt>
        <trkpt lat="29.577233" lon="103.391"><ele>784.45197</ele><time>2026-07-21T00:55:30.000Z</time></trkpt>
        <trkpt lat="29.577243" lon="103.390993"><ele>784.35736</ele><time>2026-07-21T00:55:32.000Z</time></trkpt>
        <trkpt lat="29.577254" lon="103.390989"><ele>784.97516</ele><time>2026-07-21T00:55:34.000Z</time></trkpt>
        <trkpt lat="29.577263" lon="103.390986"><ele>785.5509</ele><time>2026-07-21T00:55:36.000Z</time></trkpt>
        <trkpt lat="29.577273" lon="103.390982"><ele>785.79004</ele><time>2026-07-21T00:55:38.000Z</time></trkpt>
        <trkpt lat="29.577283" lon="103.390978"><ele>785.60065</ele><time>2026-07-21T00:55:40.000Z</time></trkpt>
        <trkpt lat="29.577296" lon="103.390974"><ele>784.86084</ele><time>2026-07-21T00:55:42.000Z</time></trkpt>
        <trkpt lat="29.57731" lon="103.39097"><ele>785.2473</ele><time>2026-07-21T00:55:44.000Z</time></trkpt>
        <trkpt lat="29.577326" lon="103.390966"><ele>784.9948</ele><time>2026-07-21T00:55:46.000Z</time></trkpt>
        <trkpt lat="29.577346" lon="103.39096"><ele>785.6841</ele><time>2026-07-21T00:55:48.000Z</time></trkpt>
        <trkpt lat="29.577365" lon="103.390958"><ele>785.31476</ele><time>2026-07-21T00:55:50.000Z</time></trkpt>
        <trkpt lat="29.577385" lon="103.39096"><ele>785.7921</ele><time>2026-07-21T00:55:52.000Z</time></trkpt>
        <trkpt lat="29.577406" lon="103.390966"><ele>786.5395</ele><time>2026-07-21T00:55:54.000Z</time></trkpt>
        <trkpt lat="29.577426" lon="103.390973"><ele>787.20105</ele><time>2026-07-21T00:55:56.000Z</time></trkpt>
        <trkpt lat="29.577444" lon="103.39098"><ele>787.8791</ele><time>2026-07-21T00:55:58.000Z</time></trkpt>
        <trkpt lat="29.57746" lon="103.390988"><ele>789.2994</ele><time>2026-07-21T00:56:00.000Z</time></trkpt>
        <trkpt lat="29.57747" lon="103.390994"><ele>789.2182</ele><time>2026-07-21T00:56:02.000Z</time></trkpt>
        <trkpt lat="29.57748" lon="103.390999"><ele>789.10535</ele><time>2026-07-21T00:56:04.000Z</time></trkpt>
        <trkpt lat="29.577489" lon="103.391004"><ele>788.1383</ele><time>2026-07-21T00:56:06.000Z</time></trkpt>
        <trkpt lat="29.577497" lon="103.391006"><ele>789.44556</ele><time>2026-07-21T00:56:08.000Z</time></trkpt>
      </trkseg>
      <trkseg>
        <trkpt lat="29.577506" lon="103.391012"><ele>797.26337</ele><time>2026-07-21T01:45:09.000Z</time></trkpt>
        <trkpt lat="29.577492" lon="103.390972"><ele>791.25214</ele><time>2026-07-21T01:45:30.000Z</time></trkpt>
        <trkpt lat="29.577499" lon="103.390959"><ele>790.8664</ele><time>2026-07-21T01:45:32.000Z</time></trkpt>
        <trkpt lat="29.577498" lon="103.390958"><ele>790.93634</ele><time>2026-07-21T01:45:34.000Z</time></trkpt>
        <trkpt lat="29.577514" lon="103.391"><ele>789.308</ele><time>2026-07-21T01:45:51.000Z</time></trkpt>
        <trkpt lat="29.577514" lon="103.391"><ele>790.0998</ele><time>2026-07-21T01:45:53.000Z</time></trkpt>
        <trkpt lat="29.577516" lon="103.391002"><ele>790.5364</ele><time>2026-07-21T01:45:55.000Z</time></trkpt>
        <trkpt lat="29.577551" lon="103.391027"><ele>791.6171</ele><time>2026-07-21T01:46:01.000Z</time></trkpt>
        <trkpt lat="29.577568" lon="103.391034"><ele>790.8086</ele><time>2026-07-21T01:46:03.000Z</time></trkpt>
        <trkpt lat="29.577587" lon="103.391038"><ele>791.1333</ele><time>2026-07-21T01:46:05.000Z</time></trkpt>
        <trkpt lat="29.577605" lon="103.391043"><ele>790.7176</ele><time>2026-07-21T01:46:07.000Z</time></trkpt>
        <trkpt lat="29.577622" lon="103.391049"><ele>789.85724</ele><time>2026-07-21T01:46:09.000Z</time></trkpt>
        <trkpt lat="29.577639" lon="103.391055"><ele>789.5755</ele><time>2026-07-21T01:46:11.000Z</time></trkpt>
        <trkpt lat="29.577654" lon="103.391057"><ele>790.17126</ele><time>2026-07-21T01:46:13.000Z</time></trkpt>
        <trkpt lat="29.577665" lon="103.391058"><ele>790.7777</ele><time>2026-07-21T01:46:15.000Z</time></trkpt>
        <trkpt lat="29.577677" lon="103.391058"><ele>791.3722</ele><time>2026-07-21T01:46:17.000Z</time></trkpt>
        <trkpt lat="29.577687" lon="103.391059"><ele>792.0824</ele><time>2026-07-21T01:46:19.000Z</time></trkpt>
        <trkpt lat="29.577703" lon="103.391062"><ele>792.20844</ele><time>2026-07-21T01:46:21.000Z</time></trkpt>
        <trkpt lat="29.577717" lon="103.391067"><ele>792.8108</ele><time>2026-07-21T01:46:23.000Z</time></trkpt>
        <trkpt lat="29.577726" lon="103.391072"><ele>793.9693</ele><time>2026-07-21T01:46:25.000Z</time></trkpt>
        <trkpt lat="29.577735" lon="103.391077"><ele>794.6961</ele><time>2026-07-21T01:46:27.000Z</time></trkpt>
        <trkpt lat="29.577747" lon="103.391084"><ele>795.25183</ele><time>2026-07-21T01:46:29.000Z</time></trkpt>
        <trkpt lat="29.577758" lon="103.39109"><ele>796.2037</ele><time>2026-07-21T01:46:31.000Z</time></trkpt>
        <trkpt lat="29.57777" lon="103.391095"><ele>797.43726</ele><time>2026-07-21T01:46:33.000Z</time></trkpt>
        <trkpt lat="29.577783" lon="103.3911"><ele>797.41583</ele><time>2026-07-21T01:46:35.000Z</time></trkpt>
        <trkpt lat="29.577792" lon="103.391102"><ele>797.52997</ele><time>2026-07-21T01:46:37.000Z</time></trkpt>
        <trkpt lat="29.577805" lon="103.391106"><ele>796.87994</ele><time>2026-07-21T01:46:39.000Z</time></trkpt>
        <trkpt lat="29.577815" lon="103.391108"><ele>797.2664</ele><time>2026-07-21T01:46:41.000Z</time></trkpt>
        <trkpt lat="29.577822" lon="103.391111"><ele>797.78784</ele><time>2026-07-21T01:46:43.000Z</time></trkpt>
        <trkpt lat="29.577839" lon="103.391117"><ele>799.9202</ele><time>2026-07-21T01:46:49.000Z</time></trkpt>
        <trkpt lat="29.577846" lon="103.39112"><ele>801.4877</ele><time>2026-07-21T01:46:51.000Z</time></trkpt>
        <trkpt lat="29.577854" lon="103.391122"><ele>801.3327</ele><time>2026-07-21T01:46:53.000Z</time></trkpt>
        <trkpt lat="29.577876" lon="103.391127"><ele>799.5315</ele><time>2026-07-21T01:46:55.000Z</time></trkpt>
        <trkpt lat="29.577878" lon="103.391126"><ele>799.63824</ele><time>2026-07-21T01:46:57.000Z</time></trkpt>
        <trkpt lat="29.577888" lon="103.391118"><ele>803.3217</ele><time>2026-07-21T01:47:01.000Z</time></trkpt>
        <trkpt lat="29.577899" lon="103.391105"><ele>803.9316</ele><time>2026-07-21T01:47:03.000Z</time></trkpt>
        <trkpt lat="29.577909" lon="103.391088"><ele>803.9607</ele><time>2026-07-21T01:47:05.000Z</time></trkpt>
        <trkpt lat="29.577921" lon="103.39107"><ele>803.5807</ele><time>2026-07-21T01:47:07.000Z</time></trkpt>
        <trkpt lat="29.577934" lon="103.391049"><ele>802.2457</ele><time>2026-07-21T01:47:09.000Z</time></trkpt>
        <trkpt lat="29.577946" lon="103.39103"><ele>801.9987</ele><time>2026-07-21T01:47:11.000Z</time></trkpt>
        <trkpt lat="29.577957" lon="103.391012"><ele>800.4423</ele><time>2026-07-21T01:47:13.000Z</time></trkpt>
        <trkpt lat="29.577971" lon="103.390992"><ele>800.0089</ele><time>2026-07-21T01:47:14.000Z</time></trkpt>
        <trkpt lat="29.577986" lon="103.390973"><ele>799.9748</ele><time>2026-07-21T01:47:16.000Z</time></trkpt>
        <trkpt lat="29.578003" lon="103.390953"><ele>799.9131</ele><time>2026-07-21T01:47:18.000Z</time></trkpt>
        <trkpt lat="29.578018" lon="103.390934"><ele>799.7384</ele><time>2026-07-21T01:47:20.000Z</time></trkpt>
        <trkpt lat="29.57803" lon="103.390918"><ele>800.0422</ele><time>2026-07-21T01:47:22.000Z</time></trkpt>
        <trkpt lat="29.578037" lon="103.390907"><ele>800.41064</ele><time>2026-07-21T01:47:24.000Z</time></trkpt>
        <trkpt lat="29.578047" lon="103.390892"><ele>801.1929</ele><time>2026-07-21T01:47:26.000Z</time></trkpt>
        <trkpt lat="29.578057" lon="103.390875"><ele>802.18994</ele><time>2026-07-21T01:47:28.000Z</time></trkpt>
        <trkpt lat="29.578065" lon="103.390857"><ele>803.5069</ele><time>2026-07-21T01:47:30.000Z</time></trkpt>
        <trkpt lat="29.578074" lon="103.390839"><ele>803.5775</ele><time>2026-07-21T01:47:33.000Z</time></trkpt>
        <trkpt lat="29.57808" lon="103.39082"><ele>804.40405</ele><time>2026-07-21T01:47:35.000Z</time></trkpt>
        <trkpt lat="29.578082" lon="103.390804"><ele>804.1032</ele><time>2026-07-21T01:47:37.000Z</time></trkpt>
        <trkpt lat="29.578086" lon="103.390797"><ele>803.9774</ele><time>2026-07-21T01:47:39.000Z</time></trkpt>
        <trkpt lat="29.578097" lon="103.390776"><ele>804.37585</ele><time>2026-07-21T01:48:08.000Z</time></trkpt>
        <trkpt lat="29.578106" lon="103.390757"><ele>804.08923</ele><time>2026-07-21T01:48:10.000Z</time></trkpt>
        <trkpt lat="29.578117" lon="103.390734"><ele>805.15375</ele><time>2026-07-21T01:48:12.000Z</time></trkpt>
        <trkpt lat="29.578126" lon="103.390715"><ele>807.7942</ele><time>2026-07-21T01:48:15.000Z</time></trkpt>
        <trkpt lat="29.578126" lon="103.390715"><ele>808.32184</ele><time>2026-07-21T01:48:17.000Z</time></trkpt>
        <trkpt lat="29.578138" lon="103.39069"><ele>808.785</ele><time>2026-07-21T01:48:21.000Z</time></trkpt>
        <trkpt lat="29.578151" lon="103.390662"><ele>809.37756</ele><time>2026-07-21T01:48:23.000Z</time></trkpt>
        <trkpt lat="29.578166" lon="103.390631"><ele>809.60583</ele><time>2026-07-21T01:48:25.000Z</time></trkpt>
        <trkpt lat="29.578182" lon="103.390599"><ele>808.4825</ele><time>2026-07-21T01:48:27.000Z</time></trkpt>
        <trkpt lat="29.578197" lon="103.390571"><ele>808.3753</ele><time>2026-07-21T01:48:29.000Z</time></trkpt>
        <trkpt lat="29.578211" lon="103.390544"><ele>807.8364</ele><time>2026-07-21T01:48:31.000Z</time></trkpt>
        <trkpt lat="29.578224" lon="103.39052"><ele>806.66223</ele><time>2026-07-21T01:48:33.000Z</time></trkpt>
        <trkpt lat="29.578236" lon="103.390497"><ele>806.71375</ele><time>2026-07-21T01:48:35.000Z</time></trkpt>
        <trkpt lat="29.578245" lon="103.390478"><ele>807.32086</ele><time>2026-07-21T01:48:37.000Z</time></trkpt>
        <trkpt lat="29.578252" lon="103.390459"><ele>806.6153</ele><time>2026-07-21T01:48:39.000Z</time></trkpt>
        <trkpt lat="29.578261" lon="103.390441"><ele>806.0646</ele><time>2026-07-21T01:48:41.000Z</time></trkpt>
        <trkpt lat="29.57827" lon="103.390422"><ele>805.9412</ele><time>2026-07-21T01:48:43.000Z</time></trkpt>
        <trkpt lat="29.57828" lon="103.390403"><ele>805.24896</ele><time>2026-07-21T01:48:45.000Z</time></trkpt>
        <trkpt lat="29.578288" lon="103.390391"><ele>806.39075</ele><time>2026-07-21T01:48:47.000Z</time></trkpt>
        <trkpt lat="29.578299" lon="103.390374"><ele>806.3947</ele><time>2026-07-21T01:48:49.000Z</time></trkpt>
        <trkpt lat="29.578311" lon="103.390354"><ele>805.6952</ele><time>2026-07-21T01:48:51.000Z</time></trkpt>
        <trkpt lat="29.578324" lon="103.390332"><ele>804.7393</ele><time>2026-07-21T01:48:53.000Z</time></trkpt>
        <trkpt lat="29.578335" lon="103.390311"><ele>804.7932</ele><time>2026-07-21T01:48:55.000Z</time></trkpt>
        <trkpt lat="29.578344" lon="103.390293"><ele>804.8948</ele><time>2026-07-21T01:48:57.000Z</time></trkpt>
        <trkpt lat="29.578351" lon="103.390275"><ele>804.4092</ele><time>2026-07-21T01:48:59.000Z</time></trkpt>
        <trkpt lat="29.578359" lon="103.390252"><ele>804.2279</ele><time>2026-07-21T01:49:01.000Z</time></trkpt>
        <trkpt lat="29.578367" lon="103.390228"><ele>804.2896</ele><time>2026-07-21T01:49:03.000Z</time></trkpt>
        <trkpt lat="29.578374" lon="103.390203"><ele>805.13416</ele><time>2026-07-21T01:49:05.000Z</time></trkpt>
        <trkpt lat="29.578381" lon="103.39018"><ele>805.35223</ele><time>2026-07-21T01:49:07.000Z</time></trkpt>
        <trkpt lat="29.578384" lon="103.390172"><ele>805.5255</ele><time>2026-07-21T01:49:09.000Z</time></trkpt>
        <trkpt lat="29.578387" lon="103.390166"><ele>806.80286</ele><time>2026-07-21T01:49:11.000Z</time></trkpt>
        <trkpt lat="29.578406" lon="103.390137"><ele>806.5709</ele><time>2026-07-21T01:49:15.000Z</time></trkpt>
        <trkpt lat="29.578414" lon="103.390121"><ele>807.0804</ele><time>2026-07-21T01:49:17.000Z</time></trkpt>
        <trkpt lat="29.578423" lon="103.390102"><ele>806.73926</ele><time>2026-07-21T01:49:19.000Z</time></trkpt>
        <trkpt lat="29.578429" lon="103.390084"><ele>807.0316</ele><time>2026-07-21T01:49:20.000Z</time></trkpt>
        <trkpt lat="29.578431" lon="103.390069"><ele>807.5059</ele><time>2026-07-21T01:49:22.000Z</time></trkpt>
        <trkpt lat="29.578434" lon="103.390047"><ele>807.22614</ele><time>2026-07-21T01:49:24.000Z</time></trkpt>
        <trkpt lat="29.578437" lon="103.390022"><ele>807.5643</ele><time>2026-07-21T01:49:26.000Z</time></trkpt>
        <trkpt lat="29.578443" lon="103.39"><ele>807.03613</ele><time>2026-07-21T01:49:28.000Z</time></trkpt>
        <trkpt lat="29.578449" lon="103.389982"><ele>807.6079</ele><time>2026-07-21T01:49:30.000Z</time></trkpt>
        <trkpt lat="29.578458" lon="103.389966"><ele>808.38226</ele><time>2026-07-21T01:49:32.000Z</time></trkpt>
        <trkpt lat="29.578465" lon="103.389949"><ele>808.0255</ele><time>2026-07-21T01:49:34.000Z</time></trkpt>
        <trkpt lat="29.578471" lon="103.389931"><ele>807.83484</ele><time>2026-07-21T01:49:37.000Z</time></trkpt>
        <trkpt lat="29.578476" lon="103.389916"><ele>807.87726</ele><time>2026-07-21T01:49:39.000Z</time></trkpt>
        <trkpt lat="29.578482" lon="103.3899"><ele>809.14014</ele><time>2026-07-21T01:49:41.000Z</time></trkpt>
        <trkpt lat="29.578489" lon="103.389885"><ele>809.6735</ele><time>2026-07-21T01:49:43.000Z</time></trkpt>
        <trkpt lat="29.578498" lon="103.389866"><ele>809.9778</ele><time>2026-07-21T01:49:45.000Z</time></trkpt>
        <trkpt lat="29.578505" lon="103.389851"><ele>810.1756</ele><time>2026-07-21T01:49:47.000Z</time></trkpt>
        <trkpt lat="29.57851" lon="103.389837"><ele>809.18555</ele><time>2026-07-21T01:49:49.000Z</time></trkpt>
        <trkpt lat="29.578514" lon="103.389821"><ele>809.3425</ele><time>2026-07-21T01:49:51.000Z</time></trkpt>
        <trkpt lat="29.57852" lon="103.389804"><ele>809.37897</ele><time>2026-07-21T01:49:53.000Z</time></trkpt>
        <trkpt lat="29.578523" lon="103.389792"><ele>809.8136</ele><time>2026-07-21T01:49:55.000Z</time></trkpt>
        <trkpt lat="29.578528" lon="103.389772"><ele>810.49207</ele><time>2026-07-21T01:49:57.000Z</time></trkpt>
        <trkpt lat="29.578529" lon="103.389756"><ele>811.4101</ele><time>2026-07-21T01:49:59.000Z</time></trkpt>
        <trkpt lat="29.57853" lon="103.389733"><ele>811.35925</ele><time>2026-07-21T01:50:01.000Z</time></trkpt>
        <trkpt lat="29.57853" lon="103.38971"><ele>811.1774</ele><time>2026-07-21T01:50:03.000Z</time></trkpt>
        <trkpt lat="29.57853" lon="103.389686"><ele>811.18024</ele><time>2026-07-21T01:50:05.000Z</time></trkpt>
        <trkpt lat="29.578531" lon="103.389662"><ele>811.8389</ele><time>2026-07-21T01:50:07.000Z</time></trkpt>
        <trkpt lat="29.57853" lon="103.389637"><ele>812.6136</ele><time>2026-07-21T01:50:09.000Z</time></trkpt>
        <trkpt lat="29.57853" lon="103.389615"><ele>813.05023</ele><time>2026-07-21T01:50:11.000Z</time></trkpt>
        <trkpt lat="29.57853" lon="103.389597"><ele>813.1313</ele><time>2026-07-21T01:50:13.000Z</time></trkpt>
        <trkpt lat="29.57853" lon="103.389582"><ele>813.8198</ele><time>2026-07-21T01:50:15.000Z</time></trkpt>
        <trkpt lat="29.57853" lon="103.38956"><ele>814.35425</ele><time>2026-07-21T01:50:17.000Z</time></trkpt>
        <trkpt lat="29.578531" lon="103.389536"><ele>813.7661</ele><time>2026-07-21T01:50:19.000Z</time></trkpt>
        <trkpt lat="29.57853" lon="103.389512"><ele>813.83325</ele><time>2026-07-21T01:50:21.000Z</time></trkpt>
        <trkpt lat="29.578526" lon="103.389486"><ele>814.1424</ele><time>2026-07-21T01:50:23.000Z</time></trkpt>
        <trkpt lat="29.578521" lon="103.389462"><ele>814.53864</ele><time>2026-07-21T01:50:25.000Z</time></trkpt>
        <trkpt lat="29.578518" lon="103.389442"><ele>814.5938</ele><time>2026-07-21T01:50:27.000Z</time></trkpt>
        <trkpt lat="29.578515" lon="103.389421"><ele>815.72504</ele><time>2026-07-21T01:50:29.000Z</time></trkpt>
        <trkpt lat="29.578511" lon="103.389402"><ele>816.07733</ele><time>2026-07-21T01:50:31.000Z</time></trkpt>
        <trkpt lat="29.578507" lon="103.389386"><ele>816.9617</ele><time>2026-07-21T01:50:33.000Z</time></trkpt>
        <trkpt lat="29.578504" lon="103.389367"><ele>816.4531</ele><time>2026-07-21T01:50:35.000Z</time></trkpt>
        <trkpt lat="29.578496" lon="103.389345"><ele>816.3354</ele><time>2026-07-21T01:50:37.000Z</time></trkpt>
        <trkpt lat="29.578485" lon="103.389328"><ele>816.55365</ele><time>2026-07-21T01:50:39.000Z</time></trkpt>
        <trkpt lat="29.578474" lon="103.389316"><ele>816.2037</ele><time>2026-07-21T01:50:41.000Z</time></trkpt>
        <trkpt lat="29.578462" lon="103.389305"><ele>816.16364</ele><time>2026-07-21T01:50:43.000Z</time></trkpt>
        <trkpt lat="29.578448" lon="103.389294"><ele>817.1728</ele><time>2026-07-21T01:50:45.000Z</time></trkpt>
        <trkpt lat="29.578434" lon="103.389282"><ele>818.1093</ele><time>2026-07-21T01:50:47.000Z</time></trkpt>
        <trkpt lat="29.578419" lon="103.389265"><ele>816.84705</ele><time>2026-07-21T01:50:49.000Z</time></trkpt>
        <trkpt lat="29.578407" lon="103.389251"><ele>816.71454</ele><time>2026-07-21T01:50:51.000Z</time></trkpt>
        <trkpt lat="29.578397" lon="103.389235"><ele>817.35406</ele><time>2026-07-21T01:50:53.000Z</time></trkpt>
        <trkpt lat="29.578389" lon="103.389221"><ele>817.10095</ele><time>2026-07-21T01:50:55.000Z</time></trkpt>
        <trkpt lat="29.578383" lon="103.389204"><ele>816.6064</ele><time>2026-07-21T01:50:57.000Z</time></trkpt>
        <trkpt lat="29.578381" lon="103.389185"><ele>815.12195</ele><time>2026-07-21T01:50:59.000Z</time></trkpt>
        <trkpt lat="29.578382" lon="103.389165"><ele>814.5858</ele><time>2026-07-21T01:51:01.000Z</time></trkpt>
        <trkpt lat="29.578384" lon="103.389146"><ele>815.04443</ele><time>2026-07-21T01:51:03.000Z</time></trkpt>
        <trkpt lat="29.578387" lon="103.389131"><ele>815.5289</ele><time>2026-07-21T01:51:05.000Z</time></trkpt>
        <trkpt lat="29.578389" lon="103.389116"><ele>815.1351</ele><time>2026-07-21T01:51:07.000Z</time></trkpt>
        <trkpt lat="29.57839" lon="103.389102"><ele>814.5943</ele><time>2026-07-21T01:51:09.000Z</time></trkpt>
        <trkpt lat="29.578391" lon="103.38908"><ele>813.6258</ele><time>2026-07-21T01:51:11.000Z</time></trkpt>
        <trkpt lat="29.578392" lon="103.389065"><ele>813.6365</ele><time>2026-07-21T01:51:13.000Z</time></trkpt>
        <trkpt lat="29.578394" lon="103.38906"><ele>813.99274</ele><time>2026-07-21T01:51:15.000Z</time></trkpt>
        <trkpt lat="29.578407" lon="103.389032"><ele>813.3748</ele><time>2026-07-21T01:51:29.000Z</time></trkpt>
        <trkpt lat="29.578407" lon="103.389032"><ele>812.85077</ele><time>2026-07-21T01:51:31.000Z</time></trkpt>
        <trkpt lat="29.57841" lon="103.389024"><ele>812.98663</ele><time>2026-07-21T01:51:35.000Z</time></trkpt>
        <trkpt lat="29.578427" lon="103.388982"><ele>812.7869</ele><time>2026-07-21T01:51:39.000Z</time></trkpt>
        <trkpt lat="29.578427" lon="103.388982"><ele>813.314</ele><time>2026-07-21T01:51:41.000Z</time></trkpt>
        <trkpt lat="29.578428" lon="103.388977"><ele>813.6047</ele><time>2026-07-21T01:51:43.000Z</time></trkpt>
        <trkpt lat="29.578447" lon="103.388932"><ele>815.27655</ele><time>2026-07-21T01:51:47.000Z</time></trkpt>
        <trkpt lat="29.578457" lon="103.388909"><ele>815.74347</ele><time>2026-07-21T01:51:49.000Z</time></trkpt>
        <trkpt lat="29.578466" lon="103.388887"><ele>815.3043</ele><time>2026-07-21T01:51:51.000Z</time></trkpt>
        <trkpt lat="29.578469" lon="103.388874"><ele>816.13416</ele><time>2026-07-21T01:51:53.000Z</time></trkpt>
        <trkpt lat="29.578472" lon="103.388871"><ele>815.7332</ele><time>2026-07-21T01:51:55.000Z</time></trkpt>
        <trkpt lat="29.578486" lon="103.388858"><ele>819.6294</ele><time>2026-07-21T01:52:27.000Z</time></trkpt>
        <trkpt lat="29.578497" lon="103.388851"><ele>819.3188</ele><time>2026-07-21T01:52:29.000Z</time></trkpt>
        <trkpt lat="29.578511" lon="103.388843"><ele>819.43634</ele><time>2026-07-21T01:52:31.000Z</time></trkpt>
        <trkpt lat="29.578526" lon="103.388836"><ele>819.9568</ele><time>2026-07-21T01:52:33.000Z</time></trkpt>
        <trkpt lat="29.578527" lon="103.388836"><ele>820.35876</ele><time>2026-07-21T01:52:35.000Z</time></trkpt>
        <trkpt lat="29.578546" lon="103.388833"><ele>820.61536</ele><time>2026-07-21T01:52:39.000Z</time></trkpt>
        <trkpt lat="29.578566" lon="103.388833"><ele>821.028</ele><time>2026-07-21T01:52:41.000Z</time></trkpt>
        <trkpt lat="29.578589" lon="103.388834"><ele>820.1898</ele><time>2026-07-21T01:52:43.000Z</time></trkpt>
        <trkpt lat="29.578609" lon="103.388837"><ele>820.23303</ele><time>2026-07-21T01:52:45.000Z</time></trkpt>
        <trkpt lat="29.57863" lon="103.388844"><ele>820.9137</ele><time>2026-07-21T01:52:47.000Z</time></trkpt>
        <trkpt lat="29.578649" lon="103.388853"><ele>822.211</ele><time>2026-07-21T01:52:49.000Z</time></trkpt>
        <trkpt lat="29.578667" lon="103.388862"><ele>823.3339</ele><time>2026-07-21T01:52:51.000Z</time></trkpt>
        <trkpt lat="29.578683" lon="103.388863"><ele>824.2279</ele><time>2026-07-21T01:52:53.000Z</time></trkpt>
        <trkpt lat="29.578697" lon="103.388861"><ele>823.03094</ele><time>2026-07-21T01:52:55.000Z</time></trkpt>
        <trkpt lat="29.578713" lon="103.388857"><ele>824.6863</ele><time>2026-07-21T01:52:57.000Z</time></trkpt>
        <trkpt lat="29.57873" lon="103.388855"><ele>824.5365</ele><time>2026-07-21T01:52:59.000Z</time></trkpt>
        <trkpt lat="29.578747" lon="103.388852"><ele>822.24884</ele><time>2026-07-21T01:53:01.000Z</time></trkpt>
        <trkpt lat="29.578762" lon="103.388848"><ele>821.9263</ele><time>2026-07-21T01:53:03.000Z</time></trkpt>
        <trkpt lat="29.57878" lon="103.388841"><ele>822.3406</ele><time>2026-07-21T01:53:05.000Z</time></trkpt>
        <trkpt lat="29.578793" lon="103.388832"><ele>821.39246</ele><time>2026-07-21T01:53:07.000Z</time></trkpt>
        <trkpt lat="29.578804" lon="103.388823"><ele>821.5038</ele><time>2026-07-21T01:53:09.000Z</time></trkpt>
        <trkpt lat="29.578817" lon="103.388811"><ele>820.84534</ele><time>2026-07-21T01:53:11.000Z</time></trkpt>
        <trkpt lat="29.578833" lon="103.388797"><ele>819.1715</ele><time>2026-07-21T01:53:13.000Z</time></trkpt>
        <trkpt lat="29.57885" lon="103.388783"><ele>818.8244</ele><time>2026-07-21T01:53:15.000Z</time></trkpt>
        <trkpt lat="29.578868" lon="103.388768"><ele>819.4095</ele><time>2026-07-21T01:53:17.000Z</time></trkpt>
        <trkpt lat="29.578881" lon="103.388755"><ele>819.9865</ele><time>2026-07-21T01:53:19.000Z</time></trkpt>
        <trkpt lat="29.578892" lon="103.388745"><ele>820.5771</ele><time>2026-07-21T01:53:21.000Z</time></trkpt>
        <trkpt lat="29.578904" lon="103.388735"><ele>821.9193</ele><time>2026-07-21T01:53:23.000Z</time></trkpt>
        <trkpt lat="29.578918" lon="103.388723"><ele>822.50836</ele><time>2026-07-21T01:53:25.000Z</time></trkpt>
        <trkpt lat="29.57893" lon="103.388711"><ele>822.4825</ele><time>2026-07-21T01:53:27.000Z</time></trkpt>
        <trkpt lat="29.578938" lon="103.388704"><ele>824.5202</ele><time>2026-07-21T01:53:29.000Z</time></trkpt>
        <trkpt lat="29.578949" lon="103.388694"><ele>825.22046</ele><time>2026-07-21T01:53:31.000Z</time></trkpt>
        <trkpt lat="29.578957" lon="103.388687"><ele>824.938</ele><time>2026-07-21T01:53:32.000Z</time></trkpt>
        <trkpt lat="29.578964" lon="103.388684"><ele>824.2737</ele><time>2026-07-21T01:53:34.000Z</time></trkpt>
        <trkpt lat="29.578986" lon="103.388674"><ele>824.2284</ele><time>2026-07-21T01:53:38.000Z</time></trkpt>
        <trkpt lat="29.578986" lon="103.388674"><ele>823.7253</ele><time>2026-07-21T01:53:40.000Z</time></trkpt>
        <trkpt lat="29.579002" lon="103.388669"><ele>824.5975</ele><time>2026-07-21T01:53:44.000Z</time></trkpt>
        <trkpt lat="29.579017" lon="103.38866"><ele>823.96606</ele><time>2026-07-21T01:53:46.000Z</time></trkpt>
        <trkpt lat="29.57903" lon="103.388643"><ele>823.57806</ele><time>2026-07-21T01:53:49.000Z</time></trkpt>
        <trkpt lat="29.579039" lon="103.388622"><ele>823.7552</ele><time>2026-07-21T01:53:51.000Z</time></trkpt>
        <trkpt lat="29.579045" lon="103.388602"><ele>823.29236</ele><time>2026-07-21T01:53:53.000Z</time></trkpt>
        <trkpt lat="29.579049" lon="103.388584"><ele>823.51575</ele><time>2026-07-21T01:53:55.000Z</time></trkpt>
        <trkpt lat="29.579053" lon="103.388564"><ele>823.6578</ele><time>2026-07-21T01:53:57.000Z</time></trkpt>
        <trkpt lat="29.579054" lon="103.388545"><ele>823.6866</ele><time>2026-07-21T01:53:59.000Z</time></trkpt>
        <trkpt lat="29.579054" lon="103.388519"><ele>823.7484</ele><time>2026-07-21T01:54:01.000Z</time></trkpt>
        <trkpt lat="29.579052" lon="103.388493"><ele>824.5734</ele><time>2026-07-21T01:54:03.000Z</time></trkpt>
        <trkpt lat="29.579047" lon="103.388469"><ele>825.767</ele><time>2026-07-21T01:54:05.000Z</time></trkpt>
        <trkpt lat="29.57904" lon="103.38845"><ele>826.9432</ele><time>2026-07-21T01:54:07.000Z</time></trkpt>
        <trkpt lat="29.579033" lon="103.388429"><ele>827.1876</ele><time>2026-07-21T01:54:09.000Z</time></trkpt>
        <trkpt lat="29.579026" lon="103.388414"><ele>826.73627</ele><time>2026-07-21T01:54:11.000Z</time></trkpt>
        <trkpt lat="29.579019" lon="103.388401"><ele>827.24927</ele><time>2026-07-21T01:54:13.000Z</time></trkpt>
        <trkpt lat="29.579017" lon="103.388395"><ele>827.5564</ele><time>2026-07-21T01:54:15.000Z</time></trkpt>
        <trkpt lat="29.579013" lon="103.388372"><ele>829.028</ele><time>2026-07-21T01:54:20.000Z</time></trkpt>
        <trkpt lat="29.579013" lon="103.388366"><ele>831.7498</ele><time>2026-07-21T01:54:26.000Z</time></trkpt>
        <trkpt lat="29.579017" lon="103.388347"><ele>832.6433</ele><time>2026-07-21T01:54:28.000Z</time></trkpt>
        <trkpt lat="29.57902" lon="103.388333"><ele>834.8231</ele><time>2026-07-21T01:54:34.000Z</time></trkpt>
        <trkpt lat="29.579027" lon="103.388303"><ele>835.5441</ele><time>2026-07-21T01:54:36.000Z</time></trkpt>
        <trkpt lat="29.579028" lon="103.388301"><ele>836.1593</ele><time>2026-07-21T01:54:38.000Z</time></trkpt>
        <trkpt lat="29.579028" lon="103.388297"><ele>836.1516</ele><time>2026-07-21T01:54:40.000Z</time></trkpt>
        <trkpt lat="29.579031" lon="103.388267"><ele>836.5781</ele><time>2026-07-21T01:54:44.000Z</time></trkpt>
        <trkpt lat="29.579032" lon="103.388253"><ele>836.9636</ele><time>2026-07-21T01:54:46.000Z</time></trkpt>
        <trkpt lat="29.579032" lon="103.38824"><ele>836.9473</ele><time>2026-07-21T01:54:48.000Z</time></trkpt>
        <trkpt lat="29.579032" lon="103.388221"><ele>837.45575</ele><time>2026-07-21T01:54:50.000Z</time></trkpt>
        <trkpt lat="29.579032" lon="103.388201"><ele>836.7185</ele><time>2026-07-21T01:54:52.000Z</time></trkpt>
        <trkpt lat="29.579035" lon="103.388181"><ele>836.08325</ele><time>2026-07-21T01:54:54.000Z</time></trkpt>
        <trkpt lat="29.579036" lon="103.388174"><ele>834.61816</ele><time>2026-07-21T01:54:56.000Z</time></trkpt>
        <trkpt lat="29.579035" lon="103.38816"><ele>833.86005</ele><time>2026-07-21T01:54:58.000Z</time></trkpt>
        <trkpt lat="29.579034" lon="103.388139"><ele>835.1853</ele><time>2026-07-21T01:55:02.000Z</time></trkpt>
        <trkpt lat="29.579035" lon="103.388135"><ele>834.84625</ele><time>2026-07-21T01:55:04.000Z</time></trkpt>
        <trkpt lat="29.579035" lon="103.388126"><ele>834.4853</ele><time>2026-07-21T01:55:06.000Z</time></trkpt>
        <trkpt lat="29.579032" lon="103.388089"><ele>833.06244</ele><time>2026-07-21T01:55:10.000Z</time></trkpt>
        <trkpt lat="29.579029" lon="103.388069"><ele>832.8991</ele><time>2026-07-21T01:55:12.000Z</time></trkpt>
        <trkpt lat="29.579025" lon="103.388049"><ele>832.74023</ele><time>2026-07-21T01:55:14.000Z</time></trkpt>
        <trkpt lat="29.579022" lon="103.388027"><ele>833.1264</ele><time>2026-07-21T01:55:16.000Z</time></trkpt>
        <trkpt lat="29.579018" lon="103.388001"><ele>833.4058</ele><time>2026-07-21T01:55:18.000Z</time></trkpt>
        <trkpt lat="29.579015" lon="103.387986"><ele>833.2411</ele><time>2026-07-21T01:55:20.000Z</time></trkpt>
        <trkpt lat="29.579014" lon="103.387974"><ele>833.5733</ele><time>2026-07-21T01:55:22.000Z</time></trkpt>
        <trkpt lat="29.579013" lon="103.387961"><ele>832.61426</ele><time>2026-07-21T01:55:24.000Z</time></trkpt>
        <trkpt lat="29.579013" lon="103.38795"><ele>832.4033</ele><time>2026-07-21T01:55:26.000Z</time></trkpt>
        <trkpt lat="29.579013" lon="103.38793"><ele>833.0636</ele><time>2026-07-21T01:55:30.000Z</time></trkpt>
        <trkpt lat="29.579014" lon="103.387916"><ele>832.2862</ele><time>2026-07-21T01:55:32.000Z</time></trkpt>
        <trkpt lat="29.579013" lon="103.387902"><ele>832.8095</ele><time>2026-07-21T01:55:34.000Z</time></trkpt>
        <trkpt lat="29.579012" lon="103.387885"><ele>833.8301</ele><time>2026-07-21T01:55:36.000Z</time></trkpt>
        <trkpt lat="29.579013" lon="103.387874"><ele>833.8779</ele><time>2026-07-21T01:55:38.000Z</time></trkpt>
        <trkpt lat="29.579014" lon="103.387861"><ele>833.5961</ele><time>2026-07-21T01:55:40.000Z</time></trkpt>
        <trkpt lat="29.579014" lon="103.387848"><ele>833.18164</ele><time>2026-07-21T01:55:42.000Z</time></trkpt>
        <trkpt lat="29.579013" lon="103.387833"><ele>834.1014</ele><time>2026-07-21T01:55:44.000Z</time></trkpt>
        <trkpt lat="29.579012" lon="103.387812"><ele>835.04736</ele><time>2026-07-21T01:55:46.000Z</time></trkpt>
        <trkpt lat="29.579011" lon="103.387797"><ele>835.29144</ele><time>2026-07-21T01:55:48.000Z</time></trkpt>
        <trkpt lat="29.57901" lon="103.387783"><ele>835.809</ele><time>2026-07-21T01:55:50.000Z</time></trkpt>
        <trkpt lat="29.579011" lon="103.387762"><ele>836.02423</ele><time>2026-07-21T01:55:52.000Z</time></trkpt>
        <trkpt lat="29.57901" lon="103.387748"><ele>836.9112</ele><time>2026-07-21T01:55:54.000Z</time></trkpt>
        <trkpt lat="29.579009" lon="103.387736"><ele>837.3138</ele><time>2026-07-21T01:55:56.000Z</time></trkpt>
        <trkpt lat="29.579009" lon="103.387713"><ele>837.14325</ele><time>2026-07-21T01:55:58.000Z</time></trkpt>
        <trkpt lat="29.579005" lon="103.38769"><ele>837.26654</ele><time>2026-07-21T01:56:00.000Z</time></trkpt>
        <trkpt lat="29.579001" lon="103.387673"><ele>837.1164</ele><time>2026-07-21T01:56:02.000Z</time></trkpt>
        <trkpt lat="29.578995" lon="103.387652"><ele>836.99286</ele><time>2026-07-21T01:56:04.000Z</time></trkpt>
        <trkpt lat="29.578991" lon="103.387633"><ele>837.55756</ele><time>2026-07-21T01:56:06.000Z</time></trkpt>
        <trkpt lat="29.578986" lon="103.387608"><ele>837.434</ele><time>2026-07-21T01:56:08.000Z</time></trkpt>
        <trkpt lat="29.57898" lon="103.38758"><ele>837.70056</ele><time>2026-07-21T01:56:10.000Z</time></trkpt>
        <trkpt lat="29.578978" lon="103.387558"><ele>837.55554</ele><time>2026-07-21T01:56:12.000Z</time></trkpt>
        <trkpt lat="29.578977" lon="103.38754"><ele>838.72284</ele><time>2026-07-21T01:56:14.000Z</time></trkpt>
        <trkpt lat="29.578978" lon="103.387521"><ele>840.1118</ele><time>2026-07-21T01:56:16.000Z</time></trkpt>
        <trkpt lat="29.578983" lon="103.387502"><ele>840.2045</ele><time>2026-07-21T01:56:18.000Z</time></trkpt>
        <trkpt lat="29.57899" lon="103.387475"><ele>838.7191</ele><time>2026-07-21T01:56:20.000Z</time></trkpt>
        <trkpt lat="29.578996" lon="103.387449"><ele>839.1435</ele><time>2026-07-21T01:56:22.000Z</time></trkpt>
        <trkpt lat="29.579003" lon="103.387434"><ele>839.7078</ele><time>2026-07-21T01:56:24.000Z</time></trkpt>
        <trkpt lat="29.579008" lon="103.387433"><ele>840.94574</ele><time>2026-07-21T01:56:26.000Z</time></trkpt>
        <trkpt lat="29.57902" lon="103.387437"><ele>841.87506</ele><time>2026-07-21T01:56:28.000Z</time></trkpt>
        <trkpt lat="29.579034" lon="103.387445"><ele>842.57135</ele><time>2026-07-21T01:56:30.000Z</time></trkpt>
        <trkpt lat="29.579052" lon="103.387453"><ele>843.40985</ele><time>2026-07-21T01:56:32.000Z</time></trkpt>
        <trkpt lat="29.579069" lon="103.387458"><ele>843.3245</ele><time>2026-07-21T01:56:34.000Z</time></trkpt>
        <trkpt lat="29.579087" lon="103.387462"><ele>843.6395</ele><time>2026-07-21T01:56:36.000Z</time></trkpt>
        <trkpt lat="29.579107" lon="103.387469"><ele>843.9971</ele><time>2026-07-21T01:56:38.000Z</time></trkpt>
        <trkpt lat="29.579123" lon="103.387476"><ele>845.36163</ele><time>2026-07-21T01:56:40.000Z</time></trkpt>
        <trkpt lat="29.57914" lon="103.387485"><ele>845.7766</ele><time>2026-07-21T01:56:42.000Z</time></trkpt>
        <trkpt lat="29.57916" lon="103.387498"><ele>846.1939</ele><time>2026-07-21T01:56:44.000Z</time></trkpt>
        <trkpt lat="29.579183" lon="103.387514"><ele>846.26636</ele><time>2026-07-21T01:56:46.000Z</time></trkpt>
        <trkpt lat="29.579205" lon="103.387525"><ele>846.0332</ele><time>2026-07-21T01:56:48.000Z</time></trkpt>
        <trkpt lat="29.579225" lon="103.387534"><ele>846.3882</ele><time>2026-07-21T01:56:50.000Z</time></trkpt>
        <trkpt lat="29.579096" lon="103.38772"><ele>854.9867</ele><time>2026-07-21T02:00:58.000Z</time></trkpt>
        <trkpt lat="29.578984" lon="103.387809"><ele>831.9593</ele><time>2026-07-21T02:01:07.000Z</time></trkpt>
        <trkpt lat="29.578984" lon="103.38781"><ele>831.9593</ele><time>2026-07-21T02:01:23.000Z</time></trkpt>
        <trkpt lat="29.579154" lon="103.387372"><ele>838.48474</ele><time>2026-07-21T02:01:42.000Z</time></trkpt>
        <trkpt lat="29.579154" lon="103.387372"><ele>836.48145</ele><time>2026-07-21T02:01:44.000Z</time></trkpt>
        <trkpt lat="29.579151" lon="103.387374"><ele>842.15814</ele><time>2026-07-21T02:01:46.000Z</time></trkpt>
        <trkpt lat="29.579069" lon="103.387426"><ele>846.7119</ele><time>2026-07-21T02:01:52.000Z</time></trkpt>
        <trkpt lat="29.579041" lon="103.387436"><ele>847.5907</ele><time>2026-07-21T02:01:54.000Z</time></trkpt>
        <trkpt lat="29.579012" lon="103.387442"><ele>847.17444</ele><time>2026-07-21T02:01:56.000Z</time></trkpt>
        <trkpt lat="29.57899" lon="103.387439"><ele>847.2999</ele><time>2026-07-21T02:01:58.000Z</time></trkpt>
        <trkpt lat="29.578981" lon="103.387431"><ele>847.27814</ele><time>2026-07-21T02:02:00.000Z</time></trkpt>
        <trkpt lat="29.578978" lon="103.387421"><ele>847.944</ele><time>2026-07-21T02:02:02.000Z</time></trkpt>
        <trkpt lat="29.578977" lon="103.387402"><ele>848.2989</ele><time>2026-07-21T02:02:04.000Z</time></trkpt>
        <trkpt lat="29.578979" lon="103.387381"><ele>847.6589</ele><time>2026-07-21T02:02:06.000Z</time></trkpt>
        <trkpt lat="29.578981" lon="103.387365"><ele>847.9332</ele><time>2026-07-21T02:02:08.000Z</time></trkpt>
        <trkpt lat="29.578983" lon="103.387344"><ele>848.2728</ele><time>2026-07-21T02:02:10.000Z</time></trkpt>
        <trkpt lat="29.578985" lon="103.38732"><ele>847.87665</ele><time>2026-07-21T02:02:12.000Z</time></trkpt>
        <trkpt lat="29.578991" lon="103.387294"><ele>847.8625</ele><time>2026-07-21T02:02:14.000Z</time></trkpt>
        <trkpt lat="29.578999" lon="103.387271"><ele>847.2628</ele><time>2026-07-21T02:02:16.000Z</time></trkpt>
        <trkpt lat="29.57901" lon="103.387249"><ele>847.2356</ele><time>2026-07-21T02:02:18.000Z</time></trkpt>
        <trkpt lat="29.579023" lon="103.387226"><ele>846.68414</ele><time>2026-07-21T02:02:20.000Z</time></trkpt>
        <trkpt lat="29.579035" lon="103.387204"><ele>847.5701</ele><time>2026-07-21T02:02:22.000Z</time></trkpt>
        <trkpt lat="29.579046" lon="103.387183"><ele>846.8947</ele><time>2026-07-21T02:02:24.000Z</time></trkpt>
        <trkpt lat="29.579057" lon="103.38716"><ele>845.8665</ele><time>2026-07-21T02:02:26.000Z</time></trkpt>
        <trkpt lat="29.579066" lon="103.387137"><ele>844.92786</ele><time>2026-07-21T02:02:28.000Z</time></trkpt>
        <trkpt lat="29.579075" lon="103.387115"><ele>844.42426</ele><time>2026-07-21T02:02:30.000Z</time></trkpt>
        <trkpt lat="29.579083" lon="103.387097"><ele>844.1742</ele><time>2026-07-21T02:02:32.000Z</time></trkpt>
        <trkpt lat="29.579089" lon="103.387083"><ele>843.1265</ele><time>2026-07-21T02:02:34.000Z</time></trkpt>
        <trkpt lat="29.579094" lon="103.387075"><ele>844.34796</ele><time>2026-07-21T02:02:36.000Z</time></trkpt>
        <trkpt lat="29.5791" lon="103.387067"><ele>844.72595</ele><time>2026-07-21T02:02:38.000Z</time></trkpt>
        <trkpt lat="29.579113" lon="103.38705"><ele>845.34766</ele><time>2026-07-21T02:02:42.000Z</time></trkpt>
        <trkpt lat="29.579117" lon="103.387046"><ele>844.8192</ele><time>2026-07-21T02:02:44.000Z</time></trkpt>
        <trkpt lat="29.579125" lon="103.38704"><ele>844.9936</ele><time>2026-07-21T02:02:46.000Z</time></trkpt>
        <trkpt lat="29.579144" lon="103.387028"><ele>843.76575</ele><time>2026-07-21T02:02:50.000Z</time></trkpt>
        <trkpt lat="29.579152" lon="103.387021"><ele>844.31104</ele><time>2026-07-21T02:02:52.000Z</time></trkpt>
        <trkpt lat="29.579159" lon="103.387014"><ele>845.9969</ele><time>2026-07-21T02:02:54.000Z</time></trkpt>
        <trkpt lat="29.579164" lon="103.387004"><ele>846.53925</ele><time>2026-07-21T02:02:56.000Z</time></trkpt>
        <trkpt lat="29.579169" lon="103.386993"><ele>848.1976</ele><time>2026-07-21T02:02:58.000Z</time></trkpt>
        <trkpt lat="29.579176" lon="103.386983"><ele>848.4556</ele><time>2026-07-21T02:03:00.000Z</time></trkpt>
        <trkpt lat="29.579183" lon="103.386972"><ele>851.39197</ele><time>2026-07-21T02:03:04.000Z</time></trkpt>
        <trkpt lat="29.579192" lon="103.386963"><ele>854.4177</ele><time>2026-07-21T02:03:08.000Z</time></trkpt>
        <trkpt lat="29.579195" lon="103.386954"><ele>855.66254</ele><time>2026-07-21T02:03:10.000Z</time></trkpt>
        <trkpt lat="29.579206" lon="103.386916"><ele>853.8971</ele><time>2026-07-21T02:03:14.000Z</time></trkpt>
        <trkpt lat="29.579206" lon="103.386916"><ele>855.0446</ele><time>2026-07-21T02:03:16.000Z</time></trkpt>
        <trkpt lat="29.579206" lon="103.386916"><ele>857.4521</ele><time>2026-07-21T02:03:18.000Z</time></trkpt>
        <trkpt lat="29.579238" lon="103.386887"><ele>861.75165</ele><time>2026-07-21T02:03:26.000Z</time></trkpt>
        <trkpt lat="29.579246" lon="103.386879"><ele>862.75024</ele><time>2026-07-21T02:03:28.000Z</time></trkpt>
        <trkpt lat="29.579256" lon="103.386867"><ele>862.7712</ele><time>2026-07-21T02:03:30.000Z</time></trkpt>
        <trkpt lat="29.579262" lon="103.386857"><ele>861.1925</ele><time>2026-07-21T02:03:32.000Z</time></trkpt>
        <trkpt lat="29.57927" lon="103.386844"><ele>861.06976</ele><time>2026-07-21T02:03:34.000Z</time></trkpt>
        <trkpt lat="29.579273" lon="103.386835"><ele>861.7977</ele><time>2026-07-21T02:03:38.000Z</time></trkpt>
        <trkpt lat="29.579277" lon="103.386818"><ele>862.31494</ele><time>2026-07-21T02:03:48.000Z</time></trkpt>
        <trkpt lat="29.579281" lon="103.38681"><ele>861.7813</ele><time>2026-07-21T02:03:50.000Z</time></trkpt>
        <trkpt lat="29.579292" lon="103.386785"><ele>860.69763</ele><time>2026-07-21T02:03:52.000Z</time></trkpt>
        <trkpt lat="29.579293" lon="103.386783"><ele>859.1351</ele><time>2026-07-21T02:03:54.000Z</time></trkpt>
        <trkpt lat="29.579301" lon="103.386773"><ele>859.28094</ele><time>2026-07-21T02:03:58.000Z</time></trkpt>
        <trkpt lat="29.579312" lon="103.386761"><ele>859.6855</ele><time>2026-07-21T02:04:00.000Z</time></trkpt>
        <trkpt lat="29.579328" lon="103.386745"><ele>858.7582</ele><time>2026-07-21T02:04:02.000Z</time></trkpt>
        <trkpt lat="29.579338" lon="103.386738"><ele>858.764</ele><time>2026-07-21T02:04:04.000Z</time></trkpt>
        <trkpt lat="29.579338" lon="103.386732"><ele>859.0773</ele><time>2026-07-21T02:04:06.000Z</time></trkpt>
        <trkpt lat="29.579342" lon="103.386711"><ele>861.05286</ele><time>2026-07-21T02:04:18.000Z</time></trkpt>
        <trkpt lat="29.579346" lon="103.386693"><ele>861.7316</ele><time>2026-07-21T02:04:20.000Z</time></trkpt>
        <trkpt lat="29.579347" lon="103.386692"><ele>862.91864</ele><time>2026-07-21T02:04:22.000Z</time></trkpt>
        <trkpt lat="29.579363" lon="103.386671"><ele>864.78253</ele><time>2026-07-21T02:04:26.000Z</time></trkpt>
        <trkpt lat="29.579368" lon="103.38666"><ele>865.13336</ele><time>2026-07-21T02:04:32.000Z</time></trkpt>
        <trkpt lat="29.579373" lon="103.386642"><ele>865.20984</ele><time>2026-07-21T02:04:34.000Z</time></trkpt>
        <trkpt lat="29.579378" lon="103.38662"><ele>865.78955</ele><time>2026-07-21T02:04:36.000Z</time></trkpt>
        <trkpt lat="29.579382" lon="103.386603"><ele>866.41705</ele><time>2026-07-21T02:04:38.000Z</time></trkpt>
        <trkpt lat="29.579383" lon="103.386592"><ele>866.22174</ele><time>2026-07-21T02:04:40.000Z</time></trkpt>
        <trkpt lat="29.579384" lon="103.386581"><ele>866.87646</ele><time>2026-07-21T02:04:42.000Z</time></trkpt>
        <trkpt lat="29.579387" lon="103.386566"><ele>866.0758</ele><time>2026-07-21T02:04:44.000Z</time></trkpt>
        <trkpt lat="29.57939" lon="103.386547"><ele>866.5895</ele><time>2026-07-21T02:04:46.000Z</time></trkpt>
        <trkpt lat="29.579392" lon="103.386531"><ele>868.29034</ele><time>2026-07-21T02:04:48.000Z</time></trkpt>
        <trkpt lat="29.579397" lon="103.386528"><ele>868.45306</ele><time>2026-07-21T02:04:50.000Z</time></trkpt>
        <trkpt lat="29.57941" lon="103.386519"><ele>871.59546</ele><time>2026-07-21T02:04:54.000Z</time></trkpt>
        <trkpt lat="29.579423" lon="103.38651"><ele>875.0937</ele><time>2026-07-21T02:04:58.000Z</time></trkpt>
        <trkpt lat="29.579428" lon="103.386505"><ele>875.9671</ele><time>2026-07-21T02:05:00.000Z</time></trkpt>
        <trkpt lat="29.579427" lon="103.386499"><ele>878.8731</ele><time>2026-07-21T02:05:04.000Z</time></trkpt>
        <trkpt lat="29.579427" lon="103.386474"><ele>877.6547</ele><time>2026-07-21T02:05:10.000Z</time></trkpt>
        <trkpt lat="29.579426" lon="103.386456"><ele>878.51575</ele><time>2026-07-21T02:05:12.000Z</time></trkpt>
        <trkpt lat="29.579426" lon="103.386455"><ele>878.7501</ele><time>2026-07-21T02:05:14.000Z</time></trkpt>
        <trkpt lat="29.579419" lon="103.386436"><ele>880.9489</ele><time>2026-07-21T02:05:20.000Z</time></trkpt>
        <trkpt lat="29.579411" lon="103.386413"><ele>882.21686</ele><time>2026-07-21T02:05:24.000Z</time></trkpt>
        <trkpt lat="29.579411" lon="103.386413"><ele>881.77106</ele><time>2026-07-21T02:05:26.000Z</time></trkpt>
        <trkpt lat="29.579414" lon="103.386399"><ele>880.98236</ele><time>2026-07-21T02:05:30.000Z</time></trkpt>
        <trkpt lat="29.579416" lon="103.38638"><ele>881.41425</ele><time>2026-07-21T02:05:32.000Z</time></trkpt>
        <trkpt lat="29.57942" lon="103.386361"><ele>882.4939</ele><time>2026-07-21T02:05:34.000Z</time></trkpt>
        <trkpt lat="29.579423" lon="103.386339"><ele>881.0868</ele><time>2026-07-21T02:05:36.000Z</time></trkpt>
        <trkpt lat="29.579424" lon="103.386317"><ele>880.51434</ele><time>2026-07-21T02:05:38.000Z</time></trkpt>
        <trkpt lat="29.579422" lon="103.386292"><ele>878.58325</ele><time>2026-07-21T02:05:40.000Z</time></trkpt>
        <trkpt lat="29.57942" lon="103.386267"><ele>877.2452</ele><time>2026-07-21T02:05:42.000Z</time></trkpt>
        <trkpt lat="29.579418" lon="103.386244"><ele>877.5864</ele><time>2026-07-21T02:05:44.000Z</time></trkpt>
        <trkpt lat="29.579419" lon="103.386223"><ele>877.7989</ele><time>2026-07-21T02:05:46.000Z</time></trkpt>
        <trkpt lat="29.579423" lon="103.386212"><ele>879.11194</ele><time>2026-07-21T02:05:48.000Z</time></trkpt>
        <trkpt lat="29.579426" lon="103.386202"><ele>880.6693</ele><time>2026-07-21T02:05:50.000Z</time></trkpt>
        <trkpt lat="29.57943" lon="103.386191"><ele>880.0184</ele><time>2026-07-21T02:05:52.000Z</time></trkpt>
        <trkpt lat="29.579434" lon="103.386179"><ele>878.6059</ele><time>2026-07-21T02:05:54.000Z</time></trkpt>
        <trkpt lat="29.579438" lon="103.386166"><ele>877.8694</ele><time>2026-07-21T02:05:56.000Z</time></trkpt>
        <trkpt lat="29.579438" lon="103.386153"><ele>877.34106</ele><time>2026-07-21T02:05:58.000Z</time></trkpt>
        <trkpt lat="29.579439" lon="103.386145"><ele>877.93085</ele><time>2026-07-21T02:06:00.000Z</time></trkpt>
        <trkpt lat="29.579441" lon="103.386132"><ele>878.12024</ele><time>2026-07-21T02:06:02.000Z</time></trkpt>
        <trkpt lat="29.579443" lon="103.386118"><ele>878.8454</ele><time>2026-07-21T02:06:04.000Z</time></trkpt>
        <trkpt lat="29.579443" lon="103.38611"><ele>878.6956</ele><time>2026-07-21T02:06:06.000Z</time></trkpt>
        <trkpt lat="29.579448" lon="103.386103"><ele>881.16785</ele><time>2026-07-21T02:06:10.000Z</time></trkpt>
        <trkpt lat="29.579452" lon="103.386086"><ele>880.0437</ele><time>2026-07-21T02:06:12.000Z</time></trkpt>
        <trkpt lat="29.579461" lon="103.386049"><ele>878.8575</ele><time>2026-07-21T02:06:18.000Z</time></trkpt>
        <trkpt lat="29.579461" lon="103.386049"><ele>877.16595</ele><time>2026-07-21T02:06:20.000Z</time></trkpt>
        <trkpt lat="29.579462" lon="103.386047"><ele>876.3054</ele><time>2026-07-21T02:06:22.000Z</time></trkpt>
        <trkpt lat="29.579467" lon="103.385992"><ele>876.28253</ele><time>2026-07-21T02:06:28.000Z</time></trkpt>
        <trkpt lat="29.579469" lon="103.385969"><ele>877.0522</ele><time>2026-07-21T02:06:30.000Z</time></trkpt>
        <trkpt lat="29.579473" lon="103.385942"><ele>877.06506</ele><time>2026-07-21T02:06:32.000Z</time></trkpt>
        <trkpt lat="29.579479" lon="103.38592"><ele>877.6163</ele><time>2026-07-21T02:06:34.000Z</time></trkpt>
        <trkpt lat="29.579484" lon="103.385906"><ele>878.1698</ele><time>2026-07-21T02:06:36.000Z</time></trkpt>
        <trkpt lat="29.579486" lon="103.385906"><ele>877.85706</ele><time>2026-07-21T02:06:38.000Z</time></trkpt>
        <trkpt lat="29.579506" lon="103.385905"><ele>888.97705</ele><time>2026-07-21T02:06:53.000Z</time></trkpt>
        <trkpt lat="29.579513" lon="103.385904"><ele>890.93463</ele><time>2026-07-21T02:06:55.000Z</time></trkpt>
        <trkpt lat="29.579525" lon="103.385893"><ele>891.21387</ele><time>2026-07-21T02:06:57.000Z</time></trkpt>
        <trkpt lat="29.579532" lon="103.38588"><ele>893.87823</ele><time>2026-07-21T02:07:05.000Z</time></trkpt>
        <trkpt lat="29.579549" lon="103.385843"><ele>892.2064</ele><time>2026-07-21T02:07:07.000Z</time></trkpt>
        <trkpt lat="29.579551" lon="103.38584"><ele>891.6006</ele><time>2026-07-21T02:07:09.000Z</time></trkpt>
        <trkpt lat="29.579551" lon="103.385838"><ele>892.2899</ele><time>2026-07-21T02:07:11.000Z</time></trkpt>
        <trkpt lat="29.579561" lon="103.385802"><ele>891.285</ele><time>2026-07-21T02:07:17.000Z</time></trkpt>
        <trkpt lat="29.579563" lon="103.385792"><ele>891.2389</ele><time>2026-07-21T02:07:19.000Z</time></trkpt>
        <trkpt lat="29.579566" lon="103.385787"><ele>891.6128</ele><time>2026-07-21T02:07:21.000Z</time></trkpt>
        <trkpt lat="29.579578" lon="103.385774"><ele>892.1255</ele><time>2026-07-21T02:07:29.000Z</time></trkpt>
        <trkpt lat="29.579599" lon="103.38575"><ele>891.5029</ele><time>2026-07-21T02:07:33.000Z</time></trkpt>
        <trkpt lat="29.579599" lon="103.38575"><ele>891.83887</ele><time>2026-07-21T02:07:35.000Z</time></trkpt>
        <trkpt lat="29.5796" lon="103.385749"><ele>891.4577</ele><time>2026-07-21T02:07:37.000Z</time></trkpt>
        <trkpt lat="29.579626" lon="103.385732"><ele>893.8956</ele><time>2026-07-21T02:07:41.000Z</time></trkpt>
        <trkpt lat="29.579626" lon="103.385732"><ele>895.52637</ele><time>2026-07-21T02:07:43.000Z</time></trkpt>
        <trkpt lat="29.579626" lon="103.385729"><ele>895.9971</ele><time>2026-07-21T02:07:45.000Z</time></trkpt>
        <trkpt lat="29.579637" lon="103.385685"><ele>894.0921</ele><time>2026-07-21T02:07:51.000Z</time></trkpt>
        <trkpt lat="29.579643" lon="103.38567"><ele>892.90735</ele><time>2026-07-21T02:07:53.000Z</time></trkpt>
        <trkpt lat="29.579651" lon="103.385652"><ele>891.6199</ele><time>2026-07-21T02:07:55.000Z</time></trkpt>
        <trkpt lat="29.579657" lon="103.385637"><ele>891.8254</ele><time>2026-07-21T02:07:57.000Z</time></trkpt>
        <trkpt lat="29.579663" lon="103.385623"><ele>891.57947</ele><time>2026-07-21T02:07:59.000Z</time></trkpt>
        <trkpt lat="29.57967" lon="103.385607"><ele>891.00183</ele><time>2026-07-21T02:08:01.000Z</time></trkpt>
        <trkpt lat="29.579676" lon="103.385596"><ele>890.0829</ele><time>2026-07-21T02:08:03.000Z</time></trkpt>
        <trkpt lat="29.579679" lon="103.385586"><ele>890.91833</ele><time>2026-07-21T02:08:05.000Z</time></trkpt>
        <trkpt lat="29.579682" lon="103.385576"><ele>890.57837</ele><time>2026-07-21T02:08:07.000Z</time></trkpt>
        <trkpt lat="29.579689" lon="103.385555"><ele>890.4481</ele><time>2026-07-21T02:08:11.000Z</time></trkpt>
        <trkpt lat="29.579694" lon="103.385545"><ele>890.33673</ele><time>2026-07-21T02:08:13.000Z</time></trkpt>
        <trkpt lat="29.579701" lon="103.385539"><ele>891.4238</ele><time>2026-07-21T02:08:15.000Z</time></trkpt>
        <trkpt lat="29.579714" lon="103.385529"><ele>891.65356</ele><time>2026-07-21T02:08:19.000Z</time></trkpt>
        <trkpt lat="29.579721" lon="103.385524"><ele>891.50977</ele><time>2026-07-21T02:08:21.000Z</time></trkpt>
        <trkpt lat="29.579736" lon="103.385516"><ele>892.17035</ele><time>2026-07-21T02:08:23.000Z</time></trkpt>
        <trkpt lat="29.579745" lon="103.385514"><ele>892.2828</ele><time>2026-07-21T02:08:29.000Z</time></trkpt>
        <trkpt lat="29.579756" lon="103.38551"><ele>893.4524</ele><time>2026-07-21T02:08:31.000Z</time></trkpt>
        <trkpt lat="29.579764" lon="103.385505"><ele>894.6841</ele><time>2026-07-21T02:08:33.000Z</time></trkpt>
        <trkpt lat="29.579772" lon="103.385503"><ele>894.8511</ele><time>2026-07-21T02:08:35.000Z</time></trkpt>
        <trkpt lat="29.579789" lon="103.385495"><ele>898.0191</ele><time>2026-07-21T02:08:41.000Z</time></trkpt>
        <trkpt lat="29.579793" lon="103.385492"><ele>899.36505</ele><time>2026-07-21T02:08:43.000Z</time></trkpt>
        <trkpt lat="29.579806" lon="103.38548"><ele>900.2662</ele><time>2026-07-21T02:08:45.000Z</time></trkpt>
        <trkpt lat="29.579813" lon="103.385469"><ele>902.2764</ele><time>2026-07-21T02:08:51.000Z</time></trkpt>
        <trkpt lat="29.579823" lon="103.385455"><ele>900.9527</ele><time>2026-07-21T02:08:53.000Z</time></trkpt>
        <trkpt lat="29.579834" lon="103.385439"><ele>900.62634</ele><time>2026-07-21T02:08:55.000Z</time></trkpt>
        <trkpt lat="29.579846" lon="103.385421"><ele>899.5132</ele><time>2026-07-21T02:08:57.000Z</time></trkpt>
        <trkpt lat="29.579857" lon="103.385405"><ele>899.5526</ele><time>2026-07-21T02:08:59.000Z</time></trkpt>
        <trkpt lat="29.579865" lon="103.385393"><ele>899.80896</ele><time>2026-07-21T02:09:01.000Z</time></trkpt>
        <trkpt lat="29.579873" lon="103.385381"><ele>899.5127</ele><time>2026-07-21T02:09:03.000Z</time></trkpt>
        <trkpt lat="29.579882" lon="103.38537"><ele>899.6767</ele><time>2026-07-21T02:09:05.000Z</time></trkpt>
        <trkpt lat="29.579892" lon="103.385359"><ele>899.50665</ele><time>2026-07-21T02:09:07.000Z</time></trkpt>
        <trkpt lat="29.5799" lon="103.385353"><ele>899.657</ele><time>2026-07-21T02:09:09.000Z</time></trkpt>
        <trkpt lat="29.579908" lon="103.385349"><ele>900.5481</ele><time>2026-07-21T02:09:11.000Z</time></trkpt>
        <trkpt lat="29.579926" lon="103.385337"><ele>901.5614</ele><time>2026-07-21T02:09:15.000Z</time></trkpt>
        <trkpt lat="29.579933" lon="103.385333"><ele>901.78564</ele><time>2026-07-21T02:09:17.000Z</time></trkpt>
        <trkpt lat="29.579942" lon="103.385329"><ele>902.1634</ele><time>2026-07-21T02:09:19.000Z</time></trkpt>
        <trkpt lat="29.579963" lon="103.385319"><ele>905.1914</ele><time>2026-07-21T02:09:23.000Z</time></trkpt>
        <trkpt lat="29.579971" lon="103.385314"><ele>905.826</ele><time>2026-07-21T02:09:25.000Z</time></trkpt>
        <trkpt lat="29.579976" lon="103.385314"><ele>907.7025</ele><time>2026-07-21T02:09:27.000Z</time></trkpt>
        <trkpt lat="29.580003" lon="103.385314"><ele>910.63727</ele><time>2026-07-21T02:09:31.000Z</time></trkpt>
        <trkpt lat="29.580003" lon="103.385314"><ele>910.4057</ele><time>2026-07-21T02:09:33.000Z</time></trkpt>
        <trkpt lat="29.580013" lon="103.385304"><ele>910.18835</ele><time>2026-07-21T02:09:39.000Z</time></trkpt>
        <trkpt lat="29.580036" lon="103.38528"><ele>910.9074</ele><time>2026-07-21T02:09:43.000Z</time></trkpt>
        <trkpt lat="29.580036" lon="103.38528"><ele>910.9476</ele><time>2026-07-21T02:09:45.000Z</time></trkpt>
        <trkpt lat="29.580037" lon="103.385279"><ele>910.23627</ele><time>2026-07-21T02:09:47.000Z</time></trkpt>
        <trkpt lat="29.580072" lon="103.385256"><ele>909.605</ele><time>2026-07-21T02:09:53.000Z</time></trkpt>
        <trkpt lat="29.580086" lon="103.385246"><ele>910.6695</ele><time>2026-07-21T02:09:55.000Z</time></trkpt>
        <trkpt lat="29.5801" lon="103.385236"><ele>911.6701</ele><time>2026-07-21T02:09:57.000Z</time></trkpt>
        <trkpt lat="29.580113" lon="103.385224"><ele>912.03107</ele><time>2026-07-21T02:09:59.000Z</time></trkpt>
        <trkpt lat="29.580126" lon="103.385212"><ele>911.96533</ele><time>2026-07-21T02:10:01.000Z</time></trkpt>
        <trkpt lat="29.580137" lon="103.385198"><ele>911.511</ele><time>2026-07-21T02:10:03.000Z</time></trkpt>
        <trkpt lat="29.580149" lon="103.385179"><ele>910.5165</ele><time>2026-07-21T02:10:05.000Z</time></trkpt>
        <trkpt lat="29.580159" lon="103.385159"><ele>910.9099</ele><time>2026-07-21T02:10:07.000Z</time></trkpt>
        <trkpt lat="29.580167" lon="103.38514"><ele>911.0643</ele><time>2026-07-21T02:10:09.000Z</time></trkpt>
        <trkpt lat="29.580175" lon="103.385119"><ele>911.33154</ele><time>2026-07-21T02:10:11.000Z</time></trkpt>
        <trkpt lat="29.580183" lon="103.385102"><ele>911.03754</ele><time>2026-07-21T02:10:13.000Z</time></trkpt>
        <trkpt lat="29.580192" lon="103.385084"><ele>911.62616</ele><time>2026-07-21T02:10:15.000Z</time></trkpt>
        <trkpt lat="29.580202" lon="103.385069"><ele>912.15265</ele><time>2026-07-21T02:10:17.000Z</time></trkpt>
        <trkpt lat="29.58021" lon="103.385055"><ele>911.9332</ele><time>2026-07-21T02:10:19.000Z</time></trkpt>
        <trkpt lat="29.580221" lon="103.385039"><ele>912.358</ele><time>2026-07-21T02:10:21.000Z</time></trkpt>
        <trkpt lat="29.580233" lon="103.385023"><ele>912.5473</ele><time>2026-07-21T02:10:23.000Z</time></trkpt>
        <trkpt lat="29.580246" lon="103.385008"><ele>913.1502</ele><time>2026-07-21T02:10:25.000Z</time></trkpt>
        <trkpt lat="29.58026" lon="103.384991"><ele>913.2975</ele><time>2026-07-21T02:10:27.000Z</time></trkpt>
        <trkpt lat="29.580275" lon="103.384972"><ele>913.31525</ele><time>2026-07-21T02:10:29.000Z</time></trkpt>
        <trkpt lat="29.58029" lon="103.384955"><ele>912.96515</ele><time>2026-07-21T02:10:31.000Z</time></trkpt>
        <trkpt lat="29.580303" lon="103.384945"><ele>913.1192</ele><time>2026-07-21T02:10:33.000Z</time></trkpt>
        <trkpt lat="29.580316" lon="103.384934"><ele>913.1889</ele><time>2026-07-21T02:10:35.000Z</time></trkpt>
        <trkpt lat="29.580326" lon="103.384924"><ele>913.11536</ele><time>2026-07-21T02:10:37.000Z</time></trkpt>
        <trkpt lat="29.580335" lon="103.384915"><ele>913.36993</ele><time>2026-07-21T02:10:39.000Z</time></trkpt>
        <trkpt lat="29.580341" lon="103.384906"><ele>914.33777</ele><time>2026-07-21T02:10:41.000Z</time></trkpt>
        <trkpt lat="29.580348" lon="103.384895"><ele>916.69666</ele><time>2026-07-21T02:10:43.000Z</time></trkpt>
        <trkpt lat="29.580356" lon="103.38488"><ele>917.6702</ele><time>2026-07-21T02:10:45.000Z</time></trkpt>
        <trkpt lat="29.580364" lon="103.384865"><ele>919.8139</ele><time>2026-07-21T02:10:47.000Z</time></trkpt>
        <trkpt lat="29.580371" lon="103.384854"><ele>920.89655</ele><time>2026-07-21T02:10:49.000Z</time></trkpt>
        <trkpt lat="29.580379" lon="103.384842"><ele>920.88086</ele><time>2026-07-21T02:10:51.000Z</time></trkpt>
        <trkpt lat="29.580387" lon="103.38483"><ele>920.8685</ele><time>2026-07-21T02:10:53.000Z</time></trkpt>
        <trkpt lat="29.580397" lon="103.384817"><ele>920.57056</ele><time>2026-07-21T02:10:55.000Z</time></trkpt>
        <trkpt lat="29.580408" lon="103.384805"><ele>919.9734</ele><time>2026-07-21T02:10:57.000Z</time></trkpt>
        <trkpt lat="29.58042" lon="103.384793"><ele>921.1328</ele><time>2026-07-21T02:10:59.000Z</time></trkpt>
        <trkpt lat="29.580429" lon="103.384784"><ele>921.6555</ele><time>2026-07-21T02:11:01.000Z</time></trkpt>
        <trkpt lat="29.580436" lon="103.384774"><ele>921.569</ele><time>2026-07-21T02:11:03.000Z</time></trkpt>
        <trkpt lat="29.580444" lon="103.384763"><ele>921.9685</ele><time>2026-07-21T02:11:05.000Z</time></trkpt>
        <trkpt lat="29.580452" lon="103.384755"><ele>921.5434</ele><time>2026-07-21T02:11:07.000Z</time></trkpt>
        <trkpt lat="29.580463" lon="103.384744"><ele>920.51825</ele><time>2026-07-21T02:11:09.000Z</time></trkpt>
        <trkpt lat="29.580473" lon="103.384731"><ele>919.6174</ele><time>2026-07-21T02:11:11.000Z</time></trkpt>
        <trkpt lat="29.580483" lon="103.384715"><ele>919.1972</ele><time>2026-07-21T02:11:13.000Z</time></trkpt>
        <trkpt lat="29.58049" lon="103.3847"><ele>919.76965</ele><time>2026-07-21T02:11:15.000Z</time></trkpt>
        <trkpt lat="29.580496" lon="103.384686"><ele>919.6789</ele><time>2026-07-21T02:11:17.000Z</time></trkpt>
        <trkpt lat="29.580501" lon="103.384673"><ele>920.35</ele><time>2026-07-21T02:11:19.000Z</time></trkpt>
        <trkpt lat="29.580506" lon="103.384666"><ele>920.68555</ele><time>2026-07-21T02:11:21.000Z</time></trkpt>
        <trkpt lat="29.580511" lon="103.384657"><ele>920.2733</ele><time>2026-07-21T02:11:23.000Z</time></trkpt>
        <trkpt lat="29.580521" lon="103.384641"><ele>921.3828</ele><time>2026-07-21T02:11:27.000Z</time></trkpt>
        <trkpt lat="29.58053" lon="103.384626"><ele>921.53546</ele><time>2026-07-21T02:11:29.000Z</time></trkpt>
        <trkpt lat="29.580531" lon="103.384625"><ele>921.48157</ele><time>2026-07-21T02:11:31.000Z</time></trkpt>
        <trkpt lat="29.580544" lon="103.384607"><ele>921.5801</ele><time>2026-07-21T02:11:37.000Z</time></trkpt>
        <trkpt lat="29.580554" lon="103.384597"><ele>921.72894</ele><time>2026-07-21T02:11:39.000Z</time></trkpt>
        <trkpt lat="29.580564" lon="103.384584"><ele>921.38885</ele><time>2026-07-21T02:11:41.000Z</time></trkpt>
        <trkpt lat="29.580573" lon="103.384574"><ele>922.6747</ele><time>2026-07-21T02:11:43.000Z</time></trkpt>
        <trkpt lat="29.58058" lon="103.384563"><ele>923.9185</ele><time>2026-07-21T02:11:45.000Z</time></trkpt>
        <trkpt lat="29.580589" lon="103.38455"><ele>924.4299</ele><time>2026-07-21T02:11:47.000Z</time></trkpt>
        <trkpt lat="29.580597" lon="103.384538"><ele>925.5025</ele><time>2026-07-21T02:11:49.000Z</time></trkpt>
        <trkpt lat="29.580602" lon="103.384532"><ele>926.3807</ele><time>2026-07-21T02:11:51.000Z</time></trkpt>
        <trkpt lat="29.580611" lon="103.384526"><ele>927.77386</ele><time>2026-07-21T02:11:53.000Z</time></trkpt>
        <trkpt lat="29.580627" lon="103.384513"><ele>929.2878</ele><time>2026-07-21T02:11:57.000Z</time></trkpt>
        <trkpt lat="29.580638" lon="103.384504"><ele>930.15515</ele><time>2026-07-21T02:11:59.000Z</time></trkpt>
        <trkpt lat="29.580644" lon="103.384496"><ele>930.3195</ele><time>2026-07-21T02:12:01.000Z</time></trkpt>
        <trkpt lat="29.580653" lon="103.384484"><ele>930.1977</ele><time>2026-07-21T02:12:03.000Z</time></trkpt>
        <trkpt lat="29.580661" lon="103.384477"><ele>930.6865</ele><time>2026-07-21T02:12:05.000Z</time></trkpt>
        <trkpt lat="29.58067" lon="103.384471"><ele>930.7302</ele><time>2026-07-21T02:12:07.000Z</time></trkpt>
        <trkpt lat="29.58068" lon="103.384466"><ele>931.1843</ele><time>2026-07-21T02:12:09.000Z</time></trkpt>
        <trkpt lat="29.580686" lon="103.38446"><ele>932.5393</ele><time>2026-07-21T02:12:11.000Z</time></trkpt>
        <trkpt lat="29.580698" lon="103.384444"><ele>933.5012</ele><time>2026-07-21T02:12:15.000Z</time></trkpt>
        <trkpt lat="29.580703" lon="103.384438"><ele>934.20844</ele><time>2026-07-21T02:12:17.000Z</time></trkpt>
        <trkpt lat="29.580704" lon="103.384431"><ele>935.1545</ele><time>2026-07-21T02:12:19.000Z</time></trkpt>
        <trkpt lat="29.580712" lon="103.384414"><ele>934.737</ele><time>2026-07-21T02:12:27.000Z</time></trkpt>
        <trkpt lat="29.58072" lon="103.384396"><ele>933.6861</ele><time>2026-07-21T02:12:29.000Z</time></trkpt>
        <trkpt lat="29.580721" lon="103.384395"><ele>933.7503</ele><time>2026-07-21T02:12:31.000Z</time></trkpt>
        <trkpt lat="29.580733" lon="103.384384"><ele>934.99756</ele><time>2026-07-21T02:12:37.000Z</time></trkpt>
        <trkpt lat="29.580757" lon="103.384361"><ele>935.7761</ele><time>2026-07-21T02:12:41.000Z</time></trkpt>
        <trkpt lat="29.580757" lon="103.384361"><ele>936.37384</ele><time>2026-07-21T02:12:43.000Z</time></trkpt>
        <trkpt lat="29.580757" lon="103.384361"><ele>936.8505</ele><time>2026-07-21T02:12:45.000Z</time></trkpt>
        <trkpt lat="29.580783" lon="103.384343"><ele>939.4943</ele><time>2026-07-21T02:12:55.000Z</time></trkpt>
        <trkpt lat="29.580785" lon="103.384339"><ele>938.8845</ele><time>2026-07-21T02:12:57.000Z</time></trkpt>
        <trkpt lat="29.580795" lon="103.384325"><ele>938.2467</ele><time>2026-07-21T02:12:59.000Z</time></trkpt>
        <trkpt lat="29.580809" lon="103.384305"><ele>937.8615</ele><time>2026-07-21T02:13:01.000Z</time></trkpt>
        <trkpt lat="29.58081" lon="103.384304"><ele>938.3447</ele><time>2026-07-21T02:13:03.000Z</time></trkpt>
        <trkpt lat="29.580815" lon="103.384298"><ele>937.8047</ele><time>2026-07-21T02:13:07.000Z</time></trkpt>
        <trkpt lat="29.580831" lon="103.384281"><ele>938.2026</ele><time>2026-07-21T02:13:15.000Z</time></trkpt>
        <trkpt lat="29.580837" lon="103.384278"><ele>938.4711</ele><time>2026-07-21T02:13:17.000Z</time></trkpt>
        <trkpt lat="29.580857" lon="103.384269"><ele>938.2073</ele><time>2026-07-21T02:13:19.000Z</time></trkpt>
        <trkpt lat="29.58086" lon="103.384267"><ele>937.9029</ele><time>2026-07-21T02:13:23.000Z</time></trkpt>
        <trkpt lat="29.580865" lon="103.384263"><ele>937.59283</ele><time>2026-07-21T02:13:25.000Z</time></trkpt>
        <trkpt lat="29.580891" lon="103.384241"><ele>938.7159</ele><time>2026-07-21T02:13:29.000Z</time></trkpt>
        <trkpt lat="29.580906" lon="103.38423"><ele>938.2794</ele><time>2026-07-21T02:13:31.000Z</time></trkpt>
        <trkpt lat="29.580918" lon="103.38422"><ele>938.7398</ele><time>2026-07-21T02:13:33.000Z</time></trkpt>
        <trkpt lat="29.580925" lon="103.38421"><ele>939.80536</ele><time>2026-07-21T02:13:35.000Z</time></trkpt>
        <trkpt lat="29.580931" lon="103.3842"><ele>940.0943</ele><time>2026-07-21T02:13:37.000Z</time></trkpt>
        <trkpt lat="29.580935" lon="103.384192"><ele>940.8543</ele><time>2026-07-21T02:13:39.000Z</time></trkpt>
        <trkpt lat="29.580944" lon="103.384182"><ele>942.4259</ele><time>2026-07-21T02:13:43.000Z</time></trkpt>
        <trkpt lat="29.580963" lon="103.38416"><ele>942.6901</ele><time>2026-07-21T02:13:47.000Z</time></trkpt>
        <trkpt lat="29.580963" lon="103.38416"><ele>942.24756</ele><time>2026-07-21T02:13:49.000Z</time></trkpt>
        <trkpt lat="29.580964" lon="103.384163"><ele>941.46027</ele><time>2026-07-21T02:13:53.000Z</time></trkpt>
        <trkpt lat="29.580979" lon="103.384195"><ele>952.0105</ele><time>2026-07-21T02:16:12.000Z</time></trkpt>
        <trkpt lat="29.580979" lon="103.384194"><ele>952.0105</ele><time>2026-07-21T02:16:28.000Z</time></trkpt>
        <trkpt lat="29.580981" lon="103.384218"><ele>957.51855</ele><time>2026-07-21T02:16:38.000Z</time></trkpt>
        <trkpt lat="29.580986" lon="103.384227"><ele>959.38617</ele><time>2026-07-21T02:16:46.000Z</time></trkpt>
        <trkpt lat="29.580995" lon="103.384244"><ele>959.72705</ele><time>2026-07-21T02:16:48.000Z</time></trkpt>
        <trkpt lat="29.580997" lon="103.384247"><ele>961.8256</ele><time>2026-07-21T02:16:52.000Z</time></trkpt>
        <trkpt lat="29.58101" lon="103.384262"><ele>963.8238</ele><time>2026-07-21T02:16:56.000Z</time></trkpt>
        <trkpt lat="29.58102" lon="103.38427"><ele>964.9265</ele><time>2026-07-21T02:16:58.000Z</time></trkpt>
        <trkpt lat="29.581029" lon="103.384278"><ele>965.5437</ele><time>2026-07-21T02:17:00.000Z</time></trkpt>
        <trkpt lat="29.581036" lon="103.384283"><ele>967.08636</ele><time>2026-07-21T02:17:02.000Z</time></trkpt>
        <trkpt lat="29.581046" lon="103.384284"><ele>969.99915</ele><time>2026-07-21T02:17:08.000Z</time></trkpt>
        <trkpt lat="29.581072" lon="103.384297"><ele>973.68915</ele><time>2026-07-21T02:17:23.000Z</time></trkpt>
        <trkpt lat="29.581095" lon="103.384304"><ele>973.9504</ele><time>2026-07-21T02:17:38.000Z</time></trkpt>
        <trkpt lat="29.581136" lon="103.384311"><ele>976.68304</ele><time>2026-07-21T02:17:53.000Z</time></trkpt>
        <trkpt lat="29.58121" lon="103.384322"><ele>979.5287</ele><time>2026-07-21T02:18:08.000Z</time></trkpt>
        <trkpt lat="29.58121" lon="103.384322"><ele>978.90955</ele><time>2026-07-21T02:18:10.000Z</time></trkpt>
        <trkpt lat="29.58121" lon="103.384322"><ele>978.2656</ele><time>2026-07-21T02:18:12.000Z</time></trkpt>
        <trkpt lat="29.581253" lon="103.384343"><ele>978.81244</ele><time>2026-07-21T02:18:20.000Z</time></trkpt>
        <trkpt lat="29.581265" lon="103.384349"><ele>979.2823</ele><time>2026-07-21T02:18:22.000Z</time></trkpt>
        <trkpt lat="29.581271" lon="103.384353"><ele>980.0157</ele><time>2026-07-21T02:18:24.000Z</time></trkpt>
        <trkpt lat="29.581288" lon="103.38436"><ele>979.2013</ele><time>2026-07-21T02:18:28.000Z</time></trkpt>
        <trkpt lat="29.581295" lon="103.384361"><ele>978.5416</ele><time>2026-07-21T02:18:30.000Z</time></trkpt>
        <trkpt lat="29.5813" lon="103.384364"><ele>978.735</ele><time>2026-07-21T02:18:32.000Z</time></trkpt>
        <trkpt lat="29.581327" lon="103.384378"><ele>979.8354</ele><time>2026-07-21T02:18:36.000Z</time></trkpt>
        <trkpt lat="29.581327" lon="103.384378"><ele>979.5063</ele><time>2026-07-21T02:18:38.000Z</time></trkpt>
        <trkpt lat="29.581329" lon="103.384379"><ele>980.0584</ele><time>2026-07-21T02:18:40.000Z</time></trkpt>
        <trkpt lat="29.581357" lon="103.384387"><ele>982.155</ele><time>2026-07-21T02:18:50.000Z</time></trkpt>
        <trkpt lat="29.581357" lon="103.384386"><ele>982.4126</ele><time>2026-07-21T02:18:52.000Z</time></trkpt>
        <trkpt lat="29.58136" lon="103.384381"><ele>981.5392</ele><time>2026-07-21T02:18:54.000Z</time></trkpt>
        <trkpt lat="29.581377" lon="103.384356"><ele>982.3882</ele><time>2026-07-21T02:19:13.000Z</time></trkpt>
        <trkpt lat="29.581377" lon="103.384356"><ele>983.6717</ele><time>2026-07-21T02:19:15.000Z</time></trkpt>
        <trkpt lat="29.581391" lon="103.384363"><ele>984.7422</ele><time>2026-07-21T02:19:17.000Z</time></trkpt>
        <trkpt lat="29.581411" lon="103.384371"><ele>983.76843</ele><time>2026-07-21T02:19:19.000Z</time></trkpt>
        <trkpt lat="29.581413" lon="103.384371"><ele>984.5793</ele><time>2026-07-21T02:19:21.000Z</time></trkpt>
        <trkpt lat="29.581432" lon="103.384374"><ele>983.3701</ele><time>2026-07-21T02:19:25.000Z</time></trkpt>
        <trkpt lat="29.581446" lon="103.384378"><ele>981.74664</ele><time>2026-07-21T02:19:27.000Z</time></trkpt>
        <trkpt lat="29.581466" lon="103.384385"><ele>980.46606</ele><time>2026-07-21T02:19:29.000Z</time></trkpt>
        <trkpt lat="29.581489" lon="103.38439"><ele>981.63544</ele><time>2026-07-21T02:19:31.000Z</time></trkpt>
        <trkpt lat="29.581508" lon="103.384394"><ele>981.9551</ele><time>2026-07-21T02:19:33.000Z</time></trkpt>
        <trkpt lat="29.581527" lon="103.384398"><ele>980.1325</ele><time>2026-07-21T02:19:35.000Z</time></trkpt>
        <trkpt lat="29.581542" lon="103.3844"><ele>977.4979</ele><time>2026-07-21T02:19:37.000Z</time></trkpt>
        <trkpt lat="29.581553" lon="103.3844"><ele>977.34955</ele><time>2026-07-21T02:19:39.000Z</time></trkpt>
        <trkpt lat="29.581571" lon="103.384399"><ele>976.7771</ele><time>2026-07-21T02:19:41.000Z</time></trkpt>
        <trkpt lat="29.581594" lon="103.384393"><ele>976.8559</ele><time>2026-07-21T02:19:43.000Z</time></trkpt>
        <trkpt lat="29.581613" lon="103.384383"><ele>974.7259</ele><time>2026-07-21T02:19:45.000Z</time></trkpt>
        <trkpt lat="29.581628" lon="103.384368"><ele>973.49164</ele><time>2026-07-21T02:19:47.000Z</time></trkpt>
        <trkpt lat="29.58164" lon="103.384349"><ele>970.418</ele><time>2026-07-21T02:19:49.000Z</time></trkpt>
        <trkpt lat="29.581649" lon="103.384328"><ele>969.09296</ele><time>2026-07-21T02:19:51.000Z</time></trkpt>
        <trkpt lat="29.58166" lon="103.384303"><ele>967.50494</ele><time>2026-07-21T02:19:53.000Z</time></trkpt>
        <trkpt lat="29.581668" lon="103.38428"><ele>966.40405</ele><time>2026-07-21T02:19:55.000Z</time></trkpt>
        <trkpt lat="29.58167" lon="103.384269"><ele>966.03894</ele><time>2026-07-21T02:19:57.000Z</time></trkpt>
        <trkpt lat="29.58167" lon="103.384251"><ele>966.1999</ele><time>2026-07-21T02:19:59.000Z</time></trkpt>
        <trkpt lat="29.581665" lon="103.384234"><ele>965.7302</ele><time>2026-07-21T02:20:01.000Z</time></trkpt>
        <trkpt lat="29.581658" lon="103.384217"><ele>966.5564</ele><time>2026-07-21T02:20:03.000Z</time></trkpt>
        <trkpt lat="29.58165" lon="103.384198"><ele>965.888</ele><time>2026-07-21T02:20:05.000Z</time></trkpt>
        <trkpt lat="29.581645" lon="103.384184"><ele>966.5183</ele><time>2026-07-21T02:20:07.000Z</time></trkpt>
        <trkpt lat="29.58164" lon="103.384182"><ele>968.2298</ele><time>2026-07-21T02:20:09.000Z</time></trkpt>
        <trkpt lat="29.581624" lon="103.384177"><ele>970.14886</ele><time>2026-07-21T02:20:13.000Z</time></trkpt>
        <trkpt lat="29.581596" lon="103.384168"><ele>972.1287</ele><time>2026-07-21T02:20:17.000Z</time></trkpt>
        <trkpt lat="29.581596" lon="103.384168"><ele>972.9322</ele><time>2026-07-21T02:20:19.000Z</time></trkpt>
        <trkpt lat="29.581595" lon="103.384167"><ele>972.89185</ele><time>2026-07-21T02:20:21.000Z</time></trkpt>
        <trkpt lat="29.581573" lon="103.384143"><ele>972.82404</ele><time>2026-07-21T02:20:25.000Z</time></trkpt>
        <trkpt lat="29.581558" lon="103.384124"><ele>975.0111</ele><time>2026-07-21T02:20:27.000Z</time></trkpt>
        <trkpt lat="29.581551" lon="103.384106"><ele>975.309</ele><time>2026-07-21T02:20:29.000Z</time></trkpt>
        <trkpt lat="29.581549" lon="103.38409"><ele>976.5447</ele><time>2026-07-21T02:20:31.000Z</time></trkpt>
        <trkpt lat="29.581544" lon="103.384075"><ele>976.15643</ele><time>2026-07-21T02:20:33.000Z</time></trkpt>
        <trkpt lat="29.581539" lon="103.384057"><ele>977.1157</ele><time>2026-07-21T02:20:35.000Z</time></trkpt>
        <trkpt lat="29.581535" lon="103.384041"><ele>977.2427</ele><time>2026-07-21T02:20:37.000Z</time></trkpt>
        <trkpt lat="29.581534" lon="103.384029"><ele>977.53394</ele><time>2026-07-21T02:20:39.000Z</time></trkpt>
        <trkpt lat="29.581535" lon="103.384016"><ele>977.79736</ele><time>2026-07-21T02:20:41.000Z</time></trkpt>
        <trkpt lat="29.581536" lon="103.384006"><ele>977.8611</ele><time>2026-07-21T02:20:43.000Z</time></trkpt>
        <trkpt lat="29.581535" lon="103.383996"><ele>978.2004</ele><time>2026-07-21T02:20:45.000Z</time></trkpt>
        <trkpt lat="29.581531" lon="103.383981"><ele>978.9519</ele><time>2026-07-21T02:20:47.000Z</time></trkpt>
        <trkpt lat="29.581525" lon="103.383967"><ele>979.9973</ele><time>2026-07-21T02:20:49.000Z</time></trkpt>
        <trkpt lat="29.581523" lon="103.383958"><ele>980.5325</ele><time>2026-07-21T02:20:51.000Z</time></trkpt>
        <trkpt lat="29.58152" lon="103.383948"><ele>980.75946</ele><time>2026-07-21T02:20:53.000Z</time></trkpt>
        <trkpt lat="29.581514" lon="103.383924"><ele>980.70123</ele><time>2026-07-21T02:20:57.000Z</time></trkpt>
        <trkpt lat="29.581513" lon="103.383915"><ele>981.2794</ele><time>2026-07-21T02:20:59.000Z</time></trkpt>
        <trkpt lat="29.58151" lon="103.3839"><ele>980.7444</ele><time>2026-07-21T02:21:01.000Z</time></trkpt>
        <trkpt lat="29.581503" lon="103.383879"><ele>980.88214</ele><time>2026-07-21T02:21:03.000Z</time></trkpt>
        <trkpt lat="29.581498" lon="103.383862"><ele>980.89087</ele><time>2026-07-21T02:21:05.000Z</time></trkpt>
        <trkpt lat="29.581491" lon="103.383838"><ele>980.11926</ele><time>2026-07-21T02:21:07.000Z</time></trkpt>
        <trkpt lat="29.58148" lon="103.383804"><ele>979.725</ele><time>2026-07-21T02:21:09.000Z</time></trkpt>
        <trkpt lat="29.581468" lon="103.383773"><ele>979.4912</ele><time>2026-07-21T02:21:11.000Z</time></trkpt>
        <trkpt lat="29.581459" lon="103.38375"><ele>979.4163</ele><time>2026-07-21T02:21:13.000Z</time></trkpt>
        <trkpt lat="29.581449" lon="103.383734"><ele>978.86584</ele><time>2026-07-21T02:21:15.000Z</time></trkpt>
        <trkpt lat="29.581442" lon="103.383724"><ele>978.9605</ele><time>2026-07-21T02:21:17.000Z</time></trkpt>
        <trkpt lat="29.581442" lon="103.383723"><ele>979.7995</ele><time>2026-07-21T02:21:19.000Z</time></trkpt>
        <trkpt lat="29.581463" lon="103.383703"><ele>986.7477</ele><time>2026-07-21T02:22:07.000Z</time></trkpt>
        <trkpt lat="29.581458" lon="103.383759"><ele>992.7718</ele><time>2026-07-21T02:22:25.000Z</time></trkpt>
        <trkpt lat="29.581457" lon="103.383775"><ele>992.9438</ele><time>2026-07-21T02:22:27.000Z</time></trkpt>
        <trkpt lat="29.581457" lon="103.383776"><ele>993.0837</ele><time>2026-07-21T02:22:29.000Z</time></trkpt>
        <trkpt lat="29.58146" lon="103.383798"><ele>993.5168</ele><time>2026-07-21T02:22:37.000Z</time></trkpt>
        <trkpt lat="29.581484" lon="103.383789"><ele>986.7627</ele><time>2026-07-21T02:23:12.000Z</time></trkpt>
        <trkpt lat="29.581467" lon="103.38381"><ele>993.58264</ele><time>2026-07-21T02:23:36.000Z</time></trkpt>
        <trkpt lat="29.581448" lon="103.383754"><ele>996.2127</ele><time>2026-07-21T02:23:46.000Z</time></trkpt>
        <trkpt lat="29.581449" lon="103.383754"><ele>995.7362</ele><time>2026-07-21T02:23:48.000Z</time></trkpt>
        <trkpt lat="29.581463" lon="103.383712"><ele>995.5577</ele><time>2026-07-21T02:23:50.000Z</time></trkpt>
        <trkpt lat="29.581463" lon="103.383709"><ele>995.9996</ele><time>2026-07-21T02:23:52.000Z</time></trkpt>
        <trkpt lat="29.581463" lon="103.383709"><ele>996.72754</ele><time>2026-07-21T02:23:54.000Z</time></trkpt>
        <trkpt lat="29.58144" lon="103.383687"><ele>996.29803</ele><time>2026-07-21T02:23:58.000Z</time></trkpt>
        <trkpt lat="29.581441" lon="103.383687"><ele>995.0297</ele><time>2026-07-21T02:24:02.000Z</time></trkpt>
        <trkpt lat="29.581442" lon="103.383679"><ele>995.7033</ele><time>2026-07-21T02:24:04.000Z</time></trkpt>
        <trkpt lat="29.581449" lon="103.38364"><ele>996.8493</ele><time>2026-07-21T02:24:10.000Z</time></trkpt>
        <trkpt lat="29.581449" lon="103.38364"><ele>996.8379</ele><time>2026-07-21T02:24:12.000Z</time></trkpt>
        <trkpt lat="29.581449" lon="103.383638"><ele>997.3085</ele><time>2026-07-21T02:24:14.000Z</time></trkpt>
        <trkpt lat="29.581445" lon="103.383594"><ele>996.4918</ele><time>2026-07-21T02:24:20.000Z</time></trkpt>
        <trkpt lat="29.581445" lon="103.383594"><ele>997.5475</ele><time>2026-07-21T02:24:22.000Z</time></trkpt>
        <trkpt lat="29.581445" lon="103.383592"><ele>997.71954</ele><time>2026-07-21T02:24:24.000Z</time></trkpt>
        <trkpt lat="29.581439" lon="103.383547"><ele>996.7597</ele><time>2026-07-21T02:24:32.000Z</time></trkpt>
        <trkpt lat="29.581439" lon="103.383547"><ele>996.89075</ele><time>2026-07-21T02:24:34.000Z</time></trkpt>
        <trkpt lat="29.581438" lon="103.383545"><ele>997.46246</ele><time>2026-07-21T02:24:36.000Z</time></trkpt>
        <trkpt lat="29.581425" lon="103.383504"><ele>999.0304</ele><time>2026-07-21T02:24:42.000Z</time></trkpt>
        <trkpt lat="29.581421" lon="103.383492"><ele>999.52264</ele><time>2026-07-21T02:24:44.000Z</time></trkpt>
        <trkpt lat="29.581418" lon="103.383485"><ele>999.81757</ele><time>2026-07-21T02:24:46.000Z</time></trkpt>
        <trkpt lat="29.581412" lon="103.383471"><ele>999.4985</ele><time>2026-07-21T02:24:52.000Z</time></trkpt>
        <trkpt lat="29.581409" lon="103.383461"><ele>1000.65356</ele><time>2026-07-21T02:24:56.000Z</time></trkpt>
        <trkpt lat="29.581407" lon="103.383454"><ele>1000.09625</ele><time>2026-07-21T02:24:58.000Z</time></trkpt>
        <trkpt lat="29.581408" lon="103.383438"><ele>1001.9388</ele><time>2026-07-21T02:25:04.000Z</time></trkpt>
        <trkpt lat="29.581409" lon="103.383407"><ele>1002.8425</ele><time>2026-07-21T02:25:08.000Z</time></trkpt>
        <trkpt lat="29.581409" lon="103.383407"><ele>1002.28784</ele><time>2026-07-21T02:25:10.000Z</time></trkpt>
        <trkpt lat="29.58141" lon="103.383394"><ele>1001.29913</ele><time>2026-07-21T02:25:14.000Z</time></trkpt>
        <trkpt lat="29.581408" lon="103.383371"><ele>1000.81995</ele><time>2026-07-21T02:25:16.000Z</time></trkpt>
        <trkpt lat="29.581404" lon="103.383341"><ele>1002.0342</ele><time>2026-07-21T02:25:18.000Z</time></trkpt>
        <trkpt lat="29.581397" lon="103.383315"><ele>1002.6506</ele><time>2026-07-21T02:25:20.000Z</time></trkpt>
        <trkpt lat="29.581388" lon="103.383289"><ele>1001.93933</ele><time>2026-07-21T02:25:22.000Z</time></trkpt>
        <trkpt lat="29.58138" lon="103.383271"><ele>1001.86237</ele><time>2026-07-21T02:25:24.000Z</time></trkpt>
        <trkpt lat="29.581375" lon="103.383258"><ele>1001.93304</ele><time>2026-07-21T02:25:26.000Z</time></trkpt>
        <trkpt lat="29.581372" lon="103.383249"><ele>1001.3967</ele><time>2026-07-21T02:25:28.000Z</time></trkpt>
        <trkpt lat="29.581373" lon="103.38324"><ele>1000.50793</ele><time>2026-07-21T02:25:32.000Z</time></trkpt>
        <trkpt lat="29.581376" lon="103.383223"><ele>999.93964</ele><time>2026-07-21T02:25:42.000Z</time></trkpt>
        <trkpt lat="29.581382" lon="103.383196"><ele>1000.1069</ele><time>2026-07-21T02:25:46.000Z</time></trkpt>
        <trkpt lat="29.581382" lon="103.383196"><ele>1000.8833</ele><time>2026-07-21T02:25:48.000Z</time></trkpt>
        <trkpt lat="29.581382" lon="103.383183"><ele>1001.8956</ele><time>2026-07-21T02:25:56.000Z</time></trkpt>
        <trkpt lat="29.58138" lon="103.38316"><ele>1001.269</ele><time>2026-07-21T02:26:02.000Z</time></trkpt>
        <trkpt lat="29.581379" lon="103.383153"><ele>1001.75507</ele><time>2026-07-21T02:26:04.000Z</time></trkpt>
        <trkpt lat="29.581379" lon="103.383144"><ele>1002.729</ele><time>2026-07-21T02:26:06.000Z</time></trkpt>
        <trkpt lat="29.581376" lon="103.383125"><ele>1003.9461</ele><time>2026-07-21T02:26:14.000Z</time></trkpt>
        <trkpt lat="29.581374" lon="103.383119"><ele>1004.9659</ele><time>2026-07-21T02:26:16.000Z</time></trkpt>
        <trkpt lat="29.581357" lon="103.383062"><ele>1006.46136</ele><time>2026-07-21T02:26:31.000Z</time></trkpt>
        <trkpt lat="29.58135" lon="103.383027"><ele>1008.8444</ele><time>2026-07-21T02:26:40.000Z</time></trkpt>
        <trkpt lat="29.581351" lon="103.383026"><ele>1007.9524</ele><time>2026-07-21T02:26:42.000Z</time></trkpt>
        <trkpt lat="29.581351" lon="103.38302"><ele>1007.2863</ele><time>2026-07-21T02:26:44.000Z</time></trkpt>
        <trkpt lat="29.58135" lon="103.382992"><ele>1009.62573</ele><time>2026-07-21T02:26:50.000Z</time></trkpt>
        <trkpt lat="29.58135" lon="103.382975"><ele>1009.53595</ele><time>2026-07-21T02:26:52.000Z</time></trkpt>
        <trkpt lat="29.581349" lon="103.382974"><ele>1009.6972</ele><time>2026-07-21T02:26:54.000Z</time></trkpt>
        <trkpt lat="29.581337" lon="103.382955"><ele>1008.0964</ele><time>2026-07-21T02:27:02.000Z</time></trkpt>
        <trkpt lat="29.581328" lon="103.382944"><ele>1008.47626</ele><time>2026-07-21T02:27:08.000Z</time></trkpt>
        <trkpt lat="29.581326" lon="103.382938"><ele>1007.84753</ele><time>2026-07-21T02:27:10.000Z</time></trkpt>
        <trkpt lat="29.581326" lon="103.382925"><ele>1007.5341</ele><time>2026-07-21T02:27:14.000Z</time></trkpt>
        <trkpt lat="29.581325" lon="103.382896"><ele>1005.3021</ele><time>2026-07-21T02:27:18.000Z</time></trkpt>
        <trkpt lat="29.581326" lon="103.382895"><ele>1006.9335</ele><time>2026-07-21T02:27:21.000Z</time></trkpt>
        <trkpt lat="29.581325" lon="103.382891"><ele>1007.83246</ele><time>2026-07-21T02:27:23.000Z</time></trkpt>
        <trkpt lat="29.581323" lon="103.38286"><ele>1012.3305</ele><time>2026-07-21T02:27:31.000Z</time></trkpt>
        <trkpt lat="29.581324" lon="103.38286"><ele>1012.47864</ele><time>2026-07-21T02:27:33.000Z</time></trkpt>
        <trkpt lat="29.581325" lon="103.382857"><ele>1012.03705</ele><time>2026-07-21T02:27:41.000Z</time></trkpt>
        <trkpt lat="29.581347" lon="103.382824"><ele>1011.82043</ele><time>2026-07-21T02:27:45.000Z</time></trkpt>
        <trkpt lat="29.581347" lon="103.382824"><ele>1011.7925</ele><time>2026-07-21T02:27:47.000Z</time></trkpt>
        <trkpt lat="29.581347" lon="103.382823"><ele>1013.80316</ele><time>2026-07-21T02:27:49.000Z</time></trkpt>
        <trkpt lat="29.581357" lon="103.382758"><ele>1013.54944</ele><time>2026-07-21T02:28:00.000Z</time></trkpt>
        <trkpt lat="29.581357" lon="103.382758"><ele>1013.6872</ele><time>2026-07-21T02:28:02.000Z</time></trkpt>
        <trkpt lat="29.581358" lon="103.382753"><ele>1013.33514</ele><time>2026-07-21T02:28:04.000Z</time></trkpt>
        <trkpt lat="29.581364" lon="103.382701"><ele>1013.2851</ele><time>2026-07-21T02:28:08.000Z</time></trkpt>
        <trkpt lat="29.581365" lon="103.382676"><ele>1013.462</ele><time>2026-07-21T02:28:10.000Z</time></trkpt>
        <trkpt lat="29.581365" lon="103.382646"><ele>1013.38226</ele><time>2026-07-21T02:28:12.000Z</time></trkpt>
        <trkpt lat="29.581365" lon="103.382626"><ele>1013.0011</ele><time>2026-07-21T02:28:14.000Z</time></trkpt>
        <trkpt lat="29.581366" lon="103.382613"><ele>1013.64075</ele><time>2026-07-21T02:28:16.000Z</time></trkpt>
        <trkpt lat="29.581369" lon="103.382608"><ele>1013.34247</ele><time>2026-07-21T02:28:18.000Z</time></trkpt>
        <trkpt lat="29.581396" lon="103.382566"><ele>1015.1913</ele><time>2026-07-21T02:28:24.000Z</time></trkpt>
        <trkpt lat="29.581396" lon="103.382566"><ele>1016.15234</ele><time>2026-07-21T02:28:26.000Z</time></trkpt>
        <trkpt lat="29.581397" lon="103.382564"><ele>1014.74603</ele><time>2026-07-21T02:28:28.000Z</time></trkpt>
        <trkpt lat="29.581411" lon="103.382527"><ele>1015.2505</ele><time>2026-07-21T02:28:32.000Z</time></trkpt>
        <trkpt lat="29.581417" lon="103.382505"><ele>1017.1868</ele><time>2026-07-21T02:28:34.000Z</time></trkpt>
        <trkpt lat="29.581423" lon="103.382486"><ele>1017.95074</ele><time>2026-07-21T02:28:36.000Z</time></trkpt>
        <trkpt lat="29.581427" lon="103.382477"><ele>1017.6296</ele><time>2026-07-21T02:28:38.000Z</time></trkpt>
        <trkpt lat="29.581431" lon="103.38247"><ele>1018.5855</ele><time>2026-07-21T02:28:42.000Z</time></trkpt>
        <trkpt lat="29.581453" lon="103.382435"><ele>1018.39746</ele><time>2026-07-21T02:28:48.000Z</time></trkpt>
        <trkpt lat="29.581453" lon="103.382435"><ele>1016.99133</ele><time>2026-07-21T02:28:50.000Z</time></trkpt>
        <trkpt lat="29.581453" lon="103.382429"><ele>1015.40717</ele><time>2026-07-21T02:28:52.000Z</time></trkpt>
        <trkpt lat="29.581456" lon="103.382367"><ele>1013.7899</ele><time>2026-07-21T02:28:56.000Z</time></trkpt>
        <trkpt lat="29.581457" lon="103.382331"><ele>1014.63824</ele><time>2026-07-21T02:28:58.000Z</time></trkpt>
        <trkpt lat="29.581457" lon="103.382293"><ele>1014.7233</ele><time>2026-07-21T02:29:00.000Z</time></trkpt>
        <trkpt lat="29.581454" lon="103.382267"><ele>1015.08057</ele><time>2026-07-21T02:29:02.000Z</time></trkpt>
        <trkpt lat="29.581448" lon="103.382245"><ele>1016.5666</ele><time>2026-07-21T02:29:04.000Z</time></trkpt>
        <trkpt lat="29.581438" lon="103.382223"><ele>1016.6902</ele><time>2026-07-21T02:29:06.000Z</time></trkpt>
        <trkpt lat="29.581431" lon="103.382213"><ele>1017.15015</ele><time>2026-07-21T02:29:08.000Z</time></trkpt>
        <trkpt lat="29.581426" lon="103.382211"><ele>1017.2987</ele><time>2026-07-21T02:29:10.000Z</time></trkpt>
        <trkpt lat="29.581411" lon="103.382205"><ele>1018.3829</ele><time>2026-07-21T02:29:12.000Z</time></trkpt>
        <trkpt lat="29.581398" lon="103.382203"><ele>1018.5517</ele><time>2026-07-21T02:29:14.000Z</time></trkpt>
        <trkpt lat="29.581384" lon="103.382203"><ele>1018.9048</ele><time>2026-07-21T02:29:16.000Z</time></trkpt>
        <trkpt lat="29.581366" lon="103.382203"><ele>1019.71106</ele><time>2026-07-21T02:29:18.000Z</time></trkpt>
        <trkpt lat="29.581348" lon="103.382203"><ele>1020.3153</ele><time>2026-07-21T02:29:20.000Z</time></trkpt>
        <trkpt lat="29.581329" lon="103.382204"><ele>1020.9822</ele><time>2026-07-21T02:29:22.000Z</time></trkpt>
        <trkpt lat="29.581312" lon="103.382203"><ele>1021.5125</ele><time>2026-07-21T02:29:24.000Z</time></trkpt>
        <trkpt lat="29.581295" lon="103.3822"><ele>1021.94824</ele><time>2026-07-21T02:29:26.000Z</time></trkpt>
        <trkpt lat="29.581277" lon="103.382197"><ele>1022.45294</ele><time>2026-07-21T02:29:28.000Z</time></trkpt>
        <trkpt lat="29.581261" lon="103.382193"><ele>1022.90094</ele><time>2026-07-21T02:29:30.000Z</time></trkpt>
        <trkpt lat="29.581245" lon="103.382186"><ele>1023.5536</ele><time>2026-07-21T02:29:32.000Z</time></trkpt>
        <trkpt lat="29.581229" lon="103.382179"><ele>1024.5394</ele><time>2026-07-21T02:29:34.000Z</time></trkpt>
        <trkpt lat="29.581211" lon="103.38217"><ele>1024.6539</ele><time>2026-07-21T02:29:36.000Z</time></trkpt>
        <trkpt lat="29.581194" lon="103.382162"><ele>1022.3045</ele><time>2026-07-21T02:29:38.000Z</time></trkpt>
        <trkpt lat="29.581177" lon="103.382156"><ele>1021.17706</ele><time>2026-07-21T02:29:40.000Z</time></trkpt>
        <trkpt lat="29.581161" lon="103.382153"><ele>1020.7645</ele><time>2026-07-21T02:29:42.000Z</time></trkpt>
        <trkpt lat="29.581145" lon="103.382151"><ele>1019.2851</ele><time>2026-07-21T02:29:44.000Z</time></trkpt>
        <trkpt lat="29.581132" lon="103.382151"><ele>1017.748</ele><time>2026-07-21T02:29:46.000Z</time></trkpt>
        <trkpt lat="29.581132" lon="103.382152"><ele>1016.6383</ele><time>2026-07-21T02:29:48.000Z</time></trkpt>
        <trkpt lat="29.581119" lon="103.382172"><ele>1013.38904</ele><time>2026-07-21T02:30:58.000Z</time></trkpt>
        <trkpt lat="29.58111" lon="103.382178"><ele>1013.72217</ele><time>2026-07-21T02:31:02.000Z</time></trkpt>
        <trkpt lat="29.581103" lon="103.382181"><ele>1013.5389</ele><time>2026-07-21T02:31:04.000Z</time></trkpt>
        <trkpt lat="29.58109" lon="103.38218"><ele>1013.6023</ele><time>2026-07-21T02:31:10.000Z</time></trkpt>
        <trkpt lat="29.581185" lon="103.382188"><ele>1015.5439</ele><time>2026-07-21T02:31:18.000Z</time></trkpt>
        <trkpt lat="29.581185" lon="103.382188"><ele>1015.42804</ele><time>2026-07-21T02:31:20.000Z</time></trkpt>
        <trkpt lat="29.581188" lon="103.382188"><ele>1015.98346</ele><time>2026-07-21T02:31:22.000Z</time></trkpt>
        <trkpt lat="29.581231" lon="103.382192"><ele>1017.0288</ele><time>2026-07-21T02:31:26.000Z</time></trkpt>
        <trkpt lat="29.581259" lon="103.382198"><ele>1018.244</ele><time>2026-07-21T02:31:28.000Z</time></trkpt>
        <trkpt lat="29.581289" lon="103.382206"><ele>1018.95593</ele><time>2026-07-21T02:31:30.000Z</time></trkpt>
        <trkpt lat="29.581315" lon="103.382218"><ele>1020.7734</ele><time>2026-07-21T02:31:32.000Z</time></trkpt>
        <trkpt lat="29.581337" lon="103.382232"><ele>1021.99384</ele><time>2026-07-21T02:31:34.000Z</time></trkpt>
        <trkpt lat="29.581357" lon="103.382244"><ele>1023.5216</ele><time>2026-07-21T02:31:36.000Z</time></trkpt>
        <trkpt lat="29.581376" lon="103.382252"><ele>1023.18243</ele><time>2026-07-21T02:31:38.000Z</time></trkpt>
        <trkpt lat="29.581399" lon="103.382258"><ele>1023.54626</ele><time>2026-07-21T02:31:40.000Z</time></trkpt>
        <trkpt lat="29.581421" lon="103.382261"><ele>1022.6851</ele><time>2026-07-21T02:31:42.000Z</time></trkpt>
        <trkpt lat="29.581443" lon="103.382259"><ele>1021.8695</ele><time>2026-07-21T02:31:44.000Z</time></trkpt>
        <trkpt lat="29.581461" lon="103.38225"><ele>1021.70166</ele><time>2026-07-21T02:31:46.000Z</time></trkpt>
        <trkpt lat="29.581476" lon="103.382236"><ele>1020.4529</ele><time>2026-07-21T02:31:48.000Z</time></trkpt>
        <trkpt lat="29.581487" lon="103.382216"><ele>1018.98047</ele><time>2026-07-21T02:31:50.000Z</time></trkpt>
        <trkpt lat="29.581495" lon="103.382194"><ele>1018.4212</ele><time>2026-07-21T02:31:52.000Z</time></trkpt>
        <trkpt lat="29.581503" lon="103.38217"><ele>1017.79663</ele><time>2026-07-21T02:31:54.000Z</time></trkpt>
        <trkpt lat="29.581509" lon="103.382144"><ele>1017.1479</ele><time>2026-07-21T02:31:56.000Z</time></trkpt>
        <trkpt lat="29.581513" lon="103.382119"><ele>1016.00214</ele><time>2026-07-21T02:31:58.000Z</time></trkpt>
        <trkpt lat="29.581518" lon="103.382095"><ele>1015.4666</ele><time>2026-07-21T02:32:00.000Z</time></trkpt>
        <trkpt lat="29.581521" lon="103.382074"><ele>1014.7683</ele><time>2026-07-21T02:32:02.000Z</time></trkpt>
        <trkpt lat="29.581523" lon="103.382053"><ele>1014.38306</ele><time>2026-07-21T02:32:04.000Z</time></trkpt>
        <trkpt lat="29.581524" lon="103.382033"><ele>1014.3717</ele><time>2026-07-21T02:32:06.000Z</time></trkpt>
        <trkpt lat="29.581526" lon="103.382014"><ele>1013.316</ele><time>2026-07-21T02:32:08.000Z</time></trkpt>
        <trkpt lat="29.581528" lon="103.381994"><ele>1012.91864</ele><time>2026-07-21T02:32:10.000Z</time></trkpt>
        <trkpt lat="29.581527" lon="103.381982"><ele>1012.72363</ele><time>2026-07-21T02:32:12.000Z</time></trkpt>
        <trkpt lat="29.58153" lon="103.381977"><ele>1012.6277</ele><time>2026-07-21T02:32:14.000Z</time></trkpt>
        <trkpt lat="29.581494" lon="103.382058"><ele>1013.2113</ele><time>2026-07-21T02:32:24.000Z</time></trkpt>
        <trkpt lat="29.581494" lon="103.382058"><ele>1013.5333</ele><time>2026-07-21T02:32:26.000Z</time></trkpt>
        <trkpt lat="29.581492" lon="103.382061"><ele>1013.38416</ele><time>2026-07-21T02:32:28.000Z</time></trkpt>
        <trkpt lat="29.58147" lon="103.382101"><ele>1014.21954</ele><time>2026-07-21T02:32:32.000Z</time></trkpt>
        <trkpt lat="29.581454" lon="103.382131"><ele>1014.4419</ele><time>2026-07-21T02:32:34.000Z</time></trkpt>
        <trkpt lat="29.581439" lon="103.382162"><ele>1014.7885</ele><time>2026-07-21T02:32:36.000Z</time></trkpt>
        <trkpt lat="29.581427" lon="103.38219"><ele>1015.2578</ele><time>2026-07-21T02:32:38.000Z</time></trkpt>
        <trkpt lat="29.581421" lon="103.382213"><ele>1015.9317</ele><time>2026-07-21T02:32:40.000Z</time></trkpt>
        <trkpt lat="29.581419" lon="103.382232"><ele>1015.7475</ele><time>2026-07-21T02:32:42.000Z</time></trkpt>
        <trkpt lat="29.58142" lon="103.382245"><ele>1016.5341</ele><time>2026-07-21T02:32:44.000Z</time></trkpt>
        <trkpt lat="29.581422" lon="103.382268"><ele>1016.20087</ele><time>2026-07-21T02:32:46.000Z</time></trkpt>
        <trkpt lat="29.581422" lon="103.382295"><ele>1014.8176</ele><time>2026-07-21T02:32:48.000Z</time></trkpt>
        <trkpt lat="29.581418" lon="103.382324"><ele>1014.0065</ele><time>2026-07-21T02:32:50.000Z</time></trkpt>
        <trkpt lat="29.581415" lon="103.382355"><ele>1013.23535</ele><time>2026-07-21T02:32:52.000Z</time></trkpt>
        <trkpt lat="29.58141" lon="103.382382"><ele>1013.42676</ele><time>2026-07-21T02:32:54.000Z</time></trkpt>
        <trkpt lat="29.581407" lon="103.382403"><ele>1013.67175</ele><time>2026-07-21T02:32:56.000Z</time></trkpt>
        <trkpt lat="29.581406" lon="103.382424"><ele>1015.2317</ele><time>2026-07-21T02:32:58.000Z</time></trkpt>
        <trkpt lat="29.581408" lon="103.382441"><ele>1016.5066</ele><time>2026-07-21T02:33:00.000Z</time></trkpt>
        <trkpt lat="29.581411" lon="103.382456"><ele>1017.2141</ele><time>2026-07-21T02:33:02.000Z</time></trkpt>
        <trkpt lat="29.58141" lon="103.382473"><ele>1017.35754</ele><time>2026-07-21T02:33:04.000Z</time></trkpt>
        <trkpt lat="29.581407" lon="103.382486"><ele>1018.7637</ele><time>2026-07-21T02:33:06.000Z</time></trkpt>
        <trkpt lat="29.581401" lon="103.382503"><ele>1018.61456</ele><time>2026-07-21T02:33:08.000Z</time></trkpt>
        <trkpt lat="29.581391" lon="103.382525"><ele>1019.0629</ele><time>2026-07-21T02:33:10.000Z</time></trkpt>
        <trkpt lat="29.58138" lon="103.382548"><ele>1019.4427</ele><time>2026-07-21T02:33:12.000Z</time></trkpt>
        <trkpt lat="29.58137" lon="103.382573"><ele>1018.523</ele><time>2026-07-21T02:33:14.000Z</time></trkpt>
        <trkpt lat="29.581363" lon="103.382594"><ele>1017.46704</ele><time>2026-07-21T02:33:16.000Z</time></trkpt>
        <trkpt lat="29.581357" lon="103.382612"><ele>1015.7011</ele><time>2026-07-21T02:33:18.000Z</time></trkpt>
        <trkpt lat="29.581355" lon="103.382628"><ele>1014.8169</ele><time>2026-07-21T02:33:20.000Z</time></trkpt>
        <trkpt lat="29.581354" lon="103.382639"><ele>1014.59296</ele><time>2026-07-21T02:33:22.000Z</time></trkpt>
        <trkpt lat="29.581355" lon="103.382649"><ele>1015.1275</ele><time>2026-07-21T02:33:24.000Z</time></trkpt>
        <trkpt lat="29.58136" lon="103.382668"><ele>1013.77234</ele><time>2026-07-21T02:33:26.000Z</time></trkpt>
        <trkpt lat="29.581367" lon="103.382691"><ele>1012.0978</ele><time>2026-07-21T02:33:28.000Z</time></trkpt>
        <trkpt lat="29.581371" lon="103.382714"><ele>1011.97205</ele><time>2026-07-21T02:33:30.000Z</time></trkpt>
        <trkpt lat="29.581371" lon="103.382734"><ele>1011.4922</ele><time>2026-07-21T02:33:32.000Z</time></trkpt>
        <trkpt lat="29.581368" lon="103.382751"><ele>1010.9799</ele><time>2026-07-21T02:33:34.000Z</time></trkpt>
        <trkpt lat="29.581366" lon="103.382765"><ele>1010.52496</ele><time>2026-07-21T02:33:36.000Z</time></trkpt>
        <trkpt lat="29.581365" lon="103.382784"><ele>1010.4571</ele><time>2026-07-21T02:33:38.000Z</time></trkpt>
        <trkpt lat="29.581362" lon="103.382812"><ele>1011.2188</ele><time>2026-07-21T02:33:40.000Z</time></trkpt>
        <trkpt lat="29.581356" lon="103.382842"><ele>1013.11334</ele><time>2026-07-21T02:33:42.000Z</time></trkpt>
        <trkpt lat="29.58135" lon="103.38287"><ele>1013.90234</ele><time>2026-07-21T02:33:44.000Z</time></trkpt>
        <trkpt lat="29.581344" lon="103.382895"><ele>1015.14154</ele><time>2026-07-21T02:33:46.000Z</time></trkpt>
        <trkpt lat="29.581339" lon="103.382919"><ele>1015.6623</ele><time>2026-07-21T02:33:48.000Z</time></trkpt>
        <trkpt lat="29.581337" lon="103.382937"><ele>1016.0258</ele><time>2026-07-21T02:33:50.000Z</time></trkpt>
        <trkpt lat="29.581338" lon="103.382946"><ele>1014.4535</ele><time>2026-07-21T02:33:52.000Z</time></trkpt>
        <trkpt lat="29.581343" lon="103.382962"><ele>1010.89154</ele><time>2026-07-21T02:33:56.000Z</time></trkpt>
        <trkpt lat="29.58135" lon="103.382977"><ele>1007.91364</ele><time>2026-07-21T02:34:00.000Z</time></trkpt>
        <trkpt lat="29.581363" lon="103.383004"><ele>1006.7949</ele><time>2026-07-21T02:34:02.000Z</time></trkpt>
        <trkpt lat="29.581363" lon="103.383006"><ele>1006.72845</ele><time>2026-07-21T02:34:04.000Z</time></trkpt>
        <trkpt lat="29.581364" lon="103.383015"><ele>1006.60803</ele><time>2026-07-21T02:34:08.000Z</time></trkpt>
        <trkpt lat="29.581369" lon="103.383047"><ele>1006.29895</ele><time>2026-07-21T02:34:12.000Z</time></trkpt>
        <trkpt lat="29.58137" lon="103.383061"><ele>1006.3467</ele><time>2026-07-21T02:34:14.000Z</time></trkpt>
        <trkpt lat="29.581372" lon="103.383077"><ele>1007.57367</ele><time>2026-07-21T02:34:16.000Z</time></trkpt>
        <trkpt lat="29.581373" lon="103.383088"><ele>1008.029</ele><time>2026-07-21T02:34:18.000Z</time></trkpt>
        <trkpt lat="29.581373" lon="103.3831"><ele>1008.4719</ele><time>2026-07-21T02:34:20.000Z</time></trkpt>
        <trkpt lat="29.581375" lon="103.383114"><ele>1008.3628</ele><time>2026-07-21T02:34:22.000Z</time></trkpt>
        <trkpt lat="29.581376" lon="103.383127"><ele>1008.50464</ele><time>2026-07-21T02:34:24.000Z</time></trkpt>
        <trkpt lat="29.581376" lon="103.38314"><ele>1008.273</ele><time>2026-07-21T02:34:26.000Z</time></trkpt>
        <trkpt lat="29.581377" lon="103.38315"><ele>1007.8501</ele><time>2026-07-21T02:34:28.000Z</time></trkpt>
        <trkpt lat="29.581379" lon="103.383162"><ele>1007.3426</ele><time>2026-07-21T02:34:30.000Z</time></trkpt>
        <trkpt lat="29.58138" lon="103.383179"><ele>1007.0232</ele><time>2026-07-21T02:34:32.000Z</time></trkpt>
        <trkpt lat="29.58138" lon="103.383191"><ele>1006.803</ele><time>2026-07-21T02:34:34.000Z</time></trkpt>
        <trkpt lat="29.581381" lon="103.383201"><ele>1006.5177</ele><time>2026-07-21T02:34:36.000Z</time></trkpt>
        <trkpt lat="29.581386" lon="103.383222"><ele>1005.34094</ele><time>2026-07-21T02:34:40.000Z</time></trkpt>
        <trkpt lat="29.581387" lon="103.383229"><ele>1004.6639</ele><time>2026-07-21T02:34:42.000Z</time></trkpt>
        <trkpt lat="29.581388" lon="103.383237"><ele>1004.29364</ele><time>2026-07-21T02:34:44.000Z</time></trkpt>
        <trkpt lat="29.581393" lon="103.383263"><ele>1004.00214</ele><time>2026-07-21T02:34:48.000Z</time></trkpt>
        <trkpt lat="29.581393" lon="103.383263"><ele>1004.32886</ele><time>2026-07-21T02:34:50.000Z</time></trkpt>
        <trkpt lat="29.581397" lon="103.383287"><ele>1003.726</ele><time>2026-07-21T02:34:54.000Z</time></trkpt>
        <trkpt lat="29.581403" lon="103.383318"><ele>1003.1556</ele><time>2026-07-21T02:34:56.000Z</time></trkpt>
        <trkpt lat="29.58141" lon="103.383356"><ele>1002.7412</ele><time>2026-07-21T02:34:58.000Z</time></trkpt>
        <trkpt lat="29.581415" lon="103.383389"><ele>1002.0825</ele><time>2026-07-21T02:35:00.000Z</time></trkpt>
        <trkpt lat="29.581418" lon="103.383416"><ele>1000.7863</ele><time>2026-07-21T02:35:02.000Z</time></trkpt>
        <trkpt lat="29.581421" lon="103.383441"><ele>999.9197</ele><time>2026-07-21T02:35:04.000Z</time></trkpt>
        <trkpt lat="29.581425" lon="103.383457"><ele>999.73285</ele><time>2026-07-21T02:35:06.000Z</time></trkpt>
        <trkpt lat="29.581427" lon="103.383467"><ele>999.45337</ele><time>2026-07-21T02:35:08.000Z</time></trkpt>
        <trkpt lat="29.581427" lon="103.383475"><ele>999.38184</ele><time>2026-07-21T02:35:10.000Z</time></trkpt>
        <trkpt lat="29.581425" lon="103.383494"><ele>999.6335</ele><time>2026-07-21T02:35:14.000Z</time></trkpt>
        <trkpt lat="29.581425" lon="103.383506"><ele>999.86536</ele><time>2026-07-21T02:35:16.000Z</time></trkpt>
        <trkpt lat="29.581426" lon="103.383512"><ele>997.75964</ele><time>2026-07-21T02:35:22.000Z</time></trkpt>
        <trkpt lat="29.581428" lon="103.383531"><ele>994.9488</ele><time>2026-07-21T02:35:28.000Z</time></trkpt>
        <trkpt lat="29.581431" lon="103.383545"><ele>994.9865</ele><time>2026-07-21T02:35:32.000Z</time></trkpt>
        <trkpt lat="29.581434" lon="103.383562"><ele>995.05426</ele><time>2026-07-21T02:35:34.000Z</time></trkpt>
        <trkpt lat="29.581434" lon="103.383565"><ele>993.62836</ele><time>2026-07-21T02:35:38.000Z</time></trkpt>
        <trkpt lat="29.581435" lon="103.383588"><ele>990.96606</ele><time>2026-07-21T02:35:42.000Z</time></trkpt>
        <trkpt lat="29.581437" lon="103.383607"><ele>989.62946</ele><time>2026-07-21T02:35:44.000Z</time></trkpt>
        <trkpt lat="29.581441" lon="103.383634"><ele>989.0496</ele><time>2026-07-21T02:35:46.000Z</time></trkpt>
        <trkpt lat="29.581446" lon="103.383654"><ele>988.812</ele><time>2026-07-21T02:35:48.000Z</time></trkpt>
        <trkpt lat="29.581449" lon="103.383665"><ele>988.7413</ele><time>2026-07-21T02:35:50.000Z</time></trkpt>
        <trkpt lat="29.58145" lon="103.383672"><ele>989.1581</ele><time>2026-07-21T02:35:52.000Z</time></trkpt>
        <trkpt lat="29.581455" lon="103.383696"><ele>991.28394</ele><time>2026-07-21T02:35:56.000Z</time></trkpt>
        <trkpt lat="29.581459" lon="103.383713"><ele>992.2905</ele><time>2026-07-21T02:35:58.000Z</time></trkpt>
        <trkpt lat="29.581468" lon="103.383735"><ele>991.15796</ele><time>2026-07-21T02:36:00.000Z</time></trkpt>
        <trkpt lat="29.58148" lon="103.383757"><ele>990.47363</ele><time>2026-07-21T02:36:02.000Z</time></trkpt>
        <trkpt lat="29.581496" lon="103.383774"><ele>990.50433</ele><time>2026-07-21T02:36:04.000Z</time></trkpt>
        <trkpt lat="29.581513" lon="103.383786"><ele>990.7126</ele><time>2026-07-21T02:36:06.000Z</time></trkpt>
        <trkpt lat="29.58153" lon="103.38379"><ele>990.5651</ele><time>2026-07-21T02:36:08.000Z</time></trkpt>
        <trkpt lat="29.581548" lon="103.383788"><ele>990.83527</ele><time>2026-07-21T02:36:10.000Z</time></trkpt>
        <trkpt lat="29.581567" lon="103.383781"><ele>990.3398</ele><time>2026-07-21T02:36:12.000Z</time></trkpt>
        <trkpt lat="29.581585" lon="103.38377"><ele>990.43396</ele><time>2026-07-21T02:36:14.000Z</time></trkpt>
        <trkpt lat="29.581603" lon="103.383757"><ele>991.0013</ele><time>2026-07-21T02:36:16.000Z</time></trkpt>
        <trkpt lat="29.581619" lon="103.383744"><ele>990.85004</ele><time>2026-07-21T02:36:18.000Z</time></trkpt>
        <trkpt lat="29.581634" lon="103.38373"><ele>990.15735</ele><time>2026-07-21T02:36:20.000Z</time></trkpt>
        <trkpt lat="29.581647" lon="103.383714"><ele>988.4058</ele><time>2026-07-21T02:36:22.000Z</time></trkpt>
        <trkpt lat="29.581661" lon="103.383696"><ele>987.285</ele><time>2026-07-21T02:36:24.000Z</time></trkpt>
        <trkpt lat="29.581673" lon="103.38368"><ele>986.1323</ele><time>2026-07-21T02:36:26.000Z</time></trkpt>
        <trkpt lat="29.581683" lon="103.383664"><ele>985.62634</ele><time>2026-07-21T02:36:28.000Z</time></trkpt>
        <trkpt lat="29.581693" lon="103.383643"><ele>984.5867</ele><time>2026-07-21T02:36:30.000Z</time></trkpt>
        <trkpt lat="29.581703" lon="103.383619"><ele>983.5229</ele><time>2026-07-21T02:36:32.000Z</time></trkpt>
        <trkpt lat="29.581716" lon="103.383594"><ele>982.5386</ele><time>2026-07-21T02:36:34.000Z</time></trkpt>
        <trkpt lat="29.581729" lon="103.38357"><ele>982.19006</ele><time>2026-07-21T02:36:36.000Z</time></trkpt>
        <trkpt lat="29.581742" lon="103.383549"><ele>982.5195</ele><time>2026-07-21T02:36:38.000Z</time></trkpt>
        <trkpt lat="29.581756" lon="103.383529"><ele>982.0024</ele><time>2026-07-21T02:36:40.000Z</time></trkpt>
        <trkpt lat="29.58177" lon="103.38351"><ele>981.2219</ele><time>2026-07-21T02:36:42.000Z</time></trkpt>
        <trkpt lat="29.581784" lon="103.383493"><ele>981.6092</ele><time>2026-07-21T02:36:44.000Z</time></trkpt>
        <trkpt lat="29.581798" lon="103.383477"><ele>981.241</ele><time>2026-07-21T02:36:46.000Z</time></trkpt>
        <trkpt lat="29.581809" lon="103.383462"><ele>980.812</ele><time>2026-07-21T02:36:48.000Z</time></trkpt>
        <trkpt lat="29.581822" lon="103.383446"><ele>980.12524</ele><time>2026-07-21T02:36:50.000Z</time></trkpt>
        <trkpt lat="29.581836" lon="103.383429"><ele>980.3658</ele><time>2026-07-21T02:36:52.000Z</time></trkpt>
        <trkpt lat="29.581848" lon="103.383411"><ele>980.57477</ele><time>2026-07-21T02:36:54.000Z</time></trkpt>
        <trkpt lat="29.581859" lon="103.383394"><ele>980.6971</ele><time>2026-07-21T02:36:56.000Z</time></trkpt>
        <trkpt lat="29.581872" lon="103.383375"><ele>980.9164</ele><time>2026-07-21T02:36:58.000Z</time></trkpt>
        <trkpt lat="29.581885" lon="103.383357"><ele>981.0181</ele><time>2026-07-21T02:37:00.000Z</time></trkpt>
        <trkpt lat="29.581898" lon="103.383339"><ele>981.45197</ele><time>2026-07-21T02:37:02.000Z</time></trkpt>
        <trkpt lat="29.581909" lon="103.383324"><ele>982.3007</ele><time>2026-07-21T02:37:04.000Z</time></trkpt>
        <trkpt lat="29.581919" lon="103.383307"><ele>982.1623</ele><time>2026-07-21T02:37:06.000Z</time></trkpt>
        <trkpt lat="29.581929" lon="103.38329"><ele>981.911</ele><time>2026-07-21T02:37:08.000Z</time></trkpt>
        <trkpt lat="29.581937" lon="103.383274"><ele>983.3822</ele><time>2026-07-21T02:37:10.000Z</time></trkpt>
        <trkpt lat="29.581946" lon="103.383257"><ele>983.3307</ele><time>2026-07-21T02:37:12.000Z</time></trkpt>
        <trkpt lat="29.581952" lon="103.383244"><ele>984.4398</ele><time>2026-07-21T02:37:14.000Z</time></trkpt>
        <trkpt lat="29.581957" lon="103.383232"><ele>985.3511</ele><time>2026-07-21T02:37:16.000Z</time></trkpt>
        <trkpt lat="29.58196" lon="103.383217"><ele>985.4932</ele><time>2026-07-21T02:37:18.000Z</time></trkpt>
        <trkpt lat="29.581959" lon="103.383203"><ele>985.34906</ele><time>2026-07-21T02:37:20.000Z</time></trkpt>
        <trkpt lat="29.581955" lon="103.383187"><ele>985.6277</ele><time>2026-07-21T02:37:22.000Z</time></trkpt>
        <trkpt lat="29.58195" lon="103.383166"><ele>985.1097</ele><time>2026-07-21T02:37:24.000Z</time></trkpt>
        <trkpt lat="29.581943" lon="103.383145"><ele>986.36847</ele><time>2026-07-21T02:37:26.000Z</time></trkpt>
        <trkpt lat="29.581936" lon="103.383127"><ele>986.03406</ele><time>2026-07-21T02:37:28.000Z</time></trkpt>
        <trkpt lat="29.581928" lon="103.383109"><ele>986.1765</ele><time>2026-07-21T02:37:30.000Z</time></trkpt>
        <trkpt lat="29.581918" lon="103.38309"><ele>986.81116</ele><time>2026-07-21T02:37:32.000Z</time></trkpt>
        <trkpt lat="29.581911" lon="103.383075"><ele>987.5644</ele><time>2026-07-21T02:37:34.000Z</time></trkpt>
        <trkpt lat="29.581907" lon="103.383065"><ele>988.3591</ele><time>2026-07-21T02:37:36.000Z</time></trkpt>
        <trkpt lat="29.581902" lon="103.383054"><ele>988.6017</ele><time>2026-07-21T02:37:38.000Z</time></trkpt>
        <trkpt lat="29.581894" lon="103.383036"><ele>988.93427</ele><time>2026-07-21T02:37:42.000Z</time></trkpt>
        <trkpt lat="29.581892" lon="103.38303"><ele>987.6022</ele><time>2026-07-21T02:37:44.000Z</time></trkpt>
        <trkpt lat="29.581889" lon="103.383023"><ele>987.8352</ele><time>2026-07-21T02:37:46.000Z</time></trkpt>
        <trkpt lat="29.581872" lon="103.382989"><ele>988.7701</ele><time>2026-07-21T02:37:50.000Z</time></trkpt>
        <trkpt lat="29.581872" lon="103.382989"><ele>989.2869</ele><time>2026-07-21T02:37:52.000Z</time></trkpt>
        <trkpt lat="29.581873" lon="103.382988"><ele>989.5319</ele><time>2026-07-21T02:37:54.000Z</time></trkpt>
        <trkpt lat="29.581892" lon="103.382948"><ele>990.2716</ele><time>2026-07-21T02:38:00.000Z</time></trkpt>
        <trkpt lat="29.581898" lon="103.382932"><ele>990.6951</ele><time>2026-07-21T02:38:02.000Z</time></trkpt>
        <trkpt lat="29.581903" lon="103.382915"><ele>991.15936</ele><time>2026-07-21T02:38:04.000Z</time></trkpt>
        <trkpt lat="29.581904" lon="103.382903"><ele>991.6883</ele><time>2026-07-21T02:38:06.000Z</time></trkpt>
        <trkpt lat="29.581905" lon="103.382894"><ele>991.8909</ele><time>2026-07-21T02:38:08.000Z</time></trkpt>
        <trkpt lat="29.581906" lon="103.382881"><ele>993.6531</ele><time>2026-07-21T02:38:18.000Z</time></trkpt>
        <trkpt lat="29.581914" lon="103.382821"><ele>991.90015</ele><time>2026-07-21T02:38:27.000Z</time></trkpt>
        <trkpt lat="29.581914" lon="103.382821"><ele>992.4259</ele><time>2026-07-21T02:38:29.000Z</time></trkpt>
        <trkpt lat="29.581914" lon="103.382819"><ele>992.9024</ele><time>2026-07-21T02:38:31.000Z</time></trkpt>
        <trkpt lat="29.581907" lon="103.382769"><ele>991.9641</ele><time>2026-07-21T02:38:37.000Z</time></trkpt>
        <trkpt lat="29.581904" lon="103.382749"><ele>992.026</ele><time>2026-07-21T02:38:39.000Z</time></trkpt>
        <trkpt lat="29.581899" lon="103.382729"><ele>991.7781</ele><time>2026-07-21T02:38:41.000Z</time></trkpt>
        <trkpt lat="29.581894" lon="103.382706"><ele>990.5411</ele><time>2026-07-21T02:38:43.000Z</time></trkpt>
        <trkpt lat="29.581893" lon="103.382686"><ele>990.82605</ele><time>2026-07-21T02:38:45.000Z</time></trkpt>
        <trkpt lat="29.581895" lon="103.38267"><ele>991.247</ele><time>2026-07-21T02:38:47.000Z</time></trkpt>
        <trkpt lat="29.5819" lon="103.382664"><ele>991.16974</ele><time>2026-07-21T02:38:49.000Z</time></trkpt>
        <trkpt lat="29.581911" lon="103.382661"><ele>991.39465</ele><time>2026-07-21T02:38:51.000Z</time></trkpt>
        <trkpt lat="29.581926" lon="103.382659"><ele>993.09344</ele><time>2026-07-21T02:38:53.000Z</time></trkpt>
        <trkpt lat="29.581928" lon="103.382661"><ele>993.2094</ele><time>2026-07-21T02:38:55.000Z</time></trkpt>
        <trkpt lat="29.581926" lon="103.382673"><ele>990.21344</ele><time>2026-07-21T02:39:09.000Z</time></trkpt>
        <trkpt lat="29.581939" lon="103.38261"><ele>989.0906</ele><time>2026-07-21T02:39:15.000Z</time></trkpt>
        <trkpt lat="29.581939" lon="103.38261"><ele>989.4499</ele><time>2026-07-21T02:39:17.000Z</time></trkpt>
        <trkpt lat="29.58192" lon="103.382561"><ele>989.40485</ele><time>2026-07-21T02:39:19.000Z</time></trkpt>
        <trkpt lat="29.58192" lon="103.382557"><ele>990.1015</ele><time>2026-07-21T02:39:21.000Z</time></trkpt>
        <trkpt lat="29.581922" lon="103.382554"><ele>990.1816</ele><time>2026-07-21T02:39:23.000Z</time></trkpt>
        <trkpt lat="29.581963" lon="103.382501"><ele>994.001</ele><time>2026-07-21T02:39:27.000Z</time></trkpt>
        <trkpt lat="29.581991" lon="103.382469"><ele>992.9623</ele><time>2026-07-21T02:39:29.000Z</time></trkpt>
        <trkpt lat="29.582018" lon="103.382443"><ele>991.5962</ele><time>2026-07-21T02:39:31.000Z</time></trkpt>
        <trkpt lat="29.582035" lon="103.382429"><ele>988.93774</ele><time>2026-07-21T02:39:33.000Z</time></trkpt>
        <trkpt lat="29.582052" lon="103.382413"><ele>988.27893</ele><time>2026-07-21T02:39:35.000Z</time></trkpt>
        <trkpt lat="29.582062" lon="103.3824"><ele>987.26416</ele><time>2026-07-21T02:39:37.000Z</time></trkpt>
        <trkpt lat="29.582069" lon="103.382386"><ele>986.9459</ele><time>2026-07-21T02:39:38.000Z</time></trkpt>
        <trkpt lat="29.582071" lon="103.382373"><ele>986.8515</ele><time>2026-07-21T02:39:40.000Z</time></trkpt>
        <trkpt lat="29.582072" lon="103.382358"><ele>986.4977</ele><time>2026-07-21T02:39:43.000Z</time></trkpt>
        <trkpt lat="29.582072" lon="103.382339"><ele>986.918</ele><time>2026-07-21T02:39:44.000Z</time></trkpt>
        <trkpt lat="29.582075" lon="103.382318"><ele>988.0537</ele><time>2026-07-21T02:39:47.000Z</time></trkpt>
        <trkpt lat="29.582079" lon="103.382292"><ele>988.1559</ele><time>2026-07-21T02:39:49.000Z</time></trkpt>
        <trkpt lat="29.582083" lon="103.382269"><ele>987.75073</ele><time>2026-07-21T02:39:51.000Z</time></trkpt>
        <trkpt lat="29.58209" lon="103.382248"><ele>987.69574</ele><time>2026-07-21T02:39:53.000Z</time></trkpt>
        <trkpt lat="29.582098" lon="103.38223"><ele>988.78656</ele><time>2026-07-21T02:39:55.000Z</time></trkpt>
        <trkpt lat="29.582106" lon="103.382214"><ele>989.0074</ele><time>2026-07-21T02:39:57.000Z</time></trkpt>
        <trkpt lat="29.582115" lon="103.382201"><ele>989.7412</ele><time>2026-07-21T02:39:59.000Z</time></trkpt>
        <trkpt lat="29.582124" lon="103.382189"><ele>990.5</ele><time>2026-07-21T02:40:01.000Z</time></trkpt>
        <trkpt lat="29.582134" lon="103.382177"><ele>991.3995</ele><time>2026-07-21T02:40:03.000Z</time></trkpt>
        <trkpt lat="29.582145" lon="103.382158"><ele>990.55273</ele><time>2026-07-21T02:40:05.000Z</time></trkpt>
        <trkpt lat="29.582149" lon="103.382142"><ele>989.8228</ele><time>2026-07-21T02:40:07.000Z</time></trkpt>
        <trkpt lat="29.582149" lon="103.382125"><ele>989.43225</ele><time>2026-07-21T02:40:09.000Z</time></trkpt>
        <trkpt lat="29.582145" lon="103.38211"><ele>990.1007</ele><time>2026-07-21T02:40:11.000Z</time></trkpt>
        <trkpt lat="29.58214" lon="103.382098"><ele>990.14923</ele><time>2026-07-21T02:40:13.000Z</time></trkpt>
        <trkpt lat="29.582136" lon="103.382086"><ele>990.66864</ele><time>2026-07-21T02:40:15.000Z</time></trkpt>
        <trkpt lat="29.582134" lon="103.382069"><ele>990.21204</ele><time>2026-07-21T02:40:17.000Z</time></trkpt>
        <trkpt lat="29.582134" lon="103.38205"><ele>990.9822</ele><time>2026-07-21T02:40:19.000Z</time></trkpt>
        <trkpt lat="29.582137" lon="103.382029"><ele>991.55194</ele><time>2026-07-21T02:40:21.000Z</time></trkpt>
        <trkpt lat="29.582143" lon="103.382008"><ele>990.86816</ele><time>2026-07-21T02:40:23.000Z</time></trkpt>
        <trkpt lat="29.58215" lon="103.381994"><ele>991.275</ele><time>2026-07-21T02:40:25.000Z</time></trkpt>
        <trkpt lat="29.58216" lon="103.381983"><ele>992.39056</ele><time>2026-07-21T02:40:27.000Z</time></trkpt>
        <trkpt lat="29.582174" lon="103.381972"><ele>993.3902</ele><time>2026-07-21T02:40:29.000Z</time></trkpt>
        <trkpt lat="29.582191" lon="103.381959"><ele>992.48517</ele><time>2026-07-21T02:40:31.000Z</time></trkpt>
        <trkpt lat="29.582211" lon="103.381943"><ele>992.03485</ele><time>2026-07-21T02:40:33.000Z</time></trkpt>
        <trkpt lat="29.582225" lon="103.381929"><ele>992.142</ele><time>2026-07-21T02:40:35.000Z</time></trkpt>
        <trkpt lat="29.582237" lon="103.381916"><ele>992.433</ele><time>2026-07-21T02:40:37.000Z</time></trkpt>
        <trkpt lat="29.582247" lon="103.381904"><ele>992.8254</ele><time>2026-07-21T02:40:39.000Z</time></trkpt>
        <trkpt lat="29.58226" lon="103.381894"><ele>993.80695</ele><time>2026-07-21T02:40:41.000Z</time></trkpt>
        <trkpt lat="29.582276" lon="103.381884"><ele>993.82654</ele><time>2026-07-21T02:40:43.000Z</time></trkpt>
        <trkpt lat="29.582291" lon="103.381874"><ele>994.0171</ele><time>2026-07-21T02:40:45.000Z</time></trkpt>
        <trkpt lat="29.582307" lon="103.381864"><ele>994.22534</ele><time>2026-07-21T02:40:47.000Z</time></trkpt>
        <trkpt lat="29.582325" lon="103.381851"><ele>993.3012</ele><time>2026-07-21T02:40:49.000Z</time></trkpt>
        <trkpt lat="29.582342" lon="103.381836"><ele>993.2589</ele><time>2026-07-21T02:40:51.000Z</time></trkpt>
        <trkpt lat="29.582358" lon="103.381819"><ele>993.2773</ele><time>2026-07-21T02:40:53.000Z</time></trkpt>
        <trkpt lat="29.582375" lon="103.381802"><ele>994.2966</ele><time>2026-07-21T02:40:55.000Z</time></trkpt>
        <trkpt lat="29.582392" lon="103.381784"><ele>994.6469</ele><time>2026-07-21T02:40:57.000Z</time></trkpt>
        <trkpt lat="29.582406" lon="103.381765"><ele>995.4818</ele><time>2026-07-21T02:40:59.000Z</time></trkpt>
        <trkpt lat="29.582417" lon="103.381745"><ele>994.8923</ele><time>2026-07-21T02:41:01.000Z</time></trkpt>
        <trkpt lat="29.582424" lon="103.381725"><ele>994.93005</ele><time>2026-07-21T02:41:03.000Z</time></trkpt>
        <trkpt lat="29.582431" lon="103.381709"><ele>995.10297</ele><time>2026-07-21T02:41:05.000Z</time></trkpt>
        <trkpt lat="29.582436" lon="103.381695"><ele>995.2483</ele><time>2026-07-21T02:41:07.000Z</time></trkpt>
        <trkpt lat="29.582441" lon="103.381682"><ele>994.8684</ele><time>2026-07-21T02:41:09.000Z</time></trkpt>
        <trkpt lat="29.582446" lon="103.381671"><ele>995.193</ele><time>2026-07-21T02:41:11.000Z</time></trkpt>
        <trkpt lat="29.58245" lon="103.381663"><ele>994.67255</ele><time>2026-07-21T02:41:13.000Z</time></trkpt>
        <trkpt lat="29.582462" lon="103.381641"><ele>994.27386</ele><time>2026-07-21T02:41:17.000Z</time></trkpt>
        <trkpt lat="29.582469" lon="103.381628"><ele>994.77057</ele><time>2026-07-21T02:41:19.000Z</time></trkpt>
        <trkpt lat="29.58248" lon="103.381613"><ele>994.8963</ele><time>2026-07-21T02:41:21.000Z</time></trkpt>
        <trkpt lat="29.582493" lon="103.381594"><ele>994.81805</ele><time>2026-07-21T02:41:23.000Z</time></trkpt>
        <trkpt lat="29.582504" lon="103.381576"><ele>994.5557</ele><time>2026-07-21T02:41:25.000Z</time></trkpt>
        <trkpt lat="29.582516" lon="103.381558"><ele>994.7469</ele><time>2026-07-21T02:41:27.000Z</time></trkpt>
        <trkpt lat="29.58253" lon="103.381537"><ele>995.23346</ele><time>2026-07-21T02:41:29.000Z</time></trkpt>
        <trkpt lat="29.582544" lon="103.381516"><ele>995.3769</ele><time>2026-07-21T02:41:31.000Z</time></trkpt>
        <trkpt lat="29.582557" lon="103.381496"><ele>995.72833</ele><time>2026-07-21T02:41:33.000Z</time></trkpt>
        <trkpt lat="29.58257" lon="103.381477"><ele>995.0683</ele><time>2026-07-21T02:41:35.000Z</time></trkpt>
        <trkpt lat="29.582581" lon="103.381458"><ele>995.18445</ele><time>2026-07-21T02:41:37.000Z</time></trkpt>
        <trkpt lat="29.582593" lon="103.381439"><ele>995.06506</ele><time>2026-07-21T02:41:38.000Z</time></trkpt>
        <trkpt lat="29.582603" lon="103.381421"><ele>995.5402</ele><time>2026-07-21T02:41:40.000Z</time></trkpt>
        <trkpt lat="29.582614" lon="103.381404"><ele>996.0549</ele><time>2026-07-21T02:41:42.000Z</time></trkpt>
        <trkpt lat="29.582626" lon="103.381385"><ele>996.51685</ele><time>2026-07-21T02:41:44.000Z</time></trkpt>
        <trkpt lat="29.582637" lon="103.381366"><ele>996.1067</ele><time>2026-07-21T02:41:46.000Z</time></trkpt>
        <trkpt lat="29.582648" lon="103.381347"><ele>996.2281</ele><time>2026-07-21T02:41:48.000Z</time></trkpt>
        <trkpt lat="29.582659" lon="103.381328"><ele>996.3095</ele><time>2026-07-21T02:41:50.000Z</time></trkpt>
        <trkpt lat="29.582671" lon="103.381308"><ele>996.56213</ele><time>2026-07-21T02:41:53.000Z</time></trkpt>
        <trkpt lat="29.582685" lon="103.38129"><ele>997.6281</ele><time>2026-07-21T02:41:55.000Z</time></trkpt>
        <trkpt lat="29.582698" lon="103.381274"><ele>998.27277</ele><time>2026-07-21T02:41:57.000Z</time></trkpt>
        <trkpt lat="29.58271" lon="103.381257"><ele>998.2565</ele><time>2026-07-21T02:41:59.000Z</time></trkpt>
        <trkpt lat="29.58272" lon="103.381238"><ele>998.0444</ele><time>2026-07-21T02:42:01.000Z</time></trkpt>
        <trkpt lat="29.582731" lon="103.381216"><ele>998.427</ele><time>2026-07-21T02:42:03.000Z</time></trkpt>
        <trkpt lat="29.582742" lon="103.381192"><ele>997.63135</ele><time>2026-07-21T02:42:05.000Z</time></trkpt>
        <trkpt lat="29.582753" lon="103.381169"><ele>997.17145</ele><time>2026-07-21T02:42:07.000Z</time></trkpt>
        <trkpt lat="29.582765" lon="103.381146"><ele>996.675</ele><time>2026-07-21T02:42:09.000Z</time></trkpt>
        <trkpt lat="29.582776" lon="103.381124"><ele>996.85626</ele><time>2026-07-21T02:42:11.000Z</time></trkpt>
        <trkpt lat="29.582785" lon="103.381104"><ele>997.2718</ele><time>2026-07-21T02:42:13.000Z</time></trkpt>
        <trkpt lat="29.582794" lon="103.381081"><ele>996.6854</ele><time>2026-07-21T02:42:15.000Z</time></trkpt>
        <trkpt lat="29.5828" lon="103.381061"><ele>997.42694</ele><time>2026-07-21T02:42:17.000Z</time></trkpt>
        <trkpt lat="29.582805" lon="103.381037"><ele>997.1926</ele><time>2026-07-21T02:42:19.000Z</time></trkpt>
        <trkpt lat="29.582806" lon="103.381015"><ele>995.8387</ele><time>2026-07-21T02:42:21.000Z</time></trkpt>
        <trkpt lat="29.582804" lon="103.38099"><ele>995.0038</ele><time>2026-07-21T02:42:23.000Z</time></trkpt>
        <trkpt lat="29.582801" lon="103.380967"><ele>994.2999</ele><time>2026-07-21T02:42:25.000Z</time></trkpt>
        <trkpt lat="29.582795" lon="103.38094"><ele>993.90344</ele><time>2026-07-21T02:42:27.000Z</time></trkpt>
        <trkpt lat="29.58279" lon="103.380916"><ele>993.14</ele><time>2026-07-21T02:42:29.000Z</time></trkpt>
        <trkpt lat="29.582786" lon="103.380892"><ele>993.5351</ele><time>2026-07-21T02:42:31.000Z</time></trkpt>
        <trkpt lat="29.582781" lon="103.380869"><ele>993.362</ele><time>2026-07-21T02:42:33.000Z</time></trkpt>
        <trkpt lat="29.582779" lon="103.380844"><ele>993.36084</ele><time>2026-07-21T02:42:35.000Z</time></trkpt>
        <trkpt lat="29.582779" lon="103.380821"><ele>993.3717</ele><time>2026-07-21T02:42:37.000Z</time></trkpt>
        <trkpt lat="29.582781" lon="103.380798"><ele>993.31903</ele><time>2026-07-21T02:42:39.000Z</time></trkpt>
        <trkpt lat="29.582784" lon="103.380773"><ele>993.05286</ele><time>2026-07-21T02:42:41.000Z</time></trkpt>
        <trkpt lat="29.582788" lon="103.380748"><ele>993.15137</ele><time>2026-07-21T02:42:43.000Z</time></trkpt>
        <trkpt lat="29.582793" lon="103.380723"><ele>993.4554</ele><time>2026-07-21T02:42:45.000Z</time></trkpt>
        <trkpt lat="29.582798" lon="103.380698"><ele>993.14874</ele><time>2026-07-21T02:42:47.000Z</time></trkpt>
        <trkpt lat="29.582804" lon="103.380672"><ele>993.2714</ele><time>2026-07-21T02:42:49.000Z</time></trkpt>
        <trkpt lat="29.582811" lon="103.380647"><ele>993.4423</ele><time>2026-07-21T02:42:51.000Z</time></trkpt>
        <trkpt lat="29.582816" lon="103.380623"><ele>993.3143</ele><time>2026-07-21T02:42:53.000Z</time></trkpt>
        <trkpt lat="29.582819" lon="103.380596"><ele>992.7189</ele><time>2026-07-21T02:42:55.000Z</time></trkpt>
        <trkpt lat="29.582823" lon="103.380573"><ele>992.5771</ele><time>2026-07-21T02:42:57.000Z</time></trkpt>
        <trkpt lat="29.582829" lon="103.38055"><ele>992.82886</ele><time>2026-07-21T02:42:59.000Z</time></trkpt>
        <trkpt lat="29.582837" lon="103.380528"><ele>992.54913</ele><time>2026-07-21T02:43:01.000Z</time></trkpt>
        <trkpt lat="29.582846" lon="103.380506"><ele>992.601</ele><time>2026-07-21T02:43:03.000Z</time></trkpt>
        <trkpt lat="29.582856" lon="103.380484"><ele>992.80255</ele><time>2026-07-21T02:43:05.000Z</time></trkpt>
        <trkpt lat="29.582865" lon="103.380465"><ele>993.0848</ele><time>2026-07-21T02:43:07.000Z</time></trkpt>
        <trkpt lat="29.582874" lon="103.380448"><ele>993.5692</ele><time>2026-07-21T02:43:09.000Z</time></trkpt>
        <trkpt lat="29.582885" lon="103.380429"><ele>994.06305</ele><time>2026-07-21T02:43:11.000Z</time></trkpt>
        <trkpt lat="29.582894" lon="103.380412"><ele>994.78314</ele><time>2026-07-21T02:43:13.000Z</time></trkpt>
        <trkpt lat="29.582904" lon="103.380393"><ele>995.1039</ele><time>2026-07-21T02:43:15.000Z</time></trkpt>
        <trkpt lat="29.582915" lon="103.380372"><ele>995.3945</ele><time>2026-07-21T02:43:17.000Z</time></trkpt>
        <trkpt lat="29.582925" lon="103.380352"><ele>995.53613</ele><time>2026-07-21T02:43:19.000Z</time></trkpt>
        <trkpt lat="29.582935" lon="103.38033"><ele>995.37866</ele><time>2026-07-21T02:43:21.000Z</time></trkpt>
        <trkpt lat="29.582943" lon="103.380308"><ele>995.0786</ele><time>2026-07-21T02:43:23.000Z</time></trkpt>
        <trkpt lat="29.582951" lon="103.380286"><ele>994.9394</ele><time>2026-07-21T02:43:25.000Z</time></trkpt>
        <trkpt lat="29.582962" lon="103.380265"><ele>994.8886</ele><time>2026-07-21T02:43:27.000Z</time></trkpt>
        <trkpt lat="29.582973" lon="103.380244"><ele>994.8384</ele><time>2026-07-21T02:43:29.000Z</time></trkpt>
        <trkpt lat="29.582986" lon="103.380223"><ele>995.50824</ele><time>2026-07-21T02:43:31.000Z</time></trkpt>
        <trkpt lat="29.582998" lon="103.380203"><ele>996.268</ele><time>2026-07-21T02:43:33.000Z</time></trkpt>
        <trkpt lat="29.583008" lon="103.380186"><ele>997.8447</ele><time>2026-07-21T02:43:35.000Z</time></trkpt>
        <trkpt lat="29.583019" lon="103.38017"><ele>998.5061</ele><time>2026-07-21T02:43:37.000Z</time></trkpt>
        <trkpt lat="29.583028" lon="103.380154"><ele>998.3605</ele><time>2026-07-21T02:43:39.000Z</time></trkpt>
        <trkpt lat="29.583035" lon="103.380143"><ele>998.1373</ele><time>2026-07-21T02:43:41.000Z</time></trkpt>
        <trkpt lat="29.583043" lon="103.380129"><ele>999.6885</ele><time>2026-07-21T02:43:43.000Z</time></trkpt>
        <trkpt lat="29.583051" lon="103.380116"><ele>1000.1438</ele><time>2026-07-21T02:43:45.000Z</time></trkpt>
        <trkpt lat="29.58306" lon="103.380101"><ele>1001.0387</ele><time>2026-07-21T02:43:47.000Z</time></trkpt>
        <trkpt lat="29.583068" lon="103.380087"><ele>1001.44635</ele><time>2026-07-21T02:43:49.000Z</time></trkpt>
        <trkpt lat="29.583079" lon="103.38007"><ele>1001.305</ele><time>2026-07-21T02:43:51.000Z</time></trkpt>
        <trkpt lat="29.58309" lon="103.380052"><ele>1001.17883</ele><time>2026-07-21T02:43:53.000Z</time></trkpt>
        <trkpt lat="29.583099" lon="103.380034"><ele>1001.01056</ele><time>2026-07-21T02:43:55.000Z</time></trkpt>
        <trkpt lat="29.583108" lon="103.380016"><ele>1001.61115</ele><time>2026-07-21T02:43:57.000Z</time></trkpt>
        <trkpt lat="29.583115" lon="103.379997"><ele>1002.62384</ele><time>2026-07-21T02:43:59.000Z</time></trkpt>
        <trkpt lat="29.583118" lon="103.37998"><ele>1003.0556</ele><time>2026-07-21T02:44:01.000Z</time></trkpt>
        <trkpt lat="29.583119" lon="103.379959"><ele>1002.2052</ele><time>2026-07-21T02:44:03.000Z</time></trkpt>
        <trkpt lat="29.583118" lon="103.379939"><ele>1003.1177</ele><time>2026-07-21T02:44:05.000Z</time></trkpt>
        <trkpt lat="29.583116" lon="103.379927"><ele>1002.6179</ele><time>2026-07-21T02:44:07.000Z</time></trkpt>
        <trkpt lat="29.583112" lon="103.379922"><ele>1002.6179</ele><time>2026-07-21T02:44:09.000Z</time></trkpt>
        <trkpt lat="29.583093" lon="103.379899"><ele>1000.7803</ele><time>2026-07-21T02:44:13.000Z</time></trkpt>
        <trkpt lat="29.583086" lon="103.379891"><ele>1000.5129</ele><time>2026-07-21T02:44:15.000Z</time></trkpt>
        <trkpt lat="29.583069" lon="103.379869"><ele>1001.4986</ele><time>2026-07-21T02:44:17.000Z</time></trkpt>
        <trkpt lat="29.583053" lon="103.379847"><ele>1001.2753</ele><time>2026-07-21T02:44:19.000Z</time></trkpt>
        <trkpt lat="29.583043" lon="103.379832"><ele>1001.4746</ele><time>2026-07-21T02:44:21.000Z</time></trkpt>
        <trkpt lat="29.58303" lon="103.379812"><ele>1002.13745</ele><time>2026-07-21T02:44:23.000Z</time></trkpt>
        <trkpt lat="29.58302" lon="103.379794"><ele>1003.7153</ele><time>2026-07-21T02:44:25.000Z</time></trkpt>
        <trkpt lat="29.583008" lon="103.379772"><ele>1003.9717</ele><time>2026-07-21T02:44:27.000Z</time></trkpt>
        <trkpt lat="29.583" lon="103.379754"><ele>1004.19403</ele><time>2026-07-21T02:44:29.000Z</time></trkpt>
        <trkpt lat="29.582991" lon="103.379735"><ele>1004.3348</ele><time>2026-07-21T02:44:31.000Z</time></trkpt>
        <trkpt lat="29.582983" lon="103.379717"><ele>1003.07434</ele><time>2026-07-21T02:44:33.000Z</time></trkpt>
        <trkpt lat="29.582976" lon="103.379701"><ele>1004.0365</ele><time>2026-07-21T02:44:35.000Z</time></trkpt>
        <trkpt lat="29.58297" lon="103.379686"><ele>1004.3692</ele><time>2026-07-21T02:44:37.000Z</time></trkpt>
        <trkpt lat="29.582965" lon="103.379674"><ele>1004.387</ele><time>2026-07-21T02:44:39.000Z</time></trkpt>
        <trkpt lat="29.582958" lon="103.379661"><ele>1005.1682</ele><time>2026-07-21T02:44:41.000Z</time></trkpt>
        <trkpt lat="29.582948" lon="103.379644"><ele>1006.40924</ele><time>2026-07-21T02:44:43.000Z</time></trkpt>
        <trkpt lat="29.582941" lon="103.379631"><ele>1007.6626</ele><time>2026-07-21T02:44:45.000Z</time></trkpt>
        <trkpt lat="29.58294" lon="103.379631"><ele>1007.3345</ele><time>2026-07-21T02:44:47.000Z</time></trkpt>
        <trkpt lat="29.582968" lon="103.379607"><ele>1013.41003</ele><time>2026-07-21T02:44:59.000Z</time></trkpt>
        <trkpt lat="29.582982" lon="103.379589"><ele>1013.34155</ele><time>2026-07-21T02:45:01.000Z</time></trkpt>
        <trkpt lat="29.582997" lon="103.379569"><ele>1013.57635</ele><time>2026-07-21T02:45:03.000Z</time></trkpt>
        <trkpt lat="29.582998" lon="103.379567"><ele>1013.91376</ele><time>2026-07-21T02:45:05.000Z</time></trkpt>
        <trkpt lat="29.583002" lon="103.379559"><ele>1013.98505</ele><time>2026-07-21T02:45:09.000Z</time></trkpt>
        <trkpt lat="29.583018" lon="103.379534"><ele>1013.34094</ele><time>2026-07-21T02:45:13.000Z</time></trkpt>
        <trkpt lat="29.583028" lon="103.379521"><ele>1013.1986</ele><time>2026-07-21T02:45:15.000Z</time></trkpt>
        <trkpt lat="29.583039" lon="103.379513"><ele>1014.8999</ele><time>2026-07-21T02:45:17.000Z</time></trkpt>
        <trkpt lat="29.583047" lon="103.37951"><ele>1015.47064</ele><time>2026-07-21T02:45:19.000Z</time></trkpt>
        <trkpt lat="29.583046" lon="103.379508"><ele>1015.4026</ele><time>2026-07-21T02:45:23.000Z</time></trkpt>
        <trkpt lat="29.583033" lon="103.379484"><ele>1016.7511</ele><time>2026-07-21T02:45:31.000Z</time></trkpt>
        <trkpt lat="29.583024" lon="103.37947"><ele>1015.4563</ele><time>2026-07-21T02:45:33.000Z</time></trkpt>
        <trkpt lat="29.583024" lon="103.379469"><ele>1015.9815</ele><time>2026-07-21T02:45:35.000Z</time></trkpt>
        <trkpt lat="29.583003" lon="103.379441"><ele>1016.3022</ele><time>2026-07-21T02:45:39.000Z</time></trkpt>
        <trkpt lat="29.583002" lon="103.379441"><ele>1016.53076</ele><time>2026-07-21T02:45:41.000Z</time></trkpt>
        <trkpt lat="29.583002" lon="103.379441"><ele>1017.22003</ele><time>2026-07-21T02:45:43.000Z</time></trkpt>
        <trkpt lat="29.58296" lon="103.379447"><ele>1017.26294</ele><time>2026-07-21T02:45:49.000Z</time></trkpt>
        <trkpt lat="29.58296" lon="103.379447"><ele>1018.373</ele><time>2026-07-21T02:45:51.000Z</time></trkpt>
        <trkpt lat="29.582958" lon="103.379448"><ele>1018.055</ele><time>2026-07-21T02:45:53.000Z</time></trkpt>
        <trkpt lat="29.582916" lon="103.379482"><ele>1018.7828</ele><time>2026-07-21T02:45:59.000Z</time></trkpt>
        <trkpt lat="29.582893" lon="103.379498"><ele>1017.68994</ele><time>2026-07-21T02:46:01.000Z</time></trkpt>
        <trkpt lat="29.582871" lon="103.379516"><ele>1015.401</ele><time>2026-07-21T02:46:03.000Z</time></trkpt>
        <trkpt lat="29.582857" lon="103.379534"><ele>1015.5688</ele><time>2026-07-21T02:46:05.000Z</time></trkpt>
        <trkpt lat="29.582851" lon="103.379549"><ele>1016.15216</ele><time>2026-07-21T02:46:07.000Z</time></trkpt>
        <trkpt lat="29.582848" lon="103.379556"><ele>1015.62177</ele><time>2026-07-21T02:46:09.000Z</time></trkpt>
        <trkpt lat="29.58284" lon="103.379565"><ele>1015.49347</ele><time>2026-07-21T02:46:17.000Z</time></trkpt>
        <trkpt lat="29.582829" lon="103.379574"><ele>1015.47156</ele><time>2026-07-21T02:46:19.000Z</time></trkpt>
        <trkpt lat="29.582817" lon="103.379578"><ele>1014.3619</ele><time>2026-07-21T02:46:21.000Z</time></trkpt>
        <trkpt lat="29.582785" lon="103.379589"><ele>1015.48566</ele><time>2026-07-21T02:46:24.000Z</time></trkpt>
        <trkpt lat="29.582785" lon="103.379589"><ele>1016.75146</ele><time>2026-07-21T02:46:26.000Z</time></trkpt>
        <trkpt lat="29.582783" lon="103.379589"><ele>1018.0352</ele><time>2026-07-21T02:46:28.000Z</time></trkpt>
        <trkpt lat="29.582741" lon="103.379587"><ele>1017.7788</ele><time>2026-07-21T02:46:34.000Z</time></trkpt>
        <trkpt lat="29.582735" lon="103.379582"><ele>1018.34296</ele><time>2026-07-21T02:46:36.000Z</time></trkpt>
        <trkpt lat="29.582729" lon="103.379572"><ele>1020.02466</ele><time>2026-07-21T02:46:38.000Z</time></trkpt>
        <trkpt lat="29.582722" lon="103.37956"><ele>1020.70447</ele><time>2026-07-21T02:46:40.000Z</time></trkpt>
        <trkpt lat="29.582724" lon="103.379556"><ele>1020.809</ele><time>2026-07-21T02:46:42.000Z</time></trkpt>
        <trkpt lat="29.582706" lon="103.379598"><ele>1020.58484</ele><time>2026-07-21T02:46:48.000Z</time></trkpt>
        <trkpt lat="29.582701" lon="103.379605"><ele>1020.45087</ele><time>2026-07-21T02:46:50.000Z</time></trkpt>
        <trkpt lat="29.582701" lon="103.379605"><ele>1020.18774</ele><time>2026-07-21T02:46:52.000Z</time></trkpt>
        <trkpt lat="29.582719" lon="103.379544"><ele>1020.6235</ele><time>2026-07-21T02:46:58.000Z</time></trkpt>
        <trkpt lat="29.582719" lon="103.379544"><ele>1020.3122</ele><time>2026-07-21T02:47:00.000Z</time></trkpt>
        <trkpt lat="29.582719" lon="103.379541"><ele>1019.81195</ele><time>2026-07-21T02:47:02.000Z</time></trkpt>
        <trkpt lat="29.582725" lon="103.379489"><ele>1020.2133</ele><time>2026-07-21T02:47:08.000Z</time></trkpt>
        <trkpt lat="29.582728" lon="103.379468"><ele>1020.23566</ele><time>2026-07-21T02:47:10.000Z</time></trkpt>
        <trkpt lat="29.582733" lon="103.379448"><ele>1020.9462</ele><time>2026-07-21T02:47:12.000Z</time></trkpt>
        <trkpt lat="29.582742" lon="103.379427"><ele>1021.11084</ele><time>2026-07-21T02:47:14.000Z</time></trkpt>
        <trkpt lat="29.582754" lon="103.379408"><ele>1021.54895</ele><time>2026-07-21T02:47:16.000Z</time></trkpt>
        <trkpt lat="29.582771" lon="103.379388"><ele>1021.55493</ele><time>2026-07-21T02:47:18.000Z</time></trkpt>
        <trkpt lat="29.582788" lon="103.379371"><ele>1022.03925</ele><time>2026-07-21T02:47:20.000Z</time></trkpt>
        <trkpt lat="29.582805" lon="103.379355"><ele>1023.01013</ele><time>2026-07-21T02:47:22.000Z</time></trkpt>
        <trkpt lat="29.582817" lon="103.379344"><ele>1024.7979</ele><time>2026-07-21T02:47:24.000Z</time></trkpt>
        <trkpt lat="29.582827" lon="103.379339"><ele>1025.6881</ele><time>2026-07-21T02:47:26.000Z</time></trkpt>
        <trkpt lat="29.582837" lon="103.379339"><ele>1026.1123</ele><time>2026-07-21T02:47:28.000Z</time></trkpt>
        <trkpt lat="29.582847" lon="103.37934"><ele>1025.5642</ele><time>2026-07-21T02:47:30.000Z</time></trkpt>
        <trkpt lat="29.582858" lon="103.379343"><ele>1025.7241</ele><time>2026-07-21T02:47:32.000Z</time></trkpt>
        <trkpt lat="29.582867" lon="103.379342"><ele>1025.4084</ele><time>2026-07-21T02:47:34.000Z</time></trkpt>
        <trkpt lat="29.582887" lon="103.379338"><ele>1027.341</ele><time>2026-07-21T02:47:38.000Z</time></trkpt>
        <trkpt lat="29.58289" lon="103.379334"><ele>1027.9159</ele><time>2026-07-21T02:47:40.000Z</time></trkpt>
        <trkpt lat="29.582898" lon="103.379322"><ele>1027.671</ele><time>2026-07-21T02:47:42.000Z</time></trkpt>
        <trkpt lat="29.582908" lon="103.379308"><ele>1027.9617</ele><time>2026-07-21T02:47:44.000Z</time></trkpt>
        <trkpt lat="29.582909" lon="103.379306"><ele>1028.2869</ele><time>2026-07-21T02:47:48.000Z</time></trkpt>
        <trkpt lat="29.582924" lon="103.379287"><ele>1028.1926</ele><time>2026-07-21T02:47:52.000Z</time></trkpt>
        <trkpt lat="29.582937" lon="103.379271"><ele>1028.7147</ele><time>2026-07-21T02:47:54.000Z</time></trkpt>
        <trkpt lat="29.582952" lon="103.379252"><ele>1029.3372</ele><time>2026-07-21T02:47:56.000Z</time></trkpt>
        <trkpt lat="29.582968" lon="103.379232"><ele>1028.9729</ele><time>2026-07-21T02:47:58.000Z</time></trkpt>
        <trkpt lat="29.582983" lon="103.379211"><ele>1028.9255</ele><time>2026-07-21T02:48:00.000Z</time></trkpt>
        <trkpt lat="29.582995" lon="103.379192"><ele>1028.9581</ele><time>2026-07-21T02:48:02.000Z</time></trkpt>
        <trkpt lat="29.583005" lon="103.37917"><ele>1028.9775</ele><time>2026-07-21T02:48:04.000Z</time></trkpt>
        <trkpt lat="29.583015" lon="103.379144"><ele>1027.5461</ele><time>2026-07-21T02:48:06.000Z</time></trkpt>
        <trkpt lat="29.583023" lon="103.379118"><ele>1027.6951</ele><time>2026-07-21T02:48:08.000Z</time></trkpt>
        <trkpt lat="29.583032" lon="103.379093"><ele>1028.5923</ele><time>2026-07-21T02:48:10.000Z</time></trkpt>
        <trkpt lat="29.58304" lon="103.379071"><ele>1029.6272</ele><time>2026-07-21T02:48:12.000Z</time></trkpt>
        <trkpt lat="29.583046" lon="103.379054"><ele>1029.5275</ele><time>2026-07-21T02:48:14.000Z</time></trkpt>
        <trkpt lat="29.583051" lon="103.379037"><ele>1028.2372</ele><time>2026-07-21T02:48:16.000Z</time></trkpt>
        <trkpt lat="29.583055" lon="103.379021"><ele>1029.9003</ele><time>2026-07-21T02:48:18.000Z</time></trkpt>
        <trkpt lat="29.583057" lon="103.379009"><ele>1029.8136</ele><time>2026-07-21T02:48:20.000Z</time></trkpt>
        <trkpt lat="29.583059" lon="103.379"><ele>1030.9386</ele><time>2026-07-21T02:48:22.000Z</time></trkpt>
        <trkpt lat="29.583059" lon="103.378987"><ele>1031.437</ele><time>2026-07-21T02:48:26.000Z</time></trkpt>
        <trkpt lat="29.583057" lon="103.378968"><ele>1032.304</ele><time>2026-07-21T02:48:28.000Z</time></trkpt>
        <trkpt lat="29.583057" lon="103.378963"><ele>1032.6238</ele><time>2026-07-21T02:48:32.000Z</time></trkpt>
        <trkpt lat="29.583055" lon="103.378953"><ele>1032.4598</ele><time>2026-07-21T02:48:34.000Z</time></trkpt>
        <trkpt lat="29.583052" lon="103.378932"><ele>1032.2297</ele><time>2026-07-21T02:48:36.000Z</time></trkpt>
        <trkpt lat="29.583049" lon="103.378909"><ele>1031.692</ele><time>2026-07-21T02:48:38.000Z</time></trkpt>
        <trkpt lat="29.583045" lon="103.378889"><ele>1031.2006</ele><time>2026-07-21T02:48:40.000Z</time></trkpt>
        <trkpt lat="29.583041" lon="103.378873"><ele>1030.7788</ele><time>2026-07-21T02:48:42.000Z</time></trkpt>
        <trkpt lat="29.583039" lon="103.378859"><ele>1031.5922</ele><time>2026-07-21T02:48:44.000Z</time></trkpt>
        <trkpt lat="29.583036" lon="103.378848"><ele>1031.0511</ele><time>2026-07-21T02:48:46.000Z</time></trkpt>
        <trkpt lat="29.583033" lon="103.378837"><ele>1031.9674</ele><time>2026-07-21T02:48:48.000Z</time></trkpt>
        <trkpt lat="29.583028" lon="103.378817"><ele>1031.5211</ele><time>2026-07-21T02:48:52.000Z</time></trkpt>
        <trkpt lat="29.583026" lon="103.378811"><ele>1032.4951</ele><time>2026-07-21T02:48:54.000Z</time></trkpt>
        <trkpt lat="29.583025" lon="103.378801"><ele>1033.1342</ele><time>2026-07-21T02:48:56.000Z</time></trkpt>
        <trkpt lat="29.583022" lon="103.378777"><ele>1033.5988</ele><time>2026-07-21T02:49:02.000Z</time></trkpt>
        <trkpt lat="29.583021" lon="103.378774"><ele>1033.4076</ele><time>2026-07-21T02:49:04.000Z</time></trkpt>
        <trkpt lat="29.583019" lon="103.378768"><ele>1032.527</ele><time>2026-07-21T02:49:06.000Z</time></trkpt>
        <trkpt lat="29.583007" lon="103.378739"><ele>1032.9641</ele><time>2026-07-21T02:49:15.000Z</time></trkpt>
        <trkpt lat="29.583" lon="103.378725"><ele>1033.3323</ele><time>2026-07-21T02:49:17.000Z</time></trkpt>
        <trkpt lat="29.582994" lon="103.378712"><ele>1033.1108</ele><time>2026-07-21T02:49:19.000Z</time></trkpt>
        <trkpt lat="29.58299" lon="103.378704"><ele>1033.0931</ele><time>2026-07-21T02:49:21.000Z</time></trkpt>
        <trkpt lat="29.582982" lon="103.37869"><ele>1033.508</ele><time>2026-07-21T02:49:25.000Z</time></trkpt>
        <trkpt lat="29.582978" lon="103.378683"><ele>1033.7207</ele><time>2026-07-21T02:49:27.000Z</time></trkpt>
        <trkpt lat="29.582972" lon="103.378677"><ele>1032.9482</ele><time>2026-07-21T02:49:29.000Z</time></trkpt>
        <trkpt lat="29.582954" lon="103.37866"><ele>1033.0846</ele><time>2026-07-21T02:49:35.000Z</time></trkpt>
        <trkpt lat="29.582948" lon="103.378655"><ele>1033.0145</ele><time>2026-07-21T02:49:37.000Z</time></trkpt>
        <trkpt lat="29.582945" lon="103.378651"><ele>1033.4102</ele><time>2026-07-21T02:49:39.000Z</time></trkpt>
        <trkpt lat="29.58293" lon="103.378631"><ele>1036.2137</ele><time>2026-07-21T02:49:51.000Z</time></trkpt>
        <trkpt lat="29.582925" lon="103.378626"><ele>1036.6248</ele><time>2026-07-21T02:49:53.000Z</time></trkpt>
        <trkpt lat="29.58292" lon="103.378619"><ele>1037.5037</ele><time>2026-07-21T02:49:55.000Z</time></trkpt>
        <trkpt lat="29.582905" lon="103.3786"><ele>1039.5544</ele><time>2026-07-21T02:50:01.000Z</time></trkpt>
        <trkpt lat="29.582901" lon="103.378596"><ele>1039.4039</ele><time>2026-07-21T02:50:03.000Z</time></trkpt>
        <trkpt lat="29.582896" lon="103.378593"><ele>1039.9757</ele><time>2026-07-21T02:50:05.000Z</time></trkpt>
        <trkpt lat="29.582872" lon="103.378581"><ele>1040.0966</ele><time>2026-07-21T02:50:11.000Z</time></trkpt>
        <trkpt lat="29.582867" lon="103.378579"><ele>1040.9095</ele><time>2026-07-21T02:50:13.000Z</time></trkpt>
        <trkpt lat="29.582861" lon="103.378575"><ele>1041.699</ele><time>2026-07-21T02:50:15.000Z</time></trkpt>
        <trkpt lat="29.582827" lon="103.378556"><ele>1041.6012</ele><time>2026-07-21T02:50:19.000Z</time></trkpt>
        <trkpt lat="29.582827" lon="103.378555"><ele>1040.1132</ele><time>2026-07-21T02:50:21.000Z</time></trkpt>
        <trkpt lat="29.582825" lon="103.378553"><ele>1040.1749</ele><time>2026-07-21T02:50:23.000Z</time></trkpt>
        <trkpt lat="29.582804" lon="103.378521"><ele>1041.3455</ele><time>2026-07-21T02:50:29.000Z</time></trkpt>
        <trkpt lat="29.582799" lon="103.378509"><ele>1042.4777</ele><time>2026-07-21T02:50:31.000Z</time></trkpt>
        <trkpt lat="29.582795" lon="103.378498"><ele>1043.2549</ele><time>2026-07-21T02:50:33.000Z</time></trkpt>
        <trkpt lat="29.58279" lon="103.378491"><ele>1042.632</ele><time>2026-07-21T02:50:35.000Z</time></trkpt>
        <trkpt lat="29.582782" lon="103.378482"><ele>1043.3201</ele><time>2026-07-21T02:50:37.000Z</time></trkpt>
        <trkpt lat="29.582772" lon="103.378473"><ele>1043.301</ele><time>2026-07-21T02:50:39.000Z</time></trkpt>
        <trkpt lat="29.582764" lon="103.378466"><ele>1044.3044</ele><time>2026-07-21T02:50:41.000Z</time></trkpt>
        <trkpt lat="29.582753" lon="103.37846"><ele>1044.5461</ele><time>2026-07-21T02:50:43.000Z</time></trkpt>
        <trkpt lat="29.58274" lon="103.378451"><ele>1044.244</ele><time>2026-07-21T02:50:45.000Z</time></trkpt>
        <trkpt lat="29.582726" lon="103.37844"><ele>1044.6906</ele><time>2026-07-21T02:50:47.000Z</time></trkpt>
        <trkpt lat="29.582713" lon="103.37843"><ele>1045.4558</ele><time>2026-07-21T02:50:49.000Z</time></trkpt>
        <trkpt lat="29.582698" lon="103.378415"><ele>1046.9675</ele><time>2026-07-21T02:50:51.000Z</time></trkpt>
        <trkpt lat="29.582688" lon="103.378402"><ele>1047.9309</ele><time>2026-07-21T02:50:53.000Z</time></trkpt>
        <trkpt lat="29.582681" lon="103.378392"><ele>1049.1254</ele><time>2026-07-21T02:50:55.000Z</time></trkpt>
        <trkpt lat="29.582677" lon="103.37839"><ele>1051.0527</ele><time>2026-07-21T02:50:57.000Z</time></trkpt>
        <trkpt lat="29.582657" lon="103.378381"><ele>1052.686</ele><time>2026-07-21T02:51:09.000Z</time></trkpt>
        <trkpt lat="29.582651" lon="103.378376"><ele>1053.5546</ele><time>2026-07-21T02:51:11.000Z</time></trkpt>
        <trkpt lat="29.58265" lon="103.378377"><ele>1052.7272</ele><time>2026-07-21T02:51:13.000Z</time></trkpt>
        <trkpt lat="29.582681" lon="103.378358"><ele>1052.8793</ele><time>2026-07-21T02:51:29.000Z</time></trkpt>
        <trkpt lat="29.582683" lon="103.378356"><ele>1054.2253</ele><time>2026-07-21T02:51:31.000Z</time></trkpt>
        <trkpt lat="29.582684" lon="103.378357"><ele>1054.2253</ele><time>2026-07-21T02:51:33.000Z</time></trkpt>
        <trkpt lat="29.582649" lon="103.378341"><ele>1059.2479</ele><time>2026-07-21T02:53:01.000Z</time></trkpt>
        <trkpt lat="29.582633" lon="103.378334"><ele>1059.8651</ele><time>2026-07-21T02:53:03.000Z</time></trkpt>
        <trkpt lat="29.582632" lon="103.378334"><ele>1060.408</ele><time>2026-07-21T02:53:05.000Z</time></trkpt>
        <trkpt lat="29.582611" lon="103.378326"><ele>1061.2367</ele><time>2026-07-21T02:53:13.000Z</time></trkpt>
        <trkpt lat="29.582599" lon="103.378321"><ele>1060.5643</ele><time>2026-07-21T02:53:15.000Z</time></trkpt>
        <trkpt lat="29.582598" lon="103.378321"><ele>1061.4667</ele><time>2026-07-21T02:53:17.000Z</time></trkpt>
        <trkpt lat="29.582572" lon="103.378316"><ele>1063.7787</ele><time>2026-07-21T02:53:23.000Z</time></trkpt>
        <trkpt lat="29.582555" lon="103.378311"><ele>1064.6292</ele><time>2026-07-21T02:53:25.000Z</time></trkpt>
        <trkpt lat="29.58254" lon="103.378308"><ele>1064.5255</ele><time>2026-07-21T02:53:27.000Z</time></trkpt>
        <trkpt lat="29.582526" lon="103.378304"><ele>1064.317</ele><time>2026-07-21T02:53:29.000Z</time></trkpt>
        <trkpt lat="29.582517" lon="103.3783"><ele>1064.5765</ele><time>2026-07-21T02:53:31.000Z</time></trkpt>
        <trkpt lat="29.582512" lon="103.378295"><ele>1064.6685</ele><time>2026-07-21T02:53:33.000Z</time></trkpt>
        <trkpt lat="29.582499" lon="103.378276"><ele>1063.113</ele><time>2026-07-21T02:53:37.000Z</time></trkpt>
        <trkpt lat="29.582496" lon="103.378272"><ele>1064.5154</ele><time>2026-07-21T02:53:39.000Z</time></trkpt>
        <trkpt lat="29.582492" lon="103.378267"><ele>1064.9702</ele><time>2026-07-21T02:53:45.000Z</time></trkpt>
        <trkpt lat="29.582484" lon="103.378244"><ele>1065.7102</ele><time>2026-07-21T02:53:51.000Z</time></trkpt>
        <trkpt lat="29.582479" lon="103.378226"><ele>1066.0597</ele><time>2026-07-21T02:53:53.000Z</time></trkpt>
        <trkpt lat="29.582478" lon="103.378225"><ele>1065.9043</ele><time>2026-07-21T02:53:55.000Z</time></trkpt>
        <trkpt lat="29.582473" lon="103.378205"><ele>1066.0001</ele><time>2026-07-21T02:54:01.000Z</time></trkpt>
        <trkpt lat="29.582467" lon="103.378186"><ele>1065.1621</ele><time>2026-07-21T02:54:05.000Z</time></trkpt>
        <trkpt lat="29.582469" lon="103.378181"><ele>1065.1621</ele><time>2026-07-21T02:54:07.000Z</time></trkpt>
        <trkpt lat="29.58247" lon="103.378165"><ele>1066.2476</ele><time>2026-07-21T02:54:13.000Z</time></trkpt>
        <trkpt lat="29.582469" lon="103.378148"><ele>1066.8442</ele><time>2026-07-21T02:54:17.000Z</time></trkpt>
        <trkpt lat="29.582469" lon="103.378139"><ele>1067.5575</ele><time>2026-07-21T02:54:19.000Z</time></trkpt>
        <trkpt lat="29.582464" lon="103.378123"><ele>1067.873</ele><time>2026-07-21T02:54:21.000Z</time></trkpt>
        <trkpt lat="29.58246" lon="103.378114"><ele>1068.8075</ele><time>2026-07-21T02:54:27.000Z</time></trkpt>
        <trkpt lat="29.582453" lon="103.378102"><ele>1069.1967</ele><time>2026-07-21T02:54:29.000Z</time></trkpt>
        <trkpt lat="29.582443" lon="103.378084"><ele>1068.8934</ele><time>2026-07-21T02:54:31.000Z</time></trkpt>
        <trkpt lat="29.582434" lon="103.378067"><ele>1068.9729</ele><time>2026-07-21T02:54:33.000Z</time></trkpt>
        <trkpt lat="29.582427" lon="103.378052"><ele>1070.0524</ele><time>2026-07-21T02:54:35.000Z</time></trkpt>
        <trkpt lat="29.582423" lon="103.378041"><ele>1070.7604</ele><time>2026-07-21T02:54:37.000Z</time></trkpt>
        <trkpt lat="29.58242" lon="103.378031"><ele>1071.8838</ele><time>2026-07-21T02:54:39.000Z</time></trkpt>
        <trkpt lat="29.582415" lon="103.378005"><ele>1072.3019</ele><time>2026-07-21T02:54:43.000Z</time></trkpt>
        <trkpt lat="29.582413" lon="103.37799"><ele>1071.8901</ele><time>2026-07-21T02:54:45.000Z</time></trkpt>
        <trkpt lat="29.582411" lon="103.377971"><ele>1071.6382</ele><time>2026-07-21T02:54:47.000Z</time></trkpt>
        <trkpt lat="29.58241" lon="103.377952"><ele>1071.6104</ele><time>2026-07-21T02:54:49.000Z</time></trkpt>
        <trkpt lat="29.582409" lon="103.377933"><ele>1071.9736</ele><time>2026-07-21T02:54:51.000Z</time></trkpt>
        <trkpt lat="29.582409" lon="103.377915"><ele>1072.2473</ele><time>2026-07-21T02:54:53.000Z</time></trkpt>
        <trkpt lat="29.582409" lon="103.377899"><ele>1072.152</ele><time>2026-07-21T02:54:55.000Z</time></trkpt>
        <trkpt lat="29.58241" lon="103.377884"><ele>1072.5303</ele><time>2026-07-21T02:54:57.000Z</time></trkpt>
        <trkpt lat="29.58241" lon="103.377867"><ele>1072.2898</ele><time>2026-07-21T02:54:59.000Z</time></trkpt>
        <trkpt lat="29.582409" lon="103.377849"><ele>1071.8151</ele><time>2026-07-21T02:55:01.000Z</time></trkpt>
        <trkpt lat="29.582407" lon="103.377836"><ele>1073.127</ele><time>2026-07-21T02:55:03.000Z</time></trkpt>
        <trkpt lat="29.582406" lon="103.377829"><ele>1073.917</ele><time>2026-07-21T02:55:05.000Z</time></trkpt>
        <trkpt lat="29.582402" lon="103.377811"><ele>1074.8713</ele><time>2026-07-21T02:55:09.000Z</time></trkpt>
        <trkpt lat="29.582398" lon="103.377796"><ele>1075.4662</ele><time>2026-07-21T02:55:11.000Z</time></trkpt>
        <trkpt lat="29.582398" lon="103.377795"><ele>1075.897</ele><time>2026-07-21T02:55:13.000Z</time></trkpt>
        <trkpt lat="29.582394" lon="103.377776"><ele>1077.3116</ele><time>2026-07-21T02:55:19.000Z</time></trkpt>
        <trkpt lat="29.582388" lon="103.377746"><ele>1078.6688</ele><time>2026-07-21T02:55:23.000Z</time></trkpt>
        <trkpt lat="29.582388" lon="103.377746"><ele>1078.784</ele><time>2026-07-21T02:55:25.000Z</time></trkpt>
        <trkpt lat="29.58239" lon="103.377736"><ele>1079.0773</ele><time>2026-07-21T02:55:29.000Z</time></trkpt>
        <trkpt lat="29.582402" lon="103.377699"><ele>1080.005</ele><time>2026-07-21T02:55:33.000Z</time></trkpt>
        <trkpt lat="29.582408" lon="103.377685"><ele>1080.073</ele><time>2026-07-21T02:55:35.000Z</time></trkpt>
        <trkpt lat="29.582412" lon="103.377671"><ele>1080.3496</ele><time>2026-07-21T02:55:37.000Z</time></trkpt>
        <trkpt lat="29.582414" lon="103.377657"><ele>1080.1544</ele><time>2026-07-21T02:55:39.000Z</time></trkpt>
        <trkpt lat="29.582414" lon="103.377643"><ele>1080.0712</ele><time>2026-07-21T02:55:41.000Z</time></trkpt>
        <trkpt lat="29.582414" lon="103.377631"><ele>1080.7133</ele><time>2026-07-21T02:55:43.000Z</time></trkpt>
        <trkpt lat="29.582412" lon="103.37762"><ele>1080.5642</ele><time>2026-07-21T02:55:45.000Z</time></trkpt>
        <trkpt lat="29.582411" lon="103.377609"><ele>1080.61</ele><time>2026-07-21T02:55:47.000Z</time></trkpt>
        <trkpt lat="29.582411" lon="103.37759"><ele>1081.7155</ele><time>2026-07-21T02:55:51.000Z</time></trkpt>
        <trkpt lat="29.582412" lon="103.377583"><ele>1082.4364</ele><time>2026-07-21T02:55:53.000Z</time></trkpt>
        <trkpt lat="29.582413" lon="103.377575"><ele>1083.1199</ele><time>2026-07-21T02:55:55.000Z</time></trkpt>
        <trkpt lat="29.582419" lon="103.377553"><ele>1086.1417</ele><time>2026-07-21T02:56:01.000Z</time></trkpt>
        <trkpt lat="29.582421" lon="103.377547"><ele>1085.898</ele><time>2026-07-21T02:56:03.000Z</time></trkpt>
        <trkpt lat="29.582425" lon="103.377539"><ele>1086.0264</ele><time>2026-07-21T02:56:05.000Z</time></trkpt>
        <trkpt lat="29.582435" lon="103.377518"><ele>1089.9939</ele><time>2026-07-21T02:56:11.000Z</time></trkpt>
        <trkpt lat="29.582438" lon="103.377512"><ele>1090.2435</ele><time>2026-07-21T02:56:13.000Z</time></trkpt>
        <trkpt lat="29.58244" lon="103.377505"><ele>1091.036</ele><time>2026-07-21T02:56:15.000Z</time></trkpt>
        <trkpt lat="29.582443" lon="103.377482"><ele>1091.4629</ele><time>2026-07-21T02:56:21.000Z</time></trkpt>
        <trkpt lat="29.582441" lon="103.377477"><ele>1091.8674</ele><time>2026-07-21T02:56:23.000Z</time></trkpt>
        <trkpt lat="29.58243" lon="103.377456"><ele>1091.0446</ele><time>2026-07-21T02:56:39.000Z</time></trkpt>
        <trkpt lat="29.582427" lon="103.377449"><ele>1091.5676</ele><time>2026-07-21T02:57:22.000Z</time></trkpt>
        <trkpt lat="29.582424" lon="103.377443"><ele>1091.6805</ele><time>2026-07-21T02:57:24.000Z</time></trkpt>
        <trkpt lat="29.582414" lon="103.377423"><ele>1093.4518</ele><time>2026-07-21T02:57:32.000Z</time></trkpt>
        <trkpt lat="29.582407" lon="103.377407"><ele>1092.9293</ele><time>2026-07-21T02:57:34.000Z</time></trkpt>
        <trkpt lat="29.582406" lon="103.377406"><ele>1092.3245</ele><time>2026-07-21T02:57:36.000Z</time></trkpt>
        <trkpt lat="29.5824" lon="103.377382"><ele>1092.8878</ele><time>2026-07-21T02:57:42.000Z</time></trkpt>
        <trkpt lat="29.582394" lon="103.377367"><ele>1092.8191</ele><time>2026-07-21T02:57:44.000Z</time></trkpt>
        <trkpt lat="29.582385" lon="103.377348"><ele>1092.3429</ele><time>2026-07-21T02:57:46.000Z</time></trkpt>
        <trkpt lat="29.582378" lon="103.377337"><ele>1093.0372</ele><time>2026-07-21T02:57:48.000Z</time></trkpt>
        <trkpt lat="29.58237" lon="103.377328"><ele>1094.715</ele><time>2026-07-21T02:57:50.000Z</time></trkpt>
        <trkpt lat="29.582361" lon="103.377317"><ele>1094.1544</ele><time>2026-07-21T02:57:52.000Z</time></trkpt>
        <trkpt lat="29.582354" lon="103.377308"><ele>1093.7633</ele><time>2026-07-21T02:57:54.000Z</time></trkpt>
        <trkpt lat="29.582349" lon="103.3773"><ele>1094.3181</ele><time>2026-07-21T02:57:56.000Z</time></trkpt>
        <trkpt lat="29.582342" lon="103.37729"><ele>1094.453</ele><time>2026-07-21T02:57:58.000Z</time></trkpt>
        <trkpt lat="29.582332" lon="103.377279"><ele>1094.7614</ele><time>2026-07-21T02:58:00.000Z</time></trkpt>
        <trkpt lat="29.582322" lon="103.377268"><ele>1095.6472</ele><time>2026-07-21T02:58:02.000Z</time></trkpt>
        <trkpt lat="29.582313" lon="103.37726"><ele>1096.0546</ele><time>2026-07-21T02:58:04.000Z</time></trkpt>
        <trkpt lat="29.582306" lon="103.377256"><ele>1096.0624</ele><time>2026-07-21T02:58:06.000Z</time></trkpt>
        <trkpt lat="29.582294" lon="103.37725"><ele>1096.8899</ele><time>2026-07-21T02:58:10.000Z</time></trkpt>
        <trkpt lat="29.582288" lon="103.377243"><ele>1095.9697</ele><time>2026-07-21T02:58:18.000Z</time></trkpt>
        <trkpt lat="29.582282" lon="103.377233"><ele>1096.9655</ele><time>2026-07-21T02:58:24.000Z</time></trkpt>
        <trkpt lat="29.582276" lon="103.377218"><ele>1099.0386</ele><time>2026-07-21T02:58:28.000Z</time></trkpt>
        <trkpt lat="29.582267" lon="103.3772"><ele>1099.181</ele><time>2026-07-21T02:58:30.000Z</time></trkpt>
        <trkpt lat="29.582267" lon="103.377198"><ele>1099.6052</ele><time>2026-07-21T02:58:32.000Z</time></trkpt>
        <trkpt lat="29.582269" lon="103.377144"><ele>1102.1184</ele><time>2026-07-21T02:58:49.000Z</time></trkpt>
        <trkpt lat="29.582234" lon="103.377125"><ele>1102.2947</ele><time>2026-07-21T02:58:59.000Z</time></trkpt>
        <trkpt lat="29.582222" lon="103.377119"><ele>1102.0193</ele><time>2026-07-21T02:59:01.000Z</time></trkpt>
        <trkpt lat="29.582221" lon="103.377119"><ele>1102.2944</ele><time>2026-07-21T02:59:03.000Z</time></trkpt>
        <trkpt lat="29.582201" lon="103.377121"><ele>1103.8274</ele><time>2026-07-21T02:59:11.000Z</time></trkpt>
        <trkpt lat="29.582181" lon="103.377123"><ele>1104.0089</ele><time>2026-07-21T02:59:13.000Z</time></trkpt>
        <trkpt lat="29.582179" lon="103.377123"><ele>1104.0713</ele><time>2026-07-21T02:59:15.000Z</time></trkpt>
        <trkpt lat="29.582161" lon="103.377123"><ele>1105.2076</ele><time>2026-07-21T02:59:21.000Z</time></trkpt>
        <trkpt lat="29.582152" lon="103.377125"><ele>1106.3743</ele><time>2026-07-21T02:59:23.000Z</time></trkpt>
        <trkpt lat="29.582151" lon="103.377126"><ele>1108.8019</ele><time>2026-07-21T02:59:25.000Z</time></trkpt>
        <trkpt lat="29.582155" lon="103.377083"><ele>1114.9825</ele><time>2026-07-21T02:59:47.000Z</time></trkpt>
        <trkpt lat="29.582155" lon="103.377075"><ele>1115.7777</ele><time>2026-07-21T02:59:49.000Z</time></trkpt>
        <trkpt lat="29.582153" lon="103.377066"><ele>1115.947</ele><time>2026-07-21T02:59:51.000Z</time></trkpt>
        <trkpt lat="29.582146" lon="103.37703"><ele>1119.1392</ele><time>2026-07-21T03:00:25.000Z</time></trkpt>
        <trkpt lat="29.582146" lon="103.377023"><ele>1118.9509</ele><time>2026-07-21T03:00:27.000Z</time></trkpt>
        <trkpt lat="29.582144" lon="103.377016"><ele>1119.4208</ele><time>2026-07-21T03:00:29.000Z</time></trkpt>
        <trkpt lat="29.582138" lon="103.37699"><ele>1118.332</ele><time>2026-07-21T03:00:31.000Z</time></trkpt>
        <trkpt lat="29.582138" lon="103.376988"><ele>1118.1948</ele><time>2026-07-21T03:00:33.000Z</time></trkpt>
        <trkpt lat="29.582141" lon="103.376975"><ele>1119.1981</ele><time>2026-07-21T03:00:37.000Z</time></trkpt>
        <trkpt lat="29.582148" lon="103.376939"><ele>1121.5065</ele><time>2026-07-21T03:00:41.000Z</time></trkpt>
        <trkpt lat="29.582151" lon="103.376922"><ele>1121.747</ele><time>2026-07-21T03:00:43.000Z</time></trkpt>
        <trkpt lat="29.582153" lon="103.376909"><ele>1121.597</ele><time>2026-07-21T03:00:45.000Z</time></trkpt>
        <trkpt lat="29.582156" lon="103.376897"><ele>1122.5189</ele><time>2026-07-21T03:00:47.000Z</time></trkpt>
        <trkpt lat="29.582156" lon="103.376888"><ele>1122.5116</ele><time>2026-07-21T03:00:49.000Z</time></trkpt>
        <trkpt lat="29.582155" lon="103.376868"><ele>1122.474</ele><time>2026-07-21T03:00:53.000Z</time></trkpt>
        <trkpt lat="29.582153" lon="103.37686"><ele>1123.0709</ele><time>2026-07-21T03:00:55.000Z</time></trkpt>
        <trkpt lat="29.58215" lon="103.376838"><ele>1122.9205</ele><time>2026-07-21T03:00:57.000Z</time></trkpt>
        <trkpt lat="29.582152" lon="103.376831"><ele>1123.74</ele><time>2026-07-21T03:01:03.000Z</time></trkpt>
        <trkpt lat="29.582155" lon="103.37682"><ele>1123.9083</ele><time>2026-07-21T03:01:05.000Z</time></trkpt>
        <trkpt lat="29.58216" lon="103.376802"><ele>1124.1243</ele><time>2026-07-21T03:01:07.000Z</time></trkpt>
        <trkpt lat="29.582165" lon="103.376786"><ele>1124.8492</ele><time>2026-07-21T03:01:09.000Z</time></trkpt>
        <trkpt lat="29.582166" lon="103.376774"><ele>1124.8131</ele><time>2026-07-21T03:01:11.000Z</time></trkpt>
        <trkpt lat="29.582162" lon="103.376765"><ele>1125.0739</ele><time>2026-07-21T03:01:13.000Z</time></trkpt>
        <trkpt lat="29.582151" lon="103.376755"><ele>1125.2917</ele><time>2026-07-21T03:01:17.000Z</time></trkpt>
        <trkpt lat="29.582142" lon="103.376749"><ele>1126.043</ele><time>2026-07-21T03:01:21.000Z</time></trkpt>
        <trkpt lat="29.582128" lon="103.37674"><ele>1126.1865</ele><time>2026-07-21T03:01:25.000Z</time></trkpt>
        <trkpt lat="29.582105" lon="103.376726"><ele>1126.8362</ele><time>2026-07-21T03:01:27.000Z</time></trkpt>
        <trkpt lat="29.582105" lon="103.376726"><ele>1127.3312</ele><time>2026-07-21T03:01:29.000Z</time></trkpt>
        <trkpt lat="29.582095" lon="103.376731"><ele>1126.0239</ele><time>2026-07-21T03:01:35.000Z</time></trkpt>
        <trkpt lat="29.582073" lon="103.376742"><ele>1126.8398</ele><time>2026-07-21T03:01:39.000Z</time></trkpt>
        <trkpt lat="29.582073" lon="103.376742"><ele>1127.4685</ele><time>2026-07-21T03:01:41.000Z</time></trkpt>
        <trkpt lat="29.582067" lon="103.376725"><ele>1129.563</ele><time>2026-07-21T03:01:49.000Z</time></trkpt>
        <trkpt lat="29.582059" lon="103.376697"><ele>1130.613</ele><time>2026-07-21T03:01:53.000Z</time></trkpt>
        <trkpt lat="29.582059" lon="103.376697"><ele>1130.897</ele><time>2026-07-21T03:01:55.000Z</time></trkpt>
        <trkpt lat="29.582059" lon="103.376688"><ele>1130.4745</ele><time>2026-07-21T03:01:59.000Z</time></trkpt>
        <trkpt lat="29.582062" lon="103.376661"><ele>1130.6597</ele><time>2026-07-21T03:02:05.000Z</time></trkpt>
        <trkpt lat="29.582064" lon="103.376655"><ele>1130.7147</ele><time>2026-07-21T03:02:07.000Z</time></trkpt>
        <trkpt lat="29.582063" lon="103.376646"><ele>1130.8151</ele><time>2026-07-21T03:02:09.000Z</time></trkpt>
        <trkpt lat="29.582059" lon="103.376624"><ele>1136.6519</ele><time>2026-07-21T03:02:27.000Z</time></trkpt>
        <trkpt lat="29.582057" lon="103.376615"><ele>1136.4166</ele><time>2026-07-21T03:02:29.000Z</time></trkpt>
        <trkpt lat="29.582058" lon="103.376609"><ele>1137.1643</ele><time>2026-07-21T03:02:31.000Z</time></trkpt>
        <trkpt lat="29.582061" lon="103.376586"><ele>1141.0225</ele><time>2026-07-21T03:02:39.000Z</time></trkpt>
        <trkpt lat="29.582059" lon="103.376582"><ele>1140.0693</ele><time>2026-07-21T03:02:41.000Z</time></trkpt>
        <trkpt lat="29.582038" lon="103.376553"><ele>1138.4474</ele><time>2026-07-21T03:02:56.000Z</time></trkpt>
        <trkpt lat="29.582041" lon="103.376556"><ele>1138.843</ele><time>2026-07-21T03:03:11.000Z</time></trkpt>
        <trkpt lat="29.582032" lon="103.37655"><ele>1137.8696</ele><time>2026-07-21T03:03:26.000Z</time></trkpt>
        <trkpt lat="29.58201" lon="103.376537"><ele>1139.3062</ele><time>2026-07-21T03:03:37.000Z</time></trkpt>
        <trkpt lat="29.582005" lon="103.376536"><ele>1138.902</ele><time>2026-07-21T03:03:39.000Z</time></trkpt>
        <trkpt lat="29.582" lon="103.376534"><ele>1139.0034</ele><time>2026-07-21T03:03:41.000Z</time></trkpt>
        <trkpt lat="29.581972" lon="103.376524"><ele>1141.3851</ele><time>2026-07-21T03:03:53.000Z</time></trkpt>
        <trkpt lat="29.581957" lon="103.376518"><ele>1141.1669</ele><time>2026-07-21T03:03:55.000Z</time></trkpt>
        <trkpt lat="29.581956" lon="103.376518"><ele>1141.7335</ele><time>2026-07-21T03:03:57.000Z</time></trkpt>
        <trkpt lat="29.581941" lon="103.376516"><ele>1142.1731</ele><time>2026-07-21T03:04:03.000Z</time></trkpt>
        <trkpt lat="29.581912" lon="103.376512"><ele>1143.5298</ele><time>2026-07-21T03:04:07.000Z</time></trkpt>
        <trkpt lat="29.581912" lon="103.376512"><ele>1143.745</ele><time>2026-07-21T03:04:09.000Z</time></trkpt>
        <trkpt lat="29.581911" lon="103.376512"><ele>1144.0059</ele><time>2026-07-21T03:04:11.000Z</time></trkpt>
        <trkpt lat="29.581874" lon="103.376491"><ele>1142.2792</ele><time>2026-07-21T03:04:21.000Z</time></trkpt>
        <trkpt lat="29.581865" lon="103.376486"><ele>1142.0638</ele><time>2026-07-21T03:04:23.000Z</time></trkpt>
        <trkpt lat="29.581864" lon="103.376486"><ele>1142.0422</ele><time>2026-07-21T03:04:25.000Z</time></trkpt>
        <trkpt lat="29.581843" lon="103.376489"><ele>1140.0938</ele><time>2026-07-21T03:04:33.000Z</time></trkpt>
        <trkpt lat="29.581832" lon="103.376491"><ele>1141.0077</ele><time>2026-07-21T03:04:37.000Z</time></trkpt>
        <trkpt lat="29.58183" lon="103.376492"><ele>1141.3916</ele><time>2026-07-21T03:04:39.000Z</time></trkpt>
        <trkpt lat="29.581815" lon="103.376494"><ele>1143.3666</ele><time>2026-07-21T03:05:05.000Z</time></trkpt>
        <trkpt lat="29.581793" lon="103.376498"><ele>1145.3112</ele><time>2026-07-21T03:05:09.000Z</time></trkpt>
        <trkpt lat="29.581784" lon="103.3765"><ele>1145.1431</ele><time>2026-07-21T03:05:11.000Z</time></trkpt>
        <trkpt lat="29.581783" lon="103.3765"><ele>1146.3091</ele><time>2026-07-21T03:05:13.000Z</time></trkpt>
        <trkpt lat="29.581739" lon="103.376496"><ele>1146.2076</ele><time>2026-07-21T03:05:21.000Z</time></trkpt>
        <trkpt lat="29.581739" lon="103.376496"><ele>1146.0952</ele><time>2026-07-21T03:05:23.000Z</time></trkpt>
        <trkpt lat="29.581739" lon="103.376496"><ele>1144.5475</ele><time>2026-07-21T03:05:25.000Z</time></trkpt>
        <trkpt lat="29.581756" lon="103.376467"><ele>1152.2166</ele><time>2026-07-21T03:05:39.000Z</time></trkpt>
        <trkpt lat="29.58176" lon="103.376461"><ele>1152.7505</ele><time>2026-07-21T03:05:41.000Z</time></trkpt>
        <trkpt lat="29.581763" lon="103.376452"><ele>1153.1003</ele><time>2026-07-21T03:05:43.000Z</time></trkpt>
        <trkpt lat="29.581768" lon="103.376433"><ele>1153.4904</ele><time>2026-07-21T03:05:47.000Z</time></trkpt>
        <trkpt lat="29.581769" lon="103.376424"><ele>1154.2421</ele><time>2026-07-21T03:05:49.000Z</time></trkpt>
        <trkpt lat="29.581771" lon="103.376416"><ele>1154.6381</ele><time>2026-07-21T03:05:51.000Z</time></trkpt>
        <trkpt lat="29.581776" lon="103.376398"><ele>1156.1484</ele><time>2026-07-21T03:05:55.000Z</time></trkpt>
        <trkpt lat="29.581804" lon="103.376313"><ele>1157.3279</ele><time>2026-07-21T03:06:10.000Z</time></trkpt>
        <trkpt lat="29.581801" lon="103.376228"><ele>1158.5718</ele><time>2026-07-21T03:06:25.000Z</time></trkpt>
        <trkpt lat="29.581742" lon="103.376201"><ele>1159.719</ele><time>2026-07-21T03:06:40.000Z</time></trkpt>
        <trkpt lat="29.581736" lon="103.3762"><ele>1160.9021</ele><time>2026-07-21T03:06:42.000Z</time></trkpt>
        <trkpt lat="29.581727" lon="103.376204"><ele>1161.5303</ele><time>2026-07-21T03:06:44.000Z</time></trkpt>
        <trkpt lat="29.58171" lon="103.376212"><ele>1162.4056</ele><time>2026-07-21T03:06:54.000Z</time></trkpt>
        <trkpt lat="29.581744" lon="103.376233"><ele>1162.1927</ele><time>2026-07-21T03:07:10.000Z</time></trkpt>
        <trkpt lat="29.581747" lon="103.376232"><ele>1162.3943</ele><time>2026-07-21T03:07:12.000Z</time></trkpt>
        <trkpt lat="29.581727" lon="103.376233"><ele>1162.9303</ele><time>2026-07-21T03:07:27.000Z</time></trkpt>
        <trkpt lat="29.581703" lon="103.376231"><ele>1163.3442</ele><time>2026-07-21T03:07:42.000Z</time></trkpt>
        <trkpt lat="29.581698" lon="103.37623"><ele>1163.4834</ele><time>2026-07-21T03:07:57.000Z</time></trkpt>
        <trkpt lat="29.581693" lon="103.376231"><ele>1163.5167</ele><time>2026-07-21T03:08:12.000Z</time></trkpt>
        <trkpt lat="29.581664" lon="103.376238"><ele>1161.6886</ele><time>2026-07-21T03:08:49.000Z</time></trkpt>
        <trkpt lat="29.581664" lon="103.376238"><ele>1162.693</ele><time>2026-07-21T03:08:51.000Z</time></trkpt>
        <trkpt lat="29.581645" lon="103.37625"><ele>1163.8746</ele><time>2026-07-21T03:08:53.000Z</time></trkpt>
        <trkpt lat="29.581636" lon="103.376255"><ele>1164.7172</ele><time>2026-07-21T03:08:55.000Z</time></trkpt>
        <trkpt lat="29.581635" lon="103.376255"><ele>1165.6627</ele><time>2026-07-21T03:08:57.000Z</time></trkpt>
        <trkpt lat="29.581611" lon="103.376254"><ele>1169.2494</ele><time>2026-07-21T03:09:08.000Z</time></trkpt>
        <trkpt lat="29.581605" lon="103.376252"><ele>1170.0518</ele><time>2026-07-21T03:09:18.000Z</time></trkpt>
        <trkpt lat="29.581594" lon="103.37626"><ele>1169.0258</ele><time>2026-07-21T03:09:20.000Z</time></trkpt>
        <trkpt lat="29.581573" lon="103.376275"><ele>1167.7997</ele><time>2026-07-21T03:09:42.000Z</time></trkpt>
        <trkpt lat="29.581573" lon="103.376275"><ele>1168.7722</ele><time>2026-07-21T03:09:44.000Z</time></trkpt>
        <trkpt lat="29.581554" lon="103.376272"><ele>1169.263</ele><time>2026-07-21T03:09:52.000Z</time></trkpt>
        <trkpt lat="29.581539" lon="103.376271"><ele>1168.1931</ele><time>2026-07-21T03:09:54.000Z</time></trkpt>
        <trkpt lat="29.581538" lon="103.376271"><ele>1168.3732</ele><time>2026-07-21T03:09:56.000Z</time></trkpt>
        <trkpt lat="29.581517" lon="103.376266"><ele>1171.5476</ele><time>2026-07-21T03:10:06.000Z</time></trkpt>
        <trkpt lat="29.581508" lon="103.376268"><ele>1172.2612</ele><time>2026-07-21T03:10:10.000Z</time></trkpt>
        <trkpt lat="29.581506" lon="103.37627"><ele>1172.9839</ele><time>2026-07-21T03:10:12.000Z</time></trkpt>
        <trkpt lat="29.581482" lon="103.376293"><ele>1174.4872</ele><time>2026-07-21T03:10:18.000Z</time></trkpt>
        <trkpt lat="29.581482" lon="103.376293"><ele>1174.4086</ele><time>2026-07-21T03:10:20.000Z</time></trkpt>
        <trkpt lat="29.581482" lon="103.376293"><ele>1173.5946</ele><time>2026-07-21T03:10:22.000Z</time></trkpt>
        <trkpt lat="29.581448" lon="103.376294"><ele>1177.7479</ele><time>2026-07-21T03:10:44.000Z</time></trkpt>
        <trkpt lat="29.581425" lon="103.376295"><ele>1178.4795</ele><time>2026-07-21T03:10:46.000Z</time></trkpt>
        <trkpt lat="29.581423" lon="103.376295"><ele>1178.7084</ele><time>2026-07-21T03:10:48.000Z</time></trkpt>
        <trkpt lat="29.581414" lon="103.376295"><ele>1178.8818</ele><time>2026-07-21T03:10:54.000Z</time></trkpt>
        <trkpt lat="29.581389" lon="103.376296"><ele>1178.4557</ele><time>2026-07-21T03:11:00.000Z</time></trkpt>
        <trkpt lat="29.581371" lon="103.376296"><ele>1178.5704</ele><time>2026-07-21T03:11:02.000Z</time></trkpt>
        <trkpt lat="29.58137" lon="103.376296"><ele>1179.5996</ele><time>2026-07-21T03:11:04.000Z</time></trkpt>
        <trkpt lat="29.58133" lon="103.376295"><ele>1183.8289</ele><time>2026-07-21T03:11:34.000Z</time></trkpt>
        <trkpt lat="29.581335" lon="103.376295"><ele>1183.5133</ele><time>2026-07-21T03:11:36.000Z</time></trkpt>
        <trkpt lat="29.581335" lon="103.376295"><ele>1184.603</ele><time>2026-07-21T03:11:38.000Z</time></trkpt>
        <trkpt lat="29.581297" lon="103.376307"><ele>1184.7959</ele><time>2026-07-21T03:11:52.000Z</time></trkpt>
        <trkpt lat="29.581269" lon="103.376316"><ele>1184.7773</ele><time>2026-07-21T03:11:54.000Z</time></trkpt>
        <trkpt lat="29.581267" lon="103.376317"><ele>1183.587</ele><time>2026-07-21T03:11:56.000Z</time></trkpt>
        <trkpt lat="29.581267" lon="103.376318"><ele>1183.372</ele><time>2026-07-21T03:11:58.000Z</time></trkpt>
        <trkpt lat="29.581254" lon="103.37635"><ele>1188.5742</ele><time>2026-07-21T03:12:08.000Z</time></trkpt>
        <trkpt lat="29.581249" lon="103.376352"><ele>1188.0493</ele><time>2026-07-21T03:12:10.000Z</time></trkpt>
        <trkpt lat="29.58124" lon="103.376364"><ele>1189.5414</ele><time>2026-07-21T03:12:12.000Z</time></trkpt>
        <trkpt lat="29.581227" lon="103.376371"><ele>1193.2196</ele><time>2026-07-21T03:12:22.000Z</time></trkpt>
        <trkpt lat="29.581209" lon="103.37638"><ele>1192.7769</ele><time>2026-07-21T03:12:24.000Z</time></trkpt>
        <trkpt lat="29.581208" lon="103.376381"><ele>1192.8552</ele><time>2026-07-21T03:12:26.000Z</time></trkpt>
        <trkpt lat="29.5812" lon="103.376394"><ele>1192.8448</ele><time>2026-07-21T03:12:32.000Z</time></trkpt>
        <trkpt lat="29.581188" lon="103.376409"><ele>1193.0077</ele><time>2026-07-21T03:12:36.000Z</time></trkpt>
        <trkpt lat="29.581185" lon="103.376413"><ele>1193.3644</ele><time>2026-07-21T03:12:38.000Z</time></trkpt>
        <trkpt lat="29.581169" lon="103.376418"><ele>1201.7437</ele><time>2026-07-21T03:13:31.000Z</time></trkpt>
        <trkpt lat="29.58113" lon="103.376418"><ele>1205.7231</ele><time>2026-07-21T03:13:42.000Z</time></trkpt>
        <trkpt lat="29.581122" lon="103.376417"><ele>1204.3324</ele><time>2026-07-21T03:13:44.000Z</time></trkpt>
        <trkpt lat="29.581122" lon="103.376417"><ele>1204.1843</ele><time>2026-07-21T03:13:46.000Z</time></trkpt>
        <trkpt lat="29.581106" lon="103.376439"><ele>1206.131</ele><time>2026-07-21T03:13:54.000Z</time></trkpt>
        <trkpt lat="29.581103" lon="103.376445"><ele>1206.2343</ele><time>2026-07-21T03:13:56.000Z</time></trkpt>
        <trkpt lat="29.5811" lon="103.376444"><ele>1207.802</ele><time>2026-07-21T03:13:58.000Z</time></trkpt>
        <trkpt lat="29.581073" lon="103.376442"><ele>1211.6858</ele><time>2026-07-21T03:14:14.000Z</time></trkpt>
        <trkpt lat="29.581065" lon="103.376441"><ele>1212.0619</ele><time>2026-07-21T03:14:16.000Z</time></trkpt>
        <trkpt lat="29.581061" lon="103.37644"><ele>1211.9124</ele><time>2026-07-21T03:14:18.000Z</time></trkpt>
        <trkpt lat="29.581043" lon="103.376432"><ele>1214.862</ele><time>2026-07-21T03:14:36.000Z</time></trkpt>
        <trkpt lat="29.58103" lon="103.376424"><ele>1214.6765</ele><time>2026-07-21T03:14:40.000Z</time></trkpt>
        <trkpt lat="29.581019" lon="103.376415"><ele>1214.788</ele><time>2026-07-21T03:14:42.000Z</time></trkpt>
        <trkpt lat="29.581011" lon="103.376409"><ele>1214.7671</ele><time>2026-07-21T03:14:57.000Z</time></trkpt>
        <trkpt lat="29.580979" lon="103.376389"><ele>1215.114</ele><time>2026-07-21T03:15:12.000Z</time></trkpt>
        <trkpt lat="29.580978" lon="103.376388"><ele>1215.7426</ele><time>2026-07-21T03:15:14.000Z</time></trkpt>
        <trkpt lat="29.580975" lon="103.376387"><ele>1216.0302</ele><time>2026-07-21T03:15:16.000Z</time></trkpt>
        <trkpt lat="29.58094" lon="103.376377"><ele>1220.6113</ele><time>2026-07-21T03:15:32.000Z</time></trkpt>
        <trkpt lat="29.580919" lon="103.376371"><ele>1220.7194</ele><time>2026-07-21T03:15:34.000Z</time></trkpt>
        <trkpt lat="29.580918" lon="103.37637"><ele>1220.0281</ele><time>2026-07-21T03:15:36.000Z</time></trkpt>
        <trkpt lat="29.580911" lon="103.376376"><ele>1220.3438</ele><time>2026-07-21T03:15:42.000Z</time></trkpt>
        <trkpt lat="29.580973" lon="103.376324"><ele>1228.5253</ele><time>2026-07-21T03:16:19.000Z</time></trkpt>
        <trkpt lat="29.580974" lon="103.37628"><ele>1230.9734</ele><time>2026-07-21T03:16:34.000Z</time></trkpt>
        <trkpt lat="29.580979" lon="103.376247"><ele>1231.539</ele><time>2026-07-21T03:16:41.000Z</time></trkpt>
        <trkpt lat="29.580984" lon="103.376222"><ele>1232.1001</ele><time>2026-07-21T03:16:43.000Z</time></trkpt>
        <trkpt lat="29.580984" lon="103.376221"><ele>1231.7589</ele><time>2026-07-21T03:16:45.000Z</time></trkpt>
        <trkpt lat="29.580991" lon="103.376193"><ele>1231.9036</ele><time>2026-07-21T03:16:51.000Z</time></trkpt>
        <trkpt lat="29.580994" lon="103.376171"><ele>1232.2687</ele><time>2026-07-21T03:16:53.000Z</time></trkpt>
        <trkpt lat="29.580991" lon="103.376154"><ele>1232.43</ele><time>2026-07-21T03:16:55.000Z</time></trkpt>
        <trkpt lat="29.580985" lon="103.376143"><ele>1231.3528</ele><time>2026-07-21T03:16:57.000Z</time></trkpt>
        <trkpt lat="29.580978" lon="103.376142"><ele>1230.7585</ele><time>2026-07-21T03:16:59.000Z</time></trkpt>
        <trkpt lat="29.580957" lon="103.376143"><ele>1231.5792</ele><time>2026-07-21T03:17:03.000Z</time></trkpt>
        <trkpt lat="29.58095" lon="103.376148"><ele>1232.0287</ele><time>2026-07-21T03:17:05.000Z</time></trkpt>
        <trkpt lat="29.580941" lon="103.376155"><ele>1232.4138</ele><time>2026-07-21T03:17:07.000Z</time></trkpt>
        <trkpt lat="29.580931" lon="103.376162"><ele>1231.643</ele><time>2026-07-21T03:17:09.000Z</time></trkpt>
        <trkpt lat="29.580922" lon="103.376166"><ele>1232.7244</ele><time>2026-07-21T03:17:11.000Z</time></trkpt>
        <trkpt lat="29.58091" lon="103.37617"><ele>1233.4996</ele><time>2026-07-21T03:17:13.000Z</time></trkpt>
        <trkpt lat="29.580895" lon="103.376172"><ele>1234.154</ele><time>2026-07-21T03:17:15.000Z</time></trkpt>
        <trkpt lat="29.580879" lon="103.376175"><ele>1234.622</ele><time>2026-07-21T03:17:17.000Z</time></trkpt>
        <trkpt lat="29.580862" lon="103.376179"><ele>1235.1517</ele><time>2026-07-21T03:17:19.000Z</time></trkpt>
        <trkpt lat="29.580851" lon="103.376181"><ele>1236.3043</ele><time>2026-07-21T03:17:21.000Z</time></trkpt>
        <trkpt lat="29.580841" lon="103.376184"><ele>1236.3737</ele><time>2026-07-21T03:17:23.000Z</time></trkpt>
        <trkpt lat="29.580833" lon="103.37619"><ele>1236.9846</ele><time>2026-07-21T03:17:25.000Z</time></trkpt>
        <trkpt lat="29.580818" lon="103.376198"><ele>1236.4036</ele><time>2026-07-21T03:17:29.000Z</time></trkpt>
        <trkpt lat="29.580815" lon="103.3762"><ele>1236.6791</ele><time>2026-07-21T03:17:31.000Z</time></trkpt>
        <trkpt lat="29.580804" lon="103.376206"><ele>1238.9904</ele><time>2026-07-21T03:17:35.000Z</time></trkpt>
        <trkpt lat="29.580777" lon="103.376222"><ele>1239.4353</ele><time>2026-07-21T03:17:39.000Z</time></trkpt>
        <trkpt lat="29.580777" lon="103.376222"><ele>1239.969</ele><time>2026-07-21T03:17:41.000Z</time></trkpt>
        <trkpt lat="29.580775" lon="103.376223"><ele>1240.1411</ele><time>2026-07-21T03:17:43.000Z</time></trkpt>
        <trkpt lat="29.580742" lon="103.376229"><ele>1240.2382</ele><time>2026-07-21T03:17:47.000Z</time></trkpt>
        <trkpt lat="29.580717" lon="103.376232"><ele>1239.8888</ele><time>2026-07-21T03:17:49.000Z</time></trkpt>
        <trkpt lat="29.580691" lon="103.376237"><ele>1239.7518</ele><time>2026-07-21T03:17:51.000Z</time></trkpt>
        <trkpt lat="29.580669" lon="103.376244"><ele>1240.3737</ele><time>2026-07-21T03:17:53.000Z</time></trkpt>
        <trkpt lat="29.580648" lon="103.376251"><ele>1239.7035</ele><time>2026-07-21T03:17:55.000Z</time></trkpt>
        <trkpt lat="29.580633" lon="103.376256"><ele>1239.6149</ele><time>2026-07-21T03:17:57.000Z</time></trkpt>
        <trkpt lat="29.580631" lon="103.376261"><ele>1240.2468</ele><time>2026-07-21T03:17:59.000Z</time></trkpt>
        <trkpt lat="29.580634" lon="103.376267"><ele>1241.7765</ele><time>2026-07-21T03:18:03.000Z</time></trkpt>
        <trkpt lat="29.580649" lon="103.376286"><ele>1243.973</ele><time>2026-07-21T03:18:11.000Z</time></trkpt>
        <trkpt lat="29.58065" lon="103.376286"><ele>1243.6614</ele><time>2026-07-21T03:18:15.000Z</time></trkpt>
        <trkpt lat="29.580597" lon="103.376306"><ele>1243.7406</ele><time>2026-07-21T03:18:23.000Z</time></trkpt>
        <trkpt lat="29.580577" lon="103.376313"><ele>1243.989</ele><time>2026-07-21T03:18:25.000Z</time></trkpt>
        <trkpt lat="29.580575" lon="103.376313"><ele>1242.3347</ele><time>2026-07-21T03:18:27.000Z</time></trkpt>
        <trkpt lat="29.580564" lon="103.376308"><ele>1240.3654</ele><time>2026-07-21T03:18:31.000Z</time></trkpt>
        <trkpt lat="29.580547" lon="103.376303"><ele>1240.6621</ele><time>2026-07-21T03:18:33.000Z</time></trkpt>
        <trkpt lat="29.580525" lon="103.376301"><ele>1240.6887</ele><time>2026-07-21T03:18:35.000Z</time></trkpt>
        <trkpt lat="29.580505" lon="103.376299"><ele>1239.6621</ele><time>2026-07-21T03:18:37.000Z</time></trkpt>
        <trkpt lat="29.580485" lon="103.376298"><ele>1239.9103</ele><time>2026-07-21T03:18:39.000Z</time></trkpt>
        <trkpt lat="29.580467" lon="103.3763"><ele>1239.9186</ele><time>2026-07-21T03:18:41.000Z</time></trkpt>
        <trkpt lat="29.580448" lon="103.376303"><ele>1239.1783</ele><time>2026-07-21T03:18:43.000Z</time></trkpt>
        <trkpt lat="29.580429" lon="103.376306"><ele>1240.0449</ele><time>2026-07-21T03:18:45.000Z</time></trkpt>
        <trkpt lat="29.580412" lon="103.376309"><ele>1239.9198</ele><time>2026-07-21T03:18:47.000Z</time></trkpt>
        <trkpt lat="29.580396" lon="103.376311"><ele>1240.1566</ele><time>2026-07-21T03:18:49.000Z</time></trkpt>
        <trkpt lat="29.58038" lon="103.376312"><ele>1240.0609</ele><time>2026-07-21T03:18:51.000Z</time></trkpt>
        <trkpt lat="29.580359" lon="103.376313"><ele>1240.1565</ele><time>2026-07-21T03:18:53.000Z</time></trkpt>
        <trkpt lat="29.58034" lon="103.376312"><ele>1240.0372</ele><time>2026-07-21T03:18:55.000Z</time></trkpt>
        <trkpt lat="29.580321" lon="103.376309"><ele>1240.2706</ele><time>2026-07-21T03:18:57.000Z</time></trkpt>
        <trkpt lat="29.580302" lon="103.376306"><ele>1240.1588</ele><time>2026-07-21T03:18:59.000Z</time></trkpt>
        <trkpt lat="29.580283" lon="103.376301"><ele>1240.3987</ele><time>2026-07-21T03:19:01.000Z</time></trkpt>
        <trkpt lat="29.580265" lon="103.376295"><ele>1240.4492</ele><time>2026-07-21T03:19:03.000Z</time></trkpt>
        <trkpt lat="29.580245" lon="103.376288"><ele>1239.1687</ele><time>2026-07-21T03:19:05.000Z</time></trkpt>
        <trkpt lat="29.580225" lon="103.376282"><ele>1238.7435</ele><time>2026-07-21T03:19:07.000Z</time></trkpt>
        <trkpt lat="29.580205" lon="103.376279"><ele>1238.7029</ele><time>2026-07-21T03:19:09.000Z</time></trkpt>
        <trkpt lat="29.580185" lon="103.376277"><ele>1238.745</ele><time>2026-07-21T03:19:11.000Z</time></trkpt>
        <trkpt lat="29.580165" lon="103.376274"><ele>1238.519</ele><time>2026-07-21T03:19:13.000Z</time></trkpt>
        <trkpt lat="29.580144" lon="103.37627"><ele>1237.8976</ele><time>2026-07-21T03:19:15.000Z</time></trkpt>
        <trkpt lat="29.580125" lon="103.376266"><ele>1237.1328</ele><time>2026-07-21T03:19:17.000Z</time></trkpt>
        <trkpt lat="29.580108" lon="103.376262"><ele>1236.9216</ele><time>2026-07-21T03:19:19.000Z</time></trkpt>
        <trkpt lat="29.580095" lon="103.376258"><ele>1237.5599</ele><time>2026-07-21T03:19:21.000Z</time></trkpt>
        <trkpt lat="29.580079" lon="103.376252"><ele>1237.2867</ele><time>2026-07-21T03:19:23.000Z</time></trkpt>
        <trkpt lat="29.580066" lon="103.376243"><ele>1238.1667</ele><time>2026-07-21T03:19:25.000Z</time></trkpt>
        <trkpt lat="29.580056" lon="103.376232"><ele>1237.8899</ele><time>2026-07-21T03:19:27.000Z</time></trkpt>
        <trkpt lat="29.580049" lon="103.37622"><ele>1238.028</ele><time>2026-07-21T03:19:29.000Z</time></trkpt>
        <trkpt lat="29.580044" lon="103.376204"><ele>1237.7133</ele><time>2026-07-21T03:19:31.000Z</time></trkpt>
        <trkpt lat="29.58004" lon="103.376184"><ele>1238.236</ele><time>2026-07-21T03:19:33.000Z</time></trkpt>
        <trkpt lat="29.580036" lon="103.376166"><ele>1239.1008</ele><time>2026-07-21T03:19:35.000Z</time></trkpt>
        <trkpt lat="29.580034" lon="103.37615"><ele>1238.9146</ele><time>2026-07-21T03:19:37.000Z</time></trkpt>
        <trkpt lat="29.58003" lon="103.376133"><ele>1239.1084</ele><time>2026-07-21T03:19:39.000Z</time></trkpt>
        <trkpt lat="29.580026" lon="103.376116"><ele>1239.9469</ele><time>2026-07-21T03:19:41.000Z</time></trkpt>
        <trkpt lat="29.580018" lon="103.376101"><ele>1240.5928</ele><time>2026-07-21T03:19:43.000Z</time></trkpt>
        <trkpt lat="29.580011" lon="103.376087"><ele>1241.4917</ele><time>2026-07-21T03:19:45.000Z</time></trkpt>
        <trkpt lat="29.580004" lon="103.376073"><ele>1241.6869</ele><time>2026-07-21T03:19:47.000Z</time></trkpt>
        <trkpt lat="29.579997" lon="103.376061"><ele>1241.7482</ele><time>2026-07-21T03:19:49.000Z</time></trkpt>
        <trkpt lat="29.579989" lon="103.376048"><ele>1242.4236</ele><time>2026-07-21T03:19:51.000Z</time></trkpt>
        <trkpt lat="29.579978" lon="103.376031"><ele>1243.0413</ele><time>2026-07-21T03:19:53.000Z</time></trkpt>
        <trkpt lat="29.57997" lon="103.376013"><ele>1243.1963</ele><time>2026-07-21T03:19:55.000Z</time></trkpt>
        <trkpt lat="29.579961" lon="103.375992"><ele>1242.5354</ele><time>2026-07-21T03:19:57.000Z</time></trkpt>
        <trkpt lat="29.579953" lon="103.375971"><ele>1242.7407</ele><time>2026-07-21T03:19:59.000Z</time></trkpt>
        <trkpt lat="29.579943" lon="103.375951"><ele>1242.8376</ele><time>2026-07-21T03:20:01.000Z</time></trkpt>
        <trkpt lat="29.579933" lon="103.375929"><ele>1243.2279</ele><time>2026-07-21T03:20:03.000Z</time></trkpt>
        <trkpt lat="29.579922" lon="103.375905"><ele>1243.609</ele><time>2026-07-21T03:20:05.000Z</time></trkpt>
        <trkpt lat="29.579912" lon="103.375882"><ele>1243.1484</ele><time>2026-07-21T03:20:07.000Z</time></trkpt>
        <trkpt lat="29.579901" lon="103.375862"><ele>1243.2323</ele><time>2026-07-21T03:20:09.000Z</time></trkpt>
        <trkpt lat="29.579892" lon="103.375848"><ele>1243.7063</ele><time>2026-07-21T03:20:11.000Z</time></trkpt>
        <trkpt lat="29.579881" lon="103.375837"><ele>1244.0541</ele><time>2026-07-21T03:20:13.000Z</time></trkpt>
        <trkpt lat="29.57987" lon="103.375825"><ele>1243.9862</ele><time>2026-07-21T03:20:15.000Z</time></trkpt>
        <trkpt lat="29.579859" lon="103.375815"><ele>1244.7516</ele><time>2026-07-21T03:20:17.000Z</time></trkpt>
        <trkpt lat="29.579854" lon="103.375806"><ele>1245.141</ele><time>2026-07-21T03:20:19.000Z</time></trkpt>
        <trkpt lat="29.57985" lon="103.375794"><ele>1246.1401</ele><time>2026-07-21T03:20:21.000Z</time></trkpt>
        <trkpt lat="29.579846" lon="103.375778"><ele>1247.5134</ele><time>2026-07-21T03:20:23.000Z</time></trkpt>
        <trkpt lat="29.579845" lon="103.375765"><ele>1248.1864</ele><time>2026-07-21T03:20:25.000Z</time></trkpt>
        <trkpt lat="29.579846" lon="103.375755"><ele>1249.2224</ele><time>2026-07-21T03:20:27.000Z</time></trkpt>
        <trkpt lat="29.57985" lon="103.375738"><ele>1249.5022</ele><time>2026-07-21T03:20:31.000Z</time></trkpt>
        <trkpt lat="29.579853" lon="103.375729"><ele>1249.3594</ele><time>2026-07-21T03:20:33.000Z</time></trkpt>
        <trkpt lat="29.579856" lon="103.375722"><ele>1249.9839</ele><time>2026-07-21T03:20:35.000Z</time></trkpt>
        <trkpt lat="29.579869" lon="103.375693"><ele>1251.9669</ele><time>2026-07-21T03:20:39.000Z</time></trkpt>
        <trkpt lat="29.579869" lon="103.375693"><ele>1252.8274</ele><time>2026-07-21T03:20:41.000Z</time></trkpt>
        <trkpt lat="29.579871" lon="103.375685"><ele>1253.1188</ele><time>2026-07-21T03:20:45.000Z</time></trkpt>
        <trkpt lat="29.579879" lon="103.37566"><ele>1251.3401</ele><time>2026-07-21T03:20:55.000Z</time></trkpt>
        <trkpt lat="29.579882" lon="103.375657"><ele>1251.4545</ele><time>2026-07-21T03:20:57.000Z</time></trkpt>
        <trkpt lat="29.579883" lon="103.375653"><ele>1251.48</ele><time>2026-07-21T03:20:59.000Z</time></trkpt>
        <trkpt lat="29.579894" lon="103.375627"><ele>1249.2657</ele><time>2026-07-21T03:21:13.000Z</time></trkpt>
        <trkpt lat="29.579896" lon="103.375622"><ele>1249.8651</ele><time>2026-07-21T03:21:15.000Z</time></trkpt>
        <trkpt lat="29.5799" lon="103.37562"><ele>1250.6693</ele><time>2026-07-21T03:21:17.000Z</time></trkpt>
        <trkpt lat="29.579925" lon="103.375602"><ele>1254.377</ele><time>2026-07-21T03:21:37.000Z</time></trkpt>
        <trkpt lat="29.579941" lon="103.375592"><ele>1254.31</ele><time>2026-07-21T03:21:39.000Z</time></trkpt>
        <trkpt lat="29.579942" lon="103.375591"><ele>1254.6166</ele><time>2026-07-21T03:21:41.000Z</time></trkpt>
        <trkpt lat="29.579958" lon="103.375582"><ele>1257.295</ele><time>2026-07-21T03:21:49.000Z</time></trkpt>
        <trkpt lat="29.579975" lon="103.375576"><ele>1257.8375</ele><time>2026-07-21T03:21:53.000Z</time></trkpt>
        <trkpt lat="29.57998" lon="103.375575"><ele>1258.5391</ele><time>2026-07-21T03:21:55.000Z</time></trkpt>
        <trkpt lat="29.579987" lon="103.375572"><ele>1260.0424</ele><time>2026-07-21T03:21:59.000Z</time></trkpt>
        <trkpt lat="29.580004" lon="103.375562"><ele>1263.6968</ele><time>2026-07-21T03:22:07.000Z</time></trkpt>
        <trkpt lat="29.580009" lon="103.375559"><ele>1264.4734</ele><time>2026-07-21T03:22:09.000Z</time></trkpt>
        <trkpt lat="29.580016" lon="103.375556"><ele>1265.3461</ele><time>2026-07-21T03:22:13.000Z</time></trkpt>
        <trkpt lat="29.580036" lon="103.375545"><ele>1266.0988</ele><time>2026-07-21T03:22:21.000Z</time></trkpt>
        <trkpt lat="29.580051" lon="103.375536"><ele>1265.4816</ele><time>2026-07-21T03:22:23.000Z</time></trkpt>
        <trkpt lat="29.580052" lon="103.375537"><ele>1266.4343</ele><time>2026-07-21T03:22:25.000Z</time></trkpt>
        <trkpt lat="29.58007" lon="103.375533"><ele>1268.153</ele><time>2026-07-21T03:22:33.000Z</time></trkpt>
        <trkpt lat="29.580083" lon="103.375529"><ele>1266.9563</ele><time>2026-07-21T03:22:37.000Z</time></trkpt>
        <trkpt lat="29.58009" lon="103.37553"><ele>1266.9211</ele><time>2026-07-21T03:22:39.000Z</time></trkpt>
        <trkpt lat="29.580103" lon="103.375528"><ele>1268.332</ele><time>2026-07-21T03:22:46.000Z</time></trkpt>
        <trkpt lat="29.580113" lon="103.375524"><ele>1269.1857</ele><time>2026-07-21T03:22:52.000Z</time></trkpt>
        <trkpt lat="29.580122" lon="103.375525"><ele>1271.3005</ele><time>2026-07-21T03:22:58.000Z</time></trkpt>
        <trkpt lat="29.580132" lon="103.37553"><ele>1274.4618</ele><time>2026-07-21T03:23:04.000Z</time></trkpt>
        <trkpt lat="29.580144" lon="103.375534"><ele>1275.3032</ele><time>2026-07-21T03:23:10.000Z</time></trkpt>
        <trkpt lat="29.580153" lon="103.375536"><ele>1275.9242</ele><time>2026-07-21T03:23:16.000Z</time></trkpt>
        <trkpt lat="29.580201" lon="103.375542"><ele>1280.1572</ele><time>2026-07-21T03:23:28.000Z</time></trkpt>
        <trkpt lat="29.580211" lon="103.375543"><ele>1280.7051</ele><time>2026-07-21T03:23:30.000Z</time></trkpt>
        <trkpt lat="29.580211" lon="103.375544"><ele>1281.8048</ele><time>2026-07-21T03:23:32.000Z</time></trkpt>
        <trkpt lat="29.580243" lon="103.375544"><ele>1281.99</ele><time>2026-07-21T03:23:40.000Z</time></trkpt>
        <trkpt lat="29.580264" lon="103.375543"><ele>1281.9542</ele><time>2026-07-21T03:23:42.000Z</time></trkpt>
        <trkpt lat="29.580287" lon="103.375543"><ele>1283.1945</ele><time>2026-07-21T03:23:44.000Z</time></trkpt>
        <trkpt lat="29.580289" lon="103.375543"><ele>1282.4108</ele><time>2026-07-21T03:23:46.000Z</time></trkpt>
        <trkpt lat="29.580298" lon="103.375543"><ele>1282.9568</ele><time>2026-07-21T03:23:50.000Z</time></trkpt>
        <trkpt lat="29.580327" lon="103.375545"><ele>1283.7094</ele><time>2026-07-21T03:23:54.000Z</time></trkpt>
        <trkpt lat="29.58034" lon="103.375544"><ele>1284.8511</ele><time>2026-07-21T03:23:56.000Z</time></trkpt>
        <trkpt lat="29.580352" lon="103.375542"><ele>1284.6923</ele><time>2026-07-21T03:23:58.000Z</time></trkpt>
        <trkpt lat="29.580359" lon="103.37554"><ele>1283.6672</ele><time>2026-07-21T03:24:00.000Z</time></trkpt>
        <trkpt lat="29.580368" lon="103.375533"><ele>1282.3871</ele><time>2026-07-21T03:24:04.000Z</time></trkpt>
        <trkpt lat="29.58038" lon="103.375522"><ele>1280.6227</ele><time>2026-07-21T03:24:10.000Z</time></trkpt>
        <trkpt lat="29.580382" lon="103.375523"><ele>1279.245</ele><time>2026-07-21T03:24:12.000Z</time></trkpt>
        <trkpt lat="29.580398" lon="103.375531"><ele>1279.7383</ele><time>2026-07-21T03:24:26.000Z</time></trkpt>
        <trkpt lat="29.580411" lon="103.375537"><ele>1280.9893</ele><time>2026-07-21T03:24:32.000Z</time></trkpt>
        <trkpt lat="29.580413" lon="103.375537"><ele>1280.9893</ele><time>2026-07-21T03:24:34.000Z</time></trkpt>
        <trkpt lat="29.580422" lon="103.375526"><ele>1283.9651</ele><time>2026-07-21T03:24:40.000Z</time></trkpt>
        <trkpt lat="29.58045" lon="103.375506"><ele>1284.7224</ele><time>2026-07-21T03:25:56.000Z</time></trkpt>
        <trkpt lat="29.580472" lon="103.375488"><ele>1292.1595</ele><time>2026-07-21T03:26:09.000Z</time></trkpt>
        <trkpt lat="29.580482" lon="103.375479"><ele>1292.1279</ele><time>2026-07-21T03:26:11.000Z</time></trkpt>
        <trkpt lat="29.580483" lon="103.375478"><ele>1293.3044</ele><time>2026-07-21T03:26:13.000Z</time></trkpt>
        <trkpt lat="29.580497" lon="103.375468"><ele>1294.7367</ele><time>2026-07-21T03:26:19.000Z</time></trkpt>
        <trkpt lat="29.580511" lon="103.375459"><ele>1294.4534</ele><time>2026-07-21T03:26:21.000Z</time></trkpt>
        <trkpt lat="29.580524" lon="103.37545"><ele>1293.8492</ele><time>2026-07-21T03:26:23.000Z</time></trkpt>
        <trkpt lat="29.580538" lon="103.375441"><ele>1294.0017</ele><time>2026-07-21T03:26:25.000Z</time></trkpt>
        <trkpt lat="29.580552" lon="103.375434"><ele>1294.1997</ele><time>2026-07-21T03:26:27.000Z</time></trkpt>
        <trkpt lat="29.580561" lon="103.375432"><ele>1294.6915</ele><time>2026-07-21T03:26:29.000Z</time></trkpt>
        <trkpt lat="29.58057" lon="103.375433"><ele>1293.7258</ele><time>2026-07-21T03:26:31.000Z</time></trkpt>
        <trkpt lat="29.580589" lon="103.375432"><ele>1292.0704</ele><time>2026-07-21T03:26:35.000Z</time></trkpt>
        <trkpt lat="29.580602" lon="103.375429"><ele>1291.5631</ele><time>2026-07-21T03:26:37.000Z</time></trkpt>
        <trkpt lat="29.580617" lon="103.375424"><ele>1290.9225</ele><time>2026-07-21T03:26:39.000Z</time></trkpt>
        <trkpt lat="29.580632" lon="103.375418"><ele>1290.434</ele><time>2026-07-21T03:26:41.000Z</time></trkpt>
        <trkpt lat="29.580646" lon="103.375412"><ele>1290.7429</ele><time>2026-07-21T03:26:43.000Z</time></trkpt>
        <trkpt lat="29.580658" lon="103.37541"><ele>1290.6796</ele><time>2026-07-21T03:26:45.000Z</time></trkpt>
        <trkpt lat="29.580668" lon="103.375408"><ele>1290.0659</ele><time>2026-07-21T03:26:47.000Z</time></trkpt>
        <trkpt lat="29.580678" lon="103.375408"><ele>1289.7559</ele><time>2026-07-21T03:26:49.000Z</time></trkpt>
        <trkpt lat="29.58069" lon="103.375405"><ele>1289.5488</ele><time>2026-07-21T03:26:53.000Z</time></trkpt>
        <trkpt lat="29.580699" lon="103.375406"><ele>1289.4711</ele><time>2026-07-21T03:26:57.000Z</time></trkpt>
        <trkpt lat="29.580702" lon="103.375402"><ele>1288.4779</ele><time>2026-07-21T03:27:11.000Z</time></trkpt>
        <trkpt lat="29.580713" lon="103.375382"><ele>1289.2596</ele><time>2026-07-21T03:28:19.000Z</time></trkpt>
        <trkpt lat="29.580714" lon="103.375376"><ele>1289.8147</ele><time>2026-07-21T03:28:21.000Z</time></trkpt>
        <trkpt lat="29.580714" lon="103.375363"><ele>1289.748</ele><time>2026-07-21T03:28:25.000Z</time></trkpt>
        <trkpt lat="29.580714" lon="103.375341"><ele>1289.392</ele><time>2026-07-21T03:28:31.000Z</time></trkpt>
        <trkpt lat="29.580714" lon="103.375336"><ele>1289.3815</ele><time>2026-07-21T03:28:33.000Z</time></trkpt>
        <trkpt lat="29.580714" lon="103.375326"><ele>1289.4844</ele><time>2026-07-21T03:28:37.000Z</time></trkpt>
        <trkpt lat="29.580716" lon="103.375305"><ele>1290.6317</ele><time>2026-07-21T03:28:45.000Z</time></trkpt>
        <trkpt lat="29.580717" lon="103.375299"><ele>1291.5435</ele><time>2026-07-21T03:28:47.000Z</time></trkpt>
        <trkpt lat="29.580724" lon="103.37525"><ele>1295.2228</ele><time>2026-07-21T03:29:01.000Z</time></trkpt>
        <trkpt lat="29.580726" lon="103.375237"><ele>1295.1073</ele><time>2026-07-21T03:29:03.000Z</time></trkpt>
        <trkpt lat="29.580726" lon="103.375236"><ele>1295.8644</ele><time>2026-07-21T03:29:05.000Z</time></trkpt>
        <trkpt lat="29.580717" lon="103.375215"><ele>1294.6814</ele><time>2026-07-21T03:29:13.000Z</time></trkpt>
        <trkpt lat="29.580712" lon="103.375203"><ele>1294.5299</ele><time>2026-07-21T03:29:17.000Z</time></trkpt>
        <trkpt lat="29.580712" lon="103.375201"><ele>1294.5299</ele><time>2026-07-21T03:29:19.000Z</time></trkpt>
        <trkpt lat="29.580717" lon="103.375179"><ele>1297.7416</ele><time>2026-07-21T03:29:43.000Z</time></trkpt>
        <trkpt lat="29.580718" lon="103.375166"><ele>1298.3853</ele><time>2026-07-21T03:29:47.000Z</time></trkpt>
        <trkpt lat="29.580717" lon="103.375157"><ele>1298.1636</ele><time>2026-07-21T03:29:49.000Z</time></trkpt>
        <trkpt lat="29.580713" lon="103.375132"><ele>1298.7869</ele><time>2026-07-21T03:29:53.000Z</time></trkpt>
        <trkpt lat="29.580708" lon="103.375092"><ele>1301.2716</ele><time>2026-07-21T03:30:09.000Z</time></trkpt>
        <trkpt lat="29.580708" lon="103.375076"><ele>1301.6986</ele><time>2026-07-21T03:30:24.000Z</time></trkpt>
        <trkpt lat="29.580709" lon="103.375075"><ele>1301.4523</ele><time>2026-07-21T03:30:39.000Z</time></trkpt>
        <trkpt lat="29.580723" lon="103.375059"><ele>1300.585</ele><time>2026-07-21T03:31:02.000Z</time></trkpt>
        <trkpt lat="29.580729" lon="103.375048"><ele>1302.2728</ele><time>2026-07-21T03:31:10.000Z</time></trkpt>
        <trkpt lat="29.580731" lon="103.375043"><ele>1302.7632</ele><time>2026-07-21T03:31:12.000Z</time></trkpt>
        <trkpt lat="29.580732" lon="103.375028"><ele>1303.9249</ele><time>2026-07-21T03:31:24.000Z</time></trkpt>
        <trkpt lat="29.580731" lon="103.374973"><ele>1307.3866</ele><time>2026-07-21T03:31:41.000Z</time></trkpt>
        <trkpt lat="29.580728" lon="103.374919"><ele>1310.3124</ele><time>2026-07-21T03:31:56.000Z</time></trkpt>
        <trkpt lat="29.580732" lon="103.374863"><ele>1310.4612</ele><time>2026-07-21T03:32:11.000Z</time></trkpt>
        <trkpt lat="29.580723" lon="103.374828"><ele>1312.5499</ele><time>2026-07-21T03:32:27.000Z</time></trkpt>
        <trkpt lat="29.580716" lon="103.374788"><ele>1312.4758</ele><time>2026-07-21T03:32:42.000Z</time></trkpt>
        <trkpt lat="29.580717" lon="103.374791"><ele>1313.5422</ele><time>2026-07-21T03:32:57.000Z</time></trkpt>
        <trkpt lat="29.580705" lon="103.374757"><ele>1317.4316</ele><time>2026-07-21T03:33:11.000Z</time></trkpt>
        <trkpt lat="29.580701" lon="103.374753"><ele>1317.1927</ele><time>2026-07-21T03:33:13.000Z</time></trkpt>
        <trkpt lat="29.580699" lon="103.374747"><ele>1317.0021</ele><time>2026-07-21T03:33:15.000Z</time></trkpt>
        <trkpt lat="29.580692" lon="103.374724"><ele>1318.9874</ele><time>2026-07-21T03:33:23.000Z</time></trkpt>
        <trkpt lat="29.580692" lon="103.374721"><ele>1318.7715</ele><time>2026-07-21T03:33:25.000Z</time></trkpt>
        <trkpt lat="29.580692" lon="103.37471"><ele>1320.3661</ele><time>2026-07-21T03:33:31.000Z</time></trkpt>
        <trkpt lat="29.580689" lon="103.374683"><ele>1321.9447</ele><time>2026-07-21T03:33:37.000Z</time></trkpt>
        <trkpt lat="29.580686" lon="103.374668"><ele>1321.6487</ele><time>2026-07-21T03:33:39.000Z</time></trkpt>
        <trkpt lat="29.580686" lon="103.374667"><ele>1321.6487</ele><time>2026-07-21T03:33:41.000Z</time></trkpt>
        <trkpt lat="29.580688" lon="103.374639"><ele>1323.4861</ele><time>2026-07-21T03:33:51.000Z</time></trkpt>
        <trkpt lat="29.580689" lon="103.374619"><ele>1323.7032</ele><time>2026-07-21T03:33:53.000Z</time></trkpt>
        <trkpt lat="29.58069" lon="103.374618"><ele>1324.4572</ele><time>2026-07-21T03:33:55.000Z</time></trkpt>
        <trkpt lat="29.580692" lon="103.374601"><ele>1325.1243</ele><time>2026-07-21T03:34:01.000Z</time></trkpt>
        <trkpt lat="29.580697" lon="103.374573"><ele>1325.7374</ele><time>2026-07-21T03:34:05.000Z</time></trkpt>
        <trkpt lat="29.580697" lon="103.374573"><ele>1326.2646</ele><time>2026-07-21T03:34:07.000Z</time></trkpt>
        <trkpt lat="29.580696" lon="103.374558"><ele>1328.601</ele><time>2026-07-21T03:34:13.000Z</time></trkpt>
        <trkpt lat="29.580692" lon="103.374522"><ele>1329.2418</ele><time>2026-07-21T03:34:17.000Z</time></trkpt>
        <trkpt lat="29.580692" lon="103.374522"><ele>1328.9724</ele><time>2026-07-21T03:34:19.000Z</time></trkpt>
        <trkpt lat="29.580693" lon="103.37452"><ele>1329.2448</ele><time>2026-07-21T03:34:21.000Z</time></trkpt>
        <trkpt lat="29.580699" lon="103.374487"><ele>1329.1638</ele><time>2026-07-21T03:34:31.000Z</time></trkpt>
        <trkpt lat="29.580699" lon="103.374487"><ele>1329.1638</ele><time>2026-07-21T03:34:33.000Z</time></trkpt>
        <trkpt lat="29.580699" lon="103.374486"><ele>1328.4724</ele><time>2026-07-21T03:34:43.000Z</time></trkpt>
        <trkpt lat="29.580698" lon="103.374446"><ele>1329.6178</ele><time>2026-07-21T03:35:32.000Z</time></trkpt>
        <trkpt lat="29.580698" lon="103.374439"><ele>1329.0858</ele><time>2026-07-21T03:35:34.000Z</time></trkpt>
        <trkpt lat="29.580698" lon="103.374432"><ele>1330.2628</ele><time>2026-07-21T03:35:36.000Z</time></trkpt>
        <trkpt lat="29.580698" lon="103.374408"><ele>1332.9618</ele><time>2026-07-21T03:35:42.000Z</time></trkpt>
        <trkpt lat="29.580698" lon="103.3744"><ele>1333.9086</ele><time>2026-07-21T03:35:44.000Z</time></trkpt>
        <trkpt lat="29.580697" lon="103.374392"><ele>1334.3075</ele><time>2026-07-21T03:35:46.000Z</time></trkpt>
        <trkpt lat="29.580695" lon="103.374364"><ele>1335.1163</ele><time>2026-07-21T03:35:50.000Z</time></trkpt>
        <trkpt lat="29.580695" lon="103.374364"><ele>1335.8146</ele><time>2026-07-21T03:35:52.000Z</time></trkpt>
        <trkpt lat="29.580696" lon="103.374352"><ele>1336.2748</ele><time>2026-07-21T03:35:58.000Z</time></trkpt>
        <trkpt lat="29.580698" lon="103.374326"><ele>1338.5581</ele><time>2026-07-21T03:36:04.000Z</time></trkpt>
        <trkpt lat="29.580698" lon="103.374318"><ele>1338.117</ele><time>2026-07-21T03:36:06.000Z</time></trkpt>
        <trkpt lat="29.580702" lon="103.374304"><ele>1337.818</ele><time>2026-07-21T03:36:08.000Z</time></trkpt>
        <trkpt lat="29.580707" lon="103.374283"><ele>1337.9229</ele><time>2026-07-21T03:36:16.000Z</time></trkpt>
        <trkpt lat="29.580713" lon="103.374258"><ele>1338.8412</ele><time>2026-07-21T03:36:18.000Z</time></trkpt>
        <trkpt lat="29.580713" lon="103.374257"><ele>1337.9908</ele><time>2026-07-21T03:36:20.000Z</time></trkpt>
        <trkpt lat="29.58071" lon="103.374243"><ele>1338.055</ele><time>2026-07-21T03:36:24.000Z</time></trkpt>
        <trkpt lat="29.580703" lon="103.374202"><ele>1339.5487</ele><time>2026-07-21T03:36:28.000Z</time></trkpt>
        <trkpt lat="29.580702" lon="103.374188"><ele>1339.5248</ele><time>2026-07-21T03:36:30.000Z</time></trkpt>
        <trkpt lat="29.580703" lon="103.374177"><ele>1340.9324</ele><time>2026-07-21T03:36:32.000Z</time></trkpt>
        <trkpt lat="29.580705" lon="103.374163"><ele>1341.3939</ele><time>2026-07-21T03:36:34.000Z</time></trkpt>
        <trkpt lat="29.580705" lon="103.374154"><ele>1341.5796</ele><time>2026-07-21T03:36:36.000Z</time></trkpt>
        <trkpt lat="29.580703" lon="103.374144"><ele>1341.9083</ele><time>2026-07-21T03:36:38.000Z</time></trkpt>
        <trkpt lat="29.580697" lon="103.374126"><ele>1341.4503</ele><time>2026-07-21T03:36:42.000Z</time></trkpt>
        <trkpt lat="29.580694" lon="103.374113"><ele>1341.3555</ele><time>2026-07-21T03:36:44.000Z</time></trkpt>
        <trkpt lat="29.580694" lon="103.374111"><ele>1342.2117</ele><time>2026-07-21T03:36:48.000Z</time></trkpt>
        <trkpt lat="29.580696" lon="103.374088"><ele>1343.7781</ele><time>2026-07-21T03:37:06.000Z</time></trkpt>
        <trkpt lat="29.580696" lon="103.374072"><ele>1343.723</ele><time>2026-07-21T03:37:10.000Z</time></trkpt>
        <trkpt lat="29.580695" lon="103.374065"><ele>1343.5605</ele><time>2026-07-21T03:37:12.000Z</time></trkpt>
        <trkpt lat="29.580694" lon="103.374049"><ele>1343.0162</ele><time>2026-07-21T03:37:16.000Z</time></trkpt>
        <trkpt lat="29.580695" lon="103.374037"><ele>1343.4838</ele><time>2026-07-21T03:37:22.000Z</time></trkpt>
        <trkpt lat="29.580696" lon="103.374026"><ele>1342.5457</ele><time>2026-07-21T03:37:26.000Z</time></trkpt>
        <trkpt lat="29.580696" lon="103.374013"><ele>1342.6277</ele><time>2026-07-21T03:37:30.000Z</time></trkpt>
        <trkpt lat="29.580695" lon="103.373995"><ele>1343.2279</ele><time>2026-07-21T03:37:34.000Z</time></trkpt>
        <trkpt lat="29.580693" lon="103.37399"><ele>1343.9149</ele><time>2026-07-21T03:37:36.000Z</time></trkpt>
        <trkpt lat="29.580685" lon="103.373981"><ele>1343.3739</ele><time>2026-07-21T03:37:40.000Z</time></trkpt>
        <trkpt lat="29.580672" lon="103.373971"><ele>1344.378</ele><time>2026-07-21T03:37:50.000Z</time></trkpt>
        <trkpt lat="29.580671" lon="103.373967"><ele>1344.7296</ele><time>2026-07-21T03:37:54.000Z</time></trkpt>
        <trkpt lat="29.580662" lon="103.37394"><ele>1343.6243</ele><time>2026-07-21T03:38:33.000Z</time></trkpt>
        <trkpt lat="29.580648" lon="103.373888"><ele>1346.4514</ele><time>2026-07-21T03:38:45.000Z</time></trkpt>
        <trkpt lat="29.580645" lon="103.373882"><ele>1347.3464</ele><time>2026-07-21T03:38:47.000Z</time></trkpt>
        <trkpt lat="29.580642" lon="103.373878"><ele>1346.7961</ele><time>2026-07-21T03:38:49.000Z</time></trkpt>
        <trkpt lat="29.580617" lon="103.373855"><ele>1347.2363</ele><time>2026-07-21T03:38:53.000Z</time></trkpt>
        <trkpt lat="29.580617" lon="103.373855"><ele>1347.3236</ele><time>2026-07-21T03:38:55.000Z</time></trkpt>
        <trkpt lat="29.580615" lon="103.373854"><ele>1348.0264</ele><time>2026-07-21T03:38:57.000Z</time></trkpt>
        <trkpt lat="29.580585" lon="103.37383"><ele>1348.5162</ele><time>2026-07-21T03:39:03.000Z</time></trkpt>
        <trkpt lat="29.580571" lon="103.373821"><ele>1349.1125</ele><time>2026-07-21T03:39:05.000Z</time></trkpt>
        <trkpt lat="29.580559" lon="103.373815"><ele>1349.3407</ele><time>2026-07-21T03:39:07.000Z</time></trkpt>
        <trkpt lat="29.580546" lon="103.373809"><ele>1349.3005</ele><time>2026-07-21T03:39:09.000Z</time></trkpt>
        <trkpt lat="29.580531" lon="103.373803"><ele>1349.9883</ele><time>2026-07-21T03:39:11.000Z</time></trkpt>
        <trkpt lat="29.580518" lon="103.373799"><ele>1349.9579</ele><time>2026-07-21T03:39:13.000Z</time></trkpt>
        <trkpt lat="29.580503" lon="103.373794"><ele>1350.0875</ele><time>2026-07-21T03:39:15.000Z</time></trkpt>
        <trkpt lat="29.580491" lon="103.373789"><ele>1350.2305</ele><time>2026-07-21T03:39:17.000Z</time></trkpt>
        <trkpt lat="29.58048" lon="103.373783"><ele>1349.3813</ele><time>2026-07-21T03:39:19.000Z</time></trkpt>
        <trkpt lat="29.580471" lon="103.37378"><ele>1348.9093</ele><time>2026-07-21T03:39:21.000Z</time></trkpt>
        <trkpt lat="29.580464" lon="103.373771"><ele>1349.9115</ele><time>2026-07-21T03:39:35.000Z</time></trkpt>
        <trkpt lat="29.580456" lon="103.373756"><ele>1348.8184</ele><time>2026-07-21T03:39:39.000Z</time></trkpt>
        <trkpt lat="29.580448" lon="103.373742"><ele>1349.1174</ele><time>2026-07-21T03:39:41.000Z</time></trkpt>
        <trkpt lat="29.580447" lon="103.37374"><ele>1349.4904</ele><time>2026-07-21T03:39:43.000Z</time></trkpt>
        <trkpt lat="29.580439" lon="103.373727"><ele>1349.3677</ele><time>2026-07-21T03:39:47.000Z</time></trkpt>
        <trkpt lat="29.580428" lon="103.37371"><ele>1348.9136</ele><time>2026-07-21T03:39:49.000Z</time></trkpt>
        <trkpt lat="29.580413" lon="103.37369"><ele>1349.0743</ele><time>2026-07-21T03:39:51.000Z</time></trkpt>
        <trkpt lat="29.580397" lon="103.373671"><ele>1348.4691</ele><time>2026-07-21T03:39:53.000Z</time></trkpt>
        <trkpt lat="29.580384" lon="103.373654"><ele>1348.5315</ele><time>2026-07-21T03:39:55.000Z</time></trkpt>
        <trkpt lat="29.580373" lon="103.373642"><ele>1348.9143</ele><time>2026-07-21T03:39:57.000Z</time></trkpt>
        <trkpt lat="29.580363" lon="103.373633"><ele>1349.1189</ele><time>2026-07-21T03:39:59.000Z</time></trkpt>
        <trkpt lat="29.580354" lon="103.373625"><ele>1349.2365</ele><time>2026-07-21T03:40:01.000Z</time></trkpt>
        <trkpt lat="29.580344" lon="103.373617"><ele>1349.1428</ele><time>2026-07-21T03:40:03.000Z</time></trkpt>
        <trkpt lat="29.580333" lon="103.37361"><ele>1348.4065</ele><time>2026-07-21T03:40:05.000Z</time></trkpt>
        <trkpt lat="29.580328" lon="103.373607"><ele>1348.6144</ele><time>2026-07-21T03:40:07.000Z</time></trkpt>
        <trkpt lat="29.580317" lon="103.373599"><ele>1350.1056</ele><time>2026-07-21T03:40:11.000Z</time></trkpt>
        <trkpt lat="29.580306" lon="103.373588"><ele>1350.5833</ele><time>2026-07-21T03:40:13.000Z</time></trkpt>
        <trkpt lat="29.580296" lon="103.373577"><ele>1350.9469</ele><time>2026-07-21T03:40:15.000Z</time></trkpt>
        <trkpt lat="29.580288" lon="103.373564"><ele>1349.5277</ele><time>2026-07-21T03:40:17.000Z</time></trkpt>
        <trkpt lat="29.580281" lon="103.373557"><ele>1350.36</ele><time>2026-07-21T03:40:19.000Z</time></trkpt>
        <trkpt lat="29.580275" lon="103.373553"><ele>1349.9337</ele><time>2026-07-21T03:40:21.000Z</time></trkpt>
        <trkpt lat="29.580265" lon="103.373535"><ele>1350.5813</ele><time>2026-07-21T03:40:27.000Z</time></trkpt>
        <trkpt lat="29.580259" lon="103.373522"><ele>1350.6608</ele><time>2026-07-21T03:40:29.000Z</time></trkpt>
        <trkpt lat="29.580258" lon="103.373522"><ele>1350.5693</ele><time>2026-07-21T03:40:31.000Z</time></trkpt>
        <trkpt lat="29.580243" lon="103.37351"><ele>1350.6342</ele><time>2026-07-21T03:40:35.000Z</time></trkpt>
        <trkpt lat="29.580224" lon="103.373495"><ele>1350.9325</ele><time>2026-07-21T03:40:37.000Z</time></trkpt>
        <trkpt lat="29.580207" lon="103.373477"><ele>1351.775</ele><time>2026-07-21T03:40:39.000Z</time></trkpt>
        <trkpt lat="29.580192" lon="103.373459"><ele>1351.4979</ele><time>2026-07-21T03:40:41.000Z</time></trkpt>
        <trkpt lat="29.580181" lon="103.373444"><ele>1352.4843</ele><time>2026-07-21T03:40:43.000Z</time></trkpt>
        <trkpt lat="29.580172" lon="103.37343"><ele>1352.8025</ele><time>2026-07-21T03:40:45.000Z</time></trkpt>
        <trkpt lat="29.580163" lon="103.373416"><ele>1353.4728</ele><time>2026-07-21T03:40:47.000Z</time></trkpt>
        <trkpt lat="29.580152" lon="103.373403"><ele>1353.6891</ele><time>2026-07-21T03:40:49.000Z</time></trkpt>
        <trkpt lat="29.58014" lon="103.373388"><ele>1354.8954</ele><time>2026-07-21T03:40:51.000Z</time></trkpt>
        <trkpt lat="29.580132" lon="103.373378"><ele>1354.6151</ele><time>2026-07-21T03:40:53.000Z</time></trkpt>
        <trkpt lat="29.580123" lon="103.373369"><ele>1355.3154</ele><time>2026-07-21T03:40:55.000Z</time></trkpt>
        <trkpt lat="29.580113" lon="103.373359"><ele>1355.129</ele><time>2026-07-21T03:40:57.000Z</time></trkpt>
        <trkpt lat="29.580103" lon="103.373348"><ele>1354.8784</ele><time>2026-07-21T03:40:59.000Z</time></trkpt>
        <trkpt lat="29.580095" lon="103.37334"><ele>1354.9707</ele><time>2026-07-21T03:41:01.000Z</time></trkpt>
        <trkpt lat="29.580087" lon="103.373332"><ele>1355.5945</ele><time>2026-07-21T03:41:03.000Z</time></trkpt>
        <trkpt lat="29.580081" lon="103.373326"><ele>1356.3208</ele><time>2026-07-21T03:41:05.000Z</time></trkpt>
        <trkpt lat="29.580074" lon="103.373316"><ele>1356.3041</ele><time>2026-07-21T03:41:07.000Z</time></trkpt>
        <trkpt lat="29.580066" lon="103.373305"><ele>1357.1736</ele><time>2026-07-21T03:41:09.000Z</time></trkpt>
        <trkpt lat="29.580057" lon="103.373295"><ele>1357.0671</ele><time>2026-07-21T03:41:11.000Z</time></trkpt>
        <trkpt lat="29.580049" lon="103.373285"><ele>1357.0967</ele><time>2026-07-21T03:41:13.000Z</time></trkpt>
        <trkpt lat="29.580043" lon="103.373277"><ele>1357.5804</ele><time>2026-07-21T03:41:15.000Z</time></trkpt>
        <trkpt lat="29.580037" lon="103.373268"><ele>1358.3756</ele><time>2026-07-21T03:41:17.000Z</time></trkpt>
        <trkpt lat="29.580029" lon="103.373255"><ele>1359.548</ele><time>2026-07-21T03:41:21.000Z</time></trkpt>
        <trkpt lat="29.580019" lon="103.373248"><ele>1361.8468</ele><time>2026-07-21T03:41:25.000Z</time></trkpt>
        <trkpt lat="29.58001" lon="103.373237"><ele>1362.0334</ele><time>2026-07-21T03:41:27.000Z</time></trkpt>
        <trkpt lat="29.580004" lon="103.373229"><ele>1362.1567</ele><time>2026-07-21T03:41:33.000Z</time></trkpt>
        <trkpt lat="29.579987" lon="103.373207"><ele>1362.9408</ele><time>2026-07-21T03:41:35.000Z</time></trkpt>
        <trkpt lat="29.579986" lon="103.373205"><ele>1363.2388</ele><time>2026-07-21T03:41:37.000Z</time></trkpt>
        <trkpt lat="29.579983" lon="103.373201"><ele>1365.662</ele><time>2026-07-21T03:41:41.000Z</time></trkpt>
        <trkpt lat="29.579961" lon="103.373175"><ele>1366.1122</ele><time>2026-07-21T03:41:47.000Z</time></trkpt>
        <trkpt lat="29.579961" lon="103.373175"><ele>1366.0354</ele><time>2026-07-21T03:41:49.000Z</time></trkpt>
        <trkpt lat="29.57996" lon="103.373174"><ele>1365.9608</ele><time>2026-07-21T03:41:51.000Z</time></trkpt>
        <trkpt lat="29.579928" lon="103.373144"><ele>1367.0121</ele><time>2026-07-21T03:42:40.000Z</time></trkpt>
        <trkpt lat="29.57992" lon="103.373141"><ele>1367.0516</ele><time>2026-07-21T03:42:43.000Z</time></trkpt>
        <trkpt lat="29.579908" lon="103.373134"><ele>1366.7372</ele><time>2026-07-21T03:42:45.000Z</time></trkpt>
        <trkpt lat="29.579901" lon="103.373129"><ele>1366.9847</ele><time>2026-07-21T03:42:51.000Z</time></trkpt>
        <trkpt lat="29.579891" lon="103.373121"><ele>1366.9132</ele><time>2026-07-21T03:42:53.000Z</time></trkpt>
        <trkpt lat="29.57988" lon="103.373111"><ele>1366.5162</ele><time>2026-07-21T03:42:55.000Z</time></trkpt>
        <trkpt lat="29.579869" lon="103.373099"><ele>1367.3815</ele><time>2026-07-21T03:42:57.000Z</time></trkpt>
        <trkpt lat="29.579861" lon="103.373089"><ele>1368.0011</ele><time>2026-07-21T03:42:59.000Z</time></trkpt>
        <trkpt lat="29.579856" lon="103.373081"><ele>1368.6283</ele><time>2026-07-21T03:43:01.000Z</time></trkpt>
        <trkpt lat="29.579848" lon="103.373074"><ele>1369.1031</ele><time>2026-07-21T03:43:05.000Z</time></trkpt>
        <trkpt lat="29.579835" lon="103.373062"><ele>1372.7094</ele><time>2026-07-21T03:43:15.000Z</time></trkpt>
        <trkpt lat="29.57983" lon="103.373056"><ele>1372.5197</ele><time>2026-07-21T03:43:17.000Z</time></trkpt>
        <trkpt lat="29.579826" lon="103.373049"><ele>1373.3263</ele><time>2026-07-21T03:43:19.000Z</time></trkpt>
        <trkpt lat="29.579819" lon="103.373032"><ele>1374.3495</ele><time>2026-07-21T03:43:23.000Z</time></trkpt>
        <trkpt lat="29.579817" lon="103.373024"><ele>1374.4679</ele><time>2026-07-21T03:43:25.000Z</time></trkpt>
        <trkpt lat="29.579816" lon="103.373017"><ele>1374.4125</ele><time>2026-07-21T03:43:27.000Z</time></trkpt>
        <trkpt lat="29.579811" lon="103.372995"><ele>1373.7981</ele><time>2026-07-21T03:43:46.000Z</time></trkpt>
        <trkpt lat="29.57979" lon="103.372998"><ele>1374.3396</ele><time>2026-07-21T03:44:01.000Z</time></trkpt>
        <trkpt lat="29.579785" lon="103.372996"><ele>1373.5776</ele><time>2026-07-21T03:44:16.000Z</time></trkpt>
        <trkpt lat="29.579785" lon="103.372993"><ele>1371.9402</ele><time>2026-07-21T03:44:31.000Z</time></trkpt>
        <trkpt lat="29.579786" lon="103.372959"><ele>1376.9594</ele><time>2026-07-21T03:45:22.000Z</time></trkpt>
        <trkpt lat="29.579787" lon="103.372954"><ele>1377.9856</ele><time>2026-07-21T03:45:24.000Z</time></trkpt>
        <trkpt lat="29.579784" lon="103.372951"><ele>1378.4327</ele><time>2026-07-21T03:45:26.000Z</time></trkpt>
        <trkpt lat="29.579768" lon="103.372931"><ele>1378.3917</ele><time>2026-07-21T03:45:42.000Z</time></trkpt>
        <trkpt lat="29.579766" lon="103.372929"><ele>1378.7798</ele><time>2026-07-21T03:45:44.000Z</time></trkpt>
        <trkpt lat="29.579763" lon="103.372927"><ele>1379.361</ele><time>2026-07-21T03:45:46.000Z</time></trkpt>
        <trkpt lat="29.57971" lon="103.372882"><ele>1382.7289</ele><time>2026-07-21T03:46:07.000Z</time></trkpt>
        <trkpt lat="29.579692" lon="103.372857"><ele>1386.9943</ele><time>2026-07-21T03:46:22.000Z</time></trkpt>
        <trkpt lat="29.579673" lon="103.372831"><ele>1387.5681</ele><time>2026-07-21T03:46:31.000Z</time></trkpt>
        <trkpt lat="29.579669" lon="103.372824"><ele>1388.3494</ele><time>2026-07-21T03:46:33.000Z</time></trkpt>
        <trkpt lat="29.579662" lon="103.372819"><ele>1389.3523</ele><time>2026-07-21T03:46:35.000Z</time></trkpt>
        <trkpt lat="29.579651" lon="103.372806"><ele>1388.0607</ele><time>2026-07-21T03:46:41.000Z</time></trkpt>
        <trkpt lat="29.579644" lon="103.372798"><ele>1388.9626</ele><time>2026-07-21T03:46:45.000Z</time></trkpt>
        <trkpt lat="29.579636" lon="103.372795"><ele>1390.1135</ele><time>2026-07-21T03:46:49.000Z</time></trkpt>
        <trkpt lat="29.579619" lon="103.372791"><ele>1390.7711</ele><time>2026-07-21T03:46:53.000Z</time></trkpt>
        <trkpt lat="29.579612" lon="103.372789"><ele>1390.7767</ele><time>2026-07-21T03:46:55.000Z</time></trkpt>
        <trkpt lat="29.579606" lon="103.372788"><ele>1390.7767</ele><time>2026-07-21T03:46:57.000Z</time></trkpt>
        <trkpt lat="29.579588" lon="103.372784"><ele>1391.0785</ele><time>2026-07-21T03:47:03.000Z</time></trkpt>
        <trkpt lat="29.579565" lon="103.372782"><ele>1392.535</ele><time>2026-07-21T03:47:09.000Z</time></trkpt>
        <trkpt lat="29.579559" lon="103.372783"><ele>1392.8363</ele><time>2026-07-21T03:47:11.000Z</time></trkpt>
        <trkpt lat="29.579556" lon="103.372783"><ele>1393.3959</ele><time>2026-07-21T03:47:13.000Z</time></trkpt>
        <trkpt lat="29.579532" lon="103.372782"><ele>1394.425</ele><time>2026-07-21T03:47:21.000Z</time></trkpt>
        <trkpt lat="29.579525" lon="103.372782"><ele>1394.2509</ele><time>2026-07-21T03:47:23.000Z</time></trkpt>
        <trkpt lat="29.579525" lon="103.372784"><ele>1393.9084</ele><time>2026-07-21T03:47:25.000Z</time></trkpt>
        <trkpt lat="29.579514" lon="103.372815"><ele>1395.3983</ele><time>2026-07-21T03:48:32.000Z</time></trkpt>
        <trkpt lat="29.579512" lon="103.372815"><ele>1395.1057</ele><time>2026-07-21T03:48:47.000Z</time></trkpt>
        <trkpt lat="29.579493" lon="103.372807"><ele>1395.1697</ele><time>2026-07-21T03:48:56.000Z</time></trkpt>
        <trkpt lat="29.57948" lon="103.372799"><ele>1396.0262</ele><time>2026-07-21T03:49:00.000Z</time></trkpt>
        <trkpt lat="29.579474" lon="103.372795"><ele>1396.3079</ele><time>2026-07-21T03:49:02.000Z</time></trkpt>
        <trkpt lat="29.579469" lon="103.372788"><ele>1396.3795</ele><time>2026-07-21T03:49:04.000Z</time></trkpt>
        <trkpt lat="29.579454" lon="103.372772"><ele>1397.1453</ele><time>2026-07-21T03:49:10.000Z</time></trkpt>
        <trkpt lat="29.579449" lon="103.372767"><ele>1397.5333</ele><time>2026-07-21T03:49:12.000Z</time></trkpt>
        <trkpt lat="29.579445" lon="103.372764"><ele>1398.08</ele><time>2026-07-21T03:49:14.000Z</time></trkpt>
        <trkpt lat="29.579426" lon="103.372746"><ele>1396.9165</ele><time>2026-07-21T03:49:20.000Z</time></trkpt>
        <trkpt lat="29.579423" lon="103.372742"><ele>1397.1202</ele><time>2026-07-21T03:49:22.000Z</time></trkpt>
        <trkpt lat="29.579418" lon="103.372735"><ele>1396.1566</ele><time>2026-07-21T03:49:24.000Z</time></trkpt>
        <trkpt lat="29.579407" lon="103.372715"><ele>1396.3591</ele><time>2026-07-21T03:49:30.000Z</time></trkpt>
        <trkpt lat="29.579399" lon="103.372702"><ele>1395.841</ele><time>2026-07-21T03:49:32.000Z</time></trkpt>
        <trkpt lat="29.579398" lon="103.372701"><ele>1395.8849</ele><time>2026-07-21T03:49:34.000Z</time></trkpt>
        <trkpt lat="29.579384" lon="103.372674"><ele>1396.1233</ele><time>2026-07-21T03:49:40.000Z</time></trkpt>
        <trkpt lat="29.579376" lon="103.372659"><ele>1396.1628</ele><time>2026-07-21T03:49:42.000Z</time></trkpt>
        <trkpt lat="29.579367" lon="103.372646"><ele>1396.1525</ele><time>2026-07-21T03:49:44.000Z</time></trkpt>
        <trkpt lat="29.579358" lon="103.372633"><ele>1396.5511</ele><time>2026-07-21T03:49:46.000Z</time></trkpt>
        <trkpt lat="29.57935" lon="103.372623"><ele>1396.9974</ele><time>2026-07-21T03:49:48.000Z</time></trkpt>
        <trkpt lat="29.579342" lon="103.372615"><ele>1396.9185</ele><time>2026-07-21T03:49:50.000Z</time></trkpt>
        <trkpt lat="29.579328" lon="103.372603"><ele>1397.7941</ele><time>2026-07-21T03:49:54.000Z</time></trkpt>
        <trkpt lat="29.579324" lon="103.372601"><ele>1398.1062</ele><time>2026-07-21T03:49:56.000Z</time></trkpt>
        <trkpt lat="29.579311" lon="103.372593"><ele>1400.6499</ele><time>2026-07-21T03:50:00.000Z</time></trkpt>
        <trkpt lat="29.5793" lon="103.372583"><ele>1401.2081</ele><time>2026-07-21T03:50:04.000Z</time></trkpt>
        <trkpt lat="29.579297" lon="103.372579"><ele>1401.8844</ele><time>2026-07-21T03:50:06.000Z</time></trkpt>
        <trkpt lat="29.579287" lon="103.372567"><ele>1401.7871</ele><time>2026-07-21T03:50:10.000Z</time></trkpt>
        <trkpt lat="29.579276" lon="103.372554"><ele>1402.0458</ele><time>2026-07-21T03:50:14.000Z</time></trkpt>
        <trkpt lat="29.57927" lon="103.372548"><ele>1402.4099</ele><time>2026-07-21T03:50:16.000Z</time></trkpt>
        <trkpt lat="29.579264" lon="103.372543"><ele>1402.3728</ele><time>2026-07-21T03:50:18.000Z</time></trkpt>
        <trkpt lat="29.57925" lon="103.372536"><ele>1402.021</ele><time>2026-07-21T03:50:22.000Z</time></trkpt>
        <trkpt lat="29.579234" lon="103.372529"><ele>1402.5015</ele><time>2026-07-21T03:50:24.000Z</time></trkpt>
        <trkpt lat="29.579233" lon="103.372529"><ele>1402.9739</ele><time>2026-07-21T03:50:26.000Z</time></trkpt>
        <trkpt lat="29.579214" lon="103.372517"><ele>1403.5969</ele><time>2026-07-21T03:50:32.000Z</time></trkpt>
        <trkpt lat="29.579203" lon="103.372509"><ele>1403.6089</ele><time>2026-07-21T03:50:34.000Z</time></trkpt>
        <trkpt lat="29.57919" lon="103.372501"><ele>1403.8735</ele><time>2026-07-21T03:50:36.000Z</time></trkpt>
        <trkpt lat="29.579176" lon="103.372492"><ele>1404.7822</ele><time>2026-07-21T03:50:38.000Z</time></trkpt>
        <trkpt lat="29.579163" lon="103.372484"><ele>1404.8954</ele><time>2026-07-21T03:50:40.000Z</time></trkpt>
        <trkpt lat="29.579151" lon="103.372478"><ele>1405.8772</ele><time>2026-07-21T03:50:42.000Z</time></trkpt>
        <trkpt lat="29.57914" lon="103.372475"><ele>1406.214</ele><time>2026-07-21T03:50:44.000Z</time></trkpt>
        <trkpt lat="29.579129" lon="103.372474"><ele>1406.6212</ele><time>2026-07-21T03:50:46.000Z</time></trkpt>
        <trkpt lat="29.579117" lon="103.372475"><ele>1406.9805</ele><time>2026-07-21T03:50:48.000Z</time></trkpt>
        <trkpt lat="29.579105" lon="103.372477"><ele>1407.2261</ele><time>2026-07-21T03:50:50.000Z</time></trkpt>
        <trkpt lat="29.579093" lon="103.372479"><ele>1406.9268</ele><time>2026-07-21T03:50:52.000Z</time></trkpt>
        <trkpt lat="29.579079" lon="103.372481"><ele>1407.1981</ele><time>2026-07-21T03:50:54.000Z</time></trkpt>
        <trkpt lat="29.579064" lon="103.372481"><ele>1407.4851</ele><time>2026-07-21T03:50:55.000Z</time></trkpt>
        <trkpt lat="29.579052" lon="103.372478"><ele>1408.0356</ele><time>2026-07-21T03:50:57.000Z</time></trkpt>
        <trkpt lat="29.579049" lon="103.372472"><ele>1408.2407</ele><time>2026-07-21T03:50:59.000Z</time></trkpt>
        <trkpt lat="29.579037" lon="103.372452"><ele>1406.869</ele><time>2026-07-21T03:51:05.000Z</time></trkpt>
        <trkpt lat="29.579034" lon="103.372447"><ele>1406.4052</ele><time>2026-07-21T03:51:07.000Z</time></trkpt>
        <trkpt lat="29.579023" lon="103.372434"><ele>1406.2183</ele><time>2026-07-21T03:51:09.000Z</time></trkpt>
        <trkpt lat="29.579017" lon="103.372426"><ele>1406.1853</ele><time>2026-07-21T03:51:15.000Z</time></trkpt>
        <trkpt lat="29.57901" lon="103.372415"><ele>1405.7765</ele><time>2026-07-21T03:51:17.000Z</time></trkpt>
        <trkpt lat="29.578998" lon="103.3724"><ele>1407.0713</ele><time>2026-07-21T03:51:19.000Z</time></trkpt>
        <trkpt lat="29.578985" lon="103.372384"><ele>1407.0969</ele><time>2026-07-21T03:51:22.000Z</time></trkpt>
        <trkpt lat="29.578973" lon="103.372372"><ele>1407.8452</ele><time>2026-07-21T03:51:24.000Z</time></trkpt>
        <trkpt lat="29.578962" lon="103.372361"><ele>1407.531</ele><time>2026-07-21T03:51:26.000Z</time></trkpt>
        <trkpt lat="29.578956" lon="103.372354"><ele>1407.4426</ele><time>2026-07-21T03:51:28.000Z</time></trkpt>
        <trkpt lat="29.578948" lon="103.372344"><ele>1408.5039</ele><time>2026-07-21T03:51:30.000Z</time></trkpt>
        <trkpt lat="29.57894" lon="103.372335"><ele>1409.2905</ele><time>2026-07-21T03:51:32.000Z</time></trkpt>
        <trkpt lat="29.57893" lon="103.372327"><ele>1410.7622</ele><time>2026-07-21T03:51:34.000Z</time></trkpt>
        <trkpt lat="29.578921" lon="103.372319"><ele>1409.8861</ele><time>2026-07-21T03:51:36.000Z</time></trkpt>
        <trkpt lat="29.578912" lon="103.372313"><ele>1411.2537</ele><time>2026-07-21T03:51:38.000Z</time></trkpt>
        <trkpt lat="29.578904" lon="103.372308"><ele>1412.1309</ele><time>2026-07-21T03:51:40.000Z</time></trkpt>
        <trkpt lat="29.578891" lon="103.3723"><ele>1413.1263</ele><time>2026-07-21T03:51:44.000Z</time></trkpt>
        <trkpt lat="29.578885" lon="103.372296"><ele>1413.6605</ele><time>2026-07-21T03:51:46.000Z</time></trkpt>
        <trkpt lat="29.578877" lon="103.372292"><ele>1414.4805</ele><time>2026-07-21T03:51:48.000Z</time></trkpt>
        <trkpt lat="29.578856" lon="103.372281"><ele>1415.571</ele><time>2026-07-21T03:51:52.000Z</time></trkpt>
        <trkpt lat="29.578846" lon="103.372275"><ele>1416.0682</ele><time>2026-07-21T03:51:54.000Z</time></trkpt>
        <trkpt lat="29.57884" lon="103.37227"><ele>1415.9219</ele><time>2026-07-21T03:51:56.000Z</time></trkpt>
        <trkpt lat="29.578831" lon="103.372261"><ele>1416.4158</ele><time>2026-07-21T03:52:00.000Z</time></trkpt>
        <trkpt lat="29.578821" lon="103.372254"><ele>1417.7148</ele><time>2026-07-21T03:52:04.000Z</time></trkpt>
        <trkpt lat="29.578814" lon="103.372251"><ele>1417.8923</ele><time>2026-07-21T03:52:06.000Z</time></trkpt>
        <trkpt lat="29.578786" lon="103.372238"><ele>1418.0112</ele><time>2026-07-21T03:52:10.000Z</time></trkpt>
        <trkpt lat="29.578786" lon="103.372238"><ele>1417.7388</ele><time>2026-07-21T03:52:12.000Z</time></trkpt>
        <trkpt lat="29.578785" lon="103.372237"><ele>1417.5762</ele><time>2026-07-21T03:52:14.000Z</time></trkpt>
        <trkpt lat="29.57876" lon="103.372221"><ele>1417.2107</ele><time>2026-07-21T03:52:18.000Z</time></trkpt>
        <trkpt lat="29.578742" lon="103.372207"><ele>1417.0758</ele><time>2026-07-21T03:52:20.000Z</time></trkpt>
        <trkpt lat="29.578724" lon="103.372191"><ele>1417.0026</ele><time>2026-07-21T03:52:22.000Z</time></trkpt>
        <trkpt lat="29.578707" lon="103.372174"><ele>1416.8173</ele><time>2026-07-21T03:52:24.000Z</time></trkpt>
        <trkpt lat="29.578691" lon="103.372155"><ele>1416.952</ele><time>2026-07-21T03:52:26.000Z</time></trkpt>
        <trkpt lat="29.578677" lon="103.372137"><ele>1417.2639</ele><time>2026-07-21T03:52:28.000Z</time></trkpt>
        <trkpt lat="29.578665" lon="103.372119"><ele>1416.9275</ele><time>2026-07-21T03:52:30.000Z</time></trkpt>
        <trkpt lat="29.578655" lon="103.372102"><ele>1416.3905</ele><time>2026-07-21T03:52:32.000Z</time></trkpt>
        <trkpt lat="29.578648" lon="103.372086"><ele>1416.431</ele><time>2026-07-21T03:52:34.000Z</time></trkpt>
        <trkpt lat="29.578643" lon="103.372072"><ele>1416.754</ele><time>2026-07-21T03:52:36.000Z</time></trkpt>
        <trkpt lat="29.578637" lon="103.372057"><ele>1416.2837</ele><time>2026-07-21T03:52:38.000Z</time></trkpt>
        <trkpt lat="29.578631" lon="103.372044"><ele>1416.8746</ele><time>2026-07-21T03:52:40.000Z</time></trkpt>
        <trkpt lat="29.578627" lon="103.372032"><ele>1417.5795</ele><time>2026-07-21T03:52:42.000Z</time></trkpt>
        <trkpt lat="29.578622" lon="103.372022"><ele>1419.0425</ele><time>2026-07-21T03:52:44.000Z</time></trkpt>
        <trkpt lat="29.578616" lon="103.372015"><ele>1418.4753</ele><time>2026-07-21T03:52:48.000Z</time></trkpt>
        <trkpt lat="29.578607" lon="103.372002"><ele>1417.9143</ele><time>2026-07-21T03:52:56.000Z</time></trkpt>
        <trkpt lat="29.578598" lon="103.37199"><ele>1419.7507</ele><time>2026-07-21T03:53:00.000Z</time></trkpt>
        <trkpt lat="29.578587" lon="103.371974"><ele>1420.7914</ele><time>2026-07-21T03:53:02.000Z</time></trkpt>
        <trkpt lat="29.578586" lon="103.371974"><ele>1421.1578</ele><time>2026-07-21T03:53:04.000Z</time></trkpt>
        <trkpt lat="29.578564" lon="103.371968"><ele>1420.6793</ele><time>2026-07-21T03:53:10.000Z</time></trkpt>
        <trkpt lat="29.57855" lon="103.371966"><ele>1420.5881</ele><time>2026-07-21T03:53:12.000Z</time></trkpt>
        <trkpt lat="29.578538" lon="103.371964"><ele>1420.6656</ele><time>2026-07-21T03:53:14.000Z</time></trkpt>
        <trkpt lat="29.578526" lon="103.37196"><ele>1421.3931</ele><time>2026-07-21T03:53:16.000Z</time></trkpt>
        <trkpt lat="29.578521" lon="103.371954"><ele>1421.3135</ele><time>2026-07-21T03:53:18.000Z</time></trkpt>
        <trkpt lat="29.578521" lon="103.371945"><ele>1420.8541</ele><time>2026-07-21T03:53:24.000Z</time></trkpt>
        <trkpt lat="29.578522" lon="103.371919"><ele>1421.483</ele><time>2026-07-21T03:53:53.000Z</time></trkpt>
        <trkpt lat="29.578522" lon="103.371919"><ele>1421.5581</ele><time>2026-07-21T03:53:55.000Z</time></trkpt>
        <trkpt lat="29.578507" lon="103.371903"><ele>1422.0138</ele><time>2026-07-21T03:54:01.000Z</time></trkpt>
        <trkpt lat="29.578492" lon="103.371887"><ele>1422.1747</ele><time>2026-07-21T03:54:03.000Z</time></trkpt>
        <trkpt lat="29.578491" lon="103.371885"><ele>1422.4047</ele><time>2026-07-21T03:54:05.000Z</time></trkpt>
        <trkpt lat="29.578487" lon="103.371877"><ele>1422.3485</ele><time>2026-07-21T03:54:09.000Z</time></trkpt>
        <trkpt lat="29.578475" lon="103.371852"><ele>1423.3715</ele><time>2026-07-21T03:54:13.000Z</time></trkpt>
        <trkpt lat="29.578469" lon="103.37184"><ele>1422.8668</ele><time>2026-07-21T03:54:15.000Z</time></trkpt>
        <trkpt lat="29.578461" lon="103.371827"><ele>1422.609</ele><time>2026-07-21T03:54:17.000Z</time></trkpt>
        <trkpt lat="29.578454" lon="103.371816"><ele>1422.9601</ele><time>2026-07-21T03:54:19.000Z</time></trkpt>
        <trkpt lat="29.578448" lon="103.371807"><ele>1423.1675</ele><time>2026-07-21T03:54:21.000Z</time></trkpt>
        <trkpt lat="29.578443" lon="103.371799"><ele>1423.6385</ele><time>2026-07-21T03:54:23.000Z</time></trkpt>
        <trkpt lat="29.578429" lon="103.371778"><ele>1424.6376</ele><time>2026-07-21T03:54:27.000Z</time></trkpt>
        <trkpt lat="29.578418" lon="103.371764"><ele>1424.7026</ele><time>2026-07-21T03:54:29.000Z</time></trkpt>
        <trkpt lat="29.578405" lon="103.371747"><ele>1426.1272</ele><time>2026-07-21T03:54:31.000Z</time></trkpt>
        <trkpt lat="29.578395" lon="103.371733"><ele>1426.6013</ele><time>2026-07-21T03:54:33.000Z</time></trkpt>
        <trkpt lat="29.578386" lon="103.371718"><ele>1426.8597</ele><time>2026-07-21T03:54:35.000Z</time></trkpt>
        <trkpt lat="29.57838" lon="103.371703"><ele>1427.2606</ele><time>2026-07-21T03:54:37.000Z</time></trkpt>
        <trkpt lat="29.578376" lon="103.371691"><ele>1426.7955</ele><time>2026-07-21T03:54:39.000Z</time></trkpt>
        <trkpt lat="29.578371" lon="103.371675"><ele>1428.0972</ele><time>2026-07-21T03:54:41.000Z</time></trkpt>
        <trkpt lat="29.578365" lon="103.37166"><ele>1427.7714</ele><time>2026-07-21T03:54:43.000Z</time></trkpt>
        <trkpt lat="29.578359" lon="103.371647"><ele>1427.3496</ele><time>2026-07-21T03:54:45.000Z</time></trkpt>
        <trkpt lat="29.578351" lon="103.371634"><ele>1426.9482</ele><time>2026-07-21T03:54:47.000Z</time></trkpt>
        <trkpt lat="29.578343" lon="103.371625"><ele>1427.5602</ele><time>2026-07-21T03:54:49.000Z</time></trkpt>
        <trkpt lat="29.578335" lon="103.371614"><ele>1427.4877</ele><time>2026-07-21T03:54:51.000Z</time></trkpt>
        <trkpt lat="29.578326" lon="103.371604"><ele>1427.0177</ele><time>2026-07-21T03:54:53.000Z</time></trkpt>
        <trkpt lat="29.578315" lon="103.371591"><ele>1426.9175</ele><time>2026-07-21T03:54:55.000Z</time></trkpt>
        <trkpt lat="29.578302" lon="103.371581"><ele>1426.9525</ele><time>2026-07-21T03:54:57.000Z</time></trkpt>
        <trkpt lat="29.578292" lon="103.371572"><ele>1426.142</ele><time>2026-07-21T03:54:59.000Z</time></trkpt>
        <trkpt lat="29.578286" lon="103.371565"><ele>1427.5537</ele><time>2026-07-21T03:55:01.000Z</time></trkpt>
        <trkpt lat="29.578278" lon="103.371557"><ele>1428.7108</ele><time>2026-07-21T03:55:03.000Z</time></trkpt>
        <trkpt lat="29.578269" lon="103.37155"><ele>1429.6869</ele><time>2026-07-21T03:55:05.000Z</time></trkpt>
        <trkpt lat="29.57826" lon="103.371544"><ele>1430.2755</ele><time>2026-07-21T03:55:07.000Z</time></trkpt>
        <trkpt lat="29.578252" lon="103.37154"><ele>1430.0977</ele><time>2026-07-21T03:55:09.000Z</time></trkpt>
        <trkpt lat="29.578239" lon="103.37154"><ele>1430.922</ele><time>2026-07-21T03:55:13.000Z</time></trkpt>
        <trkpt lat="29.578225" lon="103.371542"><ele>1431.0468</ele><time>2026-07-21T03:55:15.000Z</time></trkpt>
        <trkpt lat="29.57822" lon="103.371541"><ele>1431.7671</ele><time>2026-07-21T03:55:21.000Z</time></trkpt>
        <trkpt lat="29.578192" lon="103.371538"><ele>1432.6835</ele><time>2026-07-21T03:55:25.000Z</time></trkpt>
        <trkpt lat="29.578192" lon="103.371538"><ele>1433.3073</ele><time>2026-07-21T03:55:27.000Z</time></trkpt>
        <trkpt lat="29.578188" lon="103.371533"><ele>1434.5872</ele><time>2026-07-21T03:55:31.000Z</time></trkpt>
        <trkpt lat="29.57817" lon="103.371513"><ele>1433.8113</ele><time>2026-07-21T03:55:37.000Z</time></trkpt>
        <trkpt lat="29.578165" lon="103.371507"><ele>1433.4852</ele><time>2026-07-21T03:55:39.000Z</time></trkpt>
        <trkpt lat="29.578158" lon="103.371502"><ele>1433.8392</ele><time>2026-07-21T03:55:41.000Z</time></trkpt>
        <trkpt lat="29.578143" lon="103.371489"><ele>1435.0616</ele><time>2026-07-21T03:55:47.000Z</time></trkpt>
        <trkpt lat="29.57814" lon="103.371484"><ele>1434.8848</ele><time>2026-07-21T03:55:49.000Z</time></trkpt>
        <trkpt lat="29.578135" lon="103.371472"><ele>1435.1099</ele><time>2026-07-21T03:55:53.000Z</time></trkpt>
        <trkpt lat="29.578127" lon="103.371455"><ele>1434.7892</ele><time>2026-07-21T03:56:01.000Z</time></trkpt>
        <trkpt lat="29.578123" lon="103.371448"><ele>1434.4728</ele><time>2026-07-21T03:56:03.000Z</time></trkpt>
        <trkpt lat="29.578117" lon="103.371435"><ele>1434.3271</ele><time>2026-07-21T03:56:07.000Z</time></trkpt>
        <trkpt lat="29.578111" lon="103.371422"><ele>1436.0735</ele><time>2026-07-21T03:56:13.000Z</time></trkpt>
        <trkpt lat="29.578107" lon="103.37142"><ele>1436.8578</ele><time>2026-07-21T03:56:15.000Z</time></trkpt>
        <trkpt lat="29.57809" lon="103.371412"><ele>1438.6322</ele><time>2026-07-21T03:56:23.000Z</time></trkpt>
        <trkpt lat="29.578068" lon="103.371397"><ele>1441.3749</ele><time>2026-07-21T03:56:32.000Z</time></trkpt>
        <trkpt lat="29.578068" lon="103.371396"><ele>1441.7545</ele><time>2026-07-21T03:56:34.000Z</time></trkpt>
        <trkpt lat="29.578061" lon="103.371392"><ele>1443.2212</ele><time>2026-07-21T03:56:38.000Z</time></trkpt>
        <trkpt lat="29.57803" lon="103.371371"><ele>1444.208</ele><time>2026-07-21T03:56:44.000Z</time></trkpt>
        <trkpt lat="29.57803" lon="103.371371"><ele>1444.3552</ele><time>2026-07-21T03:56:46.000Z</time></trkpt>
        <trkpt lat="29.578029" lon="103.37137"><ele>1444.8923</ele><time>2026-07-21T03:56:48.000Z</time></trkpt>
        <trkpt lat="29.578" lon="103.371353"><ele>1446.1906</ele><time>2026-07-21T03:57:04.000Z</time></trkpt>
        <trkpt lat="29.577983" lon="103.371344"><ele>1446.7301</ele><time>2026-07-21T03:57:06.000Z</time></trkpt>
        <trkpt lat="29.577982" lon="103.371343"><ele>1447.3925</ele><time>2026-07-21T03:57:08.000Z</time></trkpt>
        <trkpt lat="29.577965" lon="103.371334"><ele>1447.6575</ele><time>2026-07-21T03:57:14.000Z</time></trkpt>
        <trkpt lat="29.577953" lon="103.371327"><ele>1448.1486</ele><time>2026-07-21T03:57:16.000Z</time></trkpt>
        <trkpt lat="29.577944" lon="103.371322"><ele>1448.2316</ele><time>2026-07-21T03:57:18.000Z</time></trkpt>
        <trkpt lat="29.577935" lon="103.371315"><ele>1448.0896</ele><time>2026-07-21T03:57:20.000Z</time></trkpt>
        <trkpt lat="29.577926" lon="103.371309"><ele>1448.913</ele><time>2026-07-21T03:57:22.000Z</time></trkpt>
        <trkpt lat="29.577918" lon="103.371304"><ele>1449.5095</ele><time>2026-07-21T03:57:24.000Z</time></trkpt>
        <trkpt lat="29.577905" lon="103.371293"><ele>1449.5402</ele><time>2026-07-21T03:57:28.000Z</time></trkpt>
        <trkpt lat="29.577901" lon="103.37129"><ele>1450.7058</ele><time>2026-07-21T03:57:30.000Z</time></trkpt>
        <trkpt lat="29.577891" lon="103.371279"><ele>1451.7997</ele><time>2026-07-21T03:57:32.000Z</time></trkpt>
        <trkpt lat="29.577876" lon="103.371264"><ele>1452.6876</ele><time>2026-07-21T03:57:42.000Z</time></trkpt>
        <trkpt lat="29.577872" lon="103.371257"><ele>1452.7559</ele><time>2026-07-21T03:57:44.000Z</time></trkpt>
        <trkpt lat="29.577866" lon="103.371253"><ele>1453.2344</ele><time>2026-07-21T03:57:46.000Z</time></trkpt>
        <trkpt lat="29.577846" lon="103.371238"><ele>1454.6139</ele><time>2026-07-21T03:57:52.000Z</time></trkpt>
        <trkpt lat="29.577832" lon="103.371227"><ele>1454.5963</ele><time>2026-07-21T03:57:54.000Z</time></trkpt>
        <trkpt lat="29.577831" lon="103.371226"><ele>1454.9244</ele><time>2026-07-21T03:57:56.000Z</time></trkpt>
        <trkpt lat="29.57782" lon="103.371217"><ele>1454.9136</ele><time>2026-07-21T03:58:02.000Z</time></trkpt>
        <trkpt lat="29.577798" lon="103.371198"><ele>1455.3335</ele><time>2026-07-21T03:58:06.000Z</time></trkpt>
        <trkpt lat="29.577789" lon="103.37119"><ele>1456.2212</ele><time>2026-07-21T03:58:08.000Z</time></trkpt>
        <trkpt lat="29.577779" lon="103.371183"><ele>1456.5344</ele><time>2026-07-21T03:58:10.000Z</time></trkpt>
        <trkpt lat="29.577768" lon="103.371175"><ele>1456.5367</ele><time>2026-07-21T03:58:12.000Z</time></trkpt>
        <trkpt lat="29.577761" lon="103.371166"><ele>1456.8541</ele><time>2026-07-21T03:58:14.000Z</time></trkpt>
        <trkpt lat="29.577755" lon="103.371159"><ele>1458.0193</ele><time>2026-07-21T03:58:18.000Z</time></trkpt>
        <trkpt lat="29.577744" lon="103.371149"><ele>1459.027</ele><time>2026-07-21T03:58:24.000Z</time></trkpt>
        <trkpt lat="29.577737" lon="103.371146"><ele>1459.6515</ele><time>2026-07-21T03:58:26.000Z</time></trkpt>
        <trkpt lat="29.577726" lon="103.371139"><ele>1459.5406</ele><time>2026-07-21T03:58:30.000Z</time></trkpt>
        <trkpt lat="29.577719" lon="103.371131"><ele>1459.3115</ele><time>2026-07-21T03:58:38.000Z</time></trkpt>
        <trkpt lat="29.577706" lon="103.371121"><ele>1460.1982</ele><time>2026-07-21T03:58:40.000Z</time></trkpt>
        <trkpt lat="29.5777" lon="103.371114"><ele>1461.8721</ele><time>2026-07-21T03:58:48.000Z</time></trkpt>
        <trkpt lat="29.577692" lon="103.371104"><ele>1463.4933</ele><time>2026-07-21T03:58:52.000Z</time></trkpt>
        <trkpt lat="29.577677" lon="103.371086"><ele>1464.2123</ele><time>2026-07-21T03:58:54.000Z</time></trkpt>
        <trkpt lat="29.577676" lon="103.371085"><ele>1464.7725</ele><time>2026-07-21T03:58:56.000Z</time></trkpt>
        <trkpt lat="29.577668" lon="103.371076"><ele>1465.9678</ele><time>2026-07-21T03:59:00.000Z</time></trkpt>
        <trkpt lat="29.577654" lon="103.371064"><ele>1466.5905</ele><time>2026-07-21T03:59:02.000Z</time></trkpt>
        <trkpt lat="29.577634" lon="103.371048"><ele>1466.6337</ele><time>2026-07-21T03:59:04.000Z</time></trkpt>
        <trkpt lat="29.577612" lon="103.371035"><ele>1466.8988</ele><time>2026-07-21T03:59:06.000Z</time></trkpt>
        <trkpt lat="29.577586" lon="103.371022"><ele>1466.4381</ele><time>2026-07-21T03:59:08.000Z</time></trkpt>
        <trkpt lat="29.577565" lon="103.371013"><ele>1466.5398</ele><time>2026-07-21T03:59:10.000Z</time></trkpt>
        <trkpt lat="29.57755" lon="103.371007"><ele>1466.5288</ele><time>2026-07-21T03:59:12.000Z</time></trkpt>
        <trkpt lat="29.577536" lon="103.371002"><ele>1466.6064</ele><time>2026-07-21T03:59:14.000Z</time></trkpt>
        <trkpt lat="29.577525" lon="103.370999"><ele>1466.6027</ele><time>2026-07-21T03:59:16.000Z</time></trkpt>
        <trkpt lat="29.577511" lon="103.370998"><ele>1466.3678</ele><time>2026-07-21T03:59:18.000Z</time></trkpt>
        <trkpt lat="29.577495" lon="103.371"><ele>1466.3124</ele><time>2026-07-21T03:59:20.000Z</time></trkpt>
        <trkpt lat="29.57748" lon="103.371001"><ele>1466.2096</ele><time>2026-07-21T03:59:22.000Z</time></trkpt>
        <trkpt lat="29.577465" lon="103.370999"><ele>1466.432</ele><time>2026-07-21T03:59:24.000Z</time></trkpt>
        <trkpt lat="29.577457" lon="103.370992"><ele>1466.4442</ele><time>2026-07-21T03:59:26.000Z</time></trkpt>
        <trkpt lat="29.577452" lon="103.370982"><ele>1467.2727</ele><time>2026-07-21T03:59:28.000Z</time></trkpt>
        <trkpt lat="29.577444" lon="103.370969"><ele>1467.6631</ele><time>2026-07-21T03:59:30.000Z</time></trkpt>
        <trkpt lat="29.577435" lon="103.370962"><ele>1467.5383</ele><time>2026-07-21T03:59:32.000Z</time></trkpt>
        <trkpt lat="29.577423" lon="103.370958"><ele>1467.1534</ele><time>2026-07-21T03:59:34.000Z</time></trkpt>
        <trkpt lat="29.577411" lon="103.370959"><ele>1467.4783</ele><time>2026-07-21T03:59:36.000Z</time></trkpt>
        <trkpt lat="29.5774" lon="103.370966"><ele>1467.5604</ele><time>2026-07-21T03:59:38.000Z</time></trkpt>
        <trkpt lat="29.577389" lon="103.370976"><ele>1466.5667</ele><time>2026-07-21T03:59:40.000Z</time></trkpt>
        <trkpt lat="29.57738" lon="103.370986"><ele>1466.4207</ele><time>2026-07-21T03:59:42.000Z</time></trkpt>
        <trkpt lat="29.577373" lon="103.370993"><ele>1466.5848</ele><time>2026-07-21T03:59:44.000Z</time></trkpt>
        <trkpt lat="29.577367" lon="103.370993"><ele>1466.4264</ele><time>2026-07-21T03:59:46.000Z</time></trkpt>
        <trkpt lat="29.577348" lon="103.370995"><ele>1465.4686</ele><time>2026-07-21T03:59:52.000Z</time></trkpt>
        <trkpt lat="29.577343" lon="103.370996"><ele>1465.4946</ele><time>2026-07-21T03:59:54.000Z</time></trkpt>
        <trkpt lat="29.577421" lon="103.370976"><ele>1468.7546</ele><time>2026-07-21T04:00:36.000Z</time></trkpt>
        <trkpt lat="29.577443" lon="103.37097"><ele>1469.0135</ele><time>2026-07-21T04:00:38.000Z</time></trkpt>
        <trkpt lat="29.577444" lon="103.370969"><ele>1468.9481</ele><time>2026-07-21T04:00:40.000Z</time></trkpt>
        <trkpt lat="29.577455" lon="103.370953"><ele>1467.361</ele><time>2026-07-21T04:00:44.000Z</time></trkpt>
        <trkpt lat="29.577468" lon="103.370929"><ele>1468.1229</ele><time>2026-07-21T04:00:46.000Z</time></trkpt>
        <trkpt lat="29.577483" lon="103.370901"><ele>1467.7227</ele><time>2026-07-21T04:00:48.000Z</time></trkpt>
        <trkpt lat="29.577498" lon="103.370876"><ele>1467.2521</ele><time>2026-07-21T04:00:50.000Z</time></trkpt>
        <trkpt lat="29.577511" lon="103.370855"><ele>1466.658</ele><time>2026-07-21T04:00:52.000Z</time></trkpt>
        <trkpt lat="29.577522" lon="103.37084"><ele>1465.2235</ele><time>2026-07-21T04:00:54.000Z</time></trkpt>
        <trkpt lat="29.577528" lon="103.370833"><ele>1465.2012</ele><time>2026-07-21T04:00:56.000Z</time></trkpt>
      </trkseg>
      <trkseg>
        <trkpt lat="29.57755" lon="103.371032"><ele>1469.1135</ele><time>2026-07-21T04:32:43.000Z</time></trkpt>
        <trkpt lat="29.577584" lon="103.371044"><ele>1469.0302</ele><time>2026-07-21T04:32:52.000Z</time></trkpt>
        <trkpt lat="29.577595" lon="103.371042"><ele>1469.2094</ele><time>2026-07-21T04:32:54.000Z</time></trkpt>
        <trkpt lat="29.57761" lon="103.371044"><ele>1468.6909</ele><time>2026-07-21T04:32:56.000Z</time></trkpt>
        <trkpt lat="29.577626" lon="103.37105"><ele>1468.6859</ele><time>2026-07-21T04:32:58.000Z</time></trkpt>
        <trkpt lat="29.577639" lon="103.371056"><ele>1467.9885</ele><time>2026-07-21T04:33:00.000Z</time></trkpt>
        <trkpt lat="29.577647" lon="103.371063"><ele>1467.556</ele><time>2026-07-21T04:33:02.000Z</time></trkpt>
        <trkpt lat="29.577653" lon="103.371069"><ele>1467.5244</ele><time>2026-07-21T04:33:06.000Z</time></trkpt>
        <trkpt lat="29.577666" lon="103.371078"><ele>1466.1085</ele><time>2026-07-21T04:33:12.000Z</time></trkpt>
        <trkpt lat="29.577672" lon="103.371082"><ele>1465.9585</ele><time>2026-07-21T04:33:16.000Z</time></trkpt>
        <trkpt lat="29.577582" lon="103.37103"><ele>1467.8615</ele><time>2026-07-21T04:33:33.000Z</time></trkpt>
        <trkpt lat="29.577564" lon="103.371019"><ele>1468.5155</ele><time>2026-07-21T04:33:35.000Z</time></trkpt>
        <trkpt lat="29.577562" lon="103.371018"><ele>1469.6199</ele><time>2026-07-21T04:33:37.000Z</time></trkpt>
        <trkpt lat="29.57755" lon="103.371001"><ele>1471.0852</ele><time>2026-07-21T04:33:41.000Z</time></trkpt>
        <trkpt lat="29.57754" lon="103.370984"><ele>1471.2853</ele><time>2026-07-21T04:33:43.000Z</time></trkpt>
        <trkpt lat="29.577529" lon="103.370962"><ele>1470.5366</ele><time>2026-07-21T04:33:45.000Z</time></trkpt>
        <trkpt lat="29.577521" lon="103.37094"><ele>1471.6195</ele><time>2026-07-21T04:33:47.000Z</time></trkpt>
        <trkpt lat="29.577514" lon="103.370917"><ele>1471.8011</ele><time>2026-07-21T04:33:49.000Z</time></trkpt>
        <trkpt lat="29.577509" lon="103.370896"><ele>1471.7645</ele><time>2026-07-21T04:33:51.000Z</time></trkpt>
        <trkpt lat="29.577507" lon="103.370875"><ele>1471.9545</ele><time>2026-07-21T04:33:53.000Z</time></trkpt>
        <trkpt lat="29.577504" lon="103.370855"><ele>1471.6863</ele><time>2026-07-21T04:33:55.000Z</time></trkpt>
        <trkpt lat="29.577501" lon="103.370836"><ele>1470.8481</ele><time>2026-07-21T04:33:57.000Z</time></trkpt>
        <trkpt lat="29.577496" lon="103.370813"><ele>1470.2845</ele><time>2026-07-21T04:33:59.000Z</time></trkpt>
        <trkpt lat="29.577491" lon="103.370787"><ele>1470.3716</ele><time>2026-07-21T04:34:01.000Z</time></trkpt>
        <trkpt lat="29.577488" lon="103.370764"><ele>1470.6156</ele><time>2026-07-21T04:34:03.000Z</time></trkpt>
        <trkpt lat="29.577486" lon="103.370745"><ele>1469.9032</ele><time>2026-07-21T04:34:05.000Z</time></trkpt>
        <trkpt lat="29.577485" lon="103.370724"><ele>1470.5166</ele><time>2026-07-21T04:34:07.000Z</time></trkpt>
        <trkpt lat="29.577478" lon="103.370703"><ele>1471.6064</ele><time>2026-07-21T04:34:09.000Z</time></trkpt>
        <trkpt lat="29.577469" lon="103.37069"><ele>1471.8663</ele><time>2026-07-21T04:34:11.000Z</time></trkpt>
        <trkpt lat="29.577463" lon="103.370687"><ele>1472.9678</ele><time>2026-07-21T04:34:13.000Z</time></trkpt>
        <trkpt lat="29.577439" lon="103.370677"><ele>1475.0447</ele><time>2026-07-21T04:34:24.000Z</time></trkpt>
        <trkpt lat="29.577439" lon="103.370677"><ele>1474.3019</ele><time>2026-07-21T04:34:26.000Z</time></trkpt>
        <trkpt lat="29.577435" lon="103.370672"><ele>1473.7538</ele><time>2026-07-21T04:34:28.000Z</time></trkpt>
        <trkpt lat="29.577397" lon="103.370633"><ele>1474.2366</ele><time>2026-07-21T04:34:32.000Z</time></trkpt>
        <trkpt lat="29.577378" lon="103.370612"><ele>1473.2017</ele><time>2026-07-21T04:34:34.000Z</time></trkpt>
        <trkpt lat="29.577363" lon="103.370594"><ele>1472.5713</ele><time>2026-07-21T04:34:36.000Z</time></trkpt>
        <trkpt lat="29.577352" lon="103.370577"><ele>1471.0974</ele><time>2026-07-21T04:34:38.000Z</time></trkpt>
        <trkpt lat="29.577339" lon="103.370557"><ele>1470.4393</ele><time>2026-07-21T04:34:40.000Z</time></trkpt>
        <trkpt lat="29.577331" lon="103.370542"><ele>1470.3002</ele><time>2026-07-21T04:34:42.000Z</time></trkpt>
        <trkpt lat="29.577325" lon="103.370533"><ele>1470.3948</ele><time>2026-07-21T04:34:44.000Z</time></trkpt>
        <trkpt lat="29.577317" lon="103.370521"><ele>1470.2441</ele><time>2026-07-21T04:34:46.000Z</time></trkpt>
        <trkpt lat="29.577306" lon="103.370506"><ele>1469.1849</ele><time>2026-07-21T04:34:48.000Z</time></trkpt>
        <trkpt lat="29.57729" lon="103.370486"><ele>1469.4679</ele><time>2026-07-21T04:34:50.000Z</time></trkpt>
        <trkpt lat="29.577273" lon="103.370469"><ele>1470.4811</ele><time>2026-07-21T04:34:52.000Z</time></trkpt>
        <trkpt lat="29.577256" lon="103.370454"><ele>1470.8523</ele><time>2026-07-21T04:34:54.000Z</time></trkpt>
        <trkpt lat="29.57724" lon="103.37044"><ele>1470.1587</ele><time>2026-07-21T04:34:56.000Z</time></trkpt>
        <trkpt lat="29.577221" lon="103.370423"><ele>1470.4819</ele><time>2026-07-21T04:34:58.000Z</time></trkpt>
        <trkpt lat="29.577207" lon="103.370411"><ele>1471.612</ele><time>2026-07-21T04:35:00.000Z</time></trkpt>
        <trkpt lat="29.577196" lon="103.3704"><ele>1470.9594</ele><time>2026-07-21T04:35:02.000Z</time></trkpt>
        <trkpt lat="29.577189" lon="103.37039"><ele>1470.6567</ele><time>2026-07-21T04:35:04.000Z</time></trkpt>
        <trkpt lat="29.577181" lon="103.370377"><ele>1470.1853</ele><time>2026-07-21T04:35:06.000Z</time></trkpt>
        <trkpt lat="29.577173" lon="103.370362"><ele>1469.7277</ele><time>2026-07-21T04:35:08.000Z</time></trkpt>
        <trkpt lat="29.577165" lon="103.370349"><ele>1468.6461</ele><time>2026-07-21T04:35:10.000Z</time></trkpt>
        <trkpt lat="29.577158" lon="103.370336"><ele>1469.4844</ele><time>2026-07-21T04:35:12.000Z</time></trkpt>
        <trkpt lat="29.57715" lon="103.370325"><ele>1470.1239</ele><time>2026-07-21T04:35:14.000Z</time></trkpt>
        <trkpt lat="29.577139" lon="103.370311"><ele>1470.0408</ele><time>2026-07-21T04:35:16.000Z</time></trkpt>
        <trkpt lat="29.577128" lon="103.370299"><ele>1469.7355</ele><time>2026-07-21T04:35:18.000Z</time></trkpt>
        <trkpt lat="29.57712" lon="103.370289"><ele>1469.4498</ele><time>2026-07-21T04:35:20.000Z</time></trkpt>
        <trkpt lat="29.577111" lon="103.370277"><ele>1470.0391</ele><time>2026-07-21T04:35:22.000Z</time></trkpt>
        <trkpt lat="29.5771" lon="103.37026"><ele>1470.3247</ele><time>2026-07-21T04:35:24.000Z</time></trkpt>
        <trkpt lat="29.577089" lon="103.370243"><ele>1470.0892</ele><time>2026-07-21T04:35:26.000Z</time></trkpt>
        <trkpt lat="29.577079" lon="103.370226"><ele>1469.5446</ele><time>2026-07-21T04:35:28.000Z</time></trkpt>
        <trkpt lat="29.577068" lon="103.370209"><ele>1469.6542</ele><time>2026-07-21T04:35:30.000Z</time></trkpt>
        <trkpt lat="29.577058" lon="103.370193"><ele>1470.575</ele><time>2026-07-21T04:35:32.000Z</time></trkpt>
        <trkpt lat="29.577046" lon="103.370177"><ele>1471.1375</ele><time>2026-07-21T04:35:34.000Z</time></trkpt>
        <trkpt lat="29.577035" lon="103.37016"><ele>1470.7252</ele><time>2026-07-21T04:35:36.000Z</time></trkpt>
        <trkpt lat="29.577023" lon="103.370142"><ele>1470.6475</ele><time>2026-07-21T04:35:38.000Z</time></trkpt>
        <trkpt lat="29.577015" lon="103.370127"><ele>1470.7053</ele><time>2026-07-21T04:35:40.000Z</time></trkpt>
        <trkpt lat="29.577007" lon="103.370113"><ele>1470.0931</ele><time>2026-07-21T04:35:42.000Z</time></trkpt>
        <trkpt lat="29.577" lon="103.370097"><ele>1470.8153</ele><time>2026-07-21T04:35:44.000Z</time></trkpt>
        <trkpt lat="29.576994" lon="103.370081"><ele>1471.0343</ele><time>2026-07-21T04:35:46.000Z</time></trkpt>
        <trkpt lat="29.576989" lon="103.370063"><ele>1471.6342</ele><time>2026-07-21T04:35:48.000Z</time></trkpt>
        <trkpt lat="29.576987" lon="103.370043"><ele>1471.5281</ele><time>2026-07-21T04:35:50.000Z</time></trkpt>
        <trkpt lat="29.576988" lon="103.370025"><ele>1472.4573</ele><time>2026-07-21T04:35:52.000Z</time></trkpt>
        <trkpt lat="29.576991" lon="103.370007"><ele>1473.6068</ele><time>2026-07-21T04:35:54.000Z</time></trkpt>
        <trkpt lat="29.576995" lon="103.369995"><ele>1474.1361</ele><time>2026-07-21T04:35:56.000Z</time></trkpt>
        <trkpt lat="29.577002" lon="103.369982"><ele>1474.0499</ele><time>2026-07-21T04:35:58.000Z</time></trkpt>
        <trkpt lat="29.577007" lon="103.369968"><ele>1474.6295</ele><time>2026-07-21T04:36:00.000Z</time></trkpt>
        <trkpt lat="29.57701" lon="103.369955"><ele>1475.1467</ele><time>2026-07-21T04:36:02.000Z</time></trkpt>
        <trkpt lat="29.577011" lon="103.369939"><ele>1474.8247</ele><time>2026-07-21T04:36:04.000Z</time></trkpt>
        <trkpt lat="29.577009" lon="103.369926"><ele>1475.2001</ele><time>2026-07-21T04:36:06.000Z</time></trkpt>
        <trkpt lat="29.577004" lon="103.369912"><ele>1475.3195</ele><time>2026-07-21T04:36:08.000Z</time></trkpt>
        <trkpt lat="29.576999" lon="103.369897"><ele>1475.609</ele><time>2026-07-21T04:36:10.000Z</time></trkpt>
        <trkpt lat="29.576993" lon="103.369879"><ele>1475.4573</ele><time>2026-07-21T04:36:12.000Z</time></trkpt>
        <trkpt lat="29.576988" lon="103.369859"><ele>1475.5178</ele><time>2026-07-21T04:36:14.000Z</time></trkpt>
        <trkpt lat="29.576986" lon="103.369841"><ele>1475.2672</ele><time>2026-07-21T04:36:16.000Z</time></trkpt>
        <trkpt lat="29.576982" lon="103.369819"><ele>1475.8287</ele><time>2026-07-21T04:36:18.000Z</time></trkpt>
        <trkpt lat="29.576979" lon="103.369798"><ele>1475.2242</ele><time>2026-07-21T04:36:20.000Z</time></trkpt>
        <trkpt lat="29.576979" lon="103.369777"><ele>1474.8242</ele><time>2026-07-21T04:36:22.000Z</time></trkpt>
        <trkpt lat="29.576979" lon="103.369757"><ele>1476.142</ele><time>2026-07-21T04:36:24.000Z</time></trkpt>
        <trkpt lat="29.576979" lon="103.36974"><ele>1475.7316</ele><time>2026-07-21T04:36:26.000Z</time></trkpt>
        <trkpt lat="29.576976" lon="103.369726"><ele>1476.7395</ele><time>2026-07-21T04:36:28.000Z</time></trkpt>
        <trkpt lat="29.576973" lon="103.369715"><ele>1475.3794</ele><time>2026-07-21T04:36:30.000Z</time></trkpt>
        <trkpt lat="29.576967" lon="103.369703"><ele>1475.3607</ele><time>2026-07-21T04:36:32.000Z</time></trkpt>
        <trkpt lat="29.576967" lon="103.369695"><ele>1475.3264</ele><time>2026-07-21T04:36:34.000Z</time></trkpt>
        <trkpt lat="29.576967" lon="103.369659"><ele>1476.0333</ele><time>2026-07-21T04:36:44.000Z</time></trkpt>
        <trkpt lat="29.576967" lon="103.369659"><ele>1476.4364</ele><time>2026-07-21T04:36:46.000Z</time></trkpt>
        <trkpt lat="29.576967" lon="103.369655"><ele>1475.44</ele><time>2026-07-21T04:37:12.000Z</time></trkpt>
        <trkpt lat="29.576973" lon="103.369604"><ele>1474.7882</ele><time>2026-07-21T04:37:16.000Z</time></trkpt>
        <trkpt lat="29.576977" lon="103.36957"><ele>1475.7593</ele><time>2026-07-21T04:37:18.000Z</time></trkpt>
        <trkpt lat="29.576977" lon="103.369567"><ele>1475.0703</ele><time>2026-07-21T04:37:20.000Z</time></trkpt>
        <trkpt lat="29.576978" lon="103.369562"><ele>1475.2278</ele><time>2026-07-21T04:37:22.000Z</time></trkpt>
        <trkpt lat="29.576982" lon="103.369516"><ele>1476.0813</ele><time>2026-07-21T04:37:26.000Z</time></trkpt>
        <trkpt lat="29.576983" lon="103.369493"><ele>1476.525</ele><time>2026-07-21T04:37:28.000Z</time></trkpt>
        <trkpt lat="29.576982" lon="103.369475"><ele>1477.0013</ele><time>2026-07-21T04:37:30.000Z</time></trkpt>
        <trkpt lat="29.576982" lon="103.36946"><ele>1477.4766</ele><time>2026-07-21T04:37:32.000Z</time></trkpt>
        <trkpt lat="29.576979" lon="103.369445"><ele>1477.0846</ele><time>2026-07-21T04:37:34.000Z</time></trkpt>
        <trkpt lat="29.576976" lon="103.369432"><ele>1476.4425</ele><time>2026-07-21T04:37:36.000Z</time></trkpt>
        <trkpt lat="29.576973" lon="103.369427"><ele>1476.7885</ele><time>2026-07-21T04:37:38.000Z</time></trkpt>
        <trkpt lat="29.576952" lon="103.369406"><ele>1475.254</ele><time>2026-07-21T04:37:48.000Z</time></trkpt>
        <trkpt lat="29.576949" lon="103.369392"><ele>1476.8589</ele><time>2026-07-21T04:37:50.000Z</time></trkpt>
        <trkpt lat="29.576947" lon="103.369376"><ele>1477.2964</ele><time>2026-07-21T04:37:52.000Z</time></trkpt>
        <trkpt lat="29.576947" lon="103.369372"><ele>1478.5713</ele><time>2026-07-21T04:37:56.000Z</time></trkpt>
        <trkpt lat="29.576949" lon="103.369358"><ele>1479.3588</ele><time>2026-07-21T04:37:58.000Z</time></trkpt>
        <trkpt lat="29.576951" lon="103.369335"><ele>1478.6843</ele><time>2026-07-21T04:38:00.000Z</time></trkpt>
        <trkpt lat="29.576953" lon="103.369312"><ele>1479.4468</ele><time>2026-07-21T04:38:02.000Z</time></trkpt>
        <trkpt lat="29.576955" lon="103.369296"><ele>1479.8732</ele><time>2026-07-21T04:38:04.000Z</time></trkpt>
        <trkpt lat="29.576955" lon="103.369285"><ele>1480.1736</ele><time>2026-07-21T04:38:06.000Z</time></trkpt>
        <trkpt lat="29.576956" lon="103.369278"><ele>1480.1885</ele><time>2026-07-21T04:38:08.000Z</time></trkpt>
        <trkpt lat="29.576959" lon="103.369251"><ele>1480.9042</ele><time>2026-07-21T04:38:22.000Z</time></trkpt>
        <trkpt lat="29.576958" lon="103.369219"><ele>1481.2582</ele><time>2026-07-21T04:38:26.000Z</time></trkpt>
        <trkpt lat="29.576957" lon="103.3692"><ele>1481.7395</ele><time>2026-07-21T04:38:28.000Z</time></trkpt>
        <trkpt lat="29.576956" lon="103.369199"><ele>1482.774</ele><time>2026-07-21T04:38:30.000Z</time></trkpt>
        <trkpt lat="29.576952" lon="103.369185"><ele>1483.5377</ele><time>2026-07-21T04:38:34.000Z</time></trkpt>
        <trkpt lat="29.576948" lon="103.369164"><ele>1483.4667</ele><time>2026-07-21T04:38:36.000Z</time></trkpt>
        <trkpt lat="29.576945" lon="103.369142"><ele>1483.322</ele><time>2026-07-21T04:38:38.000Z</time></trkpt>
        <trkpt lat="29.576944" lon="103.369117"><ele>1482.9656</ele><time>2026-07-21T04:38:40.000Z</time></trkpt>
        <trkpt lat="29.576944" lon="103.369092"><ele>1483.6252</ele><time>2026-07-21T04:38:42.000Z</time></trkpt>
        <trkpt lat="29.576945" lon="103.36907"><ele>1483.0162</ele><time>2026-07-21T04:38:44.000Z</time></trkpt>
        <trkpt lat="29.576948" lon="103.369047"><ele>1482.9362</ele><time>2026-07-21T04:38:46.000Z</time></trkpt>
        <trkpt lat="29.576951" lon="103.369023"><ele>1483.1031</ele><time>2026-07-21T04:38:48.000Z</time></trkpt>
        <trkpt lat="29.576956" lon="103.369003"><ele>1482.7257</ele><time>2026-07-21T04:38:50.000Z</time></trkpt>
        <trkpt lat="29.57696" lon="103.368984"><ele>1483.1738</ele><time>2026-07-21T04:38:52.000Z</time></trkpt>
        <trkpt lat="29.576962" lon="103.368967"><ele>1481.774</ele><time>2026-07-21T04:38:54.000Z</time></trkpt>
        <trkpt lat="29.576965" lon="103.36895"><ele>1481.8411</ele><time>2026-07-21T04:38:56.000Z</time></trkpt>
        <trkpt lat="29.576967" lon="103.368933"><ele>1481.6294</ele><time>2026-07-21T04:38:58.000Z</time></trkpt>
        <trkpt lat="29.576967" lon="103.368924"><ele>1481.7288</ele><time>2026-07-21T04:39:00.000Z</time></trkpt>
        <trkpt lat="29.576967" lon="103.368915"><ele>1481.5232</ele><time>2026-07-21T04:39:02.000Z</time></trkpt>
        <trkpt lat="29.576965" lon="103.368899"><ele>1480.9601</ele><time>2026-07-21T04:39:04.000Z</time></trkpt>
        <trkpt lat="29.576963" lon="103.368882"><ele>1480.7961</ele><time>2026-07-21T04:39:06.000Z</time></trkpt>
        <trkpt lat="29.576961" lon="103.368869"><ele>1480.7281</ele><time>2026-07-21T04:39:08.000Z</time></trkpt>
        <trkpt lat="29.57696" lon="103.368851"><ele>1480.5472</ele><time>2026-07-21T04:39:10.000Z</time></trkpt>
        <trkpt lat="29.576958" lon="103.36883"><ele>1480.3848</ele><time>2026-07-21T04:39:12.000Z</time></trkpt>
        <trkpt lat="29.576958" lon="103.368806"><ele>1479.8364</ele><time>2026-07-21T04:39:14.000Z</time></trkpt>
        <trkpt lat="29.576959" lon="103.368781"><ele>1479.6193</ele><time>2026-07-21T04:39:16.000Z</time></trkpt>
        <trkpt lat="29.57696" lon="103.368757"><ele>1479.8547</ele><time>2026-07-21T04:39:18.000Z</time></trkpt>
        <trkpt lat="29.576962" lon="103.368738"><ele>1480.5869</ele><time>2026-07-21T04:39:20.000Z</time></trkpt>
        <trkpt lat="29.576963" lon="103.368727"><ele>1480.4497</ele><time>2026-07-21T04:39:22.000Z</time></trkpt>
        <trkpt lat="29.576962" lon="103.368723"><ele>1480.0918</ele><time>2026-07-21T04:39:24.000Z</time></trkpt>
        <trkpt lat="29.576962" lon="103.368697"><ele>1480.7542</ele><time>2026-07-21T04:39:40.000Z</time></trkpt>
        <trkpt lat="29.576962" lon="103.368682"><ele>1480.8474</ele><time>2026-07-21T04:39:42.000Z</time></trkpt>
        <trkpt lat="29.576962" lon="103.368681"><ele>1480.8828</ele><time>2026-07-21T04:39:44.000Z</time></trkpt>
        <trkpt lat="29.576967" lon="103.368651"><ele>1479.994</ele><time>2026-07-21T04:39:48.000Z</time></trkpt>
        <trkpt lat="29.576968" lon="103.368644"><ele>1481.4498</ele><time>2026-07-21T04:39:52.000Z</time></trkpt>
        <trkpt lat="29.576974" lon="103.368625"><ele>1482.7827</ele><time>2026-07-21T04:39:54.000Z</time></trkpt>
        <trkpt lat="29.576982" lon="103.368593"><ele>1482.9427</ele><time>2026-07-21T04:39:56.000Z</time></trkpt>
        <trkpt lat="29.57699" lon="103.368557"><ele>1483.3618</ele><time>2026-07-21T04:39:58.000Z</time></trkpt>
        <trkpt lat="29.576998" lon="103.368525"><ele>1482.7848</ele><time>2026-07-21T04:40:00.000Z</time></trkpt>
        <trkpt lat="29.577005" lon="103.368498"><ele>1483.4529</ele><time>2026-07-21T04:40:02.000Z</time></trkpt>
        <trkpt lat="29.577012" lon="103.368473"><ele>1484.3485</ele><time>2026-07-21T04:40:04.000Z</time></trkpt>
        <trkpt lat="29.577018" lon="103.368448"><ele>1484.8458</ele><time>2026-07-21T04:40:06.000Z</time></trkpt>
        <trkpt lat="29.577023" lon="103.368429"><ele>1485.3129</ele><time>2026-07-21T04:40:08.000Z</time></trkpt>
        <trkpt lat="29.57703" lon="103.368408"><ele>1485.9303</ele><time>2026-07-21T04:40:10.000Z</time></trkpt>
        <trkpt lat="29.577035" lon="103.368385"><ele>1486.2275</ele><time>2026-07-21T04:40:12.000Z</time></trkpt>
        <trkpt lat="29.577039" lon="103.368367"><ele>1487.2361</ele><time>2026-07-21T04:40:14.000Z</time></trkpt>
        <trkpt lat="29.577042" lon="103.36835"><ele>1487.9872</ele><time>2026-07-21T04:40:16.000Z</time></trkpt>
        <trkpt lat="29.577045" lon="103.368333"><ele>1489.6299</ele><time>2026-07-21T04:40:18.000Z</time></trkpt>
        <trkpt lat="29.577046" lon="103.368315"><ele>1490.1647</ele><time>2026-07-21T04:40:20.000Z</time></trkpt>
        <trkpt lat="29.577047" lon="103.368299"><ele>1490.5662</ele><time>2026-07-21T04:40:22.000Z</time></trkpt>
        <trkpt lat="29.577048" lon="103.36828"><ele>1490.1805</ele><time>2026-07-21T04:40:24.000Z</time></trkpt>
        <trkpt lat="29.57705" lon="103.368262"><ele>1489.421</ele><time>2026-07-21T04:40:26.000Z</time></trkpt>
        <trkpt lat="29.57705" lon="103.368247"><ele>1489.3202</ele><time>2026-07-21T04:40:28.000Z</time></trkpt>
        <trkpt lat="29.577051" lon="103.368232"><ele>1489.6553</ele><time>2026-07-21T04:40:30.000Z</time></trkpt>
        <trkpt lat="29.577053" lon="103.368222"><ele>1490.0388</ele><time>2026-07-21T04:40:32.000Z</time></trkpt>
        <trkpt lat="29.577054" lon="103.368212"><ele>1489.9508</ele><time>2026-07-21T04:40:34.000Z</time></trkpt>
        <trkpt lat="29.577054" lon="103.368199"><ele>1490.458</ele><time>2026-07-21T04:40:36.000Z</time></trkpt>
        <trkpt lat="29.577055" lon="103.36818"><ele>1490.997</ele><time>2026-07-21T04:40:40.000Z</time></trkpt>
        <trkpt lat="29.577055" lon="103.36817"><ele>1491.9186</ele><time>2026-07-21T04:40:42.000Z</time></trkpt>
        <trkpt lat="29.577056" lon="103.36816"><ele>1491.7505</ele><time>2026-07-21T04:40:44.000Z</time></trkpt>
        <trkpt lat="29.577058" lon="103.368141"><ele>1494.3145</ele><time>2026-07-21T04:40:48.000Z</time></trkpt>
        <trkpt lat="29.577057" lon="103.368135"><ele>1495.3049</ele><time>2026-07-21T04:40:50.000Z</time></trkpt>
        <trkpt lat="29.577058" lon="103.368118"><ele>1495.6954</ele><time>2026-07-21T04:40:54.000Z</time></trkpt>
        <trkpt lat="29.577059" lon="103.368089"><ele>1494.9691</ele><time>2026-07-21T04:40:56.000Z</time></trkpt>
        <trkpt lat="29.57706" lon="103.368088"><ele>1495.1375</ele><time>2026-07-21T04:40:58.000Z</time></trkpt>
        <trkpt lat="29.577065" lon="103.368081"><ele>1496.625</ele><time>2026-07-21T04:41:04.000Z</time></trkpt>
        <trkpt lat="29.57708" lon="103.368058"><ele>1498.5316</ele><time>2026-07-21T04:41:12.000Z</time></trkpt>
        <trkpt lat="29.577087" lon="103.368046"><ele>1498.9922</ele><time>2026-07-21T04:41:14.000Z</time></trkpt>
        <trkpt lat="29.577088" lon="103.368046"><ele>1499.859</ele><time>2026-07-21T04:41:16.000Z</time></trkpt>
        <trkpt lat="29.577112" lon="103.368048"><ele>1500.3253</ele><time>2026-07-21T04:41:26.000Z</time></trkpt>
        <trkpt lat="29.577119" lon="103.368048"><ele>1500.5083</ele><time>2026-07-21T04:41:28.000Z</time></trkpt>
        <trkpt lat="29.57712" lon="103.368045"><ele>1500.6663</ele><time>2026-07-21T04:41:30.000Z</time></trkpt>
        <trkpt lat="29.577134" lon="103.368022"><ele>1501.33</ele><time>2026-07-21T04:41:36.000Z</time></trkpt>
        <trkpt lat="29.577138" lon="103.368016"><ele>1501.8888</ele><time>2026-07-21T04:41:38.000Z</time></trkpt>
        <trkpt lat="29.577141" lon="103.368012"><ele>1503.1344</ele><time>2026-07-21T04:41:40.000Z</time></trkpt>
        <trkpt lat="29.577162" lon="103.367987"><ele>1505.2983</ele><time>2026-07-21T04:41:48.000Z</time></trkpt>
        <trkpt lat="29.577162" lon="103.367987"><ele>1505.8589</ele><time>2026-07-21T04:41:50.000Z</time></trkpt>
        <trkpt lat="29.577162" lon="103.367986"><ele>1505.9055</ele><time>2026-07-21T04:41:52.000Z</time></trkpt>
        <trkpt lat="29.577178" lon="103.367946"><ele>1502.9973</ele><time>2026-07-21T04:41:58.000Z</time></trkpt>
        <trkpt lat="29.577178" lon="103.367946"><ele>1503.3403</ele><time>2026-07-21T04:42:00.000Z</time></trkpt>
        <trkpt lat="29.577178" lon="103.367944"><ele>1504.0736</ele><time>2026-07-21T04:42:02.000Z</time></trkpt>
        <trkpt lat="29.577205" lon="103.367903"><ele>1505.461</ele><time>2026-07-21T04:42:08.000Z</time></trkpt>
        <trkpt lat="29.577205" lon="103.367903"><ele>1506.0188</ele><time>2026-07-21T04:42:10.000Z</time></trkpt>
        <trkpt lat="29.577205" lon="103.367903"><ele>1506.6826</ele><time>2026-07-21T04:42:12.000Z</time></trkpt>
        <trkpt lat="29.577227" lon="103.367864"><ele>1509.292</ele><time>2026-07-21T04:42:27.000Z</time></trkpt>
        <trkpt lat="29.577241" lon="103.367837"><ele>1509.6904</ele><time>2026-07-21T04:42:29.000Z</time></trkpt>
        <trkpt lat="29.577249" lon="103.367823"><ele>1510.666</ele><time>2026-07-21T04:42:31.000Z</time></trkpt>
        <trkpt lat="29.577249" lon="103.367822"><ele>1510.8582</ele><time>2026-07-21T04:42:33.000Z</time></trkpt>
        <trkpt lat="29.577257" lon="103.3678"><ele>1511.5555</ele><time>2026-07-21T04:42:41.000Z</time></trkpt>
        <trkpt lat="29.577262" lon="103.367785"><ele>1511.6211</ele><time>2026-07-21T04:42:43.000Z</time></trkpt>
        <trkpt lat="29.577262" lon="103.367784"><ele>1511.3484</ele><time>2026-07-21T04:42:45.000Z</time></trkpt>
        <trkpt lat="29.577257" lon="103.367746"><ele>1512.9178</ele><time>2026-07-21T04:42:51.000Z</time></trkpt>
        <trkpt lat="29.577253" lon="103.367727"><ele>1513.648</ele><time>2026-07-21T04:42:53.000Z</time></trkpt>
        <trkpt lat="29.577248" lon="103.367708"><ele>1514.5839</ele><time>2026-07-21T04:42:55.000Z</time></trkpt>
        <trkpt lat="29.577244" lon="103.367692"><ele>1514.5874</ele><time>2026-07-21T04:42:57.000Z</time></trkpt>
        <trkpt lat="29.577242" lon="103.36768"><ele>1514.5007</ele><time>2026-07-21T04:42:59.000Z</time></trkpt>
        <trkpt lat="29.57724" lon="103.367669"><ele>1514.3446</ele><time>2026-07-21T04:43:01.000Z</time></trkpt>
        <trkpt lat="29.577239" lon="103.367654"><ele>1514.2556</ele><time>2026-07-21T04:43:05.000Z</time></trkpt>
        <trkpt lat="29.577235" lon="103.36765"><ele>1513.7303</ele><time>2026-07-21T04:43:07.000Z</time></trkpt>
        <trkpt lat="29.5772" lon="103.367621"><ele>1511.6742</ele><time>2026-07-21T04:43:13.000Z</time></trkpt>
        <trkpt lat="29.577185" lon="103.367609"><ele>1511.0416</ele><time>2026-07-21T04:43:15.000Z</time></trkpt>
        <trkpt lat="29.577171" lon="103.367595"><ele>1510.2488</ele><time>2026-07-21T04:43:17.000Z</time></trkpt>
        <trkpt lat="29.577158" lon="103.367581"><ele>1509.0603</ele><time>2026-07-21T04:43:19.000Z</time></trkpt>
        <trkpt lat="29.577147" lon="103.367565"><ele>1509.6603</ele><time>2026-07-21T04:43:21.000Z</time></trkpt>
        <trkpt lat="29.577138" lon="103.36755"><ele>1510.7109</ele><time>2026-07-21T04:43:23.000Z</time></trkpt>
        <trkpt lat="29.577127" lon="103.367535"><ele>1510.6914</ele><time>2026-07-21T04:43:25.000Z</time></trkpt>
        <trkpt lat="29.577115" lon="103.367519"><ele>1510.7664</ele><time>2026-07-21T04:43:27.000Z</time></trkpt>
        <trkpt lat="29.577101" lon="103.367502"><ele>1510.0471</ele><time>2026-07-21T04:43:29.000Z</time></trkpt>
        <trkpt lat="29.57709" lon="103.367488"><ele>1510.8087</ele><time>2026-07-21T04:43:31.000Z</time></trkpt>
        <trkpt lat="29.577081" lon="103.367479"><ele>1511.3575</ele><time>2026-07-21T04:43:33.000Z</time></trkpt>
        <trkpt lat="29.577073" lon="103.36747"><ele>1510.6376</ele><time>2026-07-21T04:43:35.000Z</time></trkpt>
        <trkpt lat="29.577066" lon="103.367462"><ele>1510.5941</ele><time>2026-07-21T04:43:37.000Z</time></trkpt>
        <trkpt lat="29.577058" lon="103.367453"><ele>1510.2023</ele><time>2026-07-21T04:43:39.000Z</time></trkpt>
        <trkpt lat="29.577049" lon="103.367441"><ele>1509.6475</ele><time>2026-07-21T04:43:41.000Z</time></trkpt>
        <trkpt lat="29.57704" lon="103.36743"><ele>1509.763</ele><time>2026-07-21T04:43:43.000Z</time></trkpt>
        <trkpt lat="29.577032" lon="103.36742"><ele>1509.426</ele><time>2026-07-21T04:43:45.000Z</time></trkpt>
        <trkpt lat="29.577023" lon="103.367409"><ele>1508.8478</ele><time>2026-07-21T04:43:47.000Z</time></trkpt>
        <trkpt lat="29.577015" lon="103.367401"><ele>1508.3768</ele><time>2026-07-21T04:43:49.000Z</time></trkpt>
        <trkpt lat="29.577007" lon="103.367394"><ele>1507.9384</ele><time>2026-07-21T04:43:51.000Z</time></trkpt>
        <trkpt lat="29.576999" lon="103.367387"><ele>1507.3108</ele><time>2026-07-21T04:43:53.000Z</time></trkpt>
        <trkpt lat="29.57699" lon="103.367378"><ele>1506.9323</ele><time>2026-07-21T04:43:55.000Z</time></trkpt>
        <trkpt lat="29.576981" lon="103.367369"><ele>1506.899</ele><time>2026-07-21T04:43:57.000Z</time></trkpt>
        <trkpt lat="29.576971" lon="103.367359"><ele>1506.963</ele><time>2026-07-21T04:43:59.000Z</time></trkpt>
        <trkpt lat="29.576962" lon="103.367347"><ele>1507.0076</ele><time>2026-07-21T04:44:01.000Z</time></trkpt>
        <trkpt lat="29.576953" lon="103.367333"><ele>1508.2018</ele><time>2026-07-21T04:44:03.000Z</time></trkpt>
        <trkpt lat="29.576942" lon="103.367317"><ele>1508.9473</ele><time>2026-07-21T04:44:05.000Z</time></trkpt>
        <trkpt lat="29.576931" lon="103.367303"><ele>1509.5585</ele><time>2026-07-21T04:44:07.000Z</time></trkpt>
        <trkpt lat="29.57692" lon="103.367292"><ele>1509.8806</ele><time>2026-07-21T04:44:09.000Z</time></trkpt>
        <trkpt lat="29.576908" lon="103.367281"><ele>1510.0994</ele><time>2026-07-21T04:44:11.000Z</time></trkpt>
        <trkpt lat="29.576896" lon="103.367271"><ele>1509.3358</ele><time>2026-07-21T04:44:13.000Z</time></trkpt>
        <trkpt lat="29.576885" lon="103.36726"><ele>1509.753</ele><time>2026-07-21T04:44:15.000Z</time></trkpt>
        <trkpt lat="29.576869" lon="103.367251"><ele>1509.5172</ele><time>2026-07-21T04:44:17.000Z</time></trkpt>
        <trkpt lat="29.576852" lon="103.367242"><ele>1507.6711</ele><time>2026-07-21T04:44:19.000Z</time></trkpt>
        <trkpt lat="29.576832" lon="103.367232"><ele>1508.0077</ele><time>2026-07-21T04:44:21.000Z</time></trkpt>
        <trkpt lat="29.576816" lon="103.367225"><ele>1506.2585</ele><time>2026-07-21T04:44:23.000Z</time></trkpt>
        <trkpt lat="29.5768" lon="103.367216"><ele>1504.165</ele><time>2026-07-21T04:44:25.000Z</time></trkpt>
        <trkpt lat="29.576786" lon="103.367204"><ele>1504.4956</ele><time>2026-07-21T04:44:27.000Z</time></trkpt>
        <trkpt lat="29.576772" lon="103.367189"><ele>1504.7599</ele><time>2026-07-21T04:44:29.000Z</time></trkpt>
        <trkpt lat="29.57676" lon="103.367173"><ele>1504.7047</ele><time>2026-07-21T04:44:31.000Z</time></trkpt>
        <trkpt lat="29.57675" lon="103.36716"><ele>1504.7998</ele><time>2026-07-21T04:44:33.000Z</time></trkpt>
        <trkpt lat="29.57674" lon="103.367146"><ele>1504.5775</ele><time>2026-07-21T04:44:35.000Z</time></trkpt>
        <trkpt lat="29.576729" lon="103.36713"><ele>1505.0634</ele><time>2026-07-21T04:44:37.000Z</time></trkpt>
        <trkpt lat="29.57672" lon="103.367116"><ele>1504.7192</ele><time>2026-07-21T04:44:39.000Z</time></trkpt>
        <trkpt lat="29.576713" lon="103.367103"><ele>1504.6473</ele><time>2026-07-21T04:44:41.000Z</time></trkpt>
        <trkpt lat="29.576704" lon="103.367087"><ele>1505.3405</ele><time>2026-07-21T04:44:43.000Z</time></trkpt>
        <trkpt lat="29.576695" lon="103.367076"><ele>1505.6884</ele><time>2026-07-21T04:44:45.000Z</time></trkpt>
        <trkpt lat="29.576685" lon="103.367058"><ele>1505.5066</ele><time>2026-07-21T04:44:47.000Z</time></trkpt>
        <trkpt lat="29.576676" lon="103.367041"><ele>1505.2133</ele><time>2026-07-21T04:44:49.000Z</time></trkpt>
        <trkpt lat="29.576669" lon="103.367024"><ele>1504.6761</ele><time>2026-07-21T04:44:51.000Z</time></trkpt>
        <trkpt lat="29.576663" lon="103.367009"><ele>1504.2385</ele><time>2026-07-21T04:44:53.000Z</time></trkpt>
        <trkpt lat="29.576655" lon="103.36699"><ele>1505.3811</ele><time>2026-07-21T04:44:55.000Z</time></trkpt>
        <trkpt lat="29.576647" lon="103.366971"><ele>1505.5537</ele><time>2026-07-21T04:44:57.000Z</time></trkpt>
        <trkpt lat="29.576638" lon="103.36695"><ele>1505.563</ele><time>2026-07-21T04:44:59.000Z</time></trkpt>
        <trkpt lat="29.576629" lon="103.366931"><ele>1505.2179</ele><time>2026-07-21T04:45:01.000Z</time></trkpt>
        <trkpt lat="29.576616" lon="103.366912"><ele>1504.7557</ele><time>2026-07-21T04:45:03.000Z</time></trkpt>
        <trkpt lat="29.576602" lon="103.366893"><ele>1504.29</ele><time>2026-07-21T04:45:05.000Z</time></trkpt>
        <trkpt lat="29.576588" lon="103.366875"><ele>1505.1624</ele><time>2026-07-21T04:45:07.000Z</time></trkpt>
        <trkpt lat="29.576575" lon="103.366858"><ele>1505.5388</ele><time>2026-07-21T04:45:09.000Z</time></trkpt>
        <trkpt lat="29.576561" lon="103.366843"><ele>1505.8337</ele><time>2026-07-21T04:45:11.000Z</time></trkpt>
        <trkpt lat="29.576546" lon="103.36683"><ele>1506.0714</ele><time>2026-07-21T04:45:13.000Z</time></trkpt>
        <trkpt lat="29.576531" lon="103.366817"><ele>1505.8965</ele><time>2026-07-21T04:45:15.000Z</time></trkpt>
        <trkpt lat="29.576515" lon="103.366807"><ele>1506.3855</ele><time>2026-07-21T04:45:17.000Z</time></trkpt>
        <trkpt lat="29.5765" lon="103.366797"><ele>1505.8085</ele><time>2026-07-21T04:45:19.000Z</time></trkpt>
        <trkpt lat="29.576481" lon="103.366784"><ele>1504.9979</ele><time>2026-07-21T04:45:21.000Z</time></trkpt>
        <trkpt lat="29.576466" lon="103.366769"><ele>1504.694</ele><time>2026-07-21T04:45:23.000Z</time></trkpt>
        <trkpt lat="29.576455" lon="103.366755"><ele>1504.7372</ele><time>2026-07-21T04:45:25.000Z</time></trkpt>
        <trkpt lat="29.576442" lon="103.366738"><ele>1503.8514</ele><time>2026-07-21T04:45:27.000Z</time></trkpt>
        <trkpt lat="29.576429" lon="103.366721"><ele>1503.5796</ele><time>2026-07-21T04:45:29.000Z</time></trkpt>
        <trkpt lat="29.576413" lon="103.366701"><ele>1503.1722</ele><time>2026-07-21T04:45:31.000Z</time></trkpt>
        <trkpt lat="29.576398" lon="103.366682"><ele>1503.3324</ele><time>2026-07-21T04:45:33.000Z</time></trkpt>
        <trkpt lat="29.576381" lon="103.366659"><ele>1502.8994</ele><time>2026-07-21T04:45:35.000Z</time></trkpt>
        <trkpt lat="29.576365" lon="103.366638"><ele>1503.0106</ele><time>2026-07-21T04:45:37.000Z</time></trkpt>
        <trkpt lat="29.576352" lon="103.366618"><ele>1502.6676</ele><time>2026-07-21T04:45:39.000Z</time></trkpt>
        <trkpt lat="29.576342" lon="103.3666"><ele>1502.5181</ele><time>2026-07-21T04:45:41.000Z</time></trkpt>
        <trkpt lat="29.576335" lon="103.366582"><ele>1502.2094</ele><time>2026-07-21T04:45:43.000Z</time></trkpt>
        <trkpt lat="29.576329" lon="103.366563"><ele>1502.3894</ele><time>2026-07-21T04:45:45.000Z</time></trkpt>
        <trkpt lat="29.576325" lon="103.366543"><ele>1502.7968</ele><time>2026-07-21T04:45:47.000Z</time></trkpt>
        <trkpt lat="29.57632" lon="103.366524"><ele>1502.9058</ele><time>2026-07-21T04:45:49.000Z</time></trkpt>
        <trkpt lat="29.576314" lon="103.366507"><ele>1502.9283</ele><time>2026-07-21T04:45:51.000Z</time></trkpt>
        <trkpt lat="29.576306" lon="103.36649"><ele>1501.6891</ele><time>2026-07-21T04:45:53.000Z</time></trkpt>
        <trkpt lat="29.576301" lon="103.366478"><ele>1501.464</ele><time>2026-07-21T04:45:55.000Z</time></trkpt>
        <trkpt lat="29.576299" lon="103.366467"><ele>1500.9445</ele><time>2026-07-21T04:45:57.000Z</time></trkpt>
        <trkpt lat="29.576295" lon="103.36645"><ele>1501.3174</ele><time>2026-07-21T04:46:01.000Z</time></trkpt>
        <trkpt lat="29.576291" lon="103.366439"><ele>1500.4395</ele><time>2026-07-21T04:46:03.000Z</time></trkpt>
        <trkpt lat="29.576285" lon="103.366426"><ele>1499.389</ele><time>2026-07-21T04:46:05.000Z</time></trkpt>
        <trkpt lat="29.576278" lon="103.366411"><ele>1499.8267</ele><time>2026-07-21T04:46:07.000Z</time></trkpt>
        <trkpt lat="29.576274" lon="103.366399"><ele>1499.6565</ele><time>2026-07-21T04:46:09.000Z</time></trkpt>
        <trkpt lat="29.576269" lon="103.366381"><ele>1499.4657</ele><time>2026-07-21T04:46:11.000Z</time></trkpt>
        <trkpt lat="29.576265" lon="103.366364"><ele>1499.1162</ele><time>2026-07-21T04:46:13.000Z</time></trkpt>
        <trkpt lat="29.576261" lon="103.36635"><ele>1499.3143</ele><time>2026-07-21T04:46:15.000Z</time></trkpt>
        <trkpt lat="29.576255" lon="103.366333"><ele>1499.2743</ele><time>2026-07-21T04:46:17.000Z</time></trkpt>
        <trkpt lat="29.576249" lon="103.366317"><ele>1498.7006</ele><time>2026-07-21T04:46:19.000Z</time></trkpt>
        <trkpt lat="29.576242" lon="103.3663"><ele>1498.5023</ele><time>2026-07-21T04:46:21.000Z</time></trkpt>
        <trkpt lat="29.576238" lon="103.366283"><ele>1497.8552</ele><time>2026-07-21T04:46:23.000Z</time></trkpt>
        <trkpt lat="29.576237" lon="103.366267"><ele>1497.286</ele><time>2026-07-21T04:46:25.000Z</time></trkpt>
        <trkpt lat="29.576238" lon="103.366251"><ele>1495.8898</ele><time>2026-07-21T04:46:27.000Z</time></trkpt>
        <trkpt lat="29.576242" lon="103.366241"><ele>1496.3136</ele><time>2026-07-21T04:46:29.000Z</time></trkpt>
        <trkpt lat="29.576248" lon="103.366231"><ele>1496.7625</ele><time>2026-07-21T04:46:31.000Z</time></trkpt>
        <trkpt lat="29.576255" lon="103.366219"><ele>1496.6952</ele><time>2026-07-21T04:46:33.000Z</time></trkpt>
        <trkpt lat="29.57626" lon="103.366207"><ele>1496.1018</ele><time>2026-07-21T04:46:35.000Z</time></trkpt>
        <trkpt lat="29.576265" lon="103.366193"><ele>1495.5594</ele><time>2026-07-21T04:46:37.000Z</time></trkpt>
        <trkpt lat="29.576268" lon="103.366182"><ele>1494.903</ele><time>2026-07-21T04:46:39.000Z</time></trkpt>
        <trkpt lat="29.57627" lon="103.366171"><ele>1494.7031</ele><time>2026-07-21T04:46:41.000Z</time></trkpt>
        <trkpt lat="29.576271" lon="103.366159"><ele>1494.0201</ele><time>2026-07-21T04:46:43.000Z</time></trkpt>
        <trkpt lat="29.57627" lon="103.366147"><ele>1493.7938</ele><time>2026-07-21T04:46:45.000Z</time></trkpt>
        <trkpt lat="29.576264" lon="103.366134"><ele>1492.9801</ele><time>2026-07-21T04:46:47.000Z</time></trkpt>
        <trkpt lat="29.576255" lon="103.366122"><ele>1491.5199</ele><time>2026-07-21T04:46:49.000Z</time></trkpt>
        <trkpt lat="29.576245" lon="103.366112"><ele>1490.1149</ele><time>2026-07-21T04:46:51.000Z</time></trkpt>
        <trkpt lat="29.576234" lon="103.366103"><ele>1488.7279</ele><time>2026-07-21T04:46:53.000Z</time></trkpt>
        <trkpt lat="29.576223" lon="103.366094"><ele>1487.752</ele><time>2026-07-21T04:46:55.000Z</time></trkpt>
        <trkpt lat="29.576217" lon="103.366086"><ele>1487.2744</ele><time>2026-07-21T04:46:57.000Z</time></trkpt>
        <trkpt lat="29.576209" lon="103.366076"><ele>1486.287</ele><time>2026-07-21T04:46:59.000Z</time></trkpt>
        <trkpt lat="29.576203" lon="103.366065"><ele>1485.7677</ele><time>2026-07-21T04:47:01.000Z</time></trkpt>
        <trkpt lat="29.576197" lon="103.366056"><ele>1485.696</ele><time>2026-07-21T04:47:03.000Z</time></trkpt>
        <trkpt lat="29.576191" lon="103.366047"><ele>1485.5271</ele><time>2026-07-21T04:47:05.000Z</time></trkpt>
        <trkpt lat="29.576184" lon="103.366038"><ele>1485.1127</ele><time>2026-07-21T04:47:07.000Z</time></trkpt>
        <trkpt lat="29.576174" lon="103.366025"><ele>1484.7517</ele><time>2026-07-21T04:47:09.000Z</time></trkpt>
        <trkpt lat="29.576164" lon="103.366012"><ele>1483.4752</ele><time>2026-07-21T04:47:11.000Z</time></trkpt>
        <trkpt lat="29.576154" lon="103.366001"><ele>1482.3127</ele><time>2026-07-21T04:47:13.000Z</time></trkpt>
        <trkpt lat="29.576144" lon="103.365992"><ele>1481.4739</ele><time>2026-07-21T04:47:15.000Z</time></trkpt>
        <trkpt lat="29.576134" lon="103.365983"><ele>1480.8322</ele><time>2026-07-21T04:47:17.000Z</time></trkpt>
        <trkpt lat="29.576125" lon="103.365974"><ele>1479.7954</ele><time>2026-07-21T04:47:19.000Z</time></trkpt>
        <trkpt lat="29.576118" lon="103.365963"><ele>1479.7944</ele><time>2026-07-21T04:47:21.000Z</time></trkpt>
        <trkpt lat="29.576113" lon="103.365952"><ele>1479.2572</ele><time>2026-07-21T04:47:23.000Z</time></trkpt>
        <trkpt lat="29.576108" lon="103.365943"><ele>1478.9514</ele><time>2026-07-21T04:47:25.000Z</time></trkpt>
        <trkpt lat="29.576097" lon="103.365921"><ele>1478.723</ele><time>2026-07-21T04:47:29.000Z</time></trkpt>
        <trkpt lat="29.576089" lon="103.365912"><ele>1478.0046</ele><time>2026-07-21T04:47:31.000Z</time></trkpt>
        <trkpt lat="29.576077" lon="103.365904"><ele>1477.3804</ele><time>2026-07-21T04:47:33.000Z</time></trkpt>
        <trkpt lat="29.576063" lon="103.365898"><ele>1476.3755</ele><time>2026-07-21T04:47:35.000Z</time></trkpt>
        <trkpt lat="29.576048" lon="103.365893"><ele>1475.2345</ele><time>2026-07-21T04:47:37.000Z</time></trkpt>
        <trkpt lat="29.576028" lon="103.365887"><ele>1474.1868</ele><time>2026-07-21T04:47:39.000Z</time></trkpt>
        <trkpt lat="29.576015" lon="103.365883"><ele>1473.8492</ele><time>2026-07-21T04:47:41.000Z</time></trkpt>
        <trkpt lat="29.576005" lon="103.365878"><ele>1473.7382</ele><time>2026-07-21T04:47:43.000Z</time></trkpt>
        <trkpt lat="29.575997" lon="103.365873"><ele>1473.212</ele><time>2026-07-21T04:47:45.000Z</time></trkpt>
        <trkpt lat="29.575987" lon="103.365864"><ele>1473.3978</ele><time>2026-07-21T04:47:47.000Z</time></trkpt>
        <trkpt lat="29.575975" lon="103.365854"><ele>1474.0111</ele><time>2026-07-21T04:47:49.000Z</time></trkpt>
        <trkpt lat="29.575961" lon="103.365844"><ele>1473.5089</ele><time>2026-07-21T04:47:51.000Z</time></trkpt>
        <trkpt lat="29.57595" lon="103.365837"><ele>1473.182</ele><time>2026-07-21T04:47:53.000Z</time></trkpt>
        <trkpt lat="29.575939" lon="103.365832"><ele>1473.5833</ele><time>2026-07-21T04:47:55.000Z</time></trkpt>
        <trkpt lat="29.575928" lon="103.365826"><ele>1473.0411</ele><time>2026-07-21T04:47:57.000Z</time></trkpt>
        <trkpt lat="29.575911" lon="103.365819"><ele>1471.9529</ele><time>2026-07-21T04:47:59.000Z</time></trkpt>
        <trkpt lat="29.575895" lon="103.365812"><ele>1471.5486</ele><time>2026-07-21T04:48:01.000Z</time></trkpt>
        <trkpt lat="29.575882" lon="103.365806"><ele>1471.8698</ele><time>2026-07-21T04:48:03.000Z</time></trkpt>
        <trkpt lat="29.57587" lon="103.3658"><ele>1471.8156</ele><time>2026-07-21T04:48:05.000Z</time></trkpt>
        <trkpt lat="29.575855" lon="103.365794"><ele>1471.0271</ele><time>2026-07-21T04:48:07.000Z</time></trkpt>
        <trkpt lat="29.575844" lon="103.365789"><ele>1471.2863</ele><time>2026-07-21T04:48:09.000Z</time></trkpt>
        <trkpt lat="29.57583" lon="103.36578"><ele>1470.5463</ele><time>2026-07-21T04:48:11.000Z</time></trkpt>
        <trkpt lat="29.575817" lon="103.365767"><ele>1470.5492</ele><time>2026-07-21T04:48:13.000Z</time></trkpt>
        <trkpt lat="29.575805" lon="103.365753"><ele>1470.8107</ele><time>2026-07-21T04:48:15.000Z</time></trkpt>
        <trkpt lat="29.575795" lon="103.365742"><ele>1469.266</ele><time>2026-07-21T04:48:17.000Z</time></trkpt>
        <trkpt lat="29.575783" lon="103.365728"><ele>1468.4376</ele><time>2026-07-21T04:48:19.000Z</time></trkpt>
        <trkpt lat="29.575772" lon="103.365716"><ele>1468.5995</ele><time>2026-07-21T04:48:21.000Z</time></trkpt>
        <trkpt lat="29.57576" lon="103.365706"><ele>1468.7949</ele><time>2026-07-21T04:48:23.000Z</time></trkpt>
        <trkpt lat="29.575748" lon="103.365694"><ele>1468.5936</ele><time>2026-07-21T04:48:25.000Z</time></trkpt>
        <trkpt lat="29.575735" lon="103.365683"><ele>1469.5126</ele><time>2026-07-21T04:48:27.000Z</time></trkpt>
        <trkpt lat="29.575724" lon="103.365673"><ele>1468.8627</ele><time>2026-07-21T04:48:29.000Z</time></trkpt>
        <trkpt lat="29.575713" lon="103.365665"><ele>1468.3004</ele><time>2026-07-21T04:48:31.000Z</time></trkpt>
        <trkpt lat="29.575708" lon="103.365661"><ele>1468.7229</ele><time>2026-07-21T04:48:33.000Z</time></trkpt>
        <trkpt lat="29.575695" lon="103.365649"><ele>1468.4608</ele><time>2026-07-21T04:48:39.000Z</time></trkpt>
        <trkpt lat="29.57568" lon="103.365634"><ele>1468.9297</ele><time>2026-07-21T04:48:41.000Z</time></trkpt>
        <trkpt lat="29.575678" lon="103.365633"><ele>1469.0782</ele><time>2026-07-21T04:48:43.000Z</time></trkpt>
        <trkpt lat="29.575662" lon="103.365622"><ele>1467.5797</ele><time>2026-07-21T04:48:47.000Z</time></trkpt>
        <trkpt lat="29.575649" lon="103.365607"><ele>1468.2965</ele><time>2026-07-21T04:48:49.000Z</time></trkpt>
        <trkpt lat="29.575636" lon="103.365588"><ele>1467.8374</ele><time>2026-07-21T04:48:51.000Z</time></trkpt>
        <trkpt lat="29.575624" lon="103.365569"><ele>1468.1127</ele><time>2026-07-21T04:48:53.000Z</time></trkpt>
        <trkpt lat="29.575614" lon="103.365558"><ele>1468.8013</ele><time>2026-07-21T04:48:55.000Z</time></trkpt>
        <trkpt lat="29.575605" lon="103.36555"><ele>1469.8324</ele><time>2026-07-21T04:48:57.000Z</time></trkpt>
        <trkpt lat="29.575597" lon="103.365548"><ele>1469.821</ele><time>2026-07-21T04:48:59.000Z</time></trkpt>
        <trkpt lat="29.575581" lon="103.365543"><ele>1470.3148</ele><time>2026-07-21T04:49:03.000Z</time></trkpt>
        <trkpt lat="29.575574" lon="103.365542"><ele>1469.1567</ele><time>2026-07-21T04:49:05.000Z</time></trkpt>
        <trkpt lat="29.575567" lon="103.365539"><ele>1469.007</ele><time>2026-07-21T04:49:07.000Z</time></trkpt>
        <trkpt lat="29.575549" lon="103.36553"><ele>1469.3462</ele><time>2026-07-21T04:49:13.000Z</time></trkpt>
        <trkpt lat="29.575546" lon="103.365527"><ele>1469.2247</ele><time>2026-07-21T04:49:15.000Z</time></trkpt>
        <trkpt lat="29.57554" lon="103.365522"><ele>1468.3853</ele><time>2026-07-21T04:49:17.000Z</time></trkpt>
        <trkpt lat="29.575522" lon="103.365505"><ele>1468.3267</ele><time>2026-07-21T04:49:21.000Z</time></trkpt>
        <trkpt lat="29.575522" lon="103.365505"><ele>1468.2612</ele><time>2026-07-21T04:49:23.000Z</time></trkpt>
        <trkpt lat="29.575503" lon="103.365483"><ele>1469.3367</ele><time>2026-07-21T04:49:33.000Z</time></trkpt>
        <trkpt lat="29.575497" lon="103.365478"><ele>1469.3806</ele><time>2026-07-21T04:49:35.000Z</time></trkpt>
        <trkpt lat="29.575491" lon="103.365477"><ele>1469.8959</ele><time>2026-07-21T04:49:37.000Z</time></trkpt>
        <trkpt lat="29.575472" lon="103.365469"><ele>1470.253</ele><time>2026-07-21T04:49:43.000Z</time></trkpt>
        <trkpt lat="29.575468" lon="103.365466"><ele>1470.2317</ele><time>2026-07-21T04:49:45.000Z</time></trkpt>
        <trkpt lat="29.575461" lon="103.365465"><ele>1471.03</ele><time>2026-07-21T04:49:47.000Z</time></trkpt>
        <trkpt lat="29.575427" lon="103.365459"><ele>1471.1821</ele><time>2026-07-21T04:49:51.000Z</time></trkpt>
        <trkpt lat="29.575427" lon="103.365459"><ele>1471.2574</ele><time>2026-07-21T04:49:53.000Z</time></trkpt>
        <trkpt lat="29.575426" lon="103.365459"><ele>1472.0906</ele><time>2026-07-21T04:49:55.000Z</time></trkpt>
        <trkpt lat="29.575398" lon="103.365447"><ele>1476.5477</ele><time>2026-07-21T04:50:15.000Z</time></trkpt>
        <trkpt lat="29.575397" lon="103.365446"><ele>1476.7394</ele><time>2026-07-21T04:50:17.000Z</time></trkpt>
        <trkpt lat="29.575392" lon="103.365439"><ele>1476.9044</ele><time>2026-07-21T04:50:19.000Z</time></trkpt>
        <trkpt lat="29.575369" lon="103.36541"><ele>1479.3212</ele><time>2026-07-21T04:50:25.000Z</time></trkpt>
        <trkpt lat="29.575369" lon="103.36541"><ele>1479.6251</ele><time>2026-07-21T04:50:27.000Z</time></trkpt>
        <trkpt lat="29.575368" lon="103.365409"><ele>1481.5991</ele><time>2026-07-21T04:50:29.000Z</time></trkpt>
        <trkpt lat="29.575341" lon="103.365394"><ele>1482.5673</ele><time>2026-07-21T04:50:37.000Z</time></trkpt>
        <trkpt lat="29.575334" lon="103.36539"><ele>1482.6141</ele><time>2026-07-21T04:50:39.000Z</time></trkpt>
        <trkpt lat="29.575328" lon="103.365386"><ele>1482.763</ele><time>2026-07-21T04:50:41.000Z</time></trkpt>
        <trkpt lat="29.575311" lon="103.365374"><ele>1484.2744</ele><time>2026-07-21T04:50:45.000Z</time></trkpt>
        <trkpt lat="29.575304" lon="103.365368"><ele>1484.9088</ele><time>2026-07-21T04:50:47.000Z</time></trkpt>
        <trkpt lat="29.575298" lon="103.365364"><ele>1484.2584</ele><time>2026-07-21T04:50:49.000Z</time></trkpt>
        <trkpt lat="29.575276" lon="103.365352"><ele>1486.6519</ele><time>2026-07-21T04:51:18.000Z</time></trkpt>
        <trkpt lat="29.575264" lon="103.365346"><ele>1487.4679</ele><time>2026-07-21T04:51:21.000Z</time></trkpt>
        <trkpt lat="29.575258" lon="103.365344"><ele>1488.4891</ele><time>2026-07-21T04:51:23.000Z</time></trkpt>
        <trkpt lat="29.57524" lon="103.365335"><ele>1487.8539</ele><time>2026-07-21T04:51:25.000Z</time></trkpt>
        <trkpt lat="29.575236" lon="103.365331"><ele>1488.6934</ele><time>2026-07-21T04:51:31.000Z</time></trkpt>
        <trkpt lat="29.57522" lon="103.365318"><ele>1488.859</ele><time>2026-07-21T04:51:33.000Z</time></trkpt>
        <trkpt lat="29.575207" lon="103.365312"><ele>1489.2571</ele><time>2026-07-21T04:51:39.000Z</time></trkpt>
        <trkpt lat="29.57518" lon="103.365302"><ele>1489.9757</ele><time>2026-07-21T04:51:41.000Z</time></trkpt>
        <trkpt lat="29.575178" lon="103.365302"><ele>1490.6582</ele><time>2026-07-21T04:51:43.000Z</time></trkpt>
        <trkpt lat="29.575178" lon="103.365302"><ele>1491.2013</ele><time>2026-07-21T04:51:45.000Z</time></trkpt>
        <trkpt lat="29.57519" lon="103.365264"><ele>1495.2028</ele><time>2026-07-21T04:52:13.000Z</time></trkpt>
        <trkpt lat="29.57519" lon="103.365258"><ele>1496.1301</ele><time>2026-07-21T04:52:15.000Z</time></trkpt>
        <trkpt lat="29.575186" lon="103.365239"><ele>1496.5916</ele><time>2026-07-21T04:52:17.000Z</time></trkpt>
        <trkpt lat="29.575181" lon="103.365226"><ele>1497.4742</ele><time>2026-07-21T04:52:23.000Z</time></trkpt>
        <trkpt lat="29.575177" lon="103.365216"><ele>1498.7609</ele><time>2026-07-21T04:52:25.000Z</time></trkpt>
        <trkpt lat="29.57517" lon="103.365207"><ele>1498.6979</ele><time>2026-07-21T04:52:27.000Z</time></trkpt>
        <trkpt lat="29.575158" lon="103.365195"><ele>1498.567</ele><time>2026-07-21T04:52:31.000Z</time></trkpt>
        <trkpt lat="29.575148" lon="103.365187"><ele>1497.5765</ele><time>2026-07-21T04:52:33.000Z</time></trkpt>
        <trkpt lat="29.575138" lon="103.365178"><ele>1498.5366</ele><time>2026-07-21T04:52:35.000Z</time></trkpt>
        <trkpt lat="29.575132" lon="103.365172"><ele>1499.2074</ele><time>2026-07-21T04:52:37.000Z</time></trkpt>
        <trkpt lat="29.575124" lon="103.365165"><ele>1499.56</ele><time>2026-07-21T04:52:39.000Z</time></trkpt>
        <trkpt lat="29.575113" lon="103.365153"><ele>1499.7748</ele><time>2026-07-21T04:52:41.000Z</time></trkpt>
        <trkpt lat="29.575104" lon="103.365143"><ele>1500.6631</ele><time>2026-07-21T04:52:43.000Z</time></trkpt>
        <trkpt lat="29.575093" lon="103.365132"><ele>1500.9642</ele><time>2026-07-21T04:52:45.000Z</time></trkpt>
        <trkpt lat="29.57508" lon="103.365119"><ele>1500.9232</ele><time>2026-07-21T04:52:47.000Z</time></trkpt>
        <trkpt lat="29.575069" lon="103.365107"><ele>1500.9805</ele><time>2026-07-21T04:52:49.000Z</time></trkpt>
        <trkpt lat="29.575057" lon="103.365091"><ele>1500.7657</ele><time>2026-07-21T04:52:51.000Z</time></trkpt>
        <trkpt lat="29.575047" lon="103.365074"><ele>1501.145</ele><time>2026-07-21T04:52:53.000Z</time></trkpt>
        <trkpt lat="29.575039" lon="103.365057"><ele>1501.4817</ele><time>2026-07-21T04:52:55.000Z</time></trkpt>
        <trkpt lat="29.575031" lon="103.36504"><ele>1502.1036</ele><time>2026-07-21T04:52:57.000Z</time></trkpt>
        <trkpt lat="29.575025" lon="103.365023"><ele>1502.495</ele><time>2026-07-21T04:52:59.000Z</time></trkpt>
        <trkpt lat="29.57502" lon="103.365005"><ele>1503.1903</ele><time>2026-07-21T04:53:01.000Z</time></trkpt>
        <trkpt lat="29.575015" lon="103.364986"><ele>1503.7404</ele><time>2026-07-21T04:53:03.000Z</time></trkpt>
        <trkpt lat="29.57501" lon="103.364969"><ele>1502.8446</ele><time>2026-07-21T04:53:05.000Z</time></trkpt>
        <trkpt lat="29.575006" lon="103.364955"><ele>1503.6923</ele><time>2026-07-21T04:53:07.000Z</time></trkpt>
        <trkpt lat="29.575005" lon="103.364947"><ele>1504.8076</ele><time>2026-07-21T04:53:09.000Z</time></trkpt>
        <trkpt lat="29.575003" lon="103.364934"><ele>1506.103</ele><time>2026-07-21T04:53:13.000Z</time></trkpt>
        <trkpt lat="29.575001" lon="103.36492"><ele>1507.2529</ele><time>2026-07-21T04:53:17.000Z</time></trkpt>
        <trkpt lat="29.575" lon="103.364904"><ele>1508.9473</ele><time>2026-07-21T04:53:21.000Z</time></trkpt>
        <trkpt lat="29.575001" lon="103.364896"><ele>1509.9596</ele><time>2026-07-21T04:53:23.000Z</time></trkpt>
        <trkpt lat="29.574998" lon="103.364879"><ele>1510.7618</ele><time>2026-07-21T04:53:25.000Z</time></trkpt>
        <trkpt lat="29.574992" lon="103.364862"><ele>1509.3403</ele><time>2026-07-21T04:53:31.000Z</time></trkpt>
        <trkpt lat="29.574985" lon="103.364847"><ele>1509.4272</ele><time>2026-07-21T04:53:33.000Z</time></trkpt>
        <trkpt lat="29.574977" lon="103.364834"><ele>1510.5831</ele><time>2026-07-21T04:53:35.000Z</time></trkpt>
        <trkpt lat="29.574968" lon="103.364821"><ele>1510.9166</ele><time>2026-07-21T04:53:37.000Z</time></trkpt>
        <trkpt lat="29.574963" lon="103.36481"><ele>1511.6038</ele><time>2026-07-21T04:53:39.000Z</time></trkpt>
        <trkpt lat="29.574959" lon="103.364801"><ele>1512.7074</ele><time>2026-07-21T04:53:41.000Z</time></trkpt>
        <trkpt lat="29.574952" lon="103.364791"><ele>1513.53</ele><time>2026-07-21T04:53:49.000Z</time></trkpt>
        <trkpt lat="29.574944" lon="103.364782"><ele>1514.6973</ele><time>2026-07-21T04:54:01.000Z</time></trkpt>
        <trkpt lat="29.574939" lon="103.36478"><ele>1514.4615</ele><time>2026-07-21T04:54:03.000Z</time></trkpt>
        <trkpt lat="29.574914" lon="103.364773"><ele>1516.0529</ele><time>2026-07-21T04:54:07.000Z</time></trkpt>
        <trkpt lat="29.574914" lon="103.364773"><ele>1516.7036</ele><time>2026-07-21T04:54:09.000Z</time></trkpt>
        <trkpt lat="29.57491" lon="103.364767"><ele>1518.9574</ele><time>2026-07-21T04:54:14.000Z</time></trkpt>
        <trkpt lat="29.57489" lon="103.364737"><ele>1518.9015</ele><time>2026-07-21T04:54:20.000Z</time></trkpt>
        <trkpt lat="29.57489" lon="103.364737"><ele>1519.154</ele><time>2026-07-21T04:54:22.000Z</time></trkpt>
        <trkpt lat="29.574889" lon="103.364735"><ele>1519.3484</ele><time>2026-07-21T04:54:24.000Z</time></trkpt>
        <trkpt lat="29.574877" lon="103.364707"><ele>1523.8145</ele><time>2026-07-21T04:54:34.000Z</time></trkpt>
        <trkpt lat="29.574873" lon="103.364701"><ele>1525.227</ele><time>2026-07-21T04:54:36.000Z</time></trkpt>
        <trkpt lat="29.574869" lon="103.364694"><ele>1525.6417</ele><time>2026-07-21T04:54:38.000Z</time></trkpt>
        <trkpt lat="29.57486" lon="103.364671"><ele>1526.9963</ele><time>2026-07-21T04:54:57.000Z</time></trkpt>
        <trkpt lat="29.574853" lon="103.364639"><ele>1529.9329</ele><time>2026-07-21T04:55:12.000Z</time></trkpt>
        <trkpt lat="29.574855" lon="103.364634"><ele>1530.423</ele><time>2026-07-21T04:55:14.000Z</time></trkpt>
        <trkpt lat="29.574853" lon="103.36463"><ele>1530.7316</ele><time>2026-07-21T04:55:16.000Z</time></trkpt>
        <trkpt lat="29.574841" lon="103.364603"><ele>1531.6438</ele><time>2026-07-21T04:55:24.000Z</time></trkpt>
        <trkpt lat="29.574838" lon="103.364597"><ele>1531.8177</ele><time>2026-07-21T04:55:26.000Z</time></trkpt>
        <trkpt lat="29.574832" lon="103.364591"><ele>1531.3583</ele><time>2026-07-21T04:55:28.000Z</time></trkpt>
        <trkpt lat="29.574818" lon="103.364578"><ele>1530.6067</ele><time>2026-07-21T04:55:34.000Z</time></trkpt>
        <trkpt lat="29.574816" lon="103.364572"><ele>1530.3778</ele><time>2026-07-21T04:55:38.000Z</time></trkpt>
        <trkpt lat="29.57481" lon="103.364566"><ele>1530.4192</ele><time>2026-07-21T04:55:50.000Z</time></trkpt>
        <trkpt lat="29.574785" lon="103.364535"><ele>1532.5543</ele><time>2026-07-21T04:56:10.000Z</time></trkpt>
        <trkpt lat="29.574752" lon="103.364507"><ele>1536.2552</ele><time>2026-07-21T04:56:25.000Z</time></trkpt>
        <trkpt lat="29.574733" lon="103.364492"><ele>1540.3326</ele><time>2026-07-21T04:56:35.000Z</time></trkpt>
        <trkpt lat="29.574731" lon="103.36449"><ele>1539.7299</ele><time>2026-07-21T04:56:37.000Z</time></trkpt>
        <trkpt lat="29.574725" lon="103.364486"><ele>1539.1809</ele><time>2026-07-21T04:56:53.000Z</time></trkpt>
        <trkpt lat="29.574707" lon="103.364466"><ele>1540.9639</ele><time>2026-07-21T04:57:01.000Z</time></trkpt>
        <trkpt lat="29.574705" lon="103.36446"><ele>1542.3527</ele><time>2026-07-21T04:57:03.000Z</time></trkpt>
        <trkpt lat="29.574707" lon="103.364454"><ele>1542.0391</ele><time>2026-07-21T04:57:05.000Z</time></trkpt>
        <trkpt lat="29.574715" lon="103.364426"><ele>1542.3562</ele><time>2026-07-21T04:57:09.000Z</time></trkpt>
        <trkpt lat="29.574715" lon="103.364425"><ele>1543.9193</ele><time>2026-07-21T04:57:11.000Z</time></trkpt>
        <trkpt lat="29.574722" lon="103.36441"><ele>1544.635</ele><time>2026-07-21T04:57:15.000Z</time></trkpt>
        <trkpt lat="29.574727" lon="103.364391"><ele>1544.207</ele><time>2026-07-21T04:57:17.000Z</time></trkpt>
        <trkpt lat="29.574727" lon="103.36437"><ele>1545.0157</ele><time>2026-07-21T04:57:19.000Z</time></trkpt>
        <trkpt lat="29.574723" lon="103.364345"><ele>1544.3446</ele><time>2026-07-21T04:57:21.000Z</time></trkpt>
        <trkpt lat="29.574717" lon="103.364324"><ele>1544.708</ele><time>2026-07-21T04:57:23.000Z</time></trkpt>
        <trkpt lat="29.574709" lon="103.364303"><ele>1545.3691</ele><time>2026-07-21T04:57:25.000Z</time></trkpt>
        <trkpt lat="29.5747" lon="103.364284"><ele>1545.275</ele><time>2026-07-21T04:57:27.000Z</time></trkpt>
        <trkpt lat="29.57469" lon="103.364268"><ele>1544.9536</ele><time>2026-07-21T04:57:29.000Z</time></trkpt>
        <trkpt lat="29.574677" lon="103.364251"><ele>1544.5167</ele><time>2026-07-21T04:57:31.000Z</time></trkpt>
        <trkpt lat="29.574663" lon="103.364237"><ele>1544.6935</ele><time>2026-07-21T04:57:33.000Z</time></trkpt>
        <trkpt lat="29.574648" lon="103.364223"><ele>1544.2819</ele><time>2026-07-21T04:57:35.000Z</time></trkpt>
        <trkpt lat="29.574636" lon="103.364214"><ele>1545.1643</ele><time>2026-07-21T04:57:37.000Z</time></trkpt>
        <trkpt lat="29.574627" lon="103.364206"><ele>1545.9619</ele><time>2026-07-21T04:57:39.000Z</time></trkpt>
        <trkpt lat="29.574615" lon="103.364198"><ele>1546.6564</ele><time>2026-07-21T04:57:41.000Z</time></trkpt>
        <trkpt lat="29.574604" lon="103.36419"><ele>1547.4137</ele><time>2026-07-21T04:57:43.000Z</time></trkpt>
        <trkpt lat="29.574591" lon="103.364182"><ele>1546.7067</ele><time>2026-07-21T04:57:45.000Z</time></trkpt>
        <trkpt lat="29.574581" lon="103.364175"><ele>1547.4861</ele><time>2026-07-21T04:57:47.000Z</time></trkpt>
        <trkpt lat="29.574571" lon="103.364169"><ele>1547.4915</ele><time>2026-07-21T04:57:49.000Z</time></trkpt>
        <trkpt lat="29.574563" lon="103.364164"><ele>1548.3041</ele><time>2026-07-21T04:57:51.000Z</time></trkpt>
        <trkpt lat="29.574554" lon="103.364159"><ele>1548.5067</ele><time>2026-07-21T04:57:53.000Z</time></trkpt>
        <trkpt lat="29.574541" lon="103.364153"><ele>1548.5621</ele><time>2026-07-21T04:57:55.000Z</time></trkpt>
        <trkpt lat="29.574528" lon="103.364145"><ele>1549.3208</ele><time>2026-07-21T04:57:57.000Z</time></trkpt>
        <trkpt lat="29.574519" lon="103.364136"><ele>1550.2578</ele><time>2026-07-21T04:57:59.000Z</time></trkpt>
        <trkpt lat="29.574509" lon="103.364123"><ele>1550.2242</ele><time>2026-07-21T04:58:01.000Z</time></trkpt>
        <trkpt lat="29.5745" lon="103.364106"><ele>1550.2208</ele><time>2026-07-21T04:58:03.000Z</time></trkpt>
        <trkpt lat="29.574493" lon="103.364089"><ele>1550.5801</ele><time>2026-07-21T04:58:05.000Z</time></trkpt>
        <trkpt lat="29.574487" lon="103.364072"><ele>1550.962</ele><time>2026-07-21T04:58:07.000Z</time></trkpt>
        <trkpt lat="29.574481" lon="103.364055"><ele>1550.747</ele><time>2026-07-21T04:58:09.000Z</time></trkpt>
        <trkpt lat="29.574479" lon="103.364046"><ele>1552.5145</ele><time>2026-07-21T04:58:11.000Z</time></trkpt>
        <trkpt lat="29.574476" lon="103.364033"><ele>1552.7079</ele><time>2026-07-21T04:58:13.000Z</time></trkpt>
        <trkpt lat="29.574473" lon="103.36402"><ele>1552.0668</ele><time>2026-07-21T04:58:15.000Z</time></trkpt>
        <trkpt lat="29.574473" lon="103.364008"><ele>1552.5172</ele><time>2026-07-21T04:58:17.000Z</time></trkpt>
        <trkpt lat="29.574474" lon="103.363999"><ele>1553.2935</ele><time>2026-07-21T04:58:19.000Z</time></trkpt>
        <trkpt lat="29.574476" lon="103.363976"><ele>1554.2032</ele><time>2026-07-21T04:58:23.000Z</time></trkpt>
        <trkpt lat="29.574477" lon="103.363965"><ele>1554.1453</ele><time>2026-07-21T04:58:25.000Z</time></trkpt>
        <trkpt lat="29.574477" lon="103.363952"><ele>1555.2286</ele><time>2026-07-21T04:58:27.000Z</time></trkpt>
        <trkpt lat="29.574475" lon="103.363938"><ele>1556.393</ele><time>2026-07-21T04:58:29.000Z</time></trkpt>
        <trkpt lat="29.574472" lon="103.363929"><ele>1557.178</ele><time>2026-07-21T04:58:31.000Z</time></trkpt>
        <trkpt lat="29.574467" lon="103.363919"><ele>1557.4163</ele><time>2026-07-21T04:58:35.000Z</time></trkpt>
        <trkpt lat="29.574463" lon="103.363905"><ele>1558.4106</ele><time>2026-07-21T04:58:49.000Z</time></trkpt>
        <trkpt lat="29.574461" lon="103.363897"><ele>1559.08</ele><time>2026-07-21T04:58:51.000Z</time></trkpt>
        <trkpt lat="29.57446" lon="103.363882"><ele>1561.0586</ele><time>2026-07-21T04:58:55.000Z</time></trkpt>
        <trkpt lat="29.574458" lon="103.363865"><ele>1562.2764</ele><time>2026-07-21T04:58:59.000Z</time></trkpt>
        <trkpt lat="29.574455" lon="103.363859"><ele>1562.1881</ele><time>2026-07-21T04:59:01.000Z</time></trkpt>
        <trkpt lat="29.574447" lon="103.363844"><ele>1562.9127</ele><time>2026-07-21T04:59:05.000Z</time></trkpt>
        <trkpt lat="29.574439" lon="103.363829"><ele>1562.4833</ele><time>2026-07-21T04:59:07.000Z</time></trkpt>
        <trkpt lat="29.574438" lon="103.363827"><ele>1562.009</ele><time>2026-07-21T04:59:09.000Z</time></trkpt>
        <trkpt lat="29.574432" lon="103.36381"><ele>1563.3608</ele><time>2026-07-21T04:59:15.000Z</time></trkpt>
        <trkpt lat="29.574426" lon="103.363792"><ele>1565.0504</ele><time>2026-07-21T04:59:19.000Z</time></trkpt>
        <trkpt lat="29.574427" lon="103.363789"><ele>1564.8453</ele><time>2026-07-21T04:59:21.000Z</time></trkpt>
        <trkpt lat="29.574435" lon="103.363772"><ele>1566.6512</ele><time>2026-07-21T04:59:27.000Z</time></trkpt>
        <trkpt lat="29.574443" lon="103.363757"><ele>1566.5975</ele><time>2026-07-21T04:59:31.000Z</time></trkpt>
        <trkpt lat="29.574447" lon="103.363755"><ele>1567.1893</ele><time>2026-07-21T04:59:33.000Z</time></trkpt>
        <trkpt lat="29.574461" lon="103.363747"><ele>1566.9761</ele><time>2026-07-21T04:59:37.000Z</time></trkpt>
        <trkpt lat="29.574473" lon="103.363737"><ele>1569.3064</ele><time>2026-07-21T04:59:41.000Z</time></trkpt>
        <trkpt lat="29.574477" lon="103.363737"><ele>1570.25</ele><time>2026-07-21T04:59:43.000Z</time></trkpt>
        <trkpt lat="29.574494" lon="103.363737"><ele>1575.6174</ele><time>2026-07-21T05:00:02.000Z</time></trkpt>
        <trkpt lat="29.574505" lon="103.363738"><ele>1576.8936</ele><time>2026-07-21T05:00:06.000Z</time></trkpt>
        <trkpt lat="29.574509" lon="103.363738"><ele>1577.5712</ele><time>2026-07-21T05:00:08.000Z</time></trkpt>
        <trkpt lat="29.574525" lon="103.363737"><ele>1579.9767</ele><time>2026-07-21T05:00:16.000Z</time></trkpt>
        <trkpt lat="29.574536" lon="103.363737"><ele>1580.6761</ele><time>2026-07-21T05:00:20.000Z</time></trkpt>
        <trkpt lat="29.574544" lon="103.363737"><ele>1581.145</ele><time>2026-07-21T05:00:22.000Z</time></trkpt>
        <trkpt lat="29.574568" lon="103.363735"><ele>1580.689</ele><time>2026-07-21T05:00:26.000Z</time></trkpt>
        <trkpt lat="29.574568" lon="103.363735"><ele>1579.501</ele><time>2026-07-21T05:00:28.000Z</time></trkpt>
        <trkpt lat="29.574579" lon="103.363732"><ele>1578.3141</ele><time>2026-07-21T05:00:32.000Z</time></trkpt>
        <trkpt lat="29.57461" lon="103.363724"><ele>1579.0055</ele><time>2026-07-21T05:00:36.000Z</time></trkpt>
        <trkpt lat="29.574623" lon="103.363719"><ele>1578.3138</ele><time>2026-07-21T05:00:38.000Z</time></trkpt>
        <trkpt lat="29.574635" lon="103.363713"><ele>1577.8357</ele><time>2026-07-21T05:00:40.000Z</time></trkpt>
        <trkpt lat="29.574642" lon="103.363706"><ele>1576.8242</ele><time>2026-07-21T05:00:42.000Z</time></trkpt>
        <trkpt lat="29.574648" lon="103.363695"><ele>1576.1599</ele><time>2026-07-21T05:00:46.000Z</time></trkpt>
        <trkpt lat="29.574652" lon="103.363685"><ele>1575.1979</ele><time>2026-07-21T05:00:52.000Z</time></trkpt>
        <trkpt lat="29.574655" lon="103.363672"><ele>1574.4026</ele><time>2026-07-21T05:00:58.000Z</time></trkpt>
        <trkpt lat="29.57466" lon="103.363658"><ele>1575.199</ele><time>2026-07-21T05:01:02.000Z</time></trkpt>
        <trkpt lat="29.574661" lon="103.363651"><ele>1575.7899</ele><time>2026-07-21T05:01:06.000Z</time></trkpt>
        <trkpt lat="29.57466" lon="103.363635"><ele>1577.1957</ele><time>2026-07-21T05:01:26.000Z</time></trkpt>
        <trkpt lat="29.574658" lon="103.363613"><ele>1577.5721</ele><time>2026-07-21T05:01:28.000Z</time></trkpt>
        <trkpt lat="29.574658" lon="103.363611"><ele>1578.1093</ele><time>2026-07-21T05:01:30.000Z</time></trkpt>
        <trkpt lat="29.574659" lon="103.363593"><ele>1578.215</ele><time>2026-07-21T05:01:36.000Z</time></trkpt>
        <trkpt lat="29.574661" lon="103.36356"><ele>1578.4172</ele><time>2026-07-21T05:01:40.000Z</time></trkpt>
        <trkpt lat="29.574661" lon="103.36356"><ele>1578.1514</ele><time>2026-07-21T05:01:42.000Z</time></trkpt>
        <trkpt lat="29.574661" lon="103.363557"><ele>1577.8209</ele><time>2026-07-21T05:01:44.000Z</time></trkpt>
        <trkpt lat="29.574659" lon="103.363524"><ele>1575.6943</ele><time>2026-07-21T05:01:50.000Z</time></trkpt>
        <trkpt lat="29.574659" lon="103.363524"><ele>1575.234</ele><time>2026-07-21T05:01:52.000Z</time></trkpt>
        <trkpt lat="29.574659" lon="103.363523"><ele>1576.2129</ele><time>2026-07-21T05:02:00.000Z</time></trkpt>
        <trkpt lat="29.574649" lon="103.363468"><ele>1576.6375</ele><time>2026-07-21T05:02:08.000Z</time></trkpt>
        <trkpt lat="29.574649" lon="103.363468"><ele>1576.972</ele><time>2026-07-21T05:02:10.000Z</time></trkpt>
        <trkpt lat="29.574643" lon="103.363437"><ele>1576.0513</ele><time>2026-07-21T05:02:12.000Z</time></trkpt>
        <trkpt lat="29.574642" lon="103.363434"><ele>1576.3292</ele><time>2026-07-21T05:02:14.000Z</time></trkpt>
        <trkpt lat="29.574641" lon="103.363429"><ele>1576.8445</ele><time>2026-07-21T05:02:16.000Z</time></trkpt>
        <trkpt lat="29.574634" lon="103.363384"><ele>1576.8828</ele><time>2026-07-21T05:02:20.000Z</time></trkpt>
        <trkpt lat="29.574632" lon="103.363362"><ele>1577.2458</ele><time>2026-07-21T05:02:22.000Z</time></trkpt>
        <trkpt lat="29.574632" lon="103.363347"><ele>1578.3219</ele><time>2026-07-21T05:02:24.000Z</time></trkpt>
        <trkpt lat="29.574633" lon="103.363334"><ele>1578.4559</ele><time>2026-07-21T05:02:26.000Z</time></trkpt>
        <trkpt lat="29.574634" lon="103.363325"><ele>1579.1713</ele><time>2026-07-21T05:02:28.000Z</time></trkpt>
        <trkpt lat="29.574636" lon="103.363306"><ele>1579.9064</ele><time>2026-07-21T05:02:34.000Z</time></trkpt>
        <trkpt lat="29.574637" lon="103.363299"><ele>1580.8928</ele><time>2026-07-21T05:02:36.000Z</time></trkpt>
        <trkpt lat="29.574636" lon="103.363292"><ele>1581.3273</ele><time>2026-07-21T05:02:38.000Z</time></trkpt>
        <trkpt lat="29.574633" lon="103.363267"><ele>1582.0867</ele><time>2026-07-21T05:02:44.000Z</time></trkpt>
        <trkpt lat="29.574634" lon="103.363259"><ele>1582.0894</ele><time>2026-07-21T05:02:46.000Z</time></trkpt>
        <trkpt lat="29.574635" lon="103.363244"><ele>1582.6233</ele><time>2026-07-21T05:02:48.000Z</time></trkpt>
        <trkpt lat="29.574635" lon="103.363233"><ele>1582.9885</ele><time>2026-07-21T05:02:54.000Z</time></trkpt>
        <trkpt lat="29.574635" lon="103.363224"><ele>1583.3787</ele><time>2026-07-21T05:02:56.000Z</time></trkpt>
        <trkpt lat="29.574632" lon="103.363208"><ele>1583.061</ele><time>2026-07-21T05:03:00.000Z</time></trkpt>
        <trkpt lat="29.574627" lon="103.363194"><ele>1583.4204</ele><time>2026-07-21T05:03:04.000Z</time></trkpt>
        <trkpt lat="29.574627" lon="103.363189"><ele>1584.3632</ele><time>2026-07-21T05:03:06.000Z</time></trkpt>
        <trkpt lat="29.574632" lon="103.363171"><ele>1587.0203</ele><time>2026-07-21T05:03:12.000Z</time></trkpt>
        <trkpt lat="29.574638" lon="103.363162"><ele>1589.5354</ele><time>2026-07-21T05:03:18.000Z</time></trkpt>
        <trkpt lat="29.574638" lon="103.363157"><ele>1591.2816</ele><time>2026-07-21T05:03:24.000Z</time></trkpt>
        <trkpt lat="29.574639" lon="103.36312"><ele>1591.6992</ele><time>2026-07-21T05:03:29.000Z</time></trkpt>
        <trkpt lat="29.574639" lon="103.36312"><ele>1592.0735</ele><time>2026-07-21T05:03:31.000Z</time></trkpt>
        <trkpt lat="29.574619" lon="103.363102"><ele>1591.514</ele><time>2026-07-21T05:03:33.000Z</time></trkpt>
        <trkpt lat="29.574618" lon="103.363098"><ele>1592.1101</ele><time>2026-07-21T05:03:37.000Z</time></trkpt>
        <trkpt lat="29.574619" lon="103.363084"><ele>1591.643</ele><time>2026-07-21T05:03:39.000Z</time></trkpt>
        <trkpt lat="29.574621" lon="103.363061"><ele>1592.7102</ele><time>2026-07-21T05:03:41.000Z</time></trkpt>
        <trkpt lat="29.574622" lon="103.363039"><ele>1592.5409</ele><time>2026-07-21T05:03:43.000Z</time></trkpt>
        <trkpt lat="29.574622" lon="103.363018"><ele>1593.1318</ele><time>2026-07-21T05:03:45.000Z</time></trkpt>
        <trkpt lat="29.574623" lon="103.363002"><ele>1594.0676</ele><time>2026-07-21T05:03:47.000Z</time></trkpt>
        <trkpt lat="29.574625" lon="103.362989"><ele>1593.7114</ele><time>2026-07-21T05:03:49.000Z</time></trkpt>
        <trkpt lat="29.574629" lon="103.362978"><ele>1593.4679</ele><time>2026-07-21T05:03:51.000Z</time></trkpt>
        <trkpt lat="29.574632" lon="103.362967"><ele>1594.143</ele><time>2026-07-21T05:03:53.000Z</time></trkpt>
        <trkpt lat="29.574638" lon="103.36296"><ele>1593.913</ele><time>2026-07-21T05:03:55.000Z</time></trkpt>
        <trkpt lat="29.574652" lon="103.362946"><ele>1594.6047</ele><time>2026-07-21T05:03:59.000Z</time></trkpt>
        <trkpt lat="29.57466" lon="103.36294"><ele>1595.1069</ele><time>2026-07-21T05:04:01.000Z</time></trkpt>
        <trkpt lat="29.574669" lon="103.362932"><ele>1595.1794</ele><time>2026-07-21T05:04:03.000Z</time></trkpt>
        <trkpt lat="29.574682" lon="103.362922"><ele>1595.5427</ele><time>2026-07-21T05:04:07.000Z</time></trkpt>
        <trkpt lat="29.574689" lon="103.362916"><ele>1595.4186</ele><time>2026-07-21T05:04:09.000Z</time></trkpt>
        <trkpt lat="29.574698" lon="103.362908"><ele>1595.1787</ele><time>2026-07-21T05:04:11.000Z</time></trkpt>
        <trkpt lat="29.574709" lon="103.362898"><ele>1594.9987</ele><time>2026-07-21T05:04:13.000Z</time></trkpt>
        <trkpt lat="29.574717" lon="103.362896"><ele>1595.0955</ele><time>2026-07-21T05:04:15.000Z</time></trkpt>
        <trkpt lat="29.574726" lon="103.362896"><ele>1595.9377</ele><time>2026-07-21T05:04:17.000Z</time></trkpt>
        <trkpt lat="29.574745" lon="103.362894"><ele>1599.5662</ele><time>2026-07-21T05:04:27.000Z</time></trkpt>
        <trkpt lat="29.574763" lon="103.362891"><ele>1599.4318</ele><time>2026-07-21T05:04:29.000Z</time></trkpt>
        <trkpt lat="29.574764" lon="103.36289"><ele>1598.4863</ele><time>2026-07-21T05:04:31.000Z</time></trkpt>
        <trkpt lat="29.574795" lon="103.362846"><ele>1598.4034</ele><time>2026-07-21T05:04:34.000Z</time></trkpt>
        <trkpt lat="29.574797" lon="103.362845"><ele>1599.1042</ele><time>2026-07-21T05:04:36.000Z</time></trkpt>
        <trkpt lat="29.574799" lon="103.362845"><ele>1599.7661</ele><time>2026-07-21T05:04:38.000Z</time></trkpt>
        <trkpt lat="29.574834" lon="103.362833"><ele>1601.0076</ele><time>2026-07-21T05:04:44.000Z</time></trkpt>
        <trkpt lat="29.574844" lon="103.362829"><ele>1601.421</ele><time>2026-07-21T05:04:46.000Z</time></trkpt>
        <trkpt lat="29.574855" lon="103.362823"><ele>1602.5702</ele><time>2026-07-21T05:04:48.000Z</time></trkpt>
        <trkpt lat="29.57486" lon="103.362817"><ele>1602.5084</ele><time>2026-07-21T05:04:50.000Z</time></trkpt>
        <trkpt lat="29.574869" lon="103.362801"><ele>1603.8665</ele><time>2026-07-21T05:04:54.000Z</time></trkpt>
        <trkpt lat="29.574877" lon="103.362787"><ele>1603.8867</ele><time>2026-07-21T05:04:56.000Z</time></trkpt>
        <trkpt lat="29.574886" lon="103.362771"><ele>1604.3143</ele><time>2026-07-21T05:04:58.000Z</time></trkpt>
        <trkpt lat="29.574897" lon="103.362753"><ele>1604.5819</ele><time>2026-07-21T05:05:00.000Z</time></trkpt>
        <trkpt lat="29.574906" lon="103.36274"><ele>1604.9484</ele><time>2026-07-21T05:05:02.000Z</time></trkpt>
        <trkpt lat="29.574916" lon="103.362724"><ele>1604.8167</ele><time>2026-07-21T05:05:04.000Z</time></trkpt>
        <trkpt lat="29.574928" lon="103.362707"><ele>1605.5566</ele><time>2026-07-21T05:05:06.000Z</time></trkpt>
        <trkpt lat="29.574939" lon="103.362688"><ele>1605.6924</ele><time>2026-07-21T05:05:08.000Z</time></trkpt>
        <trkpt lat="29.574946" lon="103.362667"><ele>1605.7478</ele><time>2026-07-21T05:05:10.000Z</time></trkpt>
        <trkpt lat="29.574947" lon="103.36265"><ele>1605.8668</ele><time>2026-07-21T05:05:12.000Z</time></trkpt>
        <trkpt lat="29.574944" lon="103.36263"><ele>1605.7606</ele><time>2026-07-21T05:05:14.000Z</time></trkpt>
        <trkpt lat="29.574939" lon="103.36261"><ele>1606.0132</ele><time>2026-07-21T05:05:16.000Z</time></trkpt>
        <trkpt lat="29.574932" lon="103.362595"><ele>1606.409</ele><time>2026-07-21T05:05:18.000Z</time></trkpt>
        <trkpt lat="29.574924" lon="103.362579"><ele>1606.7478</ele><time>2026-07-21T05:05:20.000Z</time></trkpt>
        <trkpt lat="29.574917" lon="103.362567"><ele>1607.3799</ele><time>2026-07-21T05:05:22.000Z</time></trkpt>
        <trkpt lat="29.574912" lon="103.362558"><ele>1608.7141</ele><time>2026-07-21T05:05:24.000Z</time></trkpt>
        <trkpt lat="29.574906" lon="103.362544"><ele>1607.9219</ele><time>2026-07-21T05:05:26.000Z</time></trkpt>
        <trkpt lat="29.574901" lon="103.362528"><ele>1608.2925</ele><time>2026-07-21T05:05:28.000Z</time></trkpt>
        <trkpt lat="29.574899" lon="103.362518"><ele>1610.1028</ele><time>2026-07-21T05:05:30.000Z</time></trkpt>
        <trkpt lat="29.574896" lon="103.362512"><ele>1610.93</ele><time>2026-07-21T05:05:32.000Z</time></trkpt>
        <trkpt lat="29.574884" lon="103.362486"><ele>1610.69</ele><time>2026-07-21T05:05:36.000Z</time></trkpt>
        <trkpt lat="29.574877" lon="103.362472"><ele>1611.7357</ele><time>2026-07-21T05:05:38.000Z</time></trkpt>
        <trkpt lat="29.574869" lon="103.362459"><ele>1611.0918</ele><time>2026-07-21T05:05:40.000Z</time></trkpt>
        <trkpt lat="29.574859" lon="103.362445"><ele>1612.0593</ele><time>2026-07-21T05:05:42.000Z</time></trkpt>
        <trkpt lat="29.574851" lon="103.362436"><ele>1612.1843</ele><time>2026-07-21T05:05:44.000Z</time></trkpt>
        <trkpt lat="29.574837" lon="103.362427"><ele>1612.4479</ele><time>2026-07-21T05:05:46.000Z</time></trkpt>
        <trkpt lat="29.574822" lon="103.362421"><ele>1612.3558</ele><time>2026-07-21T05:05:48.000Z</time></trkpt>
        <trkpt lat="29.574804" lon="103.362417"><ele>1611.699</ele><time>2026-07-21T05:05:50.000Z</time></trkpt>
        <trkpt lat="29.574788" lon="103.362417"><ele>1612.2542</ele><time>2026-07-21T05:05:52.000Z</time></trkpt>
        <trkpt lat="29.574771" lon="103.362418"><ele>1612.9028</ele><time>2026-07-21T05:05:54.000Z</time></trkpt>
        <trkpt lat="29.574754" lon="103.36242"><ele>1613.7079</ele><time>2026-07-21T05:05:56.000Z</time></trkpt>
        <trkpt lat="29.57474" lon="103.362422"><ele>1614.2137</ele><time>2026-07-21T05:05:58.000Z</time></trkpt>
        <trkpt lat="29.574728" lon="103.362422"><ele>1614.9252</ele><time>2026-07-21T05:06:00.000Z</time></trkpt>
        <trkpt lat="29.574712" lon="103.36242"><ele>1614.7043</ele><time>2026-07-21T05:06:02.000Z</time></trkpt>
        <trkpt lat="29.574693" lon="103.362418"><ele>1614.3875</ele><time>2026-07-21T05:06:04.000Z</time></trkpt>
        <trkpt lat="29.574674" lon="103.362419"><ele>1614.1918</ele><time>2026-07-21T05:06:06.000Z</time></trkpt>
        <trkpt lat="29.574657" lon="103.362422"><ele>1613.5913</ele><time>2026-07-21T05:06:08.000Z</time></trkpt>
        <trkpt lat="29.57464" lon="103.362426"><ele>1613.5348</ele><time>2026-07-21T05:06:10.000Z</time></trkpt>
        <trkpt lat="29.574622" lon="103.36243"><ele>1614.2878</ele><time>2026-07-21T05:06:12.000Z</time></trkpt>
        <trkpt lat="29.574604" lon="103.362433"><ele>1614.8119</ele><time>2026-07-21T05:06:14.000Z</time></trkpt>
        <trkpt lat="29.574586" lon="103.362439"><ele>1615.4984</ele><time>2026-07-21T05:06:16.000Z</time></trkpt>
        <trkpt lat="29.574568" lon="103.362445"><ele>1615.6406</ele><time>2026-07-21T05:06:18.000Z</time></trkpt>
        <trkpt lat="29.574552" lon="103.362453"><ele>1615.2195</ele><time>2026-07-21T05:06:20.000Z</time></trkpt>
        <trkpt lat="29.574537" lon="103.36246"><ele>1615.5455</ele><time>2026-07-21T05:06:22.000Z</time></trkpt>
        <trkpt lat="29.574521" lon="103.362467"><ele>1614.939</ele><time>2026-07-21T05:06:24.000Z</time></trkpt>
        <trkpt lat="29.574505" lon="103.362475"><ele>1614.2349</ele><time>2026-07-21T05:06:26.000Z</time></trkpt>
        <trkpt lat="29.574488" lon="103.362483"><ele>1614.0369</ele><time>2026-07-21T05:06:28.000Z</time></trkpt>
        <trkpt lat="29.574468" lon="103.362491"><ele>1614.2231</ele><time>2026-07-21T05:06:30.000Z</time></trkpt>
        <trkpt lat="29.574448" lon="103.362497"><ele>1614.2931</ele><time>2026-07-21T05:06:32.000Z</time></trkpt>
        <trkpt lat="29.574426" lon="103.3625"><ele>1614.5116</ele><time>2026-07-21T05:06:34.000Z</time></trkpt>
        <trkpt lat="29.574405" lon="103.362504"><ele>1614.4523</ele><time>2026-07-21T05:06:36.000Z</time></trkpt>
        <trkpt lat="29.574385" lon="103.362511"><ele>1614.3087</ele><time>2026-07-21T05:06:38.000Z</time></trkpt>
        <trkpt lat="29.574371" lon="103.362518"><ele>1613.9146</ele><time>2026-07-21T05:06:40.000Z</time></trkpt>
        <trkpt lat="29.574356" lon="103.362523"><ele>1613.5151</ele><time>2026-07-21T05:06:42.000Z</time></trkpt>
        <trkpt lat="29.574343" lon="103.362524"><ele>1613.583</ele><time>2026-07-21T05:06:44.000Z</time></trkpt>
        <trkpt lat="29.574324" lon="103.362522"><ele>1613.721</ele><time>2026-07-21T05:06:46.000Z</time></trkpt>
        <trkpt lat="29.574301" lon="103.36252"><ele>1613.2988</ele><time>2026-07-21T05:06:48.000Z</time></trkpt>
        <trkpt lat="29.574278" lon="103.362519"><ele>1613.0458</ele><time>2026-07-21T05:06:50.000Z</time></trkpt>
        <trkpt lat="29.574255" lon="103.362518"><ele>1612.6326</ele><time>2026-07-21T05:06:52.000Z</time></trkpt>
        <trkpt lat="29.574231" lon="103.362519"><ele>1612.6636</ele><time>2026-07-21T05:06:54.000Z</time></trkpt>
        <trkpt lat="29.57421" lon="103.362521"><ele>1612.4093</ele><time>2026-07-21T05:06:56.000Z</time></trkpt>
        <trkpt lat="29.574188" lon="103.362524"><ele>1612.3298</ele><time>2026-07-21T05:06:58.000Z</time></trkpt>
        <trkpt lat="29.574169" lon="103.362526"><ele>1612.5885</ele><time>2026-07-21T05:07:00.000Z</time></trkpt>
        <trkpt lat="29.574153" lon="103.36253"><ele>1613.1998</ele><time>2026-07-21T05:07:02.000Z</time></trkpt>
        <trkpt lat="29.574136" lon="103.362534"><ele>1614.5521</ele><time>2026-07-21T05:07:04.000Z</time></trkpt>
        <trkpt lat="29.574121" lon="103.362537"><ele>1615.3368</ele><time>2026-07-21T05:07:06.000Z</time></trkpt>
        <trkpt lat="29.574108" lon="103.362537"><ele>1615.7407</ele><time>2026-07-21T05:07:08.000Z</time></trkpt>
        <trkpt lat="29.574092" lon="103.362534"><ele>1616.2631</ele><time>2026-07-21T05:07:10.000Z</time></trkpt>
        <trkpt lat="29.574078" lon="103.362531"><ele>1616.4531</ele><time>2026-07-21T05:07:12.000Z</time></trkpt>
        <trkpt lat="29.57406" lon="103.362526"><ele>1616.11</ele><time>2026-07-21T05:07:14.000Z</time></trkpt>
        <trkpt lat="29.574047" lon="103.36252"><ele>1617.375</ele><time>2026-07-21T05:07:16.000Z</time></trkpt>
        <trkpt lat="29.574033" lon="103.362512"><ele>1616.4199</ele><time>2026-07-21T05:07:18.000Z</time></trkpt>
        <trkpt lat="29.574021" lon="103.362501"><ele>1616.5919</ele><time>2026-07-21T05:07:20.000Z</time></trkpt>
        <trkpt lat="29.574011" lon="103.362488"><ele>1616.686</ele><time>2026-07-21T05:07:22.000Z</time></trkpt>
        <trkpt lat="29.574003" lon="103.362477"><ele>1615.9333</ele><time>2026-07-21T05:07:24.000Z</time></trkpt>
        <trkpt lat="29.573992" lon="103.362464"><ele>1616.9825</ele><time>2026-07-21T05:07:26.000Z</time></trkpt>
        <trkpt lat="29.573981" lon="103.362452"><ele>1617.7631</ele><time>2026-07-21T05:07:28.000Z</time></trkpt>
        <trkpt lat="29.573969" lon="103.362439"><ele>1618.5771</ele><time>2026-07-21T05:07:30.000Z</time></trkpt>
        <trkpt lat="29.573959" lon="103.362427"><ele>1619.5856</ele><time>2026-07-21T05:07:32.000Z</time></trkpt>
        <trkpt lat="29.573948" lon="103.362415"><ele>1619.2128</ele><time>2026-07-21T05:07:34.000Z</time></trkpt>
        <trkpt lat="29.573934" lon="103.362402"><ele>1619.7987</ele><time>2026-07-21T05:07:36.000Z</time></trkpt>
        <trkpt lat="29.573916" lon="103.362387"><ele>1619.8811</ele><time>2026-07-21T05:07:38.000Z</time></trkpt>
        <trkpt lat="29.573896" lon="103.362371"><ele>1619.1029</ele><time>2026-07-21T05:07:40.000Z</time></trkpt>
        <trkpt lat="29.573878" lon="103.362359"><ele>1618.8231</ele><time>2026-07-21T05:07:42.000Z</time></trkpt>
        <trkpt lat="29.573863" lon="103.36235"><ele>1618.4321</ele><time>2026-07-21T05:07:44.000Z</time></trkpt>
        <trkpt lat="29.573848" lon="103.362341"><ele>1618.9255</ele><time>2026-07-21T05:07:46.000Z</time></trkpt>
        <trkpt lat="29.573837" lon="103.362333"><ele>1619.1962</ele><time>2026-07-21T05:07:48.000Z</time></trkpt>
        <trkpt lat="29.573827" lon="103.362324"><ele>1619.3287</ele><time>2026-07-21T05:07:50.000Z</time></trkpt>
        <trkpt lat="29.573819" lon="103.362317"><ele>1620.074</ele><time>2026-07-21T05:07:52.000Z</time></trkpt>
        <trkpt lat="29.573812" lon="103.36231"><ele>1621.2886</ele><time>2026-07-21T05:07:54.000Z</time></trkpt>
        <trkpt lat="29.573803" lon="103.362297"><ele>1623.2052</ele><time>2026-07-21T05:07:58.000Z</time></trkpt>
        <trkpt lat="29.573794" lon="103.362283"><ele>1623.2344</ele><time>2026-07-21T05:08:00.000Z</time></trkpt>
        <trkpt lat="29.573793" lon="103.362282"><ele>1623.7795</ele><time>2026-07-21T05:08:02.000Z</time></trkpt>
        <trkpt lat="29.573771" lon="103.36226"><ele>1625.7856</ele><time>2026-07-21T05:08:08.000Z</time></trkpt>
        <trkpt lat="29.573758" lon="103.362248"><ele>1626.0293</ele><time>2026-07-21T05:08:10.000Z</time></trkpt>
        <trkpt lat="29.573745" lon="103.362234"><ele>1625.7288</ele><time>2026-07-21T05:08:12.000Z</time></trkpt>
        <trkpt lat="29.573733" lon="103.362221"><ele>1626.1475</ele><time>2026-07-21T05:08:14.000Z</time></trkpt>
        <trkpt lat="29.573727" lon="103.362213"><ele>1627.1741</ele><time>2026-07-21T05:08:16.000Z</time></trkpt>
        <trkpt lat="29.573719" lon="103.362204"><ele>1626.9635</ele><time>2026-07-21T05:08:18.000Z</time></trkpt>
        <trkpt lat="29.57371" lon="103.362197"><ele>1627.3765</ele><time>2026-07-21T05:08:20.000Z</time></trkpt>
        <trkpt lat="29.573699" lon="103.36219"><ele>1627.4674</ele><time>2026-07-21T05:08:22.000Z</time></trkpt>
        <trkpt lat="29.573688" lon="103.362184"><ele>1627.9059</ele><time>2026-07-21T05:08:24.000Z</time></trkpt>
        <trkpt lat="29.57368" lon="103.36218"><ele>1628.2891</ele><time>2026-07-21T05:08:26.000Z</time></trkpt>
        <trkpt lat="29.573666" lon="103.362173"><ele>1629.1073</ele><time>2026-07-21T05:08:30.000Z</time></trkpt>
        <trkpt lat="29.57366" lon="103.362169"><ele>1629.106</ele><time>2026-07-21T05:08:32.000Z</time></trkpt>
        <trkpt lat="29.573651" lon="103.362159"><ele>1629.8557</ele><time>2026-07-21T05:08:36.000Z</time></trkpt>
        <trkpt lat="29.573642" lon="103.362155"><ele>1629.0208</ele><time>2026-07-21T05:08:50.000Z</time></trkpt>
        <trkpt lat="29.57362" lon="103.362143"><ele>1628.5579</ele><time>2026-07-21T05:08:54.000Z</time></trkpt>
        <trkpt lat="29.57362" lon="103.362143"><ele>1628.3253</ele><time>2026-07-21T05:08:56.000Z</time></trkpt>
        <trkpt lat="29.573617" lon="103.362136"><ele>1629.6896</ele><time>2026-07-21T05:09:00.000Z</time></trkpt>
        <trkpt lat="29.573603" lon="103.362104"><ele>1631.9998</ele><time>2026-07-21T05:09:06.000Z</time></trkpt>
        <trkpt lat="29.573603" lon="103.362104"><ele>1632.2638</ele><time>2026-07-21T05:09:08.000Z</time></trkpt>
        <trkpt lat="29.573602" lon="103.362102"><ele>1631.2803</ele><time>2026-07-21T05:09:10.000Z</time></trkpt>
        <trkpt lat="29.573583" lon="103.362073"><ele>1631.027</ele><time>2026-07-21T05:09:16.000Z</time></trkpt>
        <trkpt lat="29.573583" lon="103.362073"><ele>1631.2664</ele><time>2026-07-21T05:09:18.000Z</time></trkpt>
        <trkpt lat="29.573582" lon="103.362073"><ele>1631.4235</ele><time>2026-07-21T05:09:20.000Z</time></trkpt>
        <trkpt lat="29.573552" lon="103.362078"><ele>1632.3898</ele><time>2026-07-21T05:09:40.000Z</time></trkpt>
        <trkpt lat="29.573552" lon="103.362078"><ele>1632.7292</ele><time>2026-07-21T05:09:42.000Z</time></trkpt>
        <trkpt lat="29.573548" lon="103.362062"><ele>1633.9774</ele><time>2026-07-21T05:09:54.000Z</time></trkpt>
        <trkpt lat="29.57354" lon="103.362042"><ele>1634.5571</ele><time>2026-07-21T05:10:00.000Z</time></trkpt>
        <trkpt lat="29.573536" lon="103.362036"><ele>1634.493</ele><time>2026-07-21T05:10:02.000Z</time></trkpt>
        <trkpt lat="29.57353" lon="103.36203"><ele>1634.1852</ele><time>2026-07-21T05:10:04.000Z</time></trkpt>
        <trkpt lat="29.573512" lon="103.36201"><ele>1634.7496</ele><time>2026-07-21T05:10:08.000Z</time></trkpt>
        <trkpt lat="29.573512" lon="103.36201"><ele>1634.6603</ele><time>2026-07-21T05:10:10.000Z</time></trkpt>
        <trkpt lat="29.573507" lon="103.362"><ele>1637.143</ele><time>2026-07-21T05:10:22.000Z</time></trkpt>
        <trkpt lat="29.57349" lon="103.361976"><ele>1638.2086</ele><time>2026-07-21T05:10:30.000Z</time></trkpt>
        <trkpt lat="29.573482" lon="103.361965"><ele>1638.6669</ele><time>2026-07-21T05:10:32.000Z</time></trkpt>
        <trkpt lat="29.573481" lon="103.361964"><ele>1638.9637</ele><time>2026-07-21T05:10:34.000Z</time></trkpt>
        <trkpt lat="29.573468" lon="103.361948"><ele>1641.2977</ele><time>2026-07-21T05:10:42.000Z</time></trkpt>
        <trkpt lat="29.573458" lon="103.361943"><ele>1641.5515</ele><time>2026-07-21T05:10:46.000Z</time></trkpt>
        <trkpt lat="29.573439" lon="103.361933"><ele>1641.0222</ele><time>2026-07-21T05:10:48.000Z</time></trkpt>
        <trkpt lat="29.573438" lon="103.361932"><ele>1641.9889</ele><time>2026-07-21T05:10:50.000Z</time></trkpt>
        <trkpt lat="29.573433" lon="103.361922"><ele>1642.7886</ele><time>2026-07-21T05:10:56.000Z</time></trkpt>
        <trkpt lat="29.573421" lon="103.361904"><ele>1648.109</ele><time>2026-07-21T05:12:07.000Z</time></trkpt>
        <trkpt lat="29.573418" lon="103.361901"><ele>1647.9952</ele><time>2026-07-21T05:12:09.000Z</time></trkpt>
        <trkpt lat="29.573411" lon="103.361893"><ele>1647.9667</ele><time>2026-07-21T05:12:13.000Z</time></trkpt>
        <trkpt lat="29.573401" lon="103.361878"><ele>1649.3754</ele><time>2026-07-21T05:12:19.000Z</time></trkpt>
        <trkpt lat="29.573398" lon="103.361876"><ele>1649.5984</ele><time>2026-07-21T05:12:21.000Z</time></trkpt>
        <trkpt lat="29.573385" lon="103.361871"><ele>1648.8083</ele><time>2026-07-21T05:12:31.000Z</time></trkpt>
        <trkpt lat="29.573369" lon="103.361866"><ele>1651.0723</ele><time>2026-07-21T05:12:41.000Z</time></trkpt>
        <trkpt lat="29.573363" lon="103.361862"><ele>1651.9001</ele><time>2026-07-21T05:12:43.000Z</time></trkpt>
        <trkpt lat="29.57335" lon="103.361856"><ele>1653.1497</ele><time>2026-07-21T05:12:47.000Z</time></trkpt>
        <trkpt lat="29.573339" lon="103.36185"><ele>1654.438</ele><time>2026-07-21T05:12:51.000Z</time></trkpt>
        <trkpt lat="29.573321" lon="103.361837"><ele>1656.1266</ele><time>2026-07-21T05:12:56.000Z</time></trkpt>
        <trkpt lat="29.57331" lon="103.361829"><ele>1656.8538</ele><time>2026-07-21T05:12:58.000Z</time></trkpt>
        <trkpt lat="29.573309" lon="103.361829"><ele>1656.2467</ele><time>2026-07-21T05:13:00.000Z</time></trkpt>
        <trkpt lat="29.573283" lon="103.36181"><ele>1656.2479</ele><time>2026-07-21T05:13:06.000Z</time></trkpt>
        <trkpt lat="29.573272" lon="103.361801"><ele>1656.6621</ele><time>2026-07-21T05:13:08.000Z</time></trkpt>
        <trkpt lat="29.573261" lon="103.361794"><ele>1656.6188</ele><time>2026-07-21T05:13:10.000Z</time></trkpt>
        <trkpt lat="29.573251" lon="103.361787"><ele>1656.2546</ele><time>2026-07-21T05:13:12.000Z</time></trkpt>
        <trkpt lat="29.573239" lon="103.36178"><ele>1656.6205</ele><time>2026-07-21T05:13:14.000Z</time></trkpt>
        <trkpt lat="29.573228" lon="103.361773"><ele>1656.4257</ele><time>2026-07-21T05:13:16.000Z</time></trkpt>
        <trkpt lat="29.573214" lon="103.361764"><ele>1655.933</ele><time>2026-07-21T05:13:18.000Z</time></trkpt>
        <trkpt lat="29.573202" lon="103.361755"><ele>1656.362</ele><time>2026-07-21T05:13:20.000Z</time></trkpt>
        <trkpt lat="29.573192" lon="103.361745"><ele>1656.1487</ele><time>2026-07-21T05:13:22.000Z</time></trkpt>
        <trkpt lat="29.573182" lon="103.361737"><ele>1657.3069</ele><time>2026-07-21T05:13:24.000Z</time></trkpt>
        <trkpt lat="29.573169" lon="103.361726"><ele>1657.3</ele><time>2026-07-21T05:13:26.000Z</time></trkpt>
        <trkpt lat="29.573153" lon="103.361716"><ele>1656.4216</ele><time>2026-07-21T05:13:28.000Z</time></trkpt>
        <trkpt lat="29.573139" lon="103.361707"><ele>1656.9094</ele><time>2026-07-21T05:13:30.000Z</time></trkpt>
        <trkpt lat="29.573126" lon="103.361698"><ele>1656.9949</ele><time>2026-07-21T05:13:32.000Z</time></trkpt>
        <trkpt lat="29.573113" lon="103.361688"><ele>1657.6361</ele><time>2026-07-21T05:13:34.000Z</time></trkpt>
        <trkpt lat="29.573099" lon="103.361677"><ele>1657.1599</ele><time>2026-07-21T05:13:36.000Z</time></trkpt>
        <trkpt lat="29.573081" lon="103.361666"><ele>1656.7843</ele><time>2026-07-21T05:13:38.000Z</time></trkpt>
        <trkpt lat="29.573064" lon="103.361655"><ele>1656.9883</ele><time>2026-07-21T05:13:40.000Z</time></trkpt>
        <trkpt lat="29.573046" lon="103.361644"><ele>1656.764</ele><time>2026-07-21T05:13:42.000Z</time></trkpt>
        <trkpt lat="29.573027" lon="103.361633"><ele>1656.7223</ele><time>2026-07-21T05:13:44.000Z</time></trkpt>
        <trkpt lat="29.57301" lon="103.361623"><ele>1657.1188</ele><time>2026-07-21T05:13:46.000Z</time></trkpt>
        <trkpt lat="29.572988" lon="103.361614"><ele>1657.1941</ele><time>2026-07-21T05:13:48.000Z</time></trkpt>
        <trkpt lat="29.572968" lon="103.361608"><ele>1656.5146</ele><time>2026-07-21T05:13:50.000Z</time></trkpt>
        <trkpt lat="29.57295" lon="103.361603"><ele>1656.856</ele><time>2026-07-21T05:13:52.000Z</time></trkpt>
        <trkpt lat="29.572933" lon="103.361598"><ele>1656.7787</ele><time>2026-07-21T05:13:54.000Z</time></trkpt>
        <trkpt lat="29.572919" lon="103.361593"><ele>1656.2365</ele><time>2026-07-21T05:13:56.000Z</time></trkpt>
        <trkpt lat="29.572905" lon="103.361587"><ele>1657.3068</ele><time>2026-07-21T05:13:58.000Z</time></trkpt>
        <trkpt lat="29.572892" lon="103.361584"><ele>1657.8572</ele><time>2026-07-21T05:14:00.000Z</time></trkpt>
        <trkpt lat="29.572878" lon="103.361582"><ele>1658.4608</ele><time>2026-07-21T05:14:02.000Z</time></trkpt>
        <trkpt lat="29.572862" lon="103.36158"><ele>1657.9843</ele><time>2026-07-21T05:14:04.000Z</time></trkpt>
        <trkpt lat="29.572844" lon="103.361579"><ele>1657.7975</ele><time>2026-07-21T05:14:06.000Z</time></trkpt>
        <trkpt lat="29.572826" lon="103.36158"><ele>1657.3776</ele><time>2026-07-21T05:14:08.000Z</time></trkpt>
        <trkpt lat="29.572805" lon="103.361583"><ele>1656.8014</ele><time>2026-07-21T05:14:10.000Z</time></trkpt>
        <trkpt lat="29.572782" lon="103.36159"><ele>1655.4498</ele><time>2026-07-21T05:14:12.000Z</time></trkpt>
        <trkpt lat="29.572764" lon="103.361597"><ele>1655.3037</ele><time>2026-07-21T05:14:14.000Z</time></trkpt>
        <trkpt lat="29.572746" lon="103.361602"><ele>1655.0902</ele><time>2026-07-21T05:14:16.000Z</time></trkpt>
        <trkpt lat="29.572732" lon="103.361602"><ele>1656.7118</ele><time>2026-07-21T05:14:18.000Z</time></trkpt>
        <trkpt lat="29.572716" lon="103.361602"><ele>1655.5531</ele><time>2026-07-21T05:14:20.000Z</time></trkpt>
        <trkpt lat="29.572699" lon="103.361603"><ele>1655.865</ele><time>2026-07-21T05:14:22.000Z</time></trkpt>
        <trkpt lat="29.572686" lon="103.361605"><ele>1656.3992</ele><time>2026-07-21T05:14:24.000Z</time></trkpt>
        <trkpt lat="29.572671" lon="103.361609"><ele>1656.3655</ele><time>2026-07-21T05:14:26.000Z</time></trkpt>
        <trkpt lat="29.572657" lon="103.361614"><ele>1657.3182</ele><time>2026-07-21T05:14:28.000Z</time></trkpt>
        <trkpt lat="29.572644" lon="103.36162"><ele>1657.3524</ele><time>2026-07-21T05:14:30.000Z</time></trkpt>
        <trkpt lat="29.572632" lon="103.361626"><ele>1657.8975</ele><time>2026-07-21T05:14:32.000Z</time></trkpt>
        <trkpt lat="29.572618" lon="103.361632"><ele>1657.7452</ele><time>2026-07-21T05:14:34.000Z</time></trkpt>
        <trkpt lat="29.572607" lon="103.361636"><ele>1657.5657</ele><time>2026-07-21T05:14:36.000Z</time></trkpt>
        <trkpt lat="29.572594" lon="103.36164"><ele>1658.02</ele><time>2026-07-21T05:14:38.000Z</time></trkpt>
        <trkpt lat="29.572583" lon="103.361642"><ele>1658.0394</ele><time>2026-07-21T05:14:40.000Z</time></trkpt>
        <trkpt lat="29.572575" lon="103.361642"><ele>1659.0023</ele><time>2026-07-21T05:14:42.000Z</time></trkpt>
        <trkpt lat="29.572559" lon="103.361643"><ele>1661.2177</ele><time>2026-07-21T05:14:46.000Z</time></trkpt>
        <trkpt lat="29.572553" lon="103.361644"><ele>1662.044</ele><time>2026-07-21T05:14:48.000Z</time></trkpt>
        <trkpt lat="29.572545" lon="103.361647"><ele>1662.444</ele><time>2026-07-21T05:14:50.000Z</time></trkpt>
        <trkpt lat="29.572522" lon="103.361656"><ele>1662.3757</ele><time>2026-07-21T05:14:54.000Z</time></trkpt>
        <trkpt lat="29.572513" lon="103.36166"><ele>1662.6014</ele><time>2026-07-21T05:14:56.000Z</time></trkpt>
        <trkpt lat="29.572506" lon="103.36166"><ele>1663.5308</ele><time>2026-07-21T05:14:58.000Z</time></trkpt>
        <trkpt lat="29.572487" lon="103.361663"><ele>1665.3229</ele><time>2026-07-21T05:15:02.000Z</time></trkpt>
        <trkpt lat="29.572484" lon="103.361666"><ele>1665.7867</ele><time>2026-07-21T05:15:04.000Z</time></trkpt>
        <trkpt lat="29.572476" lon="103.361676"><ele>1665.2648</ele><time>2026-07-21T05:15:08.000Z</time></trkpt>
        <trkpt lat="29.572466" lon="103.36169"><ele>1663.6135</ele><time>2026-07-21T05:15:16.000Z</time></trkpt>
        <trkpt lat="29.572464" lon="103.361691"><ele>1663.5859</ele><time>2026-07-21T05:15:18.000Z</time></trkpt>
        <trkpt lat="29.572444" lon="103.361697"><ele>1666.5181</ele><time>2026-07-21T05:16:00.000Z</time></trkpt>
        <trkpt lat="29.572433" lon="103.361701"><ele>1668.0524</ele><time>2026-07-21T05:16:06.000Z</time></trkpt>
        <trkpt lat="29.572429" lon="103.361702"><ele>1669.6892</ele><time>2026-07-21T05:16:08.000Z</time></trkpt>
        <trkpt lat="29.572411" lon="103.361706"><ele>1670.1725</ele><time>2026-07-21T05:16:10.000Z</time></trkpt>
        <trkpt lat="29.572401" lon="103.361708"><ele>1671.615</ele><time>2026-07-21T05:16:16.000Z</time></trkpt>
        <trkpt lat="29.572389" lon="103.361709"><ele>1672.0768</ele><time>2026-07-21T05:16:18.000Z</time></trkpt>
        <trkpt lat="29.57238" lon="103.361708"><ele>1672.3513</ele><time>2026-07-21T05:16:20.000Z</time></trkpt>
        <trkpt lat="29.572371" lon="103.361707"><ele>1672.6482</ele><time>2026-07-21T05:16:22.000Z</time></trkpt>
        <trkpt lat="29.572357" lon="103.361707"><ele>1672.4661</ele><time>2026-07-21T05:16:26.000Z</time></trkpt>
        <trkpt lat="29.572349" lon="103.361709"><ele>1672.8218</ele><time>2026-07-21T05:16:28.000Z</time></trkpt>
        <trkpt lat="29.572335" lon="103.36171"><ele>1673.0205</ele><time>2026-07-21T05:16:30.000Z</time></trkpt>
        <trkpt lat="29.572324" lon="103.36171"><ele>1673.5323</ele><time>2026-07-21T05:16:36.000Z</time></trkpt>
        <trkpt lat="29.572317" lon="103.361712"><ele>1673.5314</ele><time>2026-07-21T05:16:38.000Z</time></trkpt>
        <trkpt lat="29.572304" lon="103.361722"><ele>1673.3523</ele><time>2026-07-21T05:16:46.000Z</time></trkpt>
        <trkpt lat="29.572288" lon="103.361733"><ele>1673.7582</ele><time>2026-07-21T05:16:48.000Z</time></trkpt>
        <trkpt lat="29.572287" lon="103.361733"><ele>1673.268</ele><time>2026-07-21T05:16:50.000Z</time></trkpt>
        <trkpt lat="29.572275" lon="103.361735"><ele>1675.7394</ele><time>2026-07-21T05:16:58.000Z</time></trkpt>
        <trkpt lat="29.572256" lon="103.361742"><ele>1675.8486</ele><time>2026-07-21T05:17:04.000Z</time></trkpt>
        <trkpt lat="29.572249" lon="103.361745"><ele>1675.9901</ele><time>2026-07-21T05:17:06.000Z</time></trkpt>
        <trkpt lat="29.572243" lon="103.361748"><ele>1676.3502</ele><time>2026-07-21T05:17:08.000Z</time></trkpt>
        <trkpt lat="29.572227" lon="103.361757"><ele>1677.8019</ele><time>2026-07-21T05:17:12.000Z</time></trkpt>
        <trkpt lat="29.572219" lon="103.361764"><ele>1681.3135</ele><time>2026-07-21T05:17:20.000Z</time></trkpt>
        <trkpt lat="29.572205" lon="103.361776"><ele>1680.2593</ele><time>2026-07-21T05:17:22.000Z</time></trkpt>
        <trkpt lat="29.572202" lon="103.361776"><ele>1680.5265</ele><time>2026-07-21T05:17:26.000Z</time></trkpt>
        <trkpt lat="29.572175" lon="103.361785"><ele>1680.3839</ele><time>2026-07-21T05:17:28.000Z</time></trkpt>
        <trkpt lat="29.572173" lon="103.361785"><ele>1681.0045</ele><time>2026-07-21T05:17:30.000Z</time></trkpt>
        <trkpt lat="29.57217" lon="103.361785"><ele>1680.9004</ele><time>2026-07-21T05:17:32.000Z</time></trkpt>
        <trkpt lat="29.572146" lon="103.361775"><ele>1681.4316</ele><time>2026-07-21T05:17:40.000Z</time></trkpt>
        <trkpt lat="29.572143" lon="103.361776"><ele>1681.3479</ele><time>2026-07-21T05:17:42.000Z</time></trkpt>
        <trkpt lat="29.572138" lon="103.361781"><ele>1678.8314</ele><time>2026-07-21T05:17:44.000Z</time></trkpt>
        <trkpt lat="29.572118" lon="103.361791"><ele>1679.9286</ele><time>2026-07-21T05:17:56.000Z</time></trkpt>
        <trkpt lat="29.572115" lon="103.36179"><ele>1681.2468</ele><time>2026-07-21T05:17:58.000Z</time></trkpt>
        <trkpt lat="29.572101" lon="103.361783"><ele>1682.1125</ele><time>2026-07-21T05:18:00.000Z</time></trkpt>
        <trkpt lat="29.572085" lon="103.361776"><ele>1684.8816</ele><time>2026-07-21T05:18:08.000Z</time></trkpt>
        <trkpt lat="29.57208" lon="103.361776"><ele>1686.1947</ele><time>2026-07-21T05:18:10.000Z</time></trkpt>
        <trkpt lat="29.572072" lon="103.36178"><ele>1687.7494</ele><time>2026-07-21T05:18:13.000Z</time></trkpt>
        <trkpt lat="29.572056" lon="103.36178"><ele>1690.0552</ele><time>2026-07-21T05:18:21.000Z</time></trkpt>
        <trkpt lat="29.572047" lon="103.361777"><ele>1690.9465</ele><time>2026-07-21T05:18:25.000Z</time></trkpt>
        <trkpt lat="29.572041" lon="103.361772"><ele>1689.9775</ele><time>2026-07-21T05:18:31.000Z</time></trkpt>
        <trkpt lat="29.572028" lon="103.361767"><ele>1691.2765</ele><time>2026-07-21T05:18:58.000Z</time></trkpt>
        <trkpt lat="29.572018" lon="103.361769"><ele>1692.3751</ele><time>2026-07-21T05:19:14.000Z</time></trkpt>
        <trkpt lat="29.572007" lon="103.361774"><ele>1691.6177</ele><time>2026-07-21T05:19:18.000Z</time></trkpt>
        <trkpt lat="29.571993" lon="103.361777"><ele>1692.1783</ele><time>2026-07-21T05:19:20.000Z</time></trkpt>
        <trkpt lat="29.571983" lon="103.36178"><ele>1692.4493</ele><time>2026-07-21T05:19:26.000Z</time></trkpt>
        <trkpt lat="29.571966" lon="103.361786"><ele>1693.5281</ele><time>2026-07-21T05:19:28.000Z</time></trkpt>
        <trkpt lat="29.571963" lon="103.361787"><ele>1693.4803</ele><time>2026-07-21T05:19:32.000Z</time></trkpt>
        <trkpt lat="29.57195" lon="103.361791"><ele>1692.6477</ele><time>2026-07-21T05:19:36.000Z</time></trkpt>
        <trkpt lat="29.571932" lon="103.361797"><ele>1692.0018</ele><time>2026-07-21T05:19:40.000Z</time></trkpt>
        <trkpt lat="29.571932" lon="103.361797"><ele>1692.0583</ele><time>2026-07-21T05:19:42.000Z</time></trkpt>
        <trkpt lat="29.571899" lon="103.361783"><ele>1695.3555</ele><time>2026-07-21T05:19:58.000Z</time></trkpt>
        <trkpt lat="29.571896" lon="103.361784"><ele>1696.8458</ele><time>2026-07-21T05:20:00.000Z</time></trkpt>
        <trkpt lat="29.571875" lon="103.361791"><ele>1696.4908</ele><time>2026-07-21T05:20:02.000Z</time></trkpt>
        <trkpt lat="29.57187" lon="103.361793"><ele>1696.9923</ele><time>2026-07-21T05:20:06.000Z</time></trkpt>
        <trkpt lat="29.571863" lon="103.361794"><ele>1697.4192</ele><time>2026-07-21T05:20:08.000Z</time></trkpt>
        <trkpt lat="29.57183" lon="103.361797"><ele>1697.538</ele><time>2026-07-21T05:20:12.000Z</time></trkpt>
        <trkpt lat="29.571812" lon="103.361797"><ele>1697.2424</ele><time>2026-07-21T05:20:14.000Z</time></trkpt>
        <trkpt lat="29.571793" lon="103.361801"><ele>1695.9376</ele><time>2026-07-21T05:20:16.000Z</time></trkpt>
        <trkpt lat="29.571781" lon="103.361807"><ele>1696.6736</ele><time>2026-07-21T05:20:18.000Z</time></trkpt>
        <trkpt lat="29.57177" lon="103.361813"><ele>1697.235</ele><time>2026-07-21T05:20:20.000Z</time></trkpt>
        <trkpt lat="29.571762" lon="103.361816"><ele>1697.6202</ele><time>2026-07-21T05:20:22.000Z</time></trkpt>
        <trkpt lat="29.571753" lon="103.361817"><ele>1698.0916</ele><time>2026-07-21T05:20:24.000Z</time></trkpt>
        <trkpt lat="29.571736" lon="103.361816"><ele>1699.2527</ele><time>2026-07-21T05:20:28.000Z</time></trkpt>
        <trkpt lat="29.571733" lon="103.361818"><ele>1699.3633</ele><time>2026-07-21T05:20:32.000Z</time></trkpt>
        <trkpt lat="29.57172" lon="103.361826"><ele>1699.6495</ele><time>2026-07-21T05:20:44.000Z</time></trkpt>
        <trkpt lat="29.571702" lon="103.361837"><ele>1698.8291</ele><time>2026-07-21T05:20:46.000Z</time></trkpt>
        <trkpt lat="29.571701" lon="103.361837"><ele>1698.8661</ele><time>2026-07-21T05:20:48.000Z</time></trkpt>
        <trkpt lat="29.571681" lon="103.361839"><ele>1699.6305</ele><time>2026-07-21T05:20:52.000Z</time></trkpt>
        <trkpt lat="29.571662" lon="103.361841"><ele>1700.4436</ele><time>2026-07-21T05:20:54.000Z</time></trkpt>
        <trkpt lat="29.571642" lon="103.361839"><ele>1700.838</ele><time>2026-07-21T05:20:56.000Z</time></trkpt>
        <trkpt lat="29.571621" lon="103.361834"><ele>1701.07</ele><time>2026-07-21T05:20:58.000Z</time></trkpt>
        <trkpt lat="29.571602" lon="103.361825"><ele>1701.3461</ele><time>2026-07-21T05:21:00.000Z</time></trkpt>
        <trkpt lat="29.571586" lon="103.361815"><ele>1701.4125</ele><time>2026-07-21T05:21:02.000Z</time></trkpt>
        <trkpt lat="29.571571" lon="103.361803"><ele>1701.2599</ele><time>2026-07-21T05:21:04.000Z</time></trkpt>
        <trkpt lat="29.571558" lon="103.361792"><ele>1701.3616</ele><time>2026-07-21T05:21:06.000Z</time></trkpt>
        <trkpt lat="29.571544" lon="103.361781"><ele>1701.7833</ele><time>2026-07-21T05:21:08.000Z</time></trkpt>
        <trkpt lat="29.57153" lon="103.361769"><ele>1701.5537</ele><time>2026-07-21T05:21:10.000Z</time></trkpt>
        <trkpt lat="29.571515" lon="103.361758"><ele>1701.2213</ele><time>2026-07-21T05:21:12.000Z</time></trkpt>
        <trkpt lat="29.5715" lon="103.361747"><ele>1701.2687</ele><time>2026-07-21T05:21:14.000Z</time></trkpt>
        <trkpt lat="29.571485" lon="103.361735"><ele>1700.9551</ele><time>2026-07-21T05:21:16.000Z</time></trkpt>
        <trkpt lat="29.571469" lon="103.361721"><ele>1700.6722</ele><time>2026-07-21T05:21:18.000Z</time></trkpt>
        <trkpt lat="29.571452" lon="103.361708"><ele>1700.4043</ele><time>2026-07-21T05:21:20.000Z</time></trkpt>
        <trkpt lat="29.571432" lon="103.361697"><ele>1700.4484</ele><time>2026-07-21T05:21:22.000Z</time></trkpt>
        <trkpt lat="29.571412" lon="103.36169"><ele>1700.5234</ele><time>2026-07-21T05:21:24.000Z</time></trkpt>
        <trkpt lat="29.57139" lon="103.361686"><ele>1700.2336</ele><time>2026-07-21T05:21:26.000Z</time></trkpt>
        <trkpt lat="29.571371" lon="103.361685"><ele>1699.3693</ele><time>2026-07-21T05:21:28.000Z</time></trkpt>
        <trkpt lat="29.571354" lon="103.361688"><ele>1698.2114</ele><time>2026-07-21T05:21:30.000Z</time></trkpt>
        <trkpt lat="29.57134" lon="103.36169"><ele>1697.6031</ele><time>2026-07-21T05:21:32.000Z</time></trkpt>
        <trkpt lat="29.571327" lon="103.361692"><ele>1697.1696</ele><time>2026-07-21T05:21:34.000Z</time></trkpt>
        <trkpt lat="29.571312" lon="103.361695"><ele>1697.0945</ele><time>2026-07-21T05:21:36.000Z</time></trkpt>
        <trkpt lat="29.571299" lon="103.361699"><ele>1696.9607</ele><time>2026-07-21T05:21:38.000Z</time></trkpt>
        <trkpt lat="29.571283" lon="103.361703"><ele>1697.2673</ele><time>2026-07-21T05:21:40.000Z</time></trkpt>
        <trkpt lat="29.571267" lon="103.361705"><ele>1696.969</ele><time>2026-07-21T05:21:42.000Z</time></trkpt>
        <trkpt lat="29.571248" lon="103.361705"><ele>1697.5367</ele><time>2026-07-21T05:21:44.000Z</time></trkpt>
        <trkpt lat="29.571232" lon="103.361702"><ele>1697.9475</ele><time>2026-07-21T05:21:46.000Z</time></trkpt>
        <trkpt lat="29.571224" lon="103.361697"><ele>1697.9933</ele><time>2026-07-21T05:21:48.000Z</time></trkpt>
        <trkpt lat="29.571215" lon="103.361689"><ele>1697.9329</ele><time>2026-07-21T05:21:50.000Z</time></trkpt>
        <trkpt lat="29.571206" lon="103.36168"><ele>1698.7544</ele><time>2026-07-21T05:21:52.000Z</time></trkpt>
        <trkpt lat="29.571196" lon="103.361669"><ele>1699.6359</ele><time>2026-07-21T05:21:54.000Z</time></trkpt>
        <trkpt lat="29.571184" lon="103.361658"><ele>1699.7958</ele><time>2026-07-21T05:21:56.000Z</time></trkpt>
        <trkpt lat="29.571171" lon="103.361649"><ele>1699.1808</ele><time>2026-07-21T05:21:58.000Z</time></trkpt>
        <trkpt lat="29.571156" lon="103.36164"><ele>1699.2924</ele><time>2026-07-21T05:22:00.000Z</time></trkpt>
        <trkpt lat="29.57114" lon="103.361632"><ele>1699.5986</ele><time>2026-07-21T05:22:02.000Z</time></trkpt>
        <trkpt lat="29.571123" lon="103.361622"><ele>1701.022</ele><time>2026-07-21T05:22:04.000Z</time></trkpt>
        <trkpt lat="29.571108" lon="103.361613"><ele>1701.2128</ele><time>2026-07-21T05:22:06.000Z</time></trkpt>
        <trkpt lat="29.571095" lon="103.361605"><ele>1701.2133</ele><time>2026-07-21T05:22:08.000Z</time></trkpt>
        <trkpt lat="29.571083" lon="103.361597"><ele>1701.1907</ele><time>2026-07-21T05:22:10.000Z</time></trkpt>
        <trkpt lat="29.571072" lon="103.361588"><ele>1701.9783</ele><time>2026-07-21T05:22:12.000Z</time></trkpt>
        <trkpt lat="29.571061" lon="103.361579"><ele>1701.8048</ele><time>2026-07-21T05:22:14.000Z</time></trkpt>
        <trkpt lat="29.571052" lon="103.361572"><ele>1702.5288</ele><time>2026-07-21T05:22:16.000Z</time></trkpt>
        <trkpt lat="29.571041" lon="103.361563"><ele>1702.8396</ele><time>2026-07-21T05:22:18.000Z</time></trkpt>
        <trkpt lat="29.571029" lon="103.361553"><ele>1703.9573</ele><time>2026-07-21T05:22:20.000Z</time></trkpt>
        <trkpt lat="29.57102" lon="103.361547"><ele>1704.2278</ele><time>2026-07-21T05:22:22.000Z</time></trkpt>
        <trkpt lat="29.571007" lon="103.361539"><ele>1705.6382</ele><time>2026-07-21T05:22:24.000Z</time></trkpt>
        <trkpt lat="29.570994" lon="103.361532"><ele>1705.3599</ele><time>2026-07-21T05:22:26.000Z</time></trkpt>
        <trkpt lat="29.570981" lon="103.361523"><ele>1706.0714</ele><time>2026-07-21T05:22:28.000Z</time></trkpt>
        <trkpt lat="29.570968" lon="103.361513"><ele>1705.8488</ele><time>2026-07-21T05:22:30.000Z</time></trkpt>
        <trkpt lat="29.570959" lon="103.361504"><ele>1705.826</ele><time>2026-07-21T05:22:32.000Z</time></trkpt>
        <trkpt lat="29.570954" lon="103.361498"><ele>1706.768</ele><time>2026-07-21T05:22:34.000Z</time></trkpt>
        <trkpt lat="29.570944" lon="103.361489"><ele>1706.556</ele><time>2026-07-21T05:22:36.000Z</time></trkpt>
        <trkpt lat="29.570934" lon="103.361481"><ele>1706.9617</ele><time>2026-07-21T05:22:38.000Z</time></trkpt>
        <trkpt lat="29.570918" lon="103.361473"><ele>1706.3975</ele><time>2026-07-21T05:22:40.000Z</time></trkpt>
        <trkpt lat="29.570899" lon="103.361464"><ele>1706.5585</ele><time>2026-07-21T05:22:42.000Z</time></trkpt>
        <trkpt lat="29.570885" lon="103.361459"><ele>1706.3325</ele><time>2026-07-21T05:22:44.000Z</time></trkpt>
        <trkpt lat="29.570867" lon="103.361453"><ele>1706.5696</ele><time>2026-07-21T05:22:46.000Z</time></trkpt>
        <trkpt lat="29.570852" lon="103.361446"><ele>1707.991</ele><time>2026-07-21T05:22:48.000Z</time></trkpt>
        <trkpt lat="29.570836" lon="103.361439"><ele>1708.3206</ele><time>2026-07-21T05:22:50.000Z</time></trkpt>
        <trkpt lat="29.570821" lon="103.361432"><ele>1708.3745</ele><time>2026-07-21T05:22:52.000Z</time></trkpt>
        <trkpt lat="29.570806" lon="103.361424"><ele>1708.5413</ele><time>2026-07-21T05:22:54.000Z</time></trkpt>
        <trkpt lat="29.570795" lon="103.361419"><ele>1709.9794</ele><time>2026-07-21T05:22:56.000Z</time></trkpt>
        <trkpt lat="29.570786" lon="103.361414"><ele>1710.0614</ele><time>2026-07-21T05:22:58.000Z</time></trkpt>
        <trkpt lat="29.570776" lon="103.361409"><ele>1710.2987</ele><time>2026-07-21T05:23:00.000Z</time></trkpt>
        <trkpt lat="29.570765" lon="103.361402"><ele>1710.8403</ele><time>2026-07-21T05:23:02.000Z</time></trkpt>
        <trkpt lat="29.570753" lon="103.361397"><ele>1710.8033</ele><time>2026-07-21T05:23:04.000Z</time></trkpt>
        <trkpt lat="29.570739" lon="103.361392"><ele>1710.6241</ele><time>2026-07-21T05:23:06.000Z</time></trkpt>
        <trkpt lat="29.570718" lon="103.361384"><ele>1710.5592</ele><time>2026-07-21T05:23:08.000Z</time></trkpt>
        <trkpt lat="29.570693" lon="103.361377"><ele>1710.5939</ele><time>2026-07-21T05:23:10.000Z</time></trkpt>
        <trkpt lat="29.570666" lon="103.361369"><ele>1710.1733</ele><time>2026-07-21T05:23:12.000Z</time></trkpt>
        <trkpt lat="29.570638" lon="103.361362"><ele>1709.5974</ele><time>2026-07-21T05:23:14.000Z</time></trkpt>
        <trkpt lat="29.570612" lon="103.361358"><ele>1709.859</ele><time>2026-07-21T05:23:16.000Z</time></trkpt>
        <trkpt lat="29.570589" lon="103.361354"><ele>1709.6239</ele><time>2026-07-21T05:23:18.000Z</time></trkpt>
        <trkpt lat="29.570569" lon="103.361351"><ele>1710.1792</ele><time>2026-07-21T05:23:20.000Z</time></trkpt>
        <trkpt lat="29.570551" lon="103.361348"><ele>1709.9644</ele><time>2026-07-21T05:23:22.000Z</time></trkpt>
        <trkpt lat="29.570535" lon="103.361346"><ele>1709.2389</ele><time>2026-07-21T05:23:24.000Z</time></trkpt>
        <trkpt lat="29.570515" lon="103.361342"><ele>1709.1954</ele><time>2026-07-21T05:23:26.000Z</time></trkpt>
        <trkpt lat="29.570498" lon="103.361338"><ele>1708.9824</ele><time>2026-07-21T05:23:28.000Z</time></trkpt>
        <trkpt lat="29.570483" lon="103.361335"><ele>1709.3999</ele><time>2026-07-21T05:23:30.000Z</time></trkpt>
        <trkpt lat="29.570468" lon="103.361331"><ele>1709.1361</ele><time>2026-07-21T05:23:32.000Z</time></trkpt>
        <trkpt lat="29.570452" lon="103.361325"><ele>1710.1265</ele><time>2026-07-21T05:23:34.000Z</time></trkpt>
        <trkpt lat="29.570433" lon="103.361315"><ele>1710.3535</ele><time>2026-07-21T05:23:36.000Z</time></trkpt>
        <trkpt lat="29.570412" lon="103.361301"><ele>1710.613</ele><time>2026-07-21T05:23:38.000Z</time></trkpt>
        <trkpt lat="29.570392" lon="103.361287"><ele>1709.6553</ele><time>2026-07-21T05:23:40.000Z</time></trkpt>
        <trkpt lat="29.570374" lon="103.361273"><ele>1708.9867</ele><time>2026-07-21T05:23:42.000Z</time></trkpt>
        <trkpt lat="29.57036" lon="103.361261"><ele>1707.8568</ele><time>2026-07-21T05:23:44.000Z</time></trkpt>
        <trkpt lat="29.570344" lon="103.361249"><ele>1707.8169</ele><time>2026-07-21T05:23:46.000Z</time></trkpt>
        <trkpt lat="29.570328" lon="103.361237"><ele>1707.359</ele><time>2026-07-21T05:23:48.000Z</time></trkpt>
        <trkpt lat="29.570312" lon="103.361228"><ele>1707.8926</ele><time>2026-07-21T05:23:50.000Z</time></trkpt>
        <trkpt lat="29.570294" lon="103.36122"><ele>1707.6438</ele><time>2026-07-21T05:23:52.000Z</time></trkpt>
        <trkpt lat="29.570277" lon="103.361214"><ele>1706.8055</ele><time>2026-07-21T05:23:54.000Z</time></trkpt>
        <trkpt lat="29.570257" lon="103.361209"><ele>1706.4836</ele><time>2026-07-21T05:23:56.000Z</time></trkpt>
        <trkpt lat="29.570238" lon="103.361203"><ele>1706.8557</ele><time>2026-07-21T05:23:58.000Z</time></trkpt>
        <trkpt lat="29.570222" lon="103.361198"><ele>1706.869</ele><time>2026-07-21T05:24:00.000Z</time></trkpt>
        <trkpt lat="29.570206" lon="103.361194"><ele>1707.0613</ele><time>2026-07-21T05:24:02.000Z</time></trkpt>
        <trkpt lat="29.570189" lon="103.36119"><ele>1707.0582</ele><time>2026-07-21T05:24:04.000Z</time></trkpt>
        <trkpt lat="29.570172" lon="103.361187"><ele>1706.6931</ele><time>2026-07-21T05:24:06.000Z</time></trkpt>
        <trkpt lat="29.570156" lon="103.361184"><ele>1708.0709</ele><time>2026-07-21T05:24:08.000Z</time></trkpt>
        <trkpt lat="29.570138" lon="103.36118"><ele>1709.1958</ele><time>2026-07-21T05:24:10.000Z</time></trkpt>
        <trkpt lat="29.570118" lon="103.361176"><ele>1710.534</ele><time>2026-07-21T05:24:12.000Z</time></trkpt>
        <trkpt lat="29.570099" lon="103.361171"><ele>1710.703</ele><time>2026-07-21T05:24:14.000Z</time></trkpt>
        <trkpt lat="29.570079" lon="103.361167"><ele>1710.9445</ele><time>2026-07-21T05:24:16.000Z</time></trkpt>
        <trkpt lat="29.570066" lon="103.361164"><ele>1710.171</ele><time>2026-07-21T05:24:18.000Z</time></trkpt>
        <trkpt lat="29.570052" lon="103.361162"><ele>1709.8904</ele><time>2026-07-21T05:24:20.000Z</time></trkpt>
        <trkpt lat="29.570037" lon="103.361159"><ele>1709.6119</ele><time>2026-07-21T05:24:22.000Z</time></trkpt>
        <trkpt lat="29.570023" lon="103.361155"><ele>1709.1827</ele><time>2026-07-21T05:24:24.000Z</time></trkpt>
        <trkpt lat="29.570017" lon="103.361149"><ele>1709.3689</ele><time>2026-07-21T05:24:26.000Z</time></trkpt>
        <trkpt lat="29.570011" lon="103.361139"><ele>1709.754</ele><time>2026-07-21T05:24:30.000Z</time></trkpt>
        <trkpt lat="29.570001" lon="103.361128"><ele>1711.9717</ele><time>2026-07-21T05:24:36.000Z</time></trkpt>
        <trkpt lat="29.569988" lon="103.361114"><ele>1713.1879</ele><time>2026-07-21T05:24:38.000Z</time></trkpt>
        <trkpt lat="29.569987" lon="103.361113"><ele>1713.1769</ele><time>2026-07-21T05:24:40.000Z</time></trkpt>
        <trkpt lat="29.569979" lon="103.361096"><ele>1713.0186</ele><time>2026-07-21T05:24:44.000Z</time></trkpt>
        <trkpt lat="29.569969" lon="103.361079"><ele>1713.422</ele><time>2026-07-21T05:24:46.000Z</time></trkpt>
        <trkpt lat="29.56996" lon="103.361064"><ele>1713.0613</ele><time>2026-07-21T05:24:48.000Z</time></trkpt>
        <trkpt lat="29.56995" lon="103.361053"><ele>1713.7559</ele><time>2026-07-21T05:24:50.000Z</time></trkpt>
        <trkpt lat="29.569941" lon="103.361046"><ele>1714.2778</ele><time>2026-07-21T05:24:52.000Z</time></trkpt>
        <trkpt lat="29.569931" lon="103.361038"><ele>1714.893</ele><time>2026-07-21T05:24:54.000Z</time></trkpt>
        <trkpt lat="29.56992" lon="103.361033"><ele>1714.3524</ele><time>2026-07-21T05:24:56.000Z</time></trkpt>
        <trkpt lat="29.569907" lon="103.361027"><ele>1715.0447</ele><time>2026-07-21T05:24:58.000Z</time></trkpt>
        <trkpt lat="29.569896" lon="103.361022"><ele>1716.174</ele><time>2026-07-21T05:25:00.000Z</time></trkpt>
        <trkpt lat="29.569883" lon="103.361017"><ele>1716.561</ele><time>2026-07-21T05:25:02.000Z</time></trkpt>
        <trkpt lat="29.569871" lon="103.361013"><ele>1716.7109</ele><time>2026-07-21T05:25:04.000Z</time></trkpt>
        <trkpt lat="29.569858" lon="103.361009"><ele>1716.6545</ele><time>2026-07-21T05:25:06.000Z</time></trkpt>
        <trkpt lat="29.569843" lon="103.361005"><ele>1717.031</ele><time>2026-07-21T05:25:08.000Z</time></trkpt>
        <trkpt lat="29.569828" lon="103.360998"><ele>1716.9767</ele><time>2026-07-21T05:25:10.000Z</time></trkpt>
        <trkpt lat="29.569813" lon="103.360992"><ele>1716.755</ele><time>2026-07-21T05:25:12.000Z</time></trkpt>
        <trkpt lat="29.569797" lon="103.360986"><ele>1716.0845</ele><time>2026-07-21T05:25:14.000Z</time></trkpt>
        <trkpt lat="29.569785" lon="103.360981"><ele>1716.5879</ele><time>2026-07-21T05:25:16.000Z</time></trkpt>
        <trkpt lat="29.569772" lon="103.360973"><ele>1717.0464</ele><time>2026-07-21T05:25:18.000Z</time></trkpt>
        <trkpt lat="29.569761" lon="103.360964"><ele>1717.8456</ele><time>2026-07-21T05:25:20.000Z</time></trkpt>
        <trkpt lat="29.569748" lon="103.360954"><ele>1718.3392</ele><time>2026-07-21T05:25:22.000Z</time></trkpt>
        <trkpt lat="29.569737" lon="103.360945"><ele>1718.4758</ele><time>2026-07-21T05:25:24.000Z</time></trkpt>
        <trkpt lat="29.569724" lon="103.360934"><ele>1718.072</ele><time>2026-07-21T05:25:26.000Z</time></trkpt>
        <trkpt lat="29.569712" lon="103.360923"><ele>1717.0742</ele><time>2026-07-21T05:25:28.000Z</time></trkpt>
        <trkpt lat="29.569698" lon="103.360911"><ele>1717.2404</ele><time>2026-07-21T05:25:30.000Z</time></trkpt>
        <trkpt lat="29.569689" lon="103.3609"><ele>1718.5385</ele><time>2026-07-21T05:25:32.000Z</time></trkpt>
        <trkpt lat="29.569677" lon="103.360886"><ele>1716.7537</ele><time>2026-07-21T05:25:34.000Z</time></trkpt>
        <trkpt lat="29.569667" lon="103.360873"><ele>1716.9669</ele><time>2026-07-21T05:25:36.000Z</time></trkpt>
        <trkpt lat="29.569658" lon="103.360862"><ele>1717.8485</ele><time>2026-07-21T05:25:38.000Z</time></trkpt>
        <trkpt lat="29.569648" lon="103.360849"><ele>1717.2264</ele><time>2026-07-21T05:25:40.000Z</time></trkpt>
        <trkpt lat="29.569637" lon="103.360835"><ele>1717.2799</ele><time>2026-07-21T05:25:42.000Z</time></trkpt>
        <trkpt lat="29.569626" lon="103.360821"><ele>1717.35</ele><time>2026-07-21T05:25:44.000Z</time></trkpt>
        <trkpt lat="29.569615" lon="103.36081"><ele>1718.0695</ele><time>2026-07-21T05:25:46.000Z</time></trkpt>
        <trkpt lat="29.569605" lon="103.3608"><ele>1718.1135</ele><time>2026-07-21T05:25:48.000Z</time></trkpt>
        <trkpt lat="29.569592" lon="103.36079"><ele>1718.4862</ele><time>2026-07-21T05:25:50.000Z</time></trkpt>
        <trkpt lat="29.56958" lon="103.360783"><ele>1719.7802</ele><time>2026-07-21T05:25:52.000Z</time></trkpt>
        <trkpt lat="29.569565" lon="103.360774"><ele>1720.3934</ele><time>2026-07-21T05:25:54.000Z</time></trkpt>
        <trkpt lat="29.569546" lon="103.360765"><ele>1720.6747</ele><time>2026-07-21T05:25:56.000Z</time></trkpt>
        <trkpt lat="29.569527" lon="103.360756"><ele>1720.2804</ele><time>2026-07-21T05:25:58.000Z</time></trkpt>
        <trkpt lat="29.569511" lon="103.36075"><ele>1720.4208</ele><time>2026-07-21T05:26:00.000Z</time></trkpt>
        <trkpt lat="29.569496" lon="103.360743"><ele>1721.2756</ele><time>2026-07-21T05:26:02.000Z</time></trkpt>
        <trkpt lat="29.569481" lon="103.360735"><ele>1722.1823</ele><time>2026-07-21T05:26:04.000Z</time></trkpt>
        <trkpt lat="29.569468" lon="103.36073"><ele>1722.0896</ele><time>2026-07-21T05:26:06.000Z</time></trkpt>
        <trkpt lat="29.569455" lon="103.360724"><ele>1721.6003</ele><time>2026-07-21T05:26:08.000Z</time></trkpt>
        <trkpt lat="29.569444" lon="103.360719"><ele>1720.815</ele><time>2026-07-21T05:26:10.000Z</time></trkpt>
        <trkpt lat="29.569437" lon="103.360713"><ele>1721.1555</ele><time>2026-07-21T05:26:12.000Z</time></trkpt>
        <trkpt lat="29.569422" lon="103.360697"><ele>1721.1427</ele><time>2026-07-21T05:26:16.000Z</time></trkpt>
        <trkpt lat="29.569415" lon="103.360689"><ele>1720.1948</ele><time>2026-07-21T05:26:18.000Z</time></trkpt>
        <trkpt lat="29.569407" lon="103.360679"><ele>1721.0621</ele><time>2026-07-21T05:26:20.000Z</time></trkpt>
        <trkpt lat="29.569399" lon="103.360667"><ele>1721.5315</ele><time>2026-07-21T05:26:22.000Z</time></trkpt>
        <trkpt lat="29.569391" lon="103.360656"><ele>1722.5963</ele><time>2026-07-21T05:26:24.000Z</time></trkpt>
        <trkpt lat="29.56938" lon="103.360644"><ele>1722.811</ele><time>2026-07-21T05:26:26.000Z</time></trkpt>
        <trkpt lat="29.569367" lon="103.360632"><ele>1722.1368</ele><time>2026-07-21T05:26:28.000Z</time></trkpt>
        <trkpt lat="29.569352" lon="103.360622"><ele>1722.7638</ele><time>2026-07-21T05:26:30.000Z</time></trkpt>
        <trkpt lat="29.569337" lon="103.360613"><ele>1723.292</ele><time>2026-07-21T05:26:32.000Z</time></trkpt>
        <trkpt lat="29.569322" lon="103.360605"><ele>1724.8269</ele><time>2026-07-21T05:26:34.000Z</time></trkpt>
        <trkpt lat="29.569311" lon="103.360598"><ele>1724.6765</ele><time>2026-07-21T05:26:36.000Z</time></trkpt>
        <trkpt lat="29.5693" lon="103.360593"><ele>1725.4229</ele><time>2026-07-21T05:26:38.000Z</time></trkpt>
        <trkpt lat="29.569289" lon="103.360587"><ele>1725.4938</ele><time>2026-07-21T05:26:40.000Z</time></trkpt>
        <trkpt lat="29.569277" lon="103.360581"><ele>1725.3824</ele><time>2026-07-21T05:26:42.000Z</time></trkpt>
        <trkpt lat="29.569266" lon="103.360572"><ele>1725.2023</ele><time>2026-07-21T05:26:44.000Z</time></trkpt>
        <trkpt lat="29.569259" lon="103.360564"><ele>1725.3296</ele><time>2026-07-21T05:26:46.000Z</time></trkpt>
        <trkpt lat="29.569252" lon="103.360556"><ele>1726.0448</ele><time>2026-07-21T05:26:48.000Z</time></trkpt>
        <trkpt lat="29.569245" lon="103.360545"><ele>1726.553</ele><time>2026-07-21T05:26:50.000Z</time></trkpt>
        <trkpt lat="29.569239" lon="103.360534"><ele>1726.8173</ele><time>2026-07-21T05:26:52.000Z</time></trkpt>
        <trkpt lat="29.569231" lon="103.360523"><ele>1727.0111</ele><time>2026-07-21T05:26:54.000Z</time></trkpt>
        <trkpt lat="29.569224" lon="103.360513"><ele>1727.7042</ele><time>2026-07-21T05:26:56.000Z</time></trkpt>
        <trkpt lat="29.569218" lon="103.360503"><ele>1729.0532</ele><time>2026-07-21T05:26:58.000Z</time></trkpt>
        <trkpt lat="29.569209" lon="103.36049"><ele>1729.0448</ele><time>2026-07-21T05:27:00.000Z</time></trkpt>
        <trkpt lat="29.5692" lon="103.360477"><ele>1728.427</ele><time>2026-07-21T05:27:02.000Z</time></trkpt>
        <trkpt lat="29.569189" lon="103.360461"><ele>1727.7817</ele><time>2026-07-21T05:27:04.000Z</time></trkpt>
        <trkpt lat="29.569178" lon="103.360447"><ele>1728.1371</ele><time>2026-07-21T05:27:06.000Z</time></trkpt>
        <trkpt lat="29.569167" lon="103.360435"><ele>1728.0023</ele><time>2026-07-21T05:27:08.000Z</time></trkpt>
        <trkpt lat="29.569157" lon="103.360426"><ele>1728.3029</ele><time>2026-07-21T05:27:10.000Z</time></trkpt>
        <trkpt lat="29.569145" lon="103.360416"><ele>1728.5164</ele><time>2026-07-21T05:27:12.000Z</time></trkpt>
        <trkpt lat="29.569132" lon="103.360404"><ele>1728.2054</ele><time>2026-07-21T05:27:14.000Z</time></trkpt>
        <trkpt lat="29.569121" lon="103.360395"><ele>1728.2583</ele><time>2026-07-21T05:27:16.000Z</time></trkpt>
        <trkpt lat="29.569109" lon="103.360384"><ele>1727.6211</ele><time>2026-07-21T05:27:18.000Z</time></trkpt>
        <trkpt lat="29.569096" lon="103.360373"><ele>1728.662</ele><time>2026-07-21T05:27:20.000Z</time></trkpt>
        <trkpt lat="29.56908" lon="103.360359"><ele>1728.7297</ele><time>2026-07-21T05:27:22.000Z</time></trkpt>
        <trkpt lat="29.56907" lon="103.360351"><ele>1728.5922</ele><time>2026-07-21T05:27:24.000Z</time></trkpt>
        <trkpt lat="29.569061" lon="103.360348"><ele>1728.8593</ele><time>2026-07-21T05:27:26.000Z</time></trkpt>
        <trkpt lat="29.569052" lon="103.360348"><ele>1728.1418</ele><time>2026-07-21T05:27:28.000Z</time></trkpt>
        <trkpt lat="29.569035" lon="103.36035"><ele>1728.4781</ele><time>2026-07-21T05:27:32.000Z</time></trkpt>
        <trkpt lat="29.56903" lon="103.360351"><ele>1728.7717</ele><time>2026-07-21T05:27:34.000Z</time></trkpt>
        <trkpt lat="29.569021" lon="103.360344"><ele>1729.27</ele><time>2026-07-21T05:27:42.000Z</time></trkpt>
        <trkpt lat="29.569001" lon="103.36033"><ele>1729.5173</ele><time>2026-07-21T05:27:46.000Z</time></trkpt>
        <trkpt lat="29.569001" lon="103.36033"><ele>1729.3643</ele><time>2026-07-21T05:27:48.000Z</time></trkpt>
        <trkpt lat="29.568993" lon="103.360321"><ele>1730.0563</ele><time>2026-07-21T05:27:52.000Z</time></trkpt>
        <trkpt lat="29.568971" lon="103.360292"><ele>1730.5121</ele><time>2026-07-21T05:27:56.000Z</time></trkpt>
        <trkpt lat="29.568959" lon="103.360275"><ele>1730.762</ele><time>2026-07-21T05:27:58.000Z</time></trkpt>
        <trkpt lat="29.568947" lon="103.360259"><ele>1730.7174</ele><time>2026-07-21T05:28:00.000Z</time></trkpt>
        <trkpt lat="29.568936" lon="103.360248"><ele>1730.8645</ele><time>2026-07-21T05:28:02.000Z</time></trkpt>
        <trkpt lat="29.568925" lon="103.360238"><ele>1731.8167</ele><time>2026-07-21T05:28:04.000Z</time></trkpt>
        <trkpt lat="29.568914" lon="103.360228"><ele>1731.4525</ele><time>2026-07-21T05:28:06.000Z</time></trkpt>
        <trkpt lat="29.568905" lon="103.360217"><ele>1732.3733</ele><time>2026-07-21T05:28:08.000Z</time></trkpt>
        <trkpt lat="29.568898" lon="103.360207"><ele>1732.4099</ele><time>2026-07-21T05:28:10.000Z</time></trkpt>
        <trkpt lat="29.568889" lon="103.360194"><ele>1732.1914</ele><time>2026-07-21T05:28:12.000Z</time></trkpt>
        <trkpt lat="29.568886" lon="103.360185"><ele>1731.942</ele><time>2026-07-21T05:28:14.000Z</time></trkpt>
        <trkpt lat="29.568881" lon="103.360175"><ele>1732.5272</ele><time>2026-07-21T05:28:16.000Z</time></trkpt>
        <trkpt lat="29.568874" lon="103.360163"><ele>1732.4818</ele><time>2026-07-21T05:28:18.000Z</time></trkpt>
        <trkpt lat="29.568868" lon="103.360152"><ele>1734.6038</ele><time>2026-07-21T05:28:20.000Z</time></trkpt>
        <trkpt lat="29.56886" lon="103.360139"><ele>1734.6919</ele><time>2026-07-21T05:28:22.000Z</time></trkpt>
        <trkpt lat="29.568851" lon="103.360125"><ele>1735.8086</ele><time>2026-07-21T05:28:24.000Z</time></trkpt>
        <trkpt lat="29.568844" lon="103.360111"><ele>1735.8759</ele><time>2026-07-21T05:28:26.000Z</time></trkpt>
        <trkpt lat="29.568836" lon="103.360092"><ele>1734.4097</ele><time>2026-07-21T05:28:28.000Z</time></trkpt>
        <trkpt lat="29.568827" lon="103.360073"><ele>1734.763</ele><time>2026-07-21T05:28:30.000Z</time></trkpt>
        <trkpt lat="29.568817" lon="103.360051"><ele>1735.2693</ele><time>2026-07-21T05:28:32.000Z</time></trkpt>
        <trkpt lat="29.56881" lon="103.360031"><ele>1735.4135</ele><time>2026-07-21T05:28:34.000Z</time></trkpt>
        <trkpt lat="29.568804" lon="103.360011"><ele>1735.6031</ele><time>2026-07-21T05:28:36.000Z</time></trkpt>
        <trkpt lat="29.568801" lon="103.359991"><ele>1735.2944</ele><time>2026-07-21T05:28:38.000Z</time></trkpt>
        <trkpt lat="29.568799" lon="103.359971"><ele>1734.9707</ele><time>2026-07-21T05:28:40.000Z</time></trkpt>
        <trkpt lat="29.568798" lon="103.35995"><ele>1735.287</ele><time>2026-07-21T05:28:42.000Z</time></trkpt>
        <trkpt lat="29.568797" lon="103.359934"><ele>1734.9097</ele><time>2026-07-21T05:28:44.000Z</time></trkpt>
        <trkpt lat="29.568795" lon="103.359915"><ele>1735.6842</ele><time>2026-07-21T05:28:46.000Z</time></trkpt>
        <trkpt lat="29.568794" lon="103.359899"><ele>1735.693</ele><time>2026-07-21T05:28:48.000Z</time></trkpt>
        <trkpt lat="29.568793" lon="103.35988"><ele>1735.5876</ele><time>2026-07-21T05:28:50.000Z</time></trkpt>
        <trkpt lat="29.568791" lon="103.359863"><ele>1736.2635</ele><time>2026-07-21T05:28:52.000Z</time></trkpt>
        <trkpt lat="29.568791" lon="103.359845"><ele>1736.2336</ele><time>2026-07-21T05:28:54.000Z</time></trkpt>
        <trkpt lat="29.568792" lon="103.359826"><ele>1736.0885</ele><time>2026-07-21T05:28:56.000Z</time></trkpt>
        <trkpt lat="29.568794" lon="103.359804"><ele>1736.5195</ele><time>2026-07-21T05:28:58.000Z</time></trkpt>
        <trkpt lat="29.568798" lon="103.359783"><ele>1737.3644</ele><time>2026-07-21T05:29:00.000Z</time></trkpt>
        <trkpt lat="29.568799" lon="103.359767"><ele>1738.5074</ele><time>2026-07-21T05:29:02.000Z</time></trkpt>
        <trkpt lat="29.568798" lon="103.35975"><ele>1739.198</ele><time>2026-07-21T05:29:04.000Z</time></trkpt>
        <trkpt lat="29.568796" lon="103.359737"><ele>1738.7985</ele><time>2026-07-21T05:29:06.000Z</time></trkpt>
        <trkpt lat="29.568792" lon="103.359722"><ele>1738.479</ele><time>2026-07-21T05:29:08.000Z</time></trkpt>
        <trkpt lat="29.568787" lon="103.359709"><ele>1738.7524</ele><time>2026-07-21T05:29:10.000Z</time></trkpt>
        <trkpt lat="29.568781" lon="103.359699"><ele>1738.8188</ele><time>2026-07-21T05:29:12.000Z</time></trkpt>
        <trkpt lat="29.568775" lon="103.35969"><ele>1738.5925</ele><time>2026-07-21T05:29:14.000Z</time></trkpt>
        <trkpt lat="29.568765" lon="103.359682"><ele>1738.5656</ele><time>2026-07-21T05:29:16.000Z</time></trkpt>
        <trkpt lat="29.568752" lon="103.359676"><ele>1738.6488</ele><time>2026-07-21T05:29:18.000Z</time></trkpt>
        <trkpt lat="29.568734" lon="103.359672"><ele>1738.5791</ele><time>2026-07-21T05:29:20.000Z</time></trkpt>
        <trkpt lat="29.568713" lon="103.359671"><ele>1738.3087</ele><time>2026-07-21T05:29:22.000Z</time></trkpt>
        <trkpt lat="29.568694" lon="103.359669"><ele>1738.4608</ele><time>2026-07-21T05:29:24.000Z</time></trkpt>
        <trkpt lat="29.568677" lon="103.359667"><ele>1737.2311</ele><time>2026-07-21T05:29:26.000Z</time></trkpt>
        <trkpt lat="29.568658" lon="103.359664"><ele>1737.9758</ele><time>2026-07-21T05:29:28.000Z</time></trkpt>
        <trkpt lat="29.56864" lon="103.359661"><ele>1738.0756</ele><time>2026-07-21T05:29:30.000Z</time></trkpt>
        <trkpt lat="29.568618" lon="103.35966"><ele>1737.7406</ele><time>2026-07-21T05:29:32.000Z</time></trkpt>
        <trkpt lat="29.568598" lon="103.35966"><ele>1738.0433</ele><time>2026-07-21T05:29:34.000Z</time></trkpt>
        <trkpt lat="29.568576" lon="103.359659"><ele>1738.5731</ele><time>2026-07-21T05:29:36.000Z</time></trkpt>
        <trkpt lat="29.568557" lon="103.359656"><ele>1738.6519</ele><time>2026-07-21T05:29:38.000Z</time></trkpt>
        <trkpt lat="29.568536" lon="103.359655"><ele>1738.3744</ele><time>2026-07-21T05:29:40.000Z</time></trkpt>
        <trkpt lat="29.56852" lon="103.359655"><ele>1740.0055</ele><time>2026-07-21T05:29:42.000Z</time></trkpt>
        <trkpt lat="29.568512" lon="103.359654"><ele>1740.612</ele><time>2026-07-21T05:29:44.000Z</time></trkpt>
        <trkpt lat="29.568503" lon="103.359654"><ele>1741.2922</ele><time>2026-07-21T05:29:46.000Z</time></trkpt>
        <trkpt lat="29.568487" lon="103.359654"><ele>1740.7045</ele><time>2026-07-21T05:29:48.000Z</time></trkpt>
        <trkpt lat="29.568469" lon="103.359656"><ele>1740.7542</ele><time>2026-07-21T05:29:50.000Z</time></trkpt>
        <trkpt lat="29.568447" lon="103.359659"><ele>1740.78</ele><time>2026-07-21T05:29:52.000Z</time></trkpt>
        <trkpt lat="29.568426" lon="103.35966"><ele>1740.688</ele><time>2026-07-21T05:29:54.000Z</time></trkpt>
        <trkpt lat="29.568406" lon="103.35966"><ele>1740.6898</ele><time>2026-07-21T05:29:56.000Z</time></trkpt>
        <trkpt lat="29.568387" lon="103.35966"><ele>1740.7693</ele><time>2026-07-21T05:29:58.000Z</time></trkpt>
        <trkpt lat="29.568369" lon="103.359659"><ele>1740.5121</ele><time>2026-07-21T05:30:00.000Z</time></trkpt>
        <trkpt lat="29.568353" lon="103.359656"><ele>1738.9387</ele><time>2026-07-21T05:30:02.000Z</time></trkpt>
        <trkpt lat="29.568336" lon="103.359651"><ele>1738.8129</ele><time>2026-07-21T05:30:04.000Z</time></trkpt>
        <trkpt lat="29.568323" lon="103.359648"><ele>1739.625</ele><time>2026-07-21T05:30:06.000Z</time></trkpt>
        <trkpt lat="29.568309" lon="103.359646"><ele>1740.3331</ele><time>2026-07-21T05:30:08.000Z</time></trkpt>
        <trkpt lat="29.568309" lon="103.359645"><ele>1740.3655</ele><time>2026-07-21T05:30:10.000Z</time></trkpt>
        <trkpt lat="29.568314" lon="103.359612"><ele>1739.8685</ele><time>2026-07-21T05:30:18.000Z</time></trkpt>
        <trkpt lat="29.568314" lon="103.359605"><ele>1740.0168</ele><time>2026-07-21T05:30:20.000Z</time></trkpt>
        <trkpt lat="29.568314" lon="103.359604"><ele>1740.0107</ele><time>2026-07-21T05:30:22.000Z</time></trkpt>
        <trkpt lat="29.568336" lon="103.359653"><ele>1739.9932</ele><time>2026-07-21T05:30:30.000Z</time></trkpt>
        <trkpt lat="29.568337" lon="103.359653"><ele>1739.5328</ele><time>2026-07-21T05:30:32.000Z</time></trkpt>
        <trkpt lat="29.568339" lon="103.359659"><ele>1740.2415</ele><time>2026-07-21T05:30:34.000Z</time></trkpt>
        <trkpt lat="29.56836" lon="103.35972"><ele>1741.0839</ele><time>2026-07-21T05:30:38.000Z</time></trkpt>
        <trkpt lat="29.56837" lon="103.359752"><ele>1741.0062</ele><time>2026-07-21T05:30:40.000Z</time></trkpt>
        <trkpt lat="29.568378" lon="103.359782"><ele>1741.0519</ele><time>2026-07-21T05:30:42.000Z</time></trkpt>
        <trkpt lat="29.568384" lon="103.359806"><ele>1740.7943</ele><time>2026-07-21T05:30:44.000Z</time></trkpt>
        <trkpt lat="29.56839" lon="103.359826"><ele>1741.1621</ele><time>2026-07-21T05:30:46.000Z</time></trkpt>
        <trkpt lat="29.568396" lon="103.359847"><ele>1741.1023</ele><time>2026-07-21T05:30:48.000Z</time></trkpt>
        <trkpt lat="29.568403" lon="103.359868"><ele>1741.1884</ele><time>2026-07-21T05:30:50.000Z</time></trkpt>
        <trkpt lat="29.568409" lon="103.35989"><ele>1741.0999</ele><time>2026-07-21T05:30:52.000Z</time></trkpt>
        <trkpt lat="29.568416" lon="103.359914"><ele>1740.9575</ele><time>2026-07-21T05:30:54.000Z</time></trkpt>
        <trkpt lat="29.568423" lon="103.359938"><ele>1739.9694</ele><time>2026-07-21T05:30:56.000Z</time></trkpt>
        <trkpt lat="29.568428" lon="103.359957"><ele>1739.9325</ele><time>2026-07-21T05:30:58.000Z</time></trkpt>
        <trkpt lat="29.568435" lon="103.359974"><ele>1739.5446</ele><time>2026-07-21T05:31:00.000Z</time></trkpt>
        <trkpt lat="29.568444" lon="103.35999"><ele>1739.6216</ele><time>2026-07-21T05:31:02.000Z</time></trkpt>
        <trkpt lat="29.568452" lon="103.360005"><ele>1739.9912</ele><time>2026-07-21T05:31:04.000Z</time></trkpt>
        <trkpt lat="29.568458" lon="103.360024"><ele>1740.5702</ele><time>2026-07-21T05:31:06.000Z</time></trkpt>
        <trkpt lat="29.568464" lon="103.360044"><ele>1741.0997</ele><time>2026-07-21T05:31:08.000Z</time></trkpt>
        <trkpt lat="29.568471" lon="103.360069"><ele>1740.8762</ele><time>2026-07-21T05:31:10.000Z</time></trkpt>
        <trkpt lat="29.56848" lon="103.360098"><ele>1740.6691</ele><time>2026-07-21T05:31:12.000Z</time></trkpt>
        <trkpt lat="29.568493" lon="103.360124"><ele>1740.8464</ele><time>2026-07-21T05:31:14.000Z</time></trkpt>
        <trkpt lat="29.568509" lon="103.360145"><ele>1741.0753</ele><time>2026-07-21T05:31:16.000Z</time></trkpt>
        <trkpt lat="29.568527" lon="103.360165"><ele>1741.5347</ele><time>2026-07-21T05:31:18.000Z</time></trkpt>
        <trkpt lat="29.568546" lon="103.360183"><ele>1740.4286</ele><time>2026-07-21T05:31:20.000Z</time></trkpt>
        <trkpt lat="29.568558" lon="103.360195"><ele>1739.6414</ele><time>2026-07-21T05:31:22.000Z</time></trkpt>
        <trkpt lat="29.568558" lon="103.360196"><ele>1737.6118</ele><time>2026-07-21T05:31:24.000Z</time></trkpt>
        <trkpt lat="29.568562" lon="103.360213"><ele>1739.9172</ele><time>2026-07-21T05:31:40.000Z</time></trkpt>
        <trkpt lat="29.568567" lon="103.360214"><ele>1734.8481</ele><time>2026-07-21T05:32:59.000Z</time></trkpt>
        <trkpt lat="29.568583" lon="103.360222"><ele>1731.4697</ele><time>2026-07-21T05:33:20.000Z</time></trkpt>
        <trkpt lat="29.568604" lon="103.360232"><ele>1732.4325</ele><time>2026-07-21T05:33:39.000Z</time></trkpt>
        <trkpt lat="29.568618" lon="103.360238"><ele>1732.4457</ele><time>2026-07-21T05:33:41.000Z</time></trkpt>
        <trkpt lat="29.568618" lon="103.360239"><ele>1732.4365</ele><time>2026-07-21T05:33:43.000Z</time></trkpt>
        <trkpt lat="29.568594" lon="103.360171"><ele>1732.7528</ele><time>2026-07-21T05:34:03.000Z</time></trkpt>
        <trkpt lat="29.568594" lon="103.360171"><ele>1732.4915</ele><time>2026-07-21T05:34:05.000Z</time></trkpt>
        <trkpt lat="29.56859" lon="103.360173"><ele>1732.543</ele><time>2026-07-21T05:34:07.000Z</time></trkpt>
        <trkpt lat="29.568563" lon="103.360186"><ele>1733.5254</ele><time>2026-07-21T05:34:11.000Z</time></trkpt>
        <trkpt lat="29.568554" lon="103.36019"><ele>1733.8105</ele><time>2026-07-21T05:34:13.000Z</time></trkpt>
        <trkpt lat="29.568554" lon="103.360192"><ele>1734.8264</ele><time>2026-07-21T05:34:15.000Z</time></trkpt>
        <trkpt lat="29.568555" lon="103.36015"><ele>1736.0234</ele><time>2026-07-21T05:34:31.000Z</time></trkpt>
        <trkpt lat="29.568552" lon="103.360148"><ele>1736.2388</ele><time>2026-07-21T05:34:33.000Z</time></trkpt>
        <trkpt lat="29.568538" lon="103.360133"><ele>1736.4093</ele><time>2026-07-21T05:34:35.000Z</time></trkpt>
        <trkpt lat="29.568528" lon="103.360122"><ele>1737.6599</ele><time>2026-07-21T05:34:37.000Z</time></trkpt>
        <trkpt lat="29.568528" lon="103.360121"><ele>1738.7993</ele><time>2026-07-21T05:34:39.000Z</time></trkpt>
        <trkpt lat="29.568513" lon="103.360085"><ele>1738.8438</ele><time>2026-07-21T05:34:45.000Z</time></trkpt>
        <trkpt lat="29.568504" lon="103.360062"><ele>1738.8544</ele><time>2026-07-21T05:34:47.000Z</time></trkpt>
        <trkpt lat="29.568494" lon="103.360036"><ele>1739.6896</ele><time>2026-07-21T05:34:49.000Z</time></trkpt>
        <trkpt lat="29.568486" lon="103.360015"><ele>1738.765</ele><time>2026-07-21T05:34:51.000Z</time></trkpt>
        <trkpt lat="29.568479" lon="103.359997"><ele>1739.0537</ele><time>2026-07-21T05:34:53.000Z</time></trkpt>
        <trkpt lat="29.568473" lon="103.359981"><ele>1738.5444</ele><time>2026-07-21T05:34:55.000Z</time></trkpt>
        <trkpt lat="29.568467" lon="103.359968"><ele>1739.4734</ele><time>2026-07-21T05:34:57.000Z</time></trkpt>
        <trkpt lat="29.56846" lon="103.359956"><ele>1739.396</ele><time>2026-07-21T05:34:59.000Z</time></trkpt>
        <trkpt lat="29.568453" lon="103.359952"><ele>1739.1198</ele><time>2026-07-21T05:35:01.000Z</time></trkpt>
        <trkpt lat="29.568446" lon="103.359942"><ele>1737.7017</ele><time>2026-07-21T05:35:09.000Z</time></trkpt>
        <trkpt lat="29.568441" lon="103.359931"><ele>1737.8235</ele><time>2026-07-21T05:35:36.000Z</time></trkpt>
        <trkpt lat="29.56843" lon="103.359906"><ele>1737.4501</ele><time>2026-07-21T05:35:38.000Z</time></trkpt>
        <trkpt lat="29.56842" lon="103.359883"><ele>1737.7194</ele><time>2026-07-21T05:35:40.000Z</time></trkpt>
        <trkpt lat="29.56842" lon="103.359881"><ele>1738.5723</ele><time>2026-07-21T05:35:42.000Z</time></trkpt>
        <trkpt lat="29.568419" lon="103.359874"><ele>1737.6874</ele><time>2026-07-21T05:35:44.000Z</time></trkpt>
        <trkpt lat="29.568411" lon="103.359822"><ele>1737.5228</ele><time>2026-07-21T05:35:48.000Z</time></trkpt>
        <trkpt lat="29.568406" lon="103.359794"><ele>1737.2294</ele><time>2026-07-21T05:35:50.000Z</time></trkpt>
        <trkpt lat="29.5684" lon="103.359765"><ele>1737.054</ele><time>2026-07-21T05:35:52.000Z</time></trkpt>
        <trkpt lat="29.568394" lon="103.359739"><ele>1737.4226</ele><time>2026-07-21T05:35:54.000Z</time></trkpt>
        <trkpt lat="29.568387" lon="103.359718"><ele>1737.3273</ele><time>2026-07-21T05:35:56.000Z</time></trkpt>
        <trkpt lat="29.568376" lon="103.359695"><ele>1737.0472</ele><time>2026-07-21T05:35:58.000Z</time></trkpt>
        <trkpt lat="29.568358" lon="103.359677"><ele>1737.7087</ele><time>2026-07-21T05:36:00.000Z</time></trkpt>
        <trkpt lat="29.568338" lon="103.359664"><ele>1737.5048</ele><time>2026-07-21T05:36:02.000Z</time></trkpt>
        <trkpt lat="29.568319" lon="103.359657"><ele>1738.6592</ele><time>2026-07-21T05:36:04.000Z</time></trkpt>
        <trkpt lat="29.568299" lon="103.359652"><ele>1739.7742</ele><time>2026-07-21T05:36:06.000Z</time></trkpt>
        <trkpt lat="29.568282" lon="103.359648"><ele>1739.7468</ele><time>2026-07-21T05:36:08.000Z</time></trkpt>
        <trkpt lat="29.568271" lon="103.359648"><ele>1740.866</ele><time>2026-07-21T05:36:10.000Z</time></trkpt>
        <trkpt lat="29.568269" lon="103.35965"><ele>1741.181</ele><time>2026-07-21T05:36:12.000Z</time></trkpt>
        <trkpt lat="29.568313" lon="103.359603"><ele>1741.2617</ele><time>2026-07-21T05:36:26.000Z</time></trkpt>
        <trkpt lat="29.568313" lon="103.359603"><ele>1740.5762</ele><time>2026-07-21T05:36:28.000Z</time></trkpt>
        <trkpt lat="29.568314" lon="103.359605"><ele>1740.1992</ele><time>2026-07-21T05:36:30.000Z</time></trkpt>
        <trkpt lat="29.568296" lon="103.359571"><ele>1738.0835</ele><time>2026-07-21T05:36:40.000Z</time></trkpt>
        <trkpt lat="29.568296" lon="103.359571"><ele>1736.8737</ele><time>2026-07-21T05:36:42.000Z</time></trkpt>
        <trkpt lat="29.568293" lon="103.35957"><ele>1736.7291</ele><time>2026-07-21T05:36:44.000Z</time></trkpt>
        <trkpt lat="29.568268" lon="103.359561"><ele>1737.1985</ele><time>2026-07-21T05:36:48.000Z</time></trkpt>
        <trkpt lat="29.568306" lon="103.359638"><ele>1739.8572</ele><time>2026-07-21T05:37:38.000Z</time></trkpt>
        <trkpt lat="29.568308" lon="103.359641"><ele>1739.8572</ele><time>2026-07-21T05:37:53.000Z</time></trkpt>
        <trkpt lat="29.568307" lon="103.359639"><ele>1739.8572</ele><time>2026-07-21T05:38:09.000Z</time></trkpt>
        <trkpt lat="29.568314" lon="103.359687"><ele>1740.8147</ele><time>2026-07-21T05:38:21.000Z</time></trkpt>
        <trkpt lat="29.568316" lon="103.359703"><ele>1740.8794</ele><time>2026-07-21T05:38:23.000Z</time></trkpt>
        <trkpt lat="29.568316" lon="103.359704"><ele>1740.8109</ele><time>2026-07-21T05:38:25.000Z</time></trkpt>
        <trkpt lat="29.568304" lon="103.359725"><ele>1740.8053</ele><time>2026-07-21T05:38:31.000Z</time></trkpt>
        <trkpt lat="29.5683" lon="103.359732"><ele>1739.9495</ele><time>2026-07-21T05:38:35.000Z</time></trkpt>
        <trkpt lat="29.5683" lon="103.359732"><ele>1739.9464</ele><time>2026-07-21T05:38:37.000Z</time></trkpt>
        <trkpt lat="29.568275" lon="103.359704"><ele>1742.6586</ele><time>2026-07-21T05:42:14.000Z</time></trkpt>
        <trkpt lat="29.568274" lon="103.3597"><ele>1742.2651</ele><time>2026-07-21T05:42:29.000Z</time></trkpt>
        <trkpt lat="29.568274" lon="103.3597"><ele>1742.9249</ele><time>2026-07-21T05:42:44.000Z</time></trkpt>
        <trkpt lat="29.5682" lon="103.359611"><ele>1742.3411</ele><time>2026-07-21T05:43:59.000Z</time></trkpt>
        <trkpt lat="29.568133" lon="103.359552"><ele>1741.7413</ele><time>2026-07-21T05:44:13.000Z</time></trkpt>
        <trkpt lat="29.568122" lon="103.359543"><ele>1741.6362</ele><time>2026-07-21T05:44:15.000Z</time></trkpt>
        <trkpt lat="29.568121" lon="103.359543"><ele>1741.3455</ele><time>2026-07-21T05:44:16.000Z</time></trkpt>
        <trkpt lat="29.568093" lon="103.359546"><ele>1741.6365</ele><time>2026-07-21T05:44:22.000Z</time></trkpt>
        <trkpt lat="29.568078" lon="103.359549"><ele>1741.4539</ele><time>2026-07-21T05:44:24.000Z</time></trkpt>
        <trkpt lat="29.568063" lon="103.359551"><ele>1741.8367</ele><time>2026-07-21T05:44:26.000Z</time></trkpt>
        <trkpt lat="29.568045" lon="103.359555"><ele>1742.1113</ele><time>2026-07-21T05:44:28.000Z</time></trkpt>
        <trkpt lat="29.568023" lon="103.359556"><ele>1740.8511</ele><time>2026-07-21T05:44:30.000Z</time></trkpt>
        <trkpt lat="29.568001" lon="103.359557"><ele>1740.2825</ele><time>2026-07-21T05:44:33.000Z</time></trkpt>
        <trkpt lat="29.56798" lon="103.359558"><ele>1740.6499</ele><time>2026-07-21T05:44:35.000Z</time></trkpt>
        <trkpt lat="29.567961" lon="103.359562"><ele>1741.3365</ele><time>2026-07-21T05:44:37.000Z</time></trkpt>
        <trkpt lat="29.567942" lon="103.359566"><ele>1740.9479</ele><time>2026-07-21T05:44:39.000Z</time></trkpt>
        <trkpt lat="29.567926" lon="103.359571"><ele>1741.394</ele><time>2026-07-21T05:44:41.000Z</time></trkpt>
        <trkpt lat="29.567912" lon="103.359575"><ele>1741.6027</ele><time>2026-07-21T05:44:43.000Z</time></trkpt>
        <trkpt lat="29.567896" lon="103.359577"><ele>1742.7615</ele><time>2026-07-21T05:44:45.000Z</time></trkpt>
        <trkpt lat="29.56788" lon="103.359577"><ele>1741.8116</ele><time>2026-07-21T05:44:47.000Z</time></trkpt>
        <trkpt lat="29.567863" lon="103.359575"><ele>1742.3005</ele><time>2026-07-21T05:44:49.000Z</time></trkpt>
        <trkpt lat="29.567846" lon="103.35957"><ele>1742.1938</ele><time>2026-07-21T05:44:51.000Z</time></trkpt>
        <trkpt lat="29.567829" lon="103.359563"><ele>1742.3134</ele><time>2026-07-21T05:44:53.000Z</time></trkpt>
        <trkpt lat="29.56781" lon="103.359553"><ele>1742.4302</ele><time>2026-07-21T05:44:55.000Z</time></trkpt>
        <trkpt lat="29.567791" lon="103.359541"><ele>1742.3556</ele><time>2026-07-21T05:44:57.000Z</time></trkpt>
        <trkpt lat="29.567774" lon="103.35953"><ele>1742.2253</ele><time>2026-07-21T05:44:59.000Z</time></trkpt>
        <trkpt lat="29.567761" lon="103.35952"><ele>1740.923</ele><time>2026-07-21T05:45:01.000Z</time></trkpt>
        <trkpt lat="29.567747" lon="103.359511"><ele>1741.6036</ele><time>2026-07-21T05:45:03.000Z</time></trkpt>
        <trkpt lat="29.567731" lon="103.359502"><ele>1742.3783</ele><time>2026-07-21T05:45:05.000Z</time></trkpt>
        <trkpt lat="29.567718" lon="103.359495"><ele>1742.5488</ele><time>2026-07-21T05:45:07.000Z</time></trkpt>
        <trkpt lat="29.567705" lon="103.359486"><ele>1742.5054</ele><time>2026-07-21T05:45:09.000Z</time></trkpt>
        <trkpt lat="29.567693" lon="103.359477"><ele>1742.8424</ele><time>2026-07-21T05:45:11.000Z</time></trkpt>
        <trkpt lat="29.567681" lon="103.359469"><ele>1743.1156</ele><time>2026-07-21T05:45:13.000Z</time></trkpt>
        <trkpt lat="29.567668" lon="103.359462"><ele>1743.134</ele><time>2026-07-21T05:45:15.000Z</time></trkpt>
        <trkpt lat="29.567653" lon="103.359454"><ele>1743.6602</ele><time>2026-07-21T05:45:17.000Z</time></trkpt>
        <trkpt lat="29.567641" lon="103.359447"><ele>1743.1323</ele><time>2026-07-21T05:45:19.000Z</time></trkpt>
        <trkpt lat="29.567632" lon="103.359442"><ele>1742.5719</ele><time>2026-07-21T05:45:21.000Z</time></trkpt>
        <trkpt lat="29.567619" lon="103.359436"><ele>1742.8407</ele><time>2026-07-21T05:45:23.000Z</time></trkpt>
        <trkpt lat="29.567605" lon="103.35943"><ele>1743.5554</ele><time>2026-07-21T05:45:25.000Z</time></trkpt>
        <trkpt lat="29.567592" lon="103.359426"><ele>1743.4813</ele><time>2026-07-21T05:45:27.000Z</time></trkpt>
        <trkpt lat="29.56758" lon="103.359422"><ele>1744.0902</ele><time>2026-07-21T05:45:29.000Z</time></trkpt>
        <trkpt lat="29.567572" lon="103.359419"><ele>1745.2828</ele><time>2026-07-21T05:45:31.000Z</time></trkpt>
        <trkpt lat="29.567563" lon="103.359415"><ele>1745.2164</ele><time>2026-07-21T05:45:33.000Z</time></trkpt>
        <trkpt lat="29.567544" lon="103.359408"><ele>1745.7081</ele><time>2026-07-21T05:45:37.000Z</time></trkpt>
        <trkpt lat="29.567534" lon="103.359403"><ele>1746.4635</ele><time>2026-07-21T05:45:39.000Z</time></trkpt>
        <trkpt lat="29.567524" lon="103.3594"><ele>1747.4954</ele><time>2026-07-21T05:45:41.000Z</time></trkpt>
        <trkpt lat="29.567511" lon="103.359399"><ele>1748.0767</ele><time>2026-07-21T05:45:43.000Z</time></trkpt>
        <trkpt lat="29.567502" lon="103.3594"><ele>1748.3477</ele><time>2026-07-21T05:45:45.000Z</time></trkpt>
        <trkpt lat="29.567494" lon="103.3594"><ele>1748.861</ele><time>2026-07-21T05:45:47.000Z</time></trkpt>
        <trkpt lat="29.567481" lon="103.3594"><ele>1749.516</ele><time>2026-07-21T05:45:51.000Z</time></trkpt>
        <trkpt lat="29.567471" lon="103.359404"><ele>1749.5271</ele><time>2026-07-21T05:45:57.000Z</time></trkpt>
        <trkpt lat="29.567454" lon="103.359411"><ele>1748.9084</ele><time>2026-07-21T05:46:11.000Z</time></trkpt>
        <trkpt lat="29.567447" lon="103.359413"><ele>1750.0474</ele><time>2026-07-21T05:46:17.000Z</time></trkpt>
        <trkpt lat="29.567442" lon="103.359419"><ele>1750.9436</ele><time>2026-07-21T05:46:19.000Z</time></trkpt>
        <trkpt lat="29.567421" lon="103.35944"><ele>1752.6937</ele><time>2026-07-21T05:46:22.000Z</time></trkpt>
        <trkpt lat="29.567421" lon="103.35944"><ele>1752.1234</ele><time>2026-07-21T05:46:24.000Z</time></trkpt>
        <trkpt lat="29.567418" lon="103.359441"><ele>1752.5071</ele><time>2026-07-21T05:46:26.000Z</time></trkpt>
        <trkpt lat="29.56738" lon="103.359459"><ele>1753.2666</ele><time>2026-07-21T05:46:32.000Z</time></trkpt>
        <trkpt lat="29.56738" lon="103.359459"><ele>1753.4187</ele><time>2026-07-21T05:46:34.000Z</time></trkpt>
        <trkpt lat="29.567378" lon="103.359459"><ele>1753.2936</ele><time>2026-07-21T05:46:36.000Z</time></trkpt>
        <trkpt lat="29.567342" lon="103.359459"><ele>1753.4489</ele><time>2026-07-21T05:46:42.000Z</time></trkpt>
        <trkpt lat="29.567333" lon="103.35946"><ele>1754.2177</ele><time>2026-07-21T05:46:44.000Z</time></trkpt>
        <trkpt lat="29.567323" lon="103.359459"><ele>1754.7827</ele><time>2026-07-21T05:46:46.000Z</time></trkpt>
        <trkpt lat="29.567304" lon="103.359459"><ele>1755.8903</ele><time>2026-07-21T05:46:50.000Z</time></trkpt>
        <trkpt lat="29.567295" lon="103.359459"><ele>1756.2816</ele><time>2026-07-21T05:46:52.000Z</time></trkpt>
        <trkpt lat="29.567283" lon="103.359461"><ele>1756.0243</ele><time>2026-07-21T05:46:54.000Z</time></trkpt>
        <trkpt lat="29.567272" lon="103.359462"><ele>1756.254</ele><time>2026-07-21T05:46:56.000Z</time></trkpt>
        <trkpt lat="29.56726" lon="103.359465"><ele>1756.9254</ele><time>2026-07-21T05:46:58.000Z</time></trkpt>
        <trkpt lat="29.56725" lon="103.359466"><ele>1756.7329</ele><time>2026-07-21T05:47:00.000Z</time></trkpt>
        <trkpt lat="29.567242" lon="103.359464"><ele>1756.2767</ele><time>2026-07-21T05:47:07.000Z</time></trkpt>
        <trkpt lat="29.56723" lon="103.359457"><ele>1757.9764</ele><time>2026-07-21T05:47:13.000Z</time></trkpt>
        <trkpt lat="29.567223" lon="103.35945"><ele>1759.551</ele><time>2026-07-21T05:47:17.000Z</time></trkpt>
        <trkpt lat="29.56721" lon="103.359446"><ele>1759.5223</ele><time>2026-07-21T05:47:19.000Z</time></trkpt>
        <trkpt lat="29.567195" lon="103.359444"><ele>1758.7267</ele><time>2026-07-21T05:47:25.000Z</time></trkpt>
        <trkpt lat="29.567179" lon="103.359443"><ele>1758.8981</ele><time>2026-07-21T05:47:27.000Z</time></trkpt>
        <trkpt lat="29.567164" lon="103.359442"><ele>1759.4607</ele><time>2026-07-21T05:47:29.000Z</time></trkpt>
        <trkpt lat="29.56715" lon="103.359441"><ele>1758.3594</ele><time>2026-07-21T05:47:31.000Z</time></trkpt>
        <trkpt lat="29.567143" lon="103.359438"><ele>1758.3066</ele><time>2026-07-21T05:47:33.000Z</time></trkpt>
        <trkpt lat="29.567135" lon="103.359434"><ele>1756.1426</ele><time>2026-07-21T05:47:39.000Z</time></trkpt>
        <trkpt lat="29.56712" lon="103.359427"><ele>1757.8793</ele><time>2026-07-21T05:47:45.000Z</time></trkpt>
        <trkpt lat="29.567116" lon="103.359423"><ele>1758.0392</ele><time>2026-07-21T05:47:47.000Z</time></trkpt>
        <trkpt lat="29.567107" lon="103.359418"><ele>1760.5024</ele><time>2026-07-21T05:47:57.000Z</time></trkpt>
        <trkpt lat="29.567093" lon="103.359409"><ele>1760.2936</ele><time>2026-07-21T05:48:01.000Z</time></trkpt>
        <trkpt lat="29.567088" lon="103.359404"><ele>1761.2715</ele><time>2026-07-21T05:48:03.000Z</time></trkpt>
        <trkpt lat="29.567075" lon="103.359398"><ele>1761.9069</ele><time>2026-07-21T05:48:07.000Z</time></trkpt>
        <trkpt lat="29.567064" lon="103.35939"><ele>1762.3872</ele><time>2026-07-21T05:48:11.000Z</time></trkpt>
        <trkpt lat="29.567052" lon="103.359383"><ele>1763.9467</ele><time>2026-07-21T05:48:13.000Z</time></trkpt>
        <trkpt lat="29.567048" lon="103.359381"><ele>1764.4293</ele><time>2026-07-21T05:48:17.000Z</time></trkpt>
        <trkpt lat="29.567027" lon="103.359374"><ele>1765.3209</ele><time>2026-07-21T05:48:21.000Z</time></trkpt>
        <trkpt lat="29.567012" lon="103.359369"><ele>1764.9513</ele><time>2026-07-21T05:48:23.000Z</time></trkpt>
        <trkpt lat="29.567003" lon="103.359366"><ele>1765.7991</ele><time>2026-07-21T05:48:25.000Z</time></trkpt>
        <trkpt lat="29.566994" lon="103.359364"><ele>1765.4764</ele><time>2026-07-21T05:48:27.000Z</time></trkpt>
        <trkpt lat="29.566982" lon="103.359361"><ele>1766.1708</ele><time>2026-07-21T05:48:32.000Z</time></trkpt>
        <trkpt lat="29.566968" lon="103.359357"><ele>1766.5419</ele><time>2026-07-21T05:48:36.000Z</time></trkpt>
        <trkpt lat="29.566961" lon="103.359354"><ele>1766.9537</ele><time>2026-07-21T05:48:38.000Z</time></trkpt>
        <trkpt lat="29.566949" lon="103.359351"><ele>1767.9261</ele><time>2026-07-21T05:48:42.000Z</time></trkpt>
        <trkpt lat="29.56693" lon="103.359348"><ele>1768.747</ele><time>2026-07-21T05:48:44.000Z</time></trkpt>
        <trkpt lat="29.566929" lon="103.359347"><ele>1767.2333</ele><time>2026-07-21T05:48:46.000Z</time></trkpt>
        <trkpt lat="29.566906" lon="103.359337"><ele>1768.4218</ele><time>2026-07-21T05:48:50.000Z</time></trkpt>
        <trkpt lat="29.566882" lon="103.359324"><ele>1768.1576</ele><time>2026-07-21T05:48:52.000Z</time></trkpt>
        <trkpt lat="29.56686" lon="103.359308"><ele>1768.9463</ele><time>2026-07-21T05:48:54.000Z</time></trkpt>
        <trkpt lat="29.566844" lon="103.359295"><ele>1769.5446</ele><time>2026-07-21T05:48:56.000Z</time></trkpt>
        <trkpt lat="29.566832" lon="103.359281"><ele>1769.5625</ele><time>2026-07-21T05:48:58.000Z</time></trkpt>
        <trkpt lat="29.566824" lon="103.359272"><ele>1769.4429</ele><time>2026-07-21T05:49:00.000Z</time></trkpt>
        <trkpt lat="29.566814" lon="103.359262"><ele>1769.6924</ele><time>2026-07-21T05:49:02.000Z</time></trkpt>
        <trkpt lat="29.566804" lon="103.359251"><ele>1770.0873</ele><time>2026-07-21T05:49:04.000Z</time></trkpt>
        <trkpt lat="29.566793" lon="103.359242"><ele>1770.2556</ele><time>2026-07-21T05:49:06.000Z</time></trkpt>
        <trkpt lat="29.566782" lon="103.359231"><ele>1770.7289</ele><time>2026-07-21T05:49:08.000Z</time></trkpt>
        <trkpt lat="29.566772" lon="103.35922"><ele>1770.9037</ele><time>2026-07-21T05:49:11.000Z</time></trkpt>
        <trkpt lat="29.56676" lon="103.359208"><ele>1771.1023</ele><time>2026-07-21T05:49:13.000Z</time></trkpt>
        <trkpt lat="29.566748" lon="103.359195"><ele>1770.8802</ele><time>2026-07-21T05:49:15.000Z</time></trkpt>
        <trkpt lat="29.566738" lon="103.359181"><ele>1771.0532</ele><time>2026-07-21T05:49:17.000Z</time></trkpt>
        <trkpt lat="29.566731" lon="103.359173"><ele>1772.6223</ele><time>2026-07-21T05:49:19.000Z</time></trkpt>
        <trkpt lat="29.566722" lon="103.359164"><ele>1771.6968</ele><time>2026-07-21T05:49:21.000Z</time></trkpt>
        <trkpt lat="29.566711" lon="103.359156"><ele>1771.9994</ele><time>2026-07-21T05:49:23.000Z</time></trkpt>
        <trkpt lat="29.566699" lon="103.359149"><ele>1772.0704</ele><time>2026-07-21T05:49:25.000Z</time></trkpt>
        <trkpt lat="29.566688" lon="103.359141"><ele>1772.6528</ele><time>2026-07-21T05:49:27.000Z</time></trkpt>
        <trkpt lat="29.566675" lon="103.35913"><ele>1772.6492</ele><time>2026-07-21T05:49:29.000Z</time></trkpt>
        <trkpt lat="29.566664" lon="103.359122"><ele>1773.2002</ele><time>2026-07-21T05:49:31.000Z</time></trkpt>
        <trkpt lat="29.566653" lon="103.359116"><ele>1773.5277</ele><time>2026-07-21T05:49:33.000Z</time></trkpt>
        <trkpt lat="29.566645" lon="103.35911"><ele>1775.1199</ele><time>2026-07-21T05:49:35.000Z</time></trkpt>
        <trkpt lat="29.566633" lon="103.359101"><ele>1777.0063</ele><time>2026-07-21T05:49:39.000Z</time></trkpt>
        <trkpt lat="29.566627" lon="103.359096"><ele>1776.6888</ele><time>2026-07-21T05:49:41.000Z</time></trkpt>
        <trkpt lat="29.56662" lon="103.359089"><ele>1776.7008</ele><time>2026-07-21T05:49:43.000Z</time></trkpt>
        <trkpt lat="29.566602" lon="103.359072"><ele>1775.9531</ele><time>2026-07-21T05:49:47.000Z</time></trkpt>
        <trkpt lat="29.566591" lon="103.359062"><ele>1774.6968</ele><time>2026-07-21T05:49:49.000Z</time></trkpt>
        <trkpt lat="29.56658" lon="103.359053"><ele>1774.2384</ele><time>2026-07-21T05:49:51.000Z</time></trkpt>
        <trkpt lat="29.566569" lon="103.359046"><ele>1773.3019</ele><time>2026-07-21T05:49:53.000Z</time></trkpt>
        <trkpt lat="29.566563" lon="103.359047"><ele>1773.2214</ele><time>2026-07-21T05:49:55.000Z</time></trkpt>
        <trkpt lat="29.566546" lon="103.359045"><ele>1773.4434</ele><time>2026-07-21T05:50:01.000Z</time></trkpt>
        <trkpt lat="29.56654" lon="103.35904"><ele>1776.3566</ele><time>2026-07-21T05:50:07.000Z</time></trkpt>
        <trkpt lat="29.56652" lon="103.359025"><ele>1776.4933</ele><time>2026-07-21T05:50:09.000Z</time></trkpt>
        <trkpt lat="29.566518" lon="103.359023"><ele>1776.8715</ele><time>2026-07-21T05:50:11.000Z</time></trkpt>
        <trkpt lat="29.566512" lon="103.359016"><ele>1776.7491</ele><time>2026-07-21T05:50:15.000Z</time></trkpt>
        <trkpt lat="29.56649" lon="103.358994"><ele>1776.3887</ele><time>2026-07-21T05:50:19.000Z</time></trkpt>
        <trkpt lat="29.566478" lon="103.358983"><ele>1776.8119</ele><time>2026-07-21T05:50:21.000Z</time></trkpt>
        <trkpt lat="29.566465" lon="103.358974"><ele>1776.1505</ele><time>2026-07-21T05:50:23.000Z</time></trkpt>
        <trkpt lat="29.566454" lon="103.358967"><ele>1774.9204</ele><time>2026-07-21T05:50:25.000Z</time></trkpt>
        <trkpt lat="29.566446" lon="103.358959"><ele>1775.6174</ele><time>2026-07-21T05:50:27.000Z</time></trkpt>
        <trkpt lat="29.566442" lon="103.358954"><ele>1776.3226</ele><time>2026-07-21T05:50:29.000Z</time></trkpt>
        <trkpt lat="29.566431" lon="103.35894"><ele>1778.4288</ele><time>2026-07-21T05:50:36.000Z</time></trkpt>
        <trkpt lat="29.566423" lon="103.358929"><ele>1779.2142</ele><time>2026-07-21T05:50:40.000Z</time></trkpt>
        <trkpt lat="29.566419" lon="103.358923"><ele>1779.4825</ele><time>2026-07-21T05:50:42.000Z</time></trkpt>
        <trkpt lat="29.566414" lon="103.358912"><ele>1777.7368</ele><time>2026-07-21T05:50:52.000Z</time></trkpt>
        <trkpt lat="29.566404" lon="103.358898"><ele>1779.8466</ele><time>2026-07-21T05:51:00.000Z</time></trkpt>
        <trkpt lat="29.566397" lon="103.358887"><ele>1779.8992</ele><time>2026-07-21T05:51:02.000Z</time></trkpt>
        <trkpt lat="29.566392" lon="103.35888"><ele>1781.4791</ele><time>2026-07-21T05:51:08.000Z</time></trkpt>
        <trkpt lat="29.566372" lon="103.358853"><ele>1782.3829</ele><time>2026-07-21T05:51:12.000Z</time></trkpt>
        <trkpt lat="29.566372" lon="103.358853"><ele>1783.6768</ele><time>2026-07-21T05:51:14.000Z</time></trkpt>
        <trkpt lat="29.56637" lon="103.358852"><ele>1784.2219</ele><time>2026-07-21T05:51:16.000Z</time></trkpt>
        <trkpt lat="29.566341" lon="103.358829"><ele>1784.1128</ele><time>2026-07-21T05:51:25.000Z</time></trkpt>
        <trkpt lat="29.566335" lon="103.358824"><ele>1783.677</ele><time>2026-07-21T05:51:27.000Z</time></trkpt>
        <trkpt lat="29.566328" lon="103.358818"><ele>1784.1249</ele><time>2026-07-21T05:51:29.000Z</time></trkpt>
        <trkpt lat="29.566318" lon="103.358803"><ele>1784.4863</ele><time>2026-07-21T05:51:33.000Z</time></trkpt>
        <trkpt lat="29.566312" lon="103.358793"><ele>1785.8356</ele><time>2026-07-21T05:51:37.000Z</time></trkpt>
        <trkpt lat="29.56631" lon="103.358787"><ele>1786.0962</ele><time>2026-07-21T05:51:39.000Z</time></trkpt>
        <trkpt lat="29.566303" lon="103.358761"><ele>1786.3063</ele><time>2026-07-21T05:51:45.000Z</time></trkpt>
        <trkpt lat="29.566299" lon="103.358748"><ele>1786.0764</ele><time>2026-07-21T05:51:47.000Z</time></trkpt>
        <trkpt lat="29.566298" lon="103.358747"><ele>1786.4286</ele><time>2026-07-21T05:51:49.000Z</time></trkpt>
        <trkpt lat="29.566287" lon="103.35873"><ele>1787.6472</ele><time>2026-07-21T05:51:59.000Z</time></trkpt>
        <trkpt lat="29.56628" lon="103.358719"><ele>1787.7583</ele><time>2026-07-21T05:52:03.000Z</time></trkpt>
        <trkpt lat="29.566273" lon="103.358705"><ele>1787.901</ele><time>2026-07-21T05:52:05.000Z</time></trkpt>
        <trkpt lat="29.566271" lon="103.358701"><ele>1788.6909</ele><time>2026-07-21T05:52:09.000Z</time></trkpt>
        <trkpt lat="29.566262" lon="103.358687"><ele>1787.9803</ele><time>2026-07-21T05:52:13.000Z</time></trkpt>
        <trkpt lat="29.566255" lon="103.358673"><ele>1788.9048</ele><time>2026-07-21T05:52:17.000Z</time></trkpt>
        <trkpt lat="29.566254" lon="103.358673"><ele>1789.3043</ele><time>2026-07-21T05:52:19.000Z</time></trkpt>
        <trkpt lat="29.566238" lon="103.358662"><ele>1790.205</ele><time>2026-07-21T05:53:02.000Z</time></trkpt>
        <trkpt lat="29.566227" lon="103.358654"><ele>1791.4097</ele><time>2026-07-21T05:53:06.000Z</time></trkpt>
        <trkpt lat="29.566223" lon="103.358647"><ele>1791.3456</ele><time>2026-07-21T05:53:08.000Z</time></trkpt>
        <trkpt lat="29.566216" lon="103.358632"><ele>1793.4556</ele><time>2026-07-21T05:53:16.000Z</time></trkpt>
        <trkpt lat="29.566212" lon="103.358621"><ele>1793.6228</ele><time>2026-07-21T05:53:20.000Z</time></trkpt>
        <trkpt lat="29.566211" lon="103.358615"><ele>1795.5848</ele><time>2026-07-21T05:53:22.000Z</time></trkpt>
        <trkpt lat="29.566208" lon="103.358587"><ele>1795.9651</ele><time>2026-07-21T05:53:26.000Z</time></trkpt>
        <trkpt lat="29.566208" lon="103.358585"><ele>1796.46</ele><time>2026-07-21T05:53:30.000Z</time></trkpt>
        <trkpt lat="29.566207" lon="103.358578"><ele>1795.9084</ele><time>2026-07-21T05:53:32.000Z</time></trkpt>
        <trkpt lat="29.566202" lon="103.358549"><ele>1795.3175</ele><time>2026-07-21T05:53:38.000Z</time></trkpt>
        <trkpt lat="29.566203" lon="103.35855"><ele>1792.392</ele><time>2026-07-21T05:53:40.000Z</time></trkpt>
        <trkpt lat="29.566201" lon="103.358538"><ele>1792.3524</ele><time>2026-07-21T05:53:46.000Z</time></trkpt>
        <trkpt lat="29.566193" lon="103.358501"><ele>1793.6099</ele><time>2026-07-21T05:53:50.000Z</time></trkpt>
        <trkpt lat="29.566193" lon="103.358501"><ele>1794.6632</ele><time>2026-07-21T05:53:52.000Z</time></trkpt>
        <trkpt lat="29.566194" lon="103.358498"><ele>1795.9862</ele><time>2026-07-21T05:53:54.000Z</time></trkpt>
        <trkpt lat="29.566202" lon="103.358463"><ele>1797.2483</ele><time>2026-07-21T05:53:56.000Z</time></trkpt>
        <trkpt lat="29.566203" lon="103.358461"><ele>1798.4359</ele><time>2026-07-21T05:53:58.000Z</time></trkpt>
        <trkpt lat="29.566202" lon="103.358462"><ele>1798.6615</ele><time>2026-07-21T05:54:00.000Z</time></trkpt>
        <trkpt lat="29.566208" lon="103.358429"><ele>1800.729</ele><time>2026-07-21T05:54:28.000Z</time></trkpt>
        <trkpt lat="29.566212" lon="103.358408"><ele>1801.4087</ele><time>2026-07-21T05:54:30.000Z</time></trkpt>
        <trkpt lat="29.566213" lon="103.358407"><ele>1801.847</ele><time>2026-07-21T05:54:32.000Z</time></trkpt>
        <trkpt lat="29.566218" lon="103.35839"><ele>1800.9834</ele><time>2026-07-21T05:54:36.000Z</time></trkpt>
        <trkpt lat="29.566222" lon="103.358371"><ele>1800.784</ele><time>2026-07-21T05:54:38.000Z</time></trkpt>
        <trkpt lat="29.566225" lon="103.358352"><ele>1800.6648</ele><time>2026-07-21T05:54:40.000Z</time></trkpt>
        <trkpt lat="29.566224" lon="103.358336"><ele>1800.8253</ele><time>2026-07-21T05:54:42.000Z</time></trkpt>
        <trkpt lat="29.566223" lon="103.358322"><ele>1801.6792</ele><time>2026-07-21T05:54:44.000Z</time></trkpt>
        <trkpt lat="29.566222" lon="103.358314"><ele>1801.8342</ele><time>2026-07-21T05:54:45.000Z</time></trkpt>
        <trkpt lat="29.566221" lon="103.358297"><ele>1802.6117</ele><time>2026-07-21T05:54:49.000Z</time></trkpt>
        <trkpt lat="29.566218" lon="103.358284"><ele>1804.3507</ele><time>2026-07-21T05:54:53.000Z</time></trkpt>
        <trkpt lat="29.566216" lon="103.358277"><ele>1804.3754</ele><time>2026-07-21T05:54:55.000Z</time></trkpt>
        <trkpt lat="29.566202" lon="103.358231"><ele>1806.1044</ele><time>2026-07-21T05:55:30.000Z</time></trkpt>
        <trkpt lat="29.566199" lon="103.358219"><ele>1805.803</ele><time>2026-07-21T05:55:32.000Z</time></trkpt>
        <trkpt lat="29.566198" lon="103.358218"><ele>1805.694</ele><time>2026-07-21T05:55:34.000Z</time></trkpt>
        <trkpt lat="29.566192" lon="103.358196"><ele>1804.9418</ele><time>2026-07-21T05:55:40.000Z</time></trkpt>
        <trkpt lat="29.566188" lon="103.358185"><ele>1804.6768</ele><time>2026-07-21T05:55:44.000Z</time></trkpt>
        <trkpt lat="29.566187" lon="103.358184"><ele>1804.2949</ele><time>2026-07-21T05:55:46.000Z</time></trkpt>
        <trkpt lat="29.566176" lon="103.358161"><ele>1806.1091</ele><time>2026-07-21T05:55:56.000Z</time></trkpt>
        <trkpt lat="29.566169" lon="103.358147"><ele>1806.1625</ele><time>2026-07-21T05:55:58.000Z</time></trkpt>
        <trkpt lat="29.566168" lon="103.358146"><ele>1807.103</ele><time>2026-07-21T05:56:00.000Z</time></trkpt>
        <trkpt lat="29.56616" lon="103.358131"><ele>1807.0239</ele><time>2026-07-21T05:56:16.000Z</time></trkpt>
        <trkpt lat="29.56615" lon="103.358113"><ele>1807.161</ele><time>2026-07-21T05:56:24.000Z</time></trkpt>
        <trkpt lat="29.566147" lon="103.358106"><ele>1807.3574</ele><time>2026-07-21T05:56:26.000Z</time></trkpt>
        <trkpt lat="29.566145" lon="103.358101"><ele>1808.1205</ele><time>2026-07-21T05:56:28.000Z</time></trkpt>
        <trkpt lat="29.566137" lon="103.358081"><ele>1811.5289</ele><time>2026-07-21T05:56:34.000Z</time></trkpt>
        <trkpt lat="29.566134" lon="103.358074"><ele>1811.2477</ele><time>2026-07-21T05:56:36.000Z</time></trkpt>
        <trkpt lat="29.566132" lon="103.358069"><ele>1811.2319</ele><time>2026-07-21T05:56:40.000Z</time></trkpt>
        <trkpt lat="29.566124" lon="103.358046"><ele>1810.0757</ele><time>2026-07-21T05:56:48.000Z</time></trkpt>
        <trkpt lat="29.566118" lon="103.358027"><ele>1809.4515</ele><time>2026-07-21T05:56:50.000Z</time></trkpt>
        <trkpt lat="29.566118" lon="103.358026"><ele>1810.5438</ele><time>2026-07-21T05:56:51.000Z</time></trkpt>
        <trkpt lat="29.566111" lon="103.358004"><ele>1812.7389</ele><time>2026-07-21T05:56:58.000Z</time></trkpt>
        <trkpt lat="29.566106" lon="103.357991"><ele>1812.3235</ele><time>2026-07-21T05:57:00.000Z</time></trkpt>
        <trkpt lat="29.5661" lon="103.357976"><ele>1812.1594</ele><time>2026-07-21T05:57:02.000Z</time></trkpt>
        <trkpt lat="29.566093" lon="103.357962"><ele>1811.8065</ele><time>2026-07-21T05:57:04.000Z</time></trkpt>
        <trkpt lat="29.566086" lon="103.35795"><ele>1812.6691</ele><time>2026-07-21T05:57:06.000Z</time></trkpt>
        <trkpt lat="29.56608" lon="103.357943"><ele>1813.4473</ele><time>2026-07-21T05:57:08.000Z</time></trkpt>
        <trkpt lat="29.566073" lon="103.357937"><ele>1813.5364</ele><time>2026-07-21T05:57:10.000Z</time></trkpt>
        <trkpt lat="29.566061" lon="103.357926"><ele>1815.0714</ele><time>2026-07-21T05:57:14.000Z</time></trkpt>
        <trkpt lat="29.566055" lon="103.357922"><ele>1815.7168</ele><time>2026-07-21T05:57:16.000Z</time></trkpt>
        <trkpt lat="29.56605" lon="103.357914"><ele>1816.401</ele><time>2026-07-21T05:57:18.000Z</time></trkpt>
        <trkpt lat="29.566039" lon="103.357895"><ele>1817.7455</ele><time>2026-07-21T05:57:22.000Z</time></trkpt>
        <trkpt lat="29.566035" lon="103.357882"><ele>1817.927</ele><time>2026-07-21T05:57:24.000Z</time></trkpt>
        <trkpt lat="29.566032" lon="103.357869"><ele>1817.2657</ele><time>2026-07-21T05:57:26.000Z</time></trkpt>
        <trkpt lat="29.566033" lon="103.357863"><ele>1817.0679</ele><time>2026-07-21T05:57:28.000Z</time></trkpt>
        <trkpt lat="29.566033" lon="103.357845"><ele>1817.9304</ele><time>2026-07-21T05:57:44.000Z</time></trkpt>
        <trkpt lat="29.56603" lon="103.357832"><ele>1818.8629</ele><time>2026-07-21T05:57:48.000Z</time></trkpt>
        <trkpt lat="29.566026" lon="103.357814"><ele>1819.2798</ele><time>2026-07-21T05:57:50.000Z</time></trkpt>
        <trkpt lat="29.566025" lon="103.357811"><ele>1819.3843</ele><time>2026-07-21T05:57:54.000Z</time></trkpt>
        <trkpt lat="29.566024" lon="103.357788"><ele>1819.5286</ele><time>2026-07-21T05:57:58.000Z</time></trkpt>
        <trkpt lat="29.566023" lon="103.357778"><ele>1820.5413</ele><time>2026-07-21T05:58:00.000Z</time></trkpt>
        <trkpt lat="29.56602" lon="103.357768"><ele>1820.5911</ele><time>2026-07-21T05:58:02.000Z</time></trkpt>
        <trkpt lat="29.56602" lon="103.357755"><ele>1821.0808</ele><time>2026-07-21T05:58:06.000Z</time></trkpt>
        <trkpt lat="29.566016" lon="103.357739"><ele>1822.4883</ele><time>2026-07-21T05:59:03.000Z</time></trkpt>
        <trkpt lat="29.566011" lon="103.357726"><ele>1823.1974</ele><time>2026-07-21T05:59:09.000Z</time></trkpt>
        <trkpt lat="29.565999" lon="103.357701"><ele>1823.5298</ele><time>2026-07-21T05:59:11.000Z</time></trkpt>
        <trkpt lat="29.565998" lon="103.357699"><ele>1823.4865</ele><time>2026-07-21T05:59:13.000Z</time></trkpt>
        <trkpt lat="29.565997" lon="103.357696"><ele>1824.7535</ele><time>2026-07-21T05:59:15.000Z</time></trkpt>
        <trkpt lat="29.565984" lon="103.357651"><ele>1825.9828</ele><time>2026-07-21T05:59:21.000Z</time></trkpt>
        <trkpt lat="29.565979" lon="103.357637"><ele>1826.6278</ele><time>2026-07-21T05:59:23.000Z</time></trkpt>
        <trkpt lat="29.565975" lon="103.357621"><ele>1826.8253</ele><time>2026-07-21T05:59:25.000Z</time></trkpt>
        <trkpt lat="29.565971" lon="103.357608"><ele>1826.8853</ele><time>2026-07-21T05:59:27.000Z</time></trkpt>
        <trkpt lat="29.565968" lon="103.357599"><ele>1827.3418</ele><time>2026-07-21T05:59:29.000Z</time></trkpt>
        <trkpt lat="29.565964" lon="103.35759"><ele>1827.0253</ele><time>2026-07-21T05:59:31.000Z</time></trkpt>
        <trkpt lat="29.565951" lon="103.357571"><ele>1828.5068</ele><time>2026-07-21T05:59:37.000Z</time></trkpt>
        <trkpt lat="29.565942" lon="103.35756"><ele>1828.4065</ele><time>2026-07-21T05:59:39.000Z</time></trkpt>
        <trkpt lat="29.565941" lon="103.357559"><ele>1828.4275</ele><time>2026-07-21T05:59:41.000Z</time></trkpt>
        <trkpt lat="29.565926" lon="103.357547"><ele>1829.7762</ele><time>2026-07-21T05:59:51.000Z</time></trkpt>
        <trkpt lat="29.565915" lon="103.357536"><ele>1830.0721</ele><time>2026-07-21T05:59:55.000Z</time></trkpt>
        <trkpt lat="29.565912" lon="103.357533"><ele>1830.6265</ele><time>2026-07-21T05:59:57.000Z</time></trkpt>
        <trkpt lat="29.565902" lon="103.357523"><ele>1830.4408</ele><time>2026-07-21T06:00:01.000Z</time></trkpt>
        <trkpt lat="29.565877" lon="103.3575"><ele>1832.107</ele><time>2026-07-21T06:00:11.000Z</time></trkpt>
        <trkpt lat="29.565877" lon="103.3575"><ele>1831.2949</ele><time>2026-07-21T06:00:13.000Z</time></trkpt>
        <trkpt lat="29.565875" lon="103.357499"><ele>1830.8734</ele><time>2026-07-21T06:00:15.000Z</time></trkpt>
        <trkpt lat="29.565839" lon="103.357485"><ele>1832.181</ele><time>2026-07-21T06:00:21.000Z</time></trkpt>
        <trkpt lat="29.565828" lon="103.357481"><ele>1831.692</ele><time>2026-07-21T06:00:23.000Z</time></trkpt>
        <trkpt lat="29.565816" lon="103.357475"><ele>1831.0856</ele><time>2026-07-21T06:00:25.000Z</time></trkpt>
        <trkpt lat="29.565806" lon="103.357469"><ele>1831.5958</ele><time>2026-07-21T06:00:27.000Z</time></trkpt>
        <trkpt lat="29.5658" lon="103.357465"><ele>1832.1829</ele><time>2026-07-21T06:00:29.000Z</time></trkpt>
        <trkpt lat="29.565783" lon="103.357452"><ele>1833.3344</ele><time>2026-07-21T06:00:33.000Z</time></trkpt>
        <trkpt lat="29.565777" lon="103.357447"><ele>1834.3342</ele><time>2026-07-21T06:00:35.000Z</time></trkpt>
        <trkpt lat="29.565772" lon="103.35744"><ele>1835.157</ele><time>2026-07-21T06:00:37.000Z</time></trkpt>
        <trkpt lat="29.565757" lon="103.357423"><ele>1835.7399</ele><time>2026-07-21T06:00:41.000Z</time></trkpt>
        <trkpt lat="29.565753" lon="103.35742"><ele>1835.8849</ele><time>2026-07-21T06:00:43.000Z</time></trkpt>
        <trkpt lat="29.565743" lon="103.357414"><ele>1835.9736</ele><time>2026-07-21T06:00:45.000Z</time></trkpt>
        <trkpt lat="29.56572" lon="103.357401"><ele>1836.6868</ele><time>2026-07-21T06:00:49.000Z</time></trkpt>
        <trkpt lat="29.565709" lon="103.357394"><ele>1837.1096</ele><time>2026-07-21T06:00:51.000Z</time></trkpt>
        <trkpt lat="29.565697" lon="103.357387"><ele>1836.8759</ele><time>2026-07-21T06:00:53.000Z</time></trkpt>
        <trkpt lat="29.565687" lon="103.357379"><ele>1836.8917</ele><time>2026-07-21T06:00:55.000Z</time></trkpt>
        <trkpt lat="29.565674" lon="103.357368"><ele>1837.0295</ele><time>2026-07-21T06:00:57.000Z</time></trkpt>
        <trkpt lat="29.565663" lon="103.357357"><ele>1837.238</ele><time>2026-07-21T06:00:59.000Z</time></trkpt>
        <trkpt lat="29.565655" lon="103.357344"><ele>1837.9547</ele><time>2026-07-21T06:01:01.000Z</time></trkpt>
        <trkpt lat="29.565648" lon="103.357329"><ele>1837.3351</ele><time>2026-07-21T06:01:03.000Z</time></trkpt>
        <trkpt lat="29.565639" lon="103.357308"><ele>1837.21</ele><time>2026-07-21T06:01:05.000Z</time></trkpt>
        <trkpt lat="29.565631" lon="103.357292"><ele>1837.0514</ele><time>2026-07-21T06:01:07.000Z</time></trkpt>
        <trkpt lat="29.565623" lon="103.357277"><ele>1836.9918</ele><time>2026-07-21T06:01:09.000Z</time></trkpt>
        <trkpt lat="29.565615" lon="103.357262"><ele>1836.3604</ele><time>2026-07-21T06:01:11.000Z</time></trkpt>
        <trkpt lat="29.565606" lon="103.357248"><ele>1836.6936</ele><time>2026-07-21T06:01:13.000Z</time></trkpt>
        <trkpt lat="29.565598" lon="103.357234"><ele>1836.416</ele><time>2026-07-21T06:01:15.000Z</time></trkpt>
        <trkpt lat="29.565592" lon="103.357225"><ele>1837.9321</ele><time>2026-07-21T06:01:17.000Z</time></trkpt>
        <trkpt lat="29.565586" lon="103.357216"><ele>1838.3431</ele><time>2026-07-21T06:01:19.000Z</time></trkpt>
        <trkpt lat="29.565577" lon="103.357205"><ele>1838.9478</ele><time>2026-07-21T06:01:23.000Z</time></trkpt>
        <trkpt lat="29.565567" lon="103.357194"><ele>1839.7212</ele><time>2026-07-21T06:01:27.000Z</time></trkpt>
        <trkpt lat="29.565564" lon="103.357191"><ele>1839.8547</ele><time>2026-07-21T06:01:29.000Z</time></trkpt>
        <trkpt lat="29.565545" lon="103.357172"><ele>1838.794</ele><time>2026-07-21T06:01:33.000Z</time></trkpt>
        <trkpt lat="29.565544" lon="103.357169"><ele>1839.7225</ele><time>2026-07-21T06:01:37.000Z</time></trkpt>
        <trkpt lat="29.565538" lon="103.357159"><ele>1840.0068</ele><time>2026-07-21T06:01:39.000Z</time></trkpt>
        <trkpt lat="29.565529" lon="103.357143"><ele>1840.8945</ele><time>2026-07-21T06:01:41.000Z</time></trkpt>
        <trkpt lat="29.56552" lon="103.357128"><ele>1840.8446</ele><time>2026-07-21T06:01:43.000Z</time></trkpt>
        <trkpt lat="29.565513" lon="103.357117"><ele>1842.3219</ele><time>2026-07-21T06:01:45.000Z</time></trkpt>
        <trkpt lat="29.565506" lon="103.357108"><ele>1843.3596</ele><time>2026-07-21T06:01:47.000Z</time></trkpt>
        <trkpt lat="29.5655" lon="103.3571"><ele>1843.9072</ele><time>2026-07-21T06:01:49.000Z</time></trkpt>
        <trkpt lat="29.565489" lon="103.357086"><ele>1844.4343</ele><time>2026-07-21T06:01:53.000Z</time></trkpt>
        <trkpt lat="29.565483" lon="103.357077"><ele>1844.9443</ele><time>2026-07-21T06:01:55.000Z</time></trkpt>
        <trkpt lat="29.565481" lon="103.357069"><ele>1844.9688</ele><time>2026-07-21T06:01:57.000Z</time></trkpt>
        <trkpt lat="29.565476" lon="103.357045"><ele>1844.8759</ele><time>2026-07-21T06:02:01.000Z</time></trkpt>
        <trkpt lat="29.565477" lon="103.357039"><ele>1844.769</ele><time>2026-07-21T06:02:03.000Z</time></trkpt>
        <trkpt lat="29.56548" lon="103.357029"><ele>1843.5317</ele><time>2026-07-21T06:02:07.000Z</time></trkpt>
        <trkpt lat="29.565474" lon="103.357016"><ele>1842.0187</ele><time>2026-07-21T06:02:17.000Z</time></trkpt>
        <trkpt lat="29.565468" lon="103.357007"><ele>1842.7029</ele><time>2026-07-21T06:02:37.000Z</time></trkpt>
        <trkpt lat="29.565464" lon="103.357"><ele>1843.1133</ele><time>2026-07-21T06:02:39.000Z</time></trkpt>
        <trkpt lat="29.565453" lon="103.356989"><ele>1843.905</ele><time>2026-07-21T06:02:43.000Z</time></trkpt>
        <trkpt lat="29.565442" lon="103.356976"><ele>1843.3492</ele><time>2026-07-21T06:02:45.000Z</time></trkpt>
        <trkpt lat="29.565441" lon="103.356975"><ele>1844.9761</ele><time>2026-07-21T06:02:47.000Z</time></trkpt>
        <trkpt lat="29.565433" lon="103.356959"><ele>1847.2054</ele><time>2026-07-21T06:02:53.000Z</time></trkpt>
        <trkpt lat="29.565423" lon="103.356939"><ele>1848.0463</ele><time>2026-07-21T06:02:57.000Z</time></trkpt>
        <trkpt lat="29.565423" lon="103.356939"><ele>1848.627</ele><time>2026-07-21T06:02:59.000Z</time></trkpt>
        <trkpt lat="29.565421" lon="103.356927"><ele>1849.367</ele><time>2026-07-21T06:03:03.000Z</time></trkpt>
        <trkpt lat="29.565418" lon="103.356897"><ele>1850.3439</ele><time>2026-07-21T06:03:07.000Z</time></trkpt>
        <trkpt lat="29.565418" lon="103.356897"><ele>1850.8112</ele><time>2026-07-21T06:03:09.000Z</time></trkpt>
        <trkpt lat="29.565414" lon="103.356893"><ele>1852.637</ele><time>2026-07-21T06:03:13.000Z</time></trkpt>
        <trkpt lat="29.565386" lon="103.356869"><ele>1854.4438</ele><time>2026-07-21T06:03:19.000Z</time></trkpt>
        <trkpt lat="29.565386" lon="103.356868"><ele>1854.7039</ele><time>2026-07-21T06:03:21.000Z</time></trkpt>
        <trkpt lat="29.565384" lon="103.356866"><ele>1854.0912</ele><time>2026-07-21T06:03:23.000Z</time></trkpt>
        <trkpt lat="29.565362" lon="103.356836"><ele>1854.5934</ele><time>2026-07-21T06:03:31.000Z</time></trkpt>
        <trkpt lat="29.565358" lon="103.356833"><ele>1853.8622</ele><time>2026-07-21T06:03:33.000Z</time></trkpt>
        <trkpt lat="29.565353" lon="103.356831"><ele>1854.1365</ele><time>2026-07-21T06:03:35.000Z</time></trkpt>
        <trkpt lat="29.56533" lon="103.356822"><ele>1856.9845</ele><time>2026-07-21T06:03:42.000Z</time></trkpt>
        <trkpt lat="29.565317" lon="103.356817"><ele>1857.2443</ele><time>2026-07-21T06:03:44.000Z</time></trkpt>
        <trkpt lat="29.565316" lon="103.356816"><ele>1857.8132</ele><time>2026-07-21T06:03:46.000Z</time></trkpt>
        <trkpt lat="29.565296" lon="103.356811"><ele>1857.99</ele><time>2026-07-21T06:03:52.000Z</time></trkpt>
        <trkpt lat="29.565276" lon="103.356805"><ele>1858.0806</ele><time>2026-07-21T06:03:54.000Z</time></trkpt>
        <trkpt lat="29.565274" lon="103.356805"><ele>1858.3887</ele><time>2026-07-21T06:03:56.000Z</time></trkpt>
        <trkpt lat="29.565259" lon="103.356798"><ele>1859.5087</ele><time>2026-07-21T06:04:00.000Z</time></trkpt>
        <trkpt lat="29.565243" lon="103.356791"><ele>1860.5535</ele><time>2026-07-21T06:04:02.000Z</time></trkpt>
        <trkpt lat="29.565226" lon="103.356782"><ele>1861.5553</ele><time>2026-07-21T06:04:04.000Z</time></trkpt>
        <trkpt lat="29.565211" lon="103.356773"><ele>1861.9929</ele><time>2026-07-21T06:04:06.000Z</time></trkpt>
        <trkpt lat="29.5652" lon="103.356765"><ele>1863.0592</ele><time>2026-07-21T06:04:08.000Z</time></trkpt>
        <trkpt lat="29.565192" lon="103.356759"><ele>1863.5198</ele><time>2026-07-21T06:04:10.000Z</time></trkpt>
        <trkpt lat="29.565185" lon="103.35675"><ele>1863.641</ele><time>2026-07-21T06:04:14.000Z</time></trkpt>
        <trkpt lat="29.565177" lon="103.356737"><ele>1862.0189</ele><time>2026-07-21T06:04:22.000Z</time></trkpt>
        <trkpt lat="29.565173" lon="103.35673"><ele>1861.0566</ele><time>2026-07-21T06:04:24.000Z</time></trkpt>
        <trkpt lat="29.565165" lon="103.356726"><ele>1860.64</ele><time>2026-07-21T06:04:28.000Z</time></trkpt>
        <trkpt lat="29.565137" lon="103.356708"><ele>1863.2664</ele><time>2026-07-21T06:04:41.000Z</time></trkpt>
        <trkpt lat="29.565137" lon="103.356708"><ele>1863.3414</ele><time>2026-07-21T06:04:43.000Z</time></trkpt>
        <trkpt lat="29.565135" lon="103.356707"><ele>1863.7462</ele><time>2026-07-21T06:04:45.000Z</time></trkpt>
        <trkpt lat="29.565097" lon="103.356689"><ele>1864.9137</ele><time>2026-07-21T06:04:51.000Z</time></trkpt>
        <trkpt lat="29.565097" lon="103.356689"><ele>1865.6912</ele><time>2026-07-21T06:04:53.000Z</time></trkpt>
        <trkpt lat="29.565095" lon="103.356688"><ele>1866.3475</ele><time>2026-07-21T06:04:55.000Z</time></trkpt>
        <trkpt lat="29.565061" lon="103.356662"><ele>1867.5548</ele><time>2026-07-21T06:05:01.000Z</time></trkpt>
        <trkpt lat="29.565051" lon="103.356655"><ele>1868.3525</ele><time>2026-07-21T06:05:03.000Z</time></trkpt>
        <trkpt lat="29.565039" lon="103.356648"><ele>1868.2262</ele><time>2026-07-21T06:05:05.000Z</time></trkpt>
        <trkpt lat="29.565025" lon="103.356641"><ele>1867.64</ele><time>2026-07-21T06:05:07.000Z</time></trkpt>
        <trkpt lat="29.565011" lon="103.356635"><ele>1868.345</ele><time>2026-07-21T06:05:09.000Z</time></trkpt>
        <trkpt lat="29.564999" lon="103.356629"><ele>1868.9065</ele><time>2026-07-21T06:05:11.000Z</time></trkpt>
        <trkpt lat="29.564987" lon="103.356624"><ele>1870.1865</ele><time>2026-07-21T06:05:13.000Z</time></trkpt>
        <trkpt lat="29.564975" lon="103.356616"><ele>1870.167</ele><time>2026-07-21T06:05:15.000Z</time></trkpt>
        <trkpt lat="29.564964" lon="103.356611"><ele>1870.9745</ele><time>2026-07-21T06:05:17.000Z</time></trkpt>
        <trkpt lat="29.564951" lon="103.356606"><ele>1871.4402</ele><time>2026-07-21T06:05:19.000Z</time></trkpt>
        <trkpt lat="29.564934" lon="103.356598"><ele>1871.1647</ele><time>2026-07-21T06:05:21.000Z</time></trkpt>
        <trkpt lat="29.564918" lon="103.356589"><ele>1871.3212</ele><time>2026-07-21T06:05:23.000Z</time></trkpt>
        <trkpt lat="29.5649" lon="103.356575"><ele>1871.66</ele><time>2026-07-21T06:05:25.000Z</time></trkpt>
        <trkpt lat="29.564885" lon="103.356561"><ele>1873.5258</ele><time>2026-07-21T06:05:27.000Z</time></trkpt>
        <trkpt lat="29.564874" lon="103.356551"><ele>1874.0431</ele><time>2026-07-21T06:05:29.000Z</time></trkpt>
        <trkpt lat="29.564864" lon="103.356542"><ele>1873.008</ele><time>2026-07-21T06:05:31.000Z</time></trkpt>
        <trkpt lat="29.564855" lon="103.356531"><ele>1873.1152</ele><time>2026-07-21T06:05:33.000Z</time></trkpt>
        <trkpt lat="29.564846" lon="103.356521"><ele>1873.1796</ele><time>2026-07-21T06:05:35.000Z</time></trkpt>
        <trkpt lat="29.564836" lon="103.35651"><ele>1872.5704</ele><time>2026-07-21T06:05:37.000Z</time></trkpt>
        <trkpt lat="29.564829" lon="103.356501"><ele>1872.7218</ele><time>2026-07-21T06:05:39.000Z</time></trkpt>
        <trkpt lat="29.564821" lon="103.35649"><ele>1872.4764</ele><time>2026-07-21T06:05:41.000Z</time></trkpt>
        <trkpt lat="29.564818" lon="103.356483"><ele>1873.111</ele><time>2026-07-21T06:05:43.000Z</time></trkpt>
        <trkpt lat="29.564811" lon="103.356468"><ele>1873.7179</ele><time>2026-07-21T06:05:47.000Z</time></trkpt>
        <trkpt lat="29.564803" lon="103.356453"><ele>1874.5284</ele><time>2026-07-21T06:05:51.000Z</time></trkpt>
        <trkpt lat="29.564797" lon="103.356448"><ele>1875.516</ele><time>2026-07-21T06:05:53.000Z</time></trkpt>
        <trkpt lat="29.564787" lon="103.356437"><ele>1875.188</ele><time>2026-07-21T06:05:55.000Z</time></trkpt>
        <trkpt lat="29.564777" lon="103.356424"><ele>1876.633</ele><time>2026-07-21T06:06:01.000Z</time></trkpt>
        <trkpt lat="29.564769" lon="103.356409"><ele>1877.2584</ele><time>2026-07-21T06:06:03.000Z</time></trkpt>
        <trkpt lat="29.564762" lon="103.356396"><ele>1878.0242</ele><time>2026-07-21T06:06:05.000Z</time></trkpt>
        <trkpt lat="29.564755" lon="103.356384"><ele>1878.3566</ele><time>2026-07-21T06:06:07.000Z</time></trkpt>
        <trkpt lat="29.564746" lon="103.356373"><ele>1877.5396</ele><time>2026-07-21T06:06:09.000Z</time></trkpt>
        <trkpt lat="29.564732" lon="103.35636"><ele>1877.1669</ele><time>2026-07-21T06:06:11.000Z</time></trkpt>
        <trkpt lat="29.564716" lon="103.356345"><ele>1877.1624</ele><time>2026-07-21T06:06:13.000Z</time></trkpt>
        <trkpt lat="29.564702" lon="103.356328"><ele>1876.6744</ele><time>2026-07-21T06:06:15.000Z</time></trkpt>
        <trkpt lat="29.564692" lon="103.356314"><ele>1877.2401</ele><time>2026-07-21T06:06:17.000Z</time></trkpt>
        <trkpt lat="29.564684" lon="103.356299"><ele>1877.408</ele><time>2026-07-21T06:06:19.000Z</time></trkpt>
        <trkpt lat="29.564676" lon="103.356284"><ele>1878.0906</ele><time>2026-07-21T06:06:21.000Z</time></trkpt>
        <trkpt lat="29.56467" lon="103.35627"><ele>1878.3131</ele><time>2026-07-21T06:06:23.000Z</time></trkpt>
        <trkpt lat="29.564667" lon="103.356262"><ele>1879.0067</ele><time>2026-07-21T06:06:25.000Z</time></trkpt>
        <trkpt lat="29.564662" lon="103.35625"><ele>1879.1002</ele><time>2026-07-21T06:06:27.000Z</time></trkpt>
        <trkpt lat="29.564655" lon="103.356238"><ele>1878.8837</ele><time>2026-07-21T06:06:29.000Z</time></trkpt>
        <trkpt lat="29.564644" lon="103.356222"><ele>1878.8762</ele><time>2026-07-21T06:06:31.000Z</time></trkpt>
        <trkpt lat="29.564637" lon="103.35621"><ele>1878.8219</ele><time>2026-07-21T06:06:33.000Z</time></trkpt>
        <trkpt lat="29.564629" lon="103.356197"><ele>1879.4218</ele><time>2026-07-21T06:06:35.000Z</time></trkpt>
        <trkpt lat="29.564624" lon="103.356184"><ele>1879.8945</ele><time>2026-07-21T06:06:37.000Z</time></trkpt>
        <trkpt lat="29.564619" lon="103.356171"><ele>1879.761</ele><time>2026-07-21T06:06:39.000Z</time></trkpt>
        <trkpt lat="29.564616" lon="103.356156"><ele>1880.3005</ele><time>2026-07-21T06:06:41.000Z</time></trkpt>
        <trkpt lat="29.564615" lon="103.356145"><ele>1880.6256</ele><time>2026-07-21T06:06:43.000Z</time></trkpt>
        <trkpt lat="29.564612" lon="103.356134"><ele>1881.0802</ele><time>2026-07-21T06:06:45.000Z</time></trkpt>
        <trkpt lat="29.564608" lon="103.356123"><ele>1880.7323</ele><time>2026-07-21T06:06:47.000Z</time></trkpt>
        <trkpt lat="29.564602" lon="103.356112"><ele>1881.0161</ele><time>2026-07-21T06:06:49.000Z</time></trkpt>
        <trkpt lat="29.564594" lon="103.356095"><ele>1881.6644</ele><time>2026-07-21T06:06:51.000Z</time></trkpt>
        <trkpt lat="29.56459" lon="103.356083"><ele>1882.6854</ele><time>2026-07-21T06:06:53.000Z</time></trkpt>
        <trkpt lat="29.564587" lon="103.356074"><ele>1882.3398</ele><time>2026-07-21T06:06:55.000Z</time></trkpt>
        <trkpt lat="29.564578" lon="103.356063"><ele>1883.3235</ele><time>2026-07-21T06:06:59.000Z</time></trkpt>
        <trkpt lat="29.564568" lon="103.356058"><ele>1884.2242</ele><time>2026-07-21T06:07:05.000Z</time></trkpt>
        <trkpt lat="29.564551" lon="103.356052"><ele>1884.7046</ele><time>2026-07-21T06:07:07.000Z</time></trkpt>
        <trkpt lat="29.56454" lon="103.356048"><ele>1885.6381</ele><time>2026-07-21T06:07:09.000Z</time></trkpt>
        <trkpt lat="29.56454" lon="103.356048"><ele>1885.5405</ele><time>2026-07-21T06:07:11.000Z</time></trkpt>
        <trkpt lat="29.564528" lon="103.356081"><ele>1889.644</ele><time>2026-07-21T06:08:37.000Z</time></trkpt>
        <trkpt lat="29.564523" lon="103.356093"><ele>1889.4237</ele><time>2026-07-21T06:08:39.000Z</time></trkpt>
        <trkpt lat="29.564522" lon="103.356093"><ele>1889.179</ele><time>2026-07-21T06:08:41.000Z</time></trkpt>
        <trkpt lat="29.564501" lon="103.356119"><ele>1890.1858</ele><time>2026-07-21T06:08:47.000Z</time></trkpt>
        <trkpt lat="29.564493" lon="103.356128"><ele>1889.9004</ele><time>2026-07-21T06:08:49.000Z</time></trkpt>
        <trkpt lat="29.564491" lon="103.356134"><ele>1890.0493</ele><time>2026-07-21T06:08:51.000Z</time></trkpt>
        <trkpt lat="29.564486" lon="103.35615"><ele>1891.502</ele><time>2026-07-21T06:09:05.000Z</time></trkpt>
        <trkpt lat="29.564484" lon="103.356163"><ele>1892.5168</ele><time>2026-07-21T06:09:09.000Z</time></trkpt>
        <trkpt lat="29.564483" lon="103.356168"><ele>1892.5677</ele><time>2026-07-21T06:09:11.000Z</time></trkpt>
        <trkpt lat="29.564474" lon="103.356186"><ele>1893.5107</ele><time>2026-07-21T06:09:15.000Z</time></trkpt>
        <trkpt lat="29.564468" lon="103.356192"><ele>1894.3558</ele><time>2026-07-21T06:09:17.000Z</time></trkpt>
        <trkpt lat="29.564457" lon="103.356197"><ele>1894.5494</ele><time>2026-07-21T06:09:19.000Z</time></trkpt>
        <trkpt lat="29.564446" lon="103.356199"><ele>1894.8546</ele><time>2026-07-21T06:09:21.000Z</time></trkpt>
        <trkpt lat="29.564434" lon="103.3562"><ele>1895.2289</ele><time>2026-07-21T06:09:23.000Z</time></trkpt>
        <trkpt lat="29.564424" lon="103.356197"><ele>1895.3744</ele><time>2026-07-21T06:09:25.000Z</time></trkpt>
        <trkpt lat="29.564417" lon="103.356193"><ele>1895.6815</ele><time>2026-07-21T06:09:27.000Z</time></trkpt>
        <trkpt lat="29.564399" lon="103.356183"><ele>1895.4186</ele><time>2026-07-21T06:09:31.000Z</time></trkpt>
        <trkpt lat="29.564393" lon="103.356178"><ele>1895.1288</ele><time>2026-07-21T06:09:33.000Z</time></trkpt>
        <trkpt lat="29.564389" lon="103.356176"><ele>1895.1266</ele><time>2026-07-21T06:09:35.000Z</time></trkpt>
        <trkpt lat="29.564366" lon="103.356166"><ele>1897.3699</ele><time>2026-07-21T06:10:07.000Z</time></trkpt>
        <trkpt lat="29.564359" lon="103.356161"><ele>1897.5735</ele><time>2026-07-21T06:10:09.000Z</time></trkpt>
        <trkpt lat="29.564355" lon="103.356156"><ele>1898.2874</ele><time>2026-07-21T06:10:11.000Z</time></trkpt>
        <trkpt lat="29.564387" lon="103.356197"><ele>1900.9767</ele><time>2026-07-21T06:10:24.000Z</time></trkpt>
        <trkpt lat="29.564387" lon="103.356197"><ele>1901.1857</ele><time>2026-07-21T06:10:26.000Z</time></trkpt>
        <trkpt lat="29.564387" lon="103.3562"><ele>1900.6395</ele><time>2026-07-21T06:10:28.000Z</time></trkpt>
        <trkpt lat="29.564389" lon="103.356247"><ele>1900.8787</ele><time>2026-07-21T06:10:34.000Z</time></trkpt>
        <trkpt lat="29.564389" lon="103.356247"><ele>1901.4812</ele><time>2026-07-21T06:10:36.000Z</time></trkpt>
        <trkpt lat="29.564388" lon="103.35625"><ele>1900.9585</ele><time>2026-07-21T06:10:38.000Z</time></trkpt>
        <trkpt lat="29.564375" lon="103.356277"><ele>1900.2316</ele><time>2026-07-21T06:10:44.000Z</time></trkpt>
        <trkpt lat="29.564375" lon="103.356277"><ele>1900.2316</ele><time>2026-07-21T06:10:46.000Z</time></trkpt>
        <trkpt lat="29.564373" lon="103.356285"><ele>1901.5831</ele><time>2026-07-21T06:10:52.000Z</time></trkpt>
        <trkpt lat="29.564368" lon="103.356313"><ele>1901.897</ele><time>2026-07-21T06:10:56.000Z</time></trkpt>
        <trkpt lat="29.564368" lon="103.356313"><ele>1902.3589</ele><time>2026-07-21T06:10:58.000Z</time></trkpt>
        <trkpt lat="29.564366" lon="103.356314"><ele>1901.3099</ele><time>2026-07-21T06:11:04.000Z</time></trkpt>
        <trkpt lat="29.564336" lon="103.356328"><ele>1900.2517</ele><time>2026-07-21T06:17:14.000Z</time></trkpt>
        <trkpt lat="29.564332" lon="103.356332"><ele>1900.555</ele><time>2026-07-21T06:17:29.000Z</time></trkpt>
        <trkpt lat="29.564314" lon="103.356364"><ele>1902.7756</ele><time>2026-07-21T06:17:44.000Z</time></trkpt>
        <trkpt lat="29.564302" lon="103.356396"><ele>1906.8715</ele><time>2026-07-21T06:18:00.000Z</time></trkpt>
        <trkpt lat="29.564298" lon="103.356403"><ele>1907.308</ele><time>2026-07-21T06:18:02.000Z</time></trkpt>
        <trkpt lat="29.564294" lon="103.356406"><ele>1908.7533</ele><time>2026-07-21T06:18:04.000Z</time></trkpt>
        <trkpt lat="29.564277" lon="103.356412"><ele>1910.555</ele><time>2026-07-21T06:18:10.000Z</time></trkpt>
        <trkpt lat="29.564258" lon="103.356419"><ele>1912.162</ele><time>2026-07-21T06:18:12.000Z</time></trkpt>
        <trkpt lat="29.564256" lon="103.356419"><ele>1912.1772</ele><time>2026-07-21T06:18:14.000Z</time></trkpt>
        <trkpt lat="29.564241" lon="103.356424"><ele>1913.4749</ele><time>2026-07-21T06:18:20.000Z</time></trkpt>
        <trkpt lat="29.564213" lon="103.356431"><ele>1913.0065</ele><time>2026-07-21T06:18:24.000Z</time></trkpt>
        <trkpt lat="29.564213" lon="103.356431"><ele>1912.6962</ele><time>2026-07-21T06:18:26.000Z</time></trkpt>
        <trkpt lat="29.56421" lon="103.356432"><ele>1912.6119</ele><time>2026-07-21T06:18:28.000Z</time></trkpt>
        <trkpt lat="29.564183" lon="103.356442"><ele>1912.183</ele><time>2026-07-21T06:18:32.000Z</time></trkpt>
        <trkpt lat="29.564171" lon="103.356446"><ele>1912.0137</ele><time>2026-07-21T06:18:34.000Z</time></trkpt>
        <trkpt lat="29.564163" lon="103.356446"><ele>1912.0273</ele><time>2026-07-21T06:18:36.000Z</time></trkpt>
        <trkpt lat="29.564162" lon="103.356449"><ele>1912.8693</ele><time>2026-07-21T06:19:00.000Z</time></trkpt>
        <trkpt lat="29.564156" lon="103.356479"><ele>1913.0815</ele><time>2026-07-21T06:19:12.000Z</time></trkpt>
        <trkpt lat="29.564157" lon="103.356482"><ele>1913.0046</ele><time>2026-07-21T06:19:14.000Z</time></trkpt>
        <trkpt lat="29.564157" lon="103.356485"><ele>1913.4093</ele><time>2026-07-21T06:19:16.000Z</time></trkpt>
        <trkpt lat="29.564155" lon="103.356444"><ele>1912.59</ele><time>2026-07-21T06:19:26.000Z</time></trkpt>
        <trkpt lat="29.564154" lon="103.356437"><ele>1912.3782</ele><time>2026-07-21T06:19:28.000Z</time></trkpt>
        <trkpt lat="29.564152" lon="103.35643"><ele>1912.1943</ele><time>2026-07-21T06:19:30.000Z</time></trkpt>
        <trkpt lat="29.564145" lon="103.356408"><ele>1910.7697</ele><time>2026-07-21T06:19:36.000Z</time></trkpt>
        <trkpt lat="29.564143" lon="103.356399"><ele>1910.4952</ele><time>2026-07-21T06:19:38.000Z</time></trkpt>
        <trkpt lat="29.564141" lon="103.356384"><ele>1910.2147</ele><time>2026-07-21T06:19:40.000Z</time></trkpt>
        <trkpt lat="29.564126" lon="103.35631"><ele>1906.7952</ele><time>2026-07-21T06:19:55.000Z</time></trkpt>
        <trkpt lat="29.564096" lon="103.356192"><ele>1905.3708</ele><time>2026-07-21T06:20:11.000Z</time></trkpt>
        <trkpt lat="29.564071" lon="103.35609"><ele>1904.2849</ele><time>2026-07-21T06:20:26.000Z</time></trkpt>
        <trkpt lat="29.564039" lon="103.355963"><ele>1900.8964</ele><time>2026-07-21T06:20:41.000Z</time></trkpt>
        <trkpt lat="29.564034" lon="103.355945"><ele>1900.1628</ele><time>2026-07-21T06:20:43.000Z</time></trkpt>
        <trkpt lat="29.564031" lon="103.35593"><ele>1900.4188</ele><time>2026-07-21T06:20:45.000Z</time></trkpt>
        <trkpt lat="29.564029" lon="103.355918"><ele>1900.1929</ele><time>2026-07-21T06:20:47.000Z</time></trkpt>
        <trkpt lat="29.564029" lon="103.355907"><ele>1900.0591</ele><time>2026-07-21T06:20:49.000Z</time></trkpt>
        <trkpt lat="29.564031" lon="103.355896"><ele>1899.3948</ele><time>2026-07-21T06:20:51.000Z</time></trkpt>
        <trkpt lat="29.564035" lon="103.355882"><ele>1899.0409</ele><time>2026-07-21T06:20:53.000Z</time></trkpt>
        <trkpt lat="29.564037" lon="103.355867"><ele>1898.8373</ele><time>2026-07-21T06:20:55.000Z</time></trkpt>
        <trkpt lat="29.56404" lon="103.355852"><ele>1898.2039</ele><time>2026-07-21T06:20:57.000Z</time></trkpt>
        <trkpt lat="29.564041" lon="103.355836"><ele>1898.0964</ele><time>2026-07-21T06:20:59.000Z</time></trkpt>
        <trkpt lat="29.564039" lon="103.355824"><ele>1897.9127</ele><time>2026-07-21T06:21:01.000Z</time></trkpt>
        <trkpt lat="29.564035" lon="103.355813"><ele>1897.7892</ele><time>2026-07-21T06:21:03.000Z</time></trkpt>
        <trkpt lat="29.564027" lon="103.355799"><ele>1897.4783</ele><time>2026-07-21T06:21:05.000Z</time></trkpt>
        <trkpt lat="29.564018" lon="103.355782"><ele>1896.7611</ele><time>2026-07-21T06:21:07.000Z</time></trkpt>
        <trkpt lat="29.56401" lon="103.355765"><ele>1896.6237</ele><time>2026-07-21T06:21:09.000Z</time></trkpt>
        <trkpt lat="29.564004" lon="103.35575"><ele>1895.9479</ele><time>2026-07-21T06:21:11.000Z</time></trkpt>
        <trkpt lat="29.563999" lon="103.355734"><ele>1895.7886</ele><time>2026-07-21T06:21:13.000Z</time></trkpt>
        <trkpt lat="29.563995" lon="103.355717"><ele>1895.5348</ele><time>2026-07-21T06:21:15.000Z</time></trkpt>
        <trkpt lat="29.563991" lon="103.355698"><ele>1896.3323</ele><time>2026-07-21T06:21:17.000Z</time></trkpt>
        <trkpt lat="29.563987" lon="103.35568"><ele>1895.9563</ele><time>2026-07-21T06:21:19.000Z</time></trkpt>
        <trkpt lat="29.563983" lon="103.355667"><ele>1896.2125</ele><time>2026-07-21T06:21:21.000Z</time></trkpt>
        <trkpt lat="29.563982" lon="103.355654"><ele>1896.18</ele><time>2026-07-21T06:21:23.000Z</time></trkpt>
        <trkpt lat="29.56398" lon="103.355641"><ele>1896.0096</ele><time>2026-07-21T06:21:25.000Z</time></trkpt>
        <trkpt lat="29.563979" lon="103.355627"><ele>1895.0122</ele><time>2026-07-21T06:21:27.000Z</time></trkpt>
        <trkpt lat="29.563978" lon="103.355611"><ele>1894.0671</ele><time>2026-07-21T06:21:29.000Z</time></trkpt>
        <trkpt lat="29.563979" lon="103.355596"><ele>1893.7814</ele><time>2026-07-21T06:21:31.000Z</time></trkpt>
        <trkpt lat="29.563982" lon="103.355579"><ele>1893.6129</ele><time>2026-07-21T06:21:33.000Z</time></trkpt>
        <trkpt lat="29.563984" lon="103.355564"><ele>1893.2557</ele><time>2026-07-21T06:21:35.000Z</time></trkpt>
        <trkpt lat="29.563988" lon="103.355547"><ele>1893.3068</ele><time>2026-07-21T06:21:37.000Z</time></trkpt>
        <trkpt lat="29.563991" lon="103.355529"><ele>1892.1803</ele><time>2026-07-21T06:21:39.000Z</time></trkpt>
        <trkpt lat="29.56399" lon="103.355513"><ele>1891.7833</ele><time>2026-07-21T06:21:41.000Z</time></trkpt>
        <trkpt lat="29.563986" lon="103.355501"><ele>1891.7467</ele><time>2026-07-21T06:21:43.000Z</time></trkpt>
        <trkpt lat="29.563981" lon="103.355486"><ele>1891.1803</ele><time>2026-07-21T06:21:45.000Z</time></trkpt>
        <trkpt lat="29.563975" lon="103.355474"><ele>1890.2944</ele><time>2026-07-21T06:21:47.000Z</time></trkpt>
        <trkpt lat="29.56397" lon="103.355464"><ele>1890.216</ele><time>2026-07-21T06:21:49.000Z</time></trkpt>
        <trkpt lat="29.563965" lon="103.355453"><ele>1889.7207</ele><time>2026-07-21T06:21:51.000Z</time></trkpt>
        <trkpt lat="29.563961" lon="103.355443"><ele>1890.3132</ele><time>2026-07-21T06:21:53.000Z</time></trkpt>
        <trkpt lat="29.563956" lon="103.355425"><ele>1888.6891</ele><time>2026-07-21T06:21:55.000Z</time></trkpt>
        <trkpt lat="29.563954" lon="103.35541"><ele>1887.8894</ele><time>2026-07-21T06:21:57.000Z</time></trkpt>
        <trkpt lat="29.563951" lon="103.355392"><ele>1888.3956</ele><time>2026-07-21T06:21:59.000Z</time></trkpt>
        <trkpt lat="29.563949" lon="103.355378"><ele>1887.8169</ele><time>2026-07-21T06:22:01.000Z</time></trkpt>
        <trkpt lat="29.563948" lon="103.355364"><ele>1887.081</ele><time>2026-07-21T06:22:03.000Z</time></trkpt>
        <trkpt lat="29.563947" lon="103.355352"><ele>1887.1797</ele><time>2026-07-21T06:22:05.000Z</time></trkpt>
        <trkpt lat="29.563946" lon="103.355341"><ele>1887.8926</ele><time>2026-07-21T06:22:07.000Z</time></trkpt>
        <trkpt lat="29.563944" lon="103.355325"><ele>1887.0159</ele><time>2026-07-21T06:22:09.000Z</time></trkpt>
        <trkpt lat="29.563942" lon="103.355307"><ele>1886.3787</ele><time>2026-07-21T06:22:11.000Z</time></trkpt>
        <trkpt lat="29.563939" lon="103.355287"><ele>1886.0247</ele><time>2026-07-21T06:22:13.000Z</time></trkpt>
        <trkpt lat="29.563935" lon="103.355267"><ele>1885.7905</ele><time>2026-07-21T06:22:15.000Z</time></trkpt>
        <trkpt lat="29.563929" lon="103.355251"><ele>1885.0358</ele><time>2026-07-21T06:22:17.000Z</time></trkpt>
        <trkpt lat="29.56392" lon="103.355233"><ele>1884.8827</ele><time>2026-07-21T06:22:19.000Z</time></trkpt>
        <trkpt lat="29.563911" lon="103.355216"><ele>1883.606</ele><time>2026-07-21T06:22:21.000Z</time></trkpt>
        <trkpt lat="29.563901" lon="103.355197"><ele>1883.8534</ele><time>2026-07-21T06:22:23.000Z</time></trkpt>
        <trkpt lat="29.563891" lon="103.355181"><ele>1883.4095</ele><time>2026-07-21T06:22:25.000Z</time></trkpt>
        <trkpt lat="29.563881" lon="103.355166"><ele>1883.4745</ele><time>2026-07-21T06:22:27.000Z</time></trkpt>
        <trkpt lat="29.56387" lon="103.355151"><ele>1882.7133</ele><time>2026-07-21T06:22:29.000Z</time></trkpt>
        <trkpt lat="29.563859" lon="103.35514"><ele>1882.2273</ele><time>2026-07-21T06:22:31.000Z</time></trkpt>
        <trkpt lat="29.563849" lon="103.355129"><ele>1882.2821</ele><time>2026-07-21T06:22:33.000Z</time></trkpt>
        <trkpt lat="29.56384" lon="103.355117"><ele>1882.4744</ele><time>2026-07-21T06:22:35.000Z</time></trkpt>
        <trkpt lat="29.563832" lon="103.355104"><ele>1882.0619</ele><time>2026-07-21T06:22:37.000Z</time></trkpt>
        <trkpt lat="29.563824" lon="103.355091"><ele>1882.1235</ele><time>2026-07-21T06:22:39.000Z</time></trkpt>
        <trkpt lat="29.563816" lon="103.355078"><ele>1882.5593</ele><time>2026-07-21T06:22:41.000Z</time></trkpt>
        <trkpt lat="29.563807" lon="103.355065"><ele>1881.0371</ele><time>2026-07-21T06:22:43.000Z</time></trkpt>
        <trkpt lat="29.563802" lon="103.355058"><ele>1881.5724</ele><time>2026-07-21T06:22:45.000Z</time></trkpt>
        <trkpt lat="29.563789" lon="103.355044"><ele>1882.4753</ele><time>2026-07-21T06:22:49.000Z</time></trkpt>
        <trkpt lat="29.56378" lon="103.355037"><ele>1881.9938</ele><time>2026-07-21T06:22:51.000Z</time></trkpt>
        <trkpt lat="29.563768" lon="103.355029"><ele>1881.3055</ele><time>2026-07-21T06:22:53.000Z</time></trkpt>
        <trkpt lat="29.563755" lon="103.355017"><ele>1881.5687</ele><time>2026-07-21T06:22:55.000Z</time></trkpt>
        <trkpt lat="29.563742" lon="103.355004"><ele>1881.6353</ele><time>2026-07-21T06:22:57.000Z</time></trkpt>
        <trkpt lat="29.563729" lon="103.354989"><ele>1881.4729</ele><time>2026-07-21T06:22:59.000Z</time></trkpt>
        <trkpt lat="29.563717" lon="103.354975"><ele>1881.665</ele><time>2026-07-21T06:23:01.000Z</time></trkpt>
        <trkpt lat="29.563704" lon="103.35496"><ele>1881.9899</ele><time>2026-07-21T06:23:03.000Z</time></trkpt>
        <trkpt lat="29.563697" lon="103.354951"><ele>1881.3076</ele><time>2026-07-21T06:23:05.000Z</time></trkpt>
        <trkpt lat="29.563693" lon="103.354945"><ele>1881.585</ele><time>2026-07-21T06:23:07.000Z</time></trkpt>
        <trkpt lat="29.563681" lon="103.354934"><ele>1881.0128</ele><time>2026-07-21T06:23:13.000Z</time></trkpt>
        <trkpt lat="29.56367" lon="103.354924"><ele>1881.2872</ele><time>2026-07-21T06:23:15.000Z</time></trkpt>
        <trkpt lat="29.563656" lon="103.354911"><ele>1881.4435</ele><time>2026-07-21T06:23:17.000Z</time></trkpt>
        <trkpt lat="29.563655" lon="103.35491"><ele>1881.4751</ele><time>2026-07-21T06:23:19.000Z</time></trkpt>
        <trkpt lat="29.563641" lon="103.354899"><ele>1881.7394</ele><time>2026-07-21T06:23:23.000Z</time></trkpt>
        <trkpt lat="29.563626" lon="103.354885"><ele>1881.0048</ele><time>2026-07-21T06:23:25.000Z</time></trkpt>
        <trkpt lat="29.56361" lon="103.354869"><ele>1881.3983</ele><time>2026-07-21T06:23:27.000Z</time></trkpt>
        <trkpt lat="29.563596" lon="103.354853"><ele>1881.5575</ele><time>2026-07-21T06:23:29.000Z</time></trkpt>
        <trkpt lat="29.563583" lon="103.354838"><ele>1881.6896</ele><time>2026-07-21T06:23:31.000Z</time></trkpt>
        <trkpt lat="29.563569" lon="103.35482"><ele>1882.1239</ele><time>2026-07-21T06:23:33.000Z</time></trkpt>
        <trkpt lat="29.563555" lon="103.354802"><ele>1882.8367</ele><time>2026-07-21T06:23:35.000Z</time></trkpt>
        <trkpt lat="29.563541" lon="103.354785"><ele>1883.3483</ele><time>2026-07-21T06:23:37.000Z</time></trkpt>
        <trkpt lat="29.563531" lon="103.35477"><ele>1883.6553</ele><time>2026-07-21T06:23:39.000Z</time></trkpt>
        <trkpt lat="29.563524" lon="103.354752"><ele>1884.0712</ele><time>2026-07-21T06:23:41.000Z</time></trkpt>
        <trkpt lat="29.563517" lon="103.354732"><ele>1883.4666</ele><time>2026-07-21T06:23:43.000Z</time></trkpt>
        <trkpt lat="29.563512" lon="103.354711"><ele>1883.3082</ele><time>2026-07-21T06:23:45.000Z</time></trkpt>
        <trkpt lat="29.563508" lon="103.354688"><ele>1883.4491</ele><time>2026-07-21T06:23:47.000Z</time></trkpt>
        <trkpt lat="29.563503" lon="103.354666"><ele>1882.9813</ele><time>2026-07-21T06:23:49.000Z</time></trkpt>
        <trkpt lat="29.563496" lon="103.354645"><ele>1882.2576</ele><time>2026-07-21T06:23:51.000Z</time></trkpt>
        <trkpt lat="29.563486" lon="103.354628"><ele>1882.378</ele><time>2026-07-21T06:23:53.000Z</time></trkpt>
        <trkpt lat="29.563475" lon="103.354615"><ele>1882.6317</ele><time>2026-07-21T06:23:55.000Z</time></trkpt>
        <trkpt lat="29.563461" lon="103.354603"><ele>1882.9554</ele><time>2026-07-21T06:23:57.000Z</time></trkpt>
        <trkpt lat="29.563446" lon="103.354592"><ele>1882.7733</ele><time>2026-07-21T06:23:59.000Z</time></trkpt>
        <trkpt lat="29.56343" lon="103.354581"><ele>1882.8026</ele><time>2026-07-21T06:24:01.000Z</time></trkpt>
        <trkpt lat="29.563416" lon="103.354573"><ele>1883.003</ele><time>2026-07-21T06:24:03.000Z</time></trkpt>
        <trkpt lat="29.563403" lon="103.354564"><ele>1882.8652</ele><time>2026-07-21T06:24:05.000Z</time></trkpt>
        <trkpt lat="29.563389" lon="103.354553"><ele>1882.6322</ele><time>2026-07-21T06:24:07.000Z</time></trkpt>
        <trkpt lat="29.563375" lon="103.35454"><ele>1882.6589</ele><time>2026-07-21T06:24:09.000Z</time></trkpt>
        <trkpt lat="29.563363" lon="103.354526"><ele>1882.7289</ele><time>2026-07-21T06:24:11.000Z</time></trkpt>
        <trkpt lat="29.563354" lon="103.354513"><ele>1884.0806</ele><time>2026-07-21T06:24:13.000Z</time></trkpt>
        <trkpt lat="29.563345" lon="103.354497"><ele>1883.9683</ele><time>2026-07-21T06:24:15.000Z</time></trkpt>
        <trkpt lat="29.563338" lon="103.354482"><ele>1883.9097</ele><time>2026-07-21T06:24:17.000Z</time></trkpt>
        <trkpt lat="29.563331" lon="103.354467"><ele>1884.0164</ele><time>2026-07-21T06:24:19.000Z</time></trkpt>
        <trkpt lat="29.563325" lon="103.354451"><ele>1884.025</ele><time>2026-07-21T06:24:21.000Z</time></trkpt>
        <trkpt lat="29.563319" lon="103.35443"><ele>1883.9999</ele><time>2026-07-21T06:24:23.000Z</time></trkpt>
        <trkpt lat="29.563313" lon="103.354408"><ele>1883.4398</ele><time>2026-07-21T06:24:25.000Z</time></trkpt>
        <trkpt lat="29.563307" lon="103.354387"><ele>1883.0615</ele><time>2026-07-21T06:24:27.000Z</time></trkpt>
        <trkpt lat="29.563301" lon="103.354368"><ele>1882.3157</ele><time>2026-07-21T06:24:29.000Z</time></trkpt>
        <trkpt lat="29.563296" lon="103.354349"><ele>1882.4865</ele><time>2026-07-21T06:24:31.000Z</time></trkpt>
        <trkpt lat="29.563292" lon="103.354332"><ele>1881.9404</ele><time>2026-07-21T06:24:33.000Z</time></trkpt>
        <trkpt lat="29.563289" lon="103.354317"><ele>1881.909</ele><time>2026-07-21T06:24:35.000Z</time></trkpt>
        <trkpt lat="29.563286" lon="103.3543"><ele>1881.623</ele><time>2026-07-21T06:24:37.000Z</time></trkpt>
        <trkpt lat="29.563281" lon="103.354285"><ele>1881.6232</ele><time>2026-07-21T06:24:39.000Z</time></trkpt>
        <trkpt lat="29.563278" lon="103.354273"><ele>1879.9325</ele><time>2026-07-21T06:24:41.000Z</time></trkpt>
        <trkpt lat="29.563275" lon="103.354257"><ele>1879.5867</ele><time>2026-07-21T06:24:43.000Z</time></trkpt>
        <trkpt lat="29.563274" lon="103.354239"><ele>1879.2063</ele><time>2026-07-21T06:24:45.000Z</time></trkpt>
        <trkpt lat="29.563274" lon="103.354219"><ele>1879.5452</ele><time>2026-07-21T06:24:47.000Z</time></trkpt>
        <trkpt lat="29.563272" lon="103.3542"><ele>1879.6287</ele><time>2026-07-21T06:24:49.000Z</time></trkpt>
        <trkpt lat="29.563268" lon="103.354186"><ele>1879.8773</ele><time>2026-07-21T06:24:51.000Z</time></trkpt>
        <trkpt lat="29.563262" lon="103.354171"><ele>1879.2948</ele><time>2026-07-21T06:24:53.000Z</time></trkpt>
        <trkpt lat="29.563256" lon="103.354155"><ele>1878.9651</ele><time>2026-07-21T06:24:55.000Z</time></trkpt>
        <trkpt lat="29.56325" lon="103.354137"><ele>1878.653</ele><time>2026-07-21T06:24:57.000Z</time></trkpt>
        <trkpt lat="29.563246" lon="103.35412"><ele>1880.6698</ele><time>2026-07-21T06:24:59.000Z</time></trkpt>
        <trkpt lat="29.563241" lon="103.3541"><ele>1880.3647</ele><time>2026-07-21T06:25:01.000Z</time></trkpt>
        <trkpt lat="29.563235" lon="103.354079"><ele>1880.3976</ele><time>2026-07-21T06:25:03.000Z</time></trkpt>
        <trkpt lat="29.563229" lon="103.354057"><ele>1880.6423</ele><time>2026-07-21T06:25:05.000Z</time></trkpt>
        <trkpt lat="29.563222" lon="103.354036"><ele>1881.715</ele><time>2026-07-21T06:25:07.000Z</time></trkpt>
        <trkpt lat="29.563215" lon="103.354014"><ele>1882.496</ele><time>2026-07-21T06:25:09.000Z</time></trkpt>
        <trkpt lat="29.563207" lon="103.353995"><ele>1882.8043</ele><time>2026-07-21T06:25:11.000Z</time></trkpt>
        <trkpt lat="29.5632" lon="103.353977"><ele>1883.1337</ele><time>2026-07-21T06:25:13.000Z</time></trkpt>
        <trkpt lat="29.563193" lon="103.353957"><ele>1884.302</ele><time>2026-07-21T06:25:15.000Z</time></trkpt>
        <trkpt lat="29.563188" lon="103.353941"><ele>1885.8802</ele><time>2026-07-21T06:25:17.000Z</time></trkpt>
        <trkpt lat="29.563183" lon="103.353923"><ele>1884.9247</ele><time>2026-07-21T06:25:19.000Z</time></trkpt>
        <trkpt lat="29.563181" lon="103.353905"><ele>1884.1104</ele><time>2026-07-21T06:25:21.000Z</time></trkpt>
        <trkpt lat="29.563178" lon="103.353885"><ele>1883.9415</ele><time>2026-07-21T06:25:23.000Z</time></trkpt>
        <trkpt lat="29.563175" lon="103.353864"><ele>1883.298</ele><time>2026-07-21T06:25:25.000Z</time></trkpt>
        <trkpt lat="29.563172" lon="103.353846"><ele>1882.3668</ele><time>2026-07-21T06:25:27.000Z</time></trkpt>
        <trkpt lat="29.563169" lon="103.353827"><ele>1882.236</ele><time>2026-07-21T06:25:29.000Z</time></trkpt>
        <trkpt lat="29.563165" lon="103.353803"><ele>1881.5944</ele><time>2026-07-21T06:25:31.000Z</time></trkpt>
        <trkpt lat="29.563157" lon="103.353779"><ele>1880.8535</ele><time>2026-07-21T06:25:33.000Z</time></trkpt>
        <trkpt lat="29.563148" lon="103.353755"><ele>1880.2349</ele><time>2026-07-21T06:25:35.000Z</time></trkpt>
        <trkpt lat="29.56314" lon="103.353736"><ele>1880.5679</ele><time>2026-07-21T06:25:37.000Z</time></trkpt>
        <trkpt lat="29.563132" lon="103.353716"><ele>1881.0778</ele><time>2026-07-21T06:25:39.000Z</time></trkpt>
        <trkpt lat="29.563127" lon="103.353702"><ele>1882.2496</ele><time>2026-07-21T06:25:41.000Z</time></trkpt>
        <trkpt lat="29.563122" lon="103.353688"><ele>1884.1123</ele><time>2026-07-21T06:25:43.000Z</time></trkpt>
        <trkpt lat="29.563117" lon="103.353673"><ele>1883.2664</ele><time>2026-07-21T06:25:45.000Z</time></trkpt>
        <trkpt lat="29.563113" lon="103.353659"><ele>1884.3198</ele><time>2026-07-21T06:25:47.000Z</time></trkpt>
        <trkpt lat="29.56311" lon="103.353642"><ele>1884.0385</ele><time>2026-07-21T06:25:49.000Z</time></trkpt>
        <trkpt lat="29.563109" lon="103.353627"><ele>1884.5715</ele><time>2026-07-21T06:25:51.000Z</time></trkpt>
        <trkpt lat="29.563108" lon="103.35361"><ele>1884.3882</ele><time>2026-07-21T06:25:53.000Z</time></trkpt>
        <trkpt lat="29.563108" lon="103.353592"><ele>1884.2054</ele><time>2026-07-21T06:25:55.000Z</time></trkpt>
        <trkpt lat="29.563109" lon="103.353573"><ele>1883.954</ele><time>2026-07-21T06:25:57.000Z</time></trkpt>
        <trkpt lat="29.56311" lon="103.353553"><ele>1883.971</ele><time>2026-07-21T06:25:59.000Z</time></trkpt>
        <trkpt lat="29.563112" lon="103.353537"><ele>1882.8116</ele><time>2026-07-21T06:26:01.000Z</time></trkpt>
        <trkpt lat="29.563115" lon="103.353523"><ele>1882.7377</ele><time>2026-07-21T06:26:03.000Z</time></trkpt>
        <trkpt lat="29.563117" lon="103.35351"><ele>1882.7007</ele><time>2026-07-21T06:26:05.000Z</time></trkpt>
        <trkpt lat="29.563119" lon="103.353497"><ele>1882.2382</ele><time>2026-07-21T06:26:07.000Z</time></trkpt>
        <trkpt lat="29.563121" lon="103.353485"><ele>1882.138</ele><time>2026-07-21T06:26:09.000Z</time></trkpt>
        <trkpt lat="29.563122" lon="103.353472"><ele>1881.8972</ele><time>2026-07-21T06:26:11.000Z</time></trkpt>
        <trkpt lat="29.563124" lon="103.353459"><ele>1880.9657</ele><time>2026-07-21T06:26:13.000Z</time></trkpt>
        <trkpt lat="29.563124" lon="103.353444"><ele>1879.9978</ele><time>2026-07-21T06:26:15.000Z</time></trkpt>
        <trkpt lat="29.563125" lon="103.353428"><ele>1879.4648</ele><time>2026-07-21T06:26:17.000Z</time></trkpt>
        <trkpt lat="29.563125" lon="103.353413"><ele>1879.2368</ele><time>2026-07-21T06:26:19.000Z</time></trkpt>
        <trkpt lat="29.563124" lon="103.3534"><ele>1879.0774</ele><time>2026-07-21T06:26:21.000Z</time></trkpt>
        <trkpt lat="29.563123" lon="103.353387"><ele>1878.8159</ele><time>2026-07-21T06:26:23.000Z</time></trkpt>
        <trkpt lat="29.56312" lon="103.353376"><ele>1878.9595</ele><time>2026-07-21T06:26:25.000Z</time></trkpt>
        <trkpt lat="29.563116" lon="103.353366"><ele>1878.421</ele><time>2026-07-21T06:26:27.000Z</time></trkpt>
        <trkpt lat="29.56311" lon="103.353346"><ele>1877.827</ele><time>2026-07-21T06:26:31.000Z</time></trkpt>
        <trkpt lat="29.563105" lon="103.353333"><ele>1877.6497</ele><time>2026-07-21T06:26:33.000Z</time></trkpt>
        <trkpt lat="29.563101" lon="103.353318"><ele>1878.088</ele><time>2026-07-21T06:26:35.000Z</time></trkpt>
        <trkpt lat="29.563097" lon="103.353299"><ele>1878.4395</ele><time>2026-07-21T06:26:37.000Z</time></trkpt>
        <trkpt lat="29.563094" lon="103.353281"><ele>1878.8405</ele><time>2026-07-21T06:26:39.000Z</time></trkpt>
        <trkpt lat="29.56309" lon="103.35326"><ele>1879.6556</ele><time>2026-07-21T06:26:41.000Z</time></trkpt>
        <trkpt lat="29.563086" lon="103.353238"><ele>1879.6442</ele><time>2026-07-21T06:26:43.000Z</time></trkpt>
        <trkpt lat="29.563083" lon="103.353218"><ele>1880.3823</ele><time>2026-07-21T06:26:45.000Z</time></trkpt>
        <trkpt lat="29.563081" lon="103.3532"><ele>1879.794</ele><time>2026-07-21T06:26:47.000Z</time></trkpt>
        <trkpt lat="29.563078" lon="103.35318"><ele>1877.9895</ele><time>2026-07-21T06:26:49.000Z</time></trkpt>
        <trkpt lat="29.563074" lon="103.35316"><ele>1877.2617</ele><time>2026-07-21T06:26:51.000Z</time></trkpt>
        <trkpt lat="29.563068" lon="103.353138"><ele>1876.8406</ele><time>2026-07-21T06:26:53.000Z</time></trkpt>
        <trkpt lat="29.563059" lon="103.353113"><ele>1877.2418</ele><time>2026-07-21T06:26:55.000Z</time></trkpt>
        <trkpt lat="29.563051" lon="103.35309"><ele>1877.8472</ele><time>2026-07-21T06:26:57.000Z</time></trkpt>
        <trkpt lat="29.563042" lon="103.353068"><ele>1877.693</ele><time>2026-07-21T06:26:59.000Z</time></trkpt>
        <trkpt lat="29.563031" lon="103.353045"><ele>1877.7267</ele><time>2026-07-21T06:27:01.000Z</time></trkpt>
        <trkpt lat="29.563022" lon="103.353024"><ele>1877.2673</ele><time>2026-07-21T06:27:03.000Z</time></trkpt>
        <trkpt lat="29.563013" lon="103.353002"><ele>1876.5139</ele><time>2026-07-21T06:27:05.000Z</time></trkpt>
        <trkpt lat="29.563002" lon="103.352981"><ele>1875.9415</ele><time>2026-07-21T06:27:07.000Z</time></trkpt>
        <trkpt lat="29.56299" lon="103.35296"><ele>1875.2871</ele><time>2026-07-21T06:27:09.000Z</time></trkpt>
        <trkpt lat="29.562979" lon="103.352938"><ele>1874.7267</ele><time>2026-07-21T06:27:11.000Z</time></trkpt>
        <trkpt lat="29.562971" lon="103.352916"><ele>1873.8646</ele><time>2026-07-21T06:27:13.000Z</time></trkpt>
        <trkpt lat="29.562964" lon="103.352893"><ele>1873.0664</ele><time>2026-07-21T06:27:15.000Z</time></trkpt>
        <trkpt lat="29.562961" lon="103.352873"><ele>1872.6847</ele><time>2026-07-21T06:27:17.000Z</time></trkpt>
        <trkpt lat="29.56296" lon="103.352856"><ele>1872.5747</ele><time>2026-07-21T06:27:19.000Z</time></trkpt>
        <trkpt lat="29.56296" lon="103.352841"><ele>1872.3602</ele><time>2026-07-21T06:27:21.000Z</time></trkpt>
        <trkpt lat="29.562959" lon="103.352827"><ele>1870.942</ele><time>2026-07-21T06:27:23.000Z</time></trkpt>
        <trkpt lat="29.56296" lon="103.352813"><ele>1870.0712</ele><time>2026-07-21T06:27:25.000Z</time></trkpt>
        <trkpt lat="29.56296" lon="103.352799"><ele>1869.755</ele><time>2026-07-21T06:27:27.000Z</time></trkpt>
        <trkpt lat="29.562958" lon="103.352788"><ele>1870.457</ele><time>2026-07-21T06:27:29.000Z</time></trkpt>
        <trkpt lat="29.562953" lon="103.352782"><ele>1870.393</ele><time>2026-07-21T06:27:31.000Z</time></trkpt>
        <trkpt lat="29.56294" lon="103.352765"><ele>1868.118</ele><time>2026-07-21T06:27:35.000Z</time></trkpt>
        <trkpt lat="29.562937" lon="103.352759"><ele>1867.6097</ele><time>2026-07-21T06:27:37.000Z</time></trkpt>
        <trkpt lat="29.562937" lon="103.352751"><ele>1866.774</ele><time>2026-07-21T06:27:39.000Z</time></trkpt>
        <trkpt lat="29.562942" lon="103.35273"><ele>1866.0029</ele><time>2026-07-21T06:27:43.000Z</time></trkpt>
        <trkpt lat="29.562946" lon="103.352728"><ele>1864.5634</ele><time>2026-07-21T06:27:45.000Z</time></trkpt>
        <trkpt lat="29.56296" lon="103.352716"><ele>1864.1475</ele><time>2026-07-21T06:27:47.000Z</time></trkpt>
        <trkpt lat="29.56297" lon="103.352706"><ele>1862.8528</ele><time>2026-07-21T06:27:53.000Z</time></trkpt>
        <trkpt lat="29.562978" lon="103.352697"><ele>1862.3263</ele><time>2026-07-21T06:27:55.000Z</time></trkpt>
        <trkpt lat="29.562985" lon="103.352687"><ele>1861.5487</ele><time>2026-07-21T06:27:57.000Z</time></trkpt>
        <trkpt lat="29.562991" lon="103.352678"><ele>1861.828</ele><time>2026-07-21T06:27:59.000Z</time></trkpt>
        <trkpt lat="29.562997" lon="103.352665"><ele>1861.6625</ele><time>2026-07-21T06:28:01.000Z</time></trkpt>
        <trkpt lat="29.563002" lon="103.352653"><ele>1860.9574</ele><time>2026-07-21T06:28:03.000Z</time></trkpt>
        <trkpt lat="29.563009" lon="103.352639"><ele>1860.0931</ele><time>2026-07-21T06:28:05.000Z</time></trkpt>
        <trkpt lat="29.563016" lon="103.352625"><ele>1859.1423</ele><time>2026-07-21T06:28:07.000Z</time></trkpt>
        <trkpt lat="29.563022" lon="103.352614"><ele>1859.1965</ele><time>2026-07-21T06:28:09.000Z</time></trkpt>
        <trkpt lat="29.56303" lon="103.352602"><ele>1859.2106</ele><time>2026-07-21T06:28:11.000Z</time></trkpt>
        <trkpt lat="29.563037" lon="103.352591"><ele>1859.5127</ele><time>2026-07-21T06:28:13.000Z</time></trkpt>
        <trkpt lat="29.563046" lon="103.352578"><ele>1859.5063</ele><time>2026-07-21T06:28:15.000Z</time></trkpt>
        <trkpt lat="29.563052" lon="103.352568"><ele>1859.4127</ele><time>2026-07-21T06:28:17.000Z</time></trkpt>
        <trkpt lat="29.563057" lon="103.352558"><ele>1859.5146</ele><time>2026-07-21T06:28:19.000Z</time></trkpt>
        <trkpt lat="29.563062" lon="103.352547"><ele>1859.1436</ele><time>2026-07-21T06:28:21.000Z</time></trkpt>
        <trkpt lat="29.563069" lon="103.352534"><ele>1859.237</ele><time>2026-07-21T06:28:23.000Z</time></trkpt>
        <trkpt lat="29.563074" lon="103.352521"><ele>1857.7847</ele><time>2026-07-21T06:28:25.000Z</time></trkpt>
        <trkpt lat="29.563079" lon="103.352507"><ele>1855.673</ele><time>2026-07-21T06:28:27.000Z</time></trkpt>
        <trkpt lat="29.563084" lon="103.352493"><ele>1855.3965</ele><time>2026-07-21T06:28:29.000Z</time></trkpt>
        <trkpt lat="29.56309" lon="103.352479"><ele>1854.7494</ele><time>2026-07-21T06:28:31.000Z</time></trkpt>
        <trkpt lat="29.563097" lon="103.352463"><ele>1853.6195</ele><time>2026-07-21T06:28:33.000Z</time></trkpt>
        <trkpt lat="29.563106" lon="103.352447"><ele>1853.0602</ele><time>2026-07-21T06:28:35.000Z</time></trkpt>
        <trkpt lat="29.563114" lon="103.352431"><ele>1852.9841</ele><time>2026-07-21T06:28:37.000Z</time></trkpt>
        <trkpt lat="29.563123" lon="103.352416"><ele>1852.7634</ele><time>2026-07-21T06:28:39.000Z</time></trkpt>
        <trkpt lat="29.563131" lon="103.3524"><ele>1852.8704</ele><time>2026-07-21T06:28:41.000Z</time></trkpt>
        <trkpt lat="29.56314" lon="103.352386"><ele>1852.5306</ele><time>2026-07-21T06:28:43.000Z</time></trkpt>
        <trkpt lat="29.563148" lon="103.352372"><ele>1852.3792</ele><time>2026-07-21T06:28:45.000Z</time></trkpt>
        <trkpt lat="29.563155" lon="103.352358"><ele>1852.9003</ele><time>2026-07-21T06:28:47.000Z</time></trkpt>
        <trkpt lat="29.563161" lon="103.352339"><ele>1852.4227</ele><time>2026-07-21T06:28:49.000Z</time></trkpt>
        <trkpt lat="29.563163" lon="103.352324"><ele>1852.3557</ele><time>2026-07-21T06:28:51.000Z</time></trkpt>
        <trkpt lat="29.563163" lon="103.3523"><ele>1850.4745</ele><time>2026-07-21T06:28:53.000Z</time></trkpt>
        <trkpt lat="29.563159" lon="103.352278"><ele>1851.0427</ele><time>2026-07-21T06:28:55.000Z</time></trkpt>
        <trkpt lat="29.563153" lon="103.352259"><ele>1851.0315</ele><time>2026-07-21T06:28:57.000Z</time></trkpt>
        <trkpt lat="29.563146" lon="103.352237"><ele>1850.5718</ele><time>2026-07-21T06:28:59.000Z</time></trkpt>
        <trkpt lat="29.563141" lon="103.352217"><ele>1850.4725</ele><time>2026-07-21T06:29:01.000Z</time></trkpt>
        <trkpt lat="29.563135" lon="103.352194"><ele>1849.4753</ele><time>2026-07-21T06:29:03.000Z</time></trkpt>
        <trkpt lat="29.563129" lon="103.352172"><ele>1849.486</ele><time>2026-07-21T06:29:05.000Z</time></trkpt>
        <trkpt lat="29.563123" lon="103.352153"><ele>1849.7004</ele><time>2026-07-21T06:29:07.000Z</time></trkpt>
        <trkpt lat="29.563117" lon="103.352132"><ele>1849.4856</ele><time>2026-07-21T06:29:09.000Z</time></trkpt>
        <trkpt lat="29.563112" lon="103.352114"><ele>1850.3931</ele><time>2026-07-21T06:29:11.000Z</time></trkpt>
        <trkpt lat="29.563107" lon="103.352094"><ele>1850.2333</ele><time>2026-07-21T06:29:13.000Z</time></trkpt>
        <trkpt lat="29.563101" lon="103.352079"><ele>1850.4857</ele><time>2026-07-21T06:29:15.000Z</time></trkpt>
        <trkpt lat="29.563097" lon="103.352066"><ele>1850.9469</ele><time>2026-07-21T06:29:17.000Z</time></trkpt>
        <trkpt lat="29.56309" lon="103.352054"><ele>1851.3712</ele><time>2026-07-21T06:29:19.000Z</time></trkpt>
        <trkpt lat="29.563082" lon="103.352042"><ele>1851.516</ele><time>2026-07-21T06:29:21.000Z</time></trkpt>
        <trkpt lat="29.563076" lon="103.35203"><ele>1852.8094</ele><time>2026-07-21T06:29:23.000Z</time></trkpt>
        <trkpt lat="29.563073" lon="103.352016"><ele>1854.0742</ele><time>2026-07-21T06:29:25.000Z</time></trkpt>
        <trkpt lat="29.563071" lon="103.352002"><ele>1854.4521</ele><time>2026-07-21T06:29:27.000Z</time></trkpt>
        <trkpt lat="29.563068" lon="103.351984"><ele>1854.5186</ele><time>2026-07-21T06:29:29.000Z</time></trkpt>
        <trkpt lat="29.563064" lon="103.351963"><ele>1854.5194</ele><time>2026-07-21T06:29:31.000Z</time></trkpt>
        <trkpt lat="29.563059" lon="103.351944"><ele>1855.1895</ele><time>2026-07-21T06:29:33.000Z</time></trkpt>
        <trkpt lat="29.563054" lon="103.351924"><ele>1855.8164</ele><time>2026-07-21T06:29:35.000Z</time></trkpt>
        <trkpt lat="29.56305" lon="103.351904"><ele>1856.6011</ele><time>2026-07-21T06:29:37.000Z</time></trkpt>
        <trkpt lat="29.563046" lon="103.351886"><ele>1857.7427</ele><time>2026-07-21T06:29:39.000Z</time></trkpt>
        <trkpt lat="29.563041" lon="103.351865"><ele>1857.6631</ele><time>2026-07-21T06:29:41.000Z</time></trkpt>
        <trkpt lat="29.563037" lon="103.351848"><ele>1857.0919</ele><time>2026-07-21T06:29:43.000Z</time></trkpt>
        <trkpt lat="29.563032" lon="103.351826"><ele>1855.6571</ele><time>2026-07-21T06:29:45.000Z</time></trkpt>
        <trkpt lat="29.563028" lon="103.351806"><ele>1855.043</ele><time>2026-07-21T06:29:47.000Z</time></trkpt>
        <trkpt lat="29.563026" lon="103.351791"><ele>1854.1472</ele><time>2026-07-21T06:29:49.000Z</time></trkpt>
        <trkpt lat="29.563024" lon="103.351778"><ele>1854.3804</ele><time>2026-07-21T06:29:51.000Z</time></trkpt>
        <trkpt lat="29.563022" lon="103.351762"><ele>1854.3489</ele><time>2026-07-21T06:29:53.000Z</time></trkpt>
        <trkpt lat="29.563021" lon="103.351748"><ele>1853.6437</ele><time>2026-07-21T06:29:55.000Z</time></trkpt>
        <trkpt lat="29.563019" lon="103.351733"><ele>1852.2817</ele><time>2026-07-21T06:29:57.000Z</time></trkpt>
        <trkpt lat="29.563019" lon="103.35172"><ele>1852.003</ele><time>2026-07-21T06:29:59.000Z</time></trkpt>
        <trkpt lat="29.563018" lon="103.351707"><ele>1851.8064</ele><time>2026-07-21T06:30:01.000Z</time></trkpt>
        <trkpt lat="29.563017" lon="103.351691"><ele>1851.2433</ele><time>2026-07-21T06:30:03.000Z</time></trkpt>
        <trkpt lat="29.563017" lon="103.351671"><ele>1850.8336</ele><time>2026-07-21T06:30:05.000Z</time></trkpt>
        <trkpt lat="29.563018" lon="103.35165"><ele>1850.5715</ele><time>2026-07-21T06:30:07.000Z</time></trkpt>
        <trkpt lat="29.563019" lon="103.351632"><ele>1851.3048</ele><time>2026-07-21T06:30:09.000Z</time></trkpt>
        <trkpt lat="29.563017" lon="103.351615"><ele>1850.9382</ele><time>2026-07-21T06:30:11.000Z</time></trkpt>
        <trkpt lat="29.563014" lon="103.3516"><ele>1850.8677</ele><time>2026-07-21T06:30:13.000Z</time></trkpt>
        <trkpt lat="29.56301" lon="103.351585"><ele>1850.6161</ele><time>2026-07-21T06:30:15.000Z</time></trkpt>
        <trkpt lat="29.563007" lon="103.351571"><ele>1850.1986</ele><time>2026-07-21T06:30:17.000Z</time></trkpt>
        <trkpt lat="29.563005" lon="103.351555"><ele>1848.6683</ele><time>2026-07-21T06:30:19.000Z</time></trkpt>
        <trkpt lat="29.563002" lon="103.351543"><ele>1847.7104</ele><time>2026-07-21T06:30:21.000Z</time></trkpt>
        <trkpt lat="29.562998" lon="103.35153"><ele>1848.1552</ele><time>2026-07-21T06:30:23.000Z</time></trkpt>
        <trkpt lat="29.562994" lon="103.351519"><ele>1848.53</ele><time>2026-07-21T06:30:25.000Z</time></trkpt>
        <trkpt lat="29.562988" lon="103.35151"><ele>1849.3826</ele><time>2026-07-21T06:30:27.000Z</time></trkpt>
        <trkpt lat="29.562981" lon="103.351499"><ele>1848.401</ele><time>2026-07-21T06:30:29.000Z</time></trkpt>
        <trkpt lat="29.562974" lon="103.351484"><ele>1848.5122</ele><time>2026-07-21T06:30:31.000Z</time></trkpt>
        <trkpt lat="29.562971" lon="103.351468"><ele>1848.3044</ele><time>2026-07-21T06:30:33.000Z</time></trkpt>
        <trkpt lat="29.562972" lon="103.351453"><ele>1848.2948</ele><time>2026-07-21T06:30:35.000Z</time></trkpt>
        <trkpt lat="29.562976" lon="103.351439"><ele>1847.975</ele><time>2026-07-21T06:30:37.000Z</time></trkpt>
        <trkpt lat="29.562982" lon="103.351425"><ele>1847.1881</ele><time>2026-07-21T06:30:39.000Z</time></trkpt>
        <trkpt lat="29.562989" lon="103.351409"><ele>1846.5181</ele><time>2026-07-21T06:30:41.000Z</time></trkpt>
        <trkpt lat="29.562997" lon="103.351389"><ele>1845.7926</ele><time>2026-07-21T06:30:43.000Z</time></trkpt>
        <trkpt lat="29.563005" lon="103.351373"><ele>1844.9076</ele><time>2026-07-21T06:30:45.000Z</time></trkpt>
        <trkpt lat="29.563011" lon="103.351361"><ele>1844.2826</ele><time>2026-07-21T06:30:47.000Z</time></trkpt>
        <trkpt lat="29.563017" lon="103.351348"><ele>1844.2761</ele><time>2026-07-21T06:30:49.000Z</time></trkpt>
        <trkpt lat="29.563024" lon="103.351335"><ele>1844.4401</ele><time>2026-07-21T06:30:51.000Z</time></trkpt>
        <trkpt lat="29.563032" lon="103.351322"><ele>1844.4028</ele><time>2026-07-21T06:30:53.000Z</time></trkpt>
        <trkpt lat="29.563038" lon="103.351309"><ele>1843.7893</ele><time>2026-07-21T06:30:55.000Z</time></trkpt>
        <trkpt lat="29.563043" lon="103.351297"><ele>1843.8313</ele><time>2026-07-21T06:30:57.000Z</time></trkpt>
        <trkpt lat="29.563045" lon="103.351283"><ele>1843.0856</ele><time>2026-07-21T06:30:59.000Z</time></trkpt>
        <trkpt lat="29.563045" lon="103.35127"><ele>1842.3689</ele><time>2026-07-21T06:31:01.000Z</time></trkpt>
        <trkpt lat="29.563044" lon="103.351257"><ele>1842.4286</ele><time>2026-07-21T06:31:03.000Z</time></trkpt>
        <trkpt lat="29.563044" lon="103.351245"><ele>1841.813</ele><time>2026-07-21T06:31:05.000Z</time></trkpt>
        <trkpt lat="29.563044" lon="103.351234"><ele>1841.3688</ele><time>2026-07-21T06:31:07.000Z</time></trkpt>
        <trkpt lat="29.563045" lon="103.351219"><ele>1841.1224</ele><time>2026-07-21T06:31:09.000Z</time></trkpt>
        <trkpt lat="29.563043" lon="103.351207"><ele>1840.8157</ele><time>2026-07-21T06:31:11.000Z</time></trkpt>
        <trkpt lat="29.563039" lon="103.351194"><ele>1840.4633</ele><time>2026-07-21T06:31:13.000Z</time></trkpt>
        <trkpt lat="29.563035" lon="103.351178"><ele>1839.7701</ele><time>2026-07-21T06:31:15.000Z</time></trkpt>
        <trkpt lat="29.563031" lon="103.351164"><ele>1838.9677</ele><time>2026-07-21T06:31:17.000Z</time></trkpt>
        <trkpt lat="29.563026" lon="103.351149"><ele>1838.3561</ele><time>2026-07-21T06:31:19.000Z</time></trkpt>
        <trkpt lat="29.563021" lon="103.351134"><ele>1837.7402</ele><time>2026-07-21T06:31:21.000Z</time></trkpt>
        <trkpt lat="29.563015" lon="103.351115"><ele>1837.1515</ele><time>2026-07-21T06:31:23.000Z</time></trkpt>
        <trkpt lat="29.56301" lon="103.351095"><ele>1836.9065</ele><time>2026-07-21T06:31:25.000Z</time></trkpt>
        <trkpt lat="29.563004" lon="103.351078"><ele>1836.76</ele><time>2026-07-21T06:31:27.000Z</time></trkpt>
        <trkpt lat="29.562998" lon="103.351064"><ele>1836.2015</ele><time>2026-07-21T06:31:29.000Z</time></trkpt>
        <trkpt lat="29.562992" lon="103.351049"><ele>1835.434</ele><time>2026-07-21T06:31:31.000Z</time></trkpt>
        <trkpt lat="29.562985" lon="103.35103"><ele>1835.3672</ele><time>2026-07-21T06:31:33.000Z</time></trkpt>
        <trkpt lat="29.562979" lon="103.351012"><ele>1835.3849</ele><time>2026-07-21T06:31:35.000Z</time></trkpt>
        <trkpt lat="29.562972" lon="103.350993"><ele>1835.2256</ele><time>2026-07-21T06:31:37.000Z</time></trkpt>
        <trkpt lat="29.562966" lon="103.350971"><ele>1835.0079</ele><time>2026-07-21T06:31:39.000Z</time></trkpt>
        <trkpt lat="29.56296" lon="103.35095"><ele>1835.3198</ele><time>2026-07-21T06:31:41.000Z</time></trkpt>
        <trkpt lat="29.562955" lon="103.350928"><ele>1834.9818</ele><time>2026-07-21T06:31:43.000Z</time></trkpt>
        <trkpt lat="29.562953" lon="103.350913"><ele>1835.283</ele><time>2026-07-21T06:31:45.000Z</time></trkpt>
        <trkpt lat="29.562951" lon="103.350897"><ele>1835.0922</ele><time>2026-07-21T06:31:47.000Z</time></trkpt>
        <trkpt lat="29.562949" lon="103.35088"><ele>1835.3198</ele><time>2026-07-21T06:31:49.000Z</time></trkpt>
        <trkpt lat="29.562947" lon="103.350866"><ele>1835.7388</ele><time>2026-07-21T06:31:51.000Z</time></trkpt>
        <trkpt lat="29.562944" lon="103.350853"><ele>1835.7758</ele><time>2026-07-21T06:31:53.000Z</time></trkpt>
        <trkpt lat="29.562939" lon="103.350837"><ele>1835.7067</ele><time>2026-07-21T06:31:55.000Z</time></trkpt>
        <trkpt lat="29.562931" lon="103.350821"><ele>1835.689</ele><time>2026-07-21T06:31:57.000Z</time></trkpt>
        <trkpt lat="29.562924" lon="103.350808"><ele>1835.2598</ele><time>2026-07-21T06:31:59.000Z</time></trkpt>
        <trkpt lat="29.562917" lon="103.350803"><ele>1834.6237</ele><time>2026-07-21T06:32:01.000Z</time></trkpt>
        <trkpt lat="29.562908" lon="103.350794"><ele>1834.5667</ele><time>2026-07-21T06:32:17.000Z</time></trkpt>
        <trkpt lat="29.562888" lon="103.350774"><ele>1834.8776</ele><time>2026-07-21T06:32:21.000Z</time></trkpt>
        <trkpt lat="29.562888" lon="103.350774"><ele>1835.2156</ele><time>2026-07-21T06:32:23.000Z</time></trkpt>
        <trkpt lat="29.562872" lon="103.350771"><ele>1835.704</ele><time>2026-07-21T06:32:27.000Z</time></trkpt>
        <trkpt lat="29.56286" lon="103.350765"><ele>1835.4979</ele><time>2026-07-21T06:32:29.000Z</time></trkpt>
        <trkpt lat="29.562848" lon="103.350754"><ele>1836.1342</ele><time>2026-07-21T06:32:31.000Z</time></trkpt>
        <trkpt lat="29.562839" lon="103.350741"><ele>1835.5474</ele><time>2026-07-21T06:32:33.000Z</time></trkpt>
        <trkpt lat="29.56283" lon="103.350728"><ele>1835.5944</ele><time>2026-07-21T06:32:35.000Z</time></trkpt>
        <trkpt lat="29.562827" lon="103.35072"><ele>1837.1794</ele><time>2026-07-21T06:32:37.000Z</time></trkpt>
        <trkpt lat="29.562823" lon="103.350709"><ele>1838.0479</ele><time>2026-07-21T06:32:39.000Z</time></trkpt>
        <trkpt lat="29.562821" lon="103.350697"><ele>1837.9305</ele><time>2026-07-21T06:32:41.000Z</time></trkpt>
        <trkpt lat="29.56282" lon="103.350679"><ele>1837.2859</ele><time>2026-07-21T06:32:43.000Z</time></trkpt>
        <trkpt lat="29.56282" lon="103.350664"><ele>1837.3842</ele><time>2026-07-21T06:32:45.000Z</time></trkpt>
        <trkpt lat="29.562821" lon="103.350651"><ele>1838.3784</ele><time>2026-07-21T06:32:47.000Z</time></trkpt>
        <trkpt lat="29.56282" lon="103.350642"><ele>1838.0785</ele><time>2026-07-21T06:32:49.000Z</time></trkpt>
        <trkpt lat="29.562814" lon="103.350627"><ele>1837.2892</ele><time>2026-07-21T06:32:53.000Z</time></trkpt>
        <trkpt lat="29.562802" lon="103.35059"><ele>1835.9131</ele><time>2026-07-21T06:39:14.000Z</time></trkpt>
        <trkpt lat="29.562797" lon="103.35057"><ele>1834.6216</ele><time>2026-07-21T06:39:16.000Z</time></trkpt>
        <trkpt lat="29.562797" lon="103.35057"><ele>1835.9032</ele><time>2026-07-21T06:39:18.000Z</time></trkpt>
        <trkpt lat="29.562818" lon="103.350544"><ele>1836.3175</ele><time>2026-07-21T06:39:20.000Z</time></trkpt>
        <trkpt lat="29.562819" lon="103.350542"><ele>1836.2188</ele><time>2026-07-21T06:39:22.000Z</time></trkpt>
        <trkpt lat="29.56282" lon="103.35054"><ele>1835.8906</ele><time>2026-07-21T06:39:24.000Z</time></trkpt>
        <trkpt lat="29.562829" lon="103.3505"><ele>1834.0793</ele><time>2026-07-21T06:39:30.000Z</time></trkpt>
        <trkpt lat="29.562829" lon="103.3505"><ele>1833.7238</ele><time>2026-07-21T06:39:32.000Z</time></trkpt>
        <trkpt lat="29.56283" lon="103.350495"><ele>1833.877</ele><time>2026-07-21T06:39:34.000Z</time></trkpt>
        <trkpt lat="29.562836" lon="103.35045"><ele>1832.6476</ele><time>2026-07-21T06:39:38.000Z</time></trkpt>
        <trkpt lat="29.562839" lon="103.350424"><ele>1832.1226</ele><time>2026-07-21T06:39:40.000Z</time></trkpt>
        <trkpt lat="29.562843" lon="103.350401"><ele>1832.5502</ele><time>2026-07-21T06:39:42.000Z</time></trkpt>
        <trkpt lat="29.562847" lon="103.350377"><ele>1831.9713</ele><time>2026-07-21T06:39:44.000Z</time></trkpt>
        <trkpt lat="29.562849" lon="103.350359"><ele>1831.717</ele><time>2026-07-21T06:39:46.000Z</time></trkpt>
        <trkpt lat="29.56285" lon="103.350343"><ele>1830.8114</ele><time>2026-07-21T06:39:48.000Z</time></trkpt>
        <trkpt lat="29.562852" lon="103.350324"><ele>1830.1454</ele><time>2026-07-21T06:39:50.000Z</time></trkpt>
        <trkpt lat="29.562854" lon="103.350304"><ele>1828.9656</ele><time>2026-07-21T06:39:52.000Z</time></trkpt>
        <trkpt lat="29.562859" lon="103.350287"><ele>1829.0302</ele><time>2026-07-21T06:39:54.000Z</time></trkpt>
        <trkpt lat="29.562865" lon="103.350271"><ele>1829.0839</ele><time>2026-07-21T06:39:56.000Z</time></trkpt>
        <trkpt lat="29.562871" lon="103.350254"><ele>1828.1486</ele><time>2026-07-21T06:39:58.000Z</time></trkpt>
        <trkpt lat="29.562876" lon="103.35024"><ele>1827.9885</ele><time>2026-07-21T06:40:00.000Z</time></trkpt>
        <trkpt lat="29.562882" lon="103.350226"><ele>1827.7584</ele><time>2026-07-21T06:40:02.000Z</time></trkpt>
        <trkpt lat="29.562889" lon="103.35021"><ele>1829.5867</ele><time>2026-07-21T06:40:04.000Z</time></trkpt>
        <trkpt lat="29.562893" lon="103.350194"><ele>1828.8547</ele><time>2026-07-21T06:40:06.000Z</time></trkpt>
        <trkpt lat="29.562898" lon="103.350177"><ele>1828.6534</ele><time>2026-07-21T06:40:08.000Z</time></trkpt>
        <trkpt lat="29.562905" lon="103.350158"><ele>1828.7212</ele><time>2026-07-21T06:40:10.000Z</time></trkpt>
        <trkpt lat="29.562911" lon="103.350143"><ele>1828.9833</ele><time>2026-07-21T06:40:12.000Z</time></trkpt>
        <trkpt lat="29.562918" lon="103.350128"><ele>1829.967</ele><time>2026-07-21T06:40:14.000Z</time></trkpt>
        <trkpt lat="29.562924" lon="103.350114"><ele>1829.8263</ele><time>2026-07-21T06:40:16.000Z</time></trkpt>
        <trkpt lat="29.56293" lon="103.350099"><ele>1829.8998</ele><time>2026-07-21T06:40:18.000Z</time></trkpt>
        <trkpt lat="29.562935" lon="103.350082"><ele>1829.833</ele><time>2026-07-21T06:40:20.000Z</time></trkpt>
        <trkpt lat="29.562937" lon="103.350068"><ele>1828.9438</ele><time>2026-07-21T06:40:22.000Z</time></trkpt>
        <trkpt lat="29.562937" lon="103.350053"><ele>1827.9531</ele><time>2026-07-21T06:40:24.000Z</time></trkpt>
        <trkpt lat="29.562935" lon="103.350036"><ele>1827.5002</ele><time>2026-07-21T06:40:26.000Z</time></trkpt>
        <trkpt lat="29.562932" lon="103.350014"><ele>1826.5781</ele><time>2026-07-21T06:40:28.000Z</time></trkpt>
        <trkpt lat="29.56293" lon="103.349994"><ele>1826.3823</ele><time>2026-07-21T06:40:30.000Z</time></trkpt>
        <trkpt lat="29.562928" lon="103.349975"><ele>1826.8066</ele><time>2026-07-21T06:40:32.000Z</time></trkpt>
        <trkpt lat="29.562926" lon="103.349958"><ele>1827.7941</ele><time>2026-07-21T06:40:34.000Z</time></trkpt>
        <trkpt lat="29.562926" lon="103.349941"><ele>1828.1907</ele><time>2026-07-21T06:40:36.000Z</time></trkpt>
        <trkpt lat="29.562926" lon="103.349921"><ele>1828.1349</ele><time>2026-07-21T06:40:38.000Z</time></trkpt>
        <trkpt lat="29.562927" lon="103.349899"><ele>1827.6235</ele><time>2026-07-21T06:40:40.000Z</time></trkpt>
        <trkpt lat="29.56293" lon="103.349877"><ele>1827.6344</ele><time>2026-07-21T06:40:42.000Z</time></trkpt>
        <trkpt lat="29.562933" lon="103.349856"><ele>1827.056</ele><time>2026-07-21T06:40:44.000Z</time></trkpt>
        <trkpt lat="29.562937" lon="103.349834"><ele>1826.4912</ele><time>2026-07-21T06:40:46.000Z</time></trkpt>
        <trkpt lat="29.562942" lon="103.349816"><ele>1826.7963</ele><time>2026-07-21T06:40:48.000Z</time></trkpt>
        <trkpt lat="29.562949" lon="103.349799"><ele>1826.8771</ele><time>2026-07-21T06:40:50.000Z</time></trkpt>
        <trkpt lat="29.562957" lon="103.349781"><ele>1827.2057</ele><time>2026-07-21T06:40:52.000Z</time></trkpt>
        <trkpt lat="29.562963" lon="103.349763"><ele>1827.1494</ele><time>2026-07-21T06:40:54.000Z</time></trkpt>
        <trkpt lat="29.56297" lon="103.349745"><ele>1827.1678</ele><time>2026-07-21T06:40:56.000Z</time></trkpt>
        <trkpt lat="29.562978" lon="103.349728"><ele>1827.4702</ele><time>2026-07-21T06:40:58.000Z</time></trkpt>
        <trkpt lat="29.562984" lon="103.349712"><ele>1827.5234</ele><time>2026-07-21T06:41:00.000Z</time></trkpt>
        <trkpt lat="29.562991" lon="103.349694"><ele>1827.2291</ele><time>2026-07-21T06:41:02.000Z</time></trkpt>
        <trkpt lat="29.562997" lon="103.34968"><ele>1827.4667</ele><time>2026-07-21T06:41:04.000Z</time></trkpt>
        <trkpt lat="29.563003" lon="103.349665"><ele>1827.3656</ele><time>2026-07-21T06:41:06.000Z</time></trkpt>
        <trkpt lat="29.563011" lon="103.34965"><ele>1827.3037</ele><time>2026-07-21T06:41:08.000Z</time></trkpt>
        <trkpt lat="29.563019" lon="103.349635"><ele>1827.4398</ele><time>2026-07-21T06:41:10.000Z</time></trkpt>
        <trkpt lat="29.563028" lon="103.349621"><ele>1827.3256</ele><time>2026-07-21T06:41:12.000Z</time></trkpt>
        <trkpt lat="29.563036" lon="103.349608"><ele>1828.2078</ele><time>2026-07-21T06:41:14.000Z</time></trkpt>
        <trkpt lat="29.563046" lon="103.349593"><ele>1827.8047</ele><time>2026-07-21T06:41:16.000Z</time></trkpt>
        <trkpt lat="29.563057" lon="103.349577"><ele>1827.8322</ele><time>2026-07-21T06:41:18.000Z</time></trkpt>
        <trkpt lat="29.563067" lon="103.349559"><ele>1827.6141</ele><time>2026-07-21T06:41:20.000Z</time></trkpt>
        <trkpt lat="29.563077" lon="103.349541"><ele>1827.3712</ele><time>2026-07-21T06:41:22.000Z</time></trkpt>
        <trkpt lat="29.563085" lon="103.349523"><ele>1827.2915</ele><time>2026-07-21T06:41:24.000Z</time></trkpt>
        <trkpt lat="29.563093" lon="103.349508"><ele>1827.8992</ele><time>2026-07-21T06:41:26.000Z</time></trkpt>
        <trkpt lat="29.5631" lon="103.349496"><ele>1827.7281</ele><time>2026-07-21T06:41:28.000Z</time></trkpt>
        <trkpt lat="29.563106" lon="103.349482"><ele>1827.5016</ele><time>2026-07-21T06:41:30.000Z</time></trkpt>
        <trkpt lat="29.563111" lon="103.349466"><ele>1827.0382</ele><time>2026-07-21T06:41:32.000Z</time></trkpt>
        <trkpt lat="29.563116" lon="103.34945"><ele>1826.2876</ele><time>2026-07-21T06:41:34.000Z</time></trkpt>
        <trkpt lat="29.563122" lon="103.34943"><ele>1826.7926</ele><time>2026-07-21T06:41:36.000Z</time></trkpt>
        <trkpt lat="29.563127" lon="103.349409"><ele>1826.7083</ele><time>2026-07-21T06:41:38.000Z</time></trkpt>
        <trkpt lat="29.563133" lon="103.349389"><ele>1827.6691</ele><time>2026-07-21T06:41:40.000Z</time></trkpt>
        <trkpt lat="29.563139" lon="103.34937"><ele>1828.7668</ele><time>2026-07-21T06:41:42.000Z</time></trkpt>
        <trkpt lat="29.563146" lon="103.349351"><ele>1829.4253</ele><time>2026-07-21T06:41:44.000Z</time></trkpt>
        <trkpt lat="29.563153" lon="103.349332"><ele>1829.1044</ele><time>2026-07-21T06:41:46.000Z</time></trkpt>
        <trkpt lat="29.563161" lon="103.349314"><ele>1829.421</ele><time>2026-07-21T06:41:48.000Z</time></trkpt>
        <trkpt lat="29.563171" lon="103.349295"><ele>1830.2828</ele><time>2026-07-21T06:41:50.000Z</time></trkpt>
        <trkpt lat="29.563181" lon="103.349278"><ele>1829.6106</ele><time>2026-07-21T06:41:52.000Z</time></trkpt>
        <trkpt lat="29.56319" lon="103.349261"><ele>1829.2585</ele><time>2026-07-21T06:41:54.000Z</time></trkpt>
        <trkpt lat="29.563199" lon="103.34924"><ele>1828.5669</ele><time>2026-07-21T06:41:56.000Z</time></trkpt>
        <trkpt lat="29.563207" lon="103.34922"><ele>1827.7273</ele><time>2026-07-21T06:41:58.000Z</time></trkpt>
        <trkpt lat="29.563216" lon="103.349201"><ele>1828.6154</ele><time>2026-07-21T06:42:00.000Z</time></trkpt>
        <trkpt lat="29.563224" lon="103.349182"><ele>1830.0779</ele><time>2026-07-21T06:42:02.000Z</time></trkpt>
        <trkpt lat="29.56323" lon="103.349164"><ele>1830.3221</ele><time>2026-07-21T06:42:04.000Z</time></trkpt>
        <trkpt lat="29.563233" lon="103.349143"><ele>1830.5004</ele><time>2026-07-21T06:42:06.000Z</time></trkpt>
        <trkpt lat="29.563234" lon="103.349121"><ele>1830.3569</ele><time>2026-07-21T06:42:08.000Z</time></trkpt>
        <trkpt lat="29.563235" lon="103.349097"><ele>1829.7228</ele><time>2026-07-21T06:42:10.000Z</time></trkpt>
        <trkpt lat="29.563233" lon="103.34907"><ele>1829.1975</ele><time>2026-07-21T06:42:12.000Z</time></trkpt>
        <trkpt lat="29.563233" lon="103.349049"><ele>1829.6326</ele><time>2026-07-21T06:42:14.000Z</time></trkpt>
        <trkpt lat="29.563232" lon="103.349029"><ele>1830.7865</ele><time>2026-07-21T06:42:16.000Z</time></trkpt>
        <trkpt lat="29.563231" lon="103.349011"><ele>1830.4072</ele><time>2026-07-21T06:42:18.000Z</time></trkpt>
        <trkpt lat="29.563233" lon="103.348996"><ele>1831.0417</ele><time>2026-07-21T06:42:20.000Z</time></trkpt>
        <trkpt lat="29.563235" lon="103.348981"><ele>1831.6594</ele><time>2026-07-21T06:42:22.000Z</time></trkpt>
        <trkpt lat="29.563239" lon="103.348968"><ele>1831.8529</ele><time>2026-07-21T06:42:24.000Z</time></trkpt>
        <trkpt lat="29.563244" lon="103.348953"><ele>1832.4745</ele><time>2026-07-21T06:42:26.000Z</time></trkpt>
        <trkpt lat="29.56325" lon="103.348937"><ele>1832.0997</ele><time>2026-07-21T06:42:28.000Z</time></trkpt>
        <trkpt lat="29.563254" lon="103.34892"><ele>1832.1064</ele><time>2026-07-21T06:42:30.000Z</time></trkpt>
        <trkpt lat="29.563257" lon="103.348903"><ele>1832.3878</ele><time>2026-07-21T06:42:32.000Z</time></trkpt>
        <trkpt lat="29.563259" lon="103.348885"><ele>1832.5233</ele><time>2026-07-21T06:42:34.000Z</time></trkpt>
        <trkpt lat="29.563262" lon="103.348868"><ele>1832.9847</ele><time>2026-07-21T06:42:36.000Z</time></trkpt>
        <trkpt lat="29.563263" lon="103.34885"><ele>1832.8369</ele><time>2026-07-21T06:42:38.000Z</time></trkpt>
        <trkpt lat="29.563262" lon="103.348834"><ele>1832.9452</ele><time>2026-07-21T06:42:40.000Z</time></trkpt>
        <trkpt lat="29.563261" lon="103.348816"><ele>1834.3716</ele><time>2026-07-21T06:42:42.000Z</time></trkpt>
        <trkpt lat="29.56326" lon="103.348796"><ele>1834.4106</ele><time>2026-07-21T06:42:44.000Z</time></trkpt>
        <trkpt lat="29.563257" lon="103.348777"><ele>1833.4866</ele><time>2026-07-21T06:42:46.000Z</time></trkpt>
        <trkpt lat="29.563255" lon="103.348755"><ele>1833.0199</ele><time>2026-07-21T06:42:48.000Z</time></trkpt>
        <trkpt lat="29.563252" lon="103.348732"><ele>1833.4856</ele><time>2026-07-21T06:42:50.000Z</time></trkpt>
        <trkpt lat="29.56325" lon="103.348711"><ele>1833.4506</ele><time>2026-07-21T06:42:52.000Z</time></trkpt>
        <trkpt lat="29.563249" lon="103.348693"><ele>1833.6981</ele><time>2026-07-21T06:42:54.000Z</time></trkpt>
        <trkpt lat="29.563249" lon="103.348676"><ele>1833.8036</ele><time>2026-07-21T06:42:56.000Z</time></trkpt>
        <trkpt lat="29.563247" lon="103.34866"><ele>1834.069</ele><time>2026-07-21T06:42:58.000Z</time></trkpt>
        <trkpt lat="29.563245" lon="103.348636"><ele>1834.0392</ele><time>2026-07-21T06:43:00.000Z</time></trkpt>
        <trkpt lat="29.563245" lon="103.348615"><ele>1833.6995</ele><time>2026-07-21T06:43:02.000Z</time></trkpt>
        <trkpt lat="29.563245" lon="103.348593"><ele>1833.817</ele><time>2026-07-21T06:43:04.000Z</time></trkpt>
        <trkpt lat="29.563246" lon="103.348575"><ele>1834.1212</ele><time>2026-07-21T06:43:06.000Z</time></trkpt>
        <trkpt lat="29.563248" lon="103.348557"><ele>1834.256</ele><time>2026-07-21T06:43:08.000Z</time></trkpt>
        <trkpt lat="29.56325" lon="103.34854"><ele>1833.1525</ele><time>2026-07-21T06:43:10.000Z</time></trkpt>
        <trkpt lat="29.563253" lon="103.348521"><ele>1833.0332</ele><time>2026-07-21T06:43:12.000Z</time></trkpt>
        <trkpt lat="29.563257" lon="103.348499"><ele>1832.2274</ele><time>2026-07-21T06:43:14.000Z</time></trkpt>
        <trkpt lat="29.563262" lon="103.348477"><ele>1832.0314</ele><time>2026-07-21T06:43:16.000Z</time></trkpt>
        <trkpt lat="29.563266" lon="103.348457"><ele>1832.6808</ele><time>2026-07-21T06:43:18.000Z</time></trkpt>
        <trkpt lat="29.56327" lon="103.34844"><ele>1832.5271</ele><time>2026-07-21T06:43:20.000Z</time></trkpt>
        <trkpt lat="29.563274" lon="103.348422"><ele>1832.579</ele><time>2026-07-21T06:43:22.000Z</time></trkpt>
        <trkpt lat="29.563279" lon="103.348403"><ele>1833.1937</ele><time>2026-07-21T06:43:24.000Z</time></trkpt>
        <trkpt lat="29.563285" lon="103.348386"><ele>1833.2863</ele><time>2026-07-21T06:43:26.000Z</time></trkpt>
        <trkpt lat="29.563292" lon="103.34837"><ele>1833.184</ele><time>2026-07-21T06:43:28.000Z</time></trkpt>
        <trkpt lat="29.563301" lon="103.348358"><ele>1833.8899</ele><time>2026-07-21T06:43:30.000Z</time></trkpt>
        <trkpt lat="29.563312" lon="103.348347"><ele>1834.0442</ele><time>2026-07-21T06:43:32.000Z</time></trkpt>
        <trkpt lat="29.563322" lon="103.348338"><ele>1835.0183</ele><time>2026-07-21T06:43:34.000Z</time></trkpt>
        <trkpt lat="29.563335" lon="103.348326"><ele>1834.9716</ele><time>2026-07-21T06:43:36.000Z</time></trkpt>
        <trkpt lat="29.563345" lon="103.348313"><ele>1835.1857</ele><time>2026-07-21T06:43:38.000Z</time></trkpt>
        <trkpt lat="29.563356" lon="103.348299"><ele>1834.6106</ele><time>2026-07-21T06:43:40.000Z</time></trkpt>
        <trkpt lat="29.563365" lon="103.348287"><ele>1835.1632</ele><time>2026-07-21T06:43:42.000Z</time></trkpt>
        <trkpt lat="29.563378" lon="103.348274"><ele>1835.5189</ele><time>2026-07-21T06:43:44.000Z</time></trkpt>
        <trkpt lat="29.563386" lon="103.348264"><ele>1835.6744</ele><time>2026-07-21T06:43:46.000Z</time></trkpt>
        <trkpt lat="29.563395" lon="103.348252"><ele>1834.6737</ele><time>2026-07-21T06:43:48.000Z</time></trkpt>
        <trkpt lat="29.563404" lon="103.348237"><ele>1834.3239</ele><time>2026-07-21T06:43:50.000Z</time></trkpt>
        <trkpt lat="29.563412" lon="103.348222"><ele>1834.2538</ele><time>2026-07-21T06:43:52.000Z</time></trkpt>
        <trkpt lat="29.563418" lon="103.348206"><ele>1834.5586</ele><time>2026-07-21T06:43:54.000Z</time></trkpt>
        <trkpt lat="29.563425" lon="103.348189"><ele>1834.4497</ele><time>2026-07-21T06:43:56.000Z</time></trkpt>
        <trkpt lat="29.56343" lon="103.348173"><ele>1834.3973</ele><time>2026-07-21T06:43:58.000Z</time></trkpt>
        <trkpt lat="29.563436" lon="103.348156"><ele>1835.4247</ele><time>2026-07-21T06:44:00.000Z</time></trkpt>
        <trkpt lat="29.563442" lon="103.348137"><ele>1835.3138</ele><time>2026-07-21T06:44:02.000Z</time></trkpt>
        <trkpt lat="29.563447" lon="103.348119"><ele>1835.9268</ele><time>2026-07-21T06:44:04.000Z</time></trkpt>
        <trkpt lat="29.563454" lon="103.348103"><ele>1836.3625</ele><time>2026-07-21T06:44:06.000Z</time></trkpt>
        <trkpt lat="29.563462" lon="103.348089"><ele>1836.4594</ele><time>2026-07-21T06:44:08.000Z</time></trkpt>
        <trkpt lat="29.563472" lon="103.348077"><ele>1836.5238</ele><time>2026-07-21T06:44:10.000Z</time></trkpt>
        <trkpt lat="29.563481" lon="103.348065"><ele>1835.8474</ele><time>2026-07-21T06:44:12.000Z</time></trkpt>
        <trkpt lat="29.563492" lon="103.348053"><ele>1835.9479</ele><time>2026-07-21T06:44:14.000Z</time></trkpt>
        <trkpt lat="29.563504" lon="103.348041"><ele>1835.8578</ele><time>2026-07-21T06:44:16.000Z</time></trkpt>
        <trkpt lat="29.563517" lon="103.348029"><ele>1835.424</ele><time>2026-07-21T06:44:18.000Z</time></trkpt>
        <trkpt lat="29.563531" lon="103.348015"><ele>1834.9924</ele><time>2026-07-21T06:44:20.000Z</time></trkpt>
        <trkpt lat="29.563547" lon="103.347997"><ele>1835.4034</ele><time>2026-07-21T06:44:22.000Z</time></trkpt>
        <trkpt lat="29.563561" lon="103.347977"><ele>1835.6554</ele><time>2026-07-21T06:44:24.000Z</time></trkpt>
        <trkpt lat="29.563569" lon="103.347958"><ele>1835.17</ele><time>2026-07-21T06:44:26.000Z</time></trkpt>
        <trkpt lat="29.563574" lon="103.347941"><ele>1834.8163</ele><time>2026-07-21T06:44:28.000Z</time></trkpt>
        <trkpt lat="29.563579" lon="103.347923"><ele>1834.6439</ele><time>2026-07-21T06:44:30.000Z</time></trkpt>
        <trkpt lat="29.563584" lon="103.347908"><ele>1834.7776</ele><time>2026-07-21T06:44:32.000Z</time></trkpt>
        <trkpt lat="29.563588" lon="103.347896"><ele>1835.7521</ele><time>2026-07-21T06:44:34.000Z</time></trkpt>
        <trkpt lat="29.563593" lon="103.347883"><ele>1834.5707</ele><time>2026-07-21T06:44:36.000Z</time></trkpt>
        <trkpt lat="29.563595" lon="103.347871"><ele>1833.7147</ele><time>2026-07-21T06:44:38.000Z</time></trkpt>
        <trkpt lat="29.563595" lon="103.347859"><ele>1833.3088</ele><time>2026-07-21T06:44:40.000Z</time></trkpt>
        <trkpt lat="29.563594" lon="103.347843"><ele>1833.0354</ele><time>2026-07-21T06:44:42.000Z</time></trkpt>
        <trkpt lat="29.563592" lon="103.347827"><ele>1833.1567</ele><time>2026-07-21T06:44:44.000Z</time></trkpt>
        <trkpt lat="29.563589" lon="103.347811"><ele>1833.5836</ele><time>2026-07-21T06:44:46.000Z</time></trkpt>
        <trkpt lat="29.563587" lon="103.347794"><ele>1832.6847</ele><time>2026-07-21T06:44:48.000Z</time></trkpt>
        <trkpt lat="29.563588" lon="103.347774"><ele>1832.6807</ele><time>2026-07-21T06:44:50.000Z</time></trkpt>
        <trkpt lat="29.56359" lon="103.347752"><ele>1832.4734</ele><time>2026-07-21T06:44:52.000Z</time></trkpt>
        <trkpt lat="29.563591" lon="103.347731"><ele>1831.5333</ele><time>2026-07-21T06:44:54.000Z</time></trkpt>
        <trkpt lat="29.563593" lon="103.34771"><ele>1832.7512</ele><time>2026-07-21T06:44:56.000Z</time></trkpt>
        <trkpt lat="29.563593" lon="103.347691"><ele>1832.2792</ele><time>2026-07-21T06:44:58.000Z</time></trkpt>
        <trkpt lat="29.563594" lon="103.347676"><ele>1831.8245</ele><time>2026-07-21T06:45:00.000Z</time></trkpt>
        <trkpt lat="29.563594" lon="103.34766"><ele>1831.2648</ele><time>2026-07-21T06:45:02.000Z</time></trkpt>
        <trkpt lat="29.563594" lon="103.347645"><ele>1831.0446</ele><time>2026-07-21T06:45:04.000Z</time></trkpt>
        <trkpt lat="29.563593" lon="103.347635"><ele>1829.8099</ele><time>2026-07-21T06:45:06.000Z</time></trkpt>
        <trkpt lat="29.563592" lon="103.347625"><ele>1829.6368</ele><time>2026-07-21T06:45:08.000Z</time></trkpt>
        <trkpt lat="29.563593" lon="103.347605"><ele>1828.7529</ele><time>2026-07-21T06:45:12.000Z</time></trkpt>
        <trkpt lat="29.563595" lon="103.347594"><ele>1828.7688</ele><time>2026-07-21T06:45:14.000Z</time></trkpt>
        <trkpt lat="29.563598" lon="103.347579"><ele>1828.4938</ele><time>2026-07-21T06:45:16.000Z</time></trkpt>
        <trkpt lat="29.563599" lon="103.347562"><ele>1828.4292</ele><time>2026-07-21T06:45:18.000Z</time></trkpt>
        <trkpt lat="29.563598" lon="103.347544"><ele>1828.4009</ele><time>2026-07-21T06:45:20.000Z</time></trkpt>
        <trkpt lat="29.563594" lon="103.347522"><ele>1828.6469</ele><time>2026-07-21T06:45:22.000Z</time></trkpt>
        <trkpt lat="29.56359" lon="103.347504"><ele>1829.5986</ele><time>2026-07-21T06:45:24.000Z</time></trkpt>
        <trkpt lat="29.563584" lon="103.347484"><ele>1829.2727</ele><time>2026-07-21T06:45:26.000Z</time></trkpt>
        <trkpt lat="29.563576" lon="103.347464"><ele>1829.3647</ele><time>2026-07-21T06:45:28.000Z</time></trkpt>
        <trkpt lat="29.563566" lon="103.347445"><ele>1829.4097</ele><time>2026-07-21T06:45:30.000Z</time></trkpt>
        <trkpt lat="29.563553" lon="103.347426"><ele>1829.7006</ele><time>2026-07-21T06:45:32.000Z</time></trkpt>
        <trkpt lat="29.563542" lon="103.347411"><ele>1829.9626</ele><time>2026-07-21T06:45:34.000Z</time></trkpt>
        <trkpt lat="29.563533" lon="103.3474"><ele>1829.1743</ele><time>2026-07-21T06:45:36.000Z</time></trkpt>
        <trkpt lat="29.563527" lon="103.347391"><ele>1828.3464</ele><time>2026-07-21T06:45:38.000Z</time></trkpt>
        <trkpt lat="29.563512" lon="103.347366"><ele>1827.5049</ele><time>2026-07-21T06:45:52.000Z</time></trkpt>
        <trkpt lat="29.563512" lon="103.347366"><ele>1827.6191</ele><time>2026-07-21T06:45:54.000Z</time></trkpt>
        <trkpt lat="29.563496" lon="103.347341"><ele>1826.8394</ele><time>2026-07-21T06:45:56.000Z</time></trkpt>
        <trkpt lat="29.563494" lon="103.347334"><ele>1829.7559</ele><time>2026-07-21T06:46:00.000Z</time></trkpt>
        <trkpt lat="29.563489" lon="103.347318"><ele>1829.4349</ele><time>2026-07-21T06:46:02.000Z</time></trkpt>
        <trkpt lat="29.563481" lon="103.347295"><ele>1828.9661</ele><time>2026-07-21T06:46:04.000Z</time></trkpt>
        <trkpt lat="29.563471" lon="103.347275"><ele>1828.7186</ele><time>2026-07-21T06:46:06.000Z</time></trkpt>
        <trkpt lat="29.56346" lon="103.347259"><ele>1827.9686</ele><time>2026-07-21T06:46:08.000Z</time></trkpt>
        <trkpt lat="29.563448" lon="103.347247"><ele>1827.1315</ele><time>2026-07-21T06:46:10.000Z</time></trkpt>
        <trkpt lat="29.563435" lon="103.347238"><ele>1825.4221</ele><time>2026-07-21T06:46:12.000Z</time></trkpt>
        <trkpt lat="29.56342" lon="103.34723"><ele>1825.0989</ele><time>2026-07-21T06:46:14.000Z</time></trkpt>
        <trkpt lat="29.563405" lon="103.347221"><ele>1825.4573</ele><time>2026-07-21T06:46:16.000Z</time></trkpt>
        <trkpt lat="29.563391" lon="103.347211"><ele>1824.8363</ele><time>2026-07-21T06:46:18.000Z</time></trkpt>
        <trkpt lat="29.563377" lon="103.3472"><ele>1825.5109</ele><time>2026-07-21T06:46:20.000Z</time></trkpt>
        <trkpt lat="29.563364" lon="103.34719"><ele>1825.5055</ele><time>2026-07-21T06:46:22.000Z</time></trkpt>
        <trkpt lat="29.563351" lon="103.347182"><ele>1824.415</ele><time>2026-07-21T06:46:24.000Z</time></trkpt>
        <trkpt lat="29.563337" lon="103.347175"><ele>1825.7037</ele><time>2026-07-21T06:46:26.000Z</time></trkpt>
        <trkpt lat="29.563324" lon="103.347163"><ele>1826.0249</ele><time>2026-07-21T06:46:28.000Z</time></trkpt>
        <trkpt lat="29.563311" lon="103.347149"><ele>1827.4246</ele><time>2026-07-21T06:46:30.000Z</time></trkpt>
        <trkpt lat="29.563297" lon="103.347138"><ele>1828.3588</ele><time>2026-07-21T06:46:32.000Z</time></trkpt>
        <trkpt lat="29.563282" lon="103.347132"><ele>1827.9836</ele><time>2026-07-21T06:46:34.000Z</time></trkpt>
        <trkpt lat="29.563267" lon="103.347132"><ele>1827.6439</ele><time>2026-07-21T06:46:36.000Z</time></trkpt>
        <trkpt lat="29.563253" lon="103.347136"><ele>1827.5663</ele><time>2026-07-21T06:46:38.000Z</time></trkpt>
        <trkpt lat="29.563241" lon="103.34714"><ele>1826.1317</ele><time>2026-07-21T06:46:40.000Z</time></trkpt>
        <trkpt lat="29.563234" lon="103.347144"><ele>1825.8065</ele><time>2026-07-21T06:46:42.000Z</time></trkpt>
        <trkpt lat="29.563232" lon="103.347152"><ele>1824.6833</ele><time>2026-07-21T06:46:48.000Z</time></trkpt>
        <trkpt lat="29.563226" lon="103.347174"><ele>1825.2996</ele><time>2026-07-21T06:47:50.000Z</time></trkpt>
        <trkpt lat="29.56317" lon="103.347152"><ele>1827.0908</ele><time>2026-07-21T06:48:14.000Z</time></trkpt>
        <trkpt lat="29.563283" lon="103.347165"><ele>1829.142</ele><time>2026-07-21T06:48:16.000Z</time></trkpt>
        <trkpt lat="29.563288" lon="103.34717"><ele>1828.82</ele><time>2026-07-21T06:48:18.000Z</time></trkpt>
        <trkpt lat="29.563238" lon="103.347123"><ele>1824.7063</ele><time>2026-07-21T06:48:22.000Z</time></trkpt>
        <trkpt lat="29.563238" lon="103.347123"><ele>1825.1399</ele><time>2026-07-21T06:48:24.000Z</time></trkpt>
        <trkpt lat="29.563236" lon="103.347118"><ele>1825.5779</ele><time>2026-07-21T06:48:26.000Z</time></trkpt>
        <trkpt lat="29.563215" lon="103.347068"><ele>1825.9067</ele><time>2026-07-21T06:48:30.000Z</time></trkpt>
        <trkpt lat="29.563203" lon="103.347041"><ele>1826.2485</ele><time>2026-07-21T06:48:32.000Z</time></trkpt>
        <trkpt lat="29.56319" lon="103.347018"><ele>1826.7849</ele><time>2026-07-21T06:48:34.000Z</time></trkpt>
        <trkpt lat="29.56318" lon="103.347002"><ele>1826.2347</ele><time>2026-07-21T06:48:36.000Z</time></trkpt>
        <trkpt lat="29.563171" lon="103.346989"><ele>1825.8116</ele><time>2026-07-21T06:48:38.000Z</time></trkpt>
        <trkpt lat="29.563167" lon="103.346983"><ele>1826.0819</ele><time>2026-07-21T06:48:40.000Z</time></trkpt>
        <trkpt lat="29.563158" lon="103.346973"><ele>1825.9647</ele><time>2026-07-21T06:49:02.000Z</time></trkpt>
        <trkpt lat="29.563139" lon="103.346953"><ele>1825.6342</ele><time>2026-07-21T06:49:08.000Z</time></trkpt>
        <trkpt lat="29.563139" lon="103.346953"><ele>1825.9833</ele><time>2026-07-21T06:49:10.000Z</time></trkpt>
        <trkpt lat="29.56313" lon="103.34694"><ele>1825.1254</ele><time>2026-07-21T06:49:14.000Z</time></trkpt>
        <trkpt lat="29.56312" lon="103.346923"><ele>1825.0559</ele><time>2026-07-21T06:49:16.000Z</time></trkpt>
        <trkpt lat="29.563109" lon="103.346905"><ele>1825.1702</ele><time>2026-07-21T06:49:18.000Z</time></trkpt>
        <trkpt lat="29.5631" lon="103.346887"><ele>1825.5145</ele><time>2026-07-21T06:49:20.000Z</time></trkpt>
        <trkpt lat="29.563092" lon="103.346875"><ele>1825.104</ele><time>2026-07-21T06:49:22.000Z</time></trkpt>
        <trkpt lat="29.563086" lon="103.346863"><ele>1824.0978</ele><time>2026-07-21T06:49:24.000Z</time></trkpt>
        <trkpt lat="29.563078" lon="103.346855"><ele>1825.1189</ele><time>2026-07-21T06:49:26.000Z</time></trkpt>
        <trkpt lat="29.56307" lon="103.346855"><ele>1825.3131</ele><time>2026-07-21T06:49:30.000Z</time></trkpt>
        <trkpt lat="29.563062" lon="103.346844"><ele>1821.4049</ele><time>2026-07-21T06:50:05.000Z</time></trkpt>
        <trkpt lat="29.563054" lon="103.346832"><ele>1821.058</ele><time>2026-07-21T06:50:11.000Z</time></trkpt>
        <trkpt lat="29.56305" lon="103.346825"><ele>1820.8187</ele><time>2026-07-21T06:50:13.000Z</time></trkpt>
        <trkpt lat="29.563034" lon="103.346803"><ele>1820.9935</ele><time>2026-07-21T06:50:15.000Z</time></trkpt>
        <trkpt lat="29.563033" lon="103.346802"><ele>1820.1935</ele><time>2026-07-21T06:50:17.000Z</time></trkpt>
        <trkpt lat="29.563023" lon="103.34679"><ele>1818.4136</ele><time>2026-07-21T06:50:21.000Z</time></trkpt>
        <trkpt lat="29.56301" lon="103.346773"><ele>1818.7909</ele><time>2026-07-21T06:50:23.000Z</time></trkpt>
        <trkpt lat="29.562993" lon="103.346751"><ele>1819.744</ele><time>2026-07-21T06:50:25.000Z</time></trkpt>
        <trkpt lat="29.562976" lon="103.34673"><ele>1819.4562</ele><time>2026-07-21T06:50:27.000Z</time></trkpt>
        <trkpt lat="29.562961" lon="103.346708"><ele>1819.6398</ele><time>2026-07-21T06:50:29.000Z</time></trkpt>
        <trkpt lat="29.562954" lon="103.34669"><ele>1819.5956</ele><time>2026-07-21T06:50:31.000Z</time></trkpt>
        <trkpt lat="29.562949" lon="103.346674"><ele>1820.2885</ele><time>2026-07-21T06:50:33.000Z</time></trkpt>
        <trkpt lat="29.562943" lon="103.346656"><ele>1821.7825</ele><time>2026-07-21T06:50:35.000Z</time></trkpt>
        <trkpt lat="29.562935" lon="103.346639"><ele>1820.5243</ele><time>2026-07-21T06:50:37.000Z</time></trkpt>
        <trkpt lat="29.562926" lon="103.346619"><ele>1819.9281</ele><time>2026-07-21T06:50:39.000Z</time></trkpt>
        <trkpt lat="29.562917" lon="103.346601"><ele>1819.6566</ele><time>2026-07-21T06:50:41.000Z</time></trkpt>
        <trkpt lat="29.562905" lon="103.346581"><ele>1819.9691</ele><time>2026-07-21T06:50:43.000Z</time></trkpt>
        <trkpt lat="29.562895" lon="103.346563"><ele>1819.4532</ele><time>2026-07-21T06:50:45.000Z</time></trkpt>
        <trkpt lat="29.562882" lon="103.346547"><ele>1819.133</ele><time>2026-07-21T06:50:47.000Z</time></trkpt>
        <trkpt lat="29.562865" lon="103.346533"><ele>1817.0105</ele><time>2026-07-21T06:50:49.000Z</time></trkpt>
        <trkpt lat="29.562846" lon="103.346518"><ele>1816.5804</ele><time>2026-07-21T06:50:51.000Z</time></trkpt>
        <trkpt lat="29.562827" lon="103.346505"><ele>1816.2043</ele><time>2026-07-21T06:50:53.000Z</time></trkpt>
        <trkpt lat="29.562808" lon="103.346495"><ele>1815.6693</ele><time>2026-07-21T06:50:55.000Z</time></trkpt>
        <trkpt lat="29.562789" lon="103.346487"><ele>1815.5101</ele><time>2026-07-21T06:50:57.000Z</time></trkpt>
        <trkpt lat="29.562768" lon="103.346479"><ele>1815.412</ele><time>2026-07-21T06:50:59.000Z</time></trkpt>
        <trkpt lat="29.562749" lon="103.346471"><ele>1815.6091</ele><time>2026-07-21T06:51:01.000Z</time></trkpt>
        <trkpt lat="29.562731" lon="103.346465"><ele>1815.7644</ele><time>2026-07-21T06:51:03.000Z</time></trkpt>
        <trkpt lat="29.562714" lon="103.346459"><ele>1815.6332</ele><time>2026-07-21T06:51:05.000Z</time></trkpt>
        <trkpt lat="29.5627" lon="103.346454"><ele>1816.3413</ele><time>2026-07-21T06:51:07.000Z</time></trkpt>
        <trkpt lat="29.562687" lon="103.346446"><ele>1816.4067</ele><time>2026-07-21T06:51:09.000Z</time></trkpt>
        <trkpt lat="29.562673" lon="103.346436"><ele>1816.5634</ele><time>2026-07-21T06:51:11.000Z</time></trkpt>
        <trkpt lat="29.562659" lon="103.346424"><ele>1816.891</ele><time>2026-07-21T06:51:13.000Z</time></trkpt>
        <trkpt lat="29.562645" lon="103.34641"><ele>1816.6626</ele><time>2026-07-21T06:51:15.000Z</time></trkpt>
        <trkpt lat="29.562632" lon="103.346397"><ele>1816.3835</ele><time>2026-07-21T06:51:17.000Z</time></trkpt>
        <trkpt lat="29.562616" lon="103.346385"><ele>1815.4719</ele><time>2026-07-21T06:51:19.000Z</time></trkpt>
        <trkpt lat="29.562601" lon="103.346375"><ele>1814.9872</ele><time>2026-07-21T06:51:21.000Z</time></trkpt>
        <trkpt lat="29.562589" lon="103.346367"><ele>1813.9618</ele><time>2026-07-21T06:51:23.000Z</time></trkpt>
        <trkpt lat="29.562579" lon="103.34636"><ele>1814.287</ele><time>2026-07-21T06:51:25.000Z</time></trkpt>
        <trkpt lat="29.562571" lon="103.346354"><ele>1814.655</ele><time>2026-07-21T06:51:27.000Z</time></trkpt>
        <trkpt lat="29.56256" lon="103.346346"><ele>1815.112</ele><time>2026-07-21T06:51:29.000Z</time></trkpt>
        <trkpt lat="29.56255" lon="103.346339"><ele>1815.5426</ele><time>2026-07-21T06:51:31.000Z</time></trkpt>
        <trkpt lat="29.562539" lon="103.346331"><ele>1815.549</ele><time>2026-07-21T06:51:33.000Z</time></trkpt>
        <trkpt lat="29.562524" lon="103.346318"><ele>1814.5018</ele><time>2026-07-21T06:51:35.000Z</time></trkpt>
        <trkpt lat="29.562512" lon="103.346306"><ele>1813.8352</ele><time>2026-07-21T06:51:37.000Z</time></trkpt>
        <trkpt lat="29.5625" lon="103.346294"><ele>1813.545</ele><time>2026-07-21T06:51:39.000Z</time></trkpt>
        <trkpt lat="29.562488" lon="103.346279"><ele>1813.7847</ele><time>2026-07-21T06:51:41.000Z</time></trkpt>
        <trkpt lat="29.562476" lon="103.346264"><ele>1814.6544</ele><time>2026-07-21T06:51:43.000Z</time></trkpt>
        <trkpt lat="29.562467" lon="103.346252"><ele>1815.3733</ele><time>2026-07-21T06:51:45.000Z</time></trkpt>
        <trkpt lat="29.562455" lon="103.346238"><ele>1814.8997</ele><time>2026-07-21T06:51:47.000Z</time></trkpt>
        <trkpt lat="29.562442" lon="103.346222"><ele>1814.1359</ele><time>2026-07-21T06:51:49.000Z</time></trkpt>
        <trkpt lat="29.56243" lon="103.346209"><ele>1813.9437</ele><time>2026-07-21T06:51:51.000Z</time></trkpt>
        <trkpt lat="29.562417" lon="103.346194"><ele>1813.3352</ele><time>2026-07-21T06:51:53.000Z</time></trkpt>
        <trkpt lat="29.562402" lon="103.346181"><ele>1812.6166</ele><time>2026-07-21T06:51:55.000Z</time></trkpt>
        <trkpt lat="29.562388" lon="103.346168"><ele>1813.243</ele><time>2026-07-21T06:51:57.000Z</time></trkpt>
        <trkpt lat="29.562377" lon="103.346156"><ele>1813.6879</ele><time>2026-07-21T06:51:59.000Z</time></trkpt>
        <trkpt lat="29.56237" lon="103.346146"><ele>1814.5503</ele><time>2026-07-21T06:52:01.000Z</time></trkpt>
        <trkpt lat="29.562363" lon="103.346136"><ele>1813.9199</ele><time>2026-07-21T06:52:03.000Z</time></trkpt>
        <trkpt lat="29.562352" lon="103.346123"><ele>1813.9258</ele><time>2026-07-21T06:52:05.000Z</time></trkpt>
        <trkpt lat="29.562338" lon="103.346107"><ele>1813.4747</ele><time>2026-07-21T06:52:07.000Z</time></trkpt>
        <trkpt lat="29.562327" lon="103.34609"><ele>1813.142</ele><time>2026-07-21T06:52:09.000Z</time></trkpt>
        <trkpt lat="29.562318" lon="103.346073"><ele>1812.4788</ele><time>2026-07-21T06:52:11.000Z</time></trkpt>
        <trkpt lat="29.562308" lon="103.346056"><ele>1812.574</ele><time>2026-07-21T06:52:13.000Z</time></trkpt>
        <trkpt lat="29.562301" lon="103.346039"><ele>1812.6825</ele><time>2026-07-21T06:52:15.000Z</time></trkpt>
        <trkpt lat="29.562295" lon="103.346022"><ele>1812.8132</ele><time>2026-07-21T06:52:17.000Z</time></trkpt>
        <trkpt lat="29.562288" lon="103.346006"><ele>1813.6295</ele><time>2026-07-21T06:52:19.000Z</time></trkpt>
        <trkpt lat="29.562282" lon="103.345989"><ele>1813.8351</ele><time>2026-07-21T06:52:21.000Z</time></trkpt>
        <trkpt lat="29.562275" lon="103.345971"><ele>1813.405</ele><time>2026-07-21T06:52:23.000Z</time></trkpt>
        <trkpt lat="29.562268" lon="103.345953"><ele>1813.7765</ele><time>2026-07-21T06:52:25.000Z</time></trkpt>
        <trkpt lat="29.562262" lon="103.345934"><ele>1813.7772</ele><time>2026-07-21T06:52:27.000Z</time></trkpt>
        <trkpt lat="29.562255" lon="103.345916"><ele>1813.9283</ele><time>2026-07-21T06:52:29.000Z</time></trkpt>
        <trkpt lat="29.562248" lon="103.345896"><ele>1813.0404</ele><time>2026-07-21T06:52:31.000Z</time></trkpt>
        <trkpt lat="29.562241" lon="103.345875"><ele>1812.1475</ele><time>2026-07-21T06:52:33.000Z</time></trkpt>
        <trkpt lat="29.562234" lon="103.345854"><ele>1811.9972</ele><time>2026-07-21T06:52:35.000Z</time></trkpt>
        <trkpt lat="29.562225" lon="103.345835"><ele>1812.0983</ele><time>2026-07-21T06:52:37.000Z</time></trkpt>
        <trkpt lat="29.562213" lon="103.345816"><ele>1811.0238</ele><time>2026-07-21T06:52:39.000Z</time></trkpt>
        <trkpt lat="29.562201" lon="103.345798"><ele>1810.8701</ele><time>2026-07-21T06:52:41.000Z</time></trkpt>
        <trkpt lat="29.562188" lon="103.345781"><ele>1810.7546</ele><time>2026-07-21T06:52:43.000Z</time></trkpt>
        <trkpt lat="29.562173" lon="103.345765"><ele>1809.9685</ele><time>2026-07-21T06:52:45.000Z</time></trkpt>
        <trkpt lat="29.562158" lon="103.345752"><ele>1810.0358</ele><time>2026-07-21T06:52:47.000Z</time></trkpt>
        <trkpt lat="29.562143" lon="103.345739"><ele>1809.3016</ele><time>2026-07-21T06:52:49.000Z</time></trkpt>
        <trkpt lat="29.56213" lon="103.345728"><ele>1809.185</ele><time>2026-07-21T06:52:51.000Z</time></trkpt>
        <trkpt lat="29.562116" lon="103.345717"><ele>1808.8263</ele><time>2026-07-21T06:52:53.000Z</time></trkpt>
        <trkpt lat="29.562106" lon="103.345706"><ele>1808.8209</ele><time>2026-07-21T06:52:55.000Z</time></trkpt>
        <trkpt lat="29.562101" lon="103.345699"><ele>1810.4717</ele><time>2026-07-21T06:52:57.000Z</time></trkpt>
        <trkpt lat="29.562098" lon="103.34569"><ele>1811.9241</ele><time>2026-07-21T06:52:59.000Z</time></trkpt>
        <trkpt lat="29.562092" lon="103.345668"><ele>1812.6078</ele><time>2026-07-21T06:53:03.000Z</time></trkpt>
        <trkpt lat="29.562087" lon="103.345656"><ele>1812.6263</ele><time>2026-07-21T06:53:05.000Z</time></trkpt>
        <trkpt lat="29.562077" lon="103.345641"><ele>1813.031</ele><time>2026-07-21T06:53:07.000Z</time></trkpt>
        <trkpt lat="29.562063" lon="103.345625"><ele>1812.0819</ele><time>2026-07-21T06:53:09.000Z</time></trkpt>
        <trkpt lat="29.562049" lon="103.345613"><ele>1812.4437</ele><time>2026-07-21T06:53:11.000Z</time></trkpt>
        <trkpt lat="29.562035" lon="103.345604"><ele>1812.4137</ele><time>2026-07-21T06:53:13.000Z</time></trkpt>
        <trkpt lat="29.562023" lon="103.345598"><ele>1812.9067</ele><time>2026-07-21T06:53:15.000Z</time></trkpt>
        <trkpt lat="29.562009" lon="103.345593"><ele>1813.313</ele><time>2026-07-21T06:53:17.000Z</time></trkpt>
        <trkpt lat="29.561992" lon="103.345589"><ele>1813.4976</ele><time>2026-07-21T06:53:19.000Z</time></trkpt>
        <trkpt lat="29.561978" lon="103.345587"><ele>1814.039</ele><time>2026-07-21T06:53:21.000Z</time></trkpt>
        <trkpt lat="29.561963" lon="103.345588"><ele>1813.6229</ele><time>2026-07-21T06:53:23.000Z</time></trkpt>
        <trkpt lat="29.561949" lon="103.34559"><ele>1812.7493</ele><time>2026-07-21T06:53:25.000Z</time></trkpt>
        <trkpt lat="29.561936" lon="103.345591"><ele>1812.917</ele><time>2026-07-21T06:53:27.000Z</time></trkpt>
        <trkpt lat="29.56192" lon="103.345592"><ele>1813.3488</ele><time>2026-07-21T06:53:29.000Z</time></trkpt>
        <trkpt lat="29.561902" lon="103.345592"><ele>1812.9304</ele><time>2026-07-21T06:53:31.000Z</time></trkpt>
        <trkpt lat="29.561887" lon="103.345592"><ele>1813.7072</ele><time>2026-07-21T06:53:33.000Z</time></trkpt>
        <trkpt lat="29.561872" lon="103.345594"><ele>1814.2919</ele><time>2026-07-21T06:53:35.000Z</time></trkpt>
        <trkpt lat="29.56186" lon="103.345597"><ele>1814.3511</ele><time>2026-07-21T06:53:37.000Z</time></trkpt>
        <trkpt lat="29.561848" lon="103.345601"><ele>1815.0016</ele><time>2026-07-21T06:53:39.000Z</time></trkpt>
        <trkpt lat="29.561835" lon="103.345606"><ele>1815.4711</ele><time>2026-07-21T06:53:41.000Z</time></trkpt>
        <trkpt lat="29.561821" lon="103.34561"><ele>1815.4188</ele><time>2026-07-21T06:53:43.000Z</time></trkpt>
        <trkpt lat="29.561807" lon="103.345612"><ele>1816.1996</ele><time>2026-07-21T06:53:45.000Z</time></trkpt>
        <trkpt lat="29.561793" lon="103.345613"><ele>1816.9487</ele><time>2026-07-21T06:53:47.000Z</time></trkpt>
        <trkpt lat="29.561776" lon="103.345614"><ele>1816.4158</ele><time>2026-07-21T06:53:49.000Z</time></trkpt>
        <trkpt lat="29.56176" lon="103.345614"><ele>1816.6962</ele><time>2026-07-21T06:53:51.000Z</time></trkpt>
        <trkpt lat="29.561745" lon="103.345613"><ele>1816.7417</ele><time>2026-07-21T06:53:53.000Z</time></trkpt>
        <trkpt lat="29.56173" lon="103.345612"><ele>1816.6914</ele><time>2026-07-21T06:53:55.000Z</time></trkpt>
        <trkpt lat="29.561714" lon="103.345609"><ele>1817.815</ele><time>2026-07-21T06:53:57.000Z</time></trkpt>
        <trkpt lat="29.561695" lon="103.345604"><ele>1817.5613</ele><time>2026-07-21T06:53:59.000Z</time></trkpt>
        <trkpt lat="29.561679" lon="103.345598"><ele>1816.3613</ele><time>2026-07-21T06:54:01.000Z</time></trkpt>
        <trkpt lat="29.561663" lon="103.345591"><ele>1815.8925</ele><time>2026-07-21T06:54:03.000Z</time></trkpt>
        <trkpt lat="29.561648" lon="103.345584"><ele>1816.3127</ele><time>2026-07-21T06:54:05.000Z</time></trkpt>
        <trkpt lat="29.561635" lon="103.345576"><ele>1816.22</ele><time>2026-07-21T06:54:07.000Z</time></trkpt>
        <trkpt lat="29.561623" lon="103.345568"><ele>1816.2142</ele><time>2026-07-21T06:54:09.000Z</time></trkpt>
        <trkpt lat="29.56161" lon="103.345556"><ele>1815.7559</ele><time>2026-07-21T06:54:11.000Z</time></trkpt>
        <trkpt lat="29.561598" lon="103.345545"><ele>1815.3872</ele><time>2026-07-21T06:54:13.000Z</time></trkpt>
        <trkpt lat="29.561584" lon="103.345534"><ele>1814.278</ele><time>2026-07-21T06:54:15.000Z</time></trkpt>
        <trkpt lat="29.561573" lon="103.345526"><ele>1814.4186</ele><time>2026-07-21T06:54:17.000Z</time></trkpt>
        <trkpt lat="29.561561" lon="103.345515"><ele>1813.876</ele><time>2026-07-21T06:54:19.000Z</time></trkpt>
        <trkpt lat="29.56155" lon="103.345502"><ele>1812.7887</ele><time>2026-07-21T06:54:21.000Z</time></trkpt>
        <trkpt lat="29.561538" lon="103.345487"><ele>1812.5293</ele><time>2026-07-21T06:54:23.000Z</time></trkpt>
        <trkpt lat="29.561526" lon="103.345468"><ele>1812.6847</ele><time>2026-07-21T06:54:25.000Z</time></trkpt>
        <trkpt lat="29.561517" lon="103.345451"><ele>1812.4832</ele><time>2026-07-21T06:54:27.000Z</time></trkpt>
        <trkpt lat="29.561507" lon="103.345434"><ele>1812.5918</ele><time>2026-07-21T06:54:29.000Z</time></trkpt>
        <trkpt lat="29.561496" lon="103.345417"><ele>1812.2855</ele><time>2026-07-21T06:54:31.000Z</time></trkpt>
        <trkpt lat="29.561486" lon="103.345401"><ele>1811.9349</ele><time>2026-07-21T06:54:33.000Z</time></trkpt>
        <trkpt lat="29.561475" lon="103.345384"><ele>1811.6205</ele><time>2026-07-21T06:54:35.000Z</time></trkpt>
        <trkpt lat="29.561465" lon="103.345369"><ele>1811.717</ele><time>2026-07-21T06:54:37.000Z</time></trkpt>
        <trkpt lat="29.561454" lon="103.345352"><ele>1811.4822</ele><time>2026-07-21T06:54:39.000Z</time></trkpt>
        <trkpt lat="29.561444" lon="103.345338"><ele>1811.7863</ele><time>2026-07-21T06:54:41.000Z</time></trkpt>
        <trkpt lat="29.561438" lon="103.345327"><ele>1811.7568</ele><time>2026-07-21T06:54:43.000Z</time></trkpt>
        <trkpt lat="29.561434" lon="103.345326"><ele>1812.1292</ele><time>2026-07-21T06:54:45.000Z</time></trkpt>
        <trkpt lat="29.561418" lon="103.345309"><ele>1814.0126</ele><time>2026-07-21T06:55:49.000Z</time></trkpt>
        <trkpt lat="29.561406" lon="103.345297"><ele>1813.1089</ele><time>2026-07-21T06:55:51.000Z</time></trkpt>
        <trkpt lat="29.561406" lon="103.345296"><ele>1813.206</ele><time>2026-07-21T06:55:53.000Z</time></trkpt>
        <trkpt lat="29.561395" lon="103.345283"><ele>1813.4191</ele><time>2026-07-21T06:55:59.000Z</time></trkpt>
        <trkpt lat="29.561383" lon="103.345269"><ele>1815.6804</ele><time>2026-07-21T06:56:03.000Z</time></trkpt>
        <trkpt lat="29.561381" lon="103.345265"><ele>1815.4241</ele><time>2026-07-21T06:56:05.000Z</time></trkpt>
        <trkpt lat="29.561377" lon="103.345255"><ele>1812.165</ele><time>2026-07-21T06:56:19.000Z</time></trkpt>
        <trkpt lat="29.561369" lon="103.345237"><ele>1813.8424</ele><time>2026-07-21T06:56:25.000Z</time></trkpt>
        <trkpt lat="29.561362" lon="103.34522"><ele>1814.5785</ele><time>2026-07-21T06:56:27.000Z</time></trkpt>
        <trkpt lat="29.561361" lon="103.345219"><ele>1815.173</ele><time>2026-07-21T06:56:29.000Z</time></trkpt>
        <trkpt lat="29.561294" lon="103.345188"><ele>1819.5502</ele><time>2026-07-21T06:56:44.000Z</time></trkpt>
        <trkpt lat="29.561277" lon="103.345184"><ele>1820.2723</ele><time>2026-07-21T06:56:59.000Z</time></trkpt>
        <trkpt lat="29.561267" lon="103.34518"><ele>1821.0255</ele><time>2026-07-21T06:57:14.000Z</time></trkpt>
        <trkpt lat="29.561267" lon="103.345179"><ele>1820.9349</ele><time>2026-07-21T06:57:29.000Z</time></trkpt>
        <trkpt lat="29.561272" lon="103.345147"><ele>1824.6279</ele><time>2026-07-21T06:58:32.000Z</time></trkpt>
        <trkpt lat="29.561271" lon="103.345146"><ele>1824.9281</ele><time>2026-07-21T06:58:34.000Z</time></trkpt>
        <trkpt lat="29.561266" lon="103.345144"><ele>1824.3616</ele><time>2026-07-21T06:58:36.000Z</time></trkpt>
        <trkpt lat="29.561238" lon="103.345132"><ele>1826.4121</ele><time>2026-07-21T06:58:46.000Z</time></trkpt>
        <trkpt lat="29.561231" lon="103.345129"><ele>1827.1213</ele><time>2026-07-21T06:58:48.000Z</time></trkpt>
        <trkpt lat="29.561225" lon="103.345125"><ele>1827.4684</ele><time>2026-07-21T06:58:50.000Z</time></trkpt>
        <trkpt lat="29.561209" lon="103.345114"><ele>1828.2811</ele><time>2026-07-21T06:58:54.000Z</time></trkpt>
        <trkpt lat="29.561224" lon="103.345089"><ele>1830.9117</ele><time>2026-07-21T06:59:04.000Z</time></trkpt>
        <trkpt lat="29.561222" lon="103.345086"><ele>1831.4142</ele><time>2026-07-21T06:59:06.000Z</time></trkpt>
        <trkpt lat="29.561211" lon="103.345073"><ele>1830.5046</ele><time>2026-07-21T06:59:08.000Z</time></trkpt>
        <trkpt lat="29.5612" lon="103.345061"><ele>1829.4375</ele><time>2026-07-21T06:59:16.000Z</time></trkpt>
        <trkpt lat="29.561194" lon="103.345055"><ele>1830.3962</ele><time>2026-07-21T06:59:18.000Z</time></trkpt>
        <trkpt lat="29.561194" lon="103.34505"><ele>1830.8024</ele><time>2026-07-21T06:59:22.000Z</time></trkpt>
        <trkpt lat="29.56119" lon="103.345023"><ele>1833.5936</ele><time>2026-07-21T06:59:36.000Z</time></trkpt>
        <trkpt lat="29.561188" lon="103.345022"><ele>1834.2039</ele><time>2026-07-21T06:59:38.000Z</time></trkpt>
        <trkpt lat="29.561168" lon="103.345021"><ele>1834.6613</ele><time>2026-07-21T06:59:40.000Z</time></trkpt>
        <trkpt lat="29.561158" lon="103.345022"><ele>1836.7427</ele><time>2026-07-21T06:59:48.000Z</time></trkpt>
        <trkpt lat="29.561154" lon="103.345025"><ele>1837.159</ele><time>2026-07-21T06:59:50.000Z</time></trkpt>
        <trkpt lat="29.561142" lon="103.345036"><ele>1838.0472</ele><time>2026-07-21T06:59:54.000Z</time></trkpt>
        <trkpt lat="29.56113" lon="103.345047"><ele>1837.6997</ele><time>2026-07-21T06:59:56.000Z</time></trkpt>
        <trkpt lat="29.56113" lon="103.345047"><ele>1838.0663</ele><time>2026-07-21T06:59:58.000Z</time></trkpt>
        <trkpt lat="29.561116" lon="103.345017"><ele>1839.7979</ele><time>2026-07-21T07:00:22.000Z</time></trkpt>
        <trkpt lat="29.561114" lon="103.345013"><ele>1839.6152</ele><time>2026-07-21T07:00:24.000Z</time></trkpt>
        <trkpt lat="29.561113" lon="103.345009"><ele>1839.584</ele><time>2026-07-21T07:00:26.000Z</time></trkpt>
        <trkpt lat="29.561098" lon="103.344978"><ele>1841.6093</ele><time>2026-07-21T07:00:50.000Z</time></trkpt>
        <trkpt lat="29.561091" lon="103.344966"><ele>1840.9033</ele><time>2026-07-21T07:00:52.000Z</time></trkpt>
        <trkpt lat="29.56109" lon="103.344966"><ele>1841.2391</ele><time>2026-07-21T07:00:54.000Z</time></trkpt>
        <trkpt lat="29.561067" lon="103.34497"><ele>1842.9022</ele><time>2026-07-21T07:01:50.000Z</time></trkpt>
        <trkpt lat="29.561055" lon="103.344976"><ele>1846.6285</ele><time>2026-07-21T07:02:03.000Z</time></trkpt>
        <trkpt lat="29.56104" lon="103.344983"><ele>1846.8838</ele><time>2026-07-21T07:02:05.000Z</time></trkpt>
        <trkpt lat="29.561039" lon="103.344984"><ele>1846.8757</ele><time>2026-07-21T07:02:07.000Z</time></trkpt>
        <trkpt lat="29.561027" lon="103.344995"><ele>1847.1161</ele><time>2026-07-21T07:02:13.000Z</time></trkpt>
        <trkpt lat="29.561007" lon="103.345013"><ele>1848.4703</ele><time>2026-07-21T07:02:17.000Z</time></trkpt>
        <trkpt lat="29.561007" lon="103.345013"><ele>1848.3928</ele><time>2026-07-21T07:02:19.000Z</time></trkpt>
        <trkpt lat="29.561" lon="103.345015"><ele>1848.1334</ele><time>2026-07-21T07:02:25.000Z</time></trkpt>
        <trkpt lat="29.560976" lon="103.345021"><ele>1848.985</ele><time>2026-07-21T07:02:33.000Z</time></trkpt>
        <trkpt lat="29.560971" lon="103.345022"><ele>1848.985</ele><time>2026-07-21T07:02:35.000Z</time></trkpt>
        <trkpt lat="29.560968" lon="103.345025"><ele>1848.5835</ele><time>2026-07-21T07:02:37.000Z</time></trkpt>
        <trkpt lat="29.560948" lon="103.345041"><ele>1850.9498</ele><time>2026-07-21T07:02:51.000Z</time></trkpt>
        <trkpt lat="29.560943" lon="103.345044"><ele>1852.5256</ele><time>2026-07-21T07:02:53.000Z</time></trkpt>
        <trkpt lat="29.56094" lon="103.345049"><ele>1852.4628</ele><time>2026-07-21T07:02:55.000Z</time></trkpt>
        <trkpt lat="29.560926" lon="103.345067"><ele>1853.6195</ele><time>2026-07-21T07:03:03.000Z</time></trkpt>
        <trkpt lat="29.560925" lon="103.345067"><ele>1853.2548</ele><time>2026-07-21T07:03:05.000Z</time></trkpt>
        <trkpt lat="29.560908" lon="103.345053"><ele>1858.351</ele><time>2026-07-21T07:03:38.000Z</time></trkpt>
        <trkpt lat="29.560899" lon="103.345043"><ele>1859.0259</ele><time>2026-07-21T07:03:42.000Z</time></trkpt>
        <trkpt lat="29.560899" lon="103.34504"><ele>1859.9579</ele><time>2026-07-21T07:03:44.000Z</time></trkpt>
        <trkpt lat="29.560893" lon="103.345018"><ele>1863.399</ele><time>2026-07-21T07:04:02.000Z</time></trkpt>
        <trkpt lat="29.560888" lon="103.345002"><ele>1863.7211</ele><time>2026-07-21T07:04:04.000Z</time></trkpt>
        <trkpt lat="29.560888" lon="103.345"><ele>1864.4581</ele><time>2026-07-21T07:04:06.000Z</time></trkpt>
        <trkpt lat="29.560884" lon="103.344984"><ele>1866.1346</ele><time>2026-07-21T07:04:14.000Z</time></trkpt>
        <trkpt lat="29.560881" lon="103.344967"><ele>1866.8608</ele><time>2026-07-21T07:04:18.000Z</time></trkpt>
        <trkpt lat="29.560879" lon="103.344959"><ele>1867.1362</ele><time>2026-07-21T07:04:20.000Z</time></trkpt>
        <trkpt lat="29.560878" lon="103.344943"><ele>1867.9585</ele><time>2026-07-21T07:04:22.000Z</time></trkpt>
        <trkpt lat="29.560876" lon="103.344926"><ele>1868.8271</ele><time>2026-07-21T07:04:30.000Z</time></trkpt>
        <trkpt lat="29.560872" lon="103.344893"><ele>1867.8069</ele><time>2026-07-21T07:04:32.000Z</time></trkpt>
        <trkpt lat="29.560872" lon="103.344891"><ele>1867.1006</ele><time>2026-07-21T07:04:34.000Z</time></trkpt>
        <trkpt lat="29.560872" lon="103.344891"><ele>1867.1006</ele><time>2026-07-21T07:04:36.000Z</time></trkpt>
        <trkpt lat="29.560842" lon="103.344885"><ele>1866.5391</ele><time>2026-07-21T07:05:13.000Z</time></trkpt>
        <trkpt lat="29.560835" lon="103.344886"><ele>1866.7179</ele><time>2026-07-21T07:05:15.000Z</time></trkpt>
        <trkpt lat="29.560829" lon="103.344888"><ele>1867.2533</ele><time>2026-07-21T07:05:17.000Z</time></trkpt>
        <trkpt lat="29.560811" lon="103.344896"><ele>1866.9431</ele><time>2026-07-21T07:05:21.000Z</time></trkpt>
        <trkpt lat="29.560806" lon="103.3449"><ele>1867.9486</ele><time>2026-07-21T07:05:23.000Z</time></trkpt>
        <trkpt lat="29.560802" lon="103.344898"><ele>1866.7261</ele><time>2026-07-21T07:05:25.000Z</time></trkpt>
        <trkpt lat="29.560779" lon="103.344888"><ele>1875.2172</ele><time>2026-07-21T07:06:01.000Z</time></trkpt>
        <trkpt lat="29.560759" lon="103.34488"><ele>1875.637</ele><time>2026-07-21T07:06:03.000Z</time></trkpt>
        <trkpt lat="29.560758" lon="103.34488"><ele>1875.8805</ele><time>2026-07-21T07:06:05.000Z</time></trkpt>
        <trkpt lat="29.560758" lon="103.34488"><ele>1876.2416</ele><time>2026-07-21T07:06:11.000Z</time></trkpt>
        <trkpt lat="29.560759" lon="103.344843"><ele>1880.8107</ele><time>2026-07-21T07:06:33.000Z</time></trkpt>
        <trkpt lat="29.560758" lon="103.344834"><ele>1880.7886</ele><time>2026-07-21T07:06:35.000Z</time></trkpt>
        <trkpt lat="29.560739" lon="103.344763"><ele>1882.8146</ele><time>2026-07-21T07:06:50.000Z</time></trkpt>
        <trkpt lat="29.560717" lon="103.344707"><ele>1883.4692</ele><time>2026-07-21T07:07:05.000Z</time></trkpt>
        <trkpt lat="29.560712" lon="103.344691"><ele>1884.9395</ele><time>2026-07-21T07:07:09.000Z</time></trkpt>
        <trkpt lat="29.560709" lon="103.344685"><ele>1885.4115</ele><time>2026-07-21T07:07:11.000Z</time></trkpt>
      </trkseg>
      <trkseg>
        <trkpt lat="29.560708" lon="103.344679"><ele>1885.843</ele><time>2026-07-21T07:35:29.000Z</time></trkpt>
        <trkpt lat="29.560681" lon="103.344659"><ele>1886.212</ele><time>2026-07-21T07:36:16.000Z</time></trkpt>
        <trkpt lat="29.560642" lon="103.344638"><ele>1886.2125</ele><time>2026-07-21T07:36:23.000Z</time></trkpt>
        <trkpt lat="29.560642" lon="103.344638"><ele>1886.3582</ele><time>2026-07-21T07:36:25.000Z</time></trkpt>
        <trkpt lat="29.560642" lon="103.344638"><ele>1887.1791</ele><time>2026-07-21T07:36:27.000Z</time></trkpt>
        <trkpt lat="29.560608" lon="103.344635"><ele>1888.4795</ele><time>2026-07-21T07:36:35.000Z</time></trkpt>
        <trkpt lat="29.560596" lon="103.344633"><ele>1888.9438</ele><time>2026-07-21T07:36:37.000Z</time></trkpt>
        <trkpt lat="29.560595" lon="103.344633"><ele>1888.9774</ele><time>2026-07-21T07:36:39.000Z</time></trkpt>
        <trkpt lat="29.560579" lon="103.344627"><ele>1889.3195</ele><time>2026-07-21T07:36:45.000Z</time></trkpt>
        <trkpt lat="29.560566" lon="103.344622"><ele>1892.1597</ele><time>2026-07-21T07:36:53.000Z</time></trkpt>
        <trkpt lat="29.560561" lon="103.34462"><ele>1893.2095</ele><time>2026-07-21T07:36:55.000Z</time></trkpt>
        <trkpt lat="29.560548" lon="103.344617"><ele>1895.9971</ele><time>2026-07-21T07:37:01.000Z</time></trkpt>
        <trkpt lat="29.560536" lon="103.344616"><ele>1899.3422</ele><time>2026-07-21T07:37:09.000Z</time></trkpt>
        <trkpt lat="29.560531" lon="103.344613"><ele>1899.0015</ele><time>2026-07-21T07:37:11.000Z</time></trkpt>
        <trkpt lat="29.560507" lon="103.344601"><ele>1898.1191</ele><time>2026-07-21T07:37:15.000Z</time></trkpt>
        <trkpt lat="29.560507" lon="103.344601"><ele>1898.265</ele><time>2026-07-21T07:37:17.000Z</time></trkpt>
        <trkpt lat="29.560502" lon="103.344597"><ele>1897.4637</ele><time>2026-07-21T07:37:23.000Z</time></trkpt>
        <trkpt lat="29.560481" lon="103.344584"><ele>1900.981</ele><time>2026-07-21T07:37:35.000Z</time></trkpt>
        <trkpt lat="29.560459" lon="103.34457"><ele>1900.8564</ele><time>2026-07-21T07:37:39.000Z</time></trkpt>
        <trkpt lat="29.560459" lon="103.34457"><ele>1900.9995</ele><time>2026-07-21T07:37:41.000Z</time></trkpt>
        <trkpt lat="29.560454" lon="103.344568"><ele>1900.8245</ele><time>2026-07-21T07:37:45.000Z</time></trkpt>
        <trkpt lat="29.56043" lon="103.344561"><ele>1901.8666</ele><time>2026-07-21T07:37:59.000Z</time></trkpt>
        <trkpt lat="29.560425" lon="103.344561"><ele>1903.206</ele><time>2026-07-21T07:38:01.000Z</time></trkpt>
        <trkpt lat="29.560415" lon="103.344553"><ele>1904.2014</ele><time>2026-07-21T07:38:03.000Z</time></trkpt>
        <trkpt lat="29.560406" lon="103.344542"><ele>1905.7849</ele><time>2026-07-21T07:38:13.000Z</time></trkpt>
        <trkpt lat="29.5604" lon="103.344534"><ele>1906.0146</ele><time>2026-07-21T07:38:17.000Z</time></trkpt>
        <trkpt lat="29.560394" lon="103.344528"><ele>1905.2599</ele><time>2026-07-21T07:38:21.000Z</time></trkpt>
        <trkpt lat="29.560382" lon="103.344516"><ele>1905.8547</ele><time>2026-07-21T07:38:33.000Z</time></trkpt>
        <trkpt lat="29.560376" lon="103.34451"><ele>1906.6921</ele><time>2026-07-21T07:38:37.000Z</time></trkpt>
        <trkpt lat="29.56037" lon="103.344506"><ele>1907.5541</ele><time>2026-07-21T07:38:41.000Z</time></trkpt>
        <trkpt lat="29.560353" lon="103.344492"><ele>1909.5565</ele><time>2026-07-21T07:39:09.000Z</time></trkpt>
        <trkpt lat="29.560348" lon="103.344489"><ele>1909.1592</ele><time>2026-07-21T07:39:11.000Z</time></trkpt>
        <trkpt lat="29.56034" lon="103.344492"><ele>1910.1055</ele><time>2026-07-21T07:39:13.000Z</time></trkpt>
        <trkpt lat="29.560321" lon="103.3445"><ele>1910.9752</ele><time>2026-07-21T07:39:25.000Z</time></trkpt>
        <trkpt lat="29.560317" lon="103.344504"><ele>1911.5596</ele><time>2026-07-21T07:39:27.000Z</time></trkpt>
        <trkpt lat="29.560315" lon="103.344503"><ele>1912.2009</ele><time>2026-07-21T07:39:31.000Z</time></trkpt>
        <trkpt lat="29.560298" lon="103.344483"><ele>1911.5334</ele><time>2026-07-21T07:40:01.000Z</time></trkpt>
        <trkpt lat="29.560291" lon="103.344473"><ele>1911.2185</ele><time>2026-07-21T07:40:03.000Z</time></trkpt>
        <trkpt lat="29.560291" lon="103.344472"><ele>1911.9062</ele><time>2026-07-21T07:40:05.000Z</time></trkpt>
        <trkpt lat="29.560275" lon="103.344448"><ele>1915.2357</ele><time>2026-07-21T07:40:17.000Z</time></trkpt>
        <trkpt lat="29.56027" lon="103.344442"><ele>1915.7709</ele><time>2026-07-21T07:40:19.000Z</time></trkpt>
        <trkpt lat="29.560265" lon="103.344437"><ele>1916.5469</ele><time>2026-07-21T07:40:21.000Z</time></trkpt>
        <trkpt lat="29.560249" lon="103.344417"><ele>1915.6321</ele><time>2026-07-21T07:40:25.000Z</time></trkpt>
        <trkpt lat="29.560243" lon="103.344409"><ele>1916.6431</ele><time>2026-07-21T07:40:27.000Z</time></trkpt>
        <trkpt lat="29.560238" lon="103.344401"><ele>1916.6246</ele><time>2026-07-21T07:40:29.000Z</time></trkpt>
        <trkpt lat="29.560227" lon="103.344383"><ele>1916.6915</ele><time>2026-07-21T07:40:33.000Z</time></trkpt>
        <trkpt lat="29.560222" lon="103.344377"><ele>1916.8903</ele><time>2026-07-21T07:40:35.000Z</time></trkpt>
        <trkpt lat="29.560219" lon="103.344374"><ele>1917.0519</ele><time>2026-07-21T07:40:37.000Z</time></trkpt>
        <trkpt lat="29.560201" lon="103.344361"><ele>1918.9131</ele><time>2026-07-21T07:40:43.000Z</time></trkpt>
        <trkpt lat="29.560202" lon="103.344358"><ele>1921.6984</ele><time>2026-07-21T07:40:49.000Z</time></trkpt>
        <trkpt lat="29.5602" lon="103.344346"><ele>1923.4934</ele><time>2026-07-21T07:40:59.000Z</time></trkpt>
        <trkpt lat="29.560199" lon="103.344324"><ele>1926.4276</ele><time>2026-07-21T07:41:28.000Z</time></trkpt>
        <trkpt lat="29.5602" lon="103.344319"><ele>1926.7006</ele><time>2026-07-21T07:41:30.000Z</time></trkpt>
        <trkpt lat="29.560202" lon="103.344312"><ele>1927.0005</ele><time>2026-07-21T07:41:32.000Z</time></trkpt>
        <trkpt lat="29.560209" lon="103.344277"><ele>1927.3346</ele><time>2026-07-21T07:41:42.000Z</time></trkpt>
        <trkpt lat="29.560213" lon="103.344257"><ele>1927.2075</ele><time>2026-07-21T07:41:44.000Z</time></trkpt>
        <trkpt lat="29.560212" lon="103.344256"><ele>1927.1061</ele><time>2026-07-21T07:41:46.000Z</time></trkpt>
        <trkpt lat="29.560196" lon="103.344235"><ele>1927.9775</ele><time>2026-07-21T07:41:52.000Z</time></trkpt>
        <trkpt lat="29.560187" lon="103.344225"><ele>1927.5481</ele><time>2026-07-21T07:41:54.000Z</time></trkpt>
        <trkpt lat="29.560182" lon="103.344217"><ele>1927.7452</ele><time>2026-07-21T07:41:56.000Z</time></trkpt>
        <trkpt lat="29.560175" lon="103.344211"><ele>1928.7601</ele><time>2026-07-21T07:42:10.000Z</time></trkpt>
        <trkpt lat="29.560159" lon="103.3442"><ele>1927.6229</ele><time>2026-07-21T07:42:37.000Z</time></trkpt>
        <trkpt lat="29.560153" lon="103.344196"><ele>1927.4092</ele><time>2026-07-21T07:42:39.000Z</time></trkpt>
        <trkpt lat="29.560147" lon="103.344197"><ele>1926.767</ele><time>2026-07-21T07:42:41.000Z</time></trkpt>
        <trkpt lat="29.560127" lon="103.344198"><ele>1931.0673</ele><time>2026-07-21T07:42:49.000Z</time></trkpt>
        <trkpt lat="29.560122" lon="103.344197"><ele>1930.6938</ele><time>2026-07-21T07:42:53.000Z</time></trkpt>
        <trkpt lat="29.560111" lon="103.344194"><ele>1931.6316</ele><time>2026-07-21T07:42:57.000Z</time></trkpt>
        <trkpt lat="29.560093" lon="103.34419"><ele>1929.6395</ele><time>2026-07-21T07:43:03.000Z</time></trkpt>
        <trkpt lat="29.560085" lon="103.344188"><ele>1930.8613</ele><time>2026-07-21T07:43:05.000Z</time></trkpt>
        <trkpt lat="29.560085" lon="103.344189"><ele>1930.6218</ele><time>2026-07-21T07:43:07.000Z</time></trkpt>
        <trkpt lat="29.5601" lon="103.344157"><ele>1939.452</ele><time>2026-07-21T07:43:33.000Z</time></trkpt>
        <trkpt lat="29.560102" lon="103.344153"><ele>1939.2963</ele><time>2026-07-21T07:43:35.000Z</time></trkpt>
        <trkpt lat="29.560105" lon="103.344148"><ele>1940.2312</ele><time>2026-07-21T07:43:37.000Z</time></trkpt>
        <trkpt lat="29.560119" lon="103.344125"><ele>1941.9655</ele><time>2026-07-21T07:43:45.000Z</time></trkpt>
        <trkpt lat="29.560122" lon="103.344119"><ele>1942.1362</ele><time>2026-07-21T07:43:47.000Z</time></trkpt>
        <trkpt lat="29.560127" lon="103.344112"><ele>1941.639</ele><time>2026-07-21T07:43:49.000Z</time></trkpt>
        <trkpt lat="29.560137" lon="103.344097"><ele>1941.4454</ele><time>2026-07-21T07:44:05.000Z</time></trkpt>
        <trkpt lat="29.560138" lon="103.344091"><ele>1941.0875</ele><time>2026-07-21T07:44:09.000Z</time></trkpt>
        <trkpt lat="29.560136" lon="103.344082"><ele>1941.8495</ele><time>2026-07-21T07:44:13.000Z</time></trkpt>
        <trkpt lat="29.560112" lon="103.34403"><ele>1945.5721</ele><time>2026-07-21T07:44:32.000Z</time></trkpt>
        <trkpt lat="29.560094" lon="103.343998"><ele>1945.4031</ele><time>2026-07-21T07:44:47.000Z</time></trkpt>
        <trkpt lat="29.560085" lon="103.34398"><ele>1944.3457</ele><time>2026-07-21T07:45:02.000Z</time></trkpt>
        <trkpt lat="29.560084" lon="103.34398"><ele>1944.897</ele><time>2026-07-21T07:45:09.000Z</time></trkpt>
        <trkpt lat="29.560126" lon="103.343969"><ele>1950.3247</ele><time>2026-07-21T07:45:33.000Z</time></trkpt>
        <trkpt lat="29.560131" lon="103.343965"><ele>1949.7705</ele><time>2026-07-21T07:45:35.000Z</time></trkpt>
        <trkpt lat="29.560138" lon="103.343961"><ele>1949.15</ele><time>2026-07-21T07:45:37.000Z</time></trkpt>
        <trkpt lat="29.560151" lon="103.343948"><ele>1949.2333</ele><time>2026-07-21T07:45:52.000Z</time></trkpt>
        <trkpt lat="29.560151" lon="103.343945"><ele>1949.99</ele><time>2026-07-21T07:45:56.000Z</time></trkpt>
        <trkpt lat="29.560145" lon="103.343928"><ele>1951.4869</ele><time>2026-07-21T07:46:02.000Z</time></trkpt>
        <trkpt lat="29.560142" lon="103.343914"><ele>1951.9874</ele><time>2026-07-21T07:46:06.000Z</time></trkpt>
        <trkpt lat="29.560138" lon="103.343909"><ele>1952.3798</ele><time>2026-07-21T07:46:08.000Z</time></trkpt>
        <trkpt lat="29.560127" lon="103.3439"><ele>1951.9874</ele><time>2026-07-21T07:46:16.000Z</time></trkpt>
        <trkpt lat="29.560088" lon="103.34387"><ele>1957.2196</ele><time>2026-07-21T07:46:37.000Z</time></trkpt>
        <trkpt lat="29.560058" lon="103.343847"><ele>1957.5684</ele><time>2026-07-21T07:46:52.000Z</time></trkpt>
        <trkpt lat="29.560038" lon="103.343832"><ele>1959.8953</ele><time>2026-07-21T07:47:07.000Z</time></trkpt>
        <trkpt lat="29.560029" lon="103.343832"><ele>1960.3656</ele><time>2026-07-21T07:47:22.000Z</time></trkpt>
        <trkpt lat="29.560006" lon="103.343828"><ele>1960.019</ele><time>2026-07-21T07:47:37.000Z</time></trkpt>
        <trkpt lat="29.560006" lon="103.343828"><ele>1959.1022</ele><time>2026-07-21T07:47:44.000Z</time></trkpt>
        <trkpt lat="29.560004" lon="103.343803"><ele>1960.3612</ele><time>2026-07-21T07:47:56.000Z</time></trkpt>
        <trkpt lat="29.560001" lon="103.343793"><ele>1961.1025</ele><time>2026-07-21T07:48:00.000Z</time></trkpt>
        <trkpt lat="29.56" lon="103.343793"><ele>1961.6615</ele><time>2026-07-21T07:48:02.000Z</time></trkpt>
        <trkpt lat="29.559986" lon="103.343771"><ele>1965.0396</ele><time>2026-07-21T07:48:10.000Z</time></trkpt>
        <trkpt lat="29.559978" lon="103.343764"><ele>1967.5243</ele><time>2026-07-21T07:48:17.000Z</time></trkpt>
        <trkpt lat="29.559951" lon="103.343738"><ele>1967.5488</ele><time>2026-07-21T07:48:19.000Z</time></trkpt>
        <trkpt lat="29.559949" lon="103.343736"><ele>1967.406</ele><time>2026-07-21T07:48:21.000Z</time></trkpt>
        <trkpt lat="29.559948" lon="103.343735"><ele>1968.0254</ele><time>2026-07-21T07:48:23.000Z</time></trkpt>
        <trkpt lat="29.559925" lon="103.343718"><ele>1967.769</ele><time>2026-07-21T07:48:31.000Z</time></trkpt>
        <trkpt lat="29.559924" lon="103.343718"><ele>1967.9224</ele><time>2026-07-21T07:48:33.000Z</time></trkpt>
        <trkpt lat="29.559922" lon="103.343716"><ele>1967.8815</ele><time>2026-07-21T07:48:45.000Z</time></trkpt>
        <trkpt lat="29.559896" lon="103.343695"><ele>1971.627</ele><time>2026-07-21T07:49:08.000Z</time></trkpt>
        <trkpt lat="29.55989" lon="103.343689"><ele>1971.7842</ele><time>2026-07-21T07:49:10.000Z</time></trkpt>
        <trkpt lat="29.559882" lon="103.343685"><ele>1971.5203</ele><time>2026-07-21T07:49:12.000Z</time></trkpt>
        <trkpt lat="29.559863" lon="103.343673"><ele>1972.501</ele><time>2026-07-21T07:49:16.000Z</time></trkpt>
        <trkpt lat="29.559854" lon="103.343667"><ele>1973.1901</ele><time>2026-07-21T07:49:18.000Z</time></trkpt>
        <trkpt lat="29.559848" lon="103.343662"><ele>1973.3146</ele><time>2026-07-21T07:49:20.000Z</time></trkpt>
        <trkpt lat="29.559829" lon="103.343647"><ele>1972.6533</ele><time>2026-07-21T07:49:24.000Z</time></trkpt>
        <trkpt lat="29.559821" lon="103.343639"><ele>1972.8969</ele><time>2026-07-21T07:49:26.000Z</time></trkpt>
        <trkpt lat="29.559815" lon="103.343632"><ele>1973.4484</ele><time>2026-07-21T07:49:28.000Z</time></trkpt>
        <trkpt lat="29.559809" lon="103.343622"><ele>1974.1287</ele><time>2026-07-21T07:49:30.000Z</time></trkpt>
        <trkpt lat="29.5598" lon="103.343608"><ele>1975.2097</ele><time>2026-07-21T07:49:34.000Z</time></trkpt>
        <trkpt lat="29.559797" lon="103.343603"><ele>1975.7999</ele><time>2026-07-21T07:49:36.000Z</time></trkpt>
        <trkpt lat="29.559789" lon="103.343598"><ele>1976.3207</ele><time>2026-07-21T07:49:40.000Z</time></trkpt>
        <trkpt lat="29.559776" lon="103.343586"><ele>1978.031</ele><time>2026-07-21T07:50:13.000Z</time></trkpt>
        <trkpt lat="29.559771" lon="103.343578"><ele>1979.8481</ele><time>2026-07-21T07:50:19.000Z</time></trkpt>
        <trkpt lat="29.559758" lon="103.343556"><ele>1980.2227</ele><time>2026-07-21T07:50:21.000Z</time></trkpt>
        <trkpt lat="29.559757" lon="103.343554"><ele>1980.3666</ele><time>2026-07-21T07:50:23.000Z</time></trkpt>
        <trkpt lat="29.559751" lon="103.343542"><ele>1979.5474</ele><time>2026-07-21T07:50:27.000Z</time></trkpt>
        <trkpt lat="29.559742" lon="103.343512"><ele>1980.473</ele><time>2026-07-21T07:50:31.000Z</time></trkpt>
        <trkpt lat="29.559738" lon="103.3435"><ele>1981.1399</ele><time>2026-07-21T07:50:33.000Z</time></trkpt>
        <trkpt lat="29.559732" lon="103.343491"><ele>1981.1367</ele><time>2026-07-21T07:50:35.000Z</time></trkpt>
        <trkpt lat="29.559724" lon="103.343489"><ele>1982.0787</ele><time>2026-07-21T07:50:37.000Z</time></trkpt>
        <trkpt lat="29.559707" lon="103.343492"><ele>1983.1799</ele><time>2026-07-21T07:50:41.000Z</time></trkpt>
        <trkpt lat="29.559697" lon="103.343497"><ele>1982.8528</ele><time>2026-07-21T07:50:43.000Z</time></trkpt>
        <trkpt lat="29.559693" lon="103.343503"><ele>1983.3909</ele><time>2026-07-21T07:50:45.000Z</time></trkpt>
        <trkpt lat="29.559684" lon="103.34352"><ele>1984.7894</ele><time>2026-07-21T07:50:51.000Z</time></trkpt>
        <trkpt lat="29.559673" lon="103.34354"><ele>1984.7201</ele><time>2026-07-21T07:50:53.000Z</time></trkpt>
        <trkpt lat="29.559672" lon="103.343541"><ele>1985.6726</ele><time>2026-07-21T07:50:55.000Z</time></trkpt>
        <trkpt lat="29.559669" lon="103.343551"><ele>1985.6871</ele><time>2026-07-21T07:50:59.000Z</time></trkpt>
        <trkpt lat="29.559656" lon="103.343585"><ele>1985.6147</ele><time>2026-07-21T07:51:03.000Z</time></trkpt>
        <trkpt lat="29.559656" lon="103.343585"><ele>1985.0426</ele><time>2026-07-21T07:51:05.000Z</time></trkpt>
        <trkpt lat="29.559657" lon="103.343585"><ele>1985.1515</ele><time>2026-07-21T07:51:07.000Z</time></trkpt>
        <trkpt lat="29.559626" lon="103.343579"><ele>1988.2112</ele><time>2026-07-21T07:51:52.000Z</time></trkpt>
        <trkpt lat="29.559621" lon="103.343576"><ele>1988.6055</ele><time>2026-07-21T07:51:54.000Z</time></trkpt>
        <trkpt lat="29.559613" lon="103.343572"><ele>1988.9298</ele><time>2026-07-21T07:51:56.000Z</time></trkpt>
        <trkpt lat="29.559599" lon="103.343561"><ele>1989.6531</ele><time>2026-07-21T07:52:00.000Z</time></trkpt>
        <trkpt lat="29.559554" lon="103.343522"><ele>1993.5074</ele><time>2026-07-21T07:52:15.000Z</time></trkpt>
        <trkpt lat="29.559514" lon="103.343487"><ele>1995.9446</ele><time>2026-07-21T07:52:24.000Z</time></trkpt>
        <trkpt lat="29.559514" lon="103.343487"><ele>1995.8108</ele><time>2026-07-21T07:52:26.000Z</time></trkpt>
        <trkpt lat="29.559512" lon="103.343489"><ele>1996.7065</ele><time>2026-07-21T07:52:28.000Z</time></trkpt>
        <trkpt lat="29.559486" lon="103.343504"><ele>1997.5946</ele><time>2026-07-21T07:52:40.000Z</time></trkpt>
        <trkpt lat="29.559486" lon="103.343505"><ele>1998.3743</ele><time>2026-07-21T07:52:42.000Z</time></trkpt>
        <trkpt lat="29.559485" lon="103.343507"><ele>1999.1136</ele><time>2026-07-21T07:52:44.000Z</time></trkpt>
        <trkpt lat="29.559465" lon="103.343548"><ele>1999.636</ele><time>2026-07-21T07:52:52.000Z</time></trkpt>
        <trkpt lat="29.559465" lon="103.343549"><ele>1999.812</ele><time>2026-07-21T07:52:54.000Z</time></trkpt>
        <trkpt lat="29.559463" lon="103.343551"><ele>2000.6526</ele><time>2026-07-21T07:52:56.000Z</time></trkpt>
        <trkpt lat="29.559446" lon="103.343583"><ele>2000.5948</ele><time>2026-07-21T07:53:02.000Z</time></trkpt>
        <trkpt lat="29.559442" lon="103.34359"><ele>2001.0139</ele><time>2026-07-21T07:53:04.000Z</time></trkpt>
        <trkpt lat="29.55944" lon="103.34359"><ele>2001.6504</ele><time>2026-07-21T07:53:06.000Z</time></trkpt>
        <trkpt lat="29.559411" lon="103.34359"><ele>2004.6554</ele><time>2026-07-21T07:53:18.000Z</time></trkpt>
        <trkpt lat="29.559397" lon="103.343591"><ele>2005.4792</ele><time>2026-07-21T07:53:20.000Z</time></trkpt>
        <trkpt lat="29.559396" lon="103.34359"><ele>2006.3392</ele><time>2026-07-21T07:53:22.000Z</time></trkpt>
        <trkpt lat="29.559378" lon="103.343586"><ele>2007.5917</ele><time>2026-07-21T07:53:30.000Z</time></trkpt>
        <trkpt lat="29.559357" lon="103.34358"><ele>2006.8328</ele><time>2026-07-21T07:53:34.000Z</time></trkpt>
        <trkpt lat="29.559357" lon="103.34358"><ele>2007.2125</ele><time>2026-07-21T07:53:36.000Z</time></trkpt>
        <trkpt lat="29.559348" lon="103.343574"><ele>2006.289</ele><time>2026-07-21T07:53:42.000Z</time></trkpt>
        <trkpt lat="29.55933" lon="103.343562"><ele>2005.024</ele><time>2026-07-21T07:53:50.000Z</time></trkpt>
        <trkpt lat="29.559329" lon="103.343562"><ele>2005.024</ele><time>2026-07-21T07:53:52.000Z</time></trkpt>
        <trkpt lat="29.559322" lon="103.343575"><ele>2001.0583</ele><time>2026-07-21T07:54:03.000Z</time></trkpt>
        <trkpt lat="29.559315" lon="103.343593"><ele>2008.5164</ele><time>2026-07-21T07:54:19.000Z</time></trkpt>
        <trkpt lat="29.559314" lon="103.343597"><ele>2008.591</ele><time>2026-07-21T07:54:21.000Z</time></trkpt>
      </trkseg>
      <trkseg>
        <trkpt lat="29.559292" lon="103.343578"><ele>2013.8375</ele><time>2026-07-21T08:05:27.000Z</time></trkpt>
        <trkpt lat="29.559296" lon="103.343612"><ele>2013.2886</ele><time>2026-07-21T08:05:47.000Z</time></trkpt>
        <trkpt lat="29.559295" lon="103.343613"><ele>2013.4554</ele><time>2026-07-21T08:05:49.000Z</time></trkpt>
        <trkpt lat="29.559295" lon="103.343614"><ele>2013.4554</ele><time>2026-07-21T08:05:51.000Z</time></trkpt>
        <trkpt lat="29.559281" lon="103.343642"><ele>2012.8029</ele><time>2026-07-21T08:06:32.000Z</time></trkpt>
        <trkpt lat="29.559271" lon="103.343663"><ele>2012.8052</ele><time>2026-07-21T08:06:34.000Z</time></trkpt>
        <trkpt lat="29.559271" lon="103.343665"><ele>2012.1414</ele><time>2026-07-21T08:06:36.000Z</time></trkpt>
        <trkpt lat="29.559269" lon="103.343677"><ele>2012.7386</ele><time>2026-07-21T08:06:40.000Z</time></trkpt>
        <trkpt lat="29.559264" lon="103.343705"><ele>2014.3815</ele><time>2026-07-21T08:06:44.000Z</time></trkpt>
        <trkpt lat="29.559264" lon="103.343705"><ele>2014.8684</ele><time>2026-07-21T08:06:46.000Z</time></trkpt>
        <trkpt lat="29.559261" lon="103.343713"><ele>2015.4568</ele><time>2026-07-21T08:06:50.000Z</time></trkpt>
        <trkpt lat="29.559251" lon="103.343741"><ele>2014.8925</ele><time>2026-07-21T08:06:56.000Z</time></trkpt>
        <trkpt lat="29.559252" lon="103.343747"><ele>2014.8378</ele><time>2026-07-21T08:06:58.000Z</time></trkpt>
        <trkpt lat="29.559248" lon="103.34376"><ele>2016.4592</ele><time>2026-07-21T08:07:00.000Z</time></trkpt>
        <trkpt lat="29.559238" lon="103.343777"><ele>2017.3992</ele><time>2026-07-21T08:07:07.000Z</time></trkpt>
        <trkpt lat="29.55923" lon="103.34379"><ele>2017.3667</ele><time>2026-07-21T08:07:10.000Z</time></trkpt>
        <trkpt lat="29.55923" lon="103.343792"><ele>2017.9154</ele><time>2026-07-21T08:07:12.000Z</time></trkpt>
        <trkpt lat="29.559223" lon="103.343812"><ele>2020.3479</ele><time>2026-07-21T08:07:18.000Z</time></trkpt>
        <trkpt lat="29.559218" lon="103.343829"><ele>2020.9279</ele><time>2026-07-21T08:07:22.000Z</time></trkpt>
        <trkpt lat="29.559217" lon="103.34383"><ele>2020.9293</ele><time>2026-07-21T08:07:24.000Z</time></trkpt>
        <trkpt lat="29.559187" lon="103.343835"><ele>2021.5845</ele><time>2026-07-21T08:07:34.000Z</time></trkpt>
        <trkpt lat="29.559187" lon="103.343835"><ele>2021.8346</ele><time>2026-07-21T08:07:36.000Z</time></trkpt>
        <trkpt lat="29.559181" lon="103.343816"><ele>2018.9785</ele><time>2026-07-21T08:07:48.000Z</time></trkpt>
        <trkpt lat="29.559171" lon="103.3438"><ele>2019.8898</ele><time>2026-07-21T08:07:56.000Z</time></trkpt>
        <trkpt lat="29.559168" lon="103.343795"><ele>2019.8265</ele><time>2026-07-21T08:07:58.000Z</time></trkpt>
        <trkpt lat="29.559161" lon="103.343785"><ele>2021.2328</ele><time>2026-07-21T08:08:02.000Z</time></trkpt>
        <trkpt lat="29.559144" lon="103.343758"><ele>2021.5044</ele><time>2026-07-21T08:08:08.000Z</time></trkpt>
        <trkpt lat="29.559144" lon="103.343758"><ele>2021.6454</ele><time>2026-07-21T08:08:10.000Z</time></trkpt>
        <trkpt lat="29.559147" lon="103.343749"><ele>2022.623</ele><time>2026-07-21T08:08:14.000Z</time></trkpt>
        <trkpt lat="29.559156" lon="103.343725"><ele>2024.2654</ele><time>2026-07-21T08:08:22.000Z</time></trkpt>
        <trkpt lat="29.559156" lon="103.343724"><ele>2024.6254</ele><time>2026-07-21T08:08:24.000Z</time></trkpt>
        <trkpt lat="29.559159" lon="103.343726"><ele>2026.6715</ele><time>2026-07-21T08:09:02.000Z</time></trkpt>
        <trkpt lat="29.559126" lon="103.343698"><ele>2027.8743</ele><time>2026-07-21T08:09:14.000Z</time></trkpt>
        <trkpt lat="29.559119" lon="103.343693"><ele>2027.318</ele><time>2026-07-21T08:09:16.000Z</time></trkpt>
        <trkpt lat="29.559112" lon="103.343689"><ele>2027.3578</ele><time>2026-07-21T08:09:18.000Z</time></trkpt>
        <trkpt lat="29.559098" lon="103.343686"><ele>2027.4657</ele><time>2026-07-21T08:09:22.000Z</time></trkpt>
        <trkpt lat="29.559083" lon="103.343686"><ele>2028.5013</ele><time>2026-07-21T08:09:26.000Z</time></trkpt>
        <trkpt lat="29.559071" lon="103.343686"><ele>2029.2106</ele><time>2026-07-21T08:09:28.000Z</time></trkpt>
        <trkpt lat="29.559068" lon="103.343685"><ele>2029.8102</ele><time>2026-07-21T08:09:32.000Z</time></trkpt>
        <trkpt lat="29.559037" lon="103.34367"><ele>2030.8889</ele><time>2026-07-21T08:09:49.000Z</time></trkpt>
        <trkpt lat="29.559014" lon="103.343663"><ele>2032.9639</ele><time>2026-07-21T08:10:04.000Z</time></trkpt>
        <trkpt lat="29.559013" lon="103.343665"><ele>2034.1184</ele><time>2026-07-21T08:10:19.000Z</time></trkpt>
        <trkpt lat="29.559004" lon="103.343698"><ele>2034.7723</ele><time>2026-07-21T08:10:34.000Z</time></trkpt>
        <trkpt lat="29.558992" lon="103.343739"><ele>2036.4523</ele><time>2026-07-21T08:10:49.000Z</time></trkpt>
        <trkpt lat="29.558957" lon="103.343754"><ele>2038.4434</ele><time>2026-07-21T08:11:04.000Z</time></trkpt>
        <trkpt lat="29.558909" lon="103.343778"><ele>2042.3124</ele><time>2026-07-21T08:11:20.000Z</time></trkpt>
        <trkpt lat="29.5589" lon="103.343782"><ele>2042.4769</ele><time>2026-07-21T08:11:23.000Z</time></trkpt>
        <trkpt lat="29.5589" lon="103.343782"><ele>2042.8423</ele><time>2026-07-21T08:11:25.000Z</time></trkpt>
        <trkpt lat="29.558901" lon="103.343824"><ele>2043.2562</ele><time>2026-07-21T08:11:29.000Z</time></trkpt>
        <trkpt lat="29.558901" lon="103.343824"><ele>2043.3146</ele><time>2026-07-21T08:11:31.000Z</time></trkpt>
        <trkpt lat="29.558901" lon="103.343828"><ele>2043.454</ele><time>2026-07-21T08:11:33.000Z</time></trkpt>
        <trkpt lat="29.558901" lon="103.343879"><ele>2043.5176</ele><time>2026-07-21T08:11:37.000Z</time></trkpt>
        <trkpt lat="29.558902" lon="103.343911"><ele>2043.7737</ele><time>2026-07-21T08:11:39.000Z</time></trkpt>
        <trkpt lat="29.558906" lon="103.343941"><ele>2044.2241</ele><time>2026-07-21T08:11:41.000Z</time></trkpt>
        <trkpt lat="29.558913" lon="103.343968"><ele>2044.7406</ele><time>2026-07-21T08:11:43.000Z</time></trkpt>
        <trkpt lat="29.55892" lon="103.343991"><ele>2044.9458</ele><time>2026-07-21T08:11:45.000Z</time></trkpt>
        <trkpt lat="29.558927" lon="103.344013"><ele>2045.1534</ele><time>2026-07-21T08:11:47.000Z</time></trkpt>
        <trkpt lat="29.558934" lon="103.344035"><ele>2045.0659</ele><time>2026-07-21T08:11:49.000Z</time></trkpt>
        <trkpt lat="29.55894" lon="103.344055"><ele>2044.827</ele><time>2026-07-21T08:11:51.000Z</time></trkpt>
        <trkpt lat="29.558946" lon="103.344075"><ele>2044.8757</ele><time>2026-07-21T08:11:53.000Z</time></trkpt>
        <trkpt lat="29.558952" lon="103.344096"><ele>2045.2767</ele><time>2026-07-21T08:11:55.000Z</time></trkpt>
        <trkpt lat="29.558955" lon="103.344117"><ele>2045.0067</ele><time>2026-07-21T08:11:57.000Z</time></trkpt>
        <trkpt lat="29.558955" lon="103.344132"><ele>2045.2009</ele><time>2026-07-21T08:11:59.000Z</time></trkpt>
        <trkpt lat="29.558951" lon="103.344143"><ele>2045.0963</ele><time>2026-07-21T08:12:01.000Z</time></trkpt>
        <trkpt lat="29.558948" lon="103.344142"><ele>2044.5787</ele><time>2026-07-21T08:12:03.000Z</time></trkpt>
        <trkpt lat="29.558917" lon="103.344128"><ele>2046.4388</ele><time>2026-07-21T08:12:07.000Z</time></trkpt>
        <trkpt lat="29.558905" lon="103.344117"><ele>2046.1964</ele><time>2026-07-21T08:12:09.000Z</time></trkpt>
        <trkpt lat="29.558894" lon="103.344104"><ele>2045.7246</ele><time>2026-07-21T08:12:11.000Z</time></trkpt>
        <trkpt lat="29.558886" lon="103.344093"><ele>2046.6348</ele><time>2026-07-21T08:12:13.000Z</time></trkpt>
        <trkpt lat="29.558878" lon="103.34408"><ele>2046.7017</ele><time>2026-07-21T08:12:15.000Z</time></trkpt>
        <trkpt lat="29.558876" lon="103.34407"><ele>2047.174</ele><time>2026-07-21T08:12:17.000Z</time></trkpt>
        <trkpt lat="29.558895" lon="103.344151"><ele>2051.1592</ele><time>2026-07-21T08:12:31.000Z</time></trkpt>
        <trkpt lat="29.558894" lon="103.344151"><ele>2051.285</ele><time>2026-07-21T08:12:33.000Z</time></trkpt>
        <trkpt lat="29.558894" lon="103.344154"><ele>2051.2168</ele><time>2026-07-21T08:12:35.000Z</time></trkpt>
        <trkpt lat="29.558882" lon="103.344196"><ele>2052.0098</ele><time>2026-07-21T08:12:41.000Z</time></trkpt>
        <trkpt lat="29.558881" lon="103.344207"><ele>2053.0283</ele><time>2026-07-21T08:12:43.000Z</time></trkpt>
        <trkpt lat="29.558882" lon="103.344219"><ele>2053.4053</ele><time>2026-07-21T08:12:45.000Z</time></trkpt>
        <trkpt lat="29.558884" lon="103.34423"><ele>2053.4653</ele><time>2026-07-21T08:12:47.000Z</time></trkpt>
        <trkpt lat="29.558884" lon="103.344243"><ele>2054.2898</ele><time>2026-07-21T08:12:53.000Z</time></trkpt>
        <trkpt lat="29.558883" lon="103.34426"><ele>2054.4136</ele><time>2026-07-21T08:12:57.000Z</time></trkpt>
        <trkpt lat="29.558881" lon="103.344268"><ele>2054.5017</ele><time>2026-07-21T08:12:59.000Z</time></trkpt>
        <trkpt lat="29.558881" lon="103.344278"><ele>2055.3843</ele><time>2026-07-21T08:13:01.000Z</time></trkpt>
        <trkpt lat="29.558879" lon="103.344301"><ele>2055.812</ele><time>2026-07-21T08:13:05.000Z</time></trkpt>
        <trkpt lat="29.558879" lon="103.344305"><ele>2055.5774</ele><time>2026-07-21T08:13:07.000Z</time></trkpt>
        <trkpt lat="29.558875" lon="103.344314"><ele>2056.0986</ele><time>2026-07-21T08:13:15.000Z</time></trkpt>
        <trkpt lat="29.558865" lon="103.344341"><ele>2056.781</ele><time>2026-07-21T08:13:19.000Z</time></trkpt>
        <trkpt lat="29.558865" lon="103.344341"><ele>2056.7441</ele><time>2026-07-21T08:13:21.000Z</time></trkpt>
        <trkpt lat="29.558862" lon="103.34434"><ele>2057.084</ele><time>2026-07-21T08:13:29.000Z</time></trkpt>
        <trkpt lat="29.558832" lon="103.344332"><ele>2056.6172</ele><time>2026-07-21T08:13:49.000Z</time></trkpt>
        <trkpt lat="29.558799" lon="103.344234"><ele>2058.8774</ele><time>2026-07-21T08:14:04.000Z</time></trkpt>
        <trkpt lat="29.558784" lon="103.344218"><ele>2059.4026</ele><time>2026-07-21T08:14:16.000Z</time></trkpt>
        <trkpt lat="29.558775" lon="103.34421"><ele>2059.957</ele><time>2026-07-21T08:14:18.000Z</time></trkpt>
        <trkpt lat="29.558774" lon="103.34421"><ele>2060.4321</ele><time>2026-07-21T08:14:20.000Z</time></trkpt>
        <trkpt lat="29.558752" lon="103.344211"><ele>2061.9546</ele><time>2026-07-21T08:14:26.000Z</time></trkpt>
        <trkpt lat="29.558738" lon="103.344212"><ele>2062.4014</ele><time>2026-07-21T08:14:28.000Z</time></trkpt>
        <trkpt lat="29.558737" lon="103.344212"><ele>2062.6978</ele><time>2026-07-21T08:14:30.000Z</time></trkpt>
        <trkpt lat="29.558719" lon="103.344213"><ele>2065.1401</ele><time>2026-07-21T08:14:50.000Z</time></trkpt>
        <trkpt lat="29.558696" lon="103.344213"><ele>2064.745</ele><time>2026-07-21T08:14:52.000Z</time></trkpt>
        <trkpt lat="29.558677" lon="103.344214"><ele>2065.01</ele><time>2026-07-21T08:14:54.000Z</time></trkpt>
        <trkpt lat="29.558677" lon="103.344215"><ele>2064.7986</ele><time>2026-07-21T08:14:56.000Z</time></trkpt>
        <trkpt lat="29.558697" lon="103.344177"><ele>2059.906</ele><time>2026-07-21T08:15:26.000Z</time></trkpt>
        <trkpt lat="29.558675" lon="103.344172"><ele>2059.5884</ele><time>2026-07-21T08:15:28.000Z</time></trkpt>
        <trkpt lat="29.558652" lon="103.344169"><ele>2059.5427</ele><time>2026-07-21T08:15:30.000Z</time></trkpt>
        <trkpt lat="29.558651" lon="103.344169"><ele>2060.5872</ele><time>2026-07-21T08:15:32.000Z</time></trkpt>
        <trkpt lat="29.558641" lon="103.344176"><ele>2061.2751</ele><time>2026-07-21T08:15:36.000Z</time></trkpt>
        <trkpt lat="29.558621" lon="103.344191"><ele>2063.097</ele><time>2026-07-21T08:15:40.000Z</time></trkpt>
        <trkpt lat="29.55862" lon="103.344191"><ele>2063.9976</ele><time>2026-07-21T08:15:42.000Z</time></trkpt>
        <trkpt lat="29.558611" lon="103.344188"><ele>2065.5388</ele><time>2026-07-21T08:15:46.000Z</time></trkpt>
        <trkpt lat="29.558576" lon="103.34418"><ele>2064.9807</ele><time>2026-07-21T08:15:50.000Z</time></trkpt>
        <trkpt lat="29.558576" lon="103.34418"><ele>2065.5007</ele><time>2026-07-21T08:15:52.000Z</time></trkpt>
        <trkpt lat="29.558577" lon="103.34418"><ele>2064.9219</ele><time>2026-07-21T08:15:54.000Z</time></trkpt>
        <trkpt lat="29.558548" lon="103.344166"><ele>2065.1436</ele><time>2026-07-21T08:16:06.000Z</time></trkpt>
        <trkpt lat="29.558542" lon="103.344164"><ele>2065.846</ele><time>2026-07-21T08:16:08.000Z</time></trkpt>
        <trkpt lat="29.558534" lon="103.34416"><ele>2066.4104</ele><time>2026-07-21T08:16:10.000Z</time></trkpt>
        <trkpt lat="29.558518" lon="103.344153"><ele>2067.0742</ele><time>2026-07-21T08:16:14.000Z</time></trkpt>
        <trkpt lat="29.558511" lon="103.34415"><ele>2068.0325</ele><time>2026-07-21T08:16:16.000Z</time></trkpt>
        <trkpt lat="29.558503" lon="103.344146"><ele>2067.8123</ele><time>2026-07-21T08:16:18.000Z</time></trkpt>
        <trkpt lat="29.558487" lon="103.344137"><ele>2068.2427</ele><time>2026-07-21T08:16:22.000Z</time></trkpt>
        <trkpt lat="29.558481" lon="103.344131"><ele>2069.0647</ele><time>2026-07-21T08:16:24.000Z</time></trkpt>
        <trkpt lat="29.558476" lon="103.344124"><ele>2069.708</ele><time>2026-07-21T08:16:26.000Z</time></trkpt>
        <trkpt lat="29.558465" lon="103.34411"><ele>2070.6992</ele><time>2026-07-21T08:16:30.000Z</time></trkpt>
        <trkpt lat="29.55846" lon="103.344109"><ele>2070.9016</ele><time>2026-07-21T08:16:34.000Z</time></trkpt>
        <trkpt lat="29.558449" lon="103.34411"><ele>2071.1794</ele><time>2026-07-21T08:16:40.000Z</time></trkpt>
        <trkpt lat="29.558432" lon="103.34411"><ele>2071.513</ele><time>2026-07-21T08:16:44.000Z</time></trkpt>
        <trkpt lat="29.558428" lon="103.344107"><ele>2071.8528</ele><time>2026-07-21T08:16:46.000Z</time></trkpt>
        <trkpt lat="29.558411" lon="103.344107"><ele>2072.439</ele><time>2026-07-21T08:16:48.000Z</time></trkpt>
        <trkpt lat="29.558404" lon="103.344112"><ele>2072.0586</ele><time>2026-07-21T08:16:54.000Z</time></trkpt>
        <trkpt lat="29.558391" lon="103.344119"><ele>2072.1907</ele><time>2026-07-21T08:16:56.000Z</time></trkpt>
        <trkpt lat="29.558378" lon="103.344123"><ele>2072.6057</ele><time>2026-07-21T08:16:58.000Z</time></trkpt>
        <trkpt lat="29.558365" lon="103.344126"><ele>2072.4138</ele><time>2026-07-21T08:17:00.000Z</time></trkpt>
        <trkpt lat="29.558353" lon="103.344126"><ele>2072.8145</ele><time>2026-07-21T08:17:02.000Z</time></trkpt>
        <trkpt lat="29.558342" lon="103.344121"><ele>2072.924</ele><time>2026-07-21T08:17:04.000Z</time></trkpt>
        <trkpt lat="29.558339" lon="103.344116"><ele>2073.625</ele><time>2026-07-21T08:17:06.000Z</time></trkpt>
        <trkpt lat="29.558331" lon="103.344098"><ele>2075.0396</ele><time>2026-07-21T08:17:10.000Z</time></trkpt>
        <trkpt lat="29.558327" lon="103.344088"><ele>2075.0308</ele><time>2026-07-21T08:17:12.000Z</time></trkpt>
        <trkpt lat="29.558323" lon="103.344086"><ele>2075.531</ele><time>2026-07-21T08:17:14.000Z</time></trkpt>
        <trkpt lat="29.558308" lon="103.344069"><ele>2075.1646</ele><time>2026-07-21T08:17:26.000Z</time></trkpt>
        <trkpt lat="29.558281" lon="103.344039"><ele>2074.3208</ele><time>2026-07-21T08:17:28.000Z</time></trkpt>
        <trkpt lat="29.558279" lon="103.344038"><ele>2074.1843</ele><time>2026-07-21T08:17:30.000Z</time></trkpt>
        <trkpt lat="29.558265" lon="103.344034"><ele>2073.8809</ele><time>2026-07-21T08:17:32.000Z</time></trkpt>
        <trkpt lat="29.558229" lon="103.344023"><ele>2073.4438</ele><time>2026-07-21T08:17:34.000Z</time></trkpt>
        <trkpt lat="29.558193" lon="103.344014"><ele>2072.9102</ele><time>2026-07-21T08:17:36.000Z</time></trkpt>
        <trkpt lat="29.558163" lon="103.344008"><ele>2072.2532</ele><time>2026-07-21T08:17:38.000Z</time></trkpt>
        <trkpt lat="29.558129" lon="103.344001"><ele>2071.4246</ele><time>2026-07-21T08:17:40.000Z</time></trkpt>
        <trkpt lat="29.558061" lon="103.344052"><ele>2070.7598</ele><time>2026-07-21T08:17:42.000Z</time></trkpt>
        <trkpt lat="29.558062" lon="103.344053"><ele>2069.6267</ele><time>2026-07-21T08:17:46.000Z</time></trkpt>
        <trkpt lat="29.558126" lon="103.344094"><ele>2069.5037</ele><time>2026-07-21T08:17:52.000Z</time></trkpt>
      </trkseg>
      <trkseg>
        <trkpt lat="29.557655" lon="103.34405"><ele>2059.1038</ele><time>2026-07-21T08:18:51.000Z</time></trkpt>
        <trkpt lat="29.557597" lon="103.344035"><ele>2064.502</ele><time>2026-07-21T08:19:01.000Z</time></trkpt>
        <trkpt lat="29.557665" lon="103.343984"><ele>2066.6882</ele><time>2026-07-21T08:19:07.000Z</time></trkpt>
        <trkpt lat="29.557665" lon="103.343984"><ele>2067.3445</ele><time>2026-07-21T08:19:09.000Z</time></trkpt>
        <trkpt lat="29.557698" lon="103.343985"><ele>2067.7627</ele><time>2026-07-21T08:19:12.000Z</time></trkpt>
        <trkpt lat="29.558014" lon="103.344039"><ele>2067.5886</ele><time>2026-07-21T08:20:05.000Z</time></trkpt>
        <trkpt lat="29.557852" lon="103.343988"><ele>2069.0337</ele><time>2026-07-21T08:20:17.000Z</time></trkpt>
        <trkpt lat="29.557835" lon="103.343983"><ele>2069.0273</ele><time>2026-07-21T08:20:23.000Z</time></trkpt>
        <trkpt lat="29.557858" lon="103.343889"><ele>2065.2334</ele><time>2026-07-21T08:20:39.000Z</time></trkpt>
        <trkpt lat="29.55777" lon="103.343898"><ele>2077.6157</ele><time>2026-07-21T08:20:47.000Z</time></trkpt>
        <trkpt lat="29.557608" lon="103.343915"><ele>2078.3645</ele><time>2026-07-21T08:20:49.000Z</time></trkpt>
        <trkpt lat="29.557603" lon="103.343915"><ele>2078.422</ele><time>2026-07-21T08:20:51.000Z</time></trkpt>
        <trkpt lat="29.557602" lon="103.343915"><ele>2078.498</ele><time>2026-07-21T08:20:53.000Z</time></trkpt>
        <trkpt lat="29.557578" lon="103.343899"><ele>2078.548</ele><time>2026-07-21T08:20:59.000Z</time></trkpt>
        <trkpt lat="29.557566" lon="103.34389"><ele>2078.2327</ele><time>2026-07-21T08:21:01.000Z</time></trkpt>
        <trkpt lat="29.557555" lon="103.343882"><ele>2077.7844</ele><time>2026-07-21T08:21:03.000Z</time></trkpt>
        <trkpt lat="29.557546" lon="103.343875"><ele>2077.341</ele><time>2026-07-21T08:21:05.000Z</time></trkpt>
        <trkpt lat="29.557537" lon="103.343869"><ele>2077.1858</ele><time>2026-07-21T08:21:07.000Z</time></trkpt>
        <trkpt lat="29.55753" lon="103.343861"><ele>2076.7163</ele><time>2026-07-21T08:21:09.000Z</time></trkpt>
        <trkpt lat="29.557523" lon="103.343851"><ele>2076.7124</ele><time>2026-07-21T08:21:11.000Z</time></trkpt>
        <trkpt lat="29.557514" lon="103.34384"><ele>2076.5605</ele><time>2026-07-21T08:21:13.000Z</time></trkpt>
        <trkpt lat="29.557506" lon="103.343828"><ele>2076.3347</ele><time>2026-07-21T08:21:15.000Z</time></trkpt>
        <trkpt lat="29.557499" lon="103.343815"><ele>2076.3157</ele><time>2026-07-21T08:21:17.000Z</time></trkpt>
        <trkpt lat="29.557491" lon="103.3438"><ele>2076.2847</ele><time>2026-07-21T08:21:19.000Z</time></trkpt>
        <trkpt lat="29.557485" lon="103.343783"><ele>2076.3093</ele><time>2026-07-21T08:21:21.000Z</time></trkpt>
        <trkpt lat="29.557479" lon="103.343765"><ele>2076.1147</ele><time>2026-07-21T08:21:23.000Z</time></trkpt>
        <trkpt lat="29.557474" lon="103.343747"><ele>2076.103</ele><time>2026-07-21T08:21:25.000Z</time></trkpt>
        <trkpt lat="29.55747" lon="103.343731"><ele>2075.678</ele><time>2026-07-21T08:21:27.000Z</time></trkpt>
        <trkpt lat="29.557465" lon="103.343715"><ele>2075.8074</ele><time>2026-07-21T08:21:29.000Z</time></trkpt>
        <trkpt lat="29.557458" lon="103.343701"><ele>2075.234</ele><time>2026-07-21T08:21:31.000Z</time></trkpt>
        <trkpt lat="29.557449" lon="103.343691"><ele>2075.2285</ele><time>2026-07-21T08:21:33.000Z</time></trkpt>
        <trkpt lat="29.557437" lon="103.343683"><ele>2074.3188</ele><time>2026-07-21T08:21:35.000Z</time></trkpt>
        <trkpt lat="29.557426" lon="103.343677"><ele>2074.008</ele><time>2026-07-21T08:21:37.000Z</time></trkpt>
        <trkpt lat="29.557417" lon="103.343672"><ele>2073.1475</ele><time>2026-07-21T08:21:39.000Z</time></trkpt>
        <trkpt lat="29.557409" lon="103.343666"><ele>2073.1147</ele><time>2026-07-21T08:21:41.000Z</time></trkpt>
        <trkpt lat="29.557398" lon="103.343662"><ele>2073.1953</ele><time>2026-07-21T08:21:43.000Z</time></trkpt>
        <trkpt lat="29.557387" lon="103.343661"><ele>2073.1309</ele><time>2026-07-21T08:21:45.000Z</time></trkpt>
        <trkpt lat="29.557375" lon="103.343664"><ele>2073.271</ele><time>2026-07-21T08:21:47.000Z</time></trkpt>
        <trkpt lat="29.557364" lon="103.34367"><ele>2073.794</ele><time>2026-07-21T08:21:49.000Z</time></trkpt>
        <trkpt lat="29.557353" lon="103.343681"><ele>2073.5908</ele><time>2026-07-21T08:21:51.000Z</time></trkpt>
        <trkpt lat="29.557346" lon="103.343694"><ele>2073.591</ele><time>2026-07-21T08:21:53.000Z</time></trkpt>
        <trkpt lat="29.557341" lon="103.343707"><ele>2073.051</ele><time>2026-07-21T08:21:55.000Z</time></trkpt>
        <trkpt lat="29.557341" lon="103.343716"><ele>2073.5222</ele><time>2026-07-21T08:21:57.000Z</time></trkpt>
        <trkpt lat="29.557336" lon="103.343728"><ele>2074.0623</ele><time>2026-07-21T08:22:01.000Z</time></trkpt>
        <trkpt lat="29.557346" lon="103.343671"><ele>2074.1387</ele><time>2026-07-21T08:22:13.000Z</time></trkpt>
        <trkpt lat="29.557348" lon="103.34366"><ele>2074.7107</ele><time>2026-07-21T08:22:15.000Z</time></trkpt>
        <trkpt lat="29.557348" lon="103.34366"><ele>2075.1113</ele><time>2026-07-21T08:22:17.000Z</time></trkpt>
        <trkpt lat="29.557307" lon="103.343652"><ele>2076.942</ele><time>2026-07-21T08:22:38.000Z</time></trkpt>
        <trkpt lat="29.557307" lon="103.343652"><ele>2077.95</ele><time>2026-07-21T08:22:54.000Z</time></trkpt>
        <trkpt lat="29.557307" lon="103.343652"><ele>2078.6206</ele><time>2026-07-21T08:23:10.000Z</time></trkpt>
        <trkpt lat="29.557276" lon="103.343646"><ele>2080.4033</ele><time>2026-07-21T08:23:25.000Z</time></trkpt>
        <trkpt lat="29.557271" lon="103.343645"><ele>2081.6523</ele><time>2026-07-21T08:23:40.000Z</time></trkpt>
        <trkpt lat="29.557238" lon="103.34364"><ele>2084.4731</ele><time>2026-07-21T08:23:55.000Z</time></trkpt>
        <trkpt lat="29.557228" lon="103.343632"><ele>2084.8599</ele><time>2026-07-21T08:24:10.000Z</time></trkpt>
        <trkpt lat="29.557208" lon="103.343628"><ele>2084.533</ele><time>2026-07-21T08:24:25.000Z</time></trkpt>
        <trkpt lat="29.557162" lon="103.343616"><ele>2087.0017</ele><time>2026-07-21T08:24:40.000Z</time></trkpt>
        <trkpt lat="29.557179" lon="103.343581"><ele>2088.846</ele><time>2026-07-21T08:24:49.000Z</time></trkpt>
        <trkpt lat="29.557179" lon="103.343581"><ele>2087.9062</ele><time>2026-07-21T08:24:51.000Z</time></trkpt>
        <trkpt lat="29.557179" lon="103.343581"><ele>2088.2317</ele><time>2026-07-21T08:24:53.000Z</time></trkpt>
        <trkpt lat="29.557155" lon="103.343602"><ele>2088.8186</ele><time>2026-07-21T08:25:05.000Z</time></trkpt>
        <trkpt lat="29.557148" lon="103.343606"><ele>2088.1248</ele><time>2026-07-21T08:25:07.000Z</time></trkpt>
        <trkpt lat="29.557141" lon="103.343608"><ele>2087.654</ele><time>2026-07-21T08:25:09.000Z</time></trkpt>
        <trkpt lat="29.557125" lon="103.343613"><ele>2087.8118</ele><time>2026-07-21T08:25:15.000Z</time></trkpt>
        <trkpt lat="29.557119" lon="103.343616"><ele>2087.8809</ele><time>2026-07-21T08:25:21.000Z</time></trkpt>
        <trkpt lat="29.557111" lon="103.343623"><ele>2088.0588</ele><time>2026-07-21T08:25:25.000Z</time></trkpt>
        <trkpt lat="29.557096" lon="103.343632"><ele>2089.3586</ele><time>2026-07-21T08:25:31.000Z</time></trkpt>
        <trkpt lat="29.557084" lon="103.34364"><ele>2089.5767</ele><time>2026-07-21T08:25:33.000Z</time></trkpt>
        <trkpt lat="29.557083" lon="103.343641"><ele>2089.846</ele><time>2026-07-21T08:25:35.000Z</time></trkpt>
        <trkpt lat="29.557061" lon="103.343653"><ele>2093.2527</ele><time>2026-07-21T08:25:45.000Z</time></trkpt>
        <trkpt lat="29.557047" lon="103.343661"><ele>2093.5684</ele><time>2026-07-21T08:25:47.000Z</time></trkpt>
        <trkpt lat="29.557047" lon="103.343661"><ele>2093.6116</ele><time>2026-07-21T08:25:49.000Z</time></trkpt>
        <trkpt lat="29.557034" lon="103.343667"><ele>2094.6018</ele><time>2026-07-21T08:25:55.000Z</time></trkpt>
        <trkpt lat="29.557012" lon="103.343677"><ele>2095.2517</ele><time>2026-07-21T08:25:59.000Z</time></trkpt>
        <trkpt lat="29.557001" lon="103.343683"><ele>2095.01</ele><time>2026-07-21T08:26:01.000Z</time></trkpt>
        <trkpt lat="29.55699" lon="103.34369"><ele>2095.0144</ele><time>2026-07-21T08:26:03.000Z</time></trkpt>
        <trkpt lat="29.556978" lon="103.343696"><ele>2094.9993</ele><time>2026-07-21T08:26:05.000Z</time></trkpt>
        <trkpt lat="29.556965" lon="103.3437"><ele>2095.6143</ele><time>2026-07-21T08:26:07.000Z</time></trkpt>
        <trkpt lat="29.556957" lon="103.343704"><ele>2095.0896</ele><time>2026-07-21T08:26:09.000Z</time></trkpt>
        <trkpt lat="29.556949" lon="103.343707"><ele>2095.1367</ele><time>2026-07-21T08:26:11.000Z</time></trkpt>
        <trkpt lat="29.556937" lon="103.343712"><ele>2095.5413</ele><time>2026-07-21T08:26:13.000Z</time></trkpt>
        <trkpt lat="29.556925" lon="103.343718"><ele>2096.6724</ele><time>2026-07-21T08:26:15.000Z</time></trkpt>
        <trkpt lat="29.556912" lon="103.343725"><ele>2097.1206</ele><time>2026-07-21T08:26:17.000Z</time></trkpt>
        <trkpt lat="29.556902" lon="103.34373"><ele>2097.5786</ele><time>2026-07-21T08:26:19.000Z</time></trkpt>
        <trkpt lat="29.556893" lon="103.343735"><ele>2097.4211</ele><time>2026-07-21T08:26:21.000Z</time></trkpt>
        <trkpt lat="29.55688" lon="103.343742"><ele>2096.7961</ele><time>2026-07-21T08:26:23.000Z</time></trkpt>
        <trkpt lat="29.556871" lon="103.343746"><ele>2096.6096</ele><time>2026-07-21T08:26:25.000Z</time></trkpt>
        <trkpt lat="29.556865" lon="103.343751"><ele>2097.3281</ele><time>2026-07-21T08:26:27.000Z</time></trkpt>
        <trkpt lat="29.55685" lon="103.343758"><ele>2097.159</ele><time>2026-07-21T08:26:31.000Z</time></trkpt>
        <trkpt lat="29.556837" lon="103.343762"><ele>2098.3367</ele><time>2026-07-21T08:26:35.000Z</time></trkpt>
        <trkpt lat="29.556832" lon="103.343759"><ele>2099.8406</ele><time>2026-07-21T08:26:37.000Z</time></trkpt>
        <trkpt lat="29.556818" lon="103.343753"><ele>2100.7974</ele><time>2026-07-21T08:26:43.000Z</time></trkpt>
        <trkpt lat="29.556787" lon="103.34374"><ele>2101.526</ele><time>2026-07-21T08:26:47.000Z</time></trkpt>
        <trkpt lat="29.556787" lon="103.34374"><ele>2102.7573</ele><time>2026-07-21T08:26:49.000Z</time></trkpt>
        <trkpt lat="29.556786" lon="103.34374"><ele>2102.8137</ele><time>2026-07-21T08:26:51.000Z</time></trkpt>
        <trkpt lat="29.556756" lon="103.343732"><ele>2103.9978</ele><time>2026-07-21T08:26:57.000Z</time></trkpt>
        <trkpt lat="29.556744" lon="103.343728"><ele>2104.293</ele><time>2026-07-21T08:26:59.000Z</time></trkpt>
        <trkpt lat="29.556734" lon="103.343726"><ele>2105.0132</ele><time>2026-07-21T08:27:01.000Z</time></trkpt>
        <trkpt lat="29.556724" lon="103.343726"><ele>2105.4805</ele><time>2026-07-21T08:27:03.000Z</time></trkpt>
        <trkpt lat="29.556708" lon="103.343728"><ele>2105.7917</ele><time>2026-07-21T08:27:07.000Z</time></trkpt>
        <trkpt lat="29.556701" lon="103.343731"><ele>2106.5903</ele><time>2026-07-21T08:27:09.000Z</time></trkpt>
        <trkpt lat="29.556697" lon="103.343736"><ele>2107.264</ele><time>2026-07-21T08:27:11.000Z</time></trkpt>
        <trkpt lat="29.55668" lon="103.343755"><ele>2106.0132</ele><time>2026-07-21T08:28:50.000Z</time></trkpt>
        <trkpt lat="29.55668" lon="103.343755"><ele>2106.5942</ele><time>2026-07-21T08:28:54.000Z</time></trkpt>
        <trkpt lat="29.556669" lon="103.343765"><ele>2107.4143</ele><time>2026-07-21T08:28:58.000Z</time></trkpt>
        <trkpt lat="29.556644" lon="103.343786"><ele>2108.9358</ele><time>2026-07-21T08:29:02.000Z</time></trkpt>
        <trkpt lat="29.556644" lon="103.343786"><ele>2108.9812</ele><time>2026-07-21T08:29:04.000Z</time></trkpt>
        <trkpt lat="29.556644" lon="103.343787"><ele>2109.167</ele><time>2026-07-21T08:29:06.000Z</time></trkpt>
        <trkpt lat="29.556622" lon="103.343819"><ele>2110.8806</ele><time>2026-07-21T08:29:14.000Z</time></trkpt>
        <trkpt lat="29.556612" lon="103.343833"><ele>2111.0728</ele><time>2026-07-21T08:29:16.000Z</time></trkpt>
        <trkpt lat="29.556612" lon="103.343833"><ele>2112.0088</ele><time>2026-07-21T08:29:18.000Z</time></trkpt>
        <trkpt lat="29.556601" lon="103.343846"><ele>2112.8499</ele><time>2026-07-21T08:29:24.000Z</time></trkpt>
        <trkpt lat="29.556585" lon="103.343866"><ele>2114.392</ele><time>2026-07-21T08:29:28.000Z</time></trkpt>
        <trkpt lat="29.556585" lon="103.343866"><ele>2115.367</ele><time>2026-07-21T08:29:30.000Z</time></trkpt>
        <trkpt lat="29.556584" lon="103.34387"><ele>2115.458</ele><time>2026-07-21T08:29:36.000Z</time></trkpt>
        <trkpt lat="29.556579" lon="103.343902"><ele>2120.1958</ele><time>2026-07-21T08:30:21.000Z</time></trkpt>
        <trkpt lat="29.556581" lon="103.343907"><ele>2120.1787</ele><time>2026-07-21T08:30:23.000Z</time></trkpt>
        <trkpt lat="29.556581" lon="103.343915"><ele>2120.5173</ele><time>2026-07-21T08:30:25.000Z</time></trkpt>
        <trkpt lat="29.556584" lon="103.343941"><ele>2120.3357</ele><time>2026-07-21T08:30:29.000Z</time></trkpt>
        <trkpt lat="29.556584" lon="103.343943"><ele>2121.0166</ele><time>2026-07-21T08:30:33.000Z</time></trkpt>
        <trkpt lat="29.556583" lon="103.34395"><ele>2121.807</ele><time>2026-07-21T08:30:35.000Z</time></trkpt>
        <trkpt lat="29.556577" lon="103.343981"><ele>2123.0273</ele><time>2026-07-21T08:30:39.000Z</time></trkpt>
        <trkpt lat="29.556574" lon="103.343991"><ele>2123.4705</ele><time>2026-07-21T08:30:41.000Z</time></trkpt>
        <trkpt lat="29.55657" lon="103.344001"><ele>2123.924</ele><time>2026-07-21T08:30:43.000Z</time></trkpt>
        <trkpt lat="29.556565" lon="103.344014"><ele>2125.135</ele><time>2026-07-21T08:30:47.000Z</time></trkpt>
        <trkpt lat="29.556558" lon="103.344018"><ele>2126.4426</ele><time>2026-07-21T08:30:51.000Z</time></trkpt>
        <trkpt lat="29.556547" lon="103.34402"><ele>2126.7202</ele><time>2026-07-21T08:31:15.000Z</time></trkpt>
        <trkpt lat="29.556542" lon="103.344028"><ele>2126.6934</ele><time>2026-07-21T08:31:32.000Z</time></trkpt>
        <trkpt lat="29.556541" lon="103.34404"><ele>2127.0588</ele><time>2026-07-21T08:31:42.000Z</time></trkpt>
        <trkpt lat="29.55654" lon="103.344062"><ele>2128.1975</ele><time>2026-07-21T08:31:48.000Z</time></trkpt>
        <trkpt lat="29.55654" lon="103.34407"><ele>2128.0393</ele><time>2026-07-21T08:31:50.000Z</time></trkpt>
        <trkpt lat="29.556537" lon="103.344078"><ele>2128.9292</ele><time>2026-07-21T08:31:52.000Z</time></trkpt>
        <trkpt lat="29.556527" lon="103.344103"><ele>2129.2954</ele><time>2026-07-21T08:31:56.000Z</time></trkpt>
        <trkpt lat="29.556521" lon="103.344113"><ele>2130.5684</ele><time>2026-07-21T08:31:58.000Z</time></trkpt>
        <trkpt lat="29.556511" lon="103.344126"><ele>2130.6436</ele><time>2026-07-21T08:32:00.000Z</time></trkpt>
        <trkpt lat="29.556503" lon="103.344136"><ele>2131.0762</ele><time>2026-07-21T08:32:02.000Z</time></trkpt>
        <trkpt lat="29.556494" lon="103.344146"><ele>2131.9238</ele><time>2026-07-21T08:32:04.000Z</time></trkpt>
        <trkpt lat="29.556486" lon="103.344154"><ele>2132.255</ele><time>2026-07-21T08:32:06.000Z</time></trkpt>
        <trkpt lat="29.556477" lon="103.344162"><ele>2132.4097</ele><time>2026-07-21T08:32:08.000Z</time></trkpt>
        <trkpt lat="29.556469" lon="103.344169"><ele>2132.7278</ele><time>2026-07-21T08:32:10.000Z</time></trkpt>
        <trkpt lat="29.556462" lon="103.344177"><ele>2133.1592</ele><time>2026-07-21T08:32:12.000Z</time></trkpt>
        <trkpt lat="29.55645" lon="103.344192"><ele>2133.877</ele><time>2026-07-21T08:32:16.000Z</time></trkpt>
        <trkpt lat="29.556444" lon="103.3442"><ele>2134.0508</ele><time>2026-07-21T08:32:18.000Z</time></trkpt>
        <trkpt lat="29.556436" lon="103.344208"><ele>2133.622</ele><time>2026-07-21T08:32:20.000Z</time></trkpt>
        <trkpt lat="29.556427" lon="103.344215"><ele>2133.4836</ele><time>2026-07-21T08:32:22.000Z</time></trkpt>
        <trkpt lat="29.556418" lon="103.344223"><ele>2133.788</ele><time>2026-07-21T08:32:24.000Z</time></trkpt>
        <trkpt lat="29.556408" lon="103.34423"><ele>2133.844</ele><time>2026-07-21T08:32:26.000Z</time></trkpt>
        <trkpt lat="29.556398" lon="103.344236"><ele>2134.6616</ele><time>2026-07-21T08:32:28.000Z</time></trkpt>
        <trkpt lat="29.55639" lon="103.344239"><ele>2135.369</ele><time>2026-07-21T08:32:30.000Z</time></trkpt>
        <trkpt lat="29.55637" lon="103.344247"><ele>2135.65</ele><time>2026-07-21T08:32:34.000Z</time></trkpt>
        <trkpt lat="29.556362" lon="103.344251"><ele>2136.142</ele><time>2026-07-21T08:32:36.000Z</time></trkpt>
        <trkpt lat="29.556352" lon="103.344253"><ele>2135.9194</ele><time>2026-07-21T08:32:38.000Z</time></trkpt>
        <trkpt lat="29.556333" lon="103.344255"><ele>2137.1477</ele><time>2026-07-21T08:32:42.000Z</time></trkpt>
        <trkpt lat="29.556323" lon="103.344257"><ele>2138.1326</ele><time>2026-07-21T08:32:44.000Z</time></trkpt>
        <trkpt lat="29.556315" lon="103.344259"><ele>2137.837</ele><time>2026-07-21T08:32:46.000Z</time></trkpt>
        <trkpt lat="29.5563" lon="103.344265"><ele>2138.3044</ele><time>2026-07-21T08:32:50.000Z</time></trkpt>
        <trkpt lat="29.556295" lon="103.34427"><ele>2138.5603</ele><time>2026-07-21T08:32:52.000Z</time></trkpt>
        <trkpt lat="29.556289" lon="103.34428"><ele>2139.5698</ele><time>2026-07-21T08:32:56.000Z</time></trkpt>
        <trkpt lat="29.556283" lon="103.344293"><ele>2140.8262</ele><time>2026-07-21T08:33:00.000Z</time></trkpt>
        <trkpt lat="29.556281" lon="103.344302"><ele>2141.1309</ele><time>2026-07-21T08:33:02.000Z</time></trkpt>
        <trkpt lat="29.556275" lon="103.344317"><ele>2141.8076</ele><time>2026-07-21T08:33:06.000Z</time></trkpt>
        <trkpt lat="29.55627" lon="103.344321"><ele>2141.8328</ele><time>2026-07-21T08:33:08.000Z</time></trkpt>
        <trkpt lat="29.556251" lon="103.344334"><ele>2141.1812</ele><time>2026-07-21T08:33:10.000Z</time></trkpt>
        <trkpt lat="29.55625" lon="103.344336"><ele>2142.557</ele><time>2026-07-21T08:33:14.000Z</time></trkpt>
        <trkpt lat="29.556243" lon="103.344353"><ele>2143.324</ele><time>2026-07-21T08:33:18.000Z</time></trkpt>
        <trkpt lat="29.556238" lon="103.344367"><ele>2144.058</ele><time>2026-07-21T08:33:20.000Z</time></trkpt>
        <trkpt lat="29.556232" lon="103.344378"><ele>2144.9202</ele><time>2026-07-21T08:33:22.000Z</time></trkpt>
        <trkpt lat="29.556228" lon="103.344386"><ele>2144.3848</ele><time>2026-07-21T08:33:24.000Z</time></trkpt>
        <trkpt lat="29.556218" lon="103.344396"><ele>2144.228</ele><time>2026-07-21T08:33:28.000Z</time></trkpt>
        <trkpt lat="29.556197" lon="103.344417"><ele>2145.4856</ele><time>2026-07-21T08:33:32.000Z</time></trkpt>
        <trkpt lat="29.556197" lon="103.344417"><ele>2146.004</ele><time>2026-07-21T08:33:34.000Z</time></trkpt>
        <trkpt lat="29.556193" lon="103.344422"><ele>2146.7676</ele><time>2026-07-21T08:33:38.000Z</time></trkpt>
        <trkpt lat="29.556177" lon="103.344443"><ele>2149.392</ele><time>2026-07-21T08:33:42.000Z</time></trkpt>
        <trkpt lat="29.55617" lon="103.344452"><ele>2150.1685</ele><time>2026-07-21T08:33:44.000Z</time></trkpt>
        <trkpt lat="29.55617" lon="103.344452"><ele>2150.296</ele><time>2026-07-21T08:33:46.000Z</time></trkpt>
        <trkpt lat="29.556151" lon="103.344465"><ele>2150.1582</ele><time>2026-07-21T08:33:58.000Z</time></trkpt>
        <trkpt lat="29.556144" lon="103.344471"><ele>2150.283</ele><time>2026-07-21T08:34:02.000Z</time></trkpt>
        <trkpt lat="29.556143" lon="103.344473"><ele>2150.553</ele><time>2026-07-21T08:34:04.000Z</time></trkpt>
        <trkpt lat="29.556128" lon="103.344481"><ele>2150.5647</ele><time>2026-07-21T08:34:18.000Z</time></trkpt>
        <trkpt lat="29.55612" lon="103.34449"><ele>2150.726</ele><time>2026-07-21T08:35:28.000Z</time></trkpt>
        <trkpt lat="29.556118" lon="103.344492"><ele>2149.7002</ele><time>2026-07-21T08:42:24.000Z</time></trkpt>
        <trkpt lat="29.556104" lon="103.344505"><ele>2151.8662</ele><time>2026-07-21T08:42:30.000Z</time></trkpt>
        <trkpt lat="29.556092" lon="103.344516"><ele>2152.8147</ele><time>2026-07-21T08:42:34.000Z</time></trkpt>
        <trkpt lat="29.556081" lon="103.344527"><ele>2153.058</ele><time>2026-07-21T08:42:36.000Z</time></trkpt>
        <trkpt lat="29.55608" lon="103.344528"><ele>2153.9841</ele><time>2026-07-21T08:42:38.000Z</time></trkpt>
        <trkpt lat="29.556069" lon="103.344542"><ele>2155.7598</ele><time>2026-07-21T08:42:44.000Z</time></trkpt>
        <trkpt lat="29.556063" lon="103.344554"><ele>2155.9424</ele><time>2026-07-21T08:42:46.000Z</time></trkpt>
        <trkpt lat="29.556058" lon="103.344564"><ele>2157.8877</ele><time>2026-07-21T08:42:48.000Z</time></trkpt>
        <trkpt lat="29.556052" lon="103.344571"><ele>2158.469</ele><time>2026-07-21T08:42:50.000Z</time></trkpt>
        <trkpt lat="29.556036" lon="103.344593"><ele>2158.1846</ele><time>2026-07-21T08:42:54.000Z</time></trkpt>
        <trkpt lat="29.556029" lon="103.344604"><ele>2158.5088</ele><time>2026-07-21T08:42:56.000Z</time></trkpt>
        <trkpt lat="29.556022" lon="103.344613"><ele>2158.5293</ele><time>2026-07-21T08:42:58.000Z</time></trkpt>
        <trkpt lat="29.556016" lon="103.344623"><ele>2158.3945</ele><time>2026-07-21T08:43:00.000Z</time></trkpt>
        <trkpt lat="29.556008" lon="103.34464"><ele>2158.3555</ele><time>2026-07-21T08:43:04.000Z</time></trkpt>
        <trkpt lat="29.556006" lon="103.344647"><ele>2159.655</ele><time>2026-07-21T08:43:06.000Z</time></trkpt>
        <trkpt lat="29.556001" lon="103.34466"><ele>2159.257</ele><time>2026-07-21T08:43:08.000Z</time></trkpt>
        <trkpt lat="29.555995" lon="103.344672"><ele>2158.1914</ele><time>2026-07-21T08:43:16.000Z</time></trkpt>
        <trkpt lat="29.555991" lon="103.344678"><ele>2158.1914</ele><time>2026-07-21T08:43:20.000Z</time></trkpt>
        <trkpt lat="29.555981" lon="103.344688"><ele>2157.1729</ele><time>2026-07-21T08:43:26.000Z</time></trkpt>
        <trkpt lat="29.555967" lon="103.344703"><ele>2158.6619</ele><time>2026-07-21T08:43:52.000Z</time></trkpt>
        <trkpt lat="29.555951" lon="103.34472"><ele>2158.9749</ele><time>2026-07-21T08:44:00.000Z</time></trkpt>
        <trkpt lat="29.555949" lon="103.344724"><ele>2159.3477</ele><time>2026-07-21T08:44:02.000Z</time></trkpt>
        <trkpt lat="29.555947" lon="103.344729"><ele>2159.777</ele><time>2026-07-21T08:44:04.000Z</time></trkpt>
        <trkpt lat="29.555934" lon="103.344755"><ele>2160.9226</ele><time>2026-07-21T08:44:18.000Z</time></trkpt>
        <trkpt lat="29.555926" lon="103.344775"><ele>2160.8022</ele><time>2026-07-21T08:44:20.000Z</time></trkpt>
        <trkpt lat="29.555925" lon="103.344775"><ele>2160.764</ele><time>2026-07-21T08:44:22.000Z</time></trkpt>
        <trkpt lat="29.555922" lon="103.344789"><ele>2162.168</ele><time>2026-07-21T08:44:28.000Z</time></trkpt>
        <trkpt lat="29.555916" lon="103.344816"><ele>2162.834</ele><time>2026-07-21T08:44:32.000Z</time></trkpt>
        <trkpt lat="29.555916" lon="103.344816"><ele>2163.5466</ele><time>2026-07-21T08:44:34.000Z</time></trkpt>
        <trkpt lat="29.555911" lon="103.344823"><ele>2164.0508</ele><time>2026-07-21T08:44:38.000Z</time></trkpt>
        <trkpt lat="29.555897" lon="103.344846"><ele>2164.5981</ele><time>2026-07-21T08:44:42.000Z</time></trkpt>
        <trkpt lat="29.555889" lon="103.34486"><ele>2164.4258</ele><time>2026-07-21T08:44:44.000Z</time></trkpt>
        <trkpt lat="29.555884" lon="103.344873"><ele>2164.851</ele><time>2026-07-21T08:44:46.000Z</time></trkpt>
        <trkpt lat="29.555878" lon="103.344888"><ele>2164.9905</ele><time>2026-07-21T08:44:48.000Z</time></trkpt>
        <trkpt lat="29.555873" lon="103.344901"><ele>2165.9844</ele><time>2026-07-21T08:44:50.000Z</time></trkpt>
        <trkpt lat="29.555866" lon="103.344914"><ele>2165.944</ele><time>2026-07-21T08:44:52.000Z</time></trkpt>
        <trkpt lat="29.555857" lon="103.344929"><ele>2165.6218</ele><time>2026-07-21T08:44:54.000Z</time></trkpt>
        <trkpt lat="29.55585" lon="103.34494"><ele>2165.535</ele><time>2026-07-21T08:44:56.000Z</time></trkpt>
        <trkpt lat="29.555844" lon="103.344947"><ele>2166.4277</ele><time>2026-07-21T08:44:58.000Z</time></trkpt>
        <trkpt lat="29.555832" lon="103.344957"><ele>2167.7974</ele><time>2026-07-21T08:45:02.000Z</time></trkpt>
        <trkpt lat="29.555825" lon="103.344959"><ele>2167.9922</ele><time>2026-07-21T08:45:04.000Z</time></trkpt>
        <trkpt lat="29.55581" lon="103.344963"><ele>2169.0596</ele><time>2026-07-21T08:45:08.000Z</time></trkpt>
        <trkpt lat="29.555803" lon="103.344963"><ele>2168.911</ele><time>2026-07-21T08:45:10.000Z</time></trkpt>
        <trkpt lat="29.555795" lon="103.344961"><ele>2168.2454</ele><time>2026-07-21T08:45:12.000Z</time></trkpt>
        <trkpt lat="29.55578" lon="103.344958"><ele>2167.5166</ele><time>2026-07-21T08:45:16.000Z</time></trkpt>
        <trkpt lat="29.555774" lon="103.344959"><ele>2167.7803</ele><time>2026-07-21T08:45:18.000Z</time></trkpt>
        <trkpt lat="29.555762" lon="103.344962"><ele>2168.78</ele><time>2026-07-21T08:45:22.000Z</time></trkpt>
        <trkpt lat="29.555735" lon="103.344965"><ele>2171.0056</ele><time>2026-07-21T08:45:39.000Z</time></trkpt>
        <trkpt lat="29.555693" lon="103.344969"><ele>2173.9595</ele><time>2026-07-21T08:45:54.000Z</time></trkpt>
        <trkpt lat="29.555679" lon="103.344943"><ele>2177.4517</ele><time>2026-07-21T08:46:03.000Z</time></trkpt>
        <trkpt lat="29.555673" lon="103.344939"><ele>2178.0386</ele><time>2026-07-21T08:46:05.000Z</time></trkpt>
        <trkpt lat="29.555668" lon="103.344937"><ele>2177.9656</ele><time>2026-07-21T08:46:07.000Z</time></trkpt>
        <trkpt lat="29.555649" lon="103.344934"><ele>2176.959</ele><time>2026-07-21T08:46:15.000Z</time></trkpt>
        <trkpt lat="29.55562" lon="103.344929"><ele>2179.6924</ele><time>2026-07-21T08:46:42.000Z</time></trkpt>
        <trkpt lat="29.555606" lon="103.344927"><ele>2179.6892</ele><time>2026-07-21T08:46:44.000Z</time></trkpt>
        <trkpt lat="29.555606" lon="103.344927"><ele>2179.9438</ele><time>2026-07-21T08:46:46.000Z</time></trkpt>
        <trkpt lat="29.555589" lon="103.344932"><ele>2179.9958</ele><time>2026-07-21T08:46:54.000Z</time></trkpt>
        <trkpt lat="29.555568" lon="103.34494"><ele>2181.797</ele><time>2026-07-21T08:50:11.000Z</time></trkpt>
        <trkpt lat="29.555568" lon="103.344943"><ele>2181.5798</ele><time>2026-07-21T08:50:13.000Z</time></trkpt>
        <trkpt lat="29.555563" lon="103.344955"><ele>2180.8828</ele><time>2026-07-21T08:50:43.000Z</time></trkpt>
        <trkpt lat="29.555547" lon="103.345001"><ele>2182.4785</ele><time>2026-07-21T08:50:58.000Z</time></trkpt>
        <trkpt lat="29.555535" lon="103.345037"><ele>2185.7222</ele><time>2026-07-21T08:51:11.000Z</time></trkpt>
        <trkpt lat="29.555533" lon="103.345041"><ele>2186.302</ele><time>2026-07-21T08:51:13.000Z</time></trkpt>
        <trkpt lat="29.555532" lon="103.345042"><ele>2186.1094</ele><time>2026-07-21T08:51:15.000Z</time></trkpt>
        <trkpt lat="29.555505" lon="103.345071"><ele>2187.622</ele><time>2026-07-21T08:52:51.000Z</time></trkpt>
        <trkpt lat="29.555497" lon="103.34508"><ele>2186.9585</ele><time>2026-07-21T08:52:53.000Z</time></trkpt>
        <trkpt lat="29.555496" lon="103.34508"><ele>2186.5342</ele><time>2026-07-21T08:52:55.000Z</time></trkpt>
        <trkpt lat="29.555482" lon="103.3451"><ele>2186.5903</ele><time>2026-07-21T08:52:57.000Z</time></trkpt>
        <trkpt lat="29.555474" lon="103.345106"><ele>2185.803</ele><time>2026-07-21T08:53:05.000Z</time></trkpt>
        <trkpt lat="29.555457" lon="103.345117"><ele>2186.446</ele><time>2026-07-21T08:53:07.000Z</time></trkpt>
        <trkpt lat="29.555456" lon="103.345117"><ele>2186.5923</ele><time>2026-07-21T08:53:09.000Z</time></trkpt>
        <trkpt lat="29.555445" lon="103.345121"><ele>2190.7566</ele><time>2026-07-21T08:53:19.000Z</time></trkpt>
        <trkpt lat="29.555425" lon="103.345119"><ele>2193.5237</ele><time>2026-07-21T08:53:27.000Z</time></trkpt>
        <trkpt lat="29.555409" lon="103.345118"><ele>2194.5962</ele><time>2026-07-21T08:53:29.000Z</time></trkpt>
        <trkpt lat="29.555409" lon="103.345118"><ele>2195.0833</ele><time>2026-07-21T08:53:31.000Z</time></trkpt>
        <trkpt lat="29.555395" lon="103.345104"><ele>2197.1108</ele><time>2026-07-21T08:53:37.000Z</time></trkpt>
        <trkpt lat="29.555381" lon="103.34509"><ele>2197.362</ele><time>2026-07-21T08:53:39.000Z</time></trkpt>
        <trkpt lat="29.555381" lon="103.345089"><ele>2198.2021</ele><time>2026-07-21T08:53:41.000Z</time></trkpt>
        <trkpt lat="29.555374" lon="103.345073"><ele>2198.906</ele><time>2026-07-21T08:53:47.000Z</time></trkpt>
        <trkpt lat="29.555362" lon="103.345044"><ele>2199.8254</ele><time>2026-07-21T08:53:51.000Z</time></trkpt>
        <trkpt lat="29.555362" lon="103.345043"><ele>2199.5156</ele><time>2026-07-21T08:53:53.000Z</time></trkpt>
        <trkpt lat="29.555361" lon="103.345042"><ele>2199.6025</ele><time>2026-07-21T08:53:55.000Z</time></trkpt>
        <trkpt lat="29.555338" lon="103.345011"><ele>2201.1143</ele><time>2026-07-21T08:54:01.000Z</time></trkpt>
        <trkpt lat="29.555329" lon="103.345001"><ele>2200.693</ele><time>2026-07-21T08:54:03.000Z</time></trkpt>
        <trkpt lat="29.55532" lon="103.344993"><ele>2200.4685</ele><time>2026-07-21T08:54:05.000Z</time></trkpt>
        <trkpt lat="29.555311" lon="103.344988"><ele>2201.3018</ele><time>2026-07-21T08:54:07.000Z</time></trkpt>
        <trkpt lat="29.555295" lon="103.344982"><ele>2201.6636</ele><time>2026-07-21T08:54:11.000Z</time></trkpt>
        <trkpt lat="29.555285" lon="103.344979"><ele>2202.245</ele><time>2026-07-21T08:54:13.000Z</time></trkpt>
        <trkpt lat="29.555277" lon="103.344979"><ele>2203.129</ele><time>2026-07-21T08:54:15.000Z</time></trkpt>
        <trkpt lat="29.555259" lon="103.344982"><ele>2203.907</ele><time>2026-07-21T08:54:19.000Z</time></trkpt>
        <trkpt lat="29.555251" lon="103.344986"><ele>2203.6147</ele><time>2026-07-21T08:54:21.000Z</time></trkpt>
        <trkpt lat="29.55524" lon="103.344991"><ele>2203.0544</ele><time>2026-07-21T08:54:23.000Z</time></trkpt>
        <trkpt lat="29.555233" lon="103.344997"><ele>2203.119</ele><time>2026-07-21T08:54:25.000Z</time></trkpt>
        <trkpt lat="29.555228" lon="103.345007"><ele>2203.3394</ele><time>2026-07-21T08:54:29.000Z</time></trkpt>
        <trkpt lat="29.55522" lon="103.345021"><ele>2207.3936</ele><time>2026-07-21T08:54:41.000Z</time></trkpt>
        <trkpt lat="29.555216" lon="103.345029"><ele>2207.1858</ele><time>2026-07-21T08:54:43.000Z</time></trkpt>
        <trkpt lat="29.555211" lon="103.345037"><ele>2207.54</ele><time>2026-07-21T08:54:45.000Z</time></trkpt>
        <trkpt lat="29.555191" lon="103.345059"><ele>2206.139</ele><time>2026-07-21T08:54:49.000Z</time></trkpt>
        <trkpt lat="29.555179" lon="103.34507"><ele>2205.992</ele><time>2026-07-21T08:54:51.000Z</time></trkpt>
        <trkpt lat="29.555165" lon="103.345081"><ele>2206.5256</ele><time>2026-07-21T08:54:53.000Z</time></trkpt>
        <trkpt lat="29.555154" lon="103.34509"><ele>2206.53</ele><time>2026-07-21T08:54:55.000Z</time></trkpt>
        <trkpt lat="29.555142" lon="103.345098"><ele>2206.952</ele><time>2026-07-21T08:54:57.000Z</time></trkpt>
        <trkpt lat="29.55513" lon="103.345105"><ele>2208.227</ele><time>2026-07-21T08:54:59.000Z</time></trkpt>
        <trkpt lat="29.555118" lon="103.345112"><ele>2208.155</ele><time>2026-07-21T08:55:01.000Z</time></trkpt>
        <trkpt lat="29.555105" lon="103.345119"><ele>2208.5496</ele><time>2026-07-21T08:55:03.000Z</time></trkpt>
        <trkpt lat="29.555089" lon="103.345127"><ele>2207.4253</ele><time>2026-07-21T08:55:05.000Z</time></trkpt>
        <trkpt lat="29.555076" lon="103.345134"><ele>2207.5132</ele><time>2026-07-21T08:55:07.000Z</time></trkpt>
        <trkpt lat="29.555064" lon="103.34514"><ele>2207.4246</ele><time>2026-07-21T08:55:09.000Z</time></trkpt>
        <trkpt lat="29.555054" lon="103.345145"><ele>2207.7607</ele><time>2026-07-21T08:55:11.000Z</time></trkpt>
        <trkpt lat="29.555043" lon="103.34515"><ele>2207.5493</ele><time>2026-07-21T08:55:13.000Z</time></trkpt>
        <trkpt lat="29.555035" lon="103.345151"><ele>2207.636</ele><time>2026-07-21T08:55:15.000Z</time></trkpt>
        <trkpt lat="29.555018" lon="103.345151"><ele>2208.609</ele><time>2026-07-21T08:55:19.000Z</time></trkpt>
        <trkpt lat="29.555009" lon="103.345152"><ele>2208.185</ele><time>2026-07-21T08:55:21.000Z</time></trkpt>
        <trkpt lat="29.555002" lon="103.345152"><ele>2208.4338</ele><time>2026-07-21T08:55:23.000Z</time></trkpt>
        <trkpt lat="29.554981" lon="103.345154"><ele>2209.8794</ele><time>2026-07-21T08:55:29.000Z</time></trkpt>
        <trkpt lat="29.554973" lon="103.345155"><ele>2209.1628</ele><time>2026-07-21T08:55:31.000Z</time></trkpt>
        <trkpt lat="29.554969" lon="103.345156"><ele>2209.3225</ele><time>2026-07-21T08:55:33.000Z</time></trkpt>
        <trkpt lat="29.554949" lon="103.34516"><ele>2210.177</ele><time>2026-07-21T08:55:39.000Z</time></trkpt>
        <trkpt lat="29.554941" lon="103.345161"><ele>2210.0806</ele><time>2026-07-21T08:55:41.000Z</time></trkpt>
        <trkpt lat="29.554934" lon="103.345161"><ele>2210.2212</ele><time>2026-07-21T08:55:43.000Z</time></trkpt>
        <trkpt lat="29.554916" lon="103.345164"><ele>2211.3826</ele><time>2026-07-21T08:55:49.000Z</time></trkpt>
        <trkpt lat="29.554909" lon="103.345166"><ele>2211.3513</ele><time>2026-07-21T08:55:51.000Z</time></trkpt>
        <trkpt lat="29.554895" lon="103.345173"><ele>2211.4287</ele><time>2026-07-21T08:55:53.000Z</time></trkpt>
        <trkpt lat="29.554888" lon="103.345177"><ele>2211.6743</ele><time>2026-07-21T08:55:59.000Z</time></trkpt>
        <trkpt lat="29.554879" lon="103.345183"><ele>2211.3845</ele><time>2026-07-21T08:56:01.000Z</time></trkpt>
        <trkpt lat="29.554859" lon="103.345197"><ele>2212.5598</ele><time>2026-07-21T08:56:05.000Z</time></trkpt>
        <trkpt lat="29.554859" lon="103.345197"><ele>2212.7395</ele><time>2026-07-21T08:56:07.000Z</time></trkpt>
        <trkpt lat="29.554848" lon="103.345207"><ele>2213.5566</ele><time>2026-07-21T08:56:13.000Z</time></trkpt>
        <trkpt lat="29.55483" lon="103.345224"><ele>2213.7031</ele><time>2026-07-21T08:56:17.000Z</time></trkpt>
        <trkpt lat="29.55483" lon="103.345224"><ele>2213.5044</ele><time>2026-07-21T08:56:19.000Z</time></trkpt>
        <trkpt lat="29.554822" lon="103.345237"><ele>2213.8757</ele><time>2026-07-21T08:56:25.000Z</time></trkpt>
        <trkpt lat="29.554814" lon="103.345253"><ele>2214.3794</ele><time>2026-07-21T08:56:29.000Z</time></trkpt>
        <trkpt lat="29.55481" lon="103.345259"><ele>2214.2815</ele><time>2026-07-21T08:56:31.000Z</time></trkpt>
        <trkpt lat="29.554804" lon="103.345267"><ele>2214.911</ele><time>2026-07-21T08:56:35.000Z</time></trkpt>
        <trkpt lat="29.55479" lon="103.345282"><ele>2215.8416</ele><time>2026-07-21T08:56:45.000Z</time></trkpt>
        <trkpt lat="29.554787" lon="103.345285"><ele>2216.2898</ele><time>2026-07-21T08:56:47.000Z</time></trkpt>
        <trkpt lat="29.554776" lon="103.345292"><ele>2216.3916</ele><time>2026-07-21T08:56:51.000Z</time></trkpt>
        <trkpt lat="29.554761" lon="103.345301"><ele>2219.1187</ele><time>2026-07-21T08:57:01.000Z</time></trkpt>
        <trkpt lat="29.554757" lon="103.345303"><ele>2219.516</ele><time>2026-07-21T08:57:03.000Z</time></trkpt>
        <trkpt lat="29.554747" lon="103.345307"><ele>2220.664</ele><time>2026-07-21T08:57:11.000Z</time></trkpt>
        <trkpt lat="29.554725" lon="103.345317"><ele>2223.4148</ele><time>2026-07-21T08:57:26.000Z</time></trkpt>
        <trkpt lat="29.554683" lon="103.345338"><ele>2223.8096</ele><time>2026-07-21T08:57:41.000Z</time></trkpt>
        <trkpt lat="29.554657" lon="103.345348"><ele>2225.4575</ele><time>2026-07-21T08:57:51.000Z</time></trkpt>
        <trkpt lat="29.554657" lon="103.345347"><ele>2226.1277</ele><time>2026-07-21T08:57:53.000Z</time></trkpt>
        <trkpt lat="29.554653" lon="103.345348"><ele>2227.5085</ele><time>2026-07-21T08:57:57.000Z</time></trkpt>
        <trkpt lat="29.554627" lon="103.34535"><ele>2228.2065</ele><time>2026-07-21T08:58:09.000Z</time></trkpt>
        <trkpt lat="29.554622" lon="103.345351"><ele>2228.7395</ele><time>2026-07-21T08:58:11.000Z</time></trkpt>
        <trkpt lat="29.554614" lon="103.345355"><ele>2228.7065</ele><time>2026-07-21T08:58:13.000Z</time></trkpt>
        <trkpt lat="29.554595" lon="103.345364"><ele>2229.6436</ele><time>2026-07-21T08:58:19.000Z</time></trkpt>
        <trkpt lat="29.554589" lon="103.345366"><ele>2230.0298</ele><time>2026-07-21T08:58:21.000Z</time></trkpt>
        <trkpt lat="29.554583" lon="103.345369"><ele>2229.6829</ele><time>2026-07-21T08:58:23.000Z</time></trkpt>
        <trkpt lat="29.554563" lon="103.345375"><ele>2231.5208</ele><time>2026-07-21T08:58:33.000Z</time></trkpt>
        <trkpt lat="29.55456" lon="103.345375"><ele>2232.1978</ele><time>2026-07-21T08:58:35.000Z</time></trkpt>
        <trkpt lat="29.554549" lon="103.345377"><ele>2234.5496</ele><time>2026-07-21T08:58:45.000Z</time></trkpt>
        <trkpt lat="29.554531" lon="103.345382"><ele>2234.031</ele><time>2026-07-21T08:58:51.000Z</time></trkpt>
        <trkpt lat="29.554524" lon="103.345384"><ele>2234.074</ele><time>2026-07-21T08:58:53.000Z</time></trkpt>
        <trkpt lat="29.554518" lon="103.345385"><ele>2235.0203</ele><time>2026-07-21T08:58:57.000Z</time></trkpt>
        <trkpt lat="29.554495" lon="103.345385"><ele>2236.9788</ele><time>2026-07-21T08:59:05.000Z</time></trkpt>
        <trkpt lat="29.55449" lon="103.345386"><ele>2237.0583</ele><time>2026-07-21T08:59:07.000Z</time></trkpt>
        <trkpt lat="29.554485" lon="103.345388"><ele>2236.5112</ele><time>2026-07-21T08:59:09.000Z</time></trkpt>
        <trkpt lat="29.554463" lon="103.345396"><ele>2237.1235</ele><time>2026-07-21T08:59:19.000Z</time></trkpt>
        <trkpt lat="29.554457" lon="103.345397"><ele>2237.526</ele><time>2026-07-21T08:59:21.000Z</time></trkpt>
        <trkpt lat="29.554449" lon="103.345398"><ele>2237.6877</ele><time>2026-07-21T08:59:23.000Z</time></trkpt>
        <trkpt lat="29.554429" lon="103.345399"><ele>2238.0017</ele><time>2026-07-21T08:59:29.000Z</time></trkpt>
        <trkpt lat="29.554425" lon="103.345399"><ele>2238.3809</ele><time>2026-07-21T08:59:31.000Z</time></trkpt>
        <trkpt lat="29.554412" lon="103.3454"><ele>2237.992</ele><time>2026-07-21T08:59:35.000Z</time></trkpt>
        <trkpt lat="29.554397" lon="103.345402"><ele>2239.1663</ele><time>2026-07-21T08:59:41.000Z</time></trkpt>
        <trkpt lat="29.554391" lon="103.345404"><ele>2239.2778</ele><time>2026-07-21T08:59:43.000Z</time></trkpt>
        <trkpt lat="29.554375" lon="103.345409"><ele>2239.6567</ele><time>2026-07-21T08:59:45.000Z</time></trkpt>
        <trkpt lat="29.554364" lon="103.345412"><ele>2239.977</ele><time>2026-07-21T08:59:55.000Z</time></trkpt>
        <trkpt lat="29.554357" lon="103.345415"><ele>2240.2166</ele><time>2026-07-21T08:59:59.000Z</time></trkpt>
        <trkpt lat="29.554345" lon="103.345418"><ele>2241.0007</ele><time>2026-07-21T09:00:03.000Z</time></trkpt>
        <trkpt lat="29.554334" lon="103.345419"><ele>2240.8425</ele><time>2026-07-21T09:00:07.000Z</time></trkpt>
        <trkpt lat="29.554324" lon="103.345421"><ele>2242.2112</ele><time>2026-07-21T09:00:11.000Z</time></trkpt>
        <trkpt lat="29.554278" lon="103.345429"><ele>2245.7078</ele><time>2026-07-21T09:00:30.000Z</time></trkpt>
        <trkpt lat="29.554243" lon="103.345439"><ele>2247.4395</ele><time>2026-07-21T09:00:46.000Z</time></trkpt>
        <trkpt lat="29.55422" lon="103.345447"><ele>2249.4785</ele><time>2026-07-21T09:00:56.000Z</time></trkpt>
        <trkpt lat="29.554216" lon="103.345448"><ele>2250.3962</ele><time>2026-07-21T09:00:58.000Z</time></trkpt>
        <trkpt lat="29.554212" lon="103.34545"><ele>2250.528</ele><time>2026-07-21T09:01:00.000Z</time></trkpt>
        <trkpt lat="29.554192" lon="103.34546"><ele>2249.6838</ele><time>2026-07-21T09:01:08.000Z</time></trkpt>
        <trkpt lat="29.554187" lon="103.345462"><ele>2250.039</ele><time>2026-07-21T09:01:10.000Z</time></trkpt>
        <trkpt lat="29.554179" lon="103.345465"><ele>2250.5098</ele><time>2026-07-21T09:01:12.000Z</time></trkpt>
        <trkpt lat="29.554163" lon="103.345472"><ele>2250.621</ele><time>2026-07-21T09:01:16.000Z</time></trkpt>
        <trkpt lat="29.554151" lon="103.345477"><ele>2250.7615</ele><time>2026-07-21T09:01:18.000Z</time></trkpt>
        <trkpt lat="29.554151" lon="103.345477"><ele>2250.9543</ele><time>2026-07-21T09:01:20.000Z</time></trkpt>
        <trkpt lat="29.554132" lon="103.345484"><ele>2252.6226</ele><time>2026-07-21T09:01:30.000Z</time></trkpt>
        <trkpt lat="29.554117" lon="103.345487"><ele>2253.6682</ele><time>2026-07-21T09:01:34.000Z</time></trkpt>
        <trkpt lat="29.554111" lon="103.34549"><ele>2254.4858</ele><time>2026-07-21T09:01:36.000Z</time></trkpt>
        <trkpt lat="29.554103" lon="103.345493"><ele>2254.6816</ele><time>2026-07-21T09:01:38.000Z</time></trkpt>
        <trkpt lat="29.55409" lon="103.345491"><ele>2255.5012</ele><time>2026-07-21T09:01:42.000Z</time></trkpt>
        <trkpt lat="29.554081" lon="103.345486"><ele>2257.213</ele><time>2026-07-21T09:01:48.000Z</time></trkpt>
        <trkpt lat="29.554071" lon="103.34548"><ele>2257.9688</ele><time>2026-07-21T09:01:52.000Z</time></trkpt>
        <trkpt lat="29.554058" lon="103.345472"><ele>2258.8782</ele><time>2026-07-21T09:01:56.000Z</time></trkpt>
        <trkpt lat="29.554051" lon="103.345469"><ele>2258.3687</ele><time>2026-07-21T09:01:58.000Z</time></trkpt>
        <trkpt lat="29.554044" lon="103.345466"><ele>2258.4968</ele><time>2026-07-21T09:02:00.000Z</time></trkpt>
        <trkpt lat="29.554028" lon="103.345463"><ele>2259.0837</ele><time>2026-07-21T09:02:04.000Z</time></trkpt>
        <trkpt lat="29.554016" lon="103.345459"><ele>2258.9656</ele><time>2026-07-21T09:02:06.000Z</time></trkpt>
        <trkpt lat="29.554012" lon="103.345455"><ele>2260.1506</ele><time>2026-07-21T09:02:12.000Z</time></trkpt>
        <trkpt lat="29.553988" lon="103.345436"><ele>2260.4377</ele><time>2026-07-21T09:02:15.000Z</time></trkpt>
        <trkpt lat="29.553988" lon="103.345436"><ele>2260.5732</ele><time>2026-07-21T09:02:17.000Z</time></trkpt>
        <trkpt lat="29.553986" lon="103.345436"><ele>2260.4702</ele><time>2026-07-21T09:02:19.000Z</time></trkpt>
        <trkpt lat="29.553952" lon="103.345415"><ele>2260.1365</ele><time>2026-07-21T09:02:25.000Z</time></trkpt>
        <trkpt lat="29.55394" lon="103.345408"><ele>2260.5327</ele><time>2026-07-21T09:02:27.000Z</time></trkpt>
        <trkpt lat="29.553928" lon="103.345402"><ele>2260.38</ele><time>2026-07-21T09:02:29.000Z</time></trkpt>
        <trkpt lat="29.553916" lon="103.345396"><ele>2260.0652</ele><time>2026-07-21T09:02:31.000Z</time></trkpt>
        <trkpt lat="29.553907" lon="103.345392"><ele>2260.1316</ele><time>2026-07-21T09:02:33.000Z</time></trkpt>
        <trkpt lat="29.5539" lon="103.345388"><ele>2260.4717</ele><time>2026-07-21T09:02:35.000Z</time></trkpt>
        <trkpt lat="29.553884" lon="103.34538"><ele>2260.6233</ele><time>2026-07-21T09:02:39.000Z</time></trkpt>
        <trkpt lat="29.553876" lon="103.345377"><ele>2260.5435</ele><time>2026-07-21T09:02:41.000Z</time></trkpt>
        <trkpt lat="29.553869" lon="103.345375"><ele>2260.9048</ele><time>2026-07-21T09:02:43.000Z</time></trkpt>
        <trkpt lat="29.553855" lon="103.34537"><ele>2260.5857</ele><time>2026-07-21T09:02:47.000Z</time></trkpt>
        <trkpt lat="29.553848" lon="103.345365"><ele>2260.9165</ele><time>2026-07-21T09:02:49.000Z</time></trkpt>
        <trkpt lat="29.553841" lon="103.345358"><ele>2261.823</ele><time>2026-07-21T09:02:53.000Z</time></trkpt>
        <trkpt lat="29.55383" lon="103.34535"><ele>2263.2913</ele><time>2026-07-21T09:03:01.000Z</time></trkpt>
        <trkpt lat="29.553817" lon="103.345343"><ele>2264.7205</ele><time>2026-07-21T09:03:05.000Z</time></trkpt>
        <trkpt lat="29.553797" lon="103.345333"><ele>2264.6157</ele><time>2026-07-21T09:03:07.000Z</time></trkpt>
        <trkpt lat="29.553796" lon="103.345333"><ele>2264.3552</ele><time>2026-07-21T09:03:09.000Z</time></trkpt>
        <trkpt lat="29.553775" lon="103.345334"><ele>2263.948</ele><time>2026-07-21T09:03:15.000Z</time></trkpt>
        <trkpt lat="29.553761" lon="103.345333"><ele>2264.3303</ele><time>2026-07-21T09:03:17.000Z</time></trkpt>
        <trkpt lat="29.553747" lon="103.345331"><ele>2264.5444</ele><time>2026-07-21T09:03:19.000Z</time></trkpt>
        <trkpt lat="29.553735" lon="103.345329"><ele>2264.9905</ele><time>2026-07-21T09:03:21.000Z</time></trkpt>
        <trkpt lat="29.553725" lon="103.345327"><ele>2265.3599</ele><time>2026-07-21T09:03:23.000Z</time></trkpt>
        <trkpt lat="29.553711" lon="103.345324"><ele>2264.9246</ele><time>2026-07-21T09:03:25.000Z</time></trkpt>
        <trkpt lat="29.553696" lon="103.345321"><ele>2264.497</ele><time>2026-07-21T09:03:27.000Z</time></trkpt>
        <trkpt lat="29.553683" lon="103.345318"><ele>2265.8357</ele><time>2026-07-21T09:03:29.000Z</time></trkpt>
        <trkpt lat="29.553674" lon="103.345315"><ele>2266.334</ele><time>2026-07-21T09:03:31.000Z</time></trkpt>
        <trkpt lat="29.553665" lon="103.345311"><ele>2265.7708</ele><time>2026-07-21T09:03:33.000Z</time></trkpt>
        <trkpt lat="29.55365" lon="103.345305"><ele>2266.7368</ele><time>2026-07-21T09:03:37.000Z</time></trkpt>
        <trkpt lat="29.553643" lon="103.345304"><ele>2267.385</ele><time>2026-07-21T09:03:39.000Z</time></trkpt>
        <trkpt lat="29.553638" lon="103.345308"><ele>2267.7402</ele><time>2026-07-21T09:03:41.000Z</time></trkpt>
        <trkpt lat="29.55362" lon="103.345323"><ele>2267.0586</ele><time>2026-07-21T09:03:47.000Z</time></trkpt>
        <trkpt lat="29.553615" lon="103.345327"><ele>2267.203</ele><time>2026-07-21T09:03:49.000Z</time></trkpt>
        <trkpt lat="29.553611" lon="103.345328"><ele>2267.9326</ele><time>2026-07-21T09:03:51.000Z</time></trkpt>
        <trkpt lat="29.553589" lon="103.345332"><ele>2269.4995</ele><time>2026-07-21T09:03:59.000Z</time></trkpt>
        <trkpt lat="29.553582" lon="103.345333"><ele>2269.9836</ele><time>2026-07-21T09:04:01.000Z</time></trkpt>
        <trkpt lat="29.553562" lon="103.345336"><ele>2269.5513</ele><time>2026-07-21T09:04:03.000Z</time></trkpt>
        <trkpt lat="29.553559" lon="103.345335"><ele>2271.0344</ele><time>2026-07-21T09:04:07.000Z</time></trkpt>
        <trkpt lat="29.553551" lon="103.345333"><ele>2270.877</ele><time>2026-07-21T09:04:09.000Z</time></trkpt>
        <trkpt lat="29.553533" lon="103.345329"><ele>2271.0957</ele><time>2026-07-21T09:04:11.000Z</time></trkpt>
        <trkpt lat="29.553516" lon="103.345325"><ele>2271.932</ele><time>2026-07-21T09:04:13.000Z</time></trkpt>
        <trkpt lat="29.553499" lon="103.345324"><ele>2272.1516</ele><time>2026-07-21T09:04:15.000Z</time></trkpt>
        <trkpt lat="29.553488" lon="103.345327"><ele>2271.8013</ele><time>2026-07-21T09:04:17.000Z</time></trkpt>
        <trkpt lat="29.553483" lon="103.345332"><ele>2271.9194</ele><time>2026-07-21T09:04:19.000Z</time></trkpt>
        <trkpt lat="29.553465" lon="103.345345"><ele>2271.91</ele><time>2026-07-21T09:04:25.000Z</time></trkpt>
        <trkpt lat="29.553459" lon="103.345347"><ele>2272.0374</ele><time>2026-07-21T09:04:27.000Z</time></trkpt>
        <trkpt lat="29.553451" lon="103.345349"><ele>2272.5935</ele><time>2026-07-21T09:04:29.000Z</time></trkpt>
        <trkpt lat="29.553435" lon="103.345348"><ele>2272.6445</ele><time>2026-07-21T09:04:33.000Z</time></trkpt>
        <trkpt lat="29.55342" lon="103.345346"><ele>2272.4314</ele><time>2026-07-21T09:04:35.000Z</time></trkpt>
        <trkpt lat="29.553419" lon="103.345346"><ele>2272.2966</ele><time>2026-07-21T09:04:37.000Z</time></trkpt>
        <trkpt lat="29.553371" lon="103.34535"><ele>2273.5725</ele><time>2026-07-21T09:04:49.000Z</time></trkpt>
        <trkpt lat="29.553352" lon="103.345351"><ele>2274.1643</ele><time>2026-07-21T09:04:51.000Z</time></trkpt>
        <trkpt lat="29.553351" lon="103.345352"><ele>2273.878</ele><time>2026-07-21T09:04:53.000Z</time></trkpt>
        <trkpt lat="29.553334" lon="103.34536"><ele>2275.626</ele><time>2026-07-21T09:04:59.000Z</time></trkpt>
        <trkpt lat="29.553318" lon="103.345368"><ele>2276.2366</ele><time>2026-07-21T09:05:03.000Z</time></trkpt>
        <trkpt lat="29.553311" lon="103.345371"><ele>2276.404</ele><time>2026-07-21T09:05:05.000Z</time></trkpt>
        <trkpt lat="29.553305" lon="103.345376"><ele>2274.94</ele><time>2026-07-21T09:05:07.000Z</time></trkpt>
        <trkpt lat="29.553286" lon="103.345384"><ele>2275.9795</ele><time>2026-07-21T09:06:28.000Z</time></trkpt>
        <trkpt lat="29.553274" lon="103.345384"><ele>2275.43</ele><time>2026-07-21T09:06:30.000Z</time></trkpt>
        <trkpt lat="29.553254" lon="103.345383"><ele>2275.599</ele><time>2026-07-21T09:06:32.000Z</time></trkpt>
        <trkpt lat="29.553253" lon="103.345383"><ele>2275.51</ele><time>2026-07-21T09:06:34.000Z</time></trkpt>
        <trkpt lat="29.553238" lon="103.34538"><ele>2276.0217</ele><time>2026-07-21T09:06:38.000Z</time></trkpt>
        <trkpt lat="29.553218" lon="103.345377"><ele>2275.4673</ele><time>2026-07-21T09:06:40.000Z</time></trkpt>
        <trkpt lat="29.553192" lon="103.345374"><ele>2275.43</ele><time>2026-07-21T09:06:42.000Z</time></trkpt>
        <trkpt lat="29.553167" lon="103.345373"><ele>2275.2842</ele><time>2026-07-21T09:06:44.000Z</time></trkpt>
        <trkpt lat="29.553144" lon="103.345373"><ele>2274.343</ele><time>2026-07-21T09:06:46.000Z</time></trkpt>
        <trkpt lat="29.553124" lon="103.345372"><ele>2274.8484</ele><time>2026-07-21T09:06:48.000Z</time></trkpt>
        <trkpt lat="29.553109" lon="103.345373"><ele>2275.084</ele><time>2026-07-21T09:06:50.000Z</time></trkpt>
        <trkpt lat="29.553096" lon="103.345372"><ele>2275.0784</ele><time>2026-07-21T09:06:52.000Z</time></trkpt>
        <trkpt lat="29.553081" lon="103.345372"><ele>2275.9229</ele><time>2026-07-21T09:06:54.000Z</time></trkpt>
        <trkpt lat="29.553064" lon="103.345371"><ele>2276.4578</ele><time>2026-07-21T09:06:56.000Z</time></trkpt>
        <trkpt lat="29.553051" lon="103.345371"><ele>2276.8691</ele><time>2026-07-21T09:06:58.000Z</time></trkpt>
        <trkpt lat="29.553034" lon="103.345371"><ele>2276.4258</ele><time>2026-07-21T09:07:00.000Z</time></trkpt>
        <trkpt lat="29.553017" lon="103.345373"><ele>2276.1082</ele><time>2026-07-21T09:07:02.000Z</time></trkpt>
        <trkpt lat="29.553002" lon="103.345376"><ele>2276.2502</ele><time>2026-07-21T09:07:04.000Z</time></trkpt>
        <trkpt lat="29.552984" lon="103.345383"><ele>2276.6606</ele><time>2026-07-21T09:07:06.000Z</time></trkpt>
        <trkpt lat="29.55297" lon="103.34539"><ele>2277.037</ele><time>2026-07-21T09:07:08.000Z</time></trkpt>
        <trkpt lat="29.552954" lon="103.345397"><ele>2277.3623</ele><time>2026-07-21T09:07:10.000Z</time></trkpt>
        <trkpt lat="29.552938" lon="103.345404"><ele>2277.4697</ele><time>2026-07-21T09:07:12.000Z</time></trkpt>
        <trkpt lat="29.552923" lon="103.345409"><ele>2278.601</ele><time>2026-07-21T09:07:14.000Z</time></trkpt>
        <trkpt lat="29.552909" lon="103.345412"><ele>2278.5737</ele><time>2026-07-21T09:07:16.000Z</time></trkpt>
        <trkpt lat="29.552896" lon="103.345413"><ele>2279.2424</ele><time>2026-07-21T09:07:18.000Z</time></trkpt>
        <trkpt lat="29.552878" lon="103.345415"><ele>2279.6123</ele><time>2026-07-21T09:07:20.000Z</time></trkpt>
        <trkpt lat="29.552861" lon="103.345417"><ele>2279.2705</ele><time>2026-07-21T09:07:22.000Z</time></trkpt>
        <trkpt lat="29.552845" lon="103.345419"><ele>2278.9941</ele><time>2026-07-21T09:07:24.000Z</time></trkpt>
        <trkpt lat="29.552828" lon="103.345422"><ele>2279.2073</ele><time>2026-07-21T09:07:26.000Z</time></trkpt>
        <trkpt lat="29.552814" lon="103.345427"><ele>2280.2236</ele><time>2026-07-21T09:07:28.000Z</time></trkpt>
        <trkpt lat="29.552795" lon="103.345433"><ele>2279.4705</ele><time>2026-07-21T09:07:30.000Z</time></trkpt>
        <trkpt lat="29.552779" lon="103.345434"><ele>2280.4138</ele><time>2026-07-21T09:07:32.000Z</time></trkpt>
        <trkpt lat="29.552764" lon="103.345433"><ele>2280.6948</ele><time>2026-07-21T09:07:34.000Z</time></trkpt>
        <trkpt lat="29.552749" lon="103.34543"><ele>2280.3086</ele><time>2026-07-21T09:07:36.000Z</time></trkpt>
        <trkpt lat="29.552732" lon="103.345423"><ele>2281.2158</ele><time>2026-07-21T09:07:38.000Z</time></trkpt>
        <trkpt lat="29.552716" lon="103.345418"><ele>2281.9946</ele><time>2026-07-21T09:07:40.000Z</time></trkpt>
        <trkpt lat="29.552698" lon="103.345414"><ele>2281.4695</ele><time>2026-07-21T09:07:42.000Z</time></trkpt>
        <trkpt lat="29.55268" lon="103.345412"><ele>2281.1902</ele><time>2026-07-21T09:07:44.000Z</time></trkpt>
        <trkpt lat="29.552663" lon="103.345414"><ele>2280.6973</ele><time>2026-07-21T09:07:46.000Z</time></trkpt>
        <trkpt lat="29.552642" lon="103.345417"><ele>2279.7307</ele><time>2026-07-21T09:07:48.000Z</time></trkpt>
        <trkpt lat="29.552619" lon="103.345422"><ele>2279.0461</ele><time>2026-07-21T09:07:50.000Z</time></trkpt>
        <trkpt lat="29.552601" lon="103.345426"><ele>2278.8772</ele><time>2026-07-21T09:07:52.000Z</time></trkpt>
        <trkpt lat="29.552585" lon="103.345429"><ele>2279.01</ele><time>2026-07-21T09:07:54.000Z</time></trkpt>
        <trkpt lat="29.552569" lon="103.345433"><ele>2278.4531</ele><time>2026-07-21T09:07:56.000Z</time></trkpt>
        <trkpt lat="29.552556" lon="103.345437"><ele>2277.9373</ele><time>2026-07-21T09:07:58.000Z</time></trkpt>
        <trkpt lat="29.552543" lon="103.345441"><ele>2277.6228</ele><time>2026-07-21T09:08:00.000Z</time></trkpt>
        <trkpt lat="29.552532" lon="103.345445"><ele>2276.9006</ele><time>2026-07-21T09:08:02.000Z</time></trkpt>
        <trkpt lat="29.552521" lon="103.345448"><ele>2276.7039</ele><time>2026-07-21T09:08:04.000Z</time></trkpt>
        <trkpt lat="29.552505" lon="103.345449"><ele>2276.313</ele><time>2026-07-21T09:08:06.000Z</time></trkpt>
        <trkpt lat="29.552491" lon="103.34545"><ele>2275.6975</ele><time>2026-07-21T09:08:08.000Z</time></trkpt>
        <trkpt lat="29.552481" lon="103.345449"><ele>2275.4983</ele><time>2026-07-21T09:08:10.000Z</time></trkpt>
        <trkpt lat="29.552469" lon="103.345449"><ele>2275.3745</ele><time>2026-07-21T09:08:12.000Z</time></trkpt>
        <trkpt lat="29.55246" lon="103.34545"><ele>2274.7542</ele><time>2026-07-21T09:08:14.000Z</time></trkpt>
        <trkpt lat="29.552451" lon="103.345447"><ele>2275.2144</ele><time>2026-07-21T09:08:16.000Z</time></trkpt>
        <trkpt lat="29.55244" lon="103.345433"><ele>2275.777</ele><time>2026-07-21T09:08:20.000Z</time></trkpt>
        <trkpt lat="29.552438" lon="103.345421"><ele>2275.9963</ele><time>2026-07-21T09:08:22.000Z</time></trkpt>
        <trkpt lat="29.552437" lon="103.345402"><ele>2274.6963</ele><time>2026-07-21T09:08:24.000Z</time></trkpt>
        <trkpt lat="29.552439" lon="103.345381"><ele>2276.0046</ele><time>2026-07-21T09:08:26.000Z</time></trkpt>
        <trkpt lat="29.552441" lon="103.345365"><ele>2277.2683</ele><time>2026-07-21T09:08:28.000Z</time></trkpt>
        <trkpt lat="29.552443" lon="103.345348"><ele>2279.1113</ele><time>2026-07-21T09:08:30.000Z</time></trkpt>
        <trkpt lat="29.552442" lon="103.345335"><ele>2278.9421</ele><time>2026-07-21T09:08:32.000Z</time></trkpt>
        <trkpt lat="29.55244" lon="103.345324"><ele>2279.5298</ele><time>2026-07-21T09:08:34.000Z</time></trkpt>
        <trkpt lat="29.552436" lon="103.345311"><ele>2278.3267</ele><time>2026-07-21T09:08:36.000Z</time></trkpt>
        <trkpt lat="29.552433" lon="103.345298"><ele>2278.9658</ele><time>2026-07-21T09:08:38.000Z</time></trkpt>
        <trkpt lat="29.552429" lon="103.345286"><ele>2279.5305</ele><time>2026-07-21T09:08:40.000Z</time></trkpt>
        <trkpt lat="29.552421" lon="103.34527"><ele>2280.1868</ele><time>2026-07-21T09:08:42.000Z</time></trkpt>
        <trkpt lat="29.552413" lon="103.345256"><ele>2278.801</ele><time>2026-07-21T09:08:44.000Z</time></trkpt>
        <trkpt lat="29.552402" lon="103.345241"><ele>2280.562</ele><time>2026-07-21T09:08:46.000Z</time></trkpt>
        <trkpt lat="29.552391" lon="103.345228"><ele>2280.4104</ele><time>2026-07-21T09:08:48.000Z</time></trkpt>
        <trkpt lat="29.552379" lon="103.345215"><ele>2280.962</ele><time>2026-07-21T09:08:50.000Z</time></trkpt>
        <trkpt lat="29.552363" lon="103.345201"><ele>2280.6082</ele><time>2026-07-21T09:08:52.000Z</time></trkpt>
        <trkpt lat="29.552345" lon="103.345187"><ele>2279.952</ele><time>2026-07-21T09:08:54.000Z</time></trkpt>
        <trkpt lat="29.552329" lon="103.345176"><ele>2279.666</ele><time>2026-07-21T09:08:56.000Z</time></trkpt>
        <trkpt lat="29.552311" lon="103.345167"><ele>2279.7996</ele><time>2026-07-21T09:08:58.000Z</time></trkpt>
        <trkpt lat="29.552291" lon="103.345159"><ele>2279.8481</ele><time>2026-07-21T09:09:00.000Z</time></trkpt>
        <trkpt lat="29.552269" lon="103.345151"><ele>2279.67</ele><time>2026-07-21T09:09:02.000Z</time></trkpt>
        <trkpt lat="29.552251" lon="103.345143"><ele>2279.5159</ele><time>2026-07-21T09:09:04.000Z</time></trkpt>
        <trkpt lat="29.552235" lon="103.345138"><ele>2279.9658</ele><time>2026-07-21T09:09:06.000Z</time></trkpt>
        <trkpt lat="29.55222" lon="103.345136"><ele>2279.794</ele><time>2026-07-21T09:09:08.000Z</time></trkpt>
        <trkpt lat="29.552202" lon="103.345135"><ele>2278.9934</ele><time>2026-07-21T09:09:10.000Z</time></trkpt>
        <trkpt lat="29.55218" lon="103.345135"><ele>2278.5361</ele><time>2026-07-21T09:09:12.000Z</time></trkpt>
        <trkpt lat="29.552162" lon="103.345133"><ele>2278.2795</ele><time>2026-07-21T09:09:14.000Z</time></trkpt>
        <trkpt lat="29.552144" lon="103.345129"><ele>2278.2236</ele><time>2026-07-21T09:09:16.000Z</time></trkpt>
        <trkpt lat="29.552126" lon="103.345121"><ele>2278.365</ele><time>2026-07-21T09:09:18.000Z</time></trkpt>
        <trkpt lat="29.552108" lon="103.345111"><ele>2279.3728</ele><time>2026-07-21T09:09:20.000Z</time></trkpt>
        <trkpt lat="29.552094" lon="103.345102"><ele>2278.0203</ele><time>2026-07-21T09:09:22.000Z</time></trkpt>
        <trkpt lat="29.552079" lon="103.345093"><ele>2277.7327</ele><time>2026-07-21T09:09:24.000Z</time></trkpt>
        <trkpt lat="29.552064" lon="103.345086"><ele>2276.9646</ele><time>2026-07-21T09:09:26.000Z</time></trkpt>
        <trkpt lat="29.552046" lon="103.345078"><ele>2277.3975</ele><time>2026-07-21T09:09:28.000Z</time></trkpt>
        <trkpt lat="29.552029" lon="103.345067"><ele>2277.7827</ele><time>2026-07-21T09:09:30.000Z</time></trkpt>
        <trkpt lat="29.552017" lon="103.345056"><ele>2278.7302</ele><time>2026-07-21T09:09:32.000Z</time></trkpt>
        <trkpt lat="29.552006" lon="103.34504"><ele>2279.0203</ele><time>2026-07-21T09:09:34.000Z</time></trkpt>
        <trkpt lat="29.552" lon="103.345024"><ele>2279.2368</ele><time>2026-07-21T09:09:36.000Z</time></trkpt>
        <trkpt lat="29.551995" lon="103.345006"><ele>2278.8792</ele><time>2026-07-21T09:09:38.000Z</time></trkpt>
        <trkpt lat="29.551994" lon="103.344987"><ele>2277.9497</ele><time>2026-07-21T09:09:40.000Z</time></trkpt>
        <trkpt lat="29.551995" lon="103.344969"><ele>2276.6838</ele><time>2026-07-21T09:09:42.000Z</time></trkpt>
        <trkpt lat="29.551998" lon="103.34495"><ele>2276.5068</ele><time>2026-07-21T09:09:44.000Z</time></trkpt>
        <trkpt lat="29.551999" lon="103.344933"><ele>2276.1797</ele><time>2026-07-21T09:09:46.000Z</time></trkpt>
        <trkpt lat="29.551997" lon="103.344917"><ele>2275.7888</ele><time>2026-07-21T09:09:48.000Z</time></trkpt>
        <trkpt lat="29.551993" lon="103.344904"><ele>2276.4026</ele><time>2026-07-21T09:09:50.000Z</time></trkpt>
        <trkpt lat="29.551986" lon="103.344889"><ele>2276.502</ele><time>2026-07-21T09:09:52.000Z</time></trkpt>
        <trkpt lat="29.551977" lon="103.344873"><ele>2276.6716</ele><time>2026-07-21T09:09:54.000Z</time></trkpt>
        <trkpt lat="29.551966" lon="103.344858"><ele>2277.1047</ele><time>2026-07-21T09:09:56.000Z</time></trkpt>
        <trkpt lat="29.551957" lon="103.344845"><ele>2277.1572</ele><time>2026-07-21T09:09:58.000Z</time></trkpt>
        <trkpt lat="29.551949" lon="103.344832"><ele>2276.7405</ele><time>2026-07-21T09:10:00.000Z</time></trkpt>
        <trkpt lat="29.551944" lon="103.344819"><ele>2277.0906</ele><time>2026-07-21T09:10:02.000Z</time></trkpt>
        <trkpt lat="29.551937" lon="103.344807"><ele>2277.5586</ele><time>2026-07-21T09:10:04.000Z</time></trkpt>
        <trkpt lat="29.551929" lon="103.344794"><ele>2277.738</ele><time>2026-07-21T09:10:06.000Z</time></trkpt>
        <trkpt lat="29.551919" lon="103.344779"><ele>2277.5327</ele><time>2026-07-21T09:10:08.000Z</time></trkpt>
        <trkpt lat="29.551908" lon="103.344764"><ele>2277.99</ele><time>2026-07-21T09:10:10.000Z</time></trkpt>
        <trkpt lat="29.551896" lon="103.344747"><ele>2277.077</ele><time>2026-07-21T09:10:12.000Z</time></trkpt>
        <trkpt lat="29.551883" lon="103.344732"><ele>2277.4614</ele><time>2026-07-21T09:10:14.000Z</time></trkpt>
        <trkpt lat="29.551871" lon="103.344717"><ele>2277.2942</ele><time>2026-07-21T09:10:16.000Z</time></trkpt>
        <trkpt lat="29.551861" lon="103.344702"><ele>2277.09</ele><time>2026-07-21T09:10:18.000Z</time></trkpt>
        <trkpt lat="29.551852" lon="103.344687"><ele>2276.5867</ele><time>2026-07-21T09:10:20.000Z</time></trkpt>
        <trkpt lat="29.551842" lon="103.34467"><ele>2276.0015</ele><time>2026-07-21T09:10:22.000Z</time></trkpt>
        <trkpt lat="29.551832" lon="103.344652"><ele>2275.3352</ele><time>2026-07-21T09:10:24.000Z</time></trkpt>
        <trkpt lat="29.551821" lon="103.344633"><ele>2276.1443</ele><time>2026-07-21T09:10:26.000Z</time></trkpt>
        <trkpt lat="29.55181" lon="103.344614"><ele>2275.8862</ele><time>2026-07-21T09:10:28.000Z</time></trkpt>
        <trkpt lat="29.551802" lon="103.344598"><ele>2275.6016</ele><time>2026-07-21T09:10:30.000Z</time></trkpt>
        <trkpt lat="29.551795" lon="103.344582"><ele>2276.4524</ele><time>2026-07-21T09:10:32.000Z</time></trkpt>
        <trkpt lat="29.55179" lon="103.344568"><ele>2276.5342</ele><time>2026-07-21T09:10:34.000Z</time></trkpt>
        <trkpt lat="29.551784" lon="103.344554"><ele>2276.7822</ele><time>2026-07-21T09:10:36.000Z</time></trkpt>
        <trkpt lat="29.551778" lon="103.344541"><ele>2277.016</ele><time>2026-07-21T09:10:38.000Z</time></trkpt>
        <trkpt lat="29.55177" lon="103.344527"><ele>2276.8186</ele><time>2026-07-21T09:10:40.000Z</time></trkpt>
        <trkpt lat="29.551763" lon="103.344515"><ele>2277.0542</ele><time>2026-07-21T09:10:42.000Z</time></trkpt>
        <trkpt lat="29.551756" lon="103.344501"><ele>2277.054</ele><time>2026-07-21T09:10:44.000Z</time></trkpt>
        <trkpt lat="29.551751" lon="103.344487"><ele>2276.6687</ele><time>2026-07-21T09:10:46.000Z</time></trkpt>
        <trkpt lat="29.551746" lon="103.344474"><ele>2277.0415</ele><time>2026-07-21T09:10:48.000Z</time></trkpt>
        <trkpt lat="29.551739" lon="103.344462"><ele>2276.9077</ele><time>2026-07-21T09:10:50.000Z</time></trkpt>
        <trkpt lat="29.551731" lon="103.34445"><ele>2275.9158</ele><time>2026-07-21T09:10:52.000Z</time></trkpt>
        <trkpt lat="29.551721" lon="103.344437"><ele>2275.4158</ele><time>2026-07-21T09:10:54.000Z</time></trkpt>
        <trkpt lat="29.551708" lon="103.344422"><ele>2274.9026</ele><time>2026-07-21T09:10:56.000Z</time></trkpt>
        <trkpt lat="29.551695" lon="103.344407"><ele>2274.8484</ele><time>2026-07-21T09:10:58.000Z</time></trkpt>
        <trkpt lat="29.551679" lon="103.34439"><ele>2275.525</ele><time>2026-07-21T09:11:00.000Z</time></trkpt>
        <trkpt lat="29.551666" lon="103.344375"><ele>2276.2344</ele><time>2026-07-21T09:11:02.000Z</time></trkpt>
        <trkpt lat="29.551653" lon="103.344362"><ele>2276.861</ele><time>2026-07-21T09:11:04.000Z</time></trkpt>
        <trkpt lat="29.551642" lon="103.34435"><ele>2276.1572</ele><time>2026-07-21T09:11:06.000Z</time></trkpt>
        <trkpt lat="29.551632" lon="103.344339"><ele>2276.1294</ele><time>2026-07-21T09:11:08.000Z</time></trkpt>
        <trkpt lat="29.551623" lon="103.344327"><ele>2274.8325</ele><time>2026-07-21T09:11:10.000Z</time></trkpt>
        <trkpt lat="29.551613" lon="103.344316"><ele>2275.5632</ele><time>2026-07-21T09:11:12.000Z</time></trkpt>
        <trkpt lat="29.551602" lon="103.344304"><ele>2274.9978</ele><time>2026-07-21T09:11:14.000Z</time></trkpt>
        <trkpt lat="29.551589" lon="103.344292"><ele>2275.0234</ele><time>2026-07-21T09:11:16.000Z</time></trkpt>
        <trkpt lat="29.551577" lon="103.34428"><ele>2275.212</ele><time>2026-07-21T09:11:18.000Z</time></trkpt>
        <trkpt lat="29.551566" lon="103.344269"><ele>2275.4517</ele><time>2026-07-21T09:11:20.000Z</time></trkpt>
        <trkpt lat="29.551556" lon="103.34426"><ele>2274.9531</ele><time>2026-07-21T09:11:22.000Z</time></trkpt>
        <trkpt lat="29.551547" lon="103.344254"><ele>2274.569</ele><time>2026-07-21T09:11:24.000Z</time></trkpt>
        <trkpt lat="29.551536" lon="103.344246"><ele>2274.0498</ele><time>2026-07-21T09:11:26.000Z</time></trkpt>
        <trkpt lat="29.551526" lon="103.344241"><ele>2273.9766</ele><time>2026-07-21T09:11:28.000Z</time></trkpt>
        <trkpt lat="29.551513" lon="103.344235"><ele>2273.2847</ele><time>2026-07-21T09:11:30.000Z</time></trkpt>
        <trkpt lat="29.551502" lon="103.344231"><ele>2272.3142</ele><time>2026-07-21T09:11:32.000Z</time></trkpt>
        <trkpt lat="29.551489" lon="103.344228"><ele>2272.365</ele><time>2026-07-21T09:11:34.000Z</time></trkpt>
        <trkpt lat="29.551474" lon="103.344224"><ele>2272.0386</ele><time>2026-07-21T09:11:36.000Z</time></trkpt>
        <trkpt lat="29.551457" lon="103.344219"><ele>2271.604</ele><time>2026-07-21T09:11:38.000Z</time></trkpt>
        <trkpt lat="29.551438" lon="103.344215"><ele>2271.15</ele><time>2026-07-21T09:11:40.000Z</time></trkpt>
        <trkpt lat="29.551419" lon="103.344212"><ele>2271.1707</ele><time>2026-07-21T09:11:42.000Z</time></trkpt>
        <trkpt lat="29.551405" lon="103.34421"><ele>2271.2244</ele><time>2026-07-21T09:11:44.000Z</time></trkpt>
        <trkpt lat="29.551389" lon="103.344209"><ele>2271.6292</ele><time>2026-07-21T09:11:46.000Z</time></trkpt>
        <trkpt lat="29.551376" lon="103.344208"><ele>2271.1365</ele><time>2026-07-21T09:11:48.000Z</time></trkpt>
        <trkpt lat="29.551363" lon="103.344207"><ele>2272.4644</ele><time>2026-07-21T09:11:50.000Z</time></trkpt>
        <trkpt lat="29.55135" lon="103.344205"><ele>2273.4326</ele><time>2026-07-21T09:11:52.000Z</time></trkpt>
        <trkpt lat="29.551335" lon="103.344203"><ele>2273.687</ele><time>2026-07-21T09:11:54.000Z</time></trkpt>
        <trkpt lat="29.551319" lon="103.3442"><ele>2274.7505</ele><time>2026-07-21T09:11:56.000Z</time></trkpt>
        <trkpt lat="29.551303" lon="103.344196"><ele>2273.5654</ele><time>2026-07-21T09:11:58.000Z</time></trkpt>
        <trkpt lat="29.551287" lon="103.344192"><ele>2272.483</ele><time>2026-07-21T09:12:00.000Z</time></trkpt>
        <trkpt lat="29.551271" lon="103.344188"><ele>2271.8179</ele><time>2026-07-21T09:12:02.000Z</time></trkpt>
        <trkpt lat="29.551257" lon="103.344186"><ele>2271.7964</ele><time>2026-07-21T09:12:04.000Z</time></trkpt>
        <trkpt lat="29.551242" lon="103.344185"><ele>2271.3645</ele><time>2026-07-21T09:12:06.000Z</time></trkpt>
        <trkpt lat="29.551223" lon="103.344184"><ele>2270.4204</ele><time>2026-07-21T09:12:08.000Z</time></trkpt>
        <trkpt lat="29.551205" lon="103.344184"><ele>2270.5417</ele><time>2026-07-21T09:12:10.000Z</time></trkpt>
        <trkpt lat="29.551186" lon="103.344186"><ele>2270.0151</ele><time>2026-07-21T09:12:12.000Z</time></trkpt>
        <trkpt lat="29.55117" lon="103.344188"><ele>2270.1213</ele><time>2026-07-21T09:12:14.000Z</time></trkpt>
        <trkpt lat="29.551154" lon="103.344191"><ele>2269.4275</ele><time>2026-07-21T09:12:16.000Z</time></trkpt>
        <trkpt lat="29.551138" lon="103.344194"><ele>2269.5908</ele><time>2026-07-21T09:12:18.000Z</time></trkpt>
        <trkpt lat="29.551125" lon="103.344193"><ele>2270.016</ele><time>2026-07-21T09:12:20.000Z</time></trkpt>
        <trkpt lat="29.551113" lon="103.34419"><ele>2269.7588</ele><time>2026-07-21T09:12:22.000Z</time></trkpt>
        <trkpt lat="29.551102" lon="103.344184"><ele>2269.8425</ele><time>2026-07-21T09:12:24.000Z</time></trkpt>
        <trkpt lat="29.551095" lon="103.344179"><ele>2269.1438</ele><time>2026-07-21T09:12:26.000Z</time></trkpt>
        <trkpt lat="29.551085" lon="103.344172"><ele>2268.9539</ele><time>2026-07-21T09:12:28.000Z</time></trkpt>
        <trkpt lat="29.551071" lon="103.344164"><ele>2269.3523</ele><time>2026-07-21T09:12:30.000Z</time></trkpt>
        <trkpt lat="29.551054" lon="103.344154"><ele>2268.9963</ele><time>2026-07-21T09:12:32.000Z</time></trkpt>
        <trkpt lat="29.551037" lon="103.344145"><ele>2269.3247</ele><time>2026-07-21T09:12:34.000Z</time></trkpt>
        <trkpt lat="29.551022" lon="103.344139"><ele>2269.1094</ele><time>2026-07-21T09:12:36.000Z</time></trkpt>
        <trkpt lat="29.551004" lon="103.344134"><ele>2269.5447</ele><time>2026-07-21T09:12:38.000Z</time></trkpt>
        <trkpt lat="29.550984" lon="103.344131"><ele>2269.4236</ele><time>2026-07-21T09:12:40.000Z</time></trkpt>
        <trkpt lat="29.55096" lon="103.344129"><ele>2269.3367</ele><time>2026-07-21T09:12:42.000Z</time></trkpt>
        <trkpt lat="29.550941" lon="103.344129"><ele>2268.8875</ele><time>2026-07-21T09:12:44.000Z</time></trkpt>
        <trkpt lat="29.550923" lon="103.344129"><ele>2269.4734</ele><time>2026-07-21T09:12:46.000Z</time></trkpt>
        <trkpt lat="29.550907" lon="103.34413"><ele>2269.6</ele><time>2026-07-21T09:12:48.000Z</time></trkpt>
        <trkpt lat="29.550893" lon="103.344129"><ele>2270.0427</ele><time>2026-07-21T09:12:50.000Z</time></trkpt>
        <trkpt lat="29.550879" lon="103.344126"><ele>2270.634</ele><time>2026-07-21T09:12:52.000Z</time></trkpt>
        <trkpt lat="29.550865" lon="103.344123"><ele>2272.2544</ele><time>2026-07-21T09:12:54.000Z</time></trkpt>
        <trkpt lat="29.550852" lon="103.344118"><ele>2273.0007</ele><time>2026-07-21T09:12:56.000Z</time></trkpt>
        <trkpt lat="29.55084" lon="103.344114"><ele>2273.919</ele><time>2026-07-21T09:12:58.000Z</time></trkpt>
        <trkpt lat="29.55083" lon="103.344111"><ele>2273.9534</ele><time>2026-07-21T09:13:00.000Z</time></trkpt>
        <trkpt lat="29.550817" lon="103.344106"><ele>2273.9773</ele><time>2026-07-21T09:13:02.000Z</time></trkpt>
        <trkpt lat="29.550808" lon="103.3441"><ele>2272.1155</ele><time>2026-07-21T09:13:04.000Z</time></trkpt>
        <trkpt lat="29.550797" lon="103.344094"><ele>2271.1895</ele><time>2026-07-21T09:13:06.000Z</time></trkpt>
        <trkpt lat="29.550784" lon="103.344087"><ele>2269.667</ele><time>2026-07-21T09:13:08.000Z</time></trkpt>
        <trkpt lat="29.550773" lon="103.344078"><ele>2270.1077</ele><time>2026-07-21T09:13:10.000Z</time></trkpt>
        <trkpt lat="29.550765" lon="103.344068"><ele>2268.1157</ele><time>2026-07-21T09:13:12.000Z</time></trkpt>
        <trkpt lat="29.550762" lon="103.344058"><ele>2267.125</ele><time>2026-07-21T09:13:14.000Z</time></trkpt>
        <trkpt lat="29.55076" lon="103.344045"><ele>2267.139</ele><time>2026-07-21T09:13:16.000Z</time></trkpt>
        <trkpt lat="29.55076" lon="103.344032"><ele>2268.4172</ele><time>2026-07-21T09:13:18.000Z</time></trkpt>
        <trkpt lat="29.55076" lon="103.344022"><ele>2268.8977</ele><time>2026-07-21T09:13:20.000Z</time></trkpt>
        <trkpt lat="29.550756" lon="103.344012"><ele>2269.083</ele><time>2026-07-21T09:13:22.000Z</time></trkpt>
        <trkpt lat="29.550745" lon="103.343989"><ele>2268.9124</ele><time>2026-07-21T09:13:26.000Z</time></trkpt>
        <trkpt lat="29.550736" lon="103.343976"><ele>2270.1584</ele><time>2026-07-21T09:13:28.000Z</time></trkpt>
        <trkpt lat="29.550726" lon="103.343964"><ele>2270.7412</ele><time>2026-07-21T09:13:30.000Z</time></trkpt>
        <trkpt lat="29.550715" lon="103.343954"><ele>2271.6206</ele><time>2026-07-21T09:13:32.000Z</time></trkpt>
        <trkpt lat="29.550703" lon="103.343944"><ele>2272.0962</ele><time>2026-07-21T09:13:34.000Z</time></trkpt>
        <trkpt lat="29.550693" lon="103.343937"><ele>2272.4045</ele><time>2026-07-21T09:13:36.000Z</time></trkpt>
        <trkpt lat="29.550682" lon="103.343929"><ele>2272.3225</ele><time>2026-07-21T09:13:38.000Z</time></trkpt>
        <trkpt lat="29.550673" lon="103.343925"><ele>2273.2083</ele><time>2026-07-21T09:13:40.000Z</time></trkpt>
        <trkpt lat="29.550663" lon="103.343921"><ele>2273.4673</ele><time>2026-07-21T09:13:42.000Z</time></trkpt>
        <trkpt lat="29.55065" lon="103.343917"><ele>2273.3877</ele><time>2026-07-21T09:13:44.000Z</time></trkpt>
        <trkpt lat="29.550636" lon="103.343911"><ele>2273.3774</ele><time>2026-07-21T09:13:46.000Z</time></trkpt>
        <trkpt lat="29.55062" lon="103.343903"><ele>2273.0217</ele><time>2026-07-21T09:13:48.000Z</time></trkpt>
        <trkpt lat="29.550604" lon="103.343892"><ele>2272.4373</ele><time>2026-07-21T09:13:50.000Z</time></trkpt>
        <trkpt lat="29.550589" lon="103.343878"><ele>2272.199</ele><time>2026-07-21T09:13:52.000Z</time></trkpt>
        <trkpt lat="29.550575" lon="103.343862"><ele>2272.4053</ele><time>2026-07-21T09:13:54.000Z</time></trkpt>
        <trkpt lat="29.550563" lon="103.343846"><ele>2272.6348</ele><time>2026-07-21T09:13:56.000Z</time></trkpt>
        <trkpt lat="29.550551" lon="103.343831"><ele>2271.144</ele><time>2026-07-21T09:13:58.000Z</time></trkpt>
        <trkpt lat="29.550538" lon="103.343815"><ele>2271.5818</ele><time>2026-07-21T09:14:00.000Z</time></trkpt>
        <trkpt lat="29.550526" lon="103.343798"><ele>2272.383</ele><time>2026-07-21T09:14:02.000Z</time></trkpt>
        <trkpt lat="29.550514" lon="103.343782"><ele>2272.7632</ele><time>2026-07-21T09:14:04.000Z</time></trkpt>
        <trkpt lat="29.550499" lon="103.343764"><ele>2273.377</ele><time>2026-07-21T09:14:06.000Z</time></trkpt>
        <trkpt lat="29.550484" lon="103.343747"><ele>2273.2239</ele><time>2026-07-21T09:14:08.000Z</time></trkpt>
        <trkpt lat="29.550468" lon="103.34373"><ele>2273.3906</ele><time>2026-07-21T09:14:10.000Z</time></trkpt>
        <trkpt lat="29.550452" lon="103.343715"><ele>2272.8857</ele><time>2026-07-21T09:14:12.000Z</time></trkpt>
        <trkpt lat="29.550437" lon="103.343701"><ele>2272.7483</ele><time>2026-07-21T09:14:14.000Z</time></trkpt>
        <trkpt lat="29.550423" lon="103.343689"><ele>2272.3657</ele><time>2026-07-21T09:14:16.000Z</time></trkpt>
        <trkpt lat="29.55041" lon="103.343677"><ele>2271.2368</ele><time>2026-07-21T09:14:18.000Z</time></trkpt>
        <trkpt lat="29.550398" lon="103.343666"><ele>2271.4607</ele><time>2026-07-21T09:14:20.000Z</time></trkpt>
        <trkpt lat="29.550387" lon="103.343656"><ele>2270.379</ele><time>2026-07-21T09:14:22.000Z</time></trkpt>
        <trkpt lat="29.550374" lon="103.343646"><ele>2270.1252</ele><time>2026-07-21T09:14:24.000Z</time></trkpt>
        <trkpt lat="29.55036" lon="103.343634"><ele>2270.5637</ele><time>2026-07-21T09:14:26.000Z</time></trkpt>
        <trkpt lat="29.550346" lon="103.343622"><ele>2270.7385</ele><time>2026-07-21T09:14:28.000Z</time></trkpt>
        <trkpt lat="29.550335" lon="103.343611"><ele>2270.716</ele><time>2026-07-21T09:14:30.000Z</time></trkpt>
        <trkpt lat="29.550323" lon="103.3436"><ele>2271.6348</ele><time>2026-07-21T09:14:32.000Z</time></trkpt>
        <trkpt lat="29.550314" lon="103.343589"><ele>2272.4917</ele><time>2026-07-21T09:14:34.000Z</time></trkpt>
        <trkpt lat="29.550306" lon="103.343577"><ele>2272.0403</ele><time>2026-07-21T09:14:36.000Z</time></trkpt>
        <trkpt lat="29.550299" lon="103.343563"><ele>2272.2588</ele><time>2026-07-21T09:14:38.000Z</time></trkpt>
        <trkpt lat="29.550294" lon="103.343546"><ele>2273.1628</ele><time>2026-07-21T09:14:40.000Z</time></trkpt>
        <trkpt lat="29.550289" lon="103.343529"><ele>2273.4402</ele><time>2026-07-21T09:14:42.000Z</time></trkpt>
        <trkpt lat="29.550284" lon="103.343511"><ele>2273.3496</ele><time>2026-07-21T09:14:44.000Z</time></trkpt>
        <trkpt lat="29.550279" lon="103.343496"><ele>2273.6204</ele><time>2026-07-21T09:14:46.000Z</time></trkpt>
        <trkpt lat="29.550277" lon="103.343481"><ele>2273.7144</ele><time>2026-07-21T09:14:48.000Z</time></trkpt>
        <trkpt lat="29.550276" lon="103.343463"><ele>2274.0544</ele><time>2026-07-21T09:14:50.000Z</time></trkpt>
        <trkpt lat="29.550275" lon="103.343446"><ele>2273.6895</ele><time>2026-07-21T09:14:52.000Z</time></trkpt>
        <trkpt lat="29.550271" lon="103.343427"><ele>2273.8506</ele><time>2026-07-21T09:14:54.000Z</time></trkpt>
        <trkpt lat="29.550265" lon="103.343409"><ele>2273.9077</ele><time>2026-07-21T09:14:56.000Z</time></trkpt>
        <trkpt lat="29.55026" lon="103.343391"><ele>2274.1536</ele><time>2026-07-21T09:14:58.000Z</time></trkpt>
        <trkpt lat="29.550253" lon="103.343372"><ele>2274.7412</ele><time>2026-07-21T09:15:00.000Z</time></trkpt>
        <trkpt lat="29.550244" lon="103.343352"><ele>2274.694</ele><time>2026-07-21T09:15:02.000Z</time></trkpt>
        <trkpt lat="29.550232" lon="103.343332"><ele>2275.0374</ele><time>2026-07-21T09:15:04.000Z</time></trkpt>
        <trkpt lat="29.550219" lon="103.343312"><ele>2275.2505</ele><time>2026-07-21T09:15:06.000Z</time></trkpt>
        <trkpt lat="29.550205" lon="103.343294"><ele>2274.733</ele><time>2026-07-21T09:15:08.000Z</time></trkpt>
        <trkpt lat="29.550189" lon="103.343275"><ele>2274.529</ele><time>2026-07-21T09:15:10.000Z</time></trkpt>
        <trkpt lat="29.550172" lon="103.343258"><ele>2274.5818</ele><time>2026-07-21T09:15:12.000Z</time></trkpt>
        <trkpt lat="29.550155" lon="103.343243"><ele>2274.2295</ele><time>2026-07-21T09:15:14.000Z</time></trkpt>
        <trkpt lat="29.550142" lon="103.343231"><ele>2273.2402</ele><time>2026-07-21T09:15:16.000Z</time></trkpt>
        <trkpt lat="29.550128" lon="103.343219"><ele>2273.7988</ele><time>2026-07-21T09:15:18.000Z</time></trkpt>
        <trkpt lat="29.550113" lon="103.343208"><ele>2273.607</ele><time>2026-07-21T09:15:20.000Z</time></trkpt>
        <trkpt lat="29.550099" lon="103.343197"><ele>2273.1682</ele><time>2026-07-21T09:15:22.000Z</time></trkpt>
        <trkpt lat="29.550087" lon="103.343189"><ele>2273.834</ele><time>2026-07-21T09:15:24.000Z</time></trkpt>
        <trkpt lat="29.550075" lon="103.343179"><ele>2273.6143</ele><time>2026-07-21T09:15:26.000Z</time></trkpt>
        <trkpt lat="29.550064" lon="103.34317"><ele>2273.5198</ele><time>2026-07-21T09:15:28.000Z</time></trkpt>
        <trkpt lat="29.550051" lon="103.343159"><ele>2273.353</ele><time>2026-07-21T09:15:30.000Z</time></trkpt>
        <trkpt lat="29.55004" lon="103.343149"><ele>2273.405</ele><time>2026-07-21T09:15:32.000Z</time></trkpt>
        <trkpt lat="29.550029" lon="103.343136"><ele>2274.0935</ele><time>2026-07-21T09:15:34.000Z</time></trkpt>
        <trkpt lat="29.550018" lon="103.343122"><ele>2274.1853</ele><time>2026-07-21T09:15:36.000Z</time></trkpt>
        <trkpt lat="29.550009" lon="103.343108"><ele>2273.5093</ele><time>2026-07-21T09:15:38.000Z</time></trkpt>
        <trkpt lat="29.55" lon="103.343094"><ele>2273.4043</ele><time>2026-07-21T09:15:40.000Z</time></trkpt>
        <trkpt lat="29.54999" lon="103.343078"><ele>2273.5757</ele><time>2026-07-21T09:15:42.000Z</time></trkpt>
        <trkpt lat="29.549979" lon="103.343059"><ele>2273.9001</ele><time>2026-07-21T09:15:44.000Z</time></trkpt>
        <trkpt lat="29.549968" lon="103.343041"><ele>2274.3032</ele><time>2026-07-21T09:15:46.000Z</time></trkpt>
        <trkpt lat="29.549957" lon="103.343022"><ele>2274.6082</ele><time>2026-07-21T09:15:48.000Z</time></trkpt>
        <trkpt lat="29.549945" lon="103.343004"><ele>2274.9512</ele><time>2026-07-21T09:15:50.000Z</time></trkpt>
        <trkpt lat="29.549934" lon="103.342987"><ele>2274.3015</ele><time>2026-07-21T09:15:52.000Z</time></trkpt>
        <trkpt lat="29.549923" lon="103.342972"><ele>2274.7402</ele><time>2026-07-21T09:15:54.000Z</time></trkpt>
        <trkpt lat="29.549913" lon="103.342959"><ele>2274.2192</ele><time>2026-07-21T09:15:56.000Z</time></trkpt>
        <trkpt lat="29.549905" lon="103.342945"><ele>2274.73</ele><time>2026-07-21T09:15:58.000Z</time></trkpt>
        <trkpt lat="29.549897" lon="103.342929"><ele>2275.116</ele><time>2026-07-21T09:16:00.000Z</time></trkpt>
        <trkpt lat="29.549888" lon="103.342914"><ele>2275.2993</ele><time>2026-07-21T09:16:02.000Z</time></trkpt>
        <trkpt lat="29.54988" lon="103.342898"><ele>2275.159</ele><time>2026-07-21T09:16:04.000Z</time></trkpt>
        <trkpt lat="29.549871" lon="103.342883"><ele>2275.0652</ele><time>2026-07-21T09:16:06.000Z</time></trkpt>
        <trkpt lat="29.549862" lon="103.342864"><ele>2275.9417</ele><time>2026-07-21T09:16:08.000Z</time></trkpt>
        <trkpt lat="29.549855" lon="103.342848"><ele>2275.856</ele><time>2026-07-21T09:16:10.000Z</time></trkpt>
        <trkpt lat="29.549849" lon="103.342832"><ele>2275.6316</ele><time>2026-07-21T09:16:12.000Z</time></trkpt>
        <trkpt lat="29.549841" lon="103.342816"><ele>2275.506</ele><time>2026-07-21T09:16:14.000Z</time></trkpt>
        <trkpt lat="29.549834" lon="103.342801"><ele>2276.3572</ele><time>2026-07-21T09:16:16.000Z</time></trkpt>
        <trkpt lat="29.549826" lon="103.342784"><ele>2276.4846</ele><time>2026-07-21T09:16:18.000Z</time></trkpt>
        <trkpt lat="29.549817" lon="103.342768"><ele>2277.1914</ele><time>2026-07-21T09:16:20.000Z</time></trkpt>
        <trkpt lat="29.549809" lon="103.342752"><ele>2276.7505</ele><time>2026-07-21T09:16:22.000Z</time></trkpt>
        <trkpt lat="29.5498" lon="103.342737"><ele>2277.6018</ele><time>2026-07-21T09:16:24.000Z</time></trkpt>
        <trkpt lat="29.549791" lon="103.342723"><ele>2278.3584</ele><time>2026-07-21T09:16:26.000Z</time></trkpt>
        <trkpt lat="29.549781" lon="103.342708"><ele>2278.7693</ele><time>2026-07-21T09:16:28.000Z</time></trkpt>
        <trkpt lat="29.549772" lon="103.342692"><ele>2278.8398</ele><time>2026-07-21T09:16:30.000Z</time></trkpt>
        <trkpt lat="29.549763" lon="103.342675"><ele>2279.0784</ele><time>2026-07-21T09:16:32.000Z</time></trkpt>
        <trkpt lat="29.549753" lon="103.342657"><ele>2279.1123</ele><time>2026-07-21T09:16:34.000Z</time></trkpt>
        <trkpt lat="29.549743" lon="103.342637"><ele>2278.192</ele><time>2026-07-21T09:16:36.000Z</time></trkpt>
        <trkpt lat="29.549732" lon="103.34262"><ele>2278.3445</ele><time>2026-07-21T09:16:38.000Z</time></trkpt>
        <trkpt lat="29.549722" lon="103.342604"><ele>2277.2456</ele><time>2026-07-21T09:16:40.000Z</time></trkpt>
        <trkpt lat="29.54971" lon="103.342587"><ele>2277.952</ele><time>2026-07-21T09:16:42.000Z</time></trkpt>
        <trkpt lat="29.549699" lon="103.342569"><ele>2277.7747</ele><time>2026-07-21T09:16:44.000Z</time></trkpt>
        <trkpt lat="29.549687" lon="103.342552"><ele>2278.5916</ele><time>2026-07-21T09:16:46.000Z</time></trkpt>
        <trkpt lat="29.549676" lon="103.342536"><ele>2278.812</ele><time>2026-07-21T09:16:48.000Z</time></trkpt>
        <trkpt lat="29.549664" lon="103.342521"><ele>2278.4985</ele><time>2026-07-21T09:16:50.000Z</time></trkpt>
        <trkpt lat="29.549651" lon="103.342507"><ele>2278.3718</ele><time>2026-07-21T09:16:52.000Z</time></trkpt>
        <trkpt lat="29.549637" lon="103.34249"><ele>2278.4944</ele><time>2026-07-21T09:16:54.000Z</time></trkpt>
        <trkpt lat="29.549625" lon="103.342474"><ele>2279.0671</ele><time>2026-07-21T09:16:56.000Z</time></trkpt>
        <trkpt lat="29.549612" lon="103.342459"><ele>2278.9526</ele><time>2026-07-21T09:16:58.000Z</time></trkpt>
        <trkpt lat="29.549599" lon="103.342443"><ele>2278.724</ele><time>2026-07-21T09:17:00.000Z</time></trkpt>
        <trkpt lat="29.549587" lon="103.34243"><ele>2279.4546</ele><time>2026-07-21T09:17:02.000Z</time></trkpt>
        <trkpt lat="29.549574" lon="103.342416"><ele>2278.6853</ele><time>2026-07-21T09:17:04.000Z</time></trkpt>
        <trkpt lat="29.549563" lon="103.342405"><ele>2278.8423</ele><time>2026-07-21T09:17:06.000Z</time></trkpt>
        <trkpt lat="29.549551" lon="103.342394"><ele>2277.7554</ele><time>2026-07-21T09:17:08.000Z</time></trkpt>
        <trkpt lat="29.549538" lon="103.342382"><ele>2278.162</ele><time>2026-07-21T09:17:10.000Z</time></trkpt>
        <trkpt lat="29.549529" lon="103.342371"><ele>2278.3708</ele><time>2026-07-21T09:17:12.000Z</time></trkpt>
        <trkpt lat="29.549518" lon="103.342359"><ele>2278.5906</ele><time>2026-07-21T09:17:14.000Z</time></trkpt>
        <trkpt lat="29.549505" lon="103.342344"><ele>2278.0386</ele><time>2026-07-21T09:17:16.000Z</time></trkpt>
        <trkpt lat="29.549492" lon="103.34233"><ele>2278.5334</ele><time>2026-07-21T09:17:18.000Z</time></trkpt>
        <trkpt lat="29.549478" lon="103.342315"><ele>2278.4277</ele><time>2026-07-21T09:17:20.000Z</time></trkpt>
        <trkpt lat="29.549465" lon="103.3423"><ele>2278.6301</ele><time>2026-07-21T09:17:22.000Z</time></trkpt>
        <trkpt lat="29.549455" lon="103.342286"><ele>2279.7856</ele><time>2026-07-21T09:17:24.000Z</time></trkpt>
        <trkpt lat="29.549444" lon="103.342272"><ele>2280.1917</ele><time>2026-07-21T09:17:26.000Z</time></trkpt>
        <trkpt lat="29.549434" lon="103.342255"><ele>2279.754</ele><time>2026-07-21T09:17:28.000Z</time></trkpt>
        <trkpt lat="29.549422" lon="103.342236"><ele>2280.0605</ele><time>2026-07-21T09:17:30.000Z</time></trkpt>
        <trkpt lat="29.549412" lon="103.342217"><ele>2279.976</ele><time>2026-07-21T09:17:32.000Z</time></trkpt>
        <trkpt lat="29.549402" lon="103.342199"><ele>2279.5745</ele><time>2026-07-21T09:17:34.000Z</time></trkpt>
        <trkpt lat="29.549395" lon="103.342184"><ele>2280.2092</ele><time>2026-07-21T09:17:36.000Z</time></trkpt>
        <trkpt lat="29.549389" lon="103.342172"><ele>2278.9595</ele><time>2026-07-21T09:17:38.000Z</time></trkpt>
        <trkpt lat="29.549384" lon="103.342158"><ele>2278.2107</ele><time>2026-07-21T09:17:40.000Z</time></trkpt>
        <trkpt lat="29.549379" lon="103.342148"><ele>2278.238</ele><time>2026-07-21T09:17:42.000Z</time></trkpt>
        <trkpt lat="29.549376" lon="103.342139"><ele>2279.2444</ele><time>2026-07-21T09:17:44.000Z</time></trkpt>
        <trkpt lat="29.549367" lon="103.342111"><ele>2279.9504</ele><time>2026-07-21T09:17:48.000Z</time></trkpt>
        <trkpt lat="29.549363" lon="103.342094"><ele>2280.163</ele><time>2026-07-21T09:17:50.000Z</time></trkpt>
        <trkpt lat="29.54936" lon="103.342074"><ele>2280.163</ele><time>2026-07-21T09:17:52.000Z</time></trkpt>
        <trkpt lat="29.549358" lon="103.342056"><ele>2280.6797</ele><time>2026-07-21T09:17:54.000Z</time></trkpt>
        <trkpt lat="29.549356" lon="103.342037"><ele>2280.476</ele><time>2026-07-21T09:17:56.000Z</time></trkpt>
        <trkpt lat="29.549355" lon="103.342017"><ele>2280.2388</ele><time>2026-07-21T09:17:58.000Z</time></trkpt>
        <trkpt lat="29.549352" lon="103.341996"><ele>2280.2185</ele><time>2026-07-21T09:18:00.000Z</time></trkpt>
        <trkpt lat="29.549351" lon="103.341979"><ele>2281.2102</ele><time>2026-07-21T09:18:02.000Z</time></trkpt>
        <trkpt lat="29.549348" lon="103.341963"><ele>2281.0015</ele><time>2026-07-21T09:18:04.000Z</time></trkpt>
        <trkpt lat="29.549346" lon="103.341948"><ele>2281.638</ele><time>2026-07-21T09:18:06.000Z</time></trkpt>
        <trkpt lat="29.549344" lon="103.341931"><ele>2281.3967</ele><time>2026-07-21T09:18:08.000Z</time></trkpt>
        <trkpt lat="29.549343" lon="103.341916"><ele>2281.2915</ele><time>2026-07-21T09:18:10.000Z</time></trkpt>
        <trkpt lat="29.549341" lon="103.341902"><ele>2281.4119</ele><time>2026-07-21T09:18:12.000Z</time></trkpt>
        <trkpt lat="29.54934" lon="103.341887"><ele>2281.066</ele><time>2026-07-21T09:18:14.000Z</time></trkpt>
        <trkpt lat="29.549337" lon="103.341871"><ele>2281.5464</ele><time>2026-07-21T09:18:16.000Z</time></trkpt>
        <trkpt lat="29.549331" lon="103.341856"><ele>2281.66</ele><time>2026-07-21T09:18:18.000Z</time></trkpt>
        <trkpt lat="29.549325" lon="103.341847"><ele>2281.3628</ele><time>2026-07-21T09:18:20.000Z</time></trkpt>
        <trkpt lat="29.54932" lon="103.34184"><ele>2281.032</ele><time>2026-07-21T09:18:22.000Z</time></trkpt>
        <trkpt lat="29.549313" lon="103.341829"><ele>2281.608</ele><time>2026-07-21T09:18:28.000Z</time></trkpt>
        <trkpt lat="29.549308" lon="103.341817"><ele>2280.3167</ele><time>2026-07-21T09:18:38.000Z</time></trkpt>
        <trkpt lat="29.5493" lon="103.341798"><ele>2279.904</ele><time>2026-07-21T09:18:40.000Z</time></trkpt>
        <trkpt lat="29.5493" lon="103.341797"><ele>2280.2383</ele><time>2026-07-21T09:18:42.000Z</time></trkpt>
        <trkpt lat="29.549293" lon="103.341777"><ele>2278.9668</ele><time>2026-07-21T09:18:54.000Z</time></trkpt>
        <trkpt lat="29.549286" lon="103.341745"><ele>2278.2976</ele><time>2026-07-21T09:19:29.000Z</time></trkpt>
        <trkpt lat="29.549278" lon="103.341712"><ele>2278.2708</ele><time>2026-07-21T09:19:31.000Z</time></trkpt>
        <trkpt lat="29.549272" lon="103.341691"><ele>2278.4062</ele><time>2026-07-21T09:19:33.000Z</time></trkpt>
        <trkpt lat="29.549264" lon="103.341663"><ele>2278.7612</ele><time>2026-07-21T09:19:36.000Z</time></trkpt>
        <trkpt lat="29.549264" lon="103.341662"><ele>2279.1687</ele><time>2026-07-21T09:19:38.000Z</time></trkpt>
        <trkpt lat="29.549261" lon="103.34165"><ele>2279.1245</ele><time>2026-07-21T09:19:42.000Z</time></trkpt>
        <trkpt lat="29.549252" lon="103.341609"><ele>2278.8516</ele><time>2026-07-21T09:19:46.000Z</time></trkpt>
        <trkpt lat="29.549248" lon="103.341585"><ele>2279.1104</ele><time>2026-07-21T09:19:48.000Z</time></trkpt>
        <trkpt lat="29.549245" lon="103.341561"><ele>2279.727</ele><time>2026-07-21T09:19:50.000Z</time></trkpt>
        <trkpt lat="29.549243" lon="103.341547"><ele>2280.8367</ele><time>2026-07-21T09:19:52.000Z</time></trkpt>
        <trkpt lat="29.549243" lon="103.341536"><ele>2280.8376</ele><time>2026-07-21T09:19:54.000Z</time></trkpt>
        <trkpt lat="29.549243" lon="103.341527"><ele>2281.3914</ele><time>2026-07-21T09:19:56.000Z</time></trkpt>
        <trkpt lat="29.549243" lon="103.34151"><ele>2282.7668</ele><time>2026-07-21T09:20:00.000Z</time></trkpt>
        <trkpt lat="29.549243" lon="103.341497"><ele>2283.547</ele><time>2026-07-21T09:20:04.000Z</time></trkpt>
        <trkpt lat="29.549243" lon="103.34149"><ele>2283.831</ele><time>2026-07-21T09:20:06.000Z</time></trkpt>
        <trkpt lat="29.549239" lon="103.341472"><ele>2284.907</ele><time>2026-07-21T09:20:10.000Z</time></trkpt>
        <trkpt lat="29.549232" lon="103.341443"><ele>2284.9656</ele><time>2026-07-21T09:20:12.000Z</time></trkpt>
        <trkpt lat="29.549232" lon="103.341441"><ele>2285.474</ele><time>2026-07-21T09:20:14.000Z</time></trkpt>
        <trkpt lat="29.549229" lon="103.341433"><ele>2287.432</ele><time>2026-07-21T09:20:18.000Z</time></trkpt>
        <trkpt lat="29.549219" lon="103.341398"><ele>2286.7058</ele><time>2026-07-21T09:20:22.000Z</time></trkpt>
        <trkpt lat="29.549219" lon="103.341398"><ele>2286.614</ele><time>2026-07-21T09:20:24.000Z</time></trkpt>
        <trkpt lat="29.549219" lon="103.341398"><ele>2286.8918</ele><time>2026-07-21T09:20:26.000Z</time></trkpt>
        <trkpt lat="29.549187" lon="103.341372"><ele>2288.736</ele><time>2026-07-21T09:20:36.000Z</time></trkpt>
        <trkpt lat="29.549174" lon="103.341362"><ele>2288.8843</ele><time>2026-07-21T09:20:38.000Z</time></trkpt>
        <trkpt lat="29.549174" lon="103.341361"><ele>2288.9258</ele><time>2026-07-21T09:20:40.000Z</time></trkpt>
        <trkpt lat="29.549149" lon="103.341337"><ele>2288.3909</ele><time>2026-07-21T09:20:46.000Z</time></trkpt>
        <trkpt lat="29.549136" lon="103.341322"><ele>2289.0957</ele><time>2026-07-21T09:20:48.000Z</time></trkpt>
        <trkpt lat="29.549125" lon="103.341307"><ele>2289.244</ele><time>2026-07-21T09:20:50.000Z</time></trkpt>
        <trkpt lat="29.549112" lon="103.341294"><ele>2288.7275</ele><time>2026-07-21T09:20:52.000Z</time></trkpt>
        <trkpt lat="29.5491" lon="103.341283"><ele>2288.4375</ele><time>2026-07-21T09:20:54.000Z</time></trkpt>
        <trkpt lat="29.549091" lon="103.341273"><ele>2288.7886</ele><time>2026-07-21T09:20:56.000Z</time></trkpt>
        <trkpt lat="29.549086" lon="103.341264"><ele>2289.1506</ele><time>2026-07-21T09:20:58.000Z</time></trkpt>
        <trkpt lat="29.549083" lon="103.341255"><ele>2289.0444</ele><time>2026-07-21T09:21:00.000Z</time></trkpt>
        <trkpt lat="29.549075" lon="103.341235"><ele>2289.2766</ele><time>2026-07-21T09:21:04.000Z</time></trkpt>
        <trkpt lat="29.54907" lon="103.341225"><ele>2289.2922</ele><time>2026-07-21T09:21:06.000Z</time></trkpt>
        <trkpt lat="29.549066" lon="103.341216"><ele>2290.3535</ele><time>2026-07-21T09:21:08.000Z</time></trkpt>
        <trkpt lat="29.54906" lon="103.341204"><ele>2290.3784</ele><time>2026-07-21T09:21:12.000Z</time></trkpt>
        <trkpt lat="29.549053" lon="103.341198"><ele>2292.4592</ele><time>2026-07-21T09:21:20.000Z</time></trkpt>
        <trkpt lat="29.54904" lon="103.341194"><ele>2292.102</ele><time>2026-07-21T09:21:24.000Z</time></trkpt>
        <trkpt lat="29.549025" lon="103.341189"><ele>2292.2483</ele><time>2026-07-21T09:21:26.000Z</time></trkpt>
        <trkpt lat="29.549022" lon="103.341188"><ele>2291.9185</ele><time>2026-07-21T09:21:30.000Z</time></trkpt>
        <trkpt lat="29.548992" lon="103.341182"><ele>2291.5232</ele><time>2026-07-21T09:21:34.000Z</time></trkpt>
        <trkpt lat="29.548968" lon="103.341177"><ele>2292.563</ele><time>2026-07-21T09:21:36.000Z</time></trkpt>
        <trkpt lat="29.548953" lon="103.341172"><ele>2293.6543</ele><time>2026-07-21T09:21:38.000Z</time></trkpt>
        <trkpt lat="29.548938" lon="103.341167"><ele>2293.7405</ele><time>2026-07-21T09:21:40.000Z</time></trkpt>
        <trkpt lat="29.548928" lon="103.341164"><ele>2294.611</ele><time>2026-07-21T09:21:42.000Z</time></trkpt>
        <trkpt lat="29.548923" lon="103.341163"><ele>2294.9697</ele><time>2026-07-21T09:21:44.000Z</time></trkpt>
        <trkpt lat="29.548907" lon="103.34116"><ele>2294.7856</ele><time>2026-07-21T09:21:48.000Z</time></trkpt>
        <trkpt lat="29.548893" lon="103.341157"><ele>2295.418</ele><time>2026-07-21T09:21:50.000Z</time></trkpt>
        <trkpt lat="29.548892" lon="103.341157"><ele>2296.3374</ele><time>2026-07-21T09:21:52.000Z</time></trkpt>
        <trkpt lat="29.548869" lon="103.341159"><ele>2296.3728</ele><time>2026-07-21T09:22:00.000Z</time></trkpt>
        <trkpt lat="29.548857" lon="103.341161"><ele>2297.3005</ele><time>2026-07-21T09:22:02.000Z</time></trkpt>
        <trkpt lat="29.548856" lon="103.341161"><ele>2297.3005</ele><time>2026-07-21T09:22:04.000Z</time></trkpt>
        <trkpt lat="29.548811" lon="103.341164"><ele>2302.0112</ele><time>2026-07-21T09:22:59.000Z</time></trkpt>
        <trkpt lat="29.548792" lon="103.341165"><ele>2302.249</ele><time>2026-07-21T09:23:02.000Z</time></trkpt>
        <trkpt lat="29.548792" lon="103.341165"><ele>2302.7383</ele><time>2026-07-21T09:23:04.000Z</time></trkpt>
        <trkpt lat="29.548775" lon="103.341168"><ele>2303.1829</ele><time>2026-07-21T09:23:10.000Z</time></trkpt>
        <trkpt lat="29.548761" lon="103.341171"><ele>2303.8894</ele><time>2026-07-21T09:23:12.000Z</time></trkpt>
        <trkpt lat="29.548747" lon="103.341172"><ele>2303.7773</ele><time>2026-07-21T09:23:14.000Z</time></trkpt>
        <trkpt lat="29.548735" lon="103.341172"><ele>2304.8606</ele><time>2026-07-21T09:23:16.000Z</time></trkpt>
        <trkpt lat="29.548724" lon="103.341172"><ele>2305.7615</ele><time>2026-07-21T09:23:18.000Z</time></trkpt>
        <trkpt lat="29.548715" lon="103.341171"><ele>2305.9236</ele><time>2026-07-21T09:23:20.000Z</time></trkpt>
        <trkpt lat="29.548699" lon="103.34117"><ele>2306.9397</ele><time>2026-07-21T09:23:24.000Z</time></trkpt>
        <trkpt lat="29.548695" lon="103.341171"><ele>2305.817</ele><time>2026-07-21T09:23:26.000Z</time></trkpt>
        <trkpt lat="29.548673" lon="103.341176"><ele>2306.5063</ele><time>2026-07-21T09:23:30.000Z</time></trkpt>
        <trkpt lat="29.548669" lon="103.341177"><ele>2307.2295</ele><time>2026-07-21T09:23:36.000Z</time></trkpt>
        <trkpt lat="29.548662" lon="103.341179"><ele>2307.682</ele><time>2026-07-21T09:23:38.000Z</time></trkpt>
        <trkpt lat="29.548635" lon="103.341186"><ele>2307.8865</ele><time>2026-07-21T09:23:42.000Z</time></trkpt>
        <trkpt lat="29.548635" lon="103.341186"><ele>2308.5044</ele><time>2026-07-21T09:23:44.000Z</time></trkpt>
        <trkpt lat="29.548633" lon="103.341187"><ele>2308.3245</ele><time>2026-07-21T09:23:46.000Z</time></trkpt>
        <trkpt lat="29.548591" lon="103.341199"><ele>2309.723</ele><time>2026-07-21T09:23:52.000Z</time></trkpt>
        <trkpt lat="29.548574" lon="103.341204"><ele>2309.2642</ele><time>2026-07-21T09:23:54.000Z</time></trkpt>
        <trkpt lat="29.548558" lon="103.341207"><ele>2310.2756</ele><time>2026-07-21T09:23:56.000Z</time></trkpt>
        <trkpt lat="29.548546" lon="103.34121"><ele>2310.1602</ele><time>2026-07-21T09:23:58.000Z</time></trkpt>
        <trkpt lat="29.548538" lon="103.341212"><ele>2310.238</ele><time>2026-07-21T09:24:00.000Z</time></trkpt>
        <trkpt lat="29.548526" lon="103.341215"><ele>2311.4248</ele><time>2026-07-21T09:24:04.000Z</time></trkpt>
        <trkpt lat="29.548514" lon="103.341215"><ele>2311.122</ele><time>2026-07-21T09:24:08.000Z</time></trkpt>
        <trkpt lat="29.5485" lon="103.341217"><ele>2310.9336</ele><time>2026-07-21T09:24:10.000Z</time></trkpt>
        <trkpt lat="29.548495" lon="103.341218"><ele>2310.3906</ele><time>2026-07-21T09:24:16.000Z</time></trkpt>
        <trkpt lat="29.548479" lon="103.341224"><ele>2309.1443</ele><time>2026-07-21T09:24:22.000Z</time></trkpt>
        <trkpt lat="29.548472" lon="103.341227"><ele>2309.2666</ele><time>2026-07-21T09:24:24.000Z</time></trkpt>
        <trkpt lat="29.548466" lon="103.341231"><ele>2310.074</ele><time>2026-07-21T09:24:26.000Z</time></trkpt>
        <trkpt lat="29.548422" lon="103.341259"><ele>2314.0508</ele><time>2026-07-21T09:24:40.000Z</time></trkpt>
        <trkpt lat="29.548408" lon="103.341267"><ele>2313.5122</ele><time>2026-07-21T09:24:42.000Z</time></trkpt>
        <trkpt lat="29.548407" lon="103.341267"><ele>2313.7415</ele><time>2026-07-21T09:24:44.000Z</time></trkpt>
        <trkpt lat="29.548381" lon="103.341258"><ele>2315.3022</ele><time>2026-07-21T09:24:52.000Z</time></trkpt>
        <trkpt lat="29.548362" lon="103.341251"><ele>2315.1091</ele><time>2026-07-21T09:24:54.000Z</time></trkpt>
        <trkpt lat="29.548361" lon="103.34125"><ele>2316.2097</ele><time>2026-07-21T09:24:56.000Z</time></trkpt>
        <trkpt lat="29.548352" lon="103.341246"><ele>2319.6606</ele><time>2026-07-21T09:25:02.000Z</time></trkpt>
        <trkpt lat="29.548328" lon="103.341233"><ele>2321.459</ele><time>2026-07-21T09:25:06.000Z</time></trkpt>
        <trkpt lat="29.548328" lon="103.341233"><ele>2322.0493</ele><time>2026-07-21T09:25:08.000Z</time></trkpt>
        <trkpt lat="29.548308" lon="103.341226"><ele>2322.0579</ele><time>2026-07-21T09:25:12.000Z</time></trkpt>
        <trkpt lat="29.548299" lon="103.341222"><ele>2322.6694</ele><time>2026-07-21T09:25:18.000Z</time></trkpt>
        <trkpt lat="29.54827" lon="103.34121"><ele>2323.8508</ele><time>2026-07-21T09:25:20.000Z</time></trkpt>
        <trkpt lat="29.548269" lon="103.34121"><ele>2324.6929</ele><time>2026-07-21T09:25:22.000Z</time></trkpt>
        <trkpt lat="29.548267" lon="103.341209"><ele>2325.1685</ele><time>2026-07-21T09:25:24.000Z</time></trkpt>
        <trkpt lat="29.548227" lon="103.341202"><ele>2326.304</ele><time>2026-07-21T09:25:30.000Z</time></trkpt>
        <trkpt lat="29.548213" lon="103.3412"><ele>2325.9807</ele><time>2026-07-21T09:25:32.000Z</time></trkpt>
        <trkpt lat="29.548201" lon="103.3412"><ele>2326.281</ele><time>2026-07-21T09:25:34.000Z</time></trkpt>
        <trkpt lat="29.548189" lon="103.341199"><ele>2326.1584</ele><time>2026-07-21T09:25:36.000Z</time></trkpt>
        <trkpt lat="29.548177" lon="103.341198"><ele>2326.571</ele><time>2026-07-21T09:25:38.000Z</time></trkpt>
        <trkpt lat="29.548167" lon="103.341197"><ele>2327.4531</ele><time>2026-07-21T09:25:40.000Z</time></trkpt>
        <trkpt lat="29.548156" lon="103.341196"><ele>2327.594</ele><time>2026-07-21T09:25:42.000Z</time></trkpt>
        <trkpt lat="29.548145" lon="103.341194"><ele>2327.4302</ele><time>2026-07-21T09:25:44.000Z</time></trkpt>
        <trkpt lat="29.548131" lon="103.341189"><ele>2327.5117</ele><time>2026-07-21T09:25:46.000Z</time></trkpt>
        <trkpt lat="29.548118" lon="103.341185"><ele>2329.4841</ele><time>2026-07-21T09:25:48.000Z</time></trkpt>
        <trkpt lat="29.548106" lon="103.341182"><ele>2329.9966</ele><time>2026-07-21T09:25:50.000Z</time></trkpt>
        <trkpt lat="29.548093" lon="103.34118"><ele>2329.2656</ele><time>2026-07-21T09:25:52.000Z</time></trkpt>
        <trkpt lat="29.548078" lon="103.341178"><ele>2328.8008</ele><time>2026-07-21T09:25:54.000Z</time></trkpt>
        <trkpt lat="29.548063" lon="103.341178"><ele>2330.3467</ele><time>2026-07-21T09:25:56.000Z</time></trkpt>
        <trkpt lat="29.548049" lon="103.34118"><ele>2330.88</ele><time>2026-07-21T09:25:58.000Z</time></trkpt>
        <trkpt lat="29.548034" lon="103.341185"><ele>2330.3376</ele><time>2026-07-21T09:26:00.000Z</time></trkpt>
        <trkpt lat="29.54802" lon="103.341192"><ele>2330.3418</ele><time>2026-07-21T09:26:02.000Z</time></trkpt>
      </trkseg>
      <trkseg>
        <trkpt lat="29.548012" lon="103.341244"><ele>2331.22</ele><time>2026-07-21T10:04:15.000Z</time></trkpt>
        <trkpt lat="29.547999" lon="103.341213"><ele>2327.24</ele><time>2026-07-21T10:04:33.000Z</time></trkpt>
        <trkpt lat="29.547996" lon="103.34121"><ele>2327.2827</ele><time>2026-07-21T10:04:35.000Z</time></trkpt>
        <trkpt lat="29.547993" lon="103.341209"><ele>2327.6975</ele><time>2026-07-21T10:04:37.000Z</time></trkpt>
        <trkpt lat="29.547908" lon="103.341172"><ele>2324.9763</ele><time>2026-07-21T10:05:15.000Z</time></trkpt>
        <trkpt lat="29.547833" lon="103.341136"><ele>2323.846</ele><time>2026-07-21T10:05:24.000Z</time></trkpt>
        <trkpt lat="29.547817" lon="103.341128"><ele>2324.889</ele><time>2026-07-21T10:05:26.000Z</time></trkpt>
        <trkpt lat="29.547816" lon="103.341127"><ele>2324.987</ele><time>2026-07-21T10:05:28.000Z</time></trkpt>
        <trkpt lat="29.54779" lon="103.341117"><ele>2324.7722</ele><time>2026-07-21T10:05:32.000Z</time></trkpt>
        <trkpt lat="29.547761" lon="103.341106"><ele>2325.376</ele><time>2026-07-21T10:05:34.000Z</time></trkpt>
        <trkpt lat="29.547733" lon="103.341098"><ele>2325.0544</ele><time>2026-07-21T10:05:36.000Z</time></trkpt>
        <trkpt lat="29.547706" lon="103.341092"><ele>2324.633</ele><time>2026-07-21T10:05:38.000Z</time></trkpt>
        <trkpt lat="29.547687" lon="103.341087"><ele>2324.3577</ele><time>2026-07-21T10:05:39.000Z</time></trkpt>
        <trkpt lat="29.547675" lon="103.341082"><ele>2324.889</ele><time>2026-07-21T10:05:41.000Z</time></trkpt>
        <trkpt lat="29.547661" lon="103.341075"><ele>2325.7734</ele><time>2026-07-21T10:05:43.000Z</time></trkpt>
        <trkpt lat="29.547652" lon="103.341071"><ele>2325.2502</ele><time>2026-07-21T10:05:45.000Z</time></trkpt>
        <trkpt lat="29.54764" lon="103.341068"><ele>2324.8286</ele><time>2026-07-21T10:05:47.000Z</time></trkpt>
        <trkpt lat="29.547629" lon="103.341067"><ele>2324.6558</ele><time>2026-07-21T10:05:49.000Z</time></trkpt>
        <trkpt lat="29.547616" lon="103.34107"><ele>2324.3474</ele><time>2026-07-21T10:05:51.000Z</time></trkpt>
        <trkpt lat="29.547605" lon="103.341073"><ele>2324.109</ele><time>2026-07-21T10:05:53.000Z</time></trkpt>
        <trkpt lat="29.547594" lon="103.341075"><ele>2325.4165</ele><time>2026-07-21T10:05:55.000Z</time></trkpt>
        <trkpt lat="29.547578" lon="103.341075"><ele>2325.6104</ele><time>2026-07-21T10:05:57.000Z</time></trkpt>
        <trkpt lat="29.547565" lon="103.341075"><ele>2325.7861</ele><time>2026-07-21T10:05:59.000Z</time></trkpt>
        <trkpt lat="29.547559" lon="103.341073"><ele>2325.8667</ele><time>2026-07-21T10:06:01.000Z</time></trkpt>
        <trkpt lat="29.547542" lon="103.341066"><ele>2327.4797</ele><time>2026-07-21T10:06:09.000Z</time></trkpt>
        <trkpt lat="29.547536" lon="103.341064"><ele>2327.5847</ele><time>2026-07-21T10:06:11.000Z</time></trkpt>
        <trkpt lat="29.547529" lon="103.34106"><ele>2328.183</ele><time>2026-07-21T10:06:13.000Z</time></trkpt>
        <trkpt lat="29.547515" lon="103.341051"><ele>2329.3452</ele><time>2026-07-21T10:06:20.000Z</time></trkpt>
        <trkpt lat="29.547509" lon="103.341047"><ele>2328.705</ele><time>2026-07-21T10:06:28.000Z</time></trkpt>
        <trkpt lat="29.547497" lon="103.341042"><ele>2329.9685</ele><time>2026-07-21T10:06:36.000Z</time></trkpt>
        <trkpt lat="29.547483" lon="103.341039"><ele>2333.0676</ele><time>2026-07-21T10:06:44.000Z</time></trkpt>
        <trkpt lat="29.547467" lon="103.341036"><ele>2334.139</ele><time>2026-07-21T10:06:46.000Z</time></trkpt>
        <trkpt lat="29.547466" lon="103.341036"><ele>2334.2202</ele><time>2026-07-21T10:06:48.000Z</time></trkpt>
        <trkpt lat="29.547452" lon="103.341027"><ele>2334.7517</ele><time>2026-07-21T10:06:54.000Z</time></trkpt>
        <trkpt lat="29.547438" lon="103.341021"><ele>2335.3232</ele><time>2026-07-21T10:07:00.000Z</time></trkpt>
        <trkpt lat="29.547431" lon="103.341018"><ele>2335.5051</ele><time>2026-07-21T10:07:02.000Z</time></trkpt>
        <trkpt lat="29.547428" lon="103.341012"><ele>2335.0706</ele><time>2026-07-21T10:07:06.000Z</time></trkpt>
        <trkpt lat="29.54742" lon="103.340991"><ele>2335.9634</ele><time>2026-07-21T10:07:14.000Z</time></trkpt>
        <trkpt lat="29.547422" lon="103.340984"><ele>2336.5068</ele><time>2026-07-21T10:07:16.000Z</time></trkpt>
        <trkpt lat="29.547419" lon="103.340968"><ele>2336.5884</ele><time>2026-07-21T10:07:18.000Z</time></trkpt>
        <trkpt lat="29.54741" lon="103.340944"><ele>2338.1226</ele><time>2026-07-21T10:07:24.000Z</time></trkpt>
        <trkpt lat="29.5474" lon="103.340917"><ele>2339.9438</ele><time>2026-07-21T10:07:26.000Z</time></trkpt>
        <trkpt lat="29.54739" lon="103.340887"><ele>2340.216</ele><time>2026-07-21T10:07:28.000Z</time></trkpt>
        <trkpt lat="29.547382" lon="103.34086"><ele>2341.9138</ele><time>2026-07-21T10:07:30.000Z</time></trkpt>
        <trkpt lat="29.547375" lon="103.340835"><ele>2342.9526</ele><time>2026-07-21T10:07:32.000Z</time></trkpt>
        <trkpt lat="29.547369" lon="103.340813"><ele>2342.7258</ele><time>2026-07-21T10:07:34.000Z</time></trkpt>
        <trkpt lat="29.547363" lon="103.340798"><ele>2342.88</ele><time>2026-07-21T10:07:36.000Z</time></trkpt>
        <trkpt lat="29.547355" lon="103.340785"><ele>2342.571</ele><time>2026-07-21T10:07:38.000Z</time></trkpt>
        <trkpt lat="29.547346" lon="103.340773"><ele>2342.3083</ele><time>2026-07-21T10:07:40.000Z</time></trkpt>
        <trkpt lat="29.547334" lon="103.340761"><ele>2341.8774</ele><time>2026-07-21T10:07:42.000Z</time></trkpt>
        <trkpt lat="29.547323" lon="103.340746"><ele>2341.5793</ele><time>2026-07-21T10:07:44.000Z</time></trkpt>
        <trkpt lat="29.547319" lon="103.340734"><ele>2343.9668</ele><time>2026-07-21T10:07:45.000Z</time></trkpt>
        <trkpt lat="29.547315" lon="103.340723"><ele>2344.6497</ele><time>2026-07-21T10:07:47.000Z</time></trkpt>
        <trkpt lat="29.547309" lon="103.340707"><ele>2344.3374</ele><time>2026-07-21T10:07:49.000Z</time></trkpt>
        <trkpt lat="29.547301" lon="103.340692"><ele>2344.7292</ele><time>2026-07-21T10:07:51.000Z</time></trkpt>
        <trkpt lat="29.5473" lon="103.340678"><ele>2345.1748</ele><time>2026-07-21T10:07:53.000Z</time></trkpt>
        <trkpt lat="29.547304" lon="103.340673"><ele>2346.3042</ele><time>2026-07-21T10:07:55.000Z</time></trkpt>
        <trkpt lat="29.547309" lon="103.340659"><ele>2347.2517</ele><time>2026-07-21T10:07:57.000Z</time></trkpt>
        <trkpt lat="29.54731" lon="103.340642"><ele>2347.0625</ele><time>2026-07-21T10:08:01.000Z</time></trkpt>
        <trkpt lat="29.547308" lon="103.340637"><ele>2346.4358</ele><time>2026-07-21T10:08:03.000Z</time></trkpt>
        <trkpt lat="29.547301" lon="103.340621"><ele>2347.382</ele><time>2026-07-21T10:08:07.000Z</time></trkpt>
        <trkpt lat="29.547295" lon="103.340607"><ele>2346.6765</ele><time>2026-07-21T10:08:09.000Z</time></trkpt>
        <trkpt lat="29.547295" lon="103.340605"><ele>2347.0337</ele><time>2026-07-21T10:08:11.000Z</time></trkpt>
        <trkpt lat="29.547286" lon="103.340574"><ele>2348.7124</ele><time>2026-07-21T10:08:18.000Z</time></trkpt>
        <trkpt lat="29.547279" lon="103.340557"><ele>2349.1843</ele><time>2026-07-21T10:08:20.000Z</time></trkpt>
        <trkpt lat="29.547274" lon="103.340544"><ele>2349.9753</ele><time>2026-07-21T10:08:22.000Z</time></trkpt>
        <trkpt lat="29.547269" lon="103.340534"><ele>2350.3596</ele><time>2026-07-21T10:08:24.000Z</time></trkpt>
        <trkpt lat="29.547261" lon="103.340522"><ele>2350.4358</ele><time>2026-07-21T10:08:26.000Z</time></trkpt>
        <trkpt lat="29.547254" lon="103.340512"><ele>2349.9124</ele><time>2026-07-21T10:08:28.000Z</time></trkpt>
        <trkpt lat="29.547253" lon="103.340503"><ele>2350.9526</ele><time>2026-07-21T10:08:30.000Z</time></trkpt>
        <trkpt lat="29.547249" lon="103.340484"><ele>2353.0657</ele><time>2026-07-21T10:08:34.000Z</time></trkpt>
        <trkpt lat="29.547246" lon="103.340476"><ele>2352.6016</ele><time>2026-07-21T10:08:36.000Z</time></trkpt>
        <trkpt lat="29.547241" lon="103.340472"><ele>2351.9426</ele><time>2026-07-21T10:08:40.000Z</time></trkpt>
        <trkpt lat="29.54723" lon="103.340456"><ele>2352.1702</ele><time>2026-07-21T10:08:50.000Z</time></trkpt>
        <trkpt lat="29.547225" lon="103.340445"><ele>2353.005</ele><time>2026-07-21T10:08:54.000Z</time></trkpt>
        <trkpt lat="29.547225" lon="103.340439"><ele>2353.2441</ele><time>2026-07-21T10:08:56.000Z</time></trkpt>
        <trkpt lat="29.547231" lon="103.340424"><ele>2354.5957</ele><time>2026-07-21T10:09:00.000Z</time></trkpt>
        <trkpt lat="29.547229" lon="103.340415"><ele>2353.3037</ele><time>2026-07-21T10:09:14.000Z</time></trkpt>
        <trkpt lat="29.547223" lon="103.340396"><ele>2353.9028</ele><time>2026-07-21T10:09:43.000Z</time></trkpt>
        <trkpt lat="29.547221" lon="103.340385"><ele>2355.1687</ele><time>2026-07-21T10:09:49.000Z</time></trkpt>
        <trkpt lat="29.547218" lon="103.340379"><ele>2356.6965</ele><time>2026-07-21T10:09:51.000Z</time></trkpt>
        <trkpt lat="29.547215" lon="103.340361"><ele>2358.4302</ele><time>2026-07-21T10:09:54.000Z</time></trkpt>
        <trkpt lat="29.547214" lon="103.340351"><ele>2360.3196</ele><time>2026-07-21T10:09:58.000Z</time></trkpt>
        <trkpt lat="29.54721" lon="103.340348"><ele>2359.708</ele><time>2026-07-21T10:10:02.000Z</time></trkpt>
        <trkpt lat="29.547197" lon="103.34033"><ele>2357.4246</ele><time>2026-07-21T10:10:19.000Z</time></trkpt>
        <trkpt lat="29.547189" lon="103.340317"><ele>2358.1729</ele><time>2026-07-21T10:10:21.000Z</time></trkpt>
        <trkpt lat="29.547189" lon="103.340317"><ele>2358.4482</ele><time>2026-07-21T10:10:23.000Z</time></trkpt>
        <trkpt lat="29.547195" lon="103.340263"><ele>2363.2034</ele><time>2026-07-21T10:10:47.000Z</time></trkpt>
        <trkpt lat="29.547194" lon="103.340257"><ele>2363.8184</ele><time>2026-07-21T10:10:49.000Z</time></trkpt>
        <trkpt lat="29.547192" lon="103.340248"><ele>2364.0996</ele><time>2026-07-21T10:10:51.000Z</time></trkpt>
        <trkpt lat="29.54719" lon="103.340229"><ele>2365.5898</ele><time>2026-07-21T10:10:59.000Z</time></trkpt>
        <trkpt lat="29.547186" lon="103.340222"><ele>2366.107</ele><time>2026-07-21T10:11:01.000Z</time></trkpt>
        <trkpt lat="29.547172" lon="103.340199"><ele>2366.8381</ele><time>2026-07-21T10:11:03.000Z</time></trkpt>
        <trkpt lat="29.547171" lon="103.340198"><ele>2367.3965</ele><time>2026-07-21T10:11:05.000Z</time></trkpt>
        <trkpt lat="29.547164" lon="103.340189"><ele>2368.3018</ele><time>2026-07-21T10:11:09.000Z</time></trkpt>
        <trkpt lat="29.54714" lon="103.340162"><ele>2368.3547</ele><time>2026-07-21T10:11:13.000Z</time></trkpt>
        <trkpt lat="29.54714" lon="103.340162"><ele>2369.6045</ele><time>2026-07-21T10:11:15.000Z</time></trkpt>
        <trkpt lat="29.54714" lon="103.340162"><ele>2368.431</ele><time>2026-07-21T10:11:17.000Z</time></trkpt>
        <trkpt lat="29.547111" lon="103.340139"><ele>2367.5322</ele><time>2026-07-21T10:11:31.000Z</time></trkpt>
        <trkpt lat="29.547111" lon="103.340139"><ele>2367.844</ele><time>2026-07-21T10:11:33.000Z</time></trkpt>
        <trkpt lat="29.547111" lon="103.340139"><ele>2368.114</ele><time>2026-07-21T10:11:35.000Z</time></trkpt>
        <trkpt lat="29.547113" lon="103.340105"><ele>2369.9663</ele><time>2026-07-21T10:11:49.000Z</time></trkpt>
        <trkpt lat="29.547114" lon="103.340087"><ele>2369.527</ele><time>2026-07-21T10:11:51.000Z</time></trkpt>
        <trkpt lat="29.547114" lon="103.340085"><ele>2369.7498</ele><time>2026-07-21T10:11:53.000Z</time></trkpt>
        <trkpt lat="29.547113" lon="103.340064"><ele>2369.934</ele><time>2026-07-21T10:11:58.000Z</time></trkpt>
        <trkpt lat="29.547114" lon="103.340051"><ele>2369.9634</ele><time>2026-07-21T10:12:02.000Z</time></trkpt>
        <trkpt lat="29.547114" lon="103.340049"><ele>2370.1318</ele><time>2026-07-21T10:12:04.000Z</time></trkpt>
        <trkpt lat="29.547106" lon="103.340027"><ele>2371.003</ele><time>2026-07-21T10:12:37.000Z</time></trkpt>
        <trkpt lat="29.547101" lon="103.340012"><ele>2371.9617</ele><time>2026-07-21T10:12:39.000Z</time></trkpt>
        <trkpt lat="29.547101" lon="103.340011"><ele>2372.3235</ele><time>2026-07-21T10:12:41.000Z</time></trkpt>
        <trkpt lat="29.547094" lon="103.339985"><ele>2374.3696</ele><time>2026-07-21T10:12:49.000Z</time></trkpt>
        <trkpt lat="29.547089" lon="103.339966"><ele>2373.8757</ele><time>2026-07-21T10:12:51.000Z</time></trkpt>
        <trkpt lat="29.54709" lon="103.339965"><ele>2373.6624</ele><time>2026-07-21T10:12:53.000Z</time></trkpt>
        <trkpt lat="29.54709" lon="103.339926"><ele>2374.8508</ele><time>2026-07-21T10:13:02.000Z</time></trkpt>
        <trkpt lat="29.54709" lon="103.339911"><ele>2374.1824</ele><time>2026-07-21T10:13:04.000Z</time></trkpt>
        <trkpt lat="29.547091" lon="103.3399"><ele>2375.8337</ele><time>2026-07-21T10:13:06.000Z</time></trkpt>
        <trkpt lat="29.54709" lon="103.339892"><ele>2376.463</ele><time>2026-07-21T10:13:08.000Z</time></trkpt>
        <trkpt lat="29.547086" lon="103.339865"><ele>2377.1802</ele><time>2026-07-21T10:13:12.000Z</time></trkpt>
        <trkpt lat="29.547086" lon="103.339865"><ele>2378.4827</ele><time>2026-07-21T10:13:14.000Z</time></trkpt>
        <trkpt lat="29.547087" lon="103.339853"><ele>2377.5845</ele><time>2026-07-21T10:13:18.000Z</time></trkpt>
        <trkpt lat="29.547088" lon="103.339819"><ele>2377.4507</ele><time>2026-07-21T10:13:22.000Z</time></trkpt>
        <trkpt lat="29.547088" lon="103.339808"><ele>2377.85</ele><time>2026-07-21T10:13:24.000Z</time></trkpt>
        <trkpt lat="29.547086" lon="103.339799"><ele>2378.771</ele><time>2026-07-21T10:13:26.000Z</time></trkpt>
        <trkpt lat="29.547083" lon="103.339779"><ele>2378.1458</ele><time>2026-07-21T10:13:30.000Z</time></trkpt>
        <trkpt lat="29.547083" lon="103.339772"><ele>2377.7385</ele><time>2026-07-21T10:13:32.000Z</time></trkpt>
        <trkpt lat="29.547084" lon="103.339762"><ele>2379.049</ele><time>2026-07-21T10:13:34.000Z</time></trkpt>
        <trkpt lat="29.547085" lon="103.339739"><ele>2381.1438</ele><time>2026-07-21T10:13:38.000Z</time></trkpt>
        <trkpt lat="29.547085" lon="103.339731"><ele>2381.5938</ele><time>2026-07-21T10:13:40.000Z</time></trkpt>
        <trkpt lat="29.547081" lon="103.339728"><ele>2382.3596</ele><time>2026-07-21T10:13:42.000Z</time></trkpt>
        <trkpt lat="29.547064" lon="103.339715"><ele>2382.5967</ele><time>2026-07-21T10:14:12.000Z</time></trkpt>
        <trkpt lat="29.547059" lon="103.339713"><ele>2380.94</ele><time>2026-07-21T10:14:22.000Z</time></trkpt>
        <trkpt lat="29.547058" lon="103.339711"><ele>2380.9324</ele><time>2026-07-21T10:14:35.000Z</time></trkpt>
        <trkpt lat="29.547046" lon="103.339656"><ele>2383.9949</ele><time>2026-07-21T10:15:07.000Z</time></trkpt>
        <trkpt lat="29.547046" lon="103.339656"><ele>2384.1582</ele><time>2026-07-21T10:15:09.000Z</time></trkpt>
        <trkpt lat="29.547046" lon="103.339656"><ele>2383.6653</ele><time>2026-07-21T10:15:11.000Z</time></trkpt>
        <trkpt lat="29.547025" lon="103.33963"><ele>2389.1104</ele><time>2026-07-21T10:15:27.000Z</time></trkpt>
        <trkpt lat="29.54702" lon="103.339626"><ele>2389.4612</ele><time>2026-07-21T10:15:29.000Z</time></trkpt>
        <trkpt lat="29.547014" lon="103.33962"><ele>2389.995</ele><time>2026-07-21T10:15:31.000Z</time></trkpt>
        <trkpt lat="29.546994" lon="103.339606"><ele>2392.738</ele><time>2026-07-21T10:15:37.000Z</time></trkpt>
        <trkpt lat="29.546982" lon="103.339598"><ele>2392.815</ele><time>2026-07-21T10:15:39.000Z</time></trkpt>
        <trkpt lat="29.546981" lon="103.339597"><ele>2393.3066</ele><time>2026-07-21T10:15:41.000Z</time></trkpt>
        <trkpt lat="29.546968" lon="103.339579"><ele>2395.811</ele><time>2026-07-21T10:15:52.000Z</time></trkpt>
        <trkpt lat="29.546956" lon="103.339562"><ele>2395.6843</ele><time>2026-07-21T10:15:54.000Z</time></trkpt>
        <trkpt lat="29.546954" lon="103.339561"><ele>2395.5222</ele><time>2026-07-21T10:15:56.000Z</time></trkpt>
        <trkpt lat="29.546944" lon="103.339555"><ele>2395.6797</ele><time>2026-07-21T10:16:00.000Z</time></trkpt>
        <trkpt lat="29.546926" lon="103.339545"><ele>2395.5173</ele><time>2026-07-21T10:16:04.000Z</time></trkpt>
        <trkpt lat="29.546926" lon="103.339545"><ele>2395.5173</ele><time>2026-07-21T10:16:06.000Z</time></trkpt>
        <trkpt lat="29.546919" lon="103.339533"><ele>2398.577</ele><time>2026-07-21T10:16:17.000Z</time></trkpt>
        <trkpt lat="29.546906" lon="103.339509"><ele>2398.012</ele><time>2026-07-21T10:16:22.000Z</time></trkpt>
        <trkpt lat="29.546906" lon="103.339509"><ele>2398.5486</ele><time>2026-07-21T10:16:24.000Z</time></trkpt>
        <trkpt lat="29.546898" lon="103.339498"><ele>2395.6519</ele><time>2026-07-21T10:16:28.000Z</time></trkpt>
        <trkpt lat="29.546882" lon="103.339472"><ele>2396.8723</ele><time>2026-07-21T10:16:32.000Z</time></trkpt>
        <trkpt lat="29.546879" lon="103.339462"><ele>2396.7969</ele><time>2026-07-21T10:16:34.000Z</time></trkpt>
        <trkpt lat="29.546879" lon="103.339453"><ele>2397.493</ele><time>2026-07-21T10:16:36.000Z</time></trkpt>
        <trkpt lat="29.546883" lon="103.339436"><ele>2398.1707</ele><time>2026-07-21T10:16:42.000Z</time></trkpt>
        <trkpt lat="29.546886" lon="103.339422"><ele>2399.571</ele><time>2026-07-21T10:16:46.000Z</time></trkpt>
        <trkpt lat="29.546888" lon="103.339413"><ele>2400.1128</ele><time>2026-07-21T10:16:48.000Z</time></trkpt>
        <trkpt lat="29.546883" lon="103.339405"><ele>2400.6204</ele><time>2026-07-21T10:16:52.000Z</time></trkpt>
        <trkpt lat="29.546873" lon="103.339389"><ele>2401.6099</ele><time>2026-07-21T10:17:04.000Z</time></trkpt>
        <trkpt lat="29.546869" lon="103.339385"><ele>2402.296</ele><time>2026-07-21T10:17:12.000Z</time></trkpt>
        <trkpt lat="29.546854" lon="103.339366"><ele>2401.4443</ele><time>2026-07-21T10:17:21.000Z</time></trkpt>
        <trkpt lat="29.546851" lon="103.339364"><ele>2402.0488</ele><time>2026-07-21T10:17:23.000Z</time></trkpt>
        <trkpt lat="29.546847" lon="103.339358"><ele>2402.08</ele><time>2026-07-21T10:17:25.000Z</time></trkpt>
        <trkpt lat="29.546831" lon="103.339339"><ele>2408.3157</ele><time>2026-07-21T10:17:43.000Z</time></trkpt>
        <trkpt lat="29.54683" lon="103.339337"><ele>2408.6357</ele><time>2026-07-21T10:17:45.000Z</time></trkpt>
        <trkpt lat="29.546825" lon="103.339332"><ele>2409.473</ele><time>2026-07-21T10:17:51.000Z</time></trkpt>
        <trkpt lat="29.546804" lon="103.339321"><ele>2409.4485</ele><time>2026-07-21T10:18:16.000Z</time></trkpt>
        <trkpt lat="29.546801" lon="103.339319"><ele>2409.3855</ele><time>2026-07-21T10:18:18.000Z</time></trkpt>
        <trkpt lat="29.546756" lon="103.33928"><ele>2408.5442</ele><time>2026-07-21T10:19:25.000Z</time></trkpt>
        <trkpt lat="29.546752" lon="103.339274"><ele>2408.719</ele><time>2026-07-21T10:19:27.000Z</time></trkpt>
        <trkpt lat="29.546749" lon="103.339267"><ele>2409.1074</ele><time>2026-07-21T10:19:29.000Z</time></trkpt>
        <trkpt lat="29.546741" lon="103.33925"><ele>2409.1448</ele><time>2026-07-21T10:19:33.000Z</time></trkpt>
        <trkpt lat="29.546737" lon="103.339237"><ele>2408.9888</ele><time>2026-07-21T10:19:37.000Z</time></trkpt>
        <trkpt lat="29.546735" lon="103.339233"><ele>2409.0662</ele><time>2026-07-21T10:19:39.000Z</time></trkpt>
        <trkpt lat="29.546726" lon="103.339218"><ele>2409.9143</ele><time>2026-07-21T10:19:45.000Z</time></trkpt>
        <trkpt lat="29.546718" lon="103.339204"><ele>2410.869</ele><time>2026-07-21T10:19:49.000Z</time></trkpt>
        <trkpt lat="29.546714" lon="103.339198"><ele>2411.2922</ele><time>2026-07-21T10:19:51.000Z</time></trkpt>
        <trkpt lat="29.546706" lon="103.339185"><ele>2411.8472</ele><time>2026-07-21T10:19:53.000Z</time></trkpt>
        <trkpt lat="29.546701" lon="103.339175"><ele>2414.6042</ele><time>2026-07-21T10:19:59.000Z</time></trkpt>
        <trkpt lat="29.546691" lon="103.339154"><ele>2416.4226</ele><time>2026-07-21T10:20:01.000Z</time></trkpt>
        <trkpt lat="29.54669" lon="103.339153"><ele>2416.9236</ele><time>2026-07-21T10:20:03.000Z</time></trkpt>
        <trkpt lat="29.546685" lon="103.339146"><ele>2417.3665</ele><time>2026-07-21T10:20:07.000Z</time></trkpt>
        <trkpt lat="29.546668" lon="103.339123"><ele>2418.4836</ele><time>2026-07-21T10:20:11.000Z</time></trkpt>
        <trkpt lat="29.546668" lon="103.339123"><ele>2419.5183</ele><time>2026-07-21T10:20:13.000Z</time></trkpt>
        <trkpt lat="29.546664" lon="103.339114"><ele>2419.2498</ele><time>2026-07-21T10:20:17.000Z</time></trkpt>
        <trkpt lat="29.546651" lon="103.339085"><ele>2419.9426</ele><time>2026-07-21T10:20:21.000Z</time></trkpt>
        <trkpt lat="29.546651" lon="103.339084"><ele>2420.7542</ele><time>2026-07-21T10:20:23.000Z</time></trkpt>
        <trkpt lat="29.546649" lon="103.339082"><ele>2420.9854</ele><time>2026-07-21T10:20:25.000Z</time></trkpt>
        <trkpt lat="29.546629" lon="103.339043"><ele>2421.9766</ele><time>2026-07-21T10:20:31.000Z</time></trkpt>
        <trkpt lat="29.546624" lon="103.339033"><ele>2423.1782</ele><time>2026-07-21T10:20:33.000Z</time></trkpt>
        <trkpt lat="29.546617" lon="103.339025"><ele>2422.9832</ele><time>2026-07-21T10:20:35.000Z</time></trkpt>
        <trkpt lat="29.546608" lon="103.339016"><ele>2422.5632</ele><time>2026-07-21T10:20:37.000Z</time></trkpt>
        <trkpt lat="29.546597" lon="103.339008"><ele>2422.059</ele><time>2026-07-21T10:20:39.000Z</time></trkpt>
        <trkpt lat="29.54659" lon="103.339002"><ele>2422.552</ele><time>2026-07-21T10:20:41.000Z</time></trkpt>
        <trkpt lat="29.546583" lon="103.338992"><ele>2422.275</ele><time>2026-07-21T10:20:43.000Z</time></trkpt>
        <trkpt lat="29.546575" lon="103.338978"><ele>2423.1826</ele><time>2026-07-21T10:20:47.000Z</time></trkpt>
        <trkpt lat="29.546572" lon="103.338973"><ele>2422.9558</ele><time>2026-07-21T10:20:49.000Z</time></trkpt>
        <trkpt lat="29.546562" lon="103.338964"><ele>2423.8582</ele><time>2026-07-21T10:20:53.000Z</time></trkpt>
        <trkpt lat="29.546542" lon="103.338945"><ele>2423.1594</ele><time>2026-07-21T10:20:57.000Z</time></trkpt>
        <trkpt lat="29.546542" lon="103.338945"><ele>2425.2969</ele><time>2026-07-21T10:20:59.000Z</time></trkpt>
        <trkpt lat="29.546543" lon="103.338926"><ele>2425.7734</ele><time>2026-07-21T10:21:05.000Z</time></trkpt>
        <trkpt lat="29.546541" lon="103.338909"><ele>2426.5686</ele><time>2026-07-21T10:21:09.000Z</time></trkpt>
        <trkpt lat="29.54654" lon="103.338902"><ele>2428.1262</ele><time>2026-07-21T10:21:11.000Z</time></trkpt>
        <trkpt lat="29.546532" lon="103.338894"><ele>2428.8484</ele><time>2026-07-21T10:21:15.000Z</time></trkpt>
        <trkpt lat="29.546521" lon="103.338884"><ele>2429.2517</ele><time>2026-07-21T10:21:23.000Z</time></trkpt>
        <trkpt lat="29.546516" lon="103.338878"><ele>2428.611</ele><time>2026-07-21T10:21:25.000Z</time></trkpt>
        <trkpt lat="29.546507" lon="103.338874"><ele>2429.5508</ele><time>2026-07-21T10:21:29.000Z</time></trkpt>
        <trkpt lat="29.546501" lon="103.338863"><ele>2427.7686</ele><time>2026-07-21T10:21:35.000Z</time></trkpt>
        <trkpt lat="29.54649" lon="103.338841"><ele>2428.649</ele><time>2026-07-21T10:23:15.000Z</time></trkpt>
        <trkpt lat="29.54649" lon="103.338841"><ele>2428.8252</ele><time>2026-07-21T10:23:17.000Z</time></trkpt>
        <trkpt lat="29.546481" lon="103.338833"><ele>2430.4277</ele><time>2026-07-21T10:23:27.000Z</time></trkpt>
        <trkpt lat="29.546466" lon="103.33882"><ele>2429.3713</ele><time>2026-07-21T10:23:37.000Z</time></trkpt>
        <trkpt lat="29.546464" lon="103.338817"><ele>2429.946</ele><time>2026-07-21T10:23:39.000Z</time></trkpt>
        <trkpt lat="29.546457" lon="103.338812"><ele>2429.7856</ele><time>2026-07-21T10:23:43.000Z</time></trkpt>
        <trkpt lat="29.546435" lon="103.338797"><ele>2430.5198</ele><time>2026-07-21T10:23:50.000Z</time></trkpt>
        <trkpt lat="29.546429" lon="103.338793"><ele>2431.2068</ele><time>2026-07-21T10:23:52.000Z</time></trkpt>
        <trkpt lat="29.546426" lon="103.338791"><ele>2432.412</ele><time>2026-07-21T10:23:54.000Z</time></trkpt>
        <trkpt lat="29.546407" lon="103.338784"><ele>2431.7126</ele><time>2026-07-21T10:24:00.000Z</time></trkpt>
        <trkpt lat="29.546401" lon="103.33878"><ele>2430.969</ele><time>2026-07-21T10:24:10.000Z</time></trkpt>
        <trkpt lat="29.546398" lon="103.338778"><ele>2431.9678</ele><time>2026-07-21T10:24:22.000Z</time></trkpt>
        <trkpt lat="29.546381" lon="103.338764"><ele>2432.906</ele><time>2026-07-21T10:24:30.000Z</time></trkpt>
        <trkpt lat="29.54637" lon="103.338756"><ele>2434.5706</ele><time>2026-07-21T10:24:34.000Z</time></trkpt>
        <trkpt lat="29.546366" lon="103.338753"><ele>2436.0232</ele><time>2026-07-21T10:24:36.000Z</time></trkpt>
        <trkpt lat="29.546352" lon="103.338743"><ele>2437.35</ele><time>2026-07-21T10:24:40.000Z</time></trkpt>
        <trkpt lat="29.546341" lon="103.338728"><ele>2437.3274</ele><time>2026-07-21T10:24:44.000Z</time></trkpt>
        <trkpt lat="29.546334" lon="103.338718"><ele>2437.131</ele><time>2026-07-21T10:24:46.000Z</time></trkpt>
        <trkpt lat="29.546331" lon="103.338714"><ele>2437.459</ele><time>2026-07-21T10:24:50.000Z</time></trkpt>
        <trkpt lat="29.546319" lon="103.338692"><ele>2438.278</ele><time>2026-07-21T10:24:54.000Z</time></trkpt>
        <trkpt lat="29.546315" lon="103.338677"><ele>2438.3552</ele><time>2026-07-21T10:24:56.000Z</time></trkpt>
        <trkpt lat="29.546313" lon="103.338668"><ele>2438.3074</ele><time>2026-07-21T10:24:58.000Z</time></trkpt>
        <trkpt lat="29.546307" lon="103.338648"><ele>2439.5144</ele><time>2026-07-21T10:25:02.000Z</time></trkpt>
        <trkpt lat="29.546305" lon="103.338637"><ele>2439.9465</ele><time>2026-07-21T10:25:04.000Z</time></trkpt>
        <trkpt lat="29.546301" lon="103.338629"><ele>2439.9963</ele><time>2026-07-21T10:25:06.000Z</time></trkpt>
        <trkpt lat="29.546293" lon="103.338608"><ele>2440.4397</ele><time>2026-07-21T10:25:10.000Z</time></trkpt>
        <trkpt lat="29.546292" lon="103.338597"><ele>2441.396</ele><time>2026-07-21T10:25:12.000Z</time></trkpt>
        <trkpt lat="29.546288" lon="103.338588"><ele>2442.7324</ele><time>2026-07-21T10:25:14.000Z</time></trkpt>
        <trkpt lat="29.546277" lon="103.338569"><ele>2443.2488</ele><time>2026-07-21T10:25:18.000Z</time></trkpt>
        <trkpt lat="29.54627" lon="103.338561"><ele>2442.875</ele><time>2026-07-21T10:25:20.000Z</time></trkpt>
        <trkpt lat="29.546263" lon="103.338559"><ele>2442.6367</ele><time>2026-07-21T10:25:22.000Z</time></trkpt>
        <trkpt lat="29.546247" lon="103.338552"><ele>2439.6096</ele><time>2026-07-21T10:25:43.000Z</time></trkpt>
        <trkpt lat="29.546245" lon="103.338546"><ele>2440.4895</ele><time>2026-07-21T10:25:58.000Z</time></trkpt>
        <trkpt lat="29.546229" lon="103.338491"><ele>2443.896</ele><time>2026-07-21T10:26:13.000Z</time></trkpt>
        <trkpt lat="29.546208" lon="103.33842"><ele>2446.3057</ele><time>2026-07-21T10:26:23.000Z</time></trkpt>
        <trkpt lat="29.546208" lon="103.33842"><ele>2446.952</ele><time>2026-07-21T10:26:25.000Z</time></trkpt>
        <trkpt lat="29.5462" lon="103.338395"><ele>2446.754</ele><time>2026-07-21T10:26:27.000Z</time></trkpt>
        <trkpt lat="29.546196" lon="103.338381"><ele>2447.862</ele><time>2026-07-21T10:26:33.000Z</time></trkpt>
        <trkpt lat="29.546193" lon="103.338366"><ele>2446.8162</ele><time>2026-07-21T10:26:35.000Z</time></trkpt>
        <trkpt lat="29.54619" lon="103.338351"><ele>2447.8464</ele><time>2026-07-21T10:26:37.000Z</time></trkpt>
        <trkpt lat="29.546189" lon="103.338342"><ele>2447.7327</ele><time>2026-07-21T10:26:39.000Z</time></trkpt>
        <trkpt lat="29.546189" lon="103.338332"><ele>2449.0786</ele><time>2026-07-21T10:26:41.000Z</time></trkpt>
        <trkpt lat="29.546191" lon="103.338312"><ele>2449.4612</ele><time>2026-07-21T10:26:45.000Z</time></trkpt>
        <trkpt lat="29.546189" lon="103.338307"><ele>2450.4707</ele><time>2026-07-21T10:26:47.000Z</time></trkpt>
        <trkpt lat="29.546182" lon="103.338298"><ele>2447.8728</ele><time>2026-07-21T10:26:59.000Z</time></trkpt>
        <trkpt lat="29.546182" lon="103.338285"><ele>2447.4163</ele><time>2026-07-21T10:27:11.000Z</time></trkpt>
        <trkpt lat="29.546184" lon="103.338268"><ele>2447.9155</ele><time>2026-07-21T10:27:41.000Z</time></trkpt>
        <trkpt lat="29.546187" lon="103.338262"><ele>2448.3623</ele><time>2026-07-21T10:27:43.000Z</time></trkpt>
        <trkpt lat="29.546193" lon="103.338247"><ele>2449.8489</ele><time>2026-07-21T10:27:47.000Z</time></trkpt>
        <trkpt lat="29.546198" lon="103.338237"><ele>2450.837</ele><time>2026-07-21T10:27:51.000Z</time></trkpt>
        <trkpt lat="29.546199" lon="103.33823"><ele>2453.0037</ele><time>2026-07-21T10:27:55.000Z</time></trkpt>
        <trkpt lat="29.546215" lon="103.338178"><ele>2455.0718</ele><time>2026-07-21T10:28:08.000Z</time></trkpt>
        <trkpt lat="29.546216" lon="103.338174"><ele>2457.4019</ele><time>2026-07-21T10:28:10.000Z</time></trkpt>
        <trkpt lat="29.546221" lon="103.338168"><ele>2456.8594</ele><time>2026-07-21T10:28:12.000Z</time></trkpt>
        <trkpt lat="29.546237" lon="103.338144"><ele>2458.5872</ele><time>2026-07-21T10:28:16.000Z</time></trkpt>
        <trkpt lat="29.546237" lon="103.338144"><ele>2459.0896</ele><time>2026-07-21T10:28:18.000Z</time></trkpt>
        <trkpt lat="29.546238" lon="103.338135"><ele>2459.4434</ele><time>2026-07-21T10:28:22.000Z</time></trkpt>
        <trkpt lat="29.546242" lon="103.338103"><ele>2461.8599</ele><time>2026-07-21T10:28:28.000Z</time></trkpt>
        <trkpt lat="29.546247" lon="103.338072"><ele>2461.8306</ele><time>2026-07-21T10:28:30.000Z</time></trkpt>
        <trkpt lat="29.546248" lon="103.338069"><ele>2463.0637</ele><time>2026-07-21T10:28:32.000Z</time></trkpt>
        <trkpt lat="29.546248" lon="103.338068"><ele>2462.037</ele><time>2026-07-21T10:28:34.000Z</time></trkpt>
        <trkpt lat="29.546256" lon="103.338031"><ele>2460.8833</ele><time>2026-07-21T10:28:40.000Z</time></trkpt>
        <trkpt lat="29.54626" lon="103.338014"><ele>2460.01</ele><time>2026-07-21T10:28:42.000Z</time></trkpt>
        <trkpt lat="29.546265" lon="103.337997"><ele>2459.9807</ele><time>2026-07-21T10:28:44.000Z</time></trkpt>
        <trkpt lat="29.546272" lon="103.337982"><ele>2460.1206</ele><time>2026-07-21T10:28:46.000Z</time></trkpt>
        <trkpt lat="29.54628" lon="103.337967"><ele>2459.542</ele><time>2026-07-21T10:28:48.000Z</time></trkpt>
        <trkpt lat="29.546288" lon="103.337955"><ele>2459.4185</ele><time>2026-07-21T10:28:50.000Z</time></trkpt>
        <trkpt lat="29.546295" lon="103.337948"><ele>2457.5828</ele><time>2026-07-21T10:28:52.000Z</time></trkpt>
        <trkpt lat="29.546304" lon="103.337939"><ele>2457.593</ele><time>2026-07-21T10:28:54.000Z</time></trkpt>
        <trkpt lat="29.546314" lon="103.337929"><ele>2457.2864</ele><time>2026-07-21T10:28:56.000Z</time></trkpt>
        <trkpt lat="29.546323" lon="103.337919"><ele>2456.6404</ele><time>2026-07-21T10:28:58.000Z</time></trkpt>
        <trkpt lat="29.546333" lon="103.337905"><ele>2456.7063</ele><time>2026-07-21T10:29:00.000Z</time></trkpt>
        <trkpt lat="29.546341" lon="103.337892"><ele>2456.2393</ele><time>2026-07-21T10:29:02.000Z</time></trkpt>
        <trkpt lat="29.546349" lon="103.337876"><ele>2456.398</ele><time>2026-07-21T10:29:04.000Z</time></trkpt>
        <trkpt lat="29.546356" lon="103.337858"><ele>2456.3525</ele><time>2026-07-21T10:29:06.000Z</time></trkpt>
        <trkpt lat="29.546365" lon="103.337839"><ele>2456.8445</ele><time>2026-07-21T10:29:08.000Z</time></trkpt>
        <trkpt lat="29.546373" lon="103.337821"><ele>2456.6875</ele><time>2026-07-21T10:29:10.000Z</time></trkpt>
        <trkpt lat="29.546378" lon="103.337807"><ele>2456.4731</ele><time>2026-07-21T10:29:12.000Z</time></trkpt>
        <trkpt lat="29.546383" lon="103.337792"><ele>2456.48</ele><time>2026-07-21T10:29:14.000Z</time></trkpt>
        <trkpt lat="29.546388" lon="103.337776"><ele>2456.625</ele><time>2026-07-21T10:29:16.000Z</time></trkpt>
        <trkpt lat="29.546393" lon="103.33776"><ele>2457.4182</ele><time>2026-07-21T10:29:18.000Z</time></trkpt>
        <trkpt lat="29.546398" lon="103.337743"><ele>2457.4365</ele><time>2026-07-21T10:29:20.000Z</time></trkpt>
        <trkpt lat="29.5464" lon="103.337728"><ele>2457.7288</ele><time>2026-07-21T10:29:22.000Z</time></trkpt>
        <trkpt lat="29.546404" lon="103.337712"><ele>2456.9678</ele><time>2026-07-21T10:29:24.000Z</time></trkpt>
        <trkpt lat="29.546407" lon="103.337695"><ele>2457.4932</ele><time>2026-07-21T10:29:26.000Z</time></trkpt>
        <trkpt lat="29.546409" lon="103.337681"><ele>2457.6926</ele><time>2026-07-21T10:29:28.000Z</time></trkpt>
        <trkpt lat="29.546411" lon="103.337668"><ele>2457.896</ele><time>2026-07-21T10:29:30.000Z</time></trkpt>
        <trkpt lat="29.546415" lon="103.337653"><ele>2457.6665</ele><time>2026-07-21T10:29:32.000Z</time></trkpt>
        <trkpt lat="29.546419" lon="103.337638"><ele>2457.1917</ele><time>2026-07-21T10:29:34.000Z</time></trkpt>
        <trkpt lat="29.546424" lon="103.337621"><ele>2457.6096</ele><time>2026-07-21T10:29:36.000Z</time></trkpt>
        <trkpt lat="29.546431" lon="103.337604"><ele>2457.7664</ele><time>2026-07-21T10:29:38.000Z</time></trkpt>
        <trkpt lat="29.546439" lon="103.337587"><ele>2458.0945</ele><time>2026-07-21T10:29:40.000Z</time></trkpt>
        <trkpt lat="29.546448" lon="103.33757"><ele>2458.1924</ele><time>2026-07-21T10:29:42.000Z</time></trkpt>
        <trkpt lat="29.546458" lon="103.337554"><ele>2458.4185</ele><time>2026-07-21T10:29:44.000Z</time></trkpt>
        <trkpt lat="29.546465" lon="103.337541"><ele>2458.3474</ele><time>2026-07-21T10:29:46.000Z</time></trkpt>
        <trkpt lat="29.546472" lon="103.337528"><ele>2457.8877</ele><time>2026-07-21T10:29:48.000Z</time></trkpt>
        <trkpt lat="29.54648" lon="103.337516"><ele>2457.3777</ele><time>2026-07-21T10:29:50.000Z</time></trkpt>
        <trkpt lat="29.54649" lon="103.337505"><ele>2457.1807</ele><time>2026-07-21T10:29:52.000Z</time></trkpt>
        <trkpt lat="29.546501" lon="103.337494"><ele>2457.5132</ele><time>2026-07-21T10:29:54.000Z</time></trkpt>
        <trkpt lat="29.546514" lon="103.337483"><ele>2456.718</ele><time>2026-07-21T10:29:56.000Z</time></trkpt>
        <trkpt lat="29.546525" lon="103.337469"><ele>2456.8123</ele><time>2026-07-21T10:29:58.000Z</time></trkpt>
        <trkpt lat="29.546535" lon="103.337454"><ele>2456.7607</ele><time>2026-07-21T10:30:00.000Z</time></trkpt>
        <trkpt lat="29.54654" lon="103.337439"><ele>2456.933</ele><time>2026-07-21T10:30:02.000Z</time></trkpt>
        <trkpt lat="29.546545" lon="103.337422"><ele>2457.0593</ele><time>2026-07-21T10:30:04.000Z</time></trkpt>
        <trkpt lat="29.546549" lon="103.337406"><ele>2457.4624</ele><time>2026-07-21T10:30:06.000Z</time></trkpt>
        <trkpt lat="29.546552" lon="103.337392"><ele>2456.8193</ele><time>2026-07-21T10:30:08.000Z</time></trkpt>
        <trkpt lat="29.546555" lon="103.337378"><ele>2457.306</ele><time>2026-07-21T10:30:10.000Z</time></trkpt>
        <trkpt lat="29.546559" lon="103.337366"><ele>2458.143</ele><time>2026-07-21T10:30:12.000Z</time></trkpt>
        <trkpt lat="29.546564" lon="103.337357"><ele>2458.0823</ele><time>2026-07-21T10:30:14.000Z</time></trkpt>
        <trkpt lat="29.546568" lon="103.337347"><ele>2457.6587</ele><time>2026-07-21T10:30:16.000Z</time></trkpt>
        <trkpt lat="29.546577" lon="103.337325"><ele>2458.6367</ele><time>2026-07-21T10:30:20.000Z</time></trkpt>
        <trkpt lat="29.54658" lon="103.337313"><ele>2458.616</ele><time>2026-07-21T10:30:22.000Z</time></trkpt>
        <trkpt lat="29.546585" lon="103.337298"><ele>2458.7175</ele><time>2026-07-21T10:30:24.000Z</time></trkpt>
        <trkpt lat="29.54659" lon="103.337281"><ele>2459.3303</ele><time>2026-07-21T10:30:26.000Z</time></trkpt>
        <trkpt lat="29.546592" lon="103.337265"><ele>2458.9407</ele><time>2026-07-21T10:30:28.000Z</time></trkpt>
        <trkpt lat="29.546593" lon="103.337251"><ele>2458.8145</ele><time>2026-07-21T10:30:30.000Z</time></trkpt>
        <trkpt lat="29.546595" lon="103.337239"><ele>2459.224</ele><time>2026-07-21T10:30:32.000Z</time></trkpt>
        <trkpt lat="29.546597" lon="103.337229"><ele>2459.379</ele><time>2026-07-21T10:30:34.000Z</time></trkpt>
        <trkpt lat="29.546599" lon="103.337207"><ele>2459.901</ele><time>2026-07-21T10:30:38.000Z</time></trkpt>
        <trkpt lat="29.546599" lon="103.337196"><ele>2460.6565</ele><time>2026-07-21T10:30:40.000Z</time></trkpt>
        <trkpt lat="29.546601" lon="103.337178"><ele>2460.9204</ele><time>2026-07-21T10:30:42.000Z</time></trkpt>
        <trkpt lat="29.546601" lon="103.337165"><ele>2461.1946</ele><time>2026-07-21T10:30:44.000Z</time></trkpt>
        <trkpt lat="29.546603" lon="103.337149"><ele>2460.982</ele><time>2026-07-21T10:30:46.000Z</time></trkpt>
        <trkpt lat="29.546603" lon="103.337135"><ele>2461.245</ele><time>2026-07-21T10:30:48.000Z</time></trkpt>
        <trkpt lat="29.546603" lon="103.337122"><ele>2461.9314</ele><time>2026-07-21T10:30:50.000Z</time></trkpt>
        <trkpt lat="29.546604" lon="103.337115"><ele>2462.2537</ele><time>2026-07-21T10:30:52.000Z</time></trkpt>
        <trkpt lat="29.546611" lon="103.337096"><ele>2462.0674</ele><time>2026-07-21T10:30:56.000Z</time></trkpt>
        <trkpt lat="29.546616" lon="103.337092"><ele>2461.7397</ele><time>2026-07-21T10:31:00.000Z</time></trkpt>
        <trkpt lat="29.546617" lon="103.337093"><ele>2461.1025</ele><time>2026-07-21T10:31:08.000Z</time></trkpt>
        <trkpt lat="29.54659" lon="103.337067"><ele>2459.694</ele><time>2026-07-21T10:31:26.000Z</time></trkpt>
        <trkpt lat="29.546585" lon="103.337063"><ele>2459.7322</ele><time>2026-07-21T10:31:28.000Z</time></trkpt>
        <trkpt lat="29.54658" lon="103.337059"><ele>2459.5527</ele><time>2026-07-21T10:31:30.000Z</time></trkpt>
        <trkpt lat="29.546563" lon="103.337047"><ele>2458.138</ele><time>2026-07-21T10:31:36.000Z</time></trkpt>
        <trkpt lat="29.546517" lon="103.337013"><ele>2460.6653</ele><time>2026-07-21T10:32:11.000Z</time></trkpt>
        <trkpt lat="29.546492" lon="103.336933"><ele>2460.9932</ele><time>2026-07-21T10:32:26.000Z</time></trkpt>
        <trkpt lat="29.546458" lon="103.336823"><ele>2459.3123</ele><time>2026-07-21T10:32:41.000Z</time></trkpt>
        <trkpt lat="29.546456" lon="103.336728"><ele>2457.964</ele><time>2026-07-21T10:32:56.000Z</time></trkpt>
        <trkpt lat="29.546453" lon="103.336621"><ele>2455.4653</ele><time>2026-07-21T10:33:12.000Z</time></trkpt>
        <trkpt lat="29.546481" lon="103.336527"><ele>2451.8364</ele><time>2026-07-21T10:33:27.000Z</time></trkpt>
        <trkpt lat="29.546495" lon="103.336484"><ele>2450.7737</ele><time>2026-07-21T10:33:35.000Z</time></trkpt>
        <trkpt lat="29.546499" lon="103.336478"><ele>2450.7969</ele><time>2026-07-21T10:33:37.000Z</time></trkpt>
        <trkpt lat="29.546502" lon="103.336467"><ele>2451.1116</ele><time>2026-07-21T10:33:39.000Z</time></trkpt>
        <trkpt lat="29.546505" lon="103.336447"><ele>2449.3342</ele><time>2026-07-21T10:33:43.000Z</time></trkpt>
        <trkpt lat="29.546503" lon="103.336436"><ele>2448.399</ele><time>2026-07-21T10:33:45.000Z</time></trkpt>
        <trkpt lat="29.546503" lon="103.336425"><ele>2448.0168</ele><time>2026-07-21T10:33:47.000Z</time></trkpt>
        <trkpt lat="29.546504" lon="103.336404"><ele>2445.845</ele><time>2026-07-21T10:33:51.000Z</time></trkpt>
        <trkpt lat="29.546505" lon="103.336393"><ele>2445.895</ele><time>2026-07-21T10:33:53.000Z</time></trkpt>
        <trkpt lat="29.546506" lon="103.336378"><ele>2446.1519</ele><time>2026-07-21T10:33:55.000Z</time></trkpt>
        <trkpt lat="29.546506" lon="103.336367"><ele>2445.9197</ele><time>2026-07-21T10:33:57.000Z</time></trkpt>
        <trkpt lat="29.546505" lon="103.336354"><ele>2446.0483</ele><time>2026-07-21T10:33:59.000Z</time></trkpt>
        <trkpt lat="29.546504" lon="103.336341"><ele>2445.9307</ele><time>2026-07-21T10:34:01.000Z</time></trkpt>
        <trkpt lat="29.546503" lon="103.336329"><ele>2445.3755</ele><time>2026-07-21T10:34:03.000Z</time></trkpt>
        <trkpt lat="29.546502" lon="103.336315"><ele>2445.456</ele><time>2026-07-21T10:34:05.000Z</time></trkpt>
        <trkpt lat="29.546502" lon="103.336303"><ele>2444.5173</ele><time>2026-07-21T10:34:07.000Z</time></trkpt>
        <trkpt lat="29.546504" lon="103.336286"><ele>2445.8005</ele><time>2026-07-21T10:34:09.000Z</time></trkpt>
        <trkpt lat="29.546508" lon="103.336268"><ele>2445.3315</ele><time>2026-07-21T10:34:11.000Z</time></trkpt>
        <trkpt lat="29.546512" lon="103.336251"><ele>2445.0747</ele><time>2026-07-21T10:34:13.000Z</time></trkpt>
        <trkpt lat="29.546516" lon="103.336235"><ele>2444.3354</ele><time>2026-07-21T10:34:15.000Z</time></trkpt>
        <trkpt lat="29.546521" lon="103.33622"><ele>2443.5576</ele><time>2026-07-21T10:34:17.000Z</time></trkpt>
        <trkpt lat="29.546526" lon="103.336207"><ele>2443.5093</ele><time>2026-07-21T10:34:19.000Z</time></trkpt>
        <trkpt lat="29.54653" lon="103.336195"><ele>2443.1868</ele><time>2026-07-21T10:34:21.000Z</time></trkpt>
        <trkpt lat="29.546532" lon="103.336186"><ele>2442.74</ele><time>2026-07-21T10:34:23.000Z</time></trkpt>
        <trkpt lat="29.546536" lon="103.336173"><ele>2442.8948</ele><time>2026-07-21T10:34:25.000Z</time></trkpt>
        <trkpt lat="29.546541" lon="103.336158"><ele>2442.9814</ele><time>2026-07-21T10:34:27.000Z</time></trkpt>
        <trkpt lat="29.546547" lon="103.336147"><ele>2442.5056</ele><time>2026-07-21T10:34:29.000Z</time></trkpt>
        <trkpt lat="29.546552" lon="103.336134"><ele>2442.0337</ele><time>2026-07-21T10:34:31.000Z</time></trkpt>
        <trkpt lat="29.546556" lon="103.336123"><ele>2441.411</ele><time>2026-07-21T10:34:33.000Z</time></trkpt>
        <trkpt lat="29.546559" lon="103.336114"><ele>2441.2747</ele><time>2026-07-21T10:34:35.000Z</time></trkpt>
        <trkpt lat="29.546563" lon="103.3361"><ele>2440.707</ele><time>2026-07-21T10:34:37.000Z</time></trkpt>
        <trkpt lat="29.546568" lon="103.336086"><ele>2440.2637</ele><time>2026-07-21T10:34:39.000Z</time></trkpt>
        <trkpt lat="29.546574" lon="103.336072"><ele>2440.0366</ele><time>2026-07-21T10:34:41.000Z</time></trkpt>
        <trkpt lat="29.54658" lon="103.336056"><ele>2439.3564</ele><time>2026-07-21T10:34:43.000Z</time></trkpt>
        <trkpt lat="29.546585" lon="103.336039"><ele>2438.5908</ele><time>2026-07-21T10:34:45.000Z</time></trkpt>
        <trkpt lat="29.54659" lon="103.336022"><ele>2438.9268</ele><time>2026-07-21T10:34:47.000Z</time></trkpt>
        <trkpt lat="29.546595" lon="103.336008"><ele>2438.4856</ele><time>2026-07-21T10:34:49.000Z</time></trkpt>
        <trkpt lat="29.5466" lon="103.335992"><ele>2438.959</ele><time>2026-07-21T10:34:51.000Z</time></trkpt>
        <trkpt lat="29.546607" lon="103.335976"><ele>2439.096</ele><time>2026-07-21T10:34:53.000Z</time></trkpt>
        <trkpt lat="29.546613" lon="103.33596"><ele>2438.7842</ele><time>2026-07-21T10:34:55.000Z</time></trkpt>
        <trkpt lat="29.546617" lon="103.335948"><ele>2438.0972</ele><time>2026-07-21T10:34:57.000Z</time></trkpt>
        <trkpt lat="29.546621" lon="103.335934"><ele>2437.5454</ele><time>2026-07-21T10:34:59.000Z</time></trkpt>
        <trkpt lat="29.546626" lon="103.335918"><ele>2437.6113</ele><time>2026-07-21T10:35:01.000Z</time></trkpt>
        <trkpt lat="29.54663" lon="103.335897"><ele>2437.936</ele><time>2026-07-21T10:35:03.000Z</time></trkpt>
        <trkpt lat="29.546634" lon="103.335877"><ele>2438.4026</ele><time>2026-07-21T10:35:05.000Z</time></trkpt>
        <trkpt lat="29.546639" lon="103.335862"><ele>2437.4639</ele><time>2026-07-21T10:35:07.000Z</time></trkpt>
        <trkpt lat="29.546645" lon="103.33585"><ele>2436.5916</ele><time>2026-07-21T10:35:09.000Z</time></trkpt>
        <trkpt lat="29.546651" lon="103.335834"><ele>2436.6968</ele><time>2026-07-21T10:35:11.000Z</time></trkpt>
        <trkpt lat="29.546657" lon="103.335817"><ele>2437.2632</ele><time>2026-07-21T10:35:13.000Z</time></trkpt>
        <trkpt lat="29.546661" lon="103.335797"><ele>2438.0647</ele><time>2026-07-21T10:35:15.000Z</time></trkpt>
        <trkpt lat="29.546664" lon="103.335777"><ele>2437.9758</ele><time>2026-07-21T10:35:17.000Z</time></trkpt>
        <trkpt lat="29.546668" lon="103.335756"><ele>2438.4617</ele><time>2026-07-21T10:35:19.000Z</time></trkpt>
        <trkpt lat="29.54667" lon="103.335739"><ele>2437.6277</ele><time>2026-07-21T10:35:21.000Z</time></trkpt>
        <trkpt lat="29.546669" lon="103.335723"><ele>2436.7815</ele><time>2026-07-21T10:35:23.000Z</time></trkpt>
        <trkpt lat="29.54667" lon="103.33571"><ele>2436.1543</ele><time>2026-07-21T10:35:25.000Z</time></trkpt>
        <trkpt lat="29.546672" lon="103.335695"><ele>2436.9827</ele><time>2026-07-21T10:35:27.000Z</time></trkpt>
        <trkpt lat="29.546675" lon="103.335681"><ele>2436.6982</ele><time>2026-07-21T10:35:29.000Z</time></trkpt>
        <trkpt lat="29.546679" lon="103.335666"><ele>2436.2253</ele><time>2026-07-21T10:35:31.000Z</time></trkpt>
        <trkpt lat="29.546683" lon="103.335649"><ele>2435.6816</ele><time>2026-07-21T10:35:33.000Z</time></trkpt>
        <trkpt lat="29.546689" lon="103.33563"><ele>2435.184</ele><time>2026-07-21T10:35:35.000Z</time></trkpt>
        <trkpt lat="29.546693" lon="103.335614"><ele>2435.4492</ele><time>2026-07-21T10:35:37.000Z</time></trkpt>
        <trkpt lat="29.546698" lon="103.335599"><ele>2435.9292</ele><time>2026-07-21T10:35:39.000Z</time></trkpt>
        <trkpt lat="29.546704" lon="103.335583"><ele>2436.0881</ele><time>2026-07-21T10:35:41.000Z</time></trkpt>
        <trkpt lat="29.546711" lon="103.335567"><ele>2436.1619</ele><time>2026-07-21T10:35:43.000Z</time></trkpt>
        <trkpt lat="29.546715" lon="103.335549"><ele>2436.1045</ele><time>2026-07-21T10:35:45.000Z</time></trkpt>
        <trkpt lat="29.546716" lon="103.335533"><ele>2434.6958</ele><time>2026-07-21T10:35:47.000Z</time></trkpt>
        <trkpt lat="29.546718" lon="103.335512"><ele>2434.2393</ele><time>2026-07-21T10:35:49.000Z</time></trkpt>
        <trkpt lat="29.546721" lon="103.335494"><ele>2434.207</ele><time>2026-07-21T10:35:51.000Z</time></trkpt>
        <trkpt lat="29.546725" lon="103.335477"><ele>2433.9536</ele><time>2026-07-21T10:35:53.000Z</time></trkpt>
        <trkpt lat="29.546729" lon="103.33546"><ele>2434.265</ele><time>2026-07-21T10:35:55.000Z</time></trkpt>
        <trkpt lat="29.546734" lon="103.335443"><ele>2434.502</ele><time>2026-07-21T10:35:57.000Z</time></trkpt>
        <trkpt lat="29.546739" lon="103.335425"><ele>2435.3552</ele><time>2026-07-21T10:35:59.000Z</time></trkpt>
        <trkpt lat="29.546744" lon="103.335408"><ele>2435.506</ele><time>2026-07-21T10:36:01.000Z</time></trkpt>
        <trkpt lat="29.546749" lon="103.335392"><ele>2435.9094</ele><time>2026-07-21T10:36:03.000Z</time></trkpt>
        <trkpt lat="29.546751" lon="103.335382"><ele>2433.938</ele><time>2026-07-21T10:36:05.000Z</time></trkpt>
        <trkpt lat="29.546753" lon="103.335372"><ele>2433.816</ele><time>2026-07-21T10:36:07.000Z</time></trkpt>
        <trkpt lat="29.546757" lon="103.335348"><ele>2432.1685</ele><time>2026-07-21T10:36:11.000Z</time></trkpt>
        <trkpt lat="29.54676" lon="103.335333"><ele>2432.4358</ele><time>2026-07-21T10:36:13.000Z</time></trkpt>
        <trkpt lat="29.546762" lon="103.335325"><ele>2433.5122</ele><time>2026-07-21T10:36:15.000Z</time></trkpt>
        <trkpt lat="29.546766" lon="103.335306"><ele>2433.511</ele><time>2026-07-21T10:36:19.000Z</time></trkpt>
        <trkpt lat="29.54677" lon="103.335299"><ele>2433.7002</ele><time>2026-07-21T10:36:21.000Z</time></trkpt>
        <trkpt lat="29.546775" lon="103.335283"><ele>2433.552</ele><time>2026-07-21T10:36:23.000Z</time></trkpt>
        <trkpt lat="29.54678" lon="103.335262"><ele>2433.153</ele><time>2026-07-21T10:36:29.000Z</time></trkpt>
        <trkpt lat="29.546786" lon="103.335239"><ele>2432.9846</ele><time>2026-07-21T10:36:31.000Z</time></trkpt>
        <trkpt lat="29.546791" lon="103.335218"><ele>2432.0073</ele><time>2026-07-21T10:36:33.000Z</time></trkpt>
        <trkpt lat="29.546794" lon="103.335196"><ele>2430.5193</ele><time>2026-07-21T10:36:35.000Z</time></trkpt>
        <trkpt lat="29.546794" lon="103.335179"><ele>2431.2136</ele><time>2026-07-21T10:36:37.000Z</time></trkpt>
        <trkpt lat="29.546792" lon="103.335165"><ele>2431.4873</ele><time>2026-07-21T10:36:39.000Z</time></trkpt>
        <trkpt lat="29.546788" lon="103.335152"><ele>2430.462</ele><time>2026-07-21T10:36:41.000Z</time></trkpt>
        <trkpt lat="29.546784" lon="103.335136"><ele>2430.2654</ele><time>2026-07-21T10:36:43.000Z</time></trkpt>
        <trkpt lat="29.546781" lon="103.335121"><ele>2429.1475</ele><time>2026-07-21T10:36:45.000Z</time></trkpt>
        <trkpt lat="29.546778" lon="103.335108"><ele>2428.9346</ele><time>2026-07-21T10:36:47.000Z</time></trkpt>
        <trkpt lat="29.546775" lon="103.335094"><ele>2428.0737</ele><time>2026-07-21T10:36:49.000Z</time></trkpt>
        <trkpt lat="29.546773" lon="103.335085"><ele>2427.7898</ele><time>2026-07-21T10:36:51.000Z</time></trkpt>
        <trkpt lat="29.54677" lon="103.335066"><ele>2427.116</ele><time>2026-07-21T10:36:55.000Z</time></trkpt>
        <trkpt lat="29.546768" lon="103.335058"><ele>2427.992</ele><time>2026-07-21T10:36:57.000Z</time></trkpt>
        <trkpt lat="29.546764" lon="103.335046"><ele>2427.5952</ele><time>2026-07-21T10:36:59.000Z</time></trkpt>
        <trkpt lat="29.546758" lon="103.335028"><ele>2427.2754</ele><time>2026-07-21T10:37:01.000Z</time></trkpt>
        <trkpt lat="29.546752" lon="103.335016"><ele>2426.632</ele><time>2026-07-21T10:37:03.000Z</time></trkpt>
        <trkpt lat="29.546744" lon="103.335005"><ele>2425.7788</ele><time>2026-07-21T10:37:05.000Z</time></trkpt>
        <trkpt lat="29.546736" lon="103.334997"><ele>2425.2686</ele><time>2026-07-21T10:37:07.000Z</time></trkpt>
        <trkpt lat="29.546726" lon="103.33499"><ele>2424.9749</ele><time>2026-07-21T10:37:09.000Z</time></trkpt>
        <trkpt lat="29.546713" lon="103.334982"><ele>2423.9795</ele><time>2026-07-21T10:37:11.000Z</time></trkpt>
        <trkpt lat="29.546699" lon="103.334974"><ele>2423.3804</ele><time>2026-07-21T10:37:13.000Z</time></trkpt>
        <trkpt lat="29.546686" lon="103.334966"><ele>2423.4856</ele><time>2026-07-21T10:37:15.000Z</time></trkpt>
        <trkpt lat="29.546675" lon="103.334957"><ele>2423.7202</ele><time>2026-07-21T10:37:17.000Z</time></trkpt>
        <trkpt lat="29.546662" lon="103.334947"><ele>2423.6501</ele><time>2026-07-21T10:37:19.000Z</time></trkpt>
        <trkpt lat="29.546648" lon="103.334936"><ele>2424.0776</ele><time>2026-07-21T10:37:21.000Z</time></trkpt>
        <trkpt lat="29.546632" lon="103.334924"><ele>2424.9136</ele><time>2026-07-21T10:37:23.000Z</time></trkpt>
        <trkpt lat="29.546617" lon="103.33491"><ele>2424.6604</ele><time>2026-07-21T10:37:25.000Z</time></trkpt>
        <trkpt lat="29.546604" lon="103.3349"><ele>2424.5066</ele><time>2026-07-21T10:37:27.000Z</time></trkpt>
        <trkpt lat="29.546588" lon="103.334888"><ele>2424.191</ele><time>2026-07-21T10:37:29.000Z</time></trkpt>
        <trkpt lat="29.546571" lon="103.334877"><ele>2424.5078</ele><time>2026-07-21T10:37:31.000Z</time></trkpt>
        <trkpt lat="29.546556" lon="103.334865"><ele>2424.2234</ele><time>2026-07-21T10:37:33.000Z</time></trkpt>
        <trkpt lat="29.546543" lon="103.334855"><ele>2424.8594</ele><time>2026-07-21T10:37:35.000Z</time></trkpt>
        <trkpt lat="29.546529" lon="103.334846"><ele>2425.7524</ele><time>2026-07-21T10:37:37.000Z</time></trkpt>
        <trkpt lat="29.546513" lon="103.334839"><ele>2425.8457</ele><time>2026-07-21T10:37:39.000Z</time></trkpt>
        <trkpt lat="29.546497" lon="103.334833"><ele>2426.069</ele><time>2026-07-21T10:37:41.000Z</time></trkpt>
        <trkpt lat="29.546484" lon="103.334827"><ele>2425.9412</ele><time>2026-07-21T10:37:43.000Z</time></trkpt>
        <trkpt lat="29.546473" lon="103.334821"><ele>2426.4792</ele><time>2026-07-21T10:37:45.000Z</time></trkpt>
        <trkpt lat="29.546465" lon="103.334814"><ele>2427.382</ele><time>2026-07-21T10:37:47.000Z</time></trkpt>
        <trkpt lat="29.546455" lon="103.334808"><ele>2428.5476</ele><time>2026-07-21T10:37:51.000Z</time></trkpt>
        <trkpt lat="29.546447" lon="103.334806"><ele>2427.957</ele><time>2026-07-21T10:37:53.000Z</time></trkpt>
        <trkpt lat="29.546424" lon="103.334801"><ele>2428.6038</ele><time>2026-07-21T10:37:55.000Z</time></trkpt>
        <trkpt lat="29.546422" lon="103.3348"><ele>2427.99</ele><time>2026-07-21T10:37:57.000Z</time></trkpt>
        <trkpt lat="29.546415" lon="103.334796"><ele>2429.3435</ele><time>2026-07-21T10:38:01.000Z</time></trkpt>
        <trkpt lat="29.546389" lon="103.334782"><ele>2430.3909</ele><time>2026-07-21T10:38:05.000Z</time></trkpt>
        <trkpt lat="29.546389" lon="103.334782"><ele>2429.6125</ele><time>2026-07-21T10:38:07.000Z</time></trkpt>
        <trkpt lat="29.546386" lon="103.334781"><ele>2428.9702</ele><time>2026-07-21T10:38:09.000Z</time></trkpt>
        <trkpt lat="29.54636" lon="103.334771"><ele>2428.8496</ele><time>2026-07-21T10:38:15.000Z</time></trkpt>
        <trkpt lat="29.54636" lon="103.33477"><ele>2428.914</ele><time>2026-07-21T10:38:17.000Z</time></trkpt>
        <trkpt lat="29.546358" lon="103.33477"><ele>2432.3044</ele><time>2026-07-21T10:38:32.000Z</time></trkpt>
        <trkpt lat="29.546326" lon="103.33476"><ele>2435.0269</ele><time>2026-07-21T10:38:42.000Z</time></trkpt>
        <trkpt lat="29.546312" lon="103.334755"><ele>2434.5154</ele><time>2026-07-21T10:38:44.000Z</time></trkpt>
        <trkpt lat="29.546311" lon="103.334755"><ele>2434.2454</ele><time>2026-07-21T10:38:46.000Z</time></trkpt>
        <trkpt lat="29.546296" lon="103.33475"><ele>2435.4663</ele><time>2026-07-21T10:38:50.000Z</time></trkpt>
        <trkpt lat="29.546284" lon="103.334748"><ele>2435.755</ele><time>2026-07-21T10:38:52.000Z</time></trkpt>
        <trkpt lat="29.546268" lon="103.334748"><ele>2435.5789</ele><time>2026-07-21T10:38:54.000Z</time></trkpt>
        <trkpt lat="29.546259" lon="103.33475"><ele>2435.8489</ele><time>2026-07-21T10:38:56.000Z</time></trkpt>
        <trkpt lat="29.546254" lon="103.334752"><ele>2435.6357</ele><time>2026-07-21T10:38:58.000Z</time></trkpt>
        <trkpt lat="29.546238" lon="103.334759"><ele>2437.2</ele><time>2026-07-21T10:39:02.000Z</time></trkpt>
        <trkpt lat="29.546218" lon="103.334767"><ele>2436.888</ele><time>2026-07-21T10:39:04.000Z</time></trkpt>
        <trkpt lat="29.546217" lon="103.334767"><ele>2436.8809</ele><time>2026-07-21T10:39:06.000Z</time></trkpt>
        <trkpt lat="29.5462" lon="103.334769"><ele>2435.9956</ele><time>2026-07-21T10:39:10.000Z</time></trkpt>
        <trkpt lat="29.546182" lon="103.334769"><ele>2436.561</ele><time>2026-07-21T10:39:12.000Z</time></trkpt>
        <trkpt lat="29.546164" lon="103.334768"><ele>2435.9119</ele><time>2026-07-21T10:39:14.000Z</time></trkpt>
        <trkpt lat="29.546149" lon="103.334766"><ele>2435.6777</ele><time>2026-07-21T10:39:16.000Z</time></trkpt>
        <trkpt lat="29.546135" lon="103.334764"><ele>2435.3462</ele><time>2026-07-21T10:39:18.000Z</time></trkpt>
        <trkpt lat="29.546122" lon="103.334761"><ele>2434.9941</ele><time>2026-07-21T10:39:20.000Z</time></trkpt>
        <trkpt lat="29.546111" lon="103.33476"><ele>2434.8792</ele><time>2026-07-21T10:39:22.000Z</time></trkpt>
        <trkpt lat="29.546105" lon="103.334759"><ele>2435.4795</ele><time>2026-07-21T10:39:26.000Z</time></trkpt>
        <trkpt lat="29.546085" lon="103.334754"><ele>2431.906</ele><time>2026-07-21T10:39:50.000Z</time></trkpt>
        <trkpt lat="29.54607" lon="103.33475"><ele>2432.593</ele><time>2026-07-21T10:39:52.000Z</time></trkpt>
        <trkpt lat="29.546069" lon="103.334749"><ele>2432.9585</ele><time>2026-07-21T10:39:54.000Z</time></trkpt>
        <trkpt lat="29.546047" lon="103.334736"><ele>2434.1416</ele><time>2026-07-21T10:40:00.000Z</time></trkpt>
        <trkpt lat="29.546037" lon="103.334732"><ele>2435.0525</ele><time>2026-07-21T10:40:02.000Z</time></trkpt>
        <trkpt lat="29.546028" lon="103.334731"><ele>2435.2305</ele><time>2026-07-21T10:40:04.000Z</time></trkpt>
        <trkpt lat="29.546007" lon="103.334729"><ele>2434.1765</ele><time>2026-07-21T10:40:08.000Z</time></trkpt>
        <trkpt lat="29.545998" lon="103.334728"><ele>2433.123</ele><time>2026-07-21T10:40:10.000Z</time></trkpt>
        <trkpt lat="29.545986" lon="103.334726"><ele>2432.6895</ele><time>2026-07-21T10:40:12.000Z</time></trkpt>
        <trkpt lat="29.545975" lon="103.334723"><ele>2432.277</ele><time>2026-07-21T10:40:14.000Z</time></trkpt>
        <trkpt lat="29.545964" lon="103.33472"><ele>2431.586</ele><time>2026-07-21T10:40:16.000Z</time></trkpt>
        <trkpt lat="29.545951" lon="103.334715"><ele>2431.3013</ele><time>2026-07-21T10:40:18.000Z</time></trkpt>
        <trkpt lat="29.545945" lon="103.33471"><ele>2430.8843</ele><time>2026-07-21T10:40:20.000Z</time></trkpt>
        <trkpt lat="29.545932" lon="103.334695"><ele>2429.5344</ele><time>2026-07-21T10:40:24.000Z</time></trkpt>
        <trkpt lat="29.545926" lon="103.334686"><ele>2429.4805</ele><time>2026-07-21T10:40:26.000Z</time></trkpt>
        <trkpt lat="29.54592" lon="103.334679"><ele>2429.1345</ele><time>2026-07-21T10:40:28.000Z</time></trkpt>
        <trkpt lat="29.545914" lon="103.334669"><ele>2428.9841</ele><time>2026-07-21T10:40:30.000Z</time></trkpt>
        <trkpt lat="29.545908" lon="103.334654"><ele>2430.0156</ele><time>2026-07-21T10:40:32.000Z</time></trkpt>
        <trkpt lat="29.545904" lon="103.33464"><ele>2430.0303</ele><time>2026-07-21T10:40:34.000Z</time></trkpt>
        <trkpt lat="29.545897" lon="103.334625"><ele>2428.1284</ele><time>2026-07-21T10:40:36.000Z</time></trkpt>
        <trkpt lat="29.54589" lon="103.334612"><ele>2427.104</ele><time>2026-07-21T10:40:38.000Z</time></trkpt>
        <trkpt lat="29.545878" lon="103.334595"><ele>2426.4978</ele><time>2026-07-21T10:40:40.000Z</time></trkpt>
        <trkpt lat="29.545866" lon="103.334581"><ele>2426.9133</ele><time>2026-07-21T10:40:42.000Z</time></trkpt>
        <trkpt lat="29.545854" lon="103.334568"><ele>2427.2554</ele><time>2026-07-21T10:40:44.000Z</time></trkpt>
        <trkpt lat="29.545843" lon="103.334557"><ele>2427.1704</ele><time>2026-07-21T10:40:46.000Z</time></trkpt>
        <trkpt lat="29.545831" lon="103.334546"><ele>2427.355</ele><time>2026-07-21T10:40:48.000Z</time></trkpt>
        <trkpt lat="29.545819" lon="103.334539"><ele>2427.0615</ele><time>2026-07-21T10:40:50.000Z</time></trkpt>
        <trkpt lat="29.545807" lon="103.33453"><ele>2426.3596</ele><time>2026-07-21T10:40:52.000Z</time></trkpt>
        <trkpt lat="29.545797" lon="103.334524"><ele>2425.12</ele><time>2026-07-21T10:40:54.000Z</time></trkpt>
        <trkpt lat="29.545786" lon="103.334519"><ele>2424.3962</ele><time>2026-07-21T10:40:56.000Z</time></trkpt>
        <trkpt lat="29.545774" lon="103.334511"><ele>2423.6838</ele><time>2026-07-21T10:40:58.000Z</time></trkpt>
        <trkpt lat="29.545765" lon="103.334503"><ele>2423.55</ele><time>2026-07-21T10:41:00.000Z</time></trkpt>
        <trkpt lat="29.545753" lon="103.334494"><ele>2423.3328</ele><time>2026-07-21T10:41:02.000Z</time></trkpt>
        <trkpt lat="29.545737" lon="103.334483"><ele>2423.6138</ele><time>2026-07-21T10:41:04.000Z</time></trkpt>
        <trkpt lat="29.54572" lon="103.334473"><ele>2424.2417</ele><time>2026-07-21T10:41:06.000Z</time></trkpt>
        <trkpt lat="29.545704" lon="103.334463"><ele>2423.7202</ele><time>2026-07-21T10:41:08.000Z</time></trkpt>
        <trkpt lat="29.545691" lon="103.334455"><ele>2423.3047</ele><time>2026-07-21T10:41:10.000Z</time></trkpt>
        <trkpt lat="29.545677" lon="103.334449"><ele>2423.1985</ele><time>2026-07-21T10:41:12.000Z</time></trkpt>
        <trkpt lat="29.545663" lon="103.334444"><ele>2422.9924</ele><time>2026-07-21T10:41:14.000Z</time></trkpt>
        <trkpt lat="29.54565" lon="103.334439"><ele>2422.021</ele><time>2026-07-21T10:41:16.000Z</time></trkpt>
        <trkpt lat="29.545641" lon="103.334436"><ele>2422.22</ele><time>2026-07-21T10:41:18.000Z</time></trkpt>
        <trkpt lat="29.545632" lon="103.334434"><ele>2422.1003</ele><time>2026-07-21T10:41:20.000Z</time></trkpt>
        <trkpt lat="29.545621" lon="103.33443"><ele>2422.814</ele><time>2026-07-21T10:41:22.000Z</time></trkpt>
        <trkpt lat="29.545609" lon="103.334424"><ele>2423.4763</ele><time>2026-07-21T10:41:24.000Z</time></trkpt>
        <trkpt lat="29.545599" lon="103.334417"><ele>2422.2134</ele><time>2026-07-21T10:41:26.000Z</time></trkpt>
        <trkpt lat="29.545585" lon="103.334406"><ele>2422.0781</ele><time>2026-07-21T10:41:28.000Z</time></trkpt>
        <trkpt lat="29.545566" lon="103.334394"><ele>2421.8447</ele><time>2026-07-21T10:41:30.000Z</time></trkpt>
        <trkpt lat="29.545548" lon="103.334385"><ele>2421.9963</ele><time>2026-07-21T10:41:32.000Z</time></trkpt>
        <trkpt lat="29.545535" lon="103.334378"><ele>2422.246</ele><time>2026-07-21T10:41:34.000Z</time></trkpt>
        <trkpt lat="29.545529" lon="103.334377"><ele>2423.4731</ele><time>2026-07-21T10:41:36.000Z</time></trkpt>
        <trkpt lat="29.545515" lon="103.334371"><ele>2425.0479</ele><time>2026-07-21T10:41:46.000Z</time></trkpt>
        <trkpt lat="29.545506" lon="103.334362"><ele>2425.0337</ele><time>2026-07-21T10:41:50.000Z</time></trkpt>
        <trkpt lat="29.545495" lon="103.334352"><ele>2424.9136</ele><time>2026-07-21T10:41:52.000Z</time></trkpt>
        <trkpt lat="29.545483" lon="103.334344"><ele>2427.532</ele><time>2026-07-21T10:41:58.000Z</time></trkpt>
        <trkpt lat="29.545465" lon="103.334334"><ele>2428.094</ele><time>2026-07-21T10:42:00.000Z</time></trkpt>
        <trkpt lat="29.545449" lon="103.334323"><ele>2428.0122</ele><time>2026-07-21T10:42:02.000Z</time></trkpt>
        <trkpt lat="29.545437" lon="103.334314"><ele>2428.2554</ele><time>2026-07-21T10:42:04.000Z</time></trkpt>
        <trkpt lat="29.545422" lon="103.334303"><ele>2428.3083</ele><time>2026-07-21T10:42:06.000Z</time></trkpt>
        <trkpt lat="29.545405" lon="103.334292"><ele>2428.0542</ele><time>2026-07-21T10:42:08.000Z</time></trkpt>
        <trkpt lat="29.545386" lon="103.334281"><ele>2427.301</ele><time>2026-07-21T10:42:10.000Z</time></trkpt>
        <trkpt lat="29.545367" lon="103.334272"><ele>2427.3994</ele><time>2026-07-21T10:42:12.000Z</time></trkpt>
        <trkpt lat="29.545351" lon="103.334264"><ele>2428.031</ele><time>2026-07-21T10:42:14.000Z</time></trkpt>
        <trkpt lat="29.545335" lon="103.334254"><ele>2428.6067</ele><time>2026-07-21T10:42:16.000Z</time></trkpt>
        <trkpt lat="29.545322" lon="103.334243"><ele>2428.1826</ele><time>2026-07-21T10:42:18.000Z</time></trkpt>
        <trkpt lat="29.545314" lon="103.334233"><ele>2429.014</ele><time>2026-07-21T10:42:20.000Z</time></trkpt>
        <trkpt lat="29.545305" lon="103.33422"><ele>2429.0845</ele><time>2026-07-21T10:42:22.000Z</time></trkpt>
        <trkpt lat="29.545298" lon="103.33421"><ele>2429.5806</ele><time>2026-07-21T10:42:24.000Z</time></trkpt>
        <trkpt lat="29.545291" lon="103.334202"><ele>2429.1875</ele><time>2026-07-21T10:42:26.000Z</time></trkpt>
        <trkpt lat="29.545286" lon="103.334193"><ele>2429.3909</ele><time>2026-07-21T10:42:28.000Z</time></trkpt>
        <trkpt lat="29.545276" lon="103.334176"><ele>2430.3154</ele><time>2026-07-21T10:42:32.000Z</time></trkpt>
        <trkpt lat="29.545271" lon="103.334165"><ele>2429.94</ele><time>2026-07-21T10:42:34.000Z</time></trkpt>
        <trkpt lat="29.545263" lon="103.334151"><ele>2430.1985</ele><time>2026-07-21T10:42:36.000Z</time></trkpt>
        <trkpt lat="29.545257" lon="103.334139"><ele>2430.5579</ele><time>2026-07-21T10:42:38.000Z</time></trkpt>
        <trkpt lat="29.545248" lon="103.334126"><ele>2430.5935</ele><time>2026-07-21T10:42:40.000Z</time></trkpt>
        <trkpt lat="29.545235" lon="103.33411"><ele>2431.5156</ele><time>2026-07-21T10:42:42.000Z</time></trkpt>
        <trkpt lat="29.545222" lon="103.334101"><ele>2431.4775</ele><time>2026-07-21T10:42:44.000Z</time></trkpt>
        <trkpt lat="29.545208" lon="103.334096"><ele>2430.9702</ele><time>2026-07-21T10:42:46.000Z</time></trkpt>
        <trkpt lat="29.545195" lon="103.334092"><ele>2429.9683</ele><time>2026-07-21T10:42:48.000Z</time></trkpt>
        <trkpt lat="29.545182" lon="103.334089"><ele>2430.043</ele><time>2026-07-21T10:42:50.000Z</time></trkpt>
        <trkpt lat="29.545168" lon="103.334086"><ele>2430.178</ele><time>2026-07-21T10:42:52.000Z</time></trkpt>
        <trkpt lat="29.545155" lon="103.334084"><ele>2430.0059</ele><time>2026-07-21T10:42:54.000Z</time></trkpt>
        <trkpt lat="29.545139" lon="103.334081"><ele>2428.8901</ele><time>2026-07-21T10:42:56.000Z</time></trkpt>
        <trkpt lat="29.545125" lon="103.334077"><ele>2428.122</ele><time>2026-07-21T10:42:58.000Z</time></trkpt>
        <trkpt lat="29.54511" lon="103.33407"><ele>2428.8552</ele><time>2026-07-21T10:43:00.000Z</time></trkpt>
        <trkpt lat="29.545093" lon="103.334064"><ele>2429.434</ele><time>2026-07-21T10:43:02.000Z</time></trkpt>
        <trkpt lat="29.545076" lon="103.334059"><ele>2429.4946</ele><time>2026-07-21T10:43:04.000Z</time></trkpt>
        <trkpt lat="29.545062" lon="103.334057"><ele>2430.0205</ele><time>2026-07-21T10:43:06.000Z</time></trkpt>
        <trkpt lat="29.54505" lon="103.334056"><ele>2430.5105</ele><time>2026-07-21T10:43:08.000Z</time></trkpt>
        <trkpt lat="29.545041" lon="103.334056"><ele>2430.7368</ele><time>2026-07-21T10:43:10.000Z</time></trkpt>
        <trkpt lat="29.545031" lon="103.334055"><ele>2430.9338</ele><time>2026-07-21T10:43:12.000Z</time></trkpt>
        <trkpt lat="29.545016" lon="103.33405"><ele>2431.709</ele><time>2026-07-21T10:43:16.000Z</time></trkpt>
        <trkpt lat="29.544993" lon="103.334042"><ele>2430.7688</ele><time>2026-07-21T10:43:18.000Z</time></trkpt>
        <trkpt lat="29.544991" lon="103.334042"><ele>2430.666</ele><time>2026-07-21T10:43:20.000Z</time></trkpt>
        <trkpt lat="29.544972" lon="103.334043"><ele>2429.1921</ele><time>2026-07-21T10:43:24.000Z</time></trkpt>
        <trkpt lat="29.544949" lon="103.334043"><ele>2429.1116</ele><time>2026-07-21T10:43:26.000Z</time></trkpt>
        <trkpt lat="29.544929" lon="103.334043"><ele>2429.1562</ele><time>2026-07-21T10:43:28.000Z</time></trkpt>
        <trkpt lat="29.54491" lon="103.334045"><ele>2429.294</ele><time>2026-07-21T10:43:30.000Z</time></trkpt>
        <trkpt lat="29.544891" lon="103.334049"><ele>2429.3599</ele><time>2026-07-21T10:43:32.000Z</time></trkpt>
        <trkpt lat="29.544872" lon="103.334054"><ele>2429.2659</ele><time>2026-07-21T10:43:34.000Z</time></trkpt>
        <trkpt lat="29.544857" lon="103.33406"><ele>2429.5398</ele><time>2026-07-21T10:43:36.000Z</time></trkpt>
        <trkpt lat="29.544846" lon="103.334065"><ele>2429.9478</ele><time>2026-07-21T10:43:38.000Z</time></trkpt>
        <trkpt lat="29.544835" lon="103.334074"><ele>2430.4016</ele><time>2026-07-21T10:43:40.000Z</time></trkpt>
        <trkpt lat="29.544828" lon="103.334082"><ele>2431.0012</ele><time>2026-07-21T10:43:42.000Z</time></trkpt>
        <trkpt lat="29.544818" lon="103.334094"><ele>2430.951</ele><time>2026-07-21T10:43:44.000Z</time></trkpt>
        <trkpt lat="29.544805" lon="103.334108"><ele>2430.8535</ele><time>2026-07-21T10:43:46.000Z</time></trkpt>
        <trkpt lat="29.544792" lon="103.334122"><ele>2430.637</ele><time>2026-07-21T10:43:48.000Z</time></trkpt>
        <trkpt lat="29.544777" lon="103.334137"><ele>2429.156</ele><time>2026-07-21T10:43:50.000Z</time></trkpt>
        <trkpt lat="29.544761" lon="103.334152"><ele>2429.1428</ele><time>2026-07-21T10:43:52.000Z</time></trkpt>
        <trkpt lat="29.544746" lon="103.334165"><ele>2429.1082</ele><time>2026-07-21T10:43:54.000Z</time></trkpt>
        <trkpt lat="29.544731" lon="103.334175"><ele>2428.7256</ele><time>2026-07-21T10:43:56.000Z</time></trkpt>
        <trkpt lat="29.544717" lon="103.334183"><ele>2428.447</ele><time>2026-07-21T10:43:58.000Z</time></trkpt>
        <trkpt lat="29.544707" lon="103.334188"><ele>2427.779</ele><time>2026-07-21T10:44:00.000Z</time></trkpt>
        <trkpt lat="29.544696" lon="103.334193"><ele>2427.1284</ele><time>2026-07-21T10:44:02.000Z</time></trkpt>
        <trkpt lat="29.544685" lon="103.334199"><ele>2426.895</ele><time>2026-07-21T10:44:04.000Z</time></trkpt>
        <trkpt lat="29.544677" lon="103.334202"><ele>2426.5073</ele><time>2026-07-21T10:44:06.000Z</time></trkpt>
        <trkpt lat="29.544668" lon="103.334207"><ele>2426.6833</ele><time>2026-07-21T10:44:08.000Z</time></trkpt>
        <trkpt lat="29.544658" lon="103.334212"><ele>2426.811</ele><time>2026-07-21T10:44:10.000Z</time></trkpt>
        <trkpt lat="29.54465" lon="103.334214"><ele>2427.2297</ele><time>2026-07-21T10:44:12.000Z</time></trkpt>
        <trkpt lat="29.544639" lon="103.334214"><ele>2426.71</ele><time>2026-07-21T10:44:14.000Z</time></trkpt>
        <trkpt lat="29.544626" lon="103.334212"><ele>2425.3254</ele><time>2026-07-21T10:44:16.000Z</time></trkpt>
        <trkpt lat="29.54461" lon="103.334207"><ele>2425.366</ele><time>2026-07-21T10:44:18.000Z</time></trkpt>
        <trkpt lat="29.544596" lon="103.334201"><ele>2425.0679</ele><time>2026-07-21T10:44:20.000Z</time></trkpt>
        <trkpt lat="29.544582" lon="103.334196"><ele>2425.5461</ele><time>2026-07-21T10:44:22.000Z</time></trkpt>
        <trkpt lat="29.544564" lon="103.334191"><ele>2425.4248</ele><time>2026-07-21T10:44:24.000Z</time></trkpt>
        <trkpt lat="29.544544" lon="103.334185"><ele>2425.578</ele><time>2026-07-21T10:44:26.000Z</time></trkpt>
        <trkpt lat="29.544526" lon="103.334179"><ele>2425.133</ele><time>2026-07-21T10:44:28.000Z</time></trkpt>
        <trkpt lat="29.54451" lon="103.334172"><ele>2425.015</ele><time>2026-07-21T10:44:30.000Z</time></trkpt>
        <trkpt lat="29.544495" lon="103.334166"><ele>2425.4338</ele><time>2026-07-21T10:44:32.000Z</time></trkpt>
        <trkpt lat="29.544479" lon="103.334163"><ele>2426.0374</ele><time>2026-07-21T10:44:34.000Z</time></trkpt>
        <trkpt lat="29.544462" lon="103.33416"><ele>2424.7007</ele><time>2026-07-21T10:44:36.000Z</time></trkpt>
        <trkpt lat="29.544443" lon="103.334155"><ele>2424.288</ele><time>2026-07-21T10:44:38.000Z</time></trkpt>
        <trkpt lat="29.544427" lon="103.334151"><ele>2423.9631</ele><time>2026-07-21T10:44:40.000Z</time></trkpt>
        <trkpt lat="29.54441" lon="103.334145"><ele>2424.288</ele><time>2026-07-21T10:44:42.000Z</time></trkpt>
        <trkpt lat="29.544389" lon="103.334139"><ele>2423.3364</ele><time>2026-07-21T10:44:44.000Z</time></trkpt>
        <trkpt lat="29.544368" lon="103.334136"><ele>2422.9534</ele><time>2026-07-21T10:44:46.000Z</time></trkpt>
        <trkpt lat="29.54435" lon="103.334136"><ele>2424.0046</ele><time>2026-07-21T10:44:48.000Z</time></trkpt>
        <trkpt lat="29.544335" lon="103.334139"><ele>2424.227</ele><time>2026-07-21T10:44:50.000Z</time></trkpt>
        <trkpt lat="29.544319" lon="103.334142"><ele>2422.1387</ele><time>2026-07-21T10:44:52.000Z</time></trkpt>
        <trkpt lat="29.544303" lon="103.334145"><ele>2423.2878</ele><time>2026-07-21T10:44:54.000Z</time></trkpt>
        <trkpt lat="29.544286" lon="103.334145"><ele>2424.0146</ele><time>2026-07-21T10:44:56.000Z</time></trkpt>
        <trkpt lat="29.544269" lon="103.334143"><ele>2423.3079</ele><time>2026-07-21T10:44:58.000Z</time></trkpt>
        <trkpt lat="29.544255" lon="103.334141"><ele>2424.3196</ele><time>2026-07-21T10:45:00.000Z</time></trkpt>
        <trkpt lat="29.544237" lon="103.334135"><ele>2426.3655</ele><time>2026-07-21T10:45:02.000Z</time></trkpt>
        <trkpt lat="29.544223" lon="103.334129"><ele>2427.107</ele><time>2026-07-21T10:45:04.000Z</time></trkpt>
        <trkpt lat="29.54421" lon="103.334121"><ele>2427.7522</ele><time>2026-07-21T10:45:06.000Z</time></trkpt>
        <trkpt lat="29.544198" lon="103.334115"><ele>2427.1086</ele><time>2026-07-21T10:45:08.000Z</time></trkpt>
        <trkpt lat="29.544182" lon="103.33411"><ele>2426.4644</ele><time>2026-07-21T10:45:10.000Z</time></trkpt>
        <trkpt lat="29.544165" lon="103.334106"><ele>2425.973</ele><time>2026-07-21T10:45:12.000Z</time></trkpt>
        <trkpt lat="29.544145" lon="103.334103"><ele>2424.5903</ele><time>2026-07-21T10:45:14.000Z</time></trkpt>
        <trkpt lat="29.544126" lon="103.334103"><ele>2424.1948</ele><time>2026-07-21T10:45:16.000Z</time></trkpt>
        <trkpt lat="29.544108" lon="103.3341"><ele>2423.9524</ele><time>2026-07-21T10:45:18.000Z</time></trkpt>
        <trkpt lat="29.544097" lon="103.334097"><ele>2424.2432</ele><time>2026-07-21T10:45:20.000Z</time></trkpt>
        <trkpt lat="29.544086" lon="103.334093"><ele>2424.574</ele><time>2026-07-21T10:45:22.000Z</time></trkpt>
        <trkpt lat="29.544073" lon="103.334086"><ele>2424.5425</ele><time>2026-07-21T10:45:24.000Z</time></trkpt>
        <trkpt lat="29.544061" lon="103.334079"><ele>2425.0955</ele><time>2026-07-21T10:45:26.000Z</time></trkpt>
        <trkpt lat="29.544048" lon="103.334071"><ele>2425.9927</ele><time>2026-07-21T10:45:28.000Z</time></trkpt>
        <trkpt lat="29.544034" lon="103.334061"><ele>2425.5222</ele><time>2026-07-21T10:45:30.000Z</time></trkpt>
        <trkpt lat="29.544021" lon="103.334051"><ele>2425.2441</ele><time>2026-07-21T10:45:32.000Z</time></trkpt>
        <trkpt lat="29.544008" lon="103.33404"><ele>2425.5437</ele><time>2026-07-21T10:45:34.000Z</time></trkpt>
        <trkpt lat="29.543994" lon="103.334027"><ele>2425.4495</ele><time>2026-07-21T10:45:36.000Z</time></trkpt>
        <trkpt lat="29.543981" lon="103.334015"><ele>2424.942</ele><time>2026-07-21T10:45:38.000Z</time></trkpt>
        <trkpt lat="29.543969" lon="103.334004"><ele>2425.5857</ele><time>2026-07-21T10:45:40.000Z</time></trkpt>
        <trkpt lat="29.54396" lon="103.333994"><ele>2425.2048</ele><time>2026-07-21T10:45:42.000Z</time></trkpt>
        <trkpt lat="29.543951" lon="103.333982"><ele>2425.5117</ele><time>2026-07-21T10:45:44.000Z</time></trkpt>
        <trkpt lat="29.543946" lon="103.333971"><ele>2426.6326</ele><time>2026-07-21T10:45:46.000Z</time></trkpt>
        <trkpt lat="29.54394" lon="103.333957"><ele>2427.333</ele><time>2026-07-21T10:45:48.000Z</time></trkpt>
        <trkpt lat="29.543931" lon="103.33394"><ele>2426.872</ele><time>2026-07-21T10:45:50.000Z</time></trkpt>
        <trkpt lat="29.543919" lon="103.333925"><ele>2426.9736</ele><time>2026-07-21T10:45:52.000Z</time></trkpt>
        <trkpt lat="29.543902" lon="103.333912"><ele>2426.9404</ele><time>2026-07-21T10:45:54.000Z</time></trkpt>
        <trkpt lat="29.543884" lon="103.333904"><ele>2426.4622</ele><time>2026-07-21T10:45:56.000Z</time></trkpt>
        <trkpt lat="29.543868" lon="103.3339"><ele>2425.3953</ele><time>2026-07-21T10:45:58.000Z</time></trkpt>
        <trkpt lat="29.543851" lon="103.333899"><ele>2425.0798</ele><time>2026-07-21T10:46:00.000Z</time></trkpt>
        <trkpt lat="29.543832" lon="103.333896"><ele>2425.3044</ele><time>2026-07-21T10:46:02.000Z</time></trkpt>
        <trkpt lat="29.543817" lon="103.333894"><ele>2425.089</ele><time>2026-07-21T10:46:04.000Z</time></trkpt>
        <trkpt lat="29.543799" lon="103.333893"><ele>2423.9705</ele><time>2026-07-21T10:46:06.000Z</time></trkpt>
        <trkpt lat="29.543784" lon="103.333896"><ele>2423.9377</ele><time>2026-07-21T10:46:08.000Z</time></trkpt>
        <trkpt lat="29.543775" lon="103.3339"><ele>2423.5042</ele><time>2026-07-21T10:46:10.000Z</time></trkpt>
        <trkpt lat="29.543768" lon="103.333901"><ele>2423.5112</ele><time>2026-07-21T10:46:12.000Z</time></trkpt>
        <trkpt lat="29.543747" lon="103.333906"><ele>2423.3347</ele><time>2026-07-21T10:46:16.000Z</time></trkpt>
        <trkpt lat="29.543736" lon="103.333907"><ele>2423.2368</ele><time>2026-07-21T10:46:18.000Z</time></trkpt>
        <trkpt lat="29.543719" lon="103.333909"><ele>2423.844</ele><time>2026-07-21T10:46:20.000Z</time></trkpt>
        <trkpt lat="29.543705" lon="103.333907"><ele>2424.38</ele><time>2026-07-21T10:46:22.000Z</time></trkpt>
        <trkpt lat="29.543692" lon="103.333903"><ele>2423.619</ele><time>2026-07-21T10:46:24.000Z</time></trkpt>
        <trkpt lat="29.543677" lon="103.333895"><ele>2422.678</ele><time>2026-07-21T10:46:26.000Z</time></trkpt>
        <trkpt lat="29.543665" lon="103.333885"><ele>2422.9363</ele><time>2026-07-21T10:46:28.000Z</time></trkpt>
        <trkpt lat="29.543652" lon="103.333874"><ele>2423.8499</ele><time>2026-07-21T10:46:30.000Z</time></trkpt>
        <trkpt lat="29.543641" lon="103.333864"><ele>2424.2856</ele><time>2026-07-21T10:46:32.000Z</time></trkpt>
        <trkpt lat="29.543629" lon="103.333852"><ele>2424.579</ele><time>2026-07-21T10:46:34.000Z</time></trkpt>
        <trkpt lat="29.543617" lon="103.333838"><ele>2424.474</ele><time>2026-07-21T10:46:36.000Z</time></trkpt>
        <trkpt lat="29.543607" lon="103.333825"><ele>2425.7898</ele><time>2026-07-21T10:46:38.000Z</time></trkpt>
        <trkpt lat="29.543598" lon="103.333814"><ele>2426.4973</ele><time>2026-07-21T10:46:40.000Z</time></trkpt>
        <trkpt lat="29.543588" lon="103.333805"><ele>2426.9072</ele><time>2026-07-21T10:46:42.000Z</time></trkpt>
        <trkpt lat="29.543578" lon="103.333796"><ele>2427.4731</ele><time>2026-07-21T10:46:44.000Z</time></trkpt>
        <trkpt lat="29.543568" lon="103.333787"><ele>2428.0032</ele><time>2026-07-21T10:46:46.000Z</time></trkpt>
        <trkpt lat="29.543558" lon="103.333774"><ele>2426.9358</ele><time>2026-07-21T10:46:48.000Z</time></trkpt>
        <trkpt lat="29.54355" lon="103.333762"><ele>2427.3962</ele><time>2026-07-21T10:46:50.000Z</time></trkpt>
        <trkpt lat="29.543543" lon="103.33375"><ele>2426.9854</ele><time>2026-07-21T10:46:52.000Z</time></trkpt>
        <trkpt lat="29.543536" lon="103.33374"><ele>2426.2905</ele><time>2026-07-21T10:46:54.000Z</time></trkpt>
        <trkpt lat="29.54353" lon="103.33373"><ele>2425.6072</ele><time>2026-07-21T10:46:56.000Z</time></trkpt>
        <trkpt lat="29.543521" lon="103.333719"><ele>2424.833</ele><time>2026-07-21T10:46:58.000Z</time></trkpt>
        <trkpt lat="29.543511" lon="103.333709"><ele>2424.2434</ele><time>2026-07-21T10:47:00.000Z</time></trkpt>
        <trkpt lat="29.543503" lon="103.333701"><ele>2424.5505</ele><time>2026-07-21T10:47:02.000Z</time></trkpt>
        <trkpt lat="29.543496" lon="103.333693"><ele>2424.4065</ele><time>2026-07-21T10:47:04.000Z</time></trkpt>
        <trkpt lat="29.543482" lon="103.333676"><ele>2422.9631</ele><time>2026-07-21T10:47:08.000Z</time></trkpt>
        <trkpt lat="29.543472" lon="103.333662"><ele>2422.1523</ele><time>2026-07-21T10:47:10.000Z</time></trkpt>
        <trkpt lat="29.543461" lon="103.33365"><ele>2421.783</ele><time>2026-07-21T10:47:12.000Z</time></trkpt>
        <trkpt lat="29.543451" lon="103.33364"><ele>2422.054</ele><time>2026-07-21T10:47:14.000Z</time></trkpt>
        <trkpt lat="29.543443" lon="103.333631"><ele>2422.364</ele><time>2026-07-21T10:47:16.000Z</time></trkpt>
        <trkpt lat="29.543436" lon="103.333622"><ele>2422.711</ele><time>2026-07-21T10:47:18.000Z</time></trkpt>
        <trkpt lat="29.543431" lon="103.333611"><ele>2422.3403</ele><time>2026-07-21T10:47:20.000Z</time></trkpt>
        <trkpt lat="29.543429" lon="103.333602"><ele>2422.86</ele><time>2026-07-21T10:47:22.000Z</time></trkpt>
        <trkpt lat="29.543427" lon="103.333591"><ele>2422.8157</ele><time>2026-07-21T10:47:24.000Z</time></trkpt>
        <trkpt lat="29.543423" lon="103.333576"><ele>2423.216</ele><time>2026-07-21T10:47:26.000Z</time></trkpt>
        <trkpt lat="29.543419" lon="103.333561"><ele>2423.2637</ele><time>2026-07-21T10:47:28.000Z</time></trkpt>
        <trkpt lat="29.543416" lon="103.333545"><ele>2422.5286</ele><time>2026-07-21T10:47:30.000Z</time></trkpt>
        <trkpt lat="29.543415" lon="103.333529"><ele>2422.1277</ele><time>2026-07-21T10:47:32.000Z</time></trkpt>
        <trkpt lat="29.543412" lon="103.333511"><ele>2420.8564</ele><time>2026-07-21T10:47:34.000Z</time></trkpt>
        <trkpt lat="29.543408" lon="103.333492"><ele>2420.8445</ele><time>2026-07-21T10:47:36.000Z</time></trkpt>
        <trkpt lat="29.543402" lon="103.333471"><ele>2420.4546</ele><time>2026-07-21T10:47:38.000Z</time></trkpt>
        <trkpt lat="29.543395" lon="103.333449"><ele>2420.8674</ele><time>2026-07-21T10:47:40.000Z</time></trkpt>
        <trkpt lat="29.54339" lon="103.333429"><ele>2420.6792</ele><time>2026-07-21T10:47:42.000Z</time></trkpt>
        <trkpt lat="29.543386" lon="103.333411"><ele>2420.7095</ele><time>2026-07-21T10:47:44.000Z</time></trkpt>
        <trkpt lat="29.543382" lon="103.333398"><ele>2420.852</ele><time>2026-07-21T10:47:46.000Z</time></trkpt>
        <trkpt lat="29.543377" lon="103.333384"><ele>2421.1626</ele><time>2026-07-21T10:47:48.000Z</time></trkpt>
        <trkpt lat="29.543371" lon="103.333367"><ele>2421.7273</ele><time>2026-07-21T10:47:50.000Z</time></trkpt>
        <trkpt lat="29.543364" lon="103.333349"><ele>2421.201</ele><time>2026-07-21T10:47:52.000Z</time></trkpt>
        <trkpt lat="29.543356" lon="103.333334"><ele>2420.631</ele><time>2026-07-21T10:47:54.000Z</time></trkpt>
        <trkpt lat="29.543347" lon="103.33332"><ele>2420.2356</ele><time>2026-07-21T10:47:56.000Z</time></trkpt>
        <trkpt lat="29.54334" lon="103.333304"><ele>2419.7117</ele><time>2026-07-21T10:47:58.000Z</time></trkpt>
        <trkpt lat="29.54334" lon="103.333292"><ele>2419.6313</ele><time>2026-07-21T10:48:00.000Z</time></trkpt>
        <trkpt lat="29.543343" lon="103.333279"><ele>2419.589</ele><time>2026-07-21T10:48:02.000Z</time></trkpt>
        <trkpt lat="29.543347" lon="103.333263"><ele>2418.9456</ele><time>2026-07-21T10:48:04.000Z</time></trkpt>
        <trkpt lat="29.543348" lon="103.33325"><ele>2418.3413</ele><time>2026-07-21T10:48:06.000Z</time></trkpt>
        <trkpt lat="29.543344" lon="103.333237"><ele>2417.732</ele><time>2026-07-21T10:48:08.000Z</time></trkpt>
        <trkpt lat="29.543337" lon="103.333222"><ele>2417.9348</ele><time>2026-07-21T10:48:10.000Z</time></trkpt>
        <trkpt lat="29.543329" lon="103.333209"><ele>2417.6753</ele><time>2026-07-21T10:48:12.000Z</time></trkpt>
        <trkpt lat="29.543318" lon="103.333193"><ele>2417.9246</ele><time>2026-07-21T10:48:14.000Z</time></trkpt>
        <trkpt lat="29.543309" lon="103.333176"><ele>2418.5356</ele><time>2026-07-21T10:48:16.000Z</time></trkpt>
        <trkpt lat="29.543297" lon="103.333158"><ele>2416.5256</ele><time>2026-07-21T10:48:18.000Z</time></trkpt>
        <trkpt lat="29.543286" lon="103.333144"><ele>2417.2202</ele><time>2026-07-21T10:48:20.000Z</time></trkpt>
        <trkpt lat="29.54328" lon="103.333136"><ele>2418.8674</ele><time>2026-07-21T10:48:22.000Z</time></trkpt>
        <trkpt lat="29.543276" lon="103.33313"><ele>2419.9924</ele><time>2026-07-21T10:48:24.000Z</time></trkpt>
        <trkpt lat="29.543261" lon="103.333114"><ele>2422.353</ele><time>2026-07-21T10:48:30.000Z</time></trkpt>
        <trkpt lat="29.543249" lon="103.333102"><ele>2422.275</ele><time>2026-07-21T10:48:32.000Z</time></trkpt>
        <trkpt lat="29.543248" lon="103.333101"><ele>2421.9858</ele><time>2026-07-21T10:48:34.000Z</time></trkpt>
        <trkpt lat="29.543236" lon="103.333086"><ele>2422.1675</ele><time>2026-07-21T10:48:38.000Z</time></trkpt>
        <trkpt lat="29.543226" lon="103.333073"><ele>2422.5366</ele><time>2026-07-21T10:48:40.000Z</time></trkpt>
        <trkpt lat="29.543215" lon="103.333059"><ele>2422.765</ele><time>2026-07-21T10:48:42.000Z</time></trkpt>
        <trkpt lat="29.543206" lon="103.333041"><ele>2422.8103</ele><time>2026-07-21T10:48:44.000Z</time></trkpt>
        <trkpt lat="29.543199" lon="103.333023"><ele>2422.2563</ele><time>2026-07-21T10:48:46.000Z</time></trkpt>
        <trkpt lat="29.543192" lon="103.333007"><ele>2422.5876</ele><time>2026-07-21T10:48:48.000Z</time></trkpt>
        <trkpt lat="29.543183" lon="103.332995"><ele>2422.1833</ele><time>2026-07-21T10:48:50.000Z</time></trkpt>
        <trkpt lat="29.543172" lon="103.332984"><ele>2422.64</ele><time>2026-07-21T10:48:52.000Z</time></trkpt>
        <trkpt lat="29.543156" lon="103.332976"><ele>2422.4324</ele><time>2026-07-21T10:48:54.000Z</time></trkpt>
        <trkpt lat="29.543138" lon="103.33297"><ele>2422.8914</ele><time>2026-07-21T10:48:56.000Z</time></trkpt>
        <trkpt lat="29.543118" lon="103.332966"><ele>2422.8257</ele><time>2026-07-21T10:48:58.000Z</time></trkpt>
        <trkpt lat="29.543096" lon="103.332962"><ele>2422.8655</ele><time>2026-07-21T10:49:00.000Z</time></trkpt>
        <trkpt lat="29.543071" lon="103.332958"><ele>2423.3335</ele><time>2026-07-21T10:49:02.000Z</time></trkpt>
        <trkpt lat="29.543051" lon="103.332955"><ele>2423.2703</ele><time>2026-07-21T10:49:04.000Z</time></trkpt>
        <trkpt lat="29.543036" lon="103.332957"><ele>2422.7856</ele><time>2026-07-21T10:49:06.000Z</time></trkpt>
        <trkpt lat="29.543025" lon="103.332959"><ele>2422.8032</ele><time>2026-07-21T10:49:08.000Z</time></trkpt>
        <trkpt lat="29.543011" lon="103.332961"><ele>2422.8887</ele><time>2026-07-21T10:49:10.000Z</time></trkpt>
        <trkpt lat="29.543" lon="103.332961"><ele>2422.4453</ele><time>2026-07-21T10:49:12.000Z</time></trkpt>
        <trkpt lat="29.542993" lon="103.332958"><ele>2422.952</ele><time>2026-07-21T10:49:14.000Z</time></trkpt>
        <trkpt lat="29.542973" lon="103.332944"><ele>2423.2234</ele><time>2026-07-21T10:49:18.000Z</time></trkpt>
        <trkpt lat="29.542965" lon="103.332936"><ele>2423.5103</ele><time>2026-07-21T10:49:20.000Z</time></trkpt>
        <trkpt lat="29.542956" lon="103.33293"><ele>2422.4885</ele><time>2026-07-21T10:49:22.000Z</time></trkpt>
        <trkpt lat="29.542946" lon="103.332922"><ele>2421.4817</ele><time>2026-07-21T10:49:24.000Z</time></trkpt>
        <trkpt lat="29.542935" lon="103.332915"><ele>2420.6892</ele><time>2026-07-21T10:49:26.000Z</time></trkpt>
        <trkpt lat="29.542923" lon="103.332908"><ele>2420.8608</ele><time>2026-07-21T10:49:28.000Z</time></trkpt>
        <trkpt lat="29.542914" lon="103.332901"><ele>2421.1821</ele><time>2026-07-21T10:49:30.000Z</time></trkpt>
        <trkpt lat="29.542904" lon="103.332894"><ele>2420.8223</ele><time>2026-07-21T10:49:32.000Z</time></trkpt>
        <trkpt lat="29.542893" lon="103.332884"><ele>2420.3574</ele><time>2026-07-21T10:49:34.000Z</time></trkpt>
        <trkpt lat="29.542883" lon="103.332871"><ele>2420.4111</ele><time>2026-07-21T10:49:36.000Z</time></trkpt>
        <trkpt lat="29.542876" lon="103.332858"><ele>2421.265</ele><time>2026-07-21T10:49:38.000Z</time></trkpt>
        <trkpt lat="29.542867" lon="103.332843"><ele>2422.1602</ele><time>2026-07-21T10:49:40.000Z</time></trkpt>
        <trkpt lat="29.542857" lon="103.332828"><ele>2422.9556</ele><time>2026-07-21T10:49:42.000Z</time></trkpt>
        <trkpt lat="29.542844" lon="103.332811"><ele>2424.0908</ele><time>2026-07-21T10:49:44.000Z</time></trkpt>
        <trkpt lat="29.54283" lon="103.332796"><ele>2424.027</ele><time>2026-07-21T10:49:46.000Z</time></trkpt>
        <trkpt lat="29.542816" lon="103.332782"><ele>2423.962</ele><time>2026-07-21T10:49:48.000Z</time></trkpt>
        <trkpt lat="29.542806" lon="103.332769"><ele>2424.5361</ele><time>2026-07-21T10:49:50.000Z</time></trkpt>
        <trkpt lat="29.542796" lon="103.332753"><ele>2425.0593</ele><time>2026-07-21T10:49:52.000Z</time></trkpt>
        <trkpt lat="29.542786" lon="103.332735"><ele>2424.7727</ele><time>2026-07-21T10:49:54.000Z</time></trkpt>
        <trkpt lat="29.542777" lon="103.33272"><ele>2424.6274</ele><time>2026-07-21T10:49:56.000Z</time></trkpt>
        <trkpt lat="29.542767" lon="103.332706"><ele>2424.7695</ele><time>2026-07-21T10:49:58.000Z</time></trkpt>
        <trkpt lat="29.542758" lon="103.332691"><ele>2425.188</ele><time>2026-07-21T10:50:00.000Z</time></trkpt>
        <trkpt lat="29.54275" lon="103.332678"><ele>2425.613</ele><time>2026-07-21T10:50:02.000Z</time></trkpt>
        <trkpt lat="29.54274" lon="103.332663"><ele>2425.3052</ele><time>2026-07-21T10:50:04.000Z</time></trkpt>
        <trkpt lat="29.54273" lon="103.332652"><ele>2424.2185</ele><time>2026-07-21T10:50:06.000Z</time></trkpt>
        <trkpt lat="29.542716" lon="103.332641"><ele>2423.6436</ele><time>2026-07-21T10:50:08.000Z</time></trkpt>
        <trkpt lat="29.542702" lon="103.332634"><ele>2423.1375</ele><time>2026-07-21T10:50:10.000Z</time></trkpt>
        <trkpt lat="29.542685" lon="103.332629"><ele>2423.2344</ele><time>2026-07-21T10:50:12.000Z</time></trkpt>
        <trkpt lat="29.542663" lon="103.332625"><ele>2423.1213</ele><time>2026-07-21T10:50:14.000Z</time></trkpt>
        <trkpt lat="29.542645" lon="103.332619"><ele>2422.87</ele><time>2026-07-21T10:50:16.000Z</time></trkpt>
        <trkpt lat="29.542628" lon="103.332612"><ele>2421.2727</ele><time>2026-07-21T10:50:18.000Z</time></trkpt>
        <trkpt lat="29.542617" lon="103.332606"><ele>2421.4436</ele><time>2026-07-21T10:50:20.000Z</time></trkpt>
        <trkpt lat="29.542605" lon="103.332597"><ele>2421.449</ele><time>2026-07-21T10:50:22.000Z</time></trkpt>
        <trkpt lat="29.542594" lon="103.332585"><ele>2420.511</ele><time>2026-07-21T10:50:24.000Z</time></trkpt>
        <trkpt lat="29.542587" lon="103.332573"><ele>2420.4219</ele><time>2026-07-21T10:50:26.000Z</time></trkpt>
        <trkpt lat="29.542579" lon="103.332557"><ele>2420.6829</ele><time>2026-07-21T10:50:28.000Z</time></trkpt>
        <trkpt lat="29.542572" lon="103.332541"><ele>2421.3135</ele><time>2026-07-21T10:50:30.000Z</time></trkpt>
        <trkpt lat="29.542567" lon="103.332526"><ele>2421.4075</ele><time>2026-07-21T10:50:32.000Z</time></trkpt>
        <trkpt lat="29.542561" lon="103.332507"><ele>2421.8955</ele><time>2026-07-21T10:50:34.000Z</time></trkpt>
        <trkpt lat="29.542557" lon="103.332489"><ele>2421.9404</ele><time>2026-07-21T10:50:36.000Z</time></trkpt>
        <trkpt lat="29.542552" lon="103.33247"><ele>2422.3545</ele><time>2026-07-21T10:50:38.000Z</time></trkpt>
        <trkpt lat="29.542549" lon="103.332456"><ele>2422.777</ele><time>2026-07-21T10:50:40.000Z</time></trkpt>
        <trkpt lat="29.542547" lon="103.332444"><ele>2423.1738</ele><time>2026-07-21T10:50:42.000Z</time></trkpt>
        <trkpt lat="29.542545" lon="103.332433"><ele>2423.381</ele><time>2026-07-21T10:50:44.000Z</time></trkpt>
        <trkpt lat="29.542541" lon="103.332421"><ele>2422.5715</ele><time>2026-07-21T10:50:46.000Z</time></trkpt>
        <trkpt lat="29.542537" lon="103.332411"><ele>2422.0784</ele><time>2026-07-21T10:50:48.000Z</time></trkpt>
        <trkpt lat="29.54253" lon="103.332398"><ele>2422.011</ele><time>2026-07-21T10:50:50.000Z</time></trkpt>
        <trkpt lat="29.542526" lon="103.332386"><ele>2421.8914</ele><time>2026-07-21T10:50:52.000Z</time></trkpt>
        <trkpt lat="29.542523" lon="103.332374"><ele>2421.975</ele><time>2026-07-21T10:50:54.000Z</time></trkpt>
        <trkpt lat="29.542518" lon="103.33236"><ele>2422.791</ele><time>2026-07-21T10:50:56.000Z</time></trkpt>
        <trkpt lat="29.542513" lon="103.332347"><ele>2423.6956</ele><time>2026-07-21T10:50:58.000Z</time></trkpt>
        <trkpt lat="29.542506" lon="103.332333"><ele>2424.3274</ele><time>2026-07-21T10:51:00.000Z</time></trkpt>
        <trkpt lat="29.542499" lon="103.332318"><ele>2425.1133</ele><time>2026-07-21T10:51:02.000Z</time></trkpt>
        <trkpt lat="29.542491" lon="103.332304"><ele>2425.5754</ele><time>2026-07-21T10:51:04.000Z</time></trkpt>
        <trkpt lat="29.542482" lon="103.332289"><ele>2425.8706</ele><time>2026-07-21T10:51:06.000Z</time></trkpt>
        <trkpt lat="29.542475" lon="103.332275"><ele>2425.127</ele><time>2026-07-21T10:51:08.000Z</time></trkpt>
        <trkpt lat="29.542468" lon="103.332259"><ele>2424.5818</ele><time>2026-07-21T10:51:10.000Z</time></trkpt>
        <trkpt lat="29.542463" lon="103.332242"><ele>2425.606</ele><time>2026-07-21T10:51:12.000Z</time></trkpt>
        <trkpt lat="29.542458" lon="103.332226"><ele>2425.1929</ele><time>2026-07-21T10:51:14.000Z</time></trkpt>
        <trkpt lat="29.542454" lon="103.332208"><ele>2424.9382</ele><time>2026-07-21T10:51:16.000Z</time></trkpt>
        <trkpt lat="29.54245" lon="103.33219"><ele>2424.6646</ele><time>2026-07-21T10:51:18.000Z</time></trkpt>
        <trkpt lat="29.542447" lon="103.332173"><ele>2425.2607</ele><time>2026-07-21T10:51:20.000Z</time></trkpt>
        <trkpt lat="29.542441" lon="103.332154"><ele>2426.5164</ele><time>2026-07-21T10:51:22.000Z</time></trkpt>
        <trkpt lat="29.542434" lon="103.332137"><ele>2426.436</ele><time>2026-07-21T10:51:24.000Z</time></trkpt>
        <trkpt lat="29.542423" lon="103.332117"><ele>2426.0215</ele><time>2026-07-21T10:51:26.000Z</time></trkpt>
        <trkpt lat="29.542412" lon="103.3321"><ele>2426.0776</ele><time>2026-07-21T10:51:28.000Z</time></trkpt>
        <trkpt lat="29.542399" lon="103.332084"><ele>2425.5757</ele><time>2026-07-21T10:51:30.000Z</time></trkpt>
        <trkpt lat="29.542385" lon="103.332069"><ele>2425.508</ele><time>2026-07-21T10:51:32.000Z</time></trkpt>
        <trkpt lat="29.542373" lon="103.332057"><ele>2425.805</ele><time>2026-07-21T10:51:34.000Z</time></trkpt>
        <trkpt lat="29.542361" lon="103.332046"><ele>2426.6433</ele><time>2026-07-21T10:51:36.000Z</time></trkpt>
        <trkpt lat="29.542353" lon="103.332037"><ele>2427.1016</ele><time>2026-07-21T10:51:38.000Z</time></trkpt>
        <trkpt lat="29.542344" lon="103.332025"><ele>2426.6658</ele><time>2026-07-21T10:51:40.000Z</time></trkpt>
        <trkpt lat="29.542337" lon="103.332012"><ele>2426.9966</ele><time>2026-07-21T10:51:42.000Z</time></trkpt>
        <trkpt lat="29.542328" lon="103.331999"><ele>2426.4958</ele><time>2026-07-21T10:51:44.000Z</time></trkpt>
        <trkpt lat="29.542321" lon="103.331991"><ele>2425.88</ele><time>2026-07-21T10:51:46.000Z</time></trkpt>
        <trkpt lat="29.542313" lon="103.331983"><ele>2425.4714</ele><time>2026-07-21T10:51:48.000Z</time></trkpt>
        <trkpt lat="29.542299" lon="103.331973"><ele>2426.2227</ele><time>2026-07-21T10:51:50.000Z</time></trkpt>
        <trkpt lat="29.542281" lon="103.331967"><ele>2426.7065</ele><time>2026-07-21T10:51:52.000Z</time></trkpt>
        <trkpt lat="29.542261" lon="103.331965"><ele>2427.9429</ele><time>2026-07-21T10:51:54.000Z</time></trkpt>
        <trkpt lat="29.542242" lon="103.331964"><ele>2427.543</ele><time>2026-07-21T10:51:56.000Z</time></trkpt>
        <trkpt lat="29.542228" lon="103.331966"><ele>2427.6946</ele><time>2026-07-21T10:51:58.000Z</time></trkpt>
        <trkpt lat="29.542217" lon="103.331966"><ele>2427.9045</ele><time>2026-07-21T10:52:00.000Z</time></trkpt>
        <trkpt lat="29.542203" lon="103.331968"><ele>2426.963</ele><time>2026-07-21T10:52:02.000Z</time></trkpt>
        <trkpt lat="29.542187" lon="103.331971"><ele>2426.2678</ele><time>2026-07-21T10:52:04.000Z</time></trkpt>
        <trkpt lat="29.542177" lon="103.331974"><ele>2425.6577</ele><time>2026-07-21T10:52:06.000Z</time></trkpt>
        <trkpt lat="29.542166" lon="103.331976"><ele>2424.956</ele><time>2026-07-21T10:52:08.000Z</time></trkpt>
        <trkpt lat="29.542155" lon="103.331977"><ele>2424.6868</ele><time>2026-07-21T10:52:10.000Z</time></trkpt>
        <trkpt lat="29.542141" lon="103.331977"><ele>2423.1587</ele><time>2026-07-21T10:52:12.000Z</time></trkpt>
        <trkpt lat="29.542128" lon="103.331977"><ele>2422.7983</ele><time>2026-07-21T10:52:14.000Z</time></trkpt>
        <trkpt lat="29.542115" lon="103.331976"><ele>2422.4758</ele><time>2026-07-21T10:52:16.000Z</time></trkpt>
        <trkpt lat="29.542105" lon="103.331971"><ele>2422.192</ele><time>2026-07-21T10:52:18.000Z</time></trkpt>
        <trkpt lat="29.542097" lon="103.331969"><ele>2419.9631</ele><time>2026-07-21T10:52:20.000Z</time></trkpt>
        <trkpt lat="29.542083" lon="103.331965"><ele>2420.034</ele><time>2026-07-21T10:52:28.000Z</time></trkpt>
        <trkpt lat="29.542072" lon="103.33197"><ele>2419.055</ele><time>2026-07-21T10:52:32.000Z</time></trkpt>
        <trkpt lat="29.542049" lon="103.33198"><ele>2419.3203</ele><time>2026-07-21T10:52:34.000Z</time></trkpt>
        <trkpt lat="29.542048" lon="103.331981"><ele>2418.4763</ele><time>2026-07-21T10:52:36.000Z</time></trkpt>
        <trkpt lat="29.542047" lon="103.331986"><ele>2418.6697</ele><time>2026-07-21T10:52:38.000Z</time></trkpt>
        <trkpt lat="29.542035" lon="103.332034"><ele>2420.2566</ele><time>2026-07-21T10:52:42.000Z</time></trkpt>
        <trkpt lat="29.542029" lon="103.332059"><ele>2421.8542</ele><time>2026-07-21T10:52:44.000Z</time></trkpt>
        <trkpt lat="29.542027" lon="103.332078"><ele>2422.0781</ele><time>2026-07-21T10:52:46.000Z</time></trkpt>
        <trkpt lat="29.542026" lon="103.332089"><ele>2422.3325</ele><time>2026-07-21T10:52:48.000Z</time></trkpt>
        <trkpt lat="29.542026" lon="103.332089"><ele>2422.2695</ele><time>2026-07-21T10:52:50.000Z</time></trkpt>
        <trkpt lat="29.541995" lon="103.332089"><ele>2420.5105</ele><time>2026-07-21T10:53:18.000Z</time></trkpt>
        <trkpt lat="29.541971" lon="103.332088"><ele>2420.2434</ele><time>2026-07-21T10:53:20.000Z</time></trkpt>
        <trkpt lat="29.541969" lon="103.332088"><ele>2420.3318</ele><time>2026-07-21T10:53:22.000Z</time></trkpt>
        <trkpt lat="29.54193" lon="103.332094"><ele>2419.5918</ele><time>2026-07-21T10:53:25.000Z</time></trkpt>
        <trkpt lat="29.54193" lon="103.332094"><ele>2420.5356</ele><time>2026-07-21T10:53:27.000Z</time></trkpt>
        <trkpt lat="29.541927" lon="103.332093"><ele>2420.4775</ele><time>2026-07-21T10:53:29.000Z</time></trkpt>
        <trkpt lat="29.541892" lon="103.332084"><ele>2421.0303</ele><time>2026-07-21T10:53:33.000Z</time></trkpt>
        <trkpt lat="29.541871" lon="103.332082"><ele>2420.7678</ele><time>2026-07-21T10:53:35.000Z</time></trkpt>
        <trkpt lat="29.541849" lon="103.332083"><ele>2420.7498</ele><time>2026-07-21T10:53:37.000Z</time></trkpt>
        <trkpt lat="29.541829" lon="103.332083"><ele>2421.1692</ele><time>2026-07-21T10:53:39.000Z</time></trkpt>
        <trkpt lat="29.541813" lon="103.332082"><ele>2421.409</ele><time>2026-07-21T10:53:41.000Z</time></trkpt>
        <trkpt lat="29.541797" lon="103.332079"><ele>2421.3503</ele><time>2026-07-21T10:53:43.000Z</time></trkpt>
        <trkpt lat="29.54178" lon="103.332074"><ele>2422.853</ele><time>2026-07-21T10:53:45.000Z</time></trkpt>
        <trkpt lat="29.541764" lon="103.332071"><ele>2423.703</ele><time>2026-07-21T10:53:47.000Z</time></trkpt>
        <trkpt lat="29.541751" lon="103.332066"><ele>2422.7646</ele><time>2026-07-21T10:53:49.000Z</time></trkpt>
        <trkpt lat="29.541741" lon="103.33206"><ele>2422.192</ele><time>2026-07-21T10:53:51.000Z</time></trkpt>
        <trkpt lat="29.541741" lon="103.332058"><ele>2422.744</ele><time>2026-07-21T10:53:53.000Z</time></trkpt>
        <trkpt lat="29.541746" lon="103.332022"><ele>2422.5027</ele><time>2026-07-21T10:54:01.000Z</time></trkpt>
        <trkpt lat="29.541749" lon="103.331998"><ele>2423.304</ele><time>2026-07-21T10:54:03.000Z</time></trkpt>
        <trkpt lat="29.541749" lon="103.331996"><ele>2422.7126</ele><time>2026-07-21T10:54:05.000Z</time></trkpt>
        <trkpt lat="29.541751" lon="103.331971"><ele>2422.4307</ele><time>2026-07-21T10:54:09.000Z</time></trkpt>
        <trkpt lat="29.541752" lon="103.33195"><ele>2422.5532</ele><time>2026-07-21T10:54:11.000Z</time></trkpt>
        <trkpt lat="29.541753" lon="103.331932"><ele>2422.7915</ele><time>2026-07-21T10:54:13.000Z</time></trkpt>
        <trkpt lat="29.541757" lon="103.331917"><ele>2422.5828</ele><time>2026-07-21T10:54:15.000Z</time></trkpt>
        <trkpt lat="29.541761" lon="103.331905"><ele>2421.9673</ele><time>2026-07-21T10:54:17.000Z</time></trkpt>
        <trkpt lat="29.541765" lon="103.331901"><ele>2421.7244</ele><time>2026-07-21T10:54:19.000Z</time></trkpt>
        <trkpt lat="29.541793" lon="103.331869"><ele>2422.139</ele><time>2026-07-21T10:54:27.000Z</time></trkpt>
        <trkpt lat="29.541802" lon="103.331854"><ele>2421.9705</ele><time>2026-07-21T10:54:29.000Z</time></trkpt>
        <trkpt lat="29.54181" lon="103.331836"><ele>2421.549</ele><time>2026-07-21T10:54:31.000Z</time></trkpt>
        <trkpt lat="29.54182" lon="103.331814"><ele>2422.3232</ele><time>2026-07-21T10:54:33.000Z</time></trkpt>
        <trkpt lat="29.54183" lon="103.331789"><ele>2422.7866</ele><time>2026-07-21T10:54:35.000Z</time></trkpt>
        <trkpt lat="29.541837" lon="103.331766"><ele>2422.6204</ele><time>2026-07-21T10:54:37.000Z</time></trkpt>
        <trkpt lat="29.541839" lon="103.331744"><ele>2421.9473</ele><time>2026-07-21T10:54:39.000Z</time></trkpt>
        <trkpt lat="29.541838" lon="103.331725"><ele>2421.108</ele><time>2026-07-21T10:54:41.000Z</time></trkpt>
        <trkpt lat="29.541837" lon="103.331709"><ele>2421.1562</ele><time>2026-07-21T10:54:43.000Z</time></trkpt>
        <trkpt lat="29.541839" lon="103.331701"><ele>2421.0742</ele><time>2026-07-21T10:54:45.000Z</time></trkpt>
        <trkpt lat="29.541843" lon="103.331689"><ele>2420.867</ele><time>2026-07-21T10:54:47.000Z</time></trkpt>
        <trkpt lat="29.54185" lon="103.331679"><ele>2420.4688</ele><time>2026-07-21T10:54:49.000Z</time></trkpt>
        <trkpt lat="29.541857" lon="103.331675"><ele>2420.1106</ele><time>2026-07-21T10:54:51.000Z</time></trkpt>
        <trkpt lat="29.541878" lon="103.331661"><ele>2420.7102</ele><time>2026-07-21T10:54:55.000Z</time></trkpt>
        <trkpt lat="29.541889" lon="103.331652"><ele>2420.3108</ele><time>2026-07-21T10:54:57.000Z</time></trkpt>
        <trkpt lat="29.541902" lon="103.331639"><ele>2419.9766</ele><time>2026-07-21T10:54:59.000Z</time></trkpt>
        <trkpt lat="29.541914" lon="103.331626"><ele>2419.4983</ele><time>2026-07-21T10:55:01.000Z</time></trkpt>
        <trkpt lat="29.541928" lon="103.331613"><ele>2419.1157</ele><time>2026-07-21T10:55:03.000Z</time></trkpt>
        <trkpt lat="29.541941" lon="103.331605"><ele>2418.3403</ele><time>2026-07-21T10:55:05.000Z</time></trkpt>
        <trkpt lat="29.541953" lon="103.331602"><ele>2418.281</ele><time>2026-07-21T10:55:07.000Z</time></trkpt>
        <trkpt lat="29.541966" lon="103.331601"><ele>2418.2288</ele><time>2026-07-21T10:55:09.000Z</time></trkpt>
        <trkpt lat="29.541981" lon="103.331599"><ele>2418.96</ele><time>2026-07-21T10:55:11.000Z</time></trkpt>
        <trkpt lat="29.541995" lon="103.331595"><ele>2420.216</ele><time>2026-07-21T10:55:13.000Z</time></trkpt>
        <trkpt lat="29.54201" lon="103.331586"><ele>2420.2603</ele><time>2026-07-21T10:55:15.000Z</time></trkpt>
        <trkpt lat="29.542021" lon="103.331572"><ele>2420.3513</ele><time>2026-07-21T10:55:17.000Z</time></trkpt>
        <trkpt lat="29.542027" lon="103.331558"><ele>2420.6287</ele><time>2026-07-21T10:55:19.000Z</time></trkpt>
        <trkpt lat="29.542029" lon="103.331543"><ele>2420.519</ele><time>2026-07-21T10:55:21.000Z</time></trkpt>
        <trkpt lat="29.542028" lon="103.331527"><ele>2421.0813</ele><time>2026-07-21T10:55:23.000Z</time></trkpt>
        <trkpt lat="29.542026" lon="103.331509"><ele>2420.5833</ele><time>2026-07-21T10:55:25.000Z</time></trkpt>
        <trkpt lat="29.542023" lon="103.331489"><ele>2420.3848</ele><time>2026-07-21T10:55:27.000Z</time></trkpt>
        <trkpt lat="29.542023" lon="103.331477"><ele>2420.4963</ele><time>2026-07-21T10:55:29.000Z</time></trkpt>
        <trkpt lat="29.542027" lon="103.331464"><ele>2420.353</ele><time>2026-07-21T10:55:31.000Z</time></trkpt>
        <trkpt lat="29.542031" lon="103.331451"><ele>2420.69</ele><time>2026-07-21T10:55:33.000Z</time></trkpt>
        <trkpt lat="29.54203" lon="103.331439"><ele>2420.7483</ele><time>2026-07-21T10:55:35.000Z</time></trkpt>
        <trkpt lat="29.542025" lon="103.331429"><ele>2419.763</ele><time>2026-07-21T10:55:37.000Z</time></trkpt>
        <trkpt lat="29.542014" lon="103.331405"><ele>2416.6765</ele><time>2026-07-21T10:55:39.000Z</time></trkpt>
        <trkpt lat="29.542003" lon="103.331385"><ele>2417.6008</ele><time>2026-07-21T10:55:41.000Z</time></trkpt>
        <trkpt lat="29.541995" lon="103.331374"><ele>2418.8542</ele><time>2026-07-21T10:55:43.000Z</time></trkpt>
        <trkpt lat="29.541992" lon="103.331364"><ele>2419.2703</ele><time>2026-07-21T10:55:45.000Z</time></trkpt>
        <trkpt lat="29.541993" lon="103.331351"><ele>2420.396</ele><time>2026-07-21T10:55:47.000Z</time></trkpt>
        <trkpt lat="29.54199" lon="103.331323"><ele>2421.5698</ele><time>2026-07-21T10:55:49.000Z</time></trkpt>
        <trkpt lat="29.541987" lon="103.331315"><ele>2421.7102</ele><time>2026-07-21T10:55:51.000Z</time></trkpt>
        <trkpt lat="29.541986" lon="103.3313"><ele>2422.566</ele><time>2026-07-21T10:55:59.000Z</time></trkpt>
        <trkpt lat="29.541989" lon="103.331254"><ele>2422.9434</ele><time>2026-07-21T10:56:03.000Z</time></trkpt>
        <trkpt lat="29.54199" lon="103.331233"><ele>2422.9448</ele><time>2026-07-21T10:56:05.000Z</time></trkpt>
        <trkpt lat="29.541986" lon="103.331251"><ele>2422.1292</ele><time>2026-07-21T10:56:07.000Z</time></trkpt>
        <trkpt lat="29.541973" lon="103.331321"><ele>2421.0073</ele><time>2026-07-21T10:57:40.000Z</time></trkpt>
        <trkpt lat="29.541974" lon="103.33132"><ele>2424.6465</ele><time>2026-07-21T10:57:55.000Z</time></trkpt>
        <trkpt lat="29.541973" lon="103.331319"><ele>2424.9302</ele><time>2026-07-21T10:57:57.000Z</time></trkpt>
        <trkpt lat="29.541927" lon="103.331301"><ele>2424.4417</ele><time>2026-07-21T10:58:02.000Z</time></trkpt>
        <trkpt lat="29.541927" lon="103.331301"><ele>2424.4443</ele><time>2026-07-21T10:58:04.000Z</time></trkpt>
        <trkpt lat="29.541878" lon="103.331642"><ele>2423.96</ele><time>2026-07-21T10:58:46.000Z</time></trkpt>
        <trkpt lat="29.541877" lon="103.33166"><ele>2423.9602</ele><time>2026-07-21T10:58:52.000Z</time></trkpt>
        <trkpt lat="29.541862" lon="103.331729"><ele>2424.2373</ele><time>2026-07-21T10:58:58.000Z</time></trkpt>
        <trkpt lat="29.541955" lon="103.331292"><ele>2425.0625</ele><time>2026-07-21T10:59:12.000Z</time></trkpt>
        <trkpt lat="29.541955" lon="103.331293"><ele>2424.8542</ele><time>2026-07-21T10:59:14.000Z</time></trkpt>
        <trkpt lat="29.541956" lon="103.331297"><ele>2424.0383</ele><time>2026-07-21T10:59:16.000Z</time></trkpt>
        <trkpt lat="29.541999" lon="103.331449"><ele>2425.2166</ele><time>2026-07-21T10:59:22.000Z</time></trkpt>
        <trkpt lat="29.542012" lon="103.331509"><ele>2423.655</ele><time>2026-07-21T10:59:24.000Z</time></trkpt>
        <trkpt lat="29.542014" lon="103.331554"><ele>2422.4946</ele><time>2026-07-21T10:59:26.000Z</time></trkpt>
        <trkpt lat="29.542009" lon="103.331584"><ele>2421.423</ele><time>2026-07-21T10:59:28.000Z</time></trkpt>
        <trkpt lat="29.541999" lon="103.3316"><ele>2420.8147</ele><time>2026-07-21T10:59:30.000Z</time></trkpt>
        <trkpt lat="29.541986" lon="103.331608"><ele>2420.7493</ele><time>2026-07-21T10:59:32.000Z</time></trkpt>
        <trkpt lat="29.541972" lon="103.331613"><ele>2420.4329</ele><time>2026-07-21T10:59:34.000Z</time></trkpt>
        <trkpt lat="29.541955" lon="103.331614"><ele>2420.181</ele><time>2026-07-21T10:59:36.000Z</time></trkpt>
        <trkpt lat="29.541936" lon="103.331613"><ele>2418.9817</ele><time>2026-07-21T10:59:38.000Z</time></trkpt>
        <trkpt lat="29.541917" lon="103.33161"><ele>2418.696</ele><time>2026-07-21T10:59:40.000Z</time></trkpt>
        <trkpt lat="29.541896" lon="103.331607"><ele>2418.4631</ele><time>2026-07-21T10:59:42.000Z</time></trkpt>
        <trkpt lat="29.541875" lon="103.331605"><ele>2418.5686</ele><time>2026-07-21T10:59:44.000Z</time></trkpt>
        <trkpt lat="29.541853" lon="103.331604"><ele>2419.2878</ele><time>2026-07-21T10:59:46.000Z</time></trkpt>
        <trkpt lat="29.541836" lon="103.331604"><ele>2419.2642</ele><time>2026-07-21T10:59:48.000Z</time></trkpt>
        <trkpt lat="29.541825" lon="103.331605"><ele>2419.5986</ele><time>2026-07-21T10:59:50.000Z</time></trkpt>
        <trkpt lat="29.54182" lon="103.331607"><ele>2419.7332</ele><time>2026-07-21T10:59:52.000Z</time></trkpt>
        <trkpt lat="29.541801" lon="103.331613"><ele>2420.363</ele><time>2026-07-21T10:59:56.000Z</time></trkpt>
        <trkpt lat="29.541788" lon="103.331615"><ele>2421.1826</ele><time>2026-07-21T11:00:02.000Z</time></trkpt>
        <trkpt lat="29.541769" lon="103.33162"><ele>2420.8123</ele><time>2026-07-21T11:00:04.000Z</time></trkpt>
        <trkpt lat="29.541744" lon="103.331625"><ele>2421.0935</ele><time>2026-07-21T11:00:06.000Z</time></trkpt>
        <trkpt lat="29.541718" lon="103.331631"><ele>2420.624</ele><time>2026-07-21T11:00:08.000Z</time></trkpt>
        <trkpt lat="29.541693" lon="103.331636"><ele>2420.8315</ele><time>2026-07-21T11:00:10.000Z</time></trkpt>
        <trkpt lat="29.541672" lon="103.33164"><ele>2420.878</ele><time>2026-07-21T11:00:12.000Z</time></trkpt>
        <trkpt lat="29.54165" lon="103.331645"><ele>2421.4885</ele><time>2026-07-21T11:00:14.000Z</time></trkpt>
        <trkpt lat="29.541631" lon="103.331649"><ele>2420.8381</ele><time>2026-07-21T11:00:16.000Z</time></trkpt>
        <trkpt lat="29.541613" lon="103.331653"><ele>2421.2112</ele><time>2026-07-21T11:00:18.000Z</time></trkpt>
        <trkpt lat="29.541596" lon="103.331655"><ele>2421.3376</ele><time>2026-07-21T11:00:20.000Z</time></trkpt>
        <trkpt lat="29.541579" lon="103.331656"><ele>2421.3887</ele><time>2026-07-21T11:00:22.000Z</time></trkpt>
        <trkpt lat="29.541562" lon="103.331655"><ele>2421.2954</ele><time>2026-07-21T11:00:24.000Z</time></trkpt>
        <trkpt lat="29.541545" lon="103.331655"><ele>2421.5017</ele><time>2026-07-21T11:00:26.000Z</time></trkpt>
        <trkpt lat="29.541529" lon="103.331658"><ele>2421.469</ele><time>2026-07-21T11:00:28.000Z</time></trkpt>
        <trkpt lat="29.541512" lon="103.331663"><ele>2421.9565</ele><time>2026-07-21T11:00:30.000Z</time></trkpt>
        <trkpt lat="29.541496" lon="103.33167"><ele>2421.709</ele><time>2026-07-21T11:00:32.000Z</time></trkpt>
        <trkpt lat="29.541478" lon="103.33168"><ele>2422.1782</ele><time>2026-07-21T11:00:34.000Z</time></trkpt>
        <trkpt lat="29.541461" lon="103.331689"><ele>2422.24</ele><time>2026-07-21T11:00:36.000Z</time></trkpt>
        <trkpt lat="29.541443" lon="103.331698"><ele>2422.372</ele><time>2026-07-21T11:00:38.000Z</time></trkpt>
        <trkpt lat="29.541426" lon="103.331705"><ele>2422.296</ele><time>2026-07-21T11:00:40.000Z</time></trkpt>
        <trkpt lat="29.541409" lon="103.331712"><ele>2422.2522</ele><time>2026-07-21T11:00:42.000Z</time></trkpt>
        <trkpt lat="29.541392" lon="103.331718"><ele>2422.4382</ele><time>2026-07-21T11:00:44.000Z</time></trkpt>
        <trkpt lat="29.541375" lon="103.331724"><ele>2423.1924</ele><time>2026-07-21T11:00:46.000Z</time></trkpt>
        <trkpt lat="29.541358" lon="103.331729"><ele>2423.2</ele><time>2026-07-21T11:00:48.000Z</time></trkpt>
        <trkpt lat="29.54134" lon="103.331734"><ele>2422.9783</ele><time>2026-07-21T11:00:50.000Z</time></trkpt>
        <trkpt lat="29.541322" lon="103.331737"><ele>2422.4412</ele><time>2026-07-21T11:00:52.000Z</time></trkpt>
        <trkpt lat="29.541304" lon="103.331738"><ele>2422.2673</ele><time>2026-07-21T11:00:54.000Z</time></trkpt>
        <trkpt lat="29.541287" lon="103.33174"><ele>2422.8289</ele><time>2026-07-21T11:00:56.000Z</time></trkpt>
        <trkpt lat="29.54127" lon="103.331742"><ele>2423.0918</ele><time>2026-07-21T11:00:58.000Z</time></trkpt>
        <trkpt lat="29.541254" lon="103.331746"><ele>2424.9885</ele><time>2026-07-21T11:01:00.000Z</time></trkpt>
        <trkpt lat="29.541239" lon="103.33175"><ele>2424.5168</ele><time>2026-07-21T11:01:02.000Z</time></trkpt>
        <trkpt lat="29.541225" lon="103.331753"><ele>2423.6755</ele><time>2026-07-21T11:01:04.000Z</time></trkpt>
        <trkpt lat="29.541208" lon="103.331754"><ele>2424.1565</ele><time>2026-07-21T11:01:06.000Z</time></trkpt>
        <trkpt lat="29.541193" lon="103.331754"><ele>2424.742</ele><time>2026-07-21T11:01:08.000Z</time></trkpt>
        <trkpt lat="29.541178" lon="103.331755"><ele>2425.6843</ele><time>2026-07-21T11:01:10.000Z</time></trkpt>
        <trkpt lat="29.541165" lon="103.331757"><ele>2425.4866</ele><time>2026-07-21T11:01:12.000Z</time></trkpt>
        <trkpt lat="29.541151" lon="103.33176"><ele>2424.9502</ele><time>2026-07-21T11:01:14.000Z</time></trkpt>
        <trkpt lat="29.54114" lon="103.331765"><ele>2424.6316</ele><time>2026-07-21T11:01:16.000Z</time></trkpt>
        <trkpt lat="29.541131" lon="103.331768"><ele>2425.0967</ele><time>2026-07-21T11:01:18.000Z</time></trkpt>
        <trkpt lat="29.541123" lon="103.331774"><ele>2424.6719</ele><time>2026-07-21T11:01:20.000Z</time></trkpt>
        <trkpt lat="29.541113" lon="103.331782"><ele>2423.5576</ele><time>2026-07-21T11:01:28.000Z</time></trkpt>
        <trkpt lat="29.541103" lon="103.33179"><ele>2423.1917</ele><time>2026-07-21T11:01:32.000Z</time></trkpt>
        <trkpt lat="29.541097" lon="103.331792"><ele>2422.8816</ele><time>2026-07-21T11:01:34.000Z</time></trkpt>
        <trkpt lat="29.54108" lon="103.331796"><ele>2423.7007</ele><time>2026-07-21T11:01:38.000Z</time></trkpt>
        <trkpt lat="29.541066" lon="103.3318"><ele>2424.384</ele><time>2026-07-21T11:01:40.000Z</time></trkpt>
        <trkpt lat="29.541065" lon="103.3318"><ele>2424.7202</ele><time>2026-07-21T11:01:42.000Z</time></trkpt>
        <trkpt lat="29.541047" lon="103.331798"><ele>2426.2327</ele><time>2026-07-21T11:01:48.000Z</time></trkpt>
        <trkpt lat="29.541035" lon="103.331797"><ele>2426.5776</ele><time>2026-07-21T11:01:50.000Z</time></trkpt>
        <trkpt lat="29.541024" lon="103.331797"><ele>2426.3728</ele><time>2026-07-21T11:01:52.000Z</time></trkpt>
        <trkpt lat="29.541011" lon="103.331799"><ele>2426.427</ele><time>2026-07-21T11:01:54.000Z</time></trkpt>
        <trkpt lat="29.540999" lon="103.331803"><ele>2425.824</ele><time>2026-07-21T11:01:56.000Z</time></trkpt>
        <trkpt lat="29.54099" lon="103.331806"><ele>2425.1716</ele><time>2026-07-21T11:01:58.000Z</time></trkpt>
        <trkpt lat="29.54098" lon="103.331809"><ele>2424.666</ele><time>2026-07-21T11:02:00.000Z</time></trkpt>
        <trkpt lat="29.540969" lon="103.33181"><ele>2424.9854</ele><time>2026-07-21T11:02:02.000Z</time></trkpt>
        <trkpt lat="29.54096" lon="103.331807"><ele>2425.1116</ele><time>2026-07-21T11:02:04.000Z</time></trkpt>
        <trkpt lat="29.540949" lon="103.331802"><ele>2425.6914</ele><time>2026-07-21T11:02:06.000Z</time></trkpt>
        <trkpt lat="29.540935" lon="103.331792"><ele>2426.797</ele><time>2026-07-21T11:02:08.000Z</time></trkpt>
        <trkpt lat="29.54092" lon="103.331783"><ele>2427.1338</ele><time>2026-07-21T11:02:10.000Z</time></trkpt>
        <trkpt lat="29.540907" lon="103.331775"><ele>2427.5137</ele><time>2026-07-21T11:02:12.000Z</time></trkpt>
        <trkpt lat="29.540894" lon="103.33177"><ele>2427.7695</ele><time>2026-07-21T11:02:14.000Z</time></trkpt>
        <trkpt lat="29.540882" lon="103.331766"><ele>2428.4163</ele><time>2026-07-21T11:02:16.000Z</time></trkpt>
        <trkpt lat="29.540873" lon="103.331763"><ele>2429.046</ele><time>2026-07-21T11:02:18.000Z</time></trkpt>
        <trkpt lat="29.540866" lon="103.33176"><ele>2428.314</ele><time>2026-07-21T11:02:20.000Z</time></trkpt>
        <trkpt lat="29.54085" lon="103.331751"><ele>2426.6191</ele><time>2026-07-21T11:02:24.000Z</time></trkpt>
        <trkpt lat="29.540837" lon="103.331746"><ele>2426.5999</ele><time>2026-07-21T11:02:26.000Z</time></trkpt>
        <trkpt lat="29.540822" lon="103.331741"><ele>2427.1233</ele><time>2026-07-21T11:02:28.000Z</time></trkpt>
        <trkpt lat="29.540806" lon="103.331736"><ele>2427.4434</ele><time>2026-07-21T11:02:30.000Z</time></trkpt>
        <trkpt lat="29.540787" lon="103.331731"><ele>2428.1655</ele><time>2026-07-21T11:02:32.000Z</time></trkpt>
        <trkpt lat="29.540772" lon="103.331728"><ele>2428.395</ele><time>2026-07-21T11:02:34.000Z</time></trkpt>
        <trkpt lat="29.540761" lon="103.331727"><ele>2427.9353</ele><time>2026-07-21T11:02:36.000Z</time></trkpt>
        <trkpt lat="29.540748" lon="103.331726"><ele>2427.8435</ele><time>2026-07-21T11:02:38.000Z</time></trkpt>
        <trkpt lat="29.540737" lon="103.331725"><ele>2428.0398</ele><time>2026-07-21T11:02:40.000Z</time></trkpt>
        <trkpt lat="29.540723" lon="103.331724"><ele>2427.3992</ele><time>2026-07-21T11:02:42.000Z</time></trkpt>
        <trkpt lat="29.540707" lon="103.331725"><ele>2428.0188</ele><time>2026-07-21T11:02:44.000Z</time></trkpt>
        <trkpt lat="29.54069" lon="103.331728"><ele>2427.5894</ele><time>2026-07-21T11:02:46.000Z</time></trkpt>
        <trkpt lat="29.540676" lon="103.331733"><ele>2428.2366</ele><time>2026-07-21T11:02:48.000Z</time></trkpt>
        <trkpt lat="29.540662" lon="103.331739"><ele>2427.8503</ele><time>2026-07-21T11:02:50.000Z</time></trkpt>
        <trkpt lat="29.54065" lon="103.331746"><ele>2428.1865</ele><time>2026-07-21T11:02:52.000Z</time></trkpt>
        <trkpt lat="29.540642" lon="103.331753"><ele>2429.586</ele><time>2026-07-21T11:02:54.000Z</time></trkpt>
        <trkpt lat="29.540634" lon="103.331763"><ele>2429.954</ele><time>2026-07-21T11:02:56.000Z</time></trkpt>
        <trkpt lat="29.540626" lon="103.331774"><ele>2430.5168</ele><time>2026-07-21T11:02:58.000Z</time></trkpt>
        <trkpt lat="29.540618" lon="103.331786"><ele>2431.2947</ele><time>2026-07-21T11:03:00.000Z</time></trkpt>
        <trkpt lat="29.540609" lon="103.331796"><ele>2431.5942</ele><time>2026-07-21T11:03:02.000Z</time></trkpt>
        <trkpt lat="29.540601" lon="103.331804"><ele>2432.0764</ele><time>2026-07-21T11:03:04.000Z</time></trkpt>
        <trkpt lat="29.540592" lon="103.331811"><ele>2431.7368</ele><time>2026-07-21T11:03:06.000Z</time></trkpt>
        <trkpt lat="29.540579" lon="103.331817"><ele>2431.1865</ele><time>2026-07-21T11:03:08.000Z</time></trkpt>
        <trkpt lat="29.540568" lon="103.331822"><ele>2431.2698</ele><time>2026-07-21T11:03:10.000Z</time></trkpt>
        <trkpt lat="29.540555" lon="103.331829"><ele>2430.4336</ele><time>2026-07-21T11:03:12.000Z</time></trkpt>
        <trkpt lat="29.540544" lon="103.331835"><ele>2431.0867</ele><time>2026-07-21T11:03:14.000Z</time></trkpt>
        <trkpt lat="29.540533" lon="103.33184"><ele>2431.492</ele><time>2026-07-21T11:03:16.000Z</time></trkpt>
        <trkpt lat="29.54052" lon="103.331846"><ele>2431.4517</ele><time>2026-07-21T11:03:18.000Z</time></trkpt>
        <trkpt lat="29.540507" lon="103.331852"><ele>2431.463</ele><time>2026-07-21T11:03:20.000Z</time></trkpt>
        <trkpt lat="29.540493" lon="103.331857"><ele>2432.193</ele><time>2026-07-21T11:03:22.000Z</time></trkpt>
        <trkpt lat="29.540478" lon="103.331863"><ele>2431.7603</ele><time>2026-07-21T11:03:24.000Z</time></trkpt>
        <trkpt lat="29.540466" lon="103.331867"><ele>2431.4963</ele><time>2026-07-21T11:03:26.000Z</time></trkpt>
        <trkpt lat="29.540461" lon="103.331871"><ele>2431.7043</ele><time>2026-07-21T11:03:28.000Z</time></trkpt>
        <trkpt lat="29.540449" lon="103.331881"><ele>2429.601</ele><time>2026-07-21T11:03:40.000Z</time></trkpt>
        <trkpt lat="29.540431" lon="103.331896"><ele>2430.0422</ele><time>2026-07-21T11:03:42.000Z</time></trkpt>
        <trkpt lat="29.54043" lon="103.331897"><ele>2430.8013</ele><time>2026-07-21T11:03:44.000Z</time></trkpt>
        <trkpt lat="29.540402" lon="103.331919"><ele>2431.1013</ele><time>2026-07-21T11:03:47.000Z</time></trkpt>
        <trkpt lat="29.540402" lon="103.331919"><ele>2431.4072</ele><time>2026-07-21T11:03:49.000Z</time></trkpt>
        <trkpt lat="29.5404" lon="103.33192"><ele>2432.5747</ele><time>2026-07-21T11:03:51.000Z</time></trkpt>
        <trkpt lat="29.540372" lon="103.331932"><ele>2432.5037</ele><time>2026-07-21T11:03:55.000Z</time></trkpt>
        <trkpt lat="29.540354" lon="103.331943"><ele>2432.9192</ele><time>2026-07-21T11:03:57.000Z</time></trkpt>
        <trkpt lat="29.540336" lon="103.331955"><ele>2433.6455</ele><time>2026-07-21T11:03:59.000Z</time></trkpt>
        <trkpt lat="29.54032" lon="103.331967"><ele>2433.9863</ele><time>2026-07-21T11:04:01.000Z</time></trkpt>
        <trkpt lat="29.540303" lon="103.331978"><ele>2434.2073</ele><time>2026-07-21T11:04:03.000Z</time></trkpt>
        <trkpt lat="29.54029" lon="103.331987"><ele>2435.1455</ele><time>2026-07-21T11:04:05.000Z</time></trkpt>
        <trkpt lat="29.540281" lon="103.331992"><ele>2436.0076</ele><time>2026-07-21T11:04:07.000Z</time></trkpt>
        <trkpt lat="29.540272" lon="103.331995"><ele>2436.704</ele><time>2026-07-21T11:04:09.000Z</time></trkpt>
        <trkpt lat="29.540262" lon="103.332"><ele>2436.2683</ele><time>2026-07-21T11:04:11.000Z</time></trkpt>
        <trkpt lat="29.540248" lon="103.332011"><ele>2435.1233</ele><time>2026-07-21T11:04:15.000Z</time></trkpt>
        <trkpt lat="29.540245" lon="103.332017"><ele>2435.0735</ele><time>2026-07-21T11:04:17.000Z</time></trkpt>
        <trkpt lat="29.540242" lon="103.332026"><ele>2436.652</ele><time>2026-07-21T11:04:21.000Z</time></trkpt>
        <trkpt lat="29.54023" lon="103.332049"><ele>2436.6055</ele><time>2026-07-21T11:04:27.000Z</time></trkpt>
        <trkpt lat="29.540217" lon="103.332073"><ele>2436.356</ele><time>2026-07-21T11:04:29.000Z</time></trkpt>
        <trkpt lat="29.540216" lon="103.332074"><ele>2434.5918</ele><time>2026-07-21T11:04:31.000Z</time></trkpt>
        <trkpt lat="29.540204" lon="103.332084"><ele>2434.1482</ele><time>2026-07-21T11:04:35.000Z</time></trkpt>
        <trkpt lat="29.540184" lon="103.332095"><ele>2435.0708</ele><time>2026-07-21T11:04:37.000Z</time></trkpt>
        <trkpt lat="29.540157" lon="103.332108"><ele>2436.4124</ele><time>2026-07-21T11:04:39.000Z</time></trkpt>
        <trkpt lat="29.540131" lon="103.332123"><ele>2436.9255</ele><time>2026-07-21T11:04:41.000Z</time></trkpt>
        <trkpt lat="29.540104" lon="103.332138"><ele>2436.6113</ele><time>2026-07-21T11:04:43.000Z</time></trkpt>
        <trkpt lat="29.540081" lon="103.332153"><ele>2436.4656</ele><time>2026-07-21T11:04:45.000Z</time></trkpt>
        <trkpt lat="29.54006" lon="103.332166"><ele>2436.332</ele><time>2026-07-21T11:04:47.000Z</time></trkpt>
        <trkpt lat="29.540043" lon="103.332176"><ele>2436.4363</ele><time>2026-07-21T11:04:49.000Z</time></trkpt>
        <trkpt lat="29.540027" lon="103.332185"><ele>2436.001</ele><time>2026-07-21T11:04:51.000Z</time></trkpt>
        <trkpt lat="29.540011" lon="103.332193"><ele>2435.8052</ele><time>2026-07-21T11:04:53.000Z</time></trkpt>
        <trkpt lat="29.539996" lon="103.332202"><ele>2435.5603</ele><time>2026-07-21T11:04:55.000Z</time></trkpt>
        <trkpt lat="29.539981" lon="103.332211"><ele>2435.4019</ele><time>2026-07-21T11:04:57.000Z</time></trkpt>
        <trkpt lat="29.539966" lon="103.33222"><ele>2435.3518</ele><time>2026-07-21T11:04:59.000Z</time></trkpt>
        <trkpt lat="29.539951" lon="103.332229"><ele>2434.026</ele><time>2026-07-21T11:05:01.000Z</time></trkpt>
        <trkpt lat="29.539937" lon="103.332238"><ele>2434.3374</ele><time>2026-07-21T11:05:03.000Z</time></trkpt>
        <trkpt lat="29.539923" lon="103.332246"><ele>2434.48</ele><time>2026-07-21T11:05:05.000Z</time></trkpt>
        <trkpt lat="29.539908" lon="103.332254"><ele>2434.1758</ele><time>2026-07-21T11:05:07.000Z</time></trkpt>
        <trkpt lat="29.539892" lon="103.332262"><ele>2433.932</ele><time>2026-07-21T11:05:09.000Z</time></trkpt>
        <trkpt lat="29.539877" lon="103.332267"><ele>2434.4873</ele><time>2026-07-21T11:05:11.000Z</time></trkpt>
        <trkpt lat="29.539863" lon="103.332271"><ele>2434.4536</ele><time>2026-07-21T11:05:13.000Z</time></trkpt>
        <trkpt lat="29.539849" lon="103.332274"><ele>2434.939</ele><time>2026-07-21T11:05:15.000Z</time></trkpt>
        <trkpt lat="29.539833" lon="103.332279"><ele>2433.8274</ele><time>2026-07-21T11:05:17.000Z</time></trkpt>
        <trkpt lat="29.539816" lon="103.332284"><ele>2433.9602</ele><time>2026-07-21T11:05:19.000Z</time></trkpt>
        <trkpt lat="29.539798" lon="103.33229"><ele>2433.6416</ele><time>2026-07-21T11:05:21.000Z</time></trkpt>
        <trkpt lat="29.539781" lon="103.332298"><ele>2433.945</ele><time>2026-07-21T11:05:23.000Z</time></trkpt>
        <trkpt lat="29.539765" lon="103.332308"><ele>2435.7075</ele><time>2026-07-21T11:05:25.000Z</time></trkpt>
        <trkpt lat="29.539753" lon="103.332319"><ele>2435.2666</ele><time>2026-07-21T11:05:27.000Z</time></trkpt>
        <trkpt lat="29.539745" lon="103.332327"><ele>2435.7063</ele><time>2026-07-21T11:05:29.000Z</time></trkpt>
        <trkpt lat="29.539736" lon="103.332335"><ele>2436.1406</ele><time>2026-07-21T11:05:31.000Z</time></trkpt>
        <trkpt lat="29.539726" lon="103.332344"><ele>2435.8853</ele><time>2026-07-21T11:05:33.000Z</time></trkpt>
        <trkpt lat="29.539719" lon="103.332351"><ele>2436.4536</ele><time>2026-07-21T11:05:35.000Z</time></trkpt>
        <trkpt lat="29.539712" lon="103.332358"><ele>2436.2053</ele><time>2026-07-21T11:05:37.000Z</time></trkpt>
        <trkpt lat="29.539701" lon="103.332367"><ele>2435.825</ele><time>2026-07-21T11:05:39.000Z</time></trkpt>
        <trkpt lat="29.53969" lon="103.332375"><ele>2436.0005</ele><time>2026-07-21T11:05:41.000Z</time></trkpt>
        <trkpt lat="29.539681" lon="103.332381"><ele>2436.1907</ele><time>2026-07-21T11:05:43.000Z</time></trkpt>
        <trkpt lat="29.539669" lon="103.332388"><ele>2436.8623</ele><time>2026-07-21T11:05:45.000Z</time></trkpt>
        <trkpt lat="29.539659" lon="103.332392"><ele>2437.1887</ele><time>2026-07-21T11:05:47.000Z</time></trkpt>
        <trkpt lat="29.539652" lon="103.332395"><ele>2437.8333</ele><time>2026-07-21T11:05:49.000Z</time></trkpt>
        <trkpt lat="29.53964" lon="103.332402"><ele>2436.9158</ele><time>2026-07-21T11:05:53.000Z</time></trkpt>
        <trkpt lat="29.539629" lon="103.332409"><ele>2437.5962</ele><time>2026-07-21T11:05:57.000Z</time></trkpt>
        <trkpt lat="29.539627" lon="103.332414"><ele>2438.668</ele><time>2026-07-21T11:05:59.000Z</time></trkpt>
        <trkpt lat="29.539618" lon="103.332428"><ele>2438.9124</ele><time>2026-07-21T11:06:05.000Z</time></trkpt>
        <trkpt lat="29.539606" lon="103.33244"><ele>2438.7422</ele><time>2026-07-21T11:06:09.000Z</time></trkpt>
        <trkpt lat="29.539594" lon="103.332454"><ele>2438.8745</ele><time>2026-07-21T11:06:11.000Z</time></trkpt>
        <trkpt lat="29.539593" lon="103.332455"><ele>2439.2205</ele><time>2026-07-21T11:06:13.000Z</time></trkpt>
        <trkpt lat="29.539553" lon="103.33249"><ele>2441.967</ele><time>2026-07-21T11:06:30.000Z</time></trkpt>
        <trkpt lat="29.53955" lon="103.332492"><ele>2442.1914</ele><time>2026-07-21T11:06:32.000Z</time></trkpt>
        <trkpt lat="29.539545" lon="103.332497"><ele>2442.7678</ele><time>2026-07-21T11:06:34.000Z</time></trkpt>
        <trkpt lat="29.53953" lon="103.332513"><ele>2443.8525</ele><time>2026-07-21T11:06:44.000Z</time></trkpt>
        <trkpt lat="29.539528" lon="103.332516"><ele>2443.2004</ele><time>2026-07-21T11:06:56.000Z</time></trkpt>
        <trkpt lat="29.539524" lon="103.332516"><ele>2442.757</ele><time>2026-07-21T11:07:00.000Z</time></trkpt>
        <trkpt lat="29.539499" lon="103.332521"><ele>2439.558</ele><time>2026-07-21T11:07:26.000Z</time></trkpt>
        <trkpt lat="29.539489" lon="103.332527"><ele>2441.0562</ele><time>2026-07-21T11:07:41.000Z</time></trkpt>
        <trkpt lat="29.539477" lon="103.332536"><ele>2441.3833</ele><time>2026-07-21T11:07:43.000Z</time></trkpt>
        <trkpt lat="29.539473" lon="103.33254"><ele>2443.3594</ele><time>2026-07-21T11:07:49.000Z</time></trkpt>
        <trkpt lat="29.539453" lon="103.33256"><ele>2442.2048</ele><time>2026-07-21T11:07:53.000Z</time></trkpt>
        <trkpt lat="29.539441" lon="103.332572"><ele>2443.0828</ele><time>2026-07-21T11:07:55.000Z</time></trkpt>
        <trkpt lat="29.539432" lon="103.332582"><ele>2443.1626</ele><time>2026-07-21T11:07:57.000Z</time></trkpt>
        <trkpt lat="29.539422" lon="103.332594"><ele>2443.1191</ele><time>2026-07-21T11:07:59.000Z</time></trkpt>
        <trkpt lat="29.539409" lon="103.332608"><ele>2443.8186</ele><time>2026-07-21T11:08:01.000Z</time></trkpt>
        <trkpt lat="29.539396" lon="103.332621"><ele>2444.2178</ele><time>2026-07-21T11:08:03.000Z</time></trkpt>
        <trkpt lat="29.539385" lon="103.332634"><ele>2443.9202</ele><time>2026-07-21T11:08:05.000Z</time></trkpt>
        <trkpt lat="29.539376" lon="103.332645"><ele>2444.9287</ele><time>2026-07-21T11:08:07.000Z</time></trkpt>
        <trkpt lat="29.539367" lon="103.33266"><ele>2444.903</ele><time>2026-07-21T11:08:09.000Z</time></trkpt>
        <trkpt lat="29.539359" lon="103.332674"><ele>2445.8997</ele><time>2026-07-21T11:08:11.000Z</time></trkpt>
        <trkpt lat="29.539352" lon="103.332686"><ele>2446.668</ele><time>2026-07-21T11:08:13.000Z</time></trkpt>
        <trkpt lat="29.539342" lon="103.332699"><ele>2446.012</ele><time>2026-07-21T11:08:15.000Z</time></trkpt>
        <trkpt lat="29.539333" lon="103.332712"><ele>2445.5398</ele><time>2026-07-21T11:08:17.000Z</time></trkpt>
        <trkpt lat="29.539324" lon="103.332722"><ele>2446.6765</ele><time>2026-07-21T11:08:19.000Z</time></trkpt>
        <trkpt lat="29.539316" lon="103.332728"><ele>2447.2524</ele><time>2026-07-21T11:08:21.000Z</time></trkpt>
        <trkpt lat="29.539306" lon="103.332736"><ele>2446.8816</ele><time>2026-07-21T11:08:23.000Z</time></trkpt>
        <trkpt lat="29.539296" lon="103.332746"><ele>2447.3232</ele><time>2026-07-21T11:08:25.000Z</time></trkpt>
        <trkpt lat="29.539289" lon="103.332753"><ele>2448.411</ele><time>2026-07-21T11:08:27.000Z</time></trkpt>
        <trkpt lat="29.539279" lon="103.332761"><ele>2448.5242</ele><time>2026-07-21T11:08:29.000Z</time></trkpt>
        <trkpt lat="29.53927" lon="103.33277"><ele>2449.3167</ele><time>2026-07-21T11:08:31.000Z</time></trkpt>
        <trkpt lat="29.539261" lon="103.332779"><ele>2450.0154</ele><time>2026-07-21T11:08:33.000Z</time></trkpt>
        <trkpt lat="29.539253" lon="103.332787"><ele>2449.7842</ele><time>2026-07-21T11:08:35.000Z</time></trkpt>
        <trkpt lat="29.539243" lon="103.332796"><ele>2450.8188</ele><time>2026-07-21T11:08:37.000Z</time></trkpt>
        <trkpt lat="29.539232" lon="103.332806"><ele>2449.3862</ele><time>2026-07-21T11:08:39.000Z</time></trkpt>
        <trkpt lat="29.539218" lon="103.332816"><ele>2448.785</ele><time>2026-07-21T11:08:41.000Z</time></trkpt>
        <trkpt lat="29.539203" lon="103.332825"><ele>2448.7063</ele><time>2026-07-21T11:08:43.000Z</time></trkpt>
        <trkpt lat="29.539185" lon="103.332833"><ele>2448.2017</ele><time>2026-07-21T11:08:45.000Z</time></trkpt>
        <trkpt lat="29.539169" lon="103.33284"><ele>2448.7273</ele><time>2026-07-21T11:08:47.000Z</time></trkpt>
        <trkpt lat="29.539154" lon="103.332845"><ele>2447.548</ele><time>2026-07-21T11:08:49.000Z</time></trkpt>
        <trkpt lat="29.539139" lon="103.332852"><ele>2447.075</ele><time>2026-07-21T11:08:51.000Z</time></trkpt>
        <trkpt lat="29.539125" lon="103.332858"><ele>2447.4749</ele><time>2026-07-21T11:08:53.000Z</time></trkpt>
        <trkpt lat="29.539113" lon="103.332863"><ele>2448.7107</ele><time>2026-07-21T11:08:55.000Z</time></trkpt>
        <trkpt lat="29.539099" lon="103.332873"><ele>2448.9102</ele><time>2026-07-21T11:08:57.000Z</time></trkpt>
        <trkpt lat="29.539087" lon="103.332883"><ele>2449.3567</ele><time>2026-07-21T11:08:59.000Z</time></trkpt>
        <trkpt lat="29.539072" lon="103.332896"><ele>2448.3857</ele><time>2026-07-21T11:09:01.000Z</time></trkpt>
        <trkpt lat="29.539057" lon="103.332908"><ele>2448.8489</ele><time>2026-07-21T11:09:03.000Z</time></trkpt>
        <trkpt lat="29.539047" lon="103.332917"><ele>2449.0854</ele><time>2026-07-21T11:09:05.000Z</time></trkpt>
        <trkpt lat="29.539037" lon="103.332926"><ele>2447.839</ele><time>2026-07-21T11:09:07.000Z</time></trkpt>
        <trkpt lat="29.539026" lon="103.332938"><ele>2447.7957</ele><time>2026-07-21T11:09:09.000Z</time></trkpt>
        <trkpt lat="29.539016" lon="103.332951"><ele>2447.746</ele><time>2026-07-21T11:09:11.000Z</time></trkpt>
        <trkpt lat="29.539008" lon="103.332963"><ele>2448.3623</ele><time>2026-07-21T11:09:13.000Z</time></trkpt>
        <trkpt lat="29.539001" lon="103.332973"><ele>2448.4478</ele><time>2026-07-21T11:09:15.000Z</time></trkpt>
        <trkpt lat="29.538993" lon="103.332983"><ele>2448.564</ele><time>2026-07-21T11:09:17.000Z</time></trkpt>
        <trkpt lat="29.538983" lon="103.332992"><ele>2449.294</ele><time>2026-07-21T11:09:19.000Z</time></trkpt>
        <trkpt lat="29.53897" lon="103.333003"><ele>2449.0906</ele><time>2026-07-21T11:09:21.000Z</time></trkpt>
        <trkpt lat="29.538955" lon="103.333012"><ele>2449.5776</ele><time>2026-07-21T11:09:23.000Z</time></trkpt>
        <trkpt lat="29.538941" lon="103.333019"><ele>2450.4385</ele><time>2026-07-21T11:09:25.000Z</time></trkpt>
        <trkpt lat="29.538927" lon="103.333024"><ele>2449.4568</ele><time>2026-07-21T11:09:27.000Z</time></trkpt>
        <trkpt lat="29.538915" lon="103.333028"><ele>2450.0234</ele><time>2026-07-21T11:09:29.000Z</time></trkpt>
        <trkpt lat="29.538903" lon="103.333031"><ele>2449.9697</ele><time>2026-07-21T11:09:31.000Z</time></trkpt>
        <trkpt lat="29.538888" lon="103.333035"><ele>2450.4204</ele><time>2026-07-21T11:09:33.000Z</time></trkpt>
        <trkpt lat="29.538874" lon="103.333039"><ele>2449.8767</ele><time>2026-07-21T11:09:35.000Z</time></trkpt>
        <trkpt lat="29.538856" lon="103.333045"><ele>2449.51</ele><time>2026-07-21T11:09:37.000Z</time></trkpt>
        <trkpt lat="29.53884" lon="103.333053"><ele>2450.1543</ele><time>2026-07-21T11:09:39.000Z</time></trkpt>
        <trkpt lat="29.538825" lon="103.333061"><ele>2449.9558</ele><time>2026-07-21T11:09:41.000Z</time></trkpt>
        <trkpt lat="29.538809" lon="103.333069"><ele>2451.1006</ele><time>2026-07-21T11:09:43.000Z</time></trkpt>
        <trkpt lat="29.538791" lon="103.333078"><ele>2450.862</ele><time>2026-07-21T11:09:45.000Z</time></trkpt>
        <trkpt lat="29.538772" lon="103.333087"><ele>2450.794</ele><time>2026-07-21T11:09:47.000Z</time></trkpt>
        <trkpt lat="29.538754" lon="103.333095"><ele>2449.9075</ele><time>2026-07-21T11:09:49.000Z</time></trkpt>
        <trkpt lat="29.538736" lon="103.333103"><ele>2449.322</ele><time>2026-07-21T11:09:51.000Z</time></trkpt>
        <trkpt lat="29.538719" lon="103.33311"><ele>2449.376</ele><time>2026-07-21T11:09:53.000Z</time></trkpt>
        <trkpt lat="29.538705" lon="103.333119"><ele>2449.3762</ele><time>2026-07-21T11:09:55.000Z</time></trkpt>
        <trkpt lat="29.538694" lon="103.333129"><ele>2449.8901</ele><time>2026-07-21T11:09:57.000Z</time></trkpt>
        <trkpt lat="29.538684" lon="103.333139"><ele>2450.873</ele><time>2026-07-21T11:09:59.000Z</time></trkpt>
        <trkpt lat="29.538675" lon="103.333142"><ele>2450.854</ele><time>2026-07-21T11:10:01.000Z</time></trkpt>
        <trkpt lat="29.538659" lon="103.333145"><ele>2451.114</ele><time>2026-07-21T11:10:05.000Z</time></trkpt>
        <trkpt lat="29.538647" lon="103.333147"><ele>2451.3438</ele><time>2026-07-21T11:10:07.000Z</time></trkpt>
        <trkpt lat="29.538633" lon="103.333151"><ele>2451.0315</ele><time>2026-07-21T11:10:09.000Z</time></trkpt>
        <trkpt lat="29.538616" lon="103.333157"><ele>2450.7803</ele><time>2026-07-21T11:10:11.000Z</time></trkpt>
        <trkpt lat="29.5386" lon="103.333164"><ele>2451.2725</ele><time>2026-07-21T11:10:13.000Z</time></trkpt>
        <trkpt lat="29.53859" lon="103.333167"><ele>2451.531</ele><time>2026-07-21T11:10:15.000Z</time></trkpt>
        <trkpt lat="29.53858" lon="103.333168"><ele>2451.707</ele><time>2026-07-21T11:10:17.000Z</time></trkpt>
        <trkpt lat="29.538566" lon="103.333167"><ele>2451.1943</ele><time>2026-07-21T11:10:19.000Z</time></trkpt>
        <trkpt lat="29.538552" lon="103.333166"><ele>2451.4712</ele><time>2026-07-21T11:10:21.000Z</time></trkpt>
        <trkpt lat="29.538542" lon="103.333167"><ele>2451.0544</ele><time>2026-07-21T11:10:23.000Z</time></trkpt>
        <trkpt lat="29.538528" lon="103.33317"><ele>2450.556</ele><time>2026-07-21T11:10:25.000Z</time></trkpt>
        <trkpt lat="29.538513" lon="103.333174"><ele>2451.2046</ele><time>2026-07-21T11:10:27.000Z</time></trkpt>
        <trkpt lat="29.538499" lon="103.333178"><ele>2452.1294</ele><time>2026-07-21T11:10:29.000Z</time></trkpt>
        <trkpt lat="29.538487" lon="103.333181"><ele>2452.697</ele><time>2026-07-21T11:10:31.000Z</time></trkpt>
        <trkpt lat="29.538475" lon="103.333182"><ele>2452.978</ele><time>2026-07-21T11:10:33.000Z</time></trkpt>
        <trkpt lat="29.53846" lon="103.333182"><ele>2453.319</ele><time>2026-07-21T11:10:35.000Z</time></trkpt>
        <trkpt lat="29.538444" lon="103.333183"><ele>2453.693</ele><time>2026-07-21T11:10:37.000Z</time></trkpt>
        <trkpt lat="29.538426" lon="103.333182"><ele>2452.904</ele><time>2026-07-21T11:10:39.000Z</time></trkpt>
        <trkpt lat="29.538408" lon="103.333182"><ele>2451.6345</ele><time>2026-07-21T11:10:41.000Z</time></trkpt>
        <trkpt lat="29.538396" lon="103.333181"><ele>2452.5051</ele><time>2026-07-21T11:10:43.000Z</time></trkpt>
        <trkpt lat="29.538391" lon="103.333183"><ele>2453.9458</ele><time>2026-07-21T11:10:45.000Z</time></trkpt>
        <trkpt lat="29.538368" lon="103.333193"><ele>2454.575</ele><time>2026-07-21T11:10:49.000Z</time></trkpt>
        <trkpt lat="29.538353" lon="103.333199"><ele>2454.5793</ele><time>2026-07-21T11:10:51.000Z</time></trkpt>
        <trkpt lat="29.538339" lon="103.333207"><ele>2455.355</ele><time>2026-07-21T11:10:53.000Z</time></trkpt>
        <trkpt lat="29.538322" lon="103.333216"><ele>2456.0928</ele><time>2026-07-21T11:10:55.000Z</time></trkpt>
        <trkpt lat="29.538306" lon="103.333226"><ele>2457.237</ele><time>2026-07-21T11:10:57.000Z</time></trkpt>
        <trkpt lat="29.538292" lon="103.333237"><ele>2457.6655</ele><time>2026-07-21T11:10:59.000Z</time></trkpt>
        <trkpt lat="29.538277" lon="103.333248"><ele>2457.4956</ele><time>2026-07-21T11:11:01.000Z</time></trkpt>
        <trkpt lat="29.538263" lon="103.333257"><ele>2457.393</ele><time>2026-07-21T11:11:03.000Z</time></trkpt>
        <trkpt lat="29.538249" lon="103.333265"><ele>2457.637</ele><time>2026-07-21T11:11:05.000Z</time></trkpt>
        <trkpt lat="29.538236" lon="103.333273"><ele>2456.6023</ele><time>2026-07-21T11:11:07.000Z</time></trkpt>
        <trkpt lat="29.538221" lon="103.333282"><ele>2455.121</ele><time>2026-07-21T11:11:09.000Z</time></trkpt>
        <trkpt lat="29.538206" lon="103.333291"><ele>2455.3977</ele><time>2026-07-21T11:11:11.000Z</time></trkpt>
        <trkpt lat="29.53819" lon="103.333302"><ele>2455.8708</ele><time>2026-07-21T11:11:13.000Z</time></trkpt>
        <trkpt lat="29.538175" lon="103.333313"><ele>2455.2578</ele><time>2026-07-21T11:11:15.000Z</time></trkpt>
        <trkpt lat="29.53816" lon="103.333326"><ele>2455.3313</ele><time>2026-07-21T11:11:17.000Z</time></trkpt>
        <trkpt lat="29.538146" lon="103.333338"><ele>2455.9626</ele><time>2026-07-21T11:11:19.000Z</time></trkpt>
        <trkpt lat="29.538133" lon="103.33335"><ele>2456.5957</ele><time>2026-07-21T11:11:21.000Z</time></trkpt>
        <trkpt lat="29.538119" lon="103.333363"><ele>2456.9702</ele><time>2026-07-21T11:11:23.000Z</time></trkpt>
        <trkpt lat="29.538105" lon="103.333377"><ele>2456.5913</ele><time>2026-07-21T11:11:25.000Z</time></trkpt>
        <trkpt lat="29.53809" lon="103.33339"><ele>2456.9297</ele><time>2026-07-21T11:11:27.000Z</time></trkpt>
        <trkpt lat="29.538077" lon="103.333399"><ele>2456.5334</ele><time>2026-07-21T11:11:29.000Z</time></trkpt>
        <trkpt lat="29.538063" lon="103.33341"><ele>2456.539</ele><time>2026-07-21T11:11:31.000Z</time></trkpt>
        <trkpt lat="29.538051" lon="103.333421"><ele>2457.2312</ele><time>2026-07-21T11:11:33.000Z</time></trkpt>
        <trkpt lat="29.53804" lon="103.333428"><ele>2458.485</ele><time>2026-07-21T11:11:35.000Z</time></trkpt>
        <trkpt lat="29.538028" lon="103.333436"><ele>2457.6348</ele><time>2026-07-21T11:11:37.000Z</time></trkpt>
        <trkpt lat="29.538013" lon="103.333443"><ele>2459.2866</ele><time>2026-07-21T11:11:39.000Z</time></trkpt>
        <trkpt lat="29.537997" lon="103.333448"><ele>2459.452</ele><time>2026-07-21T11:11:41.000Z</time></trkpt>
        <trkpt lat="29.537978" lon="103.333452"><ele>2459.537</ele><time>2026-07-21T11:11:43.000Z</time></trkpt>
        <trkpt lat="29.537962" lon="103.333458"><ele>2458.6367</ele><time>2026-07-21T11:11:45.000Z</time></trkpt>
        <trkpt lat="29.537943" lon="103.333466"><ele>2458.5168</ele><time>2026-07-21T11:11:47.000Z</time></trkpt>
        <trkpt lat="29.537924" lon="103.333475"><ele>2458.3286</ele><time>2026-07-21T11:11:49.000Z</time></trkpt>
        <trkpt lat="29.537906" lon="103.333486"><ele>2458.2043</ele><time>2026-07-21T11:11:51.000Z</time></trkpt>
        <trkpt lat="29.537888" lon="103.333499"><ele>2458.41</ele><time>2026-07-21T11:11:53.000Z</time></trkpt>
        <trkpt lat="29.537872" lon="103.333512"><ele>2457.8643</ele><time>2026-07-21T11:11:55.000Z</time></trkpt>
        <trkpt lat="29.537855" lon="103.333524"><ele>2458.2627</ele><time>2026-07-21T11:11:57.000Z</time></trkpt>
        <trkpt lat="29.53784" lon="103.333537"><ele>2457.9941</ele><time>2026-07-21T11:11:59.000Z</time></trkpt>
        <trkpt lat="29.537824" lon="103.333549"><ele>2459.0503</ele><time>2026-07-21T11:12:01.000Z</time></trkpt>
        <trkpt lat="29.537811" lon="103.333559"><ele>2457.671</ele><time>2026-07-21T11:12:03.000Z</time></trkpt>
        <trkpt lat="29.537799" lon="103.33357"><ele>2458.162</ele><time>2026-07-21T11:12:05.000Z</time></trkpt>
        <trkpt lat="29.537788" lon="103.333583"><ele>2458.1057</ele><time>2026-07-21T11:12:07.000Z</time></trkpt>
        <trkpt lat="29.537777" lon="103.333595"><ele>2457.8823</ele><time>2026-07-21T11:12:09.000Z</time></trkpt>
        <trkpt lat="29.537768" lon="103.333607"><ele>2458.0251</ele><time>2026-07-21T11:12:11.000Z</time></trkpt>
        <trkpt lat="29.53776" lon="103.333619"><ele>2458.4614</ele><time>2026-07-21T11:12:13.000Z</time></trkpt>
        <trkpt lat="29.537754" lon="103.333631"><ele>2459.4292</ele><time>2026-07-21T11:12:15.000Z</time></trkpt>
        <trkpt lat="29.537747" lon="103.333642"><ele>2459.7324</ele><time>2026-07-21T11:12:17.000Z</time></trkpt>
        <trkpt lat="29.537738" lon="103.333651"><ele>2459.7993</ele><time>2026-07-21T11:12:19.000Z</time></trkpt>
        <trkpt lat="29.537728" lon="103.333658"><ele>2459.836</ele><time>2026-07-21T11:12:21.000Z</time></trkpt>
        <trkpt lat="29.537713" lon="103.333665"><ele>2459.5225</ele><time>2026-07-21T11:12:23.000Z</time></trkpt>
        <trkpt lat="29.537699" lon="103.333672"><ele>2459.6958</ele><time>2026-07-21T11:12:25.000Z</time></trkpt>
        <trkpt lat="29.537692" lon="103.333675"><ele>2459.36</ele><time>2026-07-21T11:12:27.000Z</time></trkpt>
        <trkpt lat="29.537683" lon="103.333678"><ele>2458.52</ele><time>2026-07-21T11:12:29.000Z</time></trkpt>
        <trkpt lat="29.53767" lon="103.333682"><ele>2458.4446</ele><time>2026-07-21T11:12:31.000Z</time></trkpt>
        <trkpt lat="29.537658" lon="103.333689"><ele>2459.2437</ele><time>2026-07-21T11:12:33.000Z</time></trkpt>
        <trkpt lat="29.53765" lon="103.333693"><ele>2461.0098</ele><time>2026-07-21T11:12:35.000Z</time></trkpt>
        <trkpt lat="29.537641" lon="103.333698"><ele>2461.425</ele><time>2026-07-21T11:12:37.000Z</time></trkpt>
        <trkpt lat="29.537626" lon="103.33371"><ele>2462.0786</ele><time>2026-07-21T11:12:41.000Z</time></trkpt>
        <trkpt lat="29.537617" lon="103.333716"><ele>2462.082</ele><time>2026-07-21T11:12:43.000Z</time></trkpt>
        <trkpt lat="29.537609" lon="103.333723"><ele>2462.306</ele><time>2026-07-21T11:12:45.000Z</time></trkpt>
        <trkpt lat="29.537601" lon="103.333729"><ele>2462.4512</ele><time>2026-07-21T11:12:47.000Z</time></trkpt>
        <trkpt lat="29.537586" lon="103.333738"><ele>2461.5046</ele><time>2026-07-21T11:12:51.000Z</time></trkpt>
        <trkpt lat="29.53758" lon="103.333741"><ele>2461.749</ele><time>2026-07-21T11:12:53.000Z</time></trkpt>
        <trkpt lat="29.537568" lon="103.33375"><ele>2462.265</ele><time>2026-07-21T11:12:57.000Z</time></trkpt>
        <trkpt lat="29.537559" lon="103.333751"><ele>2461.6362</ele><time>2026-07-21T11:13:01.000Z</time></trkpt>
        <trkpt lat="29.537543" lon="103.333755"><ele>2462.2812</ele><time>2026-07-21T11:13:05.000Z</time></trkpt>
        <trkpt lat="29.537528" lon="103.333758"><ele>2463.4773</ele><time>2026-07-21T11:13:07.000Z</time></trkpt>
        <trkpt lat="29.537527" lon="103.333758"><ele>2463.5413</ele><time>2026-07-21T11:13:09.000Z</time></trkpt>
        <trkpt lat="29.537511" lon="103.333752"><ele>2466.2048</ele><time>2026-07-21T11:13:17.000Z</time></trkpt>
        <trkpt lat="29.53749" lon="103.333744"><ele>2467.3394</ele><time>2026-07-21T11:13:19.000Z</time></trkpt>
        <trkpt lat="29.537475" lon="103.333738"><ele>2467.3477</ele><time>2026-07-21T11:13:21.000Z</time></trkpt>
        <trkpt lat="29.537474" lon="103.333738"><ele>2467.6902</ele><time>2026-07-21T11:13:23.000Z</time></trkpt>
        <trkpt lat="29.53746" lon="103.333738"><ele>2467.9539</ele><time>2026-07-21T11:13:27.000Z</time></trkpt>
        <trkpt lat="29.537441" lon="103.333739"><ele>2468.1794</ele><time>2026-07-21T11:13:29.000Z</time></trkpt>
        <trkpt lat="29.537414" lon="103.333742"><ele>2467.204</ele><time>2026-07-21T11:13:31.000Z</time></trkpt>
        <trkpt lat="29.53739" lon="103.333745"><ele>2467.3923</ele><time>2026-07-21T11:13:33.000Z</time></trkpt>
        <trkpt lat="29.537372" lon="103.333749"><ele>2467.616</ele><time>2026-07-21T11:13:35.000Z</time></trkpt>
        <trkpt lat="29.537356" lon="103.333755"><ele>2467.1694</ele><time>2026-07-21T11:13:37.000Z</time></trkpt>
        <trkpt lat="29.53734" lon="103.333762"><ele>2467.868</ele><time>2026-07-21T11:13:39.000Z</time></trkpt>
        <trkpt lat="29.537326" lon="103.333771"><ele>2468.3452</ele><time>2026-07-21T11:13:41.000Z</time></trkpt>
        <trkpt lat="29.537317" lon="103.333779"><ele>2468.5732</ele><time>2026-07-21T11:13:43.000Z</time></trkpt>
        <trkpt lat="29.537309" lon="103.333786"><ele>2469.5845</ele><time>2026-07-21T11:13:45.000Z</time></trkpt>
        <trkpt lat="29.537299" lon="103.333797"><ele>2467.93</ele><time>2026-07-21T11:13:47.000Z</time></trkpt>
        <trkpt lat="29.537294" lon="103.333803"><ele>2466.847</ele><time>2026-07-21T11:13:49.000Z</time></trkpt>
        <trkpt lat="29.53729" lon="103.333811"><ele>2466.674</ele><time>2026-07-21T11:13:51.000Z</time></trkpt>
        <trkpt lat="29.537284" lon="103.33383"><ele>2466.6394</ele><time>2026-07-21T11:13:55.000Z</time></trkpt>
        <trkpt lat="29.537281" lon="103.333838"><ele>2467.4111</ele><time>2026-07-21T11:13:57.000Z</time></trkpt>
        <trkpt lat="29.537279" lon="103.333846"><ele>2467.0005</ele><time>2026-07-21T11:13:59.000Z</time></trkpt>
        <trkpt lat="29.537274" lon="103.333863"><ele>2468.9429</ele><time>2026-07-21T11:14:03.000Z</time></trkpt>
        <trkpt lat="29.53727" lon="103.333878"><ele>2469.5876</ele><time>2026-07-21T11:14:05.000Z</time></trkpt>
        <trkpt lat="29.53727" lon="103.333879"><ele>2471.1685</ele><time>2026-07-21T11:14:07.000Z</time></trkpt>
        <trkpt lat="29.537258" lon="103.333909"><ele>2471.2878</ele><time>2026-07-21T11:14:11.000Z</time></trkpt>
        <trkpt lat="29.537258" lon="103.333911"><ele>2470.984</ele><time>2026-07-21T11:14:15.000Z</time></trkpt>
        <trkpt lat="29.537258" lon="103.333915"><ele>2472.06</ele><time>2026-07-21T11:14:17.000Z</time></trkpt>
        <trkpt lat="29.537254" lon="103.333959"><ele>2470.5706</ele><time>2026-07-21T11:14:21.000Z</time></trkpt>
        <trkpt lat="29.537252" lon="103.333979"><ele>2470.7605</ele><time>2026-07-21T11:14:23.000Z</time></trkpt>
        <trkpt lat="29.537251" lon="103.33398"><ele>2471.5344</ele><time>2026-07-21T11:14:25.000Z</time></trkpt>
        <trkpt lat="29.537246" lon="103.333995"><ele>2471.8184</ele><time>2026-07-21T11:14:29.000Z</time></trkpt>
        <trkpt lat="29.537238" lon="103.334015"><ele>2472.1494</ele><time>2026-07-21T11:14:31.000Z</time></trkpt>
        <trkpt lat="29.537227" lon="103.334036"><ele>2472.715</ele><time>2026-07-21T11:14:33.000Z</time></trkpt>
        <trkpt lat="29.537216" lon="103.334056"><ele>2473.3347</ele><time>2026-07-21T11:14:35.000Z</time></trkpt>
        <trkpt lat="29.537207" lon="103.334071"><ele>2472.9788</ele><time>2026-07-21T11:14:37.000Z</time></trkpt>
        <trkpt lat="29.537196" lon="103.334085"><ele>2472.6672</ele><time>2026-07-21T11:14:39.000Z</time></trkpt>
        <trkpt lat="29.537184" lon="103.334098"><ele>2472.9648</ele><time>2026-07-21T11:14:41.000Z</time></trkpt>
        <trkpt lat="29.537173" lon="103.334108"><ele>2473.0144</ele><time>2026-07-21T11:14:43.000Z</time></trkpt>
        <trkpt lat="29.537163" lon="103.334117"><ele>2472.8062</ele><time>2026-07-21T11:14:45.000Z</time></trkpt>
        <trkpt lat="29.537155" lon="103.334122"><ele>2473.7087</ele><time>2026-07-21T11:14:47.000Z</time></trkpt>
        <trkpt lat="29.537147" lon="103.334126"><ele>2473.9988</ele><time>2026-07-21T11:14:49.000Z</time></trkpt>
        <trkpt lat="29.537129" lon="103.334134"><ele>2474.6733</ele><time>2026-07-21T11:14:53.000Z</time></trkpt>
        <trkpt lat="29.537122" lon="103.334136"><ele>2474.8672</ele><time>2026-07-21T11:14:55.000Z</time></trkpt>
        <trkpt lat="29.537111" lon="103.334143"><ele>2473.7034</ele><time>2026-07-21T11:14:57.000Z</time></trkpt>
        <trkpt lat="29.537093" lon="103.334153"><ele>2474.8284</ele><time>2026-07-21T11:15:05.000Z</time></trkpt>
        <trkpt lat="29.537078" lon="103.334159"><ele>2474.6426</ele><time>2026-07-21T11:15:07.000Z</time></trkpt>
        <trkpt lat="29.537059" lon="103.334166"><ele>2474.9587</ele><time>2026-07-21T11:15:09.000Z</time></trkpt>
        <trkpt lat="29.537047" lon="103.334171"><ele>2475.7556</ele><time>2026-07-21T11:15:11.000Z</time></trkpt>
        <trkpt lat="29.53704" lon="103.334174"><ele>2476.0088</ele><time>2026-07-21T11:15:13.000Z</time></trkpt>
        <trkpt lat="29.537031" lon="103.334176"><ele>2480.5103</ele><time>2026-07-21T11:15:31.000Z</time></trkpt>
        <trkpt lat="29.53699" lon="103.334186"><ele>2481.1833</ele><time>2026-07-21T11:15:35.000Z</time></trkpt>
        <trkpt lat="29.53699" lon="103.334186"><ele>2481.0454</ele><time>2026-07-21T11:15:37.000Z</time></trkpt>
        <trkpt lat="29.536988" lon="103.334187"><ele>2480.6648</ele><time>2026-07-21T11:15:39.000Z</time></trkpt>
        <trkpt lat="29.536941" lon="103.334201"><ele>2480.4775</ele><time>2026-07-21T11:15:47.000Z</time></trkpt>
        <trkpt lat="29.536941" lon="103.334201"><ele>2480.8164</ele><time>2026-07-21T11:15:49.000Z</time></trkpt>
        <trkpt lat="29.536939" lon="103.334203"><ele>2481.4258</ele><time>2026-07-21T11:15:51.000Z</time></trkpt>
        <trkpt lat="29.536906" lon="103.334234"><ele>2481.2786</ele><time>2026-07-21T11:15:57.000Z</time></trkpt>
        <trkpt lat="29.536895" lon="103.334242"><ele>2480.979</ele><time>2026-07-21T11:15:59.000Z</time></trkpt>
        <trkpt lat="29.536887" lon="103.334247"><ele>2481.1829</ele><time>2026-07-21T11:16:01.000Z</time></trkpt>
        <trkpt lat="29.536876" lon="103.334252"><ele>2481.1577</ele><time>2026-07-21T11:16:03.000Z</time></trkpt>
        <trkpt lat="29.536865" lon="103.334255"><ele>2481.9653</ele><time>2026-07-21T11:16:05.000Z</time></trkpt>
        <trkpt lat="29.536854" lon="103.334258"><ele>2482.3635</ele><time>2026-07-21T11:16:07.000Z</time></trkpt>
        <trkpt lat="29.536846" lon="103.33426"><ele>2482.06</ele><time>2026-07-21T11:16:09.000Z</time></trkpt>
        <trkpt lat="29.536836" lon="103.334262"><ele>2482.36</ele><time>2026-07-21T11:16:11.000Z</time></trkpt>
        <trkpt lat="29.536817" lon="103.334267"><ele>2482.1238</ele><time>2026-07-21T11:16:15.000Z</time></trkpt>
        <trkpt lat="29.536809" lon="103.334272"><ele>2482.3518</ele><time>2026-07-21T11:16:17.000Z</time></trkpt>
        <trkpt lat="29.536802" lon="103.334279"><ele>2481.9016</ele><time>2026-07-21T11:16:19.000Z</time></trkpt>
        <trkpt lat="29.536786" lon="103.334289"><ele>2483.7002</ele><time>2026-07-21T11:16:23.000Z</time></trkpt>
        <trkpt lat="29.536775" lon="103.334294"><ele>2483.1128</ele><time>2026-07-21T11:16:25.000Z</time></trkpt>
        <trkpt lat="29.536763" lon="103.334299"><ele>2483.7178</ele><time>2026-07-21T11:16:27.000Z</time></trkpt>
        <trkpt lat="29.536752" lon="103.334303"><ele>2484.541</ele><time>2026-07-21T11:16:29.000Z</time></trkpt>
        <trkpt lat="29.536739" lon="103.334308"><ele>2484.4326</ele><time>2026-07-21T11:16:31.000Z</time></trkpt>
        <trkpt lat="29.536723" lon="103.334313"><ele>2484.891</ele><time>2026-07-21T11:16:33.000Z</time></trkpt>
        <trkpt lat="29.536708" lon="103.334315"><ele>2485.5312</ele><time>2026-07-21T11:16:35.000Z</time></trkpt>
        <trkpt lat="29.53669" lon="103.334318"><ele>2486.2224</ele><time>2026-07-21T11:16:37.000Z</time></trkpt>
        <trkpt lat="29.536673" lon="103.33432"><ele>2485.448</ele><time>2026-07-21T11:16:39.000Z</time></trkpt>
        <trkpt lat="29.536657" lon="103.334322"><ele>2484.7837</ele><time>2026-07-21T11:16:41.000Z</time></trkpt>
        <trkpt lat="29.536646" lon="103.334322"><ele>2483.853</ele><time>2026-07-21T11:16:43.000Z</time></trkpt>
        <trkpt lat="29.53664" lon="103.334323"><ele>2484.9001</ele><time>2026-07-21T11:16:45.000Z</time></trkpt>
        <trkpt lat="29.536625" lon="103.334321"><ele>2485.6448</ele><time>2026-07-21T11:16:49.000Z</time></trkpt>
        <trkpt lat="29.536613" lon="103.33432"><ele>2485.2454</ele><time>2026-07-21T11:16:51.000Z</time></trkpt>
        <trkpt lat="29.536601" lon="103.334318"><ele>2483.7783</ele><time>2026-07-21T11:16:57.000Z</time></trkpt>
        <trkpt lat="29.536585" lon="103.334314"><ele>2483.7234</ele><time>2026-07-21T11:16:59.000Z</time></trkpt>
        <trkpt lat="29.536566" lon="103.334308"><ele>2483.8347</ele><time>2026-07-21T11:17:01.000Z</time></trkpt>
        <trkpt lat="29.536548" lon="103.334303"><ele>2484.4412</ele><time>2026-07-21T11:17:03.000Z</time></trkpt>
        <trkpt lat="29.536538" lon="103.334302"><ele>2484.7847</ele><time>2026-07-21T11:17:05.000Z</time></trkpt>
        <trkpt lat="29.536533" lon="103.3343"><ele>2485.486</ele><time>2026-07-21T11:17:07.000Z</time></trkpt>
        <trkpt lat="29.536516" lon="103.334295"><ele>2483.055</ele><time>2026-07-21T11:17:19.000Z</time></trkpt>
        <trkpt lat="29.536484" lon="103.334284"><ele>2482.9272</ele><time>2026-07-21T11:17:21.000Z</time></trkpt>
        <trkpt lat="29.536483" lon="103.334285"><ele>2483.993</ele><time>2026-07-21T11:17:23.000Z</time></trkpt>
        <trkpt lat="29.53648" lon="103.334287"><ele>2483.1567</ele><time>2026-07-21T11:17:25.000Z</time></trkpt>
        <trkpt lat="29.536452" lon="103.334309"><ele>2483.7166</ele><time>2026-07-21T11:17:29.000Z</time></trkpt>
        <trkpt lat="29.536433" lon="103.334319"><ele>2484.8923</ele><time>2026-07-21T11:17:31.000Z</time></trkpt>
        <trkpt lat="29.536416" lon="103.334327"><ele>2484.8638</ele><time>2026-07-21T11:17:33.000Z</time></trkpt>
        <trkpt lat="29.536398" lon="103.334332"><ele>2486.1975</ele><time>2026-07-21T11:17:35.000Z</time></trkpt>
        <trkpt lat="29.536386" lon="103.334335"><ele>2486.684</ele><time>2026-07-21T11:17:37.000Z</time></trkpt>
        <trkpt lat="29.536373" lon="103.334338"><ele>2487.0417</ele><time>2026-07-21T11:17:39.000Z</time></trkpt>
        <trkpt lat="29.536365" lon="103.334341"><ele>2486.7358</ele><time>2026-07-21T11:17:41.000Z</time></trkpt>
        <trkpt lat="29.536356" lon="103.334344"><ele>2488.0425</ele><time>2026-07-21T11:17:43.000Z</time></trkpt>
        <trkpt lat="29.536342" lon="103.334346"><ele>2488.3977</ele><time>2026-07-21T11:17:47.000Z</time></trkpt>
        <trkpt lat="29.536327" lon="103.334346"><ele>2487.8457</ele><time>2026-07-21T11:17:51.000Z</time></trkpt>
        <trkpt lat="29.53632" lon="103.334345"><ele>2488.2656</ele><time>2026-07-21T11:17:53.000Z</time></trkpt>
        <trkpt lat="29.536312" lon="103.334339"><ele>2489.6033</ele><time>2026-07-21T11:17:57.000Z</time></trkpt>
        <trkpt lat="29.536295" lon="103.334325"><ele>2490.1296</ele><time>2026-07-21T11:18:03.000Z</time></trkpt>
        <trkpt lat="29.536289" lon="103.334321"><ele>2490.5327</ele><time>2026-07-21T11:18:05.000Z</time></trkpt>
        <trkpt lat="29.536261" lon="103.334307"><ele>2490.6157</ele><time>2026-07-21T11:18:07.000Z</time></trkpt>
        <trkpt lat="29.536259" lon="103.334306"><ele>2490.229</ele><time>2026-07-21T11:18:09.000Z</time></trkpt>
        <trkpt lat="29.536256" lon="103.334306"><ele>2490.447</ele><time>2026-07-21T11:18:11.000Z</time></trkpt>
        <trkpt lat="29.536223" lon="103.334303"><ele>2489.6887</ele><time>2026-07-21T11:18:15.000Z</time></trkpt>
        <trkpt lat="29.536199" lon="103.3343"><ele>2490.398</ele><time>2026-07-21T11:18:17.000Z</time></trkpt>
        <trkpt lat="29.536181" lon="103.334296"><ele>2490.9087</ele><time>2026-07-21T11:18:19.000Z</time></trkpt>
        <trkpt lat="29.536169" lon="103.334289"><ele>2491.2812</ele><time>2026-07-21T11:18:21.000Z</time></trkpt>
        <trkpt lat="29.536161" lon="103.334283"><ele>2491.764</ele><time>2026-07-21T11:18:23.000Z</time></trkpt>
        <trkpt lat="29.536152" lon="103.334273"><ele>2492.1306</ele><time>2026-07-21T11:18:25.000Z</time></trkpt>
        <trkpt lat="29.536141" lon="103.334265"><ele>2490.2312</ele><time>2026-07-21T11:18:27.000Z</time></trkpt>
        <trkpt lat="29.536131" lon="103.334259"><ele>2489.9324</ele><time>2026-07-21T11:18:29.000Z</time></trkpt>
        <trkpt lat="29.536121" lon="103.334253"><ele>2489.2646</ele><time>2026-07-21T11:18:31.000Z</time></trkpt>
        <trkpt lat="29.536109" lon="103.334245"><ele>2488.922</ele><time>2026-07-21T11:18:33.000Z</time></trkpt>
        <trkpt lat="29.5361" lon="103.33424"><ele>2489.3247</ele><time>2026-07-21T11:18:35.000Z</time></trkpt>
        <trkpt lat="29.536095" lon="103.334235"><ele>2491.0044</ele><time>2026-07-21T11:18:37.000Z</time></trkpt>
        <trkpt lat="29.536088" lon="103.334218"><ele>2491.3398</ele><time>2026-07-21T11:18:41.000Z</time></trkpt>
        <trkpt lat="29.536081" lon="103.334208"><ele>2492.5486</ele><time>2026-07-21T11:18:43.000Z</time></trkpt>
        <trkpt lat="29.536076" lon="103.334204"><ele>2493.7395</ele><time>2026-07-21T11:18:49.000Z</time></trkpt>
        <trkpt lat="29.536041" lon="103.33418"><ele>2494.6938</ele><time>2026-07-21T11:18:53.000Z</time></trkpt>
        <trkpt lat="29.536041" lon="103.33418"><ele>2495.1064</ele><time>2026-07-21T11:18:55.000Z</time></trkpt>
        <trkpt lat="29.53604" lon="103.33418"><ele>2495.7065</ele><time>2026-07-21T11:18:57.000Z</time></trkpt>
        <trkpt lat="29.535997" lon="103.334161"><ele>2497.112</ele><time>2026-07-21T11:19:05.000Z</time></trkpt>
        <trkpt lat="29.535997" lon="103.334161"><ele>2498.5054</ele><time>2026-07-21T11:19:07.000Z</time></trkpt>
        <trkpt lat="29.535996" lon="103.33416"><ele>2500.502</ele><time>2026-07-21T11:19:09.000Z</time></trkpt>
        <trkpt lat="29.535967" lon="103.334141"><ele>2501.3374</ele><time>2026-07-21T11:19:15.000Z</time></trkpt>
        <trkpt lat="29.535955" lon="103.334132"><ele>2500.6145</ele><time>2026-07-21T11:19:17.000Z</time></trkpt>
        <trkpt lat="29.535948" lon="103.334125"><ele>2500.0474</ele><time>2026-07-21T11:19:19.000Z</time></trkpt>
        <trkpt lat="29.535938" lon="103.334118"><ele>2500.9563</ele><time>2026-07-21T11:19:23.000Z</time></trkpt>
        <trkpt lat="29.535927" lon="103.334112"><ele>2501.2905</ele><time>2026-07-21T11:19:25.000Z</time></trkpt>
        <trkpt lat="29.535921" lon="103.334109"><ele>2501.4714</ele><time>2026-07-21T11:19:31.000Z</time></trkpt>
        <trkpt lat="29.535888" lon="103.334091"><ele>2501.7703</ele><time>2026-07-21T11:19:33.000Z</time></trkpt>
        <trkpt lat="29.535886" lon="103.33409"><ele>2501.7776</ele><time>2026-07-21T11:19:35.000Z</time></trkpt>
        <trkpt lat="29.535884" lon="103.334089"><ele>2501.0957</ele><time>2026-07-21T11:19:37.000Z</time></trkpt>
        <trkpt lat="29.535858" lon="103.334072"><ele>2501.9436</ele><time>2026-07-21T11:19:41.000Z</time></trkpt>
        <trkpt lat="29.53584" lon="103.334061"><ele>2501.7134</ele><time>2026-07-21T11:19:43.000Z</time></trkpt>
        <trkpt lat="29.535821" lon="103.334052"><ele>2501.7278</ele><time>2026-07-21T11:19:45.000Z</time></trkpt>
        <trkpt lat="29.535804" lon="103.334046"><ele>2502.0198</ele><time>2026-07-21T11:19:47.000Z</time></trkpt>
        <trkpt lat="29.535785" lon="103.33404"><ele>2502.4673</ele><time>2026-07-21T11:19:49.000Z</time></trkpt>
        <trkpt lat="29.535769" lon="103.334035"><ele>2502.124</ele><time>2026-07-21T11:19:51.000Z</time></trkpt>
        <trkpt lat="29.535757" lon="103.334032"><ele>2503.0483</ele><time>2026-07-21T11:19:53.000Z</time></trkpt>
        <trkpt lat="29.535747" lon="103.334028"><ele>2502.1062</ele><time>2026-07-21T11:19:55.000Z</time></trkpt>
        <trkpt lat="29.535739" lon="103.334018"><ele>2501.9846</ele><time>2026-07-21T11:19:59.000Z</time></trkpt>
        <trkpt lat="29.535737" lon="103.334006"><ele>2506.9448</ele><time>2026-07-21T11:23:34.000Z</time></trkpt>
        <trkpt lat="29.535729" lon="103.333997"><ele>2507.7007</ele><time>2026-07-21T11:24:19.000Z</time></trkpt>
        <trkpt lat="29.535717" lon="103.333986"><ele>2504.989</ele><time>2026-07-21T11:25:31.000Z</time></trkpt>
        <trkpt lat="29.53571" lon="103.333983"><ele>2504.7856</ele><time>2026-07-21T11:25:33.000Z</time></trkpt>
        <trkpt lat="29.53569" lon="103.333974"><ele>2503.597</ele><time>2026-07-21T11:25:35.000Z</time></trkpt>
        <trkpt lat="29.535689" lon="103.333973"><ele>2504.6184</ele><time>2026-07-21T11:25:37.000Z</time></trkpt>
        <trkpt lat="29.53568" lon="103.333965"><ele>2505.2803</ele><time>2026-07-21T11:25:43.000Z</time></trkpt>
        <trkpt lat="29.535663" lon="103.33395"><ele>2505.7214</ele><time>2026-07-21T11:25:49.000Z</time></trkpt>
        <trkpt lat="29.53566" lon="103.333948"><ele>2505.4695</ele><time>2026-07-21T11:25:51.000Z</time></trkpt>
        <trkpt lat="29.535657" lon="103.333944"><ele>2505.47</ele><time>2026-07-21T11:25:53.000Z</time></trkpt>
        <trkpt lat="29.535643" lon="103.333922"><ele>2506.3003</ele><time>2026-07-21T11:26:03.000Z</time></trkpt>
        <trkpt lat="29.53564" lon="103.333919"><ele>2506.293</ele><time>2026-07-21T11:26:05.000Z</time></trkpt>
        <trkpt lat="29.535637" lon="103.333916"><ele>2506.7258</ele><time>2026-07-21T11:26:07.000Z</time></trkpt>
        <trkpt lat="29.535619" lon="103.333896"><ele>2506.7808</ele><time>2026-07-21T11:26:11.000Z</time></trkpt>
        <trkpt lat="29.535615" lon="103.333891"><ele>2507.7805</ele><time>2026-07-21T11:26:17.000Z</time></trkpt>
        <trkpt lat="29.53561" lon="103.333883"><ele>2507.8906</ele><time>2026-07-21T11:26:19.000Z</time></trkpt>
        <trkpt lat="29.535596" lon="103.333858"><ele>2508.4685</ele><time>2026-07-21T11:26:21.000Z</time></trkpt>
        <trkpt lat="29.535595" lon="103.333857"><ele>2508.2878</ele><time>2026-07-21T11:26:23.000Z</time></trkpt>
        <trkpt lat="29.535592" lon="103.333849"><ele>2509.2832</ele><time>2026-07-21T11:26:27.000Z</time></trkpt>
        <trkpt lat="29.535575" lon="103.333808"><ele>2510.1992</ele><time>2026-07-21T11:26:33.000Z</time></trkpt>
        <trkpt lat="29.535575" lon="103.333808"><ele>2510.3696</ele><time>2026-07-21T11:26:35.000Z</time></trkpt>
        <trkpt lat="29.535574" lon="103.333807"><ele>2510.2383</ele><time>2026-07-21T11:26:37.000Z</time></trkpt>
        <trkpt lat="29.535547" lon="103.333765"><ele>2511.7034</ele><time>2026-07-21T11:26:43.000Z</time></trkpt>
        <trkpt lat="29.535535" lon="103.333749"><ele>2511.177</ele><time>2026-07-21T11:26:45.000Z</time></trkpt>
        <trkpt lat="29.535522" lon="103.333733"><ele>2509.9243</ele><time>2026-07-21T11:26:47.000Z</time></trkpt>
        <trkpt lat="29.535509" lon="103.333718"><ele>2509.745</ele><time>2026-07-21T11:26:49.000Z</time></trkpt>
        <trkpt lat="29.535497" lon="103.333705"><ele>2509.0474</ele><time>2026-07-21T11:26:51.000Z</time></trkpt>
        <trkpt lat="29.535486" lon="103.333693"><ele>2508.3557</ele><time>2026-07-21T11:26:53.000Z</time></trkpt>
        <trkpt lat="29.535472" lon="103.333681"><ele>2508.6428</ele><time>2026-07-21T11:26:55.000Z</time></trkpt>
        <trkpt lat="29.535459" lon="103.333672"><ele>2508.6484</ele><time>2026-07-21T11:26:57.000Z</time></trkpt>
        <trkpt lat="29.535447" lon="103.333662"><ele>2509.0425</ele><time>2026-07-21T11:26:59.000Z</time></trkpt>
        <trkpt lat="29.535438" lon="103.333651"><ele>2509.61</ele><time>2026-07-21T11:27:01.000Z</time></trkpt>
        <trkpt lat="29.535431" lon="103.333638"><ele>2509.5732</ele><time>2026-07-21T11:27:03.000Z</time></trkpt>
        <trkpt lat="29.535427" lon="103.333624"><ele>2510.224</ele><time>2026-07-21T11:27:05.000Z</time></trkpt>
        <trkpt lat="29.535425" lon="103.333609"><ele>2510.1704</ele><time>2026-07-21T11:27:07.000Z</time></trkpt>
        <trkpt lat="29.535423" lon="103.333594"><ele>2510.3215</ele><time>2026-07-21T11:27:09.000Z</time></trkpt>
        <trkpt lat="29.535422" lon="103.333576"><ele>2510.2632</ele><time>2026-07-21T11:27:11.000Z</time></trkpt>
        <trkpt lat="29.535423" lon="103.333556"><ele>2510.052</ele><time>2026-07-21T11:27:13.000Z</time></trkpt>
        <trkpt lat="29.535426" lon="103.333539"><ele>2510.1506</ele><time>2026-07-21T11:27:15.000Z</time></trkpt>
        <trkpt lat="29.53543" lon="103.333523"><ele>2510.1606</ele><time>2026-07-21T11:27:17.000Z</time></trkpt>
        <trkpt lat="29.535432" lon="103.333507"><ele>2509.9624</ele><time>2026-07-21T11:27:19.000Z</time></trkpt>
        <trkpt lat="29.535435" lon="103.333491"><ele>2510.2085</ele><time>2026-07-21T11:27:21.000Z</time></trkpt>
        <trkpt lat="29.535436" lon="103.333475"><ele>2510.3992</ele><time>2026-07-21T11:27:23.000Z</time></trkpt>
        <trkpt lat="29.535437" lon="103.33346"><ele>2509.0054</ele><time>2026-07-21T11:27:25.000Z</time></trkpt>
        <trkpt lat="29.535438" lon="103.333442"><ele>2509.65</ele><time>2026-07-21T11:27:27.000Z</time></trkpt>
        <trkpt lat="29.535439" lon="103.333423"><ele>2510.2612</ele><time>2026-07-21T11:27:29.000Z</time></trkpt>
        <trkpt lat="29.53544" lon="103.333405"><ele>2509.845</ele><time>2026-07-21T11:27:31.000Z</time></trkpt>
        <trkpt lat="29.535439" lon="103.333384"><ele>2509.3787</ele><time>2026-07-21T11:27:33.000Z</time></trkpt>
        <trkpt lat="29.535438" lon="103.33336"><ele>2509.821</ele><time>2026-07-21T11:27:35.000Z</time></trkpt>
        <trkpt lat="29.535438" lon="103.333337"><ele>2509.6877</ele><time>2026-07-21T11:27:37.000Z</time></trkpt>
        <trkpt lat="29.535437" lon="103.333313"><ele>2509.8613</ele><time>2026-07-21T11:27:39.000Z</time></trkpt>
        <trkpt lat="29.535435" lon="103.333289"><ele>2509.9595</ele><time>2026-07-21T11:27:41.000Z</time></trkpt>
        <trkpt lat="29.535432" lon="103.333265"><ele>2509.3533</ele><time>2026-07-21T11:27:43.000Z</time></trkpt>
        <trkpt lat="29.535429" lon="103.333243"><ele>2509.5051</ele><time>2026-07-21T11:27:45.000Z</time></trkpt>
        <trkpt lat="29.535426" lon="103.333222"><ele>2509.812</ele><time>2026-07-21T11:27:47.000Z</time></trkpt>
        <trkpt lat="29.535424" lon="103.3332"><ele>2510.3977</ele><time>2026-07-21T11:27:49.000Z</time></trkpt>
        <trkpt lat="29.535424" lon="103.333183"><ele>2511.446</ele><time>2026-07-21T11:27:51.000Z</time></trkpt>
        <trkpt lat="29.535423" lon="103.333166"><ele>2511.9685</ele><time>2026-07-21T11:27:53.000Z</time></trkpt>
        <trkpt lat="29.535421" lon="103.33315"><ele>2512.3943</ele><time>2026-07-21T11:27:55.000Z</time></trkpt>
        <trkpt lat="29.535419" lon="103.333131"><ele>2513.612</ele><time>2026-07-21T11:27:57.000Z</time></trkpt>
        <trkpt lat="29.535416" lon="103.333113"><ele>2514.2349</ele><time>2026-07-21T11:27:59.000Z</time></trkpt>
        <trkpt lat="29.535412" lon="103.3331"><ele>2515.092</ele><time>2026-07-21T11:28:01.000Z</time></trkpt>
        <trkpt lat="29.535408" lon="103.333083"><ele>2515.82</ele><time>2026-07-21T11:28:03.000Z</time></trkpt>
        <trkpt lat="29.535404" lon="103.33307"><ele>2517.4912</ele><time>2026-07-21T11:28:05.000Z</time></trkpt>
        <trkpt lat="29.535399" lon="103.333053"><ele>2517.5266</ele><time>2026-07-21T11:28:07.000Z</time></trkpt>
        <trkpt lat="29.535392" lon="103.333034"><ele>2517.098</ele><time>2026-07-21T11:28:09.000Z</time></trkpt>
        <trkpt lat="29.535384" lon="103.333013"><ele>2517.1858</ele><time>2026-07-21T11:28:11.000Z</time></trkpt>
        <trkpt lat="29.535376" lon="103.332993"><ele>2516.8813</ele><time>2026-07-21T11:28:13.000Z</time></trkpt>
        <trkpt lat="29.535366" lon="103.332971"><ele>2516.5823</ele><time>2026-07-21T11:28:15.000Z</time></trkpt>
        <trkpt lat="29.535356" lon="103.332951"><ele>2515.9536</ele><time>2026-07-21T11:28:17.000Z</time></trkpt>
        <trkpt lat="29.535345" lon="103.33293"><ele>2515.653</ele><time>2026-07-21T11:28:19.000Z</time></trkpt>
        <trkpt lat="29.535333" lon="103.332912"><ele>2516.2058</ele><time>2026-07-21T11:28:21.000Z</time></trkpt>
        <trkpt lat="29.53532" lon="103.332894"><ele>2516.0723</ele><time>2026-07-21T11:28:23.000Z</time></trkpt>
        <trkpt lat="29.535306" lon="103.332878"><ele>2515.5652</ele><time>2026-07-21T11:28:25.000Z</time></trkpt>
        <trkpt lat="29.535292" lon="103.332863"><ele>2515.9304</ele><time>2026-07-21T11:28:27.000Z</time></trkpt>
        <trkpt lat="29.535278" lon="103.332848"><ele>2516.0369</ele><time>2026-07-21T11:28:29.000Z</time></trkpt>
        <trkpt lat="29.535264" lon="103.332834"><ele>2516.9534</ele><time>2026-07-21T11:28:31.000Z</time></trkpt>
        <trkpt lat="29.535249" lon="103.332819"><ele>2516.8103</ele><time>2026-07-21T11:28:33.000Z</time></trkpt>
        <trkpt lat="29.535235" lon="103.332805"><ele>2517.1147</ele><time>2026-07-21T11:28:35.000Z</time></trkpt>
        <trkpt lat="29.535221" lon="103.33279"><ele>2517.3628</ele><time>2026-07-21T11:28:37.000Z</time></trkpt>
        <trkpt lat="29.535207" lon="103.332776"><ele>2517.7205</ele><time>2026-07-21T11:28:39.000Z</time></trkpt>
        <trkpt lat="29.535197" lon="103.332765"><ele>2517.4282</ele><time>2026-07-21T11:28:41.000Z</time></trkpt>
        <trkpt lat="29.535188" lon="103.332754"><ele>2517.5884</ele><time>2026-07-21T11:28:43.000Z</time></trkpt>
        <trkpt lat="29.535178" lon="103.332742"><ele>2518.142</ele><time>2026-07-21T11:28:45.000Z</time></trkpt>
        <trkpt lat="29.535166" lon="103.332727"><ele>2517.8672</ele><time>2026-07-21T11:28:47.000Z</time></trkpt>
        <trkpt lat="29.535154" lon="103.332712"><ele>2517.284</ele><time>2026-07-21T11:28:49.000Z</time></trkpt>
        <trkpt lat="29.535143" lon="103.332697"><ele>2517.109</ele><time>2026-07-21T11:28:51.000Z</time></trkpt>
        <trkpt lat="29.535131" lon="103.332681"><ele>2517.4644</ele><time>2026-07-21T11:28:53.000Z</time></trkpt>
        <trkpt lat="29.535118" lon="103.332664"><ele>2517.8435</ele><time>2026-07-21T11:28:55.000Z</time></trkpt>
        <trkpt lat="29.535107" lon="103.332648"><ele>2518.4258</ele><time>2026-07-21T11:28:57.000Z</time></trkpt>
        <trkpt lat="29.535096" lon="103.332631"><ele>2518.234</ele><time>2026-07-21T11:28:59.000Z</time></trkpt>
        <trkpt lat="29.535086" lon="103.332612"><ele>2518.1194</ele><time>2026-07-21T11:29:01.000Z</time></trkpt>
        <trkpt lat="29.535077" lon="103.332594"><ele>2517.8252</ele><time>2026-07-21T11:29:03.000Z</time></trkpt>
        <trkpt lat="29.535067" lon="103.332572"><ele>2518.0037</ele><time>2026-07-21T11:29:05.000Z</time></trkpt>
        <trkpt lat="29.535061" lon="103.332553"><ele>2517.354</ele><time>2026-07-21T11:29:07.000Z</time></trkpt>
        <trkpt lat="29.535056" lon="103.332532"><ele>2517.1191</ele><time>2026-07-21T11:29:09.000Z</time></trkpt>
        <trkpt lat="29.535054" lon="103.332513"><ele>2516.388</ele><time>2026-07-21T11:29:11.000Z</time></trkpt>
        <trkpt lat="29.535054" lon="103.332492"><ele>2516.119</ele><time>2026-07-21T11:29:13.000Z</time></trkpt>
        <trkpt lat="29.535055" lon="103.332472"><ele>2515.7234</ele><time>2026-07-21T11:29:15.000Z</time></trkpt>
        <trkpt lat="29.535055" lon="103.332453"><ele>2516.2744</ele><time>2026-07-21T11:29:17.000Z</time></trkpt>
        <trkpt lat="29.535056" lon="103.332434"><ele>2517.183</ele><time>2026-07-21T11:29:19.000Z</time></trkpt>
        <trkpt lat="29.535057" lon="103.332416"><ele>2516.065</ele><time>2026-07-21T11:29:21.000Z</time></trkpt>
        <trkpt lat="29.535057" lon="103.332395"><ele>2516.4575</ele><time>2026-07-21T11:29:23.000Z</time></trkpt>
        <trkpt lat="29.535056" lon="103.332375"><ele>2516.4219</ele><time>2026-07-21T11:29:25.000Z</time></trkpt>
        <trkpt lat="29.535053" lon="103.332356"><ele>2516.8428</ele><time>2026-07-21T11:29:27.000Z</time></trkpt>
        <trkpt lat="29.535048" lon="103.332337"><ele>2516.6475</ele><time>2026-07-21T11:29:29.000Z</time></trkpt>
        <trkpt lat="29.535043" lon="103.332316"><ele>2517.252</ele><time>2026-07-21T11:29:31.000Z</time></trkpt>
        <trkpt lat="29.535038" lon="103.332296"><ele>2517.574</ele><time>2026-07-21T11:29:33.000Z</time></trkpt>
        <trkpt lat="29.535033" lon="103.332274"><ele>2517.7861</ele><time>2026-07-21T11:29:35.000Z</time></trkpt>
        <trkpt lat="29.53503" lon="103.332254"><ele>2517.7883</ele><time>2026-07-21T11:29:37.000Z</time></trkpt>
        <trkpt lat="29.535027" lon="103.332234"><ele>2517.7896</ele><time>2026-07-21T11:29:39.000Z</time></trkpt>
        <trkpt lat="29.535025" lon="103.332214"><ele>2517.782</ele><time>2026-07-21T11:29:41.000Z</time></trkpt>
        <trkpt lat="29.535024" lon="103.332194"><ele>2518.0312</ele><time>2026-07-21T11:29:43.000Z</time></trkpt>
        <trkpt lat="29.535023" lon="103.332173"><ele>2518.189</ele><time>2026-07-21T11:29:45.000Z</time></trkpt>
        <trkpt lat="29.535021" lon="103.332149"><ele>2517.9365</ele><time>2026-07-21T11:29:47.000Z</time></trkpt>
        <trkpt lat="29.535019" lon="103.332127"><ele>2517.478</ele><time>2026-07-21T11:29:49.000Z</time></trkpt>
        <trkpt lat="29.535018" lon="103.332105"><ele>2517.2388</ele><time>2026-07-21T11:29:51.000Z</time></trkpt>
        <trkpt lat="29.535017" lon="103.332083"><ele>2517.4998</ele><time>2026-07-21T11:29:53.000Z</time></trkpt>
        <trkpt lat="29.535016" lon="103.332063"><ele>2517.5256</ele><time>2026-07-21T11:29:55.000Z</time></trkpt>
        <trkpt lat="29.535015" lon="103.332043"><ele>2517.665</ele><time>2026-07-21T11:29:57.000Z</time></trkpt>
        <trkpt lat="29.535015" lon="103.332024"><ele>2517.823</ele><time>2026-07-21T11:29:59.000Z</time></trkpt>
        <trkpt lat="29.535015" lon="103.332003"><ele>2518.019</ele><time>2026-07-21T11:30:01.000Z</time></trkpt>
        <trkpt lat="29.535014" lon="103.331985"><ele>2518.182</ele><time>2026-07-21T11:30:03.000Z</time></trkpt>
        <trkpt lat="29.535012" lon="103.331965"><ele>2517.869</ele><time>2026-07-21T11:30:05.000Z</time></trkpt>
        <trkpt lat="29.53501" lon="103.331944"><ele>2518.3914</ele><time>2026-07-21T11:30:07.000Z</time></trkpt>
        <trkpt lat="29.535009" lon="103.331923"><ele>2518.0913</ele><time>2026-07-21T11:30:09.000Z</time></trkpt>
        <trkpt lat="29.535009" lon="103.331905"><ele>2518.3262</ele><time>2026-07-21T11:30:11.000Z</time></trkpt>
        <trkpt lat="29.535009" lon="103.331886"><ele>2517.9507</ele><time>2026-07-21T11:30:13.000Z</time></trkpt>
        <trkpt lat="29.53501" lon="103.331866"><ele>2518.3413</ele><time>2026-07-21T11:30:15.000Z</time></trkpt>
        <trkpt lat="29.535009" lon="103.331847"><ele>2518.1177</ele><time>2026-07-21T11:30:17.000Z</time></trkpt>
        <trkpt lat="29.53501" lon="103.331827"><ele>2518.4504</ele><time>2026-07-21T11:30:19.000Z</time></trkpt>
        <trkpt lat="29.535009" lon="103.331807"><ele>2518.486</ele><time>2026-07-21T11:30:21.000Z</time></trkpt>
        <trkpt lat="29.535008" lon="103.331786"><ele>2519.0308</ele><time>2026-07-21T11:30:23.000Z</time></trkpt>
        <trkpt lat="29.535006" lon="103.331767"><ele>2518.86</ele><time>2026-07-21T11:30:25.000Z</time></trkpt>
        <trkpt lat="29.535003" lon="103.331748"><ele>2518.993</ele><time>2026-07-21T11:30:27.000Z</time></trkpt>
        <trkpt lat="29.535002" lon="103.33173"><ele>2519.6746</ele><time>2026-07-21T11:30:29.000Z</time></trkpt>
        <trkpt lat="29.535002" lon="103.331711"><ele>2519.393</ele><time>2026-07-21T11:30:31.000Z</time></trkpt>
        <trkpt lat="29.535" lon="103.331691"><ele>2518.735</ele><time>2026-07-21T11:30:33.000Z</time></trkpt>
        <trkpt lat="29.534999" lon="103.331671"><ele>2518.731</ele><time>2026-07-21T11:30:35.000Z</time></trkpt>
        <trkpt lat="29.534997" lon="103.331648"><ele>2519.1868</ele><time>2026-07-21T11:30:37.000Z</time></trkpt>
        <trkpt lat="29.534994" lon="103.331626"><ele>2519.4087</ele><time>2026-07-21T11:30:39.000Z</time></trkpt>
        <trkpt lat="29.534991" lon="103.331605"><ele>2518.9612</ele><time>2026-07-21T11:30:41.000Z</time></trkpt>
        <trkpt lat="29.534988" lon="103.331585"><ele>2519.181</ele><time>2026-07-21T11:30:43.000Z</time></trkpt>
        <trkpt lat="29.534985" lon="103.331563"><ele>2519.69</ele><time>2026-07-21T11:30:45.000Z</time></trkpt>
        <trkpt lat="29.534981" lon="103.331541"><ele>2519.9712</ele><time>2026-07-21T11:30:47.000Z</time></trkpt>
        <trkpt lat="29.534978" lon="103.331519"><ele>2520.155</ele><time>2026-07-21T11:30:49.000Z</time></trkpt>
        <trkpt lat="29.534974" lon="103.331496"><ele>2519.1978</ele><time>2026-07-21T11:30:51.000Z</time></trkpt>
        <trkpt lat="29.534967" lon="103.331472"><ele>2518.0676</ele><time>2026-07-21T11:30:53.000Z</time></trkpt>
        <trkpt lat="29.534957" lon="103.331451"><ele>2518.9885</ele><time>2026-07-21T11:30:55.000Z</time></trkpt>
        <trkpt lat="29.534945" lon="103.331433"><ele>2519.912</ele><time>2026-07-21T11:30:57.000Z</time></trkpt>
        <trkpt lat="29.53493" lon="103.331415"><ele>2520.302</ele><time>2026-07-21T11:30:59.000Z</time></trkpt>
        <trkpt lat="29.534914" lon="103.331399"><ele>2520.3955</ele><time>2026-07-21T11:31:01.000Z</time></trkpt>
        <trkpt lat="29.534897" lon="103.331387"><ele>2520.6008</ele><time>2026-07-21T11:31:03.000Z</time></trkpt>
        <trkpt lat="29.53488" lon="103.331381"><ele>2521.5588</ele><time>2026-07-21T11:31:05.000Z</time></trkpt>
        <trkpt lat="29.534861" lon="103.331378"><ele>2521.3394</ele><time>2026-07-21T11:31:07.000Z</time></trkpt>
        <trkpt lat="29.534839" lon="103.331379"><ele>2521.8398</ele><time>2026-07-21T11:31:09.000Z</time></trkpt>
        <trkpt lat="29.534818" lon="103.331379"><ele>2522.3105</ele><time>2026-07-21T11:31:11.000Z</time></trkpt>
        <trkpt lat="29.534801" lon="103.331381"><ele>2523.2166</ele><time>2026-07-21T11:31:13.000Z</time></trkpt>
        <trkpt lat="29.534787" lon="103.331387"><ele>2524.2388</ele><time>2026-07-21T11:31:15.000Z</time></trkpt>
        <trkpt lat="29.534774" lon="103.331396"><ele>2524.1157</ele><time>2026-07-21T11:31:17.000Z</time></trkpt>
        <trkpt lat="29.534759" lon="103.331408"><ele>2524.7815</ele><time>2026-07-21T11:31:19.000Z</time></trkpt>
        <trkpt lat="29.534746" lon="103.331424"><ele>2524.7292</ele><time>2026-07-21T11:31:21.000Z</time></trkpt>
        <trkpt lat="29.534735" lon="103.331444"><ele>2524.8147</ele><time>2026-07-21T11:31:23.000Z</time></trkpt>
        <trkpt lat="29.534728" lon="103.331467"><ele>2524.2778</ele><time>2026-07-21T11:31:25.000Z</time></trkpt>
        <trkpt lat="29.534723" lon="103.33149"><ele>2524.619</ele><time>2026-07-21T11:31:27.000Z</time></trkpt>
        <trkpt lat="29.53472" lon="103.331515"><ele>2523.3794</ele><time>2026-07-21T11:31:29.000Z</time></trkpt>
        <trkpt lat="29.534718" lon="103.331538"><ele>2524.0044</ele><time>2026-07-21T11:31:31.000Z</time></trkpt>
        <trkpt lat="29.534716" lon="103.331561"><ele>2523.9976</ele><time>2026-07-21T11:31:33.000Z</time></trkpt>
        <trkpt lat="29.534715" lon="103.331585"><ele>2523.4106</ele><time>2026-07-21T11:31:35.000Z</time></trkpt>
        <trkpt lat="29.534716" lon="103.33161"><ele>2521.9534</ele><time>2026-07-21T11:31:37.000Z</time></trkpt>
        <trkpt lat="29.534717" lon="103.331634"><ele>2522.237</ele><time>2026-07-21T11:31:39.000Z</time></trkpt>
        <trkpt lat="29.53472" lon="103.331656"><ele>2522.4521</ele><time>2026-07-21T11:31:41.000Z</time></trkpt>
        <trkpt lat="29.534723" lon="103.331676"><ele>2522.7295</ele><time>2026-07-21T11:31:43.000Z</time></trkpt>
        <trkpt lat="29.534726" lon="103.331693"><ele>2523.6702</ele><time>2026-07-21T11:31:45.000Z</time></trkpt>
        <trkpt lat="29.53473" lon="103.331711"><ele>2523.9255</ele><time>2026-07-21T11:31:47.000Z</time></trkpt>
        <trkpt lat="29.534735" lon="103.331729"><ele>2524.2317</ele><time>2026-07-21T11:31:49.000Z</time></trkpt>
        <trkpt lat="29.534738" lon="103.331749"><ele>2524.2214</ele><time>2026-07-21T11:31:51.000Z</time></trkpt>
        <trkpt lat="29.53474" lon="103.331765"><ele>2523.9788</ele><time>2026-07-21T11:31:53.000Z</time></trkpt>
        <trkpt lat="29.534741" lon="103.331782"><ele>2523.1653</ele><time>2026-07-21T11:31:55.000Z</time></trkpt>
        <trkpt lat="29.534743" lon="103.331797"><ele>2523.2144</ele><time>2026-07-21T11:31:57.000Z</time></trkpt>
        <trkpt lat="29.534745" lon="103.331814"><ele>2523.21</ele><time>2026-07-21T11:31:59.000Z</time></trkpt>
        <trkpt lat="29.534748" lon="103.331832"><ele>2524.2954</ele><time>2026-07-21T11:32:01.000Z</time></trkpt>
        <trkpt lat="29.534749" lon="103.33185"><ele>2524.5994</ele><time>2026-07-21T11:32:03.000Z</time></trkpt>
        <trkpt lat="29.534748" lon="103.331867"><ele>2523.3396</ele><time>2026-07-21T11:32:05.000Z</time></trkpt>
        <trkpt lat="29.534747" lon="103.33188"><ele>2523.7197</ele><time>2026-07-21T11:32:07.000Z</time></trkpt>
        <trkpt lat="29.534746" lon="103.331895"><ele>2524.1096</ele><time>2026-07-21T11:32:09.000Z</time></trkpt>
        <trkpt lat="29.534745" lon="103.331912"><ele>2524.8179</ele><time>2026-07-21T11:32:11.000Z</time></trkpt>
        <trkpt lat="29.534745" lon="103.331929"><ele>2525.2825</ele><time>2026-07-21T11:32:13.000Z</time></trkpt>
        <trkpt lat="29.534746" lon="103.331948"><ele>2524.662</ele><time>2026-07-21T11:32:15.000Z</time></trkpt>
        <trkpt lat="29.534749" lon="103.331972"><ele>2524.6707</ele><time>2026-07-21T11:32:17.000Z</time></trkpt>
        <trkpt lat="29.534752" lon="103.331992"><ele>2524.937</ele><time>2026-07-21T11:32:19.000Z</time></trkpt>
        <trkpt lat="29.534754" lon="103.332013"><ele>2525.0847</ele><time>2026-07-21T11:32:21.000Z</time></trkpt>
        <trkpt lat="29.534755" lon="103.332035"><ele>2524.5571</ele><time>2026-07-21T11:32:23.000Z</time></trkpt>
        <trkpt lat="29.534754" lon="103.332055"><ele>2524.0396</ele><time>2026-07-21T11:32:25.000Z</time></trkpt>
        <trkpt lat="29.534753" lon="103.332074"><ele>2524.6675</ele><time>2026-07-21T11:32:27.000Z</time></trkpt>
        <trkpt lat="29.53475" lon="103.332091"><ele>2524.7195</ele><time>2026-07-21T11:32:29.000Z</time></trkpt>
        <trkpt lat="29.534745" lon="103.332106"><ele>2524.9863</ele><time>2026-07-21T11:32:31.000Z</time></trkpt>
        <trkpt lat="29.534738" lon="103.332122"><ele>2524.4211</ele><time>2026-07-21T11:32:33.000Z</time></trkpt>
        <trkpt lat="29.534732" lon="103.33214"><ele>2524.4094</ele><time>2026-07-21T11:32:35.000Z</time></trkpt>
        <trkpt lat="29.534726" lon="103.332156"><ele>2524.4526</ele><time>2026-07-21T11:32:37.000Z</time></trkpt>
        <trkpt lat="29.534719" lon="103.332174"><ele>2524.6396</ele><time>2026-07-21T11:32:39.000Z</time></trkpt>
        <trkpt lat="29.534713" lon="103.332192"><ele>2524.6045</ele><time>2026-07-21T11:32:41.000Z</time></trkpt>
        <trkpt lat="29.534708" lon="103.332209"><ele>2525.2603</ele><time>2026-07-21T11:32:43.000Z</time></trkpt>
        <trkpt lat="29.534703" lon="103.332227"><ele>2524.9526</ele><time>2026-07-21T11:32:45.000Z</time></trkpt>
        <trkpt lat="29.5347" lon="103.332246"><ele>2525.4912</ele><time>2026-07-21T11:32:47.000Z</time></trkpt>
        <trkpt lat="29.534697" lon="103.332263"><ele>2525.8428</ele><time>2026-07-21T11:32:49.000Z</time></trkpt>
        <trkpt lat="29.534694" lon="103.332286"><ele>2526.368</ele><time>2026-07-21T11:32:51.000Z</time></trkpt>
        <trkpt lat="29.534691" lon="103.332308"><ele>2527.6091</ele><time>2026-07-21T11:32:53.000Z</time></trkpt>
        <trkpt lat="29.534689" lon="103.332329"><ele>2527.1858</ele><time>2026-07-21T11:32:55.000Z</time></trkpt>
        <trkpt lat="29.534687" lon="103.33235"><ele>2527.8594</ele><time>2026-07-21T11:32:57.000Z</time></trkpt>
        <trkpt lat="29.534685" lon="103.332371"><ele>2528.2998</ele><time>2026-07-21T11:32:59.000Z</time></trkpt>
        <trkpt lat="29.534683" lon="103.332392"><ele>2527.5308</ele><time>2026-07-21T11:33:01.000Z</time></trkpt>
        <trkpt lat="29.534681" lon="103.332413"><ele>2527.063</ele><time>2026-07-21T11:33:03.000Z</time></trkpt>
        <trkpt lat="29.534679" lon="103.332434"><ele>2529.0469</ele><time>2026-07-21T11:33:05.000Z</time></trkpt>
        <trkpt lat="29.534678" lon="103.332456"><ele>2529.5396</ele><time>2026-07-21T11:33:07.000Z</time></trkpt>
        <trkpt lat="29.534677" lon="103.332479"><ele>2529.0442</ele><time>2026-07-21T11:33:09.000Z</time></trkpt>
        <trkpt lat="29.534676" lon="103.332503"><ele>2528.4456</ele><time>2026-07-21T11:33:11.000Z</time></trkpt>
        <trkpt lat="29.534676" lon="103.332527"><ele>2528.2417</ele><time>2026-07-21T11:33:13.000Z</time></trkpt>
        <trkpt lat="29.534678" lon="103.332549"><ele>2527.9023</ele><time>2026-07-21T11:33:15.000Z</time></trkpt>
        <trkpt lat="29.534682" lon="103.33257"><ele>2528.2925</ele><time>2026-07-21T11:33:17.000Z</time></trkpt>
        <trkpt lat="29.534688" lon="103.33259"><ele>2528.6343</ele><time>2026-07-21T11:33:19.000Z</time></trkpt>
        <trkpt lat="29.534695" lon="103.332612"><ele>2528.9746</ele><time>2026-07-21T11:33:21.000Z</time></trkpt>
        <trkpt lat="29.534704" lon="103.332633"><ele>2529.6768</ele><time>2026-07-21T11:33:23.000Z</time></trkpt>
        <trkpt lat="29.534712" lon="103.332654"><ele>2530.7017</ele><time>2026-07-21T11:33:25.000Z</time></trkpt>
        <trkpt lat="29.53472" lon="103.332674"><ele>2531.759</ele><time>2026-07-21T11:33:27.000Z</time></trkpt>
        <trkpt lat="29.534728" lon="103.332693"><ele>2532.8977</ele><time>2026-07-21T11:33:29.000Z</time></trkpt>
        <trkpt lat="29.534736" lon="103.332711"><ele>2533.7993</ele><time>2026-07-21T11:33:31.000Z</time></trkpt>
        <trkpt lat="29.534744" lon="103.33273"><ele>2531.729</ele><time>2026-07-21T11:33:33.000Z</time></trkpt>
        <trkpt lat="29.534752" lon="103.33275"><ele>2530.963</ele><time>2026-07-21T11:33:35.000Z</time></trkpt>
        <trkpt lat="29.534761" lon="103.332773"><ele>2532.629</ele><time>2026-07-21T11:33:37.000Z</time></trkpt>
        <trkpt lat="29.534769" lon="103.332792"><ele>2533.2139</ele><time>2026-07-21T11:33:39.000Z</time></trkpt>
        <trkpt lat="29.534777" lon="103.33281"><ele>2533.0178</ele><time>2026-07-21T11:33:41.000Z</time></trkpt>
        <trkpt lat="29.534785" lon="103.332828"><ele>2532.988</ele><time>2026-07-21T11:33:43.000Z</time></trkpt>
        <trkpt lat="29.534793" lon="103.332848"><ele>2532.8035</ele><time>2026-07-21T11:33:45.000Z</time></trkpt>
        <trkpt lat="29.534802" lon="103.332864"><ele>2535.4597</ele><time>2026-07-21T11:33:47.000Z</time></trkpt>
        <trkpt lat="29.534809" lon="103.332878"><ele>2537.6711</ele><time>2026-07-21T11:33:49.000Z</time></trkpt>
        <trkpt lat="29.534813" lon="103.332889"><ele>2538.4705</ele><time>2026-07-21T11:33:51.000Z</time></trkpt>
        <trkpt lat="29.534817" lon="103.3329"><ele>2538.997</ele><time>2026-07-21T11:33:53.000Z</time></trkpt>
        <trkpt lat="29.534819" lon="103.33291"><ele>2538.8975</ele><time>2026-07-21T11:33:55.000Z</time></trkpt>
        <trkpt lat="29.534816" lon="103.332924"><ele>2538.0947</ele><time>2026-07-21T11:33:59.000Z</time></trkpt>
        <trkpt lat="29.534811" lon="103.332927"><ele>2536.8567</ele><time>2026-07-21T11:34:05.000Z</time></trkpt>
        <trkpt lat="29.534799" lon="103.332939"><ele>2535.8638</ele><time>2026-07-21T11:34:25.000Z</time></trkpt>
        <trkpt lat="29.534791" lon="103.33294"><ele>2535.8967</ele><time>2026-07-21T11:34:35.000Z</time></trkpt>
        <trkpt lat="29.534778" lon="103.332942"><ele>2539.0886</ele><time>2026-07-21T11:34:50.000Z</time></trkpt>
        <trkpt lat="29.534761" lon="103.332945"><ele>2539.8926</ele><time>2026-07-21T11:34:52.000Z</time></trkpt>
        <trkpt lat="29.53476" lon="103.332945"><ele>2540.322</ele><time>2026-07-21T11:34:54.000Z</time></trkpt>
        <trkpt lat="29.534746" lon="103.332948"><ele>2539.221</ele><time>2026-07-21T11:35:02.000Z</time></trkpt>
        <trkpt lat="29.534721" lon="103.332952"><ele>2540.5051</ele><time>2026-07-21T11:35:08.000Z</time></trkpt>
        <trkpt lat="29.534708" lon="103.332953"><ele>2540.363</ele><time>2026-07-21T11:35:10.000Z</time></trkpt>
        <trkpt lat="29.534708" lon="103.332954"><ele>2540.2405</ele><time>2026-07-21T11:35:12.000Z</time></trkpt>
        <trkpt lat="29.534685" lon="103.332962"><ele>2540.5378</ele><time>2026-07-21T11:35:18.000Z</time></trkpt>
        <trkpt lat="29.53467" lon="103.332969"><ele>2539.678</ele><time>2026-07-21T11:35:20.000Z</time></trkpt>
        <trkpt lat="29.534659" lon="103.332976"><ele>2539.5361</ele><time>2026-07-21T11:35:22.000Z</time></trkpt>
        <trkpt lat="29.534651" lon="103.332982"><ele>2539.5903</ele><time>2026-07-21T11:35:24.000Z</time></trkpt>
        <trkpt lat="29.534646" lon="103.33299"><ele>2540.5315</ele><time>2026-07-21T11:35:26.000Z</time></trkpt>
        <trkpt lat="29.534635" lon="103.333004"><ele>2540.5657</ele><time>2026-07-21T11:35:30.000Z</time></trkpt>
        <trkpt lat="29.534631" lon="103.333008"><ele>2542.1357</ele><time>2026-07-21T11:35:32.000Z</time></trkpt>
        <trkpt lat="29.534619" lon="103.333011"><ele>2543.1133</ele><time>2026-07-21T11:35:38.000Z</time></trkpt>
        <trkpt lat="29.534595" lon="103.333016"><ele>2542.1606</ele><time>2026-07-21T11:35:40.000Z</time></trkpt>
        <trkpt lat="29.534593" lon="103.333016"><ele>2542.1997</ele><time>2026-07-21T11:35:42.000Z</time></trkpt>
        <trkpt lat="29.534583" lon="103.333019"><ele>2542.3442</ele><time>2026-07-21T11:35:46.000Z</time></trkpt>
        <trkpt lat="29.534559" lon="103.333025"><ele>2542.8599</ele><time>2026-07-21T11:35:50.000Z</time></trkpt>
        <trkpt lat="29.534549" lon="103.333027"><ele>2542.3303</ele><time>2026-07-21T11:35:52.000Z</time></trkpt>
        <trkpt lat="29.534539" lon="103.33303"><ele>2542.6897</ele><time>2026-07-21T11:35:54.000Z</time></trkpt>
        <trkpt lat="29.534529" lon="103.333032"><ele>2543.26</ele><time>2026-07-21T11:35:56.000Z</time></trkpt>
        <trkpt lat="29.534517" lon="103.333034"><ele>2544.5894</ele><time>2026-07-21T11:35:58.000Z</time></trkpt>
        <trkpt lat="29.534508" lon="103.333036"><ele>2543.2864</ele><time>2026-07-21T11:36:00.000Z</time></trkpt>
        <trkpt lat="29.534499" lon="103.333041"><ele>2543.5735</ele><time>2026-07-21T11:36:08.000Z</time></trkpt>
        <trkpt lat="29.534483" lon="103.333051"><ele>2544.3232</ele><time>2026-07-21T11:36:14.000Z</time></trkpt>
        <trkpt lat="29.534469" lon="103.333061"><ele>2544.035</ele><time>2026-07-21T11:36:16.000Z</time></trkpt>
        <trkpt lat="29.534468" lon="103.333061"><ele>2544.534</ele><time>2026-07-21T11:36:18.000Z</time></trkpt>
        <trkpt lat="29.534455" lon="103.333061"><ele>2545.1167</ele><time>2026-07-21T11:36:26.000Z</time></trkpt>
        <trkpt lat="29.534434" lon="103.333061"><ele>2545.552</ele><time>2026-07-21T11:36:42.000Z</time></trkpt>
        <trkpt lat="29.534434" lon="103.333061"><ele>2545.998</ele><time>2026-07-21T11:36:44.000Z</time></trkpt>
        <trkpt lat="29.534417" lon="103.333071"><ele>2545.1316</ele><time>2026-07-21T11:36:50.000Z</time></trkpt>
        <trkpt lat="29.53439" lon="103.333086"><ele>2545.5872</ele><time>2026-07-21T11:36:52.000Z</time></trkpt>
        <trkpt lat="29.534389" lon="103.333087"><ele>2546.2788</ele><time>2026-07-21T11:36:54.000Z</time></trkpt>
        <trkpt lat="29.534388" lon="103.333089"><ele>2548.3936</ele><time>2026-07-21T11:36:56.000Z</time></trkpt>
        <trkpt lat="29.534359" lon="103.333119"><ele>2550.003</ele><time>2026-07-21T11:37:02.000Z</time></trkpt>
        <trkpt lat="29.534347" lon="103.33313"><ele>2549.4045</ele><time>2026-07-21T11:37:04.000Z</time></trkpt>
        <trkpt lat="29.534336" lon="103.333137"><ele>2549.247</ele><time>2026-07-21T11:37:06.000Z</time></trkpt>
        <trkpt lat="29.534325" lon="103.333143"><ele>2549.1726</ele><time>2026-07-21T11:37:08.000Z</time></trkpt>
        <trkpt lat="29.534318" lon="103.333144"><ele>2549.4282</ele><time>2026-07-21T11:37:10.000Z</time></trkpt>
        <trkpt lat="29.534306" lon="103.333136"><ele>2552.2043</ele><time>2026-07-21T11:37:18.000Z</time></trkpt>
        <trkpt lat="29.534297" lon="103.333124"><ele>2551.6057</ele><time>2026-07-21T11:37:22.000Z</time></trkpt>
        <trkpt lat="29.534287" lon="103.33311"><ele>2551.319</ele><time>2026-07-21T11:37:24.000Z</time></trkpt>
        <trkpt lat="29.534286" lon="103.33311"><ele>2551.3394</ele><time>2026-07-21T11:37:26.000Z</time></trkpt>
        <trkpt lat="29.534272" lon="103.333102"><ele>2552.3987</ele><time>2026-07-21T11:37:53.000Z</time></trkpt>
        <trkpt lat="29.534257" lon="103.333094"><ele>2551.2651</ele><time>2026-07-21T11:38:31.000Z</time></trkpt>
        <trkpt lat="29.534255" lon="103.333093"><ele>2551.2559</ele><time>2026-07-21T11:38:33.000Z</time></trkpt>
        <trkpt lat="29.534242" lon="103.333093"><ele>2552.7327</ele><time>2026-07-21T11:38:37.000Z</time></trkpt>
        <trkpt lat="29.534227" lon="103.3331"><ele>2552.1978</ele><time>2026-07-21T11:38:41.000Z</time></trkpt>
        <trkpt lat="29.53421" lon="103.333108"><ele>2552.5676</ele><time>2026-07-21T11:38:43.000Z</time></trkpt>
        <trkpt lat="29.534209" lon="103.333108"><ele>2553.2822</ele><time>2026-07-21T11:38:45.000Z</time></trkpt>
        <trkpt lat="29.534189" lon="103.333112"><ele>2555.0024</ele><time>2026-07-21T11:38:51.000Z</time></trkpt>
        <trkpt lat="29.534175" lon="103.333113"><ele>2555.0671</ele><time>2026-07-21T11:38:53.000Z</time></trkpt>
        <trkpt lat="29.53416" lon="103.333115"><ele>2555.5151</ele><time>2026-07-21T11:38:55.000Z</time></trkpt>
        <trkpt lat="29.534147" lon="103.333119"><ele>2556.2773</ele><time>2026-07-21T11:38:57.000Z</time></trkpt>
        <trkpt lat="29.534138" lon="103.333125"><ele>2557.1023</ele><time>2026-07-21T11:38:59.000Z</time></trkpt>
        <trkpt lat="29.534129" lon="103.333129"><ele>2558.082</ele><time>2026-07-21T11:39:01.000Z</time></trkpt>
        <trkpt lat="29.534114" lon="103.333139"><ele>2560.2625</ele><time>2026-07-21T11:39:05.000Z</time></trkpt>
        <trkpt lat="29.534112" lon="103.333143"><ele>2561.2808</ele><time>2026-07-21T11:39:07.000Z</time></trkpt>
        <trkpt lat="29.534101" lon="103.333155"><ele>2561.8694</ele><time>2026-07-21T11:39:11.000Z</time></trkpt>
        <trkpt lat="29.534082" lon="103.333175"><ele>2561.485</ele><time>2026-07-21T11:39:15.000Z</time></trkpt>
        <trkpt lat="29.534082" lon="103.333175"><ele>2561.447</ele><time>2026-07-21T11:39:17.000Z</time></trkpt>
        <trkpt lat="29.534072" lon="103.333177"><ele>2563.2036</ele><time>2026-07-21T11:39:21.000Z</time></trkpt>
        <trkpt lat="29.534041" lon="103.333182"><ele>2563.6208</ele><time>2026-07-21T11:39:25.000Z</time></trkpt>
        <trkpt lat="29.534025" lon="103.333183"><ele>2563.1118</ele><time>2026-07-21T11:39:27.000Z</time></trkpt>
        <trkpt lat="29.534009" lon="103.333186"><ele>2563.2073</ele><time>2026-07-21T11:39:29.000Z</time></trkpt>
        <trkpt lat="29.534" lon="103.333186"><ele>2562.945</ele><time>2026-07-21T11:39:31.000Z</time></trkpt>
        <trkpt lat="29.533997" lon="103.333188"><ele>2563.6824</ele><time>2026-07-21T11:39:33.000Z</time></trkpt>
        <trkpt lat="29.533977" lon="103.333203"><ele>2566.5598</ele><time>2026-07-21T11:39:53.000Z</time></trkpt>
        <trkpt lat="29.53397" lon="103.333206"><ele>2566.459</ele><time>2026-07-21T11:39:55.000Z</time></trkpt>
        <trkpt lat="29.533966" lon="103.333207"><ele>2566.4314</ele><time>2026-07-21T11:39:57.000Z</time></trkpt>
        <trkpt lat="29.53394" lon="103.3332"><ele>2568.1926</ele><time>2026-07-21T11:40:15.000Z</time></trkpt>
        <trkpt lat="29.533929" lon="103.3332"><ele>2568.3342</ele><time>2026-07-21T11:40:30.000Z</time></trkpt>
        <trkpt lat="29.533918" lon="103.333197"><ele>2568.0479</ele><time>2026-07-21T11:40:45.000Z</time></trkpt>
        <trkpt lat="29.533909" lon="103.333193"><ele>2567.8257</ele><time>2026-07-21T11:41:59.000Z</time></trkpt>
        <trkpt lat="29.53389" lon="103.333183"><ele>2568.5007</ele><time>2026-07-21T11:42:01.000Z</time></trkpt>
        <trkpt lat="29.533889" lon="103.333182"><ele>2568.9558</ele><time>2026-07-21T11:42:03.000Z</time></trkpt>
        <trkpt lat="29.533881" lon="103.333175"><ele>2569.3374</ele><time>2026-07-21T11:42:09.000Z</time></trkpt>
        <trkpt lat="29.533864" lon="103.33316"><ele>2570.9893</ele><time>2026-07-21T11:42:40.000Z</time></trkpt>
        <trkpt lat="29.533814" lon="103.333117"><ele>2573.2742</ele><time>2026-07-21T11:42:55.000Z</time></trkpt>
        <trkpt lat="29.533763" lon="103.333061"><ele>2573.7986</ele><time>2026-07-21T11:43:10.000Z</time></trkpt>
        <trkpt lat="29.533753" lon="103.333054"><ele>2577.6748</ele><time>2026-07-21T11:43:19.000Z</time></trkpt>
        <trkpt lat="29.533735" lon="103.333042"><ele>2577.5674</ele><time>2026-07-21T11:43:21.000Z</time></trkpt>
        <trkpt lat="29.533734" lon="103.333041"><ele>2577.999</ele><time>2026-07-21T11:43:23.000Z</time></trkpt>
        <trkpt lat="29.533724" lon="103.333037"><ele>2575.8577</ele><time>2026-07-21T11:43:31.000Z</time></trkpt>
        <trkpt lat="29.533705" lon="103.333033"><ele>2574.4429</ele><time>2026-07-21T11:43:39.000Z</time></trkpt>
        <trkpt lat="29.533701" lon="103.333032"><ele>2574.4421</ele><time>2026-07-21T11:43:41.000Z</time></trkpt>
        <trkpt lat="29.533699" lon="103.333027"><ele>2574.199</ele><time>2026-07-21T11:43:49.000Z</time></trkpt>
        <trkpt lat="29.533674" lon="103.332993"><ele>2581.2583</ele><time>2026-07-21T11:44:31.000Z</time></trkpt>
        <trkpt lat="29.533618" lon="103.33294"><ele>2581.898</ele><time>2026-07-21T11:44:46.000Z</time></trkpt>
        <trkpt lat="29.533576" lon="103.3329"><ele>2584.347</ele><time>2026-07-21T11:45:01.000Z</time></trkpt>
        <trkpt lat="29.533535" lon="103.332864"><ele>2587.8564</ele><time>2026-07-21T11:45:16.000Z</time></trkpt>
        <trkpt lat="29.533499" lon="103.33283"><ele>2588.3132</ele><time>2026-07-21T11:45:31.000Z</time></trkpt>
        <trkpt lat="29.533467" lon="103.332802"><ele>2589.1333</ele><time>2026-07-21T11:45:41.000Z</time></trkpt>
        <trkpt lat="29.533457" lon="103.332794"><ele>2589.233</ele><time>2026-07-21T11:45:43.000Z</time></trkpt>
        <trkpt lat="29.533456" lon="103.332794"><ele>2589.066</ele><time>2026-07-21T11:45:45.000Z</time></trkpt>
        <trkpt lat="29.53344" lon="103.332781"><ele>2588.2932</ele><time>2026-07-21T11:45:57.000Z</time></trkpt>
        <trkpt lat="29.533428" lon="103.332772"><ele>2587.5854</ele><time>2026-07-21T11:46:32.000Z</time></trkpt>
        <trkpt lat="29.533428" lon="103.332771"><ele>2588.7476</ele><time>2026-07-21T11:46:34.000Z</time></trkpt>
        <trkpt lat="29.533416" lon="103.332761"><ele>2589.3264</ele><time>2026-07-21T11:46:38.000Z</time></trkpt>
        <trkpt lat="29.533392" lon="103.332741"><ele>2589.9473</ele><time>2026-07-21T11:46:42.000Z</time></trkpt>
        <trkpt lat="29.533392" lon="103.332741"><ele>2590.3696</ele><time>2026-07-21T11:46:44.000Z</time></trkpt>
        <trkpt lat="29.533391" lon="103.33274"><ele>2591.4866</ele><time>2026-07-21T11:46:46.000Z</time></trkpt>
        <trkpt lat="29.533363" lon="103.332725"><ele>2593.6929</ele><time>2026-07-21T11:46:54.000Z</time></trkpt>
        <trkpt lat="29.533355" lon="103.332722"><ele>2593.7874</ele><time>2026-07-21T11:46:56.000Z</time></trkpt>
        <trkpt lat="29.533349" lon="103.332718"><ele>2593.9258</ele><time>2026-07-21T11:46:58.000Z</time></trkpt>
        <trkpt lat="29.533335" lon="103.332712"><ele>2594.515</ele><time>2026-07-21T11:47:12.000Z</time></trkpt>
        <trkpt lat="29.53333" lon="103.332705"><ele>2594.8394</ele><time>2026-07-21T11:48:01.000Z</time></trkpt>
        <trkpt lat="29.533324" lon="103.332697"><ele>2595.0742</ele><time>2026-07-21T11:48:15.000Z</time></trkpt>
        <trkpt lat="29.533309" lon="103.332679"><ele>2598.0706</ele><time>2026-07-21T11:48:25.000Z</time></trkpt>
        <trkpt lat="29.533309" lon="103.332679"><ele>2598.908</ele><time>2026-07-21T11:48:27.000Z</time></trkpt>
        <trkpt lat="29.533294" lon="103.332674"><ele>2599.303</ele><time>2026-07-21T11:48:35.000Z</time></trkpt>
        <trkpt lat="29.533282" lon="103.332663"><ele>2599.4946</ele><time>2026-07-21T11:48:39.000Z</time></trkpt>
        <trkpt lat="29.53327" lon="103.332653"><ele>2599.0479</ele><time>2026-07-21T11:48:41.000Z</time></trkpt>
        <trkpt lat="29.53327" lon="103.332652"><ele>2600.388</ele><time>2026-07-21T11:48:43.000Z</time></trkpt>
        <trkpt lat="29.533256" lon="103.332637"><ele>2601.8076</ele><time>2026-07-21T11:48:51.000Z</time></trkpt>
        <trkpt lat="29.533244" lon="103.332623"><ele>2601.481</ele><time>2026-07-21T11:48:53.000Z</time></trkpt>
        <trkpt lat="29.533243" lon="103.332622"><ele>2602.197</ele><time>2026-07-21T11:48:55.000Z</time></trkpt>
        <trkpt lat="29.533233" lon="103.33261"><ele>2603.1445</ele><time>2026-07-21T11:49:01.000Z</time></trkpt>
        <trkpt lat="29.533213" lon="103.332584"><ele>2603.9238</ele><time>2026-07-21T11:49:05.000Z</time></trkpt>
        <trkpt lat="29.533213" lon="103.332584"><ele>2604.0725</ele><time>2026-07-21T11:49:07.000Z</time></trkpt>
        <trkpt lat="29.533213" lon="103.332584"><ele>2603.9448</ele><time>2026-07-21T11:49:09.000Z</time></trkpt>
        <trkpt lat="29.533183" lon="103.332593"><ele>2601.4832</ele><time>2026-07-21T11:49:23.000Z</time></trkpt>
        <trkpt lat="29.53318" lon="103.332596"><ele>2601.6155</ele><time>2026-07-21T11:49:25.000Z</time></trkpt>
        <trkpt lat="29.53318" lon="103.332597"><ele>2602.01</ele><time>2026-07-21T11:49:27.000Z</time></trkpt>
        <trkpt lat="29.533169" lon="103.332555"><ele>2607.1401</ele><time>2026-07-21T11:50:25.000Z</time></trkpt>
        <trkpt lat="29.533165" lon="103.332549"><ele>2607.6501</ele><time>2026-07-21T11:50:27.000Z</time></trkpt>
        <trkpt lat="29.533151" lon="103.33253"><ele>2607.8115</ele><time>2026-07-21T11:50:29.000Z</time></trkpt>
        <trkpt lat="29.533148" lon="103.332529"><ele>2606.6565</ele><time>2026-07-21T11:50:33.000Z</time></trkpt>
        <trkpt lat="29.53314" lon="103.332524"><ele>2607.402</ele><time>2026-07-21T11:50:35.000Z</time></trkpt>
        <trkpt lat="29.533107" lon="103.332505"><ele>2606.8647</ele><time>2026-07-21T11:50:39.000Z</time></trkpt>
        <trkpt lat="29.533089" lon="103.332493"><ele>2606.3452</ele><time>2026-07-21T11:50:41.000Z</time></trkpt>
        <trkpt lat="29.533076" lon="103.332482"><ele>2607.4292</ele><time>2026-07-21T11:50:43.000Z</time></trkpt>
        <trkpt lat="29.533067" lon="103.332474"><ele>2607.4575</ele><time>2026-07-21T11:50:45.000Z</time></trkpt>
        <trkpt lat="29.533057" lon="103.332463"><ele>2606.912</ele><time>2026-07-21T11:50:47.000Z</time></trkpt>
        <trkpt lat="29.533048" lon="103.332455"><ele>2606.6648</ele><time>2026-07-21T11:50:49.000Z</time></trkpt>
        <trkpt lat="29.53304" lon="103.332446"><ele>2606.9763</ele><time>2026-07-21T11:50:51.000Z</time></trkpt>
        <trkpt lat="29.533032" lon="103.332438"><ele>2607.1575</ele><time>2026-07-21T11:50:53.000Z</time></trkpt>
        <trkpt lat="29.533021" lon="103.332427"><ele>2608.9363</ele><time>2026-07-21T11:50:57.000Z</time></trkpt>
        <trkpt lat="29.533017" lon="103.332421"><ele>2609.7375</ele><time>2026-07-21T11:50:59.000Z</time></trkpt>
        <trkpt lat="29.533011" lon="103.332414"><ele>2609.512</ele><time>2026-07-21T11:51:01.000Z</time></trkpt>
        <trkpt lat="29.532997" lon="103.332396"><ele>2609.6716</ele><time>2026-07-21T11:51:05.000Z</time></trkpt>
        <trkpt lat="29.532989" lon="103.332388"><ele>2609.7644</ele><time>2026-07-21T11:51:07.000Z</time></trkpt>
        <trkpt lat="29.532981" lon="103.33238"><ele>2610.5898</ele><time>2026-07-21T11:51:09.000Z</time></trkpt>
        <trkpt lat="29.532973" lon="103.332372"><ele>2611.2996</ele><time>2026-07-21T11:51:11.000Z</time></trkpt>
        <trkpt lat="29.532965" lon="103.332365"><ele>2611.7805</ele><time>2026-07-21T11:51:13.000Z</time></trkpt>
        <trkpt lat="29.532955" lon="103.332356"><ele>2613.029</ele><time>2026-07-21T11:51:17.000Z</time></trkpt>
        <trkpt lat="29.53295" lon="103.332349"><ele>2612.844</ele><time>2026-07-21T11:51:19.000Z</time></trkpt>
        <trkpt lat="29.532937" lon="103.332341"><ele>2613.0964</ele><time>2026-07-21T11:51:23.000Z</time></trkpt>
        <trkpt lat="29.532922" lon="103.332331"><ele>2614.4246</ele><time>2026-07-21T11:51:25.000Z</time></trkpt>
        <trkpt lat="29.532922" lon="103.332331"><ele>2614.5498</ele><time>2026-07-21T11:51:27.000Z</time></trkpt>
        <trkpt lat="29.532917" lon="103.332308"><ele>2614.686</ele><time>2026-07-21T11:51:37.000Z</time></trkpt>
        <trkpt lat="29.532912" lon="103.332299"><ele>2613.9346</ele><time>2026-07-21T11:51:49.000Z</time></trkpt>
        <trkpt lat="29.53291" lon="103.332296"><ele>2614.3826</ele><time>2026-07-21T11:51:51.000Z</time></trkpt>
        <trkpt lat="29.532898" lon="103.332276"><ele>2615.8086</ele><time>2026-07-21T11:51:57.000Z</time></trkpt>
        <trkpt lat="29.532893" lon="103.332271"><ele>2615.8787</ele><time>2026-07-21T11:51:59.000Z</time></trkpt>
        <trkpt lat="29.53289" lon="103.332267"><ele>2616.367</ele><time>2026-07-21T11:52:01.000Z</time></trkpt>
        <trkpt lat="29.532875" lon="103.332252"><ele>2616.5076</ele><time>2026-07-21T11:52:05.000Z</time></trkpt>
        <trkpt lat="29.53287" lon="103.332246"><ele>2616.5964</ele><time>2026-07-21T11:52:07.000Z</time></trkpt>
        <trkpt lat="29.532866" lon="103.332239"><ele>2617.8433</ele><time>2026-07-21T11:52:09.000Z</time></trkpt>
        <trkpt lat="29.532857" lon="103.332224"><ele>2619.049</ele><time>2026-07-21T11:52:13.000Z</time></trkpt>
        <trkpt lat="29.532851" lon="103.33222"><ele>2619.7717</ele><time>2026-07-21T11:52:15.000Z</time></trkpt>
        <trkpt lat="29.532844" lon="103.332206"><ele>2620.2542</ele><time>2026-07-21T11:52:17.000Z</time></trkpt>
        <trkpt lat="29.532835" lon="103.332191"><ele>2621.0752</ele><time>2026-07-21T11:52:25.000Z</time></trkpt>
        <trkpt lat="29.532823" lon="103.332169"><ele>2621.0867</ele><time>2026-07-21T11:52:27.000Z</time></trkpt>
        <trkpt lat="29.532822" lon="103.332168"><ele>2619.7102</ele><time>2026-07-21T11:52:29.000Z</time></trkpt>
        <trkpt lat="29.532815" lon="103.332157"><ele>2621.4426</ele><time>2026-07-21T11:52:33.000Z</time></trkpt>
        <trkpt lat="29.532804" lon="103.332142"><ele>2621.7173</ele><time>2026-07-21T11:52:35.000Z</time></trkpt>
        <trkpt lat="29.53279" lon="103.332128"><ele>2622.0781</ele><time>2026-07-21T11:52:37.000Z</time></trkpt>
        <trkpt lat="29.532777" lon="103.332115"><ele>2622.2373</ele><time>2026-07-21T11:52:39.000Z</time></trkpt>
        <trkpt lat="29.532767" lon="103.332107"><ele>2621.691</ele><time>2026-07-21T11:52:41.000Z</time></trkpt>
        <trkpt lat="29.532761" lon="103.332099"><ele>2621.8677</ele><time>2026-07-21T11:52:43.000Z</time></trkpt>
        <trkpt lat="29.532757" lon="103.33209"><ele>2622.795</ele><time>2026-07-21T11:52:45.000Z</time></trkpt>
        <trkpt lat="29.53275" lon="103.332072"><ele>2623.7007</ele><time>2026-07-21T11:52:49.000Z</time></trkpt>
        <trkpt lat="29.532748" lon="103.332065"><ele>2622.7375</ele><time>2026-07-21T11:52:51.000Z</time></trkpt>
        <trkpt lat="29.532742" lon="103.332051"><ele>2623.126</ele><time>2026-07-21T11:52:53.000Z</time></trkpt>
        <trkpt lat="29.532733" lon="103.332046"><ele>2624.2432</ele><time>2026-07-21T11:53:03.000Z</time></trkpt>
        <trkpt lat="29.532724" lon="103.332045"><ele>2623.943</ele><time>2026-07-21T11:53:09.000Z</time></trkpt>
        <trkpt lat="29.532717" lon="103.33205"><ele>2621.2554</ele><time>2026-07-21T11:53:23.000Z</time></trkpt>
        <trkpt lat="29.532761" lon="103.332022"><ele>2620.534</ele><time>2026-07-21T11:55:43.000Z</time></trkpt>
        <trkpt lat="29.532758" lon="103.332025"><ele>2620.6438</ele><time>2026-07-21T11:55:58.000Z</time></trkpt>
        <trkpt lat="29.532758" lon="103.332025"><ele>2620.6438</ele><time>2026-07-21T11:56:13.000Z</time></trkpt>
        <trkpt lat="29.532744" lon="103.331991"><ele>2621.9358</ele><time>2026-07-21T11:59:00.000Z</time></trkpt>
        <trkpt lat="29.532729" lon="103.332013"><ele>2627.3418</ele><time>2026-07-21T12:01:42.000Z</time></trkpt>
        <trkpt lat="29.532727" lon="103.332018"><ele>2627.2224</ele><time>2026-07-21T12:01:44.000Z</time></trkpt>
        <trkpt lat="29.532726" lon="103.332018"><ele>2627.5955</ele><time>2026-07-21T12:01:46.000Z</time></trkpt>
        <trkpt lat="29.532669" lon="103.331996"><ele>2629.5537</ele><time>2026-07-21T12:02:15.000Z</time></trkpt>
        <trkpt lat="29.532641" lon="103.331972"><ele>2628.8647</ele><time>2026-07-21T12:02:30.000Z</time></trkpt>
        <trkpt lat="29.532601" lon="103.33193"><ele>2628.301</ele><time>2026-07-21T12:02:45.000Z</time></trkpt>
        <trkpt lat="29.532602" lon="103.331929"><ele>2630.834</ele><time>2026-07-21T12:03:00.000Z</time></trkpt>
        <trkpt lat="29.532598" lon="103.331903"><ele>2634.1707</ele><time>2026-07-21T12:03:16.000Z</time></trkpt>
        <trkpt lat="29.532594" lon="103.331883"><ele>2634.0325</ele><time>2026-07-21T12:03:19.000Z</time></trkpt>
        <trkpt lat="29.532594" lon="103.331883"><ele>2634.1748</ele><time>2026-07-21T12:03:21.000Z</time></trkpt>
        <trkpt lat="29.532594" lon="103.331868"><ele>2636.091</ele><time>2026-07-21T12:03:29.000Z</time></trkpt>
        <trkpt lat="29.532594" lon="103.331841"><ele>2637.7327</ele><time>2026-07-21T12:03:35.000Z</time></trkpt>
        <trkpt lat="29.532594" lon="103.331836"><ele>2637.781</ele><time>2026-07-21T12:03:37.000Z</time></trkpt>
        <trkpt lat="29.532593" lon="103.331827"><ele>2639.0867</ele><time>2026-07-21T12:03:39.000Z</time></trkpt>
        <trkpt lat="29.53259" lon="103.331805"><ele>2639.7397</ele><time>2026-07-21T12:03:45.000Z</time></trkpt>
        <trkpt lat="29.532588" lon="103.3318"><ele>2639.671</ele><time>2026-07-21T12:03:47.000Z</time></trkpt>
        <trkpt lat="29.532583" lon="103.331794"><ele>2639.558</ele><time>2026-07-21T12:03:51.000Z</time></trkpt>
        <trkpt lat="29.532572" lon="103.331773"><ele>2641.2886</ele><time>2026-07-21T12:04:07.000Z</time></trkpt>
        <trkpt lat="29.532569" lon="103.331765"><ele>2641.4998</ele><time>2026-07-21T12:04:09.000Z</time></trkpt>
        <trkpt lat="29.532565" lon="103.331749"><ele>2641.5142</ele><time>2026-07-21T12:04:11.000Z</time></trkpt>
        <trkpt lat="29.532543" lon="103.331706"><ele>2641.6448</ele><time>2026-07-21T12:04:28.000Z</time></trkpt>
        <trkpt lat="29.532533" lon="103.33167"><ele>2643.1797</ele><time>2026-07-21T12:04:43.000Z</time></trkpt>
        <trkpt lat="29.532511" lon="103.331633"><ele>2648.729</ele><time>2026-07-21T12:04:58.000Z</time></trkpt>
        <trkpt lat="29.532502" lon="103.331618"><ele>2648.056</ele><time>2026-07-21T12:05:00.000Z</time></trkpt>
        <trkpt lat="29.532501" lon="103.331618"><ele>2647.7454</ele><time>2026-07-21T12:05:02.000Z</time></trkpt>
        <trkpt lat="29.532485" lon="103.331605"><ele>2647.3457</ele><time>2026-07-21T12:05:18.000Z</time></trkpt>
        <trkpt lat="29.532476" lon="103.331596"><ele>2648.2344</ele><time>2026-07-21T12:05:22.000Z</time></trkpt>
        <trkpt lat="29.532473" lon="103.331594"><ele>2648.35</ele><time>2026-07-21T12:05:24.000Z</time></trkpt>
        <trkpt lat="29.532465" lon="103.331579"><ele>2650.0154</ele><time>2026-07-21T12:05:30.000Z</time></trkpt>
        <trkpt lat="29.532441" lon="103.331524"><ele>2649.177</ele><time>2026-07-21T12:05:45.000Z</time></trkpt>
        <trkpt lat="29.532437" lon="103.331523"><ele>2649.4329</ele><time>2026-07-21T12:06:00.000Z</time></trkpt>
        <trkpt lat="29.532425" lon="103.331519"><ele>2647.8901</ele><time>2026-07-21T12:06:15.000Z</time></trkpt>
        <trkpt lat="29.532413" lon="103.331509"><ele>2652.6865</ele><time>2026-07-21T12:07:15.000Z</time></trkpt>
        <trkpt lat="29.532407" lon="103.331501"><ele>2649.0964</ele><time>2026-07-21T12:07:24.000Z</time></trkpt>
        <trkpt lat="29.532407" lon="103.331497"><ele>2649.2097</ele><time>2026-07-21T12:07:26.000Z</time></trkpt>
        <trkpt lat="29.532412" lon="103.331472"><ele>2651.1206</ele><time>2026-07-21T12:07:34.000Z</time></trkpt>
        <trkpt lat="29.532414" lon="103.331463"><ele>2651.8027</ele><time>2026-07-21T12:07:36.000Z</time></trkpt>
        <trkpt lat="29.532414" lon="103.331454"><ele>2652.0005</ele><time>2026-07-21T12:07:38.000Z</time></trkpt>
        <trkpt lat="29.532414" lon="103.331437"><ele>2652.7273</ele><time>2026-07-21T12:07:42.000Z</time></trkpt>
        <trkpt lat="29.532413" lon="103.331427"><ele>2653.2021</ele><time>2026-07-21T12:07:44.000Z</time></trkpt>
        <trkpt lat="29.532412" lon="103.331415"><ele>2653.3718</ele><time>2026-07-21T12:07:46.000Z</time></trkpt>
        <trkpt lat="29.532409" lon="103.331404"><ele>2653.2207</ele><time>2026-07-21T12:07:48.000Z</time></trkpt>
        <trkpt lat="29.532407" lon="103.331392"><ele>2653.3635</ele><time>2026-07-21T12:07:50.000Z</time></trkpt>
        <trkpt lat="29.532405" lon="103.331379"><ele>2653.6287</ele><time>2026-07-21T12:07:52.000Z</time></trkpt>
        <trkpt lat="29.532405" lon="103.331367"><ele>2654.3972</ele><time>2026-07-21T12:07:54.000Z</time></trkpt>
        <trkpt lat="29.532404" lon="103.331357"><ele>2654.781</ele><time>2026-07-21T12:07:56.000Z</time></trkpt>
        <trkpt lat="29.5324" lon="103.331343"><ele>2654.8513</ele><time>2026-07-21T12:08:02.000Z</time></trkpt>
        <trkpt lat="29.532395" lon="103.331334"><ele>2655.5627</ele><time>2026-07-21T12:08:06.000Z</time></trkpt>
        <trkpt lat="29.532388" lon="103.331322"><ele>2656.0002</ele><time>2026-07-21T12:08:10.000Z</time></trkpt>
        <trkpt lat="29.532382" lon="103.331308"><ele>2656.148</ele><time>2026-07-21T12:08:14.000Z</time></trkpt>
        <trkpt lat="29.532364" lon="103.331281"><ele>2658.8682</ele><time>2026-07-21T12:08:24.000Z</time></trkpt>
        <trkpt lat="29.532355" lon="103.331268"><ele>2658.4053</ele><time>2026-07-21T12:08:26.000Z</time></trkpt>
        <trkpt lat="29.532354" lon="103.331267"><ele>2658.305</ele><time>2026-07-21T12:08:28.000Z</time></trkpt>
        <trkpt lat="29.532344" lon="103.331253"><ele>2658.1296</ele><time>2026-07-21T12:08:34.000Z</time></trkpt>
        <trkpt lat="29.532335" lon="103.331241"><ele>2658.303</ele><time>2026-07-21T12:08:36.000Z</time></trkpt>
        <trkpt lat="29.532328" lon="103.331228"><ele>2658.355</ele><time>2026-07-21T12:08:38.000Z</time></trkpt>
        <trkpt lat="29.532322" lon="103.331215"><ele>2657.6367</ele><time>2026-07-21T12:08:40.000Z</time></trkpt>
        <trkpt lat="29.532318" lon="103.331202"><ele>2657.617</ele><time>2026-07-21T12:08:42.000Z</time></trkpt>
        <trkpt lat="29.53232" lon="103.331198"><ele>2658.586</ele><time>2026-07-21T12:08:44.000Z</time></trkpt>
        <trkpt lat="29.532283" lon="103.331233"><ele>2664.9097</ele><time>2026-07-21T12:09:37.000Z</time></trkpt>
        <trkpt lat="29.53224" lon="103.331273"><ele>2666.0044</ele><time>2026-07-21T12:09:48.000Z</time></trkpt>
        <trkpt lat="29.53224" lon="103.331273"><ele>2665.9067</ele><time>2026-07-21T12:09:50.000Z</time></trkpt>
        <trkpt lat="29.532209" lon="103.331308"><ele>2665.762</ele><time>2026-07-21T12:09:52.000Z</time></trkpt>
        <trkpt lat="29.532207" lon="103.331311"><ele>2666.2742</ele><time>2026-07-21T12:09:54.000Z</time></trkpt>
        <trkpt lat="29.532207" lon="103.331312"><ele>2665.9844</ele><time>2026-07-21T12:09:56.000Z</time></trkpt>
        <trkpt lat="29.532202" lon="103.331347"><ele>2666.916</ele><time>2026-07-21T12:10:02.000Z</time></trkpt>
        <trkpt lat="29.532201" lon="103.331359"><ele>2666.5376</ele><time>2026-07-21T12:10:04.000Z</time></trkpt>
        <trkpt lat="29.532199" lon="103.331372"><ele>2667.3206</ele><time>2026-07-21T12:10:06.000Z</time></trkpt>
        <trkpt lat="29.532197" lon="103.331384"><ele>2668.023</ele><time>2026-07-21T12:10:08.000Z</time></trkpt>
        <trkpt lat="29.532195" lon="103.331392"><ele>2668.7385</ele><time>2026-07-21T12:10:10.000Z</time></trkpt>
        <trkpt lat="29.532189" lon="103.331409"><ele>2667.686</ele><time>2026-07-21T12:10:14.000Z</time></trkpt>
        <trkpt lat="29.532191" lon="103.331411"><ele>2667.6987</ele><time>2026-07-21T12:10:16.000Z</time></trkpt>
        <trkpt lat="29.532173" lon="103.331371"><ele>2667.5151</ele><time>2026-07-21T12:10:38.000Z</time></trkpt>
        <trkpt lat="29.532166" lon="103.331355"><ele>2667.908</ele><time>2026-07-21T12:10:40.000Z</time></trkpt>
        <trkpt lat="29.532166" lon="103.331353"><ele>2668.5112</ele><time>2026-07-21T12:10:42.000Z</time></trkpt>
        <trkpt lat="29.532158" lon="103.331262"><ele>2673.1345</ele><time>2026-07-21T12:10:59.000Z</time></trkpt>
        <trkpt lat="29.532147" lon="103.331205"><ele>2672.8193</ele><time>2026-07-21T12:11:14.000Z</time></trkpt>
        <trkpt lat="29.532143" lon="103.331193"><ele>2673.1562</ele><time>2026-07-21T12:11:29.000Z</time></trkpt>
        <trkpt lat="29.532146" lon="103.331182"><ele>2674.209</ele><time>2026-07-21T12:11:45.000Z</time></trkpt>
        <trkpt lat="29.532147" lon="103.33116"><ele>2676.9548</ele><time>2026-07-21T12:12:15.000Z</time></trkpt>
        <trkpt lat="29.532148" lon="103.331156"><ele>2676.549</ele><time>2026-07-21T12:12:30.000Z</time></trkpt>
        <trkpt lat="29.532157" lon="103.331136"><ele>2678.089</ele><time>2026-07-21T12:13:24.000Z</time></trkpt>
        <trkpt lat="29.532165" lon="103.331119"><ele>2678.0713</ele><time>2026-07-21T12:13:26.000Z</time></trkpt>
        <trkpt lat="29.532165" lon="103.331118"><ele>2678.042</ele><time>2026-07-21T12:13:28.000Z</time></trkpt>
        <trkpt lat="29.532162" lon="103.3311"><ele>2678.317</ele><time>2026-07-21T12:13:34.000Z</time></trkpt>
        <trkpt lat="29.532159" lon="103.331083"><ele>2678.3965</ele><time>2026-07-21T12:13:36.000Z</time></trkpt>
        <trkpt lat="29.532159" lon="103.33107"><ele>2678.306</ele><time>2026-07-21T12:13:38.000Z</time></trkpt>
        <trkpt lat="29.53216" lon="103.331058"><ele>2678.787</ele><time>2026-07-21T12:13:40.000Z</time></trkpt>
        <trkpt lat="29.532162" lon="103.331048"><ele>2679.3025</ele><time>2026-07-21T12:13:42.000Z</time></trkpt>
        <trkpt lat="29.532163" lon="103.331023"><ele>2679.3252</ele><time>2026-07-21T12:13:46.000Z</time></trkpt>
        <trkpt lat="29.532165" lon="103.331009"><ele>2678.815</ele><time>2026-07-21T12:13:48.000Z</time></trkpt>
        <trkpt lat="29.532167" lon="103.330998"><ele>2679.2856</ele><time>2026-07-21T12:13:50.000Z</time></trkpt>
        <trkpt lat="29.53217" lon="103.330984"><ele>2679.942</ele><time>2026-07-21T12:13:52.000Z</time></trkpt>
        <trkpt lat="29.532172" lon="103.330971"><ele>2679.4153</ele><time>2026-07-21T12:13:54.000Z</time></trkpt>
        <trkpt lat="29.532173" lon="103.330958"><ele>2679.4497</ele><time>2026-07-21T12:13:56.000Z</time></trkpt>
        <trkpt lat="29.532173" lon="103.330942"><ele>2679.3394</ele><time>2026-07-21T12:13:58.000Z</time></trkpt>
        <trkpt lat="29.532172" lon="103.33093"><ele>2679.949</ele><time>2026-07-21T12:14:00.000Z</time></trkpt>
        <trkpt lat="29.532171" lon="103.330914"><ele>2680.4067</ele><time>2026-07-21T12:14:02.000Z</time></trkpt>
        <trkpt lat="29.532173" lon="103.330898"><ele>2680.4558</ele><time>2026-07-21T12:14:04.000Z</time></trkpt>
        <trkpt lat="29.532175" lon="103.330884"><ele>2680.8767</ele><time>2026-07-21T12:14:06.000Z</time></trkpt>
        <trkpt lat="29.532178" lon="103.330867"><ele>2681.6575</ele><time>2026-07-21T12:14:08.000Z</time></trkpt>
        <trkpt lat="29.53218" lon="103.330851"><ele>2681.8965</ele><time>2026-07-21T12:14:10.000Z</time></trkpt>
        <trkpt lat="29.532182" lon="103.330833"><ele>2681.5388</ele><time>2026-07-21T12:14:12.000Z</time></trkpt>
        <trkpt lat="29.532184" lon="103.330819"><ele>2681.9685</ele><time>2026-07-21T12:14:14.000Z</time></trkpt>
        <trkpt lat="29.532185" lon="103.330805"><ele>2682.09</ele><time>2026-07-21T12:14:16.000Z</time></trkpt>
        <trkpt lat="29.532185" lon="103.330791"><ele>2680.914</ele><time>2026-07-21T12:14:18.000Z</time></trkpt>
        <trkpt lat="29.532183" lon="103.330775"><ele>2681.2473</ele><time>2026-07-21T12:14:20.000Z</time></trkpt>
        <trkpt lat="29.532179" lon="103.330759"><ele>2680.5007</ele><time>2026-07-21T12:14:22.000Z</time></trkpt>
        <trkpt lat="29.532177" lon="103.330744"><ele>2680.6145</ele><time>2026-07-21T12:14:24.000Z</time></trkpt>
        <trkpt lat="29.532172" lon="103.330729"><ele>2680.4768</ele><time>2026-07-21T12:14:26.000Z</time></trkpt>
        <trkpt lat="29.532169" lon="103.330713"><ele>2680.8906</ele><time>2026-07-21T12:14:28.000Z</time></trkpt>
        <trkpt lat="29.532166" lon="103.330697"><ele>2680.912</ele><time>2026-07-21T12:14:30.000Z</time></trkpt>
        <trkpt lat="29.532167" lon="103.330683"><ele>2681.6055</ele><time>2026-07-21T12:14:32.000Z</time></trkpt>
        <trkpt lat="29.532166" lon="103.330668"><ele>2682.3809</ele><time>2026-07-21T12:14:34.000Z</time></trkpt>
        <trkpt lat="29.532165" lon="103.330654"><ele>2682.0496</ele><time>2026-07-21T12:14:36.000Z</time></trkpt>
        <trkpt lat="29.532164" lon="103.330641"><ele>2681.5173</ele><time>2026-07-21T12:14:38.000Z</time></trkpt>
        <trkpt lat="29.532165" lon="103.330633"><ele>2681.9216</ele><time>2026-07-21T12:14:40.000Z</time></trkpt>
        <trkpt lat="29.532165" lon="103.330613"><ele>2682.6782</ele><time>2026-07-21T12:14:44.000Z</time></trkpt>
        <trkpt lat="29.532164" lon="103.330593"><ele>2682.445</ele><time>2026-07-21T12:14:46.000Z</time></trkpt>
        <trkpt lat="29.532164" lon="103.330591"><ele>2682.7927</ele><time>2026-07-21T12:14:48.000Z</time></trkpt>
        <trkpt lat="29.532164" lon="103.330566"><ele>2682.652</ele><time>2026-07-21T12:14:56.000Z</time></trkpt>
        <trkpt lat="29.532165" lon="103.330547"><ele>2682.9104</ele><time>2026-07-21T12:14:58.000Z</time></trkpt>
        <trkpt lat="29.532165" lon="103.330545"><ele>2683.1313</ele><time>2026-07-21T12:15:00.000Z</time></trkpt>
        <trkpt lat="29.53217" lon="103.330529"><ele>2684.6157</ele><time>2026-07-21T12:15:14.000Z</time></trkpt>
        <trkpt lat="29.532175" lon="103.330514"><ele>2685.021</ele><time>2026-07-21T12:15:18.000Z</time></trkpt>
        <trkpt lat="29.53218" lon="103.330493"><ele>2685.8105</ele><time>2026-07-21T12:15:20.000Z</time></trkpt>
        <trkpt lat="29.53218" lon="103.330491"><ele>2685.9622</ele><time>2026-07-21T12:15:22.000Z</time></trkpt>
        <trkpt lat="29.532178" lon="103.330478"><ele>2686.3496</ele><time>2026-07-21T12:15:30.000Z</time></trkpt>
        <trkpt lat="29.532172" lon="103.330456"><ele>2687.6392</ele><time>2026-07-21T12:15:36.000Z</time></trkpt>
        <trkpt lat="29.53217" lon="103.330454"><ele>2687.6392</ele><time>2026-07-21T12:15:38.000Z</time></trkpt>
        <trkpt lat="29.532162" lon="103.330448"><ele>2688.365</ele><time>2026-07-21T12:15:48.000Z</time></trkpt>
        <trkpt lat="29.532145" lon="103.330439"><ele>2689.2527</ele><time>2026-07-21T12:15:58.000Z</time></trkpt>
        <trkpt lat="29.532141" lon="103.330439"><ele>2689.636</ele><time>2026-07-21T12:16:00.000Z</time></trkpt>
        <trkpt lat="29.53211" lon="103.330441"><ele>2688.6338</ele><time>2026-07-21T12:16:03.000Z</time></trkpt>
        <trkpt lat="29.53211" lon="103.330441"><ele>2688.5566</ele><time>2026-07-21T12:16:05.000Z</time></trkpt>
        <trkpt lat="29.53211" lon="103.330441"><ele>2689.0781</ele><time>2026-07-21T12:16:07.000Z</time></trkpt>
        <trkpt lat="29.532096" lon="103.330404"><ele>2691.877</ele><time>2026-07-21T12:16:52.000Z</time></trkpt>
        <trkpt lat="29.532096" lon="103.330397"><ele>2692.3604</ele><time>2026-07-21T12:16:54.000Z</time></trkpt>
        <trkpt lat="29.532098" lon="103.33039"><ele>2692.7202</ele><time>2026-07-21T12:16:56.000Z</time></trkpt>
        <trkpt lat="29.532108" lon="103.330367"><ele>2693.556</ele><time>2026-07-21T12:17:00.000Z</time></trkpt>
        <trkpt lat="29.532108" lon="103.330363"><ele>2694.6946</ele><time>2026-07-21T12:17:06.000Z</time></trkpt>
        <trkpt lat="29.532111" lon="103.330355"><ele>2694.4663</ele><time>2026-07-21T12:17:08.000Z</time></trkpt>
        <trkpt lat="29.532139" lon="103.330276"><ele>2696.238</ele><time>2026-07-21T12:17:25.000Z</time></trkpt>
        <trkpt lat="29.53218" lon="103.330261"><ele>2695.5457</ele><time>2026-07-21T12:17:40.000Z</time></trkpt>
        <trkpt lat="29.532165" lon="103.330215"><ele>2694.0615</ele><time>2026-07-21T12:17:54.000Z</time></trkpt>
        <trkpt lat="29.532163" lon="103.330213"><ele>2694.5237</ele><time>2026-07-21T12:17:56.000Z</time></trkpt>
        <trkpt lat="29.532163" lon="103.330212"><ele>2694.8179</ele><time>2026-07-21T12:17:58.000Z</time></trkpt>
        <trkpt lat="29.532174" lon="103.330271"><ele>2695.5396</ele><time>2026-07-21T12:18:39.000Z</time></trkpt>
        <trkpt lat="29.532182" lon="103.330286"><ele>2693.4453</ele><time>2026-07-21T12:18:54.000Z</time></trkpt>
        <trkpt lat="29.532182" lon="103.330279"><ele>2694.6282</ele><time>2026-07-21T12:19:09.000Z</time></trkpt>
        <trkpt lat="29.532181" lon="103.330235"><ele>2699.5332</ele><time>2026-07-21T12:24:48.000Z</time></trkpt>
        <trkpt lat="29.532181" lon="103.33023"><ele>2699.0667</ele><time>2026-07-21T12:24:50.000Z</time></trkpt>
        <trkpt lat="29.532182" lon="103.33023"><ele>2700.3284</ele><time>2026-07-21T12:24:52.000Z</time></trkpt>
        <trkpt lat="29.532138" lon="103.330229"><ele>2698.8843</ele><time>2026-07-21T12:24:58.000Z</time></trkpt>
        <trkpt lat="29.532138" lon="103.330229"><ele>2699.0352</ele><time>2026-07-21T12:25:00.000Z</time></trkpt>
        <trkpt lat="29.532137" lon="103.330229"><ele>2699.0317</ele><time>2026-07-21T12:25:02.000Z</time></trkpt>
        <trkpt lat="29.532101" lon="103.33023"><ele>2700.7175</ele><time>2026-07-21T12:25:12.000Z</time></trkpt>
        <trkpt lat="29.532098" lon="103.33023"><ele>2701.1196</ele><time>2026-07-21T12:25:14.000Z</time></trkpt>
        <trkpt lat="29.532096" lon="103.330231"><ele>2701.0078</ele><time>2026-07-21T12:25:16.000Z</time></trkpt>
        <trkpt lat="29.532052" lon="103.330232"><ele>2704.888</ele><time>2026-07-21T12:25:51.000Z</time></trkpt>
        <trkpt lat="29.532024" lon="103.330233"><ele>2708.6172</ele><time>2026-07-21T12:26:06.000Z</time></trkpt>
        <trkpt lat="29.53198" lon="103.330236"><ele>2711.8564</ele><time>2026-07-21T12:26:22.000Z</time></trkpt>
        <trkpt lat="29.531975" lon="103.330237"><ele>2712.3865</ele><time>2026-07-21T12:26:25.000Z</time></trkpt>
        <trkpt lat="29.531975" lon="103.330237"><ele>2712.4236</ele><time>2026-07-21T12:26:27.000Z</time></trkpt>
        <trkpt lat="29.531927" lon="103.330233"><ele>2710.568</ele><time>2026-07-21T12:26:29.000Z</time></trkpt>
        <trkpt lat="29.531923" lon="103.330233"><ele>2710.7542</ele><time>2026-07-21T12:26:31.000Z</time></trkpt>
        <trkpt lat="29.531923" lon="103.330233"><ele>2711.4106</ele><time>2026-07-21T12:26:33.000Z</time></trkpt>
        <trkpt lat="29.531895" lon="103.330235"><ele>2713.0676</ele><time>2026-07-21T12:26:57.000Z</time></trkpt>
        <trkpt lat="29.53189" lon="103.330235"><ele>2712.735</ele><time>2026-07-21T12:26:59.000Z</time></trkpt>
        <trkpt lat="29.531853" lon="103.330234"><ele>2711.598</ele><time>2026-07-21T12:27:13.000Z</time></trkpt>
        <trkpt lat="29.531853" lon="103.330234"><ele>2712.5056</ele><time>2026-07-21T12:27:15.000Z</time></trkpt>
        <trkpt lat="29.531853" lon="103.330234"><ele>2714.0925</ele><time>2026-07-21T12:27:17.000Z</time></trkpt>
        <trkpt lat="29.53186" lon="103.330197"><ele>2717.3386</ele><time>2026-07-21T12:27:27.000Z</time></trkpt>
        <trkpt lat="29.531861" lon="103.330189"><ele>2717.8906</ele><time>2026-07-21T12:27:29.000Z</time></trkpt>
        <trkpt lat="29.531858" lon="103.330183"><ele>2719.0713</ele><time>2026-07-21T12:27:31.000Z</time></trkpt>
        <trkpt lat="29.531845" lon="103.330169"><ele>2720.0222</ele><time>2026-07-21T12:27:37.000Z</time></trkpt>
        <trkpt lat="29.531832" lon="103.330157"><ele>2720.2954</ele><time>2026-07-21T12:27:39.000Z</time></trkpt>
        <trkpt lat="29.531831" lon="103.330156"><ele>2720.2336</ele><time>2026-07-21T12:27:41.000Z</time></trkpt>
        <trkpt lat="29.531811" lon="103.330136"><ele>2720.4185</ele><time>2026-07-21T12:27:47.000Z</time></trkpt>
        <trkpt lat="29.531795" lon="103.330122"><ele>2721.426</ele><time>2026-07-21T12:27:49.000Z</time></trkpt>
        <trkpt lat="29.531783" lon="103.330112"><ele>2722.3958</ele><time>2026-07-21T12:27:51.000Z</time></trkpt>
        <trkpt lat="29.531774" lon="103.330103"><ele>2722.5496</ele><time>2026-07-21T12:27:53.000Z</time></trkpt>
        <trkpt lat="29.531771" lon="103.330098"><ele>2723.1921</ele><time>2026-07-21T12:27:55.000Z</time></trkpt>
        <trkpt lat="29.531758" lon="103.330081"><ele>2724.2842</ele><time>2026-07-21T12:28:17.000Z</time></trkpt>
        <trkpt lat="29.531749" lon="103.330069"><ele>2724.3423</ele><time>2026-07-21T12:28:19.000Z</time></trkpt>
        <trkpt lat="29.531748" lon="103.330069"><ele>2724.5647</ele><time>2026-07-21T12:28:21.000Z</time></trkpt>
        <trkpt lat="29.531734" lon="103.330059"><ele>2725.7869</ele><time>2026-07-21T12:28:29.000Z</time></trkpt>
        <trkpt lat="29.53171" lon="103.330043"><ele>2725.4597</ele><time>2026-07-21T12:28:33.000Z</time></trkpt>
        <trkpt lat="29.53171" lon="103.330043"><ele>2726.2034</ele><time>2026-07-21T12:28:35.000Z</time></trkpt>
        <trkpt lat="29.531705" lon="103.330041"><ele>2727.1216</ele><time>2026-07-21T12:28:39.000Z</time></trkpt>
        <trkpt lat="29.53168" lon="103.330032"><ele>2727.4844</ele><time>2026-07-21T12:28:45.000Z</time></trkpt>
        <trkpt lat="29.531673" lon="103.330029"><ele>2728.007</ele><time>2026-07-21T12:28:47.000Z</time></trkpt>
        <trkpt lat="29.531666" lon="103.330027"><ele>2728.3174</ele><time>2026-07-21T12:28:49.000Z</time></trkpt>
        <trkpt lat="29.531649" lon="103.330022"><ele>2728.5112</ele><time>2026-07-21T12:28:53.000Z</time></trkpt>
        <trkpt lat="29.531644" lon="103.330019"><ele>2728.814</ele><time>2026-07-21T12:28:55.000Z</time></trkpt>
        <trkpt lat="29.531616" lon="103.329999"><ele>2730.7559</ele><time>2026-07-21T12:29:16.000Z</time></trkpt>
        <trkpt lat="29.531586" lon="103.329978"><ele>2733.2612</ele><time>2026-07-21T12:29:28.000Z</time></trkpt>
        <trkpt lat="29.531583" lon="103.329978"><ele>2733.5464</ele><time>2026-07-21T12:29:30.000Z</time></trkpt>
        <trkpt lat="29.531568" lon="103.329976"><ele>2733.8015</ele><time>2026-07-21T12:29:32.000Z</time></trkpt>
        <trkpt lat="29.531555" lon="103.329972"><ele>2735.0325</ele><time>2026-07-21T12:29:54.000Z</time></trkpt>
        <trkpt lat="29.53154" lon="103.329966"><ele>2734.769</ele><time>2026-07-21T12:29:56.000Z</time></trkpt>
        <trkpt lat="29.531538" lon="103.329966"><ele>2734.8245</ele><time>2026-07-21T12:29:58.000Z</time></trkpt>
        <trkpt lat="29.531522" lon="103.329957"><ele>2736.142</ele><time>2026-07-21T12:30:04.000Z</time></trkpt>
        <trkpt lat="29.531503" lon="103.329947"><ele>2736.7534</ele><time>2026-07-21T12:30:08.000Z</time></trkpt>
        <trkpt lat="29.531503" lon="103.329947"><ele>2736.6826</ele><time>2026-07-21T12:30:10.000Z</time></trkpt>
        <trkpt lat="29.531497" lon="103.329939"><ele>2738.2449</ele><time>2026-07-21T12:30:16.000Z</time></trkpt>
        <trkpt lat="29.531481" lon="103.329923"><ele>2739.449</ele><time>2026-07-21T12:30:22.000Z</time></trkpt>
        <trkpt lat="29.531468" lon="103.329911"><ele>2739.4844</ele><time>2026-07-21T12:30:24.000Z</time></trkpt>
        <trkpt lat="29.531468" lon="103.32991"><ele>2739.5972</ele><time>2026-07-21T12:30:26.000Z</time></trkpt>
        <trkpt lat="29.531439" lon="103.329882"><ele>2745.089</ele><time>2026-07-21T12:31:04.000Z</time></trkpt>
        <trkpt lat="29.531408" lon="103.329851"><ele>2747.4736</ele><time>2026-07-21T12:31:16.000Z</time></trkpt>
        <trkpt lat="29.531428" lon="103.329849"><ele>2747.886</ele><time>2026-07-21T12:31:18.000Z</time></trkpt>
        <trkpt lat="29.531424" lon="103.329847"><ele>2748.7363</ele><time>2026-07-21T12:31:24.000Z</time></trkpt>
        <trkpt lat="29.531378" lon="103.329823"><ele>2750.252</ele><time>2026-07-21T12:31:32.000Z</time></trkpt>
        <trkpt lat="29.531378" lon="103.329823"><ele>2750.1602</ele><time>2026-07-21T12:31:34.000Z</time></trkpt>
        <trkpt lat="29.531377" lon="103.329822"><ele>2750.0166</ele><time>2026-07-21T12:31:36.000Z</time></trkpt>
        <trkpt lat="29.531339" lon="103.329801"><ele>2751.0503</ele><time>2026-07-21T12:31:42.000Z</time></trkpt>
        <trkpt lat="29.531331" lon="103.329795"><ele>2750.9277</ele><time>2026-07-21T12:31:44.000Z</time></trkpt>
        <trkpt lat="29.53133" lon="103.329796"><ele>2751.4553</ele><time>2026-07-21T12:31:46.000Z</time></trkpt>
        <trkpt lat="29.531354" lon="103.329766"><ele>2752.9194</ele><time>2026-07-21T12:32:00.000Z</time></trkpt>
        <trkpt lat="29.531355" lon="103.329764"><ele>2752.6833</ele><time>2026-07-21T12:32:02.000Z</time></trkpt>
        <trkpt lat="29.531356" lon="103.329764"><ele>2752.6833</ele><time>2026-07-21T12:32:04.000Z</time></trkpt>
        <trkpt lat="29.531321" lon="103.329766"><ele>2749.9133</ele><time>2026-07-21T12:41:24.000Z</time></trkpt>
        <trkpt lat="29.531317" lon="103.329767"><ele>2750.2278</ele><time>2026-07-21T12:41:26.000Z</time></trkpt>
        <trkpt lat="29.531316" lon="103.329766"><ele>2750.2278</ele><time>2026-07-21T12:41:28.000Z</time></trkpt>
        <trkpt lat="29.531298" lon="103.329742"><ele>2758.138</ele><time>2026-07-21T12:41:47.000Z</time></trkpt>
        <trkpt lat="29.53128" lon="103.329719"><ele>2756.9778</ele><time>2026-07-21T12:41:49.000Z</time></trkpt>
        <trkpt lat="29.531279" lon="103.329717"><ele>2756.0828</ele><time>2026-07-21T12:41:51.000Z</time></trkpt>
        <trkpt lat="29.531277" lon="103.329715"><ele>2756.9717</ele><time>2026-07-21T12:41:55.000Z</time></trkpt>
        <trkpt lat="29.53126" lon="103.32969"><ele>2758.3577</ele><time>2026-07-21T12:42:07.000Z</time></trkpt>
        <trkpt lat="29.531259" lon="103.329689"><ele>2758.3423</ele><time>2026-07-21T12:42:09.000Z</time></trkpt>
        <trkpt lat="29.531254" lon="103.329686"><ele>2758.5024</ele><time>2026-07-21T12:42:11.000Z</time></trkpt>
        <trkpt lat="29.531232" lon="103.32967"><ele>2760.945</ele><time>2026-07-21T12:42:21.000Z</time></trkpt>
        <trkpt lat="29.531228" lon="103.329665"><ele>2761.3042</ele><time>2026-07-21T12:42:23.000Z</time></trkpt>
        <trkpt lat="29.531227" lon="103.329661"><ele>2762.3496</ele><time>2026-07-21T12:42:25.000Z</time></trkpt>
        <trkpt lat="29.531222" lon="103.32963"><ele>2763.6543</ele><time>2026-07-21T12:42:33.000Z</time></trkpt>
        <trkpt lat="29.531222" lon="103.329623"><ele>2763.893</ele><time>2026-07-21T12:42:35.000Z</time></trkpt>
        <trkpt lat="29.531221" lon="103.329617"><ele>2765.2844</ele><time>2026-07-21T12:42:37.000Z</time></trkpt>
        <trkpt lat="29.531216" lon="103.329594"><ele>2764.6191</ele><time>2026-07-21T12:42:45.000Z</time></trkpt>
        <trkpt lat="29.531214" lon="103.329587"><ele>2764.196</ele><time>2026-07-21T12:42:49.000Z</time></trkpt>
        <trkpt lat="29.531213" lon="103.329584"><ele>2764.0398</ele><time>2026-07-21T12:42:51.000Z</time></trkpt>
        <trkpt lat="29.531199" lon="103.329562"><ele>2765.9365</ele><time>2026-07-21T12:43:03.000Z</time></trkpt>
        <trkpt lat="29.531196" lon="103.329558"><ele>2766.9502</ele><time>2026-07-21T12:43:05.000Z</time></trkpt>
        <trkpt lat="29.531192" lon="103.329552"><ele>2767.2314</ele><time>2026-07-21T12:43:07.000Z</time></trkpt>
        <trkpt lat="29.531179" lon="103.329533"><ele>2769.5576</ele><time>2026-07-21T12:43:13.000Z</time></trkpt>
        <trkpt lat="29.531177" lon="103.329527"><ele>2770.1345</ele><time>2026-07-21T12:43:15.000Z</time></trkpt>
        <trkpt lat="29.531175" lon="103.329519"><ele>2770.7217</ele><time>2026-07-21T12:43:17.000Z</time></trkpt>
        <trkpt lat="29.531171" lon="103.329495"><ele>2772.6467</ele><time>2026-07-21T12:43:23.000Z</time></trkpt>
        <trkpt lat="29.531168" lon="103.329476"><ele>2772.925</ele><time>2026-07-21T12:43:25.000Z</time></trkpt>
        <trkpt lat="29.531168" lon="103.329474"><ele>2773.12</ele><time>2026-07-21T12:43:27.000Z</time></trkpt>
        <trkpt lat="29.531161" lon="103.329452"><ele>2772.3591</ele><time>2026-07-21T12:43:33.000Z</time></trkpt>
        <trkpt lat="29.531157" lon="103.329439"><ele>2773.2583</ele><time>2026-07-21T12:43:35.000Z</time></trkpt>
        <trkpt lat="29.531152" lon="103.329424"><ele>2772.399</ele><time>2026-07-21T12:43:37.000Z</time></trkpt>
        <trkpt lat="29.531147" lon="103.329409"><ele>2771.525</ele><time>2026-07-21T12:43:39.000Z</time></trkpt>
        <trkpt lat="29.531144" lon="103.329398"><ele>2771.8367</ele><time>2026-07-21T12:43:41.000Z</time></trkpt>
        <trkpt lat="29.531142" lon="103.329387"><ele>2772.3242</ele><time>2026-07-21T12:43:43.000Z</time></trkpt>
        <trkpt lat="29.531141" lon="103.329375"><ele>2772.571</ele><time>2026-07-21T12:43:45.000Z</time></trkpt>
        <trkpt lat="29.531139" lon="103.329357"><ele>2773.9414</ele><time>2026-07-21T12:43:49.000Z</time></trkpt>
        <trkpt lat="29.531136" lon="103.329351"><ele>2773.539</ele><time>2026-07-21T12:43:51.000Z</time></trkpt>
        <trkpt lat="29.531129" lon="103.329336"><ele>2773.1262</ele><time>2026-07-21T12:43:55.000Z</time></trkpt>
        <trkpt lat="29.531113" lon="103.329302"><ele>2773.2988</ele><time>2026-07-21T12:43:59.000Z</time></trkpt>
        <trkpt lat="29.531113" lon="103.329302"><ele>2773.5552</ele><time>2026-07-21T12:44:01.000Z</time></trkpt>
        <trkpt lat="29.531114" lon="103.3293"><ele>2774.0608</ele><time>2026-07-21T12:44:03.000Z</time></trkpt>
        <trkpt lat="29.531123" lon="103.329258"><ele>2774.2444</ele><time>2026-07-21T12:44:09.000Z</time></trkpt>
        <trkpt lat="29.531125" lon="103.329245"><ele>2775.1987</ele><time>2026-07-21T12:44:11.000Z</time></trkpt>
        <trkpt lat="29.531126" lon="103.329229"><ele>2775.7666</ele><time>2026-07-21T12:44:13.000Z</time></trkpt>
        <trkpt lat="29.531127" lon="103.329211"><ele>2775.9841</ele><time>2026-07-21T12:44:15.000Z</time></trkpt>
        <trkpt lat="29.531128" lon="103.329193"><ele>2776.3074</ele><time>2026-07-21T12:44:17.000Z</time></trkpt>
        <trkpt lat="29.531129" lon="103.329175"><ele>2775.9697</ele><time>2026-07-21T12:44:19.000Z</time></trkpt>
        <trkpt lat="29.531129" lon="103.329156"><ele>2775.9944</ele><time>2026-07-21T12:44:21.000Z</time></trkpt>
        <trkpt lat="29.531128" lon="103.329137"><ele>2775.5125</ele><time>2026-07-21T12:44:23.000Z</time></trkpt>
        <trkpt lat="29.531124" lon="103.329117"><ele>2776.4473</ele><time>2026-07-21T12:44:25.000Z</time></trkpt>
        <trkpt lat="29.53112" lon="103.329098"><ele>2776.6113</ele><time>2026-07-21T12:44:27.000Z</time></trkpt>
        <trkpt lat="29.531117" lon="103.329082"><ele>2776.1177</ele><time>2026-07-21T12:44:29.000Z</time></trkpt>
        <trkpt lat="29.531113" lon="103.32907"><ele>2776.1528</ele><time>2026-07-21T12:44:31.000Z</time></trkpt>
        <trkpt lat="29.53111" lon="103.32907"><ele>2776.399</ele><time>2026-07-21T12:44:33.000Z</time></trkpt>
        <trkpt lat="29.531098" lon="103.329054"><ele>2775.3652</ele><time>2026-07-21T12:44:47.000Z</time></trkpt>
        <trkpt lat="29.531096" lon="103.329042"><ele>2777.698</ele><time>2026-07-21T12:45:25.000Z</time></trkpt>
        <trkpt lat="29.531092" lon="103.329025"><ele>2777.62</ele><time>2026-07-21T12:45:27.000Z</time></trkpt>
        <trkpt lat="29.531092" lon="103.329018"><ele>2778.4084</ele><time>2026-07-21T12:45:33.000Z</time></trkpt>
        <trkpt lat="29.531091" lon="103.328992"><ele>2778.6646</ele><time>2026-07-21T12:45:35.000Z</time></trkpt>
        <trkpt lat="29.531091" lon="103.32899"><ele>2778.8394</ele><time>2026-07-21T12:45:37.000Z</time></trkpt>
        <trkpt lat="29.531092" lon="103.328982"><ele>2779.868</ele><time>2026-07-21T12:45:41.000Z</time></trkpt>
        <trkpt lat="29.531094" lon="103.32894"><ele>2780.3147</ele><time>2026-07-21T12:45:45.000Z</time></trkpt>
        <trkpt lat="29.531094" lon="103.32894"><ele>2780.9705</ele><time>2026-07-21T12:45:47.000Z</time></trkpt>
        <trkpt lat="29.531094" lon="103.328939"><ele>2781.6182</ele><time>2026-07-21T12:45:49.000Z</time></trkpt>
        <trkpt lat="29.531094" lon="103.328888"><ele>2781.6448</ele><time>2026-07-21T12:45:55.000Z</time></trkpt>
        <trkpt lat="29.531095" lon="103.328868"><ele>2781.9326</ele><time>2026-07-21T12:45:57.000Z</time></trkpt>
        <trkpt lat="29.531097" lon="103.328848"><ele>2781.5798</ele><time>2026-07-21T12:45:59.000Z</time></trkpt>
        <trkpt lat="29.531099" lon="103.328829"><ele>2781.243</ele><time>2026-07-21T12:46:01.000Z</time></trkpt>
        <trkpt lat="29.531103" lon="103.328813"><ele>2781.8433</ele><time>2026-07-21T12:46:03.000Z</time></trkpt>
        <trkpt lat="29.531107" lon="103.328799"><ele>2781.903</ele><time>2026-07-21T12:46:05.000Z</time></trkpt>
        <trkpt lat="29.531112" lon="103.32879"><ele>2782.8245</ele><time>2026-07-21T12:46:07.000Z</time></trkpt>
        <trkpt lat="29.531117" lon="103.328777"><ele>2783.8438</ele><time>2026-07-21T12:46:11.000Z</time></trkpt>
        <trkpt lat="29.53112" lon="103.328764"><ele>2783.3398</ele><time>2026-07-21T12:46:15.000Z</time></trkpt>
        <trkpt lat="29.531121" lon="103.328756"><ele>2783.323</ele><time>2026-07-21T12:46:17.000Z</time></trkpt>
        <trkpt lat="29.531123" lon="103.32874"><ele>2783.8364</ele><time>2026-07-21T12:46:21.000Z</time></trkpt>
        <trkpt lat="29.531127" lon="103.328728"><ele>2784.7769</ele><time>2026-07-21T12:46:25.000Z</time></trkpt>
        <trkpt lat="29.53113" lon="103.328717"><ele>2785.1724</ele><time>2026-07-21T12:46:29.000Z</time></trkpt>
        <trkpt lat="29.531133" lon="103.3287"><ele>2785.3015</ele><time>2026-07-21T12:46:31.000Z</time></trkpt>
        <trkpt lat="29.531135" lon="103.328688"><ele>2785.1245</ele><time>2026-07-21T12:46:37.000Z</time></trkpt>
        <trkpt lat="29.531135" lon="103.328673"><ele>2784.889</ele><time>2026-07-21T12:46:39.000Z</time></trkpt>
        <trkpt lat="29.531136" lon="103.328658"><ele>2784.898</ele><time>2026-07-21T12:46:41.000Z</time></trkpt>
        <trkpt lat="29.531138" lon="103.328642"><ele>2784.664</ele><time>2026-07-21T12:46:43.000Z</time></trkpt>
        <trkpt lat="29.531141" lon="103.328631"><ele>2786.2139</ele><time>2026-07-21T12:46:45.000Z</time></trkpt>
        <trkpt lat="29.531145" lon="103.328619"><ele>2786.2927</ele><time>2026-07-21T12:46:47.000Z</time></trkpt>
        <trkpt lat="29.531149" lon="103.328602"><ele>2786.057</ele><time>2026-07-21T12:46:49.000Z</time></trkpt>
        <trkpt lat="29.531152" lon="103.32859"><ele>2786.0142</ele><time>2026-07-21T12:46:51.000Z</time></trkpt>
        <trkpt lat="29.531156" lon="103.328578"><ele>2786.8782</ele><time>2026-07-21T12:46:53.000Z</time></trkpt>
        <trkpt lat="29.531159" lon="103.328567"><ele>2787.424</ele><time>2026-07-21T12:46:55.000Z</time></trkpt>
        <trkpt lat="29.531165" lon="103.328548"><ele>2788.5144</ele><time>2026-07-21T12:46:59.000Z</time></trkpt>
        <trkpt lat="29.53117" lon="103.328536"><ele>2788.6118</ele><time>2026-07-21T12:47:01.000Z</time></trkpt>
        <trkpt lat="29.531177" lon="103.328523"><ele>2789.286</ele><time>2026-07-21T12:47:03.000Z</time></trkpt>
        <trkpt lat="29.531181" lon="103.328512"><ele>2789.0588</ele><time>2026-07-21T12:47:05.000Z</time></trkpt>
        <trkpt lat="29.531186" lon="103.3285"><ele>2789.0732</ele><time>2026-07-21T12:47:07.000Z</time></trkpt>
        <trkpt lat="29.531191" lon="103.328488"><ele>2789.4226</ele><time>2026-07-21T12:47:09.000Z</time></trkpt>
        <trkpt lat="29.531196" lon="103.328476"><ele>2788.6677</ele><time>2026-07-21T12:47:11.000Z</time></trkpt>
        <trkpt lat="29.531201" lon="103.328463"><ele>2789.4421</ele><time>2026-07-21T12:47:13.000Z</time></trkpt>
        <trkpt lat="29.531206" lon="103.328449"><ele>2789.0857</ele><time>2026-07-21T12:47:15.000Z</time></trkpt>
        <trkpt lat="29.53121" lon="103.328434"><ele>2788.8303</ele><time>2026-07-21T12:47:17.000Z</time></trkpt>
        <trkpt lat="29.531213" lon="103.328419"><ele>2789.1213</ele><time>2026-07-21T12:47:19.000Z</time></trkpt>
        <trkpt lat="29.531216" lon="103.328403"><ele>2789.7622</ele><time>2026-07-21T12:47:21.000Z</time></trkpt>
        <trkpt lat="29.531218" lon="103.328386"><ele>2789.726</ele><time>2026-07-21T12:47:23.000Z</time></trkpt>
        <trkpt lat="29.53122" lon="103.328369"><ele>2790.3145</ele><time>2026-07-21T12:47:25.000Z</time></trkpt>
        <trkpt lat="29.531225" lon="103.328348"><ele>2789.5056</ele><time>2026-07-21T12:47:27.000Z</time></trkpt>
        <trkpt lat="29.531229" lon="103.328329"><ele>2789.7188</ele><time>2026-07-21T12:47:29.000Z</time></trkpt>
        <trkpt lat="29.531235" lon="103.328309"><ele>2790.0793</ele><time>2026-07-21T12:47:31.000Z</time></trkpt>
        <trkpt lat="29.53124" lon="103.328289"><ele>2791.0464</ele><time>2026-07-21T12:47:33.000Z</time></trkpt>
        <trkpt lat="29.531243" lon="103.328272"><ele>2791.2026</ele><time>2026-07-21T12:47:35.000Z</time></trkpt>
        <trkpt lat="29.531247" lon="103.328258"><ele>2791.8855</ele><time>2026-07-21T12:47:37.000Z</time></trkpt>
        <trkpt lat="29.531249" lon="103.328246"><ele>2791.7622</ele><time>2026-07-21T12:47:39.000Z</time></trkpt>
        <trkpt lat="29.531251" lon="103.328235"><ele>2792.1584</ele><time>2026-07-21T12:47:41.000Z</time></trkpt>
        <trkpt lat="29.531253" lon="103.328221"><ele>2791.8953</ele><time>2026-07-21T12:47:43.000Z</time></trkpt>
        <trkpt lat="29.531255" lon="103.328204"><ele>2792.1003</ele><time>2026-07-21T12:47:45.000Z</time></trkpt>
        <trkpt lat="29.531255" lon="103.328188"><ele>2792.6357</ele><time>2026-07-21T12:47:47.000Z</time></trkpt>
        <trkpt lat="29.531254" lon="103.328173"><ele>2792.7502</ele><time>2026-07-21T12:47:49.000Z</time></trkpt>
        <trkpt lat="29.531254" lon="103.328156"><ele>2793.2239</ele><time>2026-07-21T12:47:51.000Z</time></trkpt>
        <trkpt lat="29.531255" lon="103.328137"><ele>2792.7097</ele><time>2026-07-21T12:47:53.000Z</time></trkpt>
        <trkpt lat="29.531256" lon="103.32812"><ele>2792.1482</ele><time>2026-07-21T12:47:55.000Z</time></trkpt>
        <trkpt lat="29.531257" lon="103.328105"><ele>2792.4954</ele><time>2026-07-21T12:47:57.000Z</time></trkpt>
        <trkpt lat="29.531257" lon="103.328092"><ele>2792.9934</ele><time>2026-07-21T12:47:59.000Z</time></trkpt>
        <trkpt lat="29.531257" lon="103.328077"><ele>2792.6423</ele><time>2026-07-21T12:48:01.000Z</time></trkpt>
        <trkpt lat="29.531257" lon="103.328061"><ele>2792.7205</ele><time>2026-07-21T12:48:03.000Z</time></trkpt>
        <trkpt lat="29.531256" lon="103.328048"><ele>2792.9456</ele><time>2026-07-21T12:48:05.000Z</time></trkpt>
        <trkpt lat="29.531257" lon="103.328033"><ele>2793.3523</ele><time>2026-07-21T12:48:07.000Z</time></trkpt>
        <trkpt lat="29.531259" lon="103.328018"><ele>2793.6643</ele><time>2026-07-21T12:48:09.000Z</time></trkpt>
        <trkpt lat="29.531262" lon="103.328003"><ele>2794.4714</ele><time>2026-07-21T12:48:11.000Z</time></trkpt>
        <trkpt lat="29.531262" lon="103.32799"><ele>2795.358</ele><time>2026-07-21T12:48:13.000Z</time></trkpt>
        <trkpt lat="29.531261" lon="103.327975"><ele>2794.5608</ele><time>2026-07-21T12:48:15.000Z</time></trkpt>
        <trkpt lat="29.531259" lon="103.32796"><ele>2793.8252</ele><time>2026-07-21T12:48:17.000Z</time></trkpt>
        <trkpt lat="29.531257" lon="103.327944"><ele>2794.838</ele><time>2026-07-21T12:48:19.000Z</time></trkpt>
        <trkpt lat="29.531255" lon="103.32793"><ele>2794.5156</ele><time>2026-07-21T12:48:21.000Z</time></trkpt>
        <trkpt lat="29.531253" lon="103.327918"><ele>2795.2954</ele><time>2026-07-21T12:48:23.000Z</time></trkpt>
        <trkpt lat="29.531254" lon="103.327908"><ele>2795.5598</ele><time>2026-07-21T12:48:25.000Z</time></trkpt>
        <trkpt lat="29.531253" lon="103.327886"><ele>2797.3784</ele><time>2026-07-21T12:48:29.000Z</time></trkpt>
        <trkpt lat="29.531252" lon="103.327879"><ele>2797.7158</ele><time>2026-07-21T12:48:31.000Z</time></trkpt>
        <trkpt lat="29.531248" lon="103.327873"><ele>2797.7856</ele><time>2026-07-21T12:48:33.000Z</time></trkpt>
        <trkpt lat="29.53124" lon="103.327847"><ele>2799.765</ele><time>2026-07-21T12:48:41.000Z</time></trkpt>
        <trkpt lat="29.531232" lon="103.327822"><ele>2798.8735</ele><time>2026-07-21T12:48:43.000Z</time></trkpt>
        <trkpt lat="29.531232" lon="103.327821"><ele>2798.991</ele><time>2026-07-21T12:48:45.000Z</time></trkpt>
        <trkpt lat="29.531231" lon="103.327812"><ele>2800.0134</ele><time>2026-07-21T12:48:49.000Z</time></trkpt>
        <trkpt lat="29.531231" lon="103.327776"><ele>2800.4944</ele><time>2026-07-21T12:48:53.000Z</time></trkpt>
        <trkpt lat="29.531231" lon="103.327755"><ele>2800.6213</ele><time>2026-07-21T12:48:55.000Z</time></trkpt>
        <trkpt lat="29.53123" lon="103.327735"><ele>2800.2583</ele><time>2026-07-21T12:48:57.000Z</time></trkpt>
        <trkpt lat="29.53123" lon="103.327716"><ele>2800.501</ele><time>2026-07-21T12:48:59.000Z</time></trkpt>
        <trkpt lat="29.53123" lon="103.3277"><ele>2801.6099</ele><time>2026-07-21T12:49:01.000Z</time></trkpt>
        <trkpt lat="29.531231" lon="103.327688"><ele>2801.7627</ele><time>2026-07-21T12:49:03.000Z</time></trkpt>
        <trkpt lat="29.531231" lon="103.327674"><ele>2802.2498</ele><time>2026-07-21T12:49:05.000Z</time></trkpt>
        <trkpt lat="29.531232" lon="103.327662"><ele>2802.3442</ele><time>2026-07-21T12:49:07.000Z</time></trkpt>
        <trkpt lat="29.531232" lon="103.327653"><ele>2803.063</ele><time>2026-07-21T12:49:09.000Z</time></trkpt>
        <trkpt lat="29.531234" lon="103.327633"><ele>2803.781</ele><time>2026-07-21T12:49:13.000Z</time></trkpt>
        <trkpt lat="29.531233" lon="103.327626"><ele>2802.8796</ele><time>2026-07-21T12:49:15.000Z</time></trkpt>
        <trkpt lat="29.531234" lon="103.327618"><ele>2802.5906</ele><time>2026-07-21T12:49:23.000Z</time></trkpt>
        <trkpt lat="29.53124" lon="103.327599"><ele>2802.9932</ele><time>2026-07-21T12:49:52.000Z</time></trkpt>
        <trkpt lat="29.531245" lon="103.327583"><ele>2804.2668</ele><time>2026-07-21T12:49:54.000Z</time></trkpt>
        <trkpt lat="29.531245" lon="103.327582"><ele>2805.2747</ele><time>2026-07-21T12:49:56.000Z</time></trkpt>
        <trkpt lat="29.531243" lon="103.327565"><ele>2808.0078</ele><time>2026-07-21T12:50:02.000Z</time></trkpt>
        <trkpt lat="29.531239" lon="103.327527"><ele>2808.8083</ele><time>2026-07-21T12:50:06.000Z</time></trkpt>
        <trkpt lat="29.531239" lon="103.327527"><ele>2809.2417</ele><time>2026-07-21T12:50:08.000Z</time></trkpt>
        <trkpt lat="29.531239" lon="103.327524"><ele>2808.9412</ele><time>2026-07-21T12:50:10.000Z</time></trkpt>
        <trkpt lat="29.531236" lon="103.327483"><ele>2811.5317</ele><time>2026-07-21T12:50:16.000Z</time></trkpt>
        <trkpt lat="29.531236" lon="103.327472"><ele>2811.9602</ele><time>2026-07-21T12:50:18.000Z</time></trkpt>
        <trkpt lat="29.531235" lon="103.32746"><ele>2811.9436</ele><time>2026-07-21T12:50:20.000Z</time></trkpt>
        <trkpt lat="29.531236" lon="103.327449"><ele>2812.2725</ele><time>2026-07-21T12:50:22.000Z</time></trkpt>
        <trkpt lat="29.531235" lon="103.327427"><ele>2812.8086</ele><time>2026-07-21T12:50:26.000Z</time></trkpt>
        <trkpt lat="29.531234" lon="103.32742"><ele>2812.8167</ele><time>2026-07-21T12:50:28.000Z</time></trkpt>
        <trkpt lat="29.531231" lon="103.327414"><ele>2813.052</ele><time>2026-07-21T12:50:30.000Z</time></trkpt>
        <trkpt lat="29.531222" lon="103.327393"><ele>2811.422</ele><time>2026-07-21T12:50:38.000Z</time></trkpt>
        <trkpt lat="29.531214" lon="103.327367"><ele>2810.4163</ele><time>2026-07-21T12:50:55.000Z</time></trkpt>
        <trkpt lat="29.531214" lon="103.327367"><ele>2811.2498</ele><time>2026-07-21T12:50:57.000Z</time></trkpt>
        <trkpt lat="29.53122" lon="103.327358"><ele>2812.713</ele><time>2026-07-21T12:51:01.000Z</time></trkpt>
        <trkpt lat="29.531232" lon="103.327341"><ele>2813.6604</ele><time>2026-07-21T12:51:03.000Z</time></trkpt>
        <trkpt lat="29.531232" lon="103.327339"><ele>2814.3203</ele><time>2026-07-21T12:51:05.000Z</time></trkpt>
        <trkpt lat="29.531234" lon="103.327315"><ele>2817.1025</ele><time>2026-07-21T12:51:11.000Z</time></trkpt>
        <trkpt lat="29.531232" lon="103.327297"><ele>2816.7925</ele><time>2026-07-21T12:51:13.000Z</time></trkpt>
        <trkpt lat="29.531229" lon="103.327279"><ele>2816.4414</ele><time>2026-07-21T12:51:15.000Z</time></trkpt>
        <trkpt lat="29.531225" lon="103.327263"><ele>2817.4036</ele><time>2026-07-21T12:51:17.000Z</time></trkpt>
        <trkpt lat="29.53122" lon="103.327246"><ele>2816.277</ele><time>2026-07-21T12:51:19.000Z</time></trkpt>
        <trkpt lat="29.531217" lon="103.327236"><ele>2817.626</ele><time>2026-07-21T12:51:21.000Z</time></trkpt>
        <trkpt lat="29.531213" lon="103.327223"><ele>2817.442</ele><time>2026-07-21T12:51:23.000Z</time></trkpt>
        <trkpt lat="29.531209" lon="103.327214"><ele>2817.8535</ele><time>2026-07-21T12:51:25.000Z</time></trkpt>
        <trkpt lat="29.531204" lon="103.327204"><ele>2818.1536</ele><time>2026-07-21T12:51:27.000Z</time></trkpt>
        <trkpt lat="29.531196" lon="103.327185"><ele>2818.3306</ele><time>2026-07-21T12:51:31.000Z</time></trkpt>
        <trkpt lat="29.531191" lon="103.327175"><ele>2818.3062</ele><time>2026-07-21T12:51:33.000Z</time></trkpt>
        <trkpt lat="29.531186" lon="103.327164"><ele>2818.1265</ele><time>2026-07-21T12:51:35.000Z</time></trkpt>
        <trkpt lat="29.531178" lon="103.327149"><ele>2817.115</ele><time>2026-07-21T12:51:37.000Z</time></trkpt>
        <trkpt lat="29.531171" lon="103.327138"><ele>2817.44</ele><time>2026-07-21T12:51:39.000Z</time></trkpt>
        <trkpt lat="29.531163" lon="103.327127"><ele>2817.761</ele><time>2026-07-21T12:51:41.000Z</time></trkpt>
        <trkpt lat="29.531156" lon="103.327118"><ele>2818.4858</ele><time>2026-07-21T12:51:43.000Z</time></trkpt>
        <trkpt lat="29.531148" lon="103.327113"><ele>2818.9631</ele><time>2026-07-21T12:51:45.000Z</time></trkpt>
        <trkpt lat="29.531137" lon="103.327107"><ele>2819.1704</ele><time>2026-07-21T12:51:47.000Z</time></trkpt>
        <trkpt lat="29.531126" lon="103.327102"><ele>2819.4495</ele><time>2026-07-21T12:51:49.000Z</time></trkpt>
        <trkpt lat="29.531114" lon="103.327098"><ele>2819.4373</ele><time>2026-07-21T12:51:51.000Z</time></trkpt>
        <trkpt lat="29.531105" lon="103.327094"><ele>2820.3643</ele><time>2026-07-21T12:51:53.000Z</time></trkpt>
        <trkpt lat="29.531098" lon="103.327089"><ele>2820.7534</ele><time>2026-07-21T12:51:55.000Z</time></trkpt>
        <trkpt lat="29.531086" lon="103.327082"><ele>2821.5469</ele><time>2026-07-21T12:51:59.000Z</time></trkpt>
        <trkpt lat="29.53107" lon="103.327074"><ele>2821.7502</ele><time>2026-07-21T12:52:03.000Z</time></trkpt>
        <trkpt lat="29.531061" lon="103.327068"><ele>2821.7168</ele><time>2026-07-21T12:52:05.000Z</time></trkpt>
        <trkpt lat="29.531053" lon="103.327064"><ele>2822.1067</ele><time>2026-07-21T12:52:07.000Z</time></trkpt>
        <trkpt lat="29.531044" lon="103.327058"><ele>2822.0862</ele><time>2026-07-21T12:52:09.000Z</time></trkpt>
        <trkpt lat="29.531033" lon="103.32705"><ele>2822.933</ele><time>2026-07-21T12:52:11.000Z</time></trkpt>
        <trkpt lat="29.531025" lon="103.327044"><ele>2823.652</ele><time>2026-07-21T12:52:13.000Z</time></trkpt>
        <trkpt lat="29.531018" lon="103.327039"><ele>2824.2026</ele><time>2026-07-21T12:52:15.000Z</time></trkpt>
        <trkpt lat="29.531001" lon="103.327026"><ele>2825.0125</ele><time>2026-07-21T12:52:19.000Z</time></trkpt>
        <trkpt lat="29.530993" lon="103.327021"><ele>2825.4182</ele><time>2026-07-21T12:52:21.000Z</time></trkpt>
        <trkpt lat="29.530985" lon="103.327015"><ele>2825.7205</ele><time>2026-07-21T12:52:23.000Z</time></trkpt>
        <trkpt lat="29.530968" lon="103.327002"><ele>2826.4285</ele><time>2026-07-21T12:52:27.000Z</time></trkpt>
        <trkpt lat="29.530961" lon="103.326998"><ele>2826.6472</ele><time>2026-07-21T12:52:29.000Z</time></trkpt>
        <trkpt lat="29.530953" lon="103.326996"><ele>2827.4229</ele><time>2026-07-21T12:52:31.000Z</time></trkpt>
        <trkpt lat="29.530928" lon="103.32699"><ele>2827.015</ele><time>2026-07-21T12:52:35.000Z</time></trkpt>
        <trkpt lat="29.530918" lon="103.326986"><ele>2827.1155</ele><time>2026-07-21T12:52:37.000Z</time></trkpt>
        <trkpt lat="29.530903" lon="103.32698"><ele>2826.3167</ele><time>2026-07-21T12:52:39.000Z</time></trkpt>
        <trkpt lat="29.530892" lon="103.326975"><ele>2826.3015</ele><time>2026-07-21T12:52:41.000Z</time></trkpt>
        <trkpt lat="29.530883" lon="103.326969"><ele>2826.816</ele><time>2026-07-21T12:52:43.000Z</time></trkpt>
        <trkpt lat="29.530874" lon="103.326964"><ele>2827.6995</ele><time>2026-07-21T12:52:45.000Z</time></trkpt>
        <trkpt lat="29.530863" lon="103.326962"><ele>2828.037</ele><time>2026-07-21T12:52:49.000Z</time></trkpt>
        <trkpt lat="29.530854" lon="103.326965"><ele>2827.5266</ele><time>2026-07-21T12:52:55.000Z</time></trkpt>
        <trkpt lat="29.53085" lon="103.32696"><ele>2827.4294</ele><time>2026-07-21T12:53:01.000Z</time></trkpt>
        <trkpt lat="29.530833" lon="103.32694"><ele>2829.2156</ele><time>2026-07-21T12:53:27.000Z</time></trkpt>
        <trkpt lat="29.530823" lon="103.326929"><ele>2829.5312</ele><time>2026-07-21T12:53:29.000Z</time></trkpt>
        <trkpt lat="29.530823" lon="103.326929"><ele>2829.869</ele><time>2026-07-21T12:53:31.000Z</time></trkpt>
        <trkpt lat="29.530822" lon="103.326905"><ele>2832.6196</ele><time>2026-07-21T12:53:39.000Z</time></trkpt>
        <trkpt lat="29.530821" lon="103.326885"><ele>2832.6094</ele><time>2026-07-21T12:53:41.000Z</time></trkpt>
        <trkpt lat="29.53082" lon="103.326883"><ele>2832.942</ele><time>2026-07-21T12:53:43.000Z</time></trkpt>
        <trkpt lat="29.530811" lon="103.326862"><ele>2835.0857</ele><time>2026-07-21T12:53:49.000Z</time></trkpt>
        <trkpt lat="29.530802" lon="103.326856"><ele>2834.9238</ele><time>2026-07-21T12:53:51.000Z</time></trkpt>
        <trkpt lat="29.530761" lon="103.32684"><ele>2837.086</ele><time>2026-07-21T12:54:06.000Z</time></trkpt>
        <trkpt lat="29.530746" lon="103.326841"><ele>2838.799</ele><time>2026-07-21T12:54:10.000Z</time></trkpt>
        <trkpt lat="29.530725" lon="103.326842"><ele>2837.8574</ele><time>2026-07-21T12:54:12.000Z</time></trkpt>
        <trkpt lat="29.530723" lon="103.326842"><ele>2837.712</ele><time>2026-07-21T12:54:14.000Z</time></trkpt>
        <trkpt lat="29.530714" lon="103.326844"><ele>2839.1504</ele><time>2026-07-21T12:54:20.000Z</time></trkpt>
        <trkpt lat="29.530692" lon="103.32685"><ele>2841.4329</ele><time>2026-07-21T12:54:26.000Z</time></trkpt>
        <trkpt lat="29.530669" lon="103.326857"><ele>2841.1743</ele><time>2026-07-21T12:54:28.000Z</time></trkpt>
        <trkpt lat="29.530668" lon="103.326857"><ele>2840.5688</ele><time>2026-07-21T12:54:30.000Z</time></trkpt>
        <trkpt lat="29.530659" lon="103.326857"><ele>2840.9856</ele><time>2026-07-21T12:54:34.000Z</time></trkpt>
        <trkpt lat="29.530632" lon="103.326858"><ele>2841.0996</ele><time>2026-07-21T12:54:38.000Z</time></trkpt>
        <trkpt lat="29.530631" lon="103.326858"><ele>2840.9644</ele><time>2026-07-21T12:54:40.000Z</time></trkpt>
        <trkpt lat="29.530621" lon="103.326865"><ele>2839.8574</ele><time>2026-07-21T12:54:44.000Z</time></trkpt>
        <trkpt lat="29.530591" lon="103.326883"><ele>2840.8848</ele><time>2026-07-21T12:54:48.000Z</time></trkpt>
        <trkpt lat="29.530577" lon="103.326892"><ele>2841.3594</ele><time>2026-07-21T12:54:50.000Z</time></trkpt>
        <trkpt lat="29.530559" lon="103.326902"><ele>2842.2783</ele><time>2026-07-21T12:54:52.000Z</time></trkpt>
        <trkpt lat="29.530545" lon="103.32691"><ele>2842.5042</ele><time>2026-07-21T12:54:54.000Z</time></trkpt>
        <trkpt lat="29.530529" lon="103.326919"><ele>2842.855</ele><time>2026-07-21T12:54:56.000Z</time></trkpt>
        <trkpt lat="29.530516" lon="103.326927"><ele>2843.3176</ele><time>2026-07-21T12:54:58.000Z</time></trkpt>
        <trkpt lat="29.5305" lon="103.326935"><ele>2843.4307</ele><time>2026-07-21T12:55:00.000Z</time></trkpt>
        <trkpt lat="29.530485" lon="103.326941"><ele>2843.5625</ele><time>2026-07-21T12:55:02.000Z</time></trkpt>
        <trkpt lat="29.530469" lon="103.326946"><ele>2843.3057</ele><time>2026-07-21T12:55:04.000Z</time></trkpt>
        <trkpt lat="29.530455" lon="103.32695"><ele>2842.61</ele><time>2026-07-21T12:55:06.000Z</time></trkpt>
        <trkpt lat="29.530448" lon="103.326953"><ele>2842.9514</ele><time>2026-07-21T12:55:08.000Z</time></trkpt>
        <trkpt lat="29.530443" lon="103.32696"><ele>2843.325</ele><time>2026-07-21T12:55:14.000Z</time></trkpt>
        <trkpt lat="29.530431" lon="103.326971"><ele>2843.268</ele><time>2026-07-21T12:55:26.000Z</time></trkpt>
        <trkpt lat="29.530425" lon="103.326974"><ele>2843.1638</ele><time>2026-07-21T12:55:34.000Z</time></trkpt>
        <trkpt lat="29.530412" lon="103.326978"><ele>2842.5264</ele><time>2026-07-21T12:55:40.000Z</time></trkpt>
        <trkpt lat="29.530397" lon="103.326983"><ele>2845.2166</ele><time>2026-07-21T12:55:44.000Z</time></trkpt>
        <trkpt lat="29.530392" lon="103.326983"><ele>2846.236</ele><time>2026-07-21T12:55:46.000Z</time></trkpt>
        <trkpt lat="29.530381" lon="103.326986"><ele>2847.5637</ele><time>2026-07-21T12:55:50.000Z</time></trkpt>
        <trkpt lat="29.530357" lon="103.326996"><ele>2847.398</ele><time>2026-07-21T12:55:56.000Z</time></trkpt>
        <trkpt lat="29.530347" lon="103.327"><ele>2846.8171</ele><time>2026-07-21T12:55:58.000Z</time></trkpt>
        <trkpt lat="29.530346" lon="103.327"><ele>2847.5076</ele><time>2026-07-21T12:56:00.000Z</time></trkpt>
        <trkpt lat="29.530329" lon="103.327009"><ele>2848.5576</ele><time>2026-07-21T12:56:06.000Z</time></trkpt>
        <trkpt lat="29.530318" lon="103.327014"><ele>2849.214</ele><time>2026-07-21T12:56:08.000Z</time></trkpt>
        <trkpt lat="29.530304" lon="103.327021"><ele>2849.4907</ele><time>2026-07-21T12:56:10.000Z</time></trkpt>
        <trkpt lat="29.530292" lon="103.327026"><ele>2850.473</ele><time>2026-07-21T12:56:12.000Z</time></trkpt>
        <trkpt lat="29.530278" lon="103.327033"><ele>2849.783</ele><time>2026-07-21T12:56:14.000Z</time></trkpt>
        <trkpt lat="29.530266" lon="103.32704"><ele>2849.5637</ele><time>2026-07-21T12:56:16.000Z</time></trkpt>
        <trkpt lat="29.530255" lon="103.327047"><ele>2850.0522</ele><time>2026-07-21T12:56:18.000Z</time></trkpt>
        <trkpt lat="29.530245" lon="103.327053"><ele>2850.9114</ele><time>2026-07-21T12:56:20.000Z</time></trkpt>
        <trkpt lat="29.530233" lon="103.327057"><ele>2851.59</ele><time>2026-07-21T12:56:22.000Z</time></trkpt>
        <trkpt lat="29.530222" lon="103.327061"><ele>2852.306</ele><time>2026-07-21T12:56:24.000Z</time></trkpt>
        <trkpt lat="29.530208" lon="103.327067"><ele>2851.9949</ele><time>2026-07-21T12:56:26.000Z</time></trkpt>
        <trkpt lat="29.530196" lon="103.327073"><ele>2852.2441</ele><time>2026-07-21T12:56:28.000Z</time></trkpt>
        <trkpt lat="29.530186" lon="103.327078"><ele>2851.9463</ele><time>2026-07-21T12:56:30.000Z</time></trkpt>
        <trkpt lat="29.530174" lon="103.327087"><ele>2851.82</ele><time>2026-07-21T12:56:32.000Z</time></trkpt>
        <trkpt lat="29.530161" lon="103.327096"><ele>2852.3967</ele><time>2026-07-21T12:56:34.000Z</time></trkpt>
        <trkpt lat="29.530151" lon="103.327106"><ele>2854.0806</ele><time>2026-07-21T12:56:36.000Z</time></trkpt>
        <trkpt lat="29.53014" lon="103.327119"><ele>2853.9336</ele><time>2026-07-21T12:56:38.000Z</time></trkpt>
        <trkpt lat="29.530129" lon="103.327131"><ele>2853.7883</ele><time>2026-07-21T12:56:40.000Z</time></trkpt>
        <trkpt lat="29.530119" lon="103.327142"><ele>2854.1626</ele><time>2026-07-21T12:56:42.000Z</time></trkpt>
        <trkpt lat="29.530105" lon="103.327157"><ele>2853.4836</ele><time>2026-07-21T12:56:44.000Z</time></trkpt>
        <trkpt lat="29.530093" lon="103.327169"><ele>2853.713</ele><time>2026-07-21T12:56:46.000Z</time></trkpt>
        <trkpt lat="29.530079" lon="103.327182"><ele>2853.5637</ele><time>2026-07-21T12:56:48.000Z</time></trkpt>
        <trkpt lat="29.530065" lon="103.327194"><ele>2853.5923</ele><time>2026-07-21T12:56:50.000Z</time></trkpt>
        <trkpt lat="29.530052" lon="103.327205"><ele>2853.9822</ele><time>2026-07-21T12:56:52.000Z</time></trkpt>
        <trkpt lat="29.530039" lon="103.327216"><ele>2853.9744</ele><time>2026-07-21T12:56:54.000Z</time></trkpt>
        <trkpt lat="29.530025" lon="103.327227"><ele>2854.1738</ele><time>2026-07-21T12:56:56.000Z</time></trkpt>
        <trkpt lat="29.530012" lon="103.327238"><ele>2855.0496</ele><time>2026-07-21T12:56:58.000Z</time></trkpt>
        <trkpt lat="29.530001" lon="103.327246"><ele>2855.6204</ele><time>2026-07-21T12:57:00.000Z</time></trkpt>
        <trkpt lat="29.529989" lon="103.327255"><ele>2855.7327</ele><time>2026-07-21T12:57:02.000Z</time></trkpt>
        <trkpt lat="29.529978" lon="103.327266"><ele>2856.3186</ele><time>2026-07-21T12:57:04.000Z</time></trkpt>
        <trkpt lat="29.529969" lon="103.327275"><ele>2856.9324</ele><time>2026-07-21T12:57:06.000Z</time></trkpt>
        <trkpt lat="29.529959" lon="103.327285"><ele>2857.3684</ele><time>2026-07-21T12:57:08.000Z</time></trkpt>
        <trkpt lat="29.529948" lon="103.327294"><ele>2856.9644</ele><time>2026-07-21T12:57:10.000Z</time></trkpt>
        <trkpt lat="29.529938" lon="103.327302"><ele>2857.7385</ele><time>2026-07-21T12:57:12.000Z</time></trkpt>
        <trkpt lat="29.52993" lon="103.327308"><ele>2857.197</ele><time>2026-07-21T12:57:14.000Z</time></trkpt>
        <trkpt lat="29.529922" lon="103.327311"><ele>2857.0046</ele><time>2026-07-21T12:57:16.000Z</time></trkpt>
        <trkpt lat="29.529906" lon="103.327319"><ele>2856.5503</ele><time>2026-07-21T12:57:22.000Z</time></trkpt>
        <trkpt lat="29.529901" lon="103.327323"><ele>2856.655</ele><time>2026-07-21T12:57:24.000Z</time></trkpt>
        <trkpt lat="29.529897" lon="103.327321"><ele>2856.0767</ele><time>2026-07-21T12:57:26.000Z</time></trkpt>
        <trkpt lat="29.529936" lon="103.327344"><ele>2858.051</ele><time>2026-07-21T12:57:44.000Z</time></trkpt>
        <trkpt lat="29.529936" lon="103.327345"><ele>2857.7415</ele><time>2026-07-21T12:57:46.000Z</time></trkpt>
        <trkpt lat="29.529936" lon="103.327367"><ele>2857.998</ele><time>2026-07-21T12:57:48.000Z</time></trkpt>
        <trkpt lat="29.529904" lon="103.327353"><ele>2855.2717</ele><time>2026-07-21T12:58:04.000Z</time></trkpt>
        <trkpt lat="29.529904" lon="103.327354"><ele>2855.6006</ele><time>2026-07-21T12:58:06.000Z</time></trkpt>
        <trkpt lat="29.5299" lon="103.327357"><ele>2855.1252</ele><time>2026-07-21T12:58:10.000Z</time></trkpt>
        <trkpt lat="29.529958" lon="103.32731"><ele>2857.628</ele><time>2026-07-21T12:58:17.000Z</time></trkpt>
        <trkpt lat="29.529958" lon="103.32731"><ele>2855.9875</ele><time>2026-07-21T12:58:19.000Z</time></trkpt>
        <trkpt lat="29.529969" lon="103.327305"><ele>2856.1716</ele><time>2026-07-21T12:58:21.000Z</time></trkpt>
        <trkpt lat="29.530278" lon="103.327164"><ele>2855.1028</ele><time>2026-07-21T12:58:23.000Z</time></trkpt>
        <trkpt lat="29.530293" lon="103.327154"><ele>2855.0068</ele><time>2026-07-21T12:58:25.000Z</time></trkpt>
        <trkpt lat="29.5303" lon="103.327155"><ele>2855.2417</ele><time>2026-07-21T12:58:27.000Z</time></trkpt>
        <trkpt lat="29.530069" lon="103.327122"><ele>2852.6504</ele><time>2026-07-21T12:58:29.000Z</time></trkpt>
        <trkpt lat="29.530061" lon="103.327123"><ele>2854.2307</ele><time>2026-07-21T12:58:31.000Z</time></trkpt>
        <trkpt lat="29.530053" lon="103.327121"><ele>2854.3557</ele><time>2026-07-21T12:58:33.000Z</time></trkpt>
        <trkpt lat="29.53" lon="103.327108"><ele>2854.4941</ele><time>2026-07-21T12:58:37.000Z</time></trkpt>
        <trkpt lat="29.529966" lon="103.327058"><ele>2855.1968</ele><time>2026-07-21T12:58:39.000Z</time></trkpt>
        <trkpt lat="29.529919" lon="103.326988"><ele>2855.0974</ele><time>2026-07-21T12:58:41.000Z</time></trkpt>
        <trkpt lat="29.529877" lon="103.32692"><ele>2855.1604</ele><time>2026-07-21T12:58:43.000Z</time></trkpt>
        <trkpt lat="29.529856" lon="103.32687"><ele>2855.011</ele><time>2026-07-21T12:58:45.000Z</time></trkpt>
        <trkpt lat="29.529845" lon="103.326808"><ele>2854.6755</ele><time>2026-07-21T12:58:47.000Z</time></trkpt>
        <trkpt lat="29.529835" lon="103.326766"><ele>2853.8936</ele><time>2026-07-21T12:58:49.000Z</time></trkpt>
        <trkpt lat="29.529835" lon="103.326766"><ele>2853.6477</ele><time>2026-07-21T12:58:51.000Z</time></trkpt>
        <trkpt lat="29.529819" lon="103.32706"><ele>2854.293</ele><time>2026-07-21T12:58:57.000Z</time></trkpt>
        <trkpt lat="29.529819" lon="103.327061"><ele>2855.1218</ele><time>2026-07-21T12:58:59.000Z</time></trkpt>
        <trkpt lat="29.529826" lon="103.327079"><ele>2855.6064</ele><time>2026-07-21T12:59:01.000Z</time></trkpt>
        <trkpt lat="29.529853" lon="103.327146"><ele>2856.1084</ele><time>2026-07-21T12:59:03.000Z</time></trkpt>
        <trkpt lat="29.529899" lon="103.327253"><ele>2856.38</ele><time>2026-07-21T12:59:05.000Z</time></trkpt>
        <trkpt lat="29.529943" lon="103.32735"><ele>2857.4478</ele><time>2026-07-21T12:59:07.000Z</time></trkpt>
        <trkpt lat="29.529973" lon="103.327415"><ele>2857.4478</ele><time>2026-07-21T12:59:09.000Z</time></trkpt>
        <trkpt lat="29.529989" lon="103.327449"><ele>2857.4478</ele><time>2026-07-21T12:59:11.000Z</time></trkpt>
        <trkpt lat="29.529971" lon="103.327477"><ele>2860.36</ele><time>2026-07-21T12:59:13.000Z</time></trkpt>
        <trkpt lat="29.529955" lon="103.32749"><ele>2860.36</ele><time>2026-07-21T12:59:15.000Z</time></trkpt>
        <trkpt lat="29.529943" lon="103.327493"><ele>2860.36</ele><time>2026-07-21T12:59:17.000Z</time></trkpt>
        <trkpt lat="29.529933" lon="103.32749"><ele>2860.36</ele><time>2026-07-21T12:59:19.000Z</time></trkpt>
        <trkpt lat="29.529927" lon="103.327483"><ele>2860.36</ele><time>2026-07-21T12:59:21.000Z</time></trkpt>
        <trkpt lat="29.529916" lon="103.327468"><ele>2860.36</ele><time>2026-07-21T12:59:25.000Z</time></trkpt>
        <trkpt lat="29.529917" lon="103.327467"><ele>2860.36</ele><time>2026-07-21T12:59:27.000Z</time></trkpt>
        <trkpt lat="29.529933" lon="103.327443"><ele>2857.669</ele><time>2026-07-21T12:59:42.000Z</time></trkpt>
        <trkpt lat="29.529869" lon="103.32746"><ele>2859.0415</ele><time>2026-07-21T12:59:50.000Z</time></trkpt>
        <trkpt lat="29.529855" lon="103.327471"><ele>2857.9124</ele><time>2026-07-21T12:59:52.000Z</time></trkpt>
        <trkpt lat="29.52983" lon="103.32749"><ele>2858.213</ele><time>2026-07-21T12:59:55.000Z</time></trkpt>
        <trkpt lat="29.529829" lon="103.327491"><ele>2857.5994</ele><time>2026-07-21T12:59:57.000Z</time></trkpt>
        <trkpt lat="29.529828" lon="103.327494"><ele>2857.4287</ele><time>2026-07-21T12:59:59.000Z</time></trkpt>
        <trkpt lat="29.52981" lon="103.327529"><ele>2858.7695</ele><time>2026-07-21T13:00:03.000Z</time></trkpt>
        <trkpt lat="29.529799" lon="103.327555"><ele>2858.7708</ele><time>2026-07-21T13:00:05.000Z</time></trkpt>
        <trkpt lat="29.52979" lon="103.327577"><ele>2859.1206</ele><time>2026-07-21T13:00:07.000Z</time></trkpt>
        <trkpt lat="29.529785" lon="103.327593"><ele>2858.3613</ele><time>2026-07-21T13:00:09.000Z</time></trkpt>
        <trkpt lat="29.529779" lon="103.327608"><ele>2858.4631</ele><time>2026-07-21T13:00:11.000Z</time></trkpt>
        <trkpt lat="29.529775" lon="103.327619"><ele>2859.0352</ele><time>2026-07-21T13:00:13.000Z</time></trkpt>
        <trkpt lat="29.52977" lon="103.327633"><ele>2860.0042</ele><time>2026-07-21T13:00:15.000Z</time></trkpt>
        <trkpt lat="29.529766" lon="103.327646"><ele>2859.8823</ele><time>2026-07-21T13:00:17.000Z</time></trkpt>
        <trkpt lat="29.529761" lon="103.327658"><ele>2860.63</ele><time>2026-07-21T13:00:19.000Z</time></trkpt>
        <trkpt lat="29.529756" lon="103.327671"><ele>2860.677</ele><time>2026-07-21T13:00:21.000Z</time></trkpt>
        <trkpt lat="29.529751" lon="103.327685"><ele>2860.212</ele><time>2026-07-21T13:00:23.000Z</time></trkpt>
        <trkpt lat="29.529745" lon="103.327699"><ele>2859.8982</ele><time>2026-07-21T13:00:25.000Z</time></trkpt>
        <trkpt lat="29.529738" lon="103.327714"><ele>2859.188</ele><time>2026-07-21T13:00:27.000Z</time></trkpt>
        <trkpt lat="29.529732" lon="103.327728"><ele>2859.6887</ele><time>2026-07-21T13:00:29.000Z</time></trkpt>
        <trkpt lat="29.529724" lon="103.327744"><ele>2859.3403</ele><time>2026-07-21T13:00:31.000Z</time></trkpt>
        <trkpt lat="29.529714" lon="103.32776"><ele>2858.8948</ele><time>2026-07-21T13:00:33.000Z</time></trkpt>
        <trkpt lat="29.529702" lon="103.327775"><ele>2859.1045</ele><time>2026-07-21T13:00:35.000Z</time></trkpt>
        <trkpt lat="29.529692" lon="103.327784"><ele>2858.3958</ele><time>2026-07-21T13:00:37.000Z</time></trkpt>
        <trkpt lat="29.529684" lon="103.327789"><ele>2858.9436</ele><time>2026-07-21T13:00:39.000Z</time></trkpt>
        <trkpt lat="29.529676" lon="103.327793"><ele>2859.359</ele><time>2026-07-21T13:00:41.000Z</time></trkpt>
        <trkpt lat="29.529665" lon="103.327796"><ele>2859.6658</ele><time>2026-07-21T13:00:43.000Z</time></trkpt>
        <trkpt lat="29.529648" lon="103.327799"><ele>2859.605</ele><time>2026-07-21T13:00:47.000Z</time></trkpt>
        <trkpt lat="29.529636" lon="103.3278"><ele>2859.459</ele><time>2026-07-21T13:00:49.000Z</time></trkpt>
        <trkpt lat="29.529622" lon="103.327802"><ele>2858.9255</ele><time>2026-07-21T13:00:51.000Z</time></trkpt>
        <trkpt lat="29.529604" lon="103.327803"><ele>2858.9883</ele><time>2026-07-21T13:00:53.000Z</time></trkpt>
        <trkpt lat="29.529583" lon="103.327805"><ele>2858.2542</ele><time>2026-07-21T13:00:55.000Z</time></trkpt>
        <trkpt lat="29.529565" lon="103.327806"><ele>2858.4187</ele><time>2026-07-21T13:00:57.000Z</time></trkpt>
        <trkpt lat="29.529548" lon="103.327809"><ele>2858.9321</ele><time>2026-07-21T13:00:59.000Z</time></trkpt>
        <trkpt lat="29.529534" lon="103.327812"><ele>2859.1494</ele><time>2026-07-21T13:01:01.000Z</time></trkpt>
        <trkpt lat="29.529521" lon="103.327815"><ele>2859.6396</ele><time>2026-07-21T13:01:03.000Z</time></trkpt>
        <trkpt lat="29.529507" lon="103.327818"><ele>2859.269</ele><time>2026-07-21T13:01:05.000Z</time></trkpt>
        <trkpt lat="29.529493" lon="103.32782"><ele>2859.3008</ele><time>2026-07-21T13:01:07.000Z</time></trkpt>
        <trkpt lat="29.52948" lon="103.32782"><ele>2859.9585</ele><time>2026-07-21T13:01:09.000Z</time></trkpt>
        <trkpt lat="29.529468" lon="103.32782"><ele>2860.4646</ele><time>2026-07-21T13:01:11.000Z</time></trkpt>
        <trkpt lat="29.529454" lon="103.327818"><ele>2860.1445</ele><time>2026-07-21T13:01:13.000Z</time></trkpt>
        <trkpt lat="29.52944" lon="103.327817"><ele>2860.0059</ele><time>2026-07-21T13:01:15.000Z</time></trkpt>
        <trkpt lat="29.529427" lon="103.327815"><ele>2860.3293</ele><time>2026-07-21T13:01:17.000Z</time></trkpt>
        <trkpt lat="29.529412" lon="103.327812"><ele>2860.4517</ele><time>2026-07-21T13:01:19.000Z</time></trkpt>
        <trkpt lat="29.529397" lon="103.327808"><ele>2860.2683</ele><time>2026-07-21T13:01:21.000Z</time></trkpt>
        <trkpt lat="29.529387" lon="103.327803"><ele>2861.04</ele><time>2026-07-21T13:01:23.000Z</time></trkpt>
        <trkpt lat="29.52938" lon="103.327797"><ele>2861.433</ele><time>2026-07-21T13:01:25.000Z</time></trkpt>
        <trkpt lat="29.529368" lon="103.327788"><ele>2861.7725</ele><time>2026-07-21T13:01:29.000Z</time></trkpt>
        <trkpt lat="29.52936" lon="103.327786"><ele>2863.1614</ele><time>2026-07-21T13:01:35.000Z</time></trkpt>
        <trkpt lat="29.529351" lon="103.327787"><ele>2863.9343</ele><time>2026-07-21T13:01:37.000Z</time></trkpt>
        <trkpt lat="29.529336" lon="103.327793"><ele>2863.6238</ele><time>2026-07-21T13:01:43.000Z</time></trkpt>
        <trkpt lat="29.529318" lon="103.327803"><ele>2863.1814</ele><time>2026-07-21T13:01:45.000Z</time></trkpt>
        <trkpt lat="29.529298" lon="103.327819"><ele>2862.059</ele><time>2026-07-21T13:01:47.000Z</time></trkpt>
        <trkpt lat="29.52928" lon="103.327836"><ele>2863.036</ele><time>2026-07-21T13:01:49.000Z</time></trkpt>
        <trkpt lat="29.529268" lon="103.327854"><ele>2863.4304</ele><time>2026-07-21T13:01:51.000Z</time></trkpt>
        <trkpt lat="29.529259" lon="103.32787"><ele>2864.0205</ele><time>2026-07-21T13:01:53.000Z</time></trkpt>
        <trkpt lat="29.529253" lon="103.327887"><ele>2863.6875</ele><time>2026-07-21T13:01:55.000Z</time></trkpt>
        <trkpt lat="29.52925" lon="103.327902"><ele>2864.5427</ele><time>2026-07-21T13:01:57.000Z</time></trkpt>
        <trkpt lat="29.529248" lon="103.327915"><ele>2865.0764</ele><time>2026-07-21T13:01:59.000Z</time></trkpt>
        <trkpt lat="29.529246" lon="103.327927"><ele>2865.5283</ele><time>2026-07-21T13:02:01.000Z</time></trkpt>
        <trkpt lat="29.529243" lon="103.327943"><ele>2864.745</ele><time>2026-07-21T13:02:05.000Z</time></trkpt>
        <trkpt lat="29.52924" lon="103.327956"><ele>2864.6763</ele><time>2026-07-21T13:02:07.000Z</time></trkpt>
        <trkpt lat="29.52924" lon="103.327962"><ele>2864.5505</ele><time>2026-07-21T13:02:13.000Z</time></trkpt>
        <trkpt lat="29.529241" lon="103.327997"><ele>2865.9873</ele><time>2026-07-21T13:02:17.000Z</time></trkpt>
        <trkpt lat="29.529241" lon="103.327997"><ele>2866.1833</ele><time>2026-07-21T13:02:19.000Z</time></trkpt>
        <trkpt lat="29.529241" lon="103.327998"><ele>2865.917</ele><time>2026-07-21T13:02:21.000Z</time></trkpt>
        <trkpt lat="29.529229" lon="103.328044"><ele>2866.506</ele><time>2026-07-21T13:02:27.000Z</time></trkpt>
        <trkpt lat="29.529229" lon="103.328044"><ele>2867.118</ele><time>2026-07-21T13:02:29.000Z</time></trkpt>
        <trkpt lat="29.529229" lon="103.328046"><ele>2867.235</ele><time>2026-07-21T13:02:31.000Z</time></trkpt>
        <trkpt lat="29.529219" lon="103.328086"><ele>2866.9175</ele><time>2026-07-21T13:02:37.000Z</time></trkpt>
        <trkpt lat="29.529217" lon="103.328099"><ele>2865.6235</ele><time>2026-07-21T13:02:39.000Z</time></trkpt>
        <trkpt lat="29.529215" lon="103.328112"><ele>2865.3735</ele><time>2026-07-21T13:02:41.000Z</time></trkpt>
        <trkpt lat="29.529212" lon="103.328121"><ele>2865.1455</ele><time>2026-07-21T13:02:43.000Z</time></trkpt>
        <trkpt lat="29.529204" lon="103.328133"><ele>2864.2744</ele><time>2026-07-21T13:02:47.000Z</time></trkpt>
        <trkpt lat="29.529197" lon="103.328142"><ele>2863.5146</ele><time>2026-07-21T13:02:51.000Z</time></trkpt>
        <trkpt lat="29.529188" lon="103.328154"><ele>2863.9736</ele><time>2026-07-21T13:02:55.000Z</time></trkpt>
        <trkpt lat="29.529183" lon="103.328159"><ele>2864.553</ele><time>2026-07-21T13:02:57.000Z</time></trkpt>
        <trkpt lat="29.529177" lon="103.328169"><ele>2866.283</ele><time>2026-07-21T13:03:01.000Z</time></trkpt>
        <trkpt lat="29.529169" lon="103.328188"><ele>2869.7197</ele><time>2026-07-21T13:03:07.000Z</time></trkpt>
        <trkpt lat="29.529166" lon="103.328196"><ele>2869.735</ele><time>2026-07-21T13:03:09.000Z</time></trkpt>
        <trkpt lat="29.529164" lon="103.328205"><ele>2869.8394</ele><time>2026-07-21T13:03:11.000Z</time></trkpt>
        <trkpt lat="29.529159" lon="103.328223"><ele>2870.043</ele><time>2026-07-21T13:03:15.000Z</time></trkpt>
        <trkpt lat="29.529158" lon="103.328229"><ele>2870.6611</ele><time>2026-07-21T13:03:17.000Z</time></trkpt>
        <trkpt lat="29.529156" lon="103.328244"><ele>2871.894</ele><time>2026-07-21T13:03:21.000Z</time></trkpt>
        <trkpt lat="29.529155" lon="103.328257"><ele>2873.0679</ele><time>2026-07-21T13:03:25.000Z</time></trkpt>
        <trkpt lat="29.529154" lon="103.328264"><ele>2872.6162</ele><time>2026-07-21T13:03:27.000Z</time></trkpt>
        <trkpt lat="29.529151" lon="103.328279"><ele>2874.2998</ele><time>2026-07-21T13:03:39.000Z</time></trkpt>
        <trkpt lat="29.529148" lon="103.328295"><ele>2874.2292</ele><time>2026-07-21T13:03:43.000Z</time></trkpt>
        <trkpt lat="29.529146" lon="103.328304"><ele>2874.3801</ele><time>2026-07-21T13:03:45.000Z</time></trkpt>
        <trkpt lat="29.529143" lon="103.328321"><ele>2873.7078</ele><time>2026-07-21T13:03:47.000Z</time></trkpt>
        <trkpt lat="29.529137" lon="103.32834"><ele>2874.6763</ele><time>2026-07-21T13:03:55.000Z</time></trkpt>
        <trkpt lat="29.529133" lon="103.328352"><ele>2875.2966</ele><time>2026-07-21T13:03:57.000Z</time></trkpt>
        <trkpt lat="29.52913" lon="103.328361"><ele>2875.1055</ele><time>2026-07-21T13:03:59.000Z</time></trkpt>
        <trkpt lat="29.529127" lon="103.328372"><ele>2874.5242</ele><time>2026-07-21T13:04:03.000Z</time></trkpt>
        <trkpt lat="29.529123" lon="103.328387"><ele>2875.7432</ele><time>2026-07-21T13:04:09.000Z</time></trkpt>
        <trkpt lat="29.529121" lon="103.328395"><ele>2875.5745</ele><time>2026-07-21T13:04:11.000Z</time></trkpt>
        <trkpt lat="29.529115" lon="103.328409"><ele>2876.0667</ele><time>2026-07-21T13:04:13.000Z</time></trkpt>
        <trkpt lat="29.529112" lon="103.328418"><ele>2876.864</ele><time>2026-07-21T13:04:19.000Z</time></trkpt>
        <trkpt lat="29.529108" lon="103.328433"><ele>2876.824</ele><time>2026-07-21T13:04:21.000Z</time></trkpt>
        <trkpt lat="29.529105" lon="103.328449"><ele>2877.3193</ele><time>2026-07-21T13:04:23.000Z</time></trkpt>
        <trkpt lat="29.529103" lon="103.328465"><ele>2877.6533</ele><time>2026-07-21T13:04:25.000Z</time></trkpt>
        <trkpt lat="29.529101" lon="103.328476"><ele>2878.4548</ele><time>2026-07-21T13:04:27.000Z</time></trkpt>
        <trkpt lat="29.5291" lon="103.328485"><ele>2878.69</ele><time>2026-07-21T13:04:29.000Z</time></trkpt>
        <trkpt lat="29.529095" lon="103.328502"><ele>2879.0261</ele><time>2026-07-21T13:04:33.000Z</time></trkpt>
        <trkpt lat="29.529091" lon="103.328507"><ele>2879.1006</ele><time>2026-07-21T13:04:35.000Z</time></trkpt>
        <trkpt lat="29.529082" lon="103.328522"><ele>2879.903</ele><time>2026-07-21T13:04:37.000Z</time></trkpt>
        <trkpt lat="29.529072" lon="103.328538"><ele>2881.4526</ele><time>2026-07-21T13:04:43.000Z</time></trkpt>
        <trkpt lat="29.529072" lon="103.328538"><ele>2882.116</ele><time>2026-07-21T13:04:45.000Z</time></trkpt>
        <trkpt lat="29.529062" lon="103.328568"><ele>2882.466</ele><time>2026-07-21T13:04:51.000Z</time></trkpt>
        <trkpt lat="29.529055" lon="103.32859"><ele>2883.001</ele><time>2026-07-21T13:04:53.000Z</time></trkpt>
        <trkpt lat="29.529048" lon="103.328608"><ele>2884.629</ele><time>2026-07-21T13:04:55.000Z</time></trkpt>
        <trkpt lat="29.529042" lon="103.328621"><ele>2884.6333</ele><time>2026-07-21T13:04:57.000Z</time></trkpt>
        <trkpt lat="29.529036" lon="103.328632"><ele>2885.092</ele><time>2026-07-21T13:04:59.000Z</time></trkpt>
        <trkpt lat="29.52903" lon="103.328643"><ele>2885.4517</ele><time>2026-07-21T13:05:01.000Z</time></trkpt>
        <trkpt lat="29.529021" lon="103.328657"><ele>2884.7954</ele><time>2026-07-21T13:05:03.000Z</time></trkpt>
        <trkpt lat="29.529013" lon="103.328671"><ele>2885.1548</ele><time>2026-07-21T13:05:05.000Z</time></trkpt>
        <trkpt lat="29.529008" lon="103.328685"><ele>2885.3225</ele><time>2026-07-21T13:05:07.000Z</time></trkpt>
        <trkpt lat="29.529003" lon="103.3287"><ele>2885.3755</ele><time>2026-07-21T13:05:09.000Z</time></trkpt>
        <trkpt lat="29.528999" lon="103.328717"><ele>2885.406</ele><time>2026-07-21T13:05:11.000Z</time></trkpt>
        <trkpt lat="29.528994" lon="103.32873"><ele>2885.5195</ele><time>2026-07-21T13:05:13.000Z</time></trkpt>
        <trkpt lat="29.528988" lon="103.32875"><ele>2884.1235</ele><time>2026-07-21T13:05:15.000Z</time></trkpt>
        <trkpt lat="29.528983" lon="103.328769"><ele>2885.4753</ele><time>2026-07-21T13:05:17.000Z</time></trkpt>
        <trkpt lat="29.528977" lon="103.328785"><ele>2885.3484</ele><time>2026-07-21T13:05:19.000Z</time></trkpt>
        <trkpt lat="29.52897" lon="103.328804"><ele>2884.892</ele><time>2026-07-21T13:05:21.000Z</time></trkpt>
        <trkpt lat="29.528965" lon="103.328823"><ele>2885.1357</ele><time>2026-07-21T13:05:23.000Z</time></trkpt>
        <trkpt lat="29.528965" lon="103.328835"><ele>2885.5583</ele><time>2026-07-21T13:05:25.000Z</time></trkpt>
        <trkpt lat="29.528967" lon="103.328847"><ele>2885.403</ele><time>2026-07-21T13:05:27.000Z</time></trkpt>
        <trkpt lat="29.52897" lon="103.328856"><ele>2885.4138</ele><time>2026-07-21T13:05:29.000Z</time></trkpt>
        <trkpt lat="29.528967" lon="103.328865"><ele>2885.2317</ele><time>2026-07-21T13:05:53.000Z</time></trkpt>
        <trkpt lat="29.528953" lon="103.328897"><ele>2885.284</ele><time>2026-07-21T13:06:29.000Z</time></trkpt>
        <trkpt lat="29.528953" lon="103.328897"><ele>2885.2986</ele><time>2026-07-21T13:06:31.000Z</time></trkpt>
        <trkpt lat="29.528953" lon="103.328899"><ele>2885.4646</ele><time>2026-07-21T13:06:33.000Z</time></trkpt>
        <trkpt lat="29.528938" lon="103.328938"><ele>2884.9753</ele><time>2026-07-21T13:06:38.000Z</time></trkpt>
        <trkpt lat="29.528938" lon="103.328938"><ele>2885.7598</ele><time>2026-07-21T13:06:40.000Z</time></trkpt>
        <trkpt lat="29.528938" lon="103.328939"><ele>2886.2964</ele><time>2026-07-21T13:06:42.000Z</time></trkpt>
        <trkpt lat="29.528922" lon="103.328972"><ele>2887.101</ele><time>2026-07-21T13:06:48.000Z</time></trkpt>
        <trkpt lat="29.528914" lon="103.328986"><ele>2887.3923</ele><time>2026-07-21T13:06:50.000Z</time></trkpt>
        <trkpt lat="29.528907" lon="103.328995"><ele>2887.998</ele><time>2026-07-21T13:06:52.000Z</time></trkpt>
        <trkpt lat="29.528897" lon="103.329003"><ele>2889.0547</ele><time>2026-07-21T13:06:54.000Z</time></trkpt>
        <trkpt lat="29.52889" lon="103.32901"><ele>2889.8936</ele><time>2026-07-21T13:06:56.000Z</time></trkpt>
        <trkpt lat="29.528882" lon="103.329018"><ele>2890.779</ele><time>2026-07-21T13:06:58.000Z</time></trkpt>
        <trkpt lat="29.528866" lon="103.329033"><ele>2890.1096</ele><time>2026-07-21T13:07:02.000Z</time></trkpt>
        <trkpt lat="29.528858" lon="103.329038"><ele>2890.448</ele><time>2026-07-21T13:07:04.000Z</time></trkpt>
        <trkpt lat="29.528851" lon="103.329044"><ele>2891.1077</ele><time>2026-07-21T13:07:06.000Z</time></trkpt>
        <trkpt lat="29.528839" lon="103.329056"><ele>2891.8281</ele><time>2026-07-21T13:07:10.000Z</time></trkpt>
        <trkpt lat="29.528833" lon="103.329066"><ele>2891.2568</ele><time>2026-07-21T13:07:12.000Z</time></trkpt>
        <trkpt lat="29.52883" lon="103.329076"><ele>2891.4724</ele><time>2026-07-21T13:07:14.000Z</time></trkpt>
        <trkpt lat="29.528824" lon="103.329091"><ele>2893.5574</ele><time>2026-07-21T13:07:20.000Z</time></trkpt>
        <trkpt lat="29.528823" lon="103.329098"><ele>2894.365</ele><time>2026-07-21T13:07:22.000Z</time></trkpt>
        <trkpt lat="29.528819" lon="103.329114"><ele>2894.3179</ele><time>2026-07-21T13:07:26.000Z</time></trkpt>
        <trkpt lat="29.528814" lon="103.329135"><ele>2894.4485</ele><time>2026-07-21T13:07:28.000Z</time></trkpt>
        <trkpt lat="29.528814" lon="103.329136"><ele>2893.955</ele><time>2026-07-21T13:07:30.000Z</time></trkpt>
        <trkpt lat="29.528808" lon="103.329148"><ele>2892.7852</ele><time>2026-07-21T13:07:34.000Z</time></trkpt>
        <trkpt lat="29.528795" lon="103.329172"><ele>2891.0486</ele><time>2026-07-21T13:07:36.000Z</time></trkpt>
        <trkpt lat="29.528779" lon="103.3292"><ele>2890.9243</ele><time>2026-07-21T13:07:38.000Z</time></trkpt>
        <trkpt lat="29.528765" lon="103.329221"><ele>2892.232</ele><time>2026-07-21T13:07:40.000Z</time></trkpt>
        <trkpt lat="29.528753" lon="103.32924"><ele>2892.8574</ele><time>2026-07-21T13:07:42.000Z</time></trkpt>
        <trkpt lat="29.528742" lon="103.329259"><ele>2894.111</ele><time>2026-07-21T13:07:44.000Z</time></trkpt>
        <trkpt lat="29.528733" lon="103.329278"><ele>2894.0935</ele><time>2026-07-21T13:07:46.000Z</time></trkpt>
        <trkpt lat="29.528724" lon="103.329295"><ele>2894.6196</ele><time>2026-07-21T13:07:48.000Z</time></trkpt>
        <trkpt lat="29.528715" lon="103.329309"><ele>2895.0789</ele><time>2026-07-21T13:07:50.000Z</time></trkpt>
        <trkpt lat="29.528708" lon="103.329321"><ele>2896.1313</ele><time>2026-07-21T13:07:52.000Z</time></trkpt>
        <trkpt lat="29.528702" lon="103.329333"><ele>2896.1074</ele><time>2026-07-21T13:07:54.000Z</time></trkpt>
        <trkpt lat="29.528697" lon="103.329345"><ele>2897.173</ele><time>2026-07-21T13:07:56.000Z</time></trkpt>
        <trkpt lat="29.528692" lon="103.329357"><ele>2897.301</ele><time>2026-07-21T13:07:58.000Z</time></trkpt>
        <trkpt lat="29.528686" lon="103.329368"><ele>2897.709</ele><time>2026-07-21T13:08:00.000Z</time></trkpt>
        <trkpt lat="29.528681" lon="103.329379"><ele>2897.8962</ele><time>2026-07-21T13:08:02.000Z</time></trkpt>
        <trkpt lat="29.528676" lon="103.329393"><ele>2898.21</ele><time>2026-07-21T13:08:04.000Z</time></trkpt>
        <trkpt lat="29.528673" lon="103.329411"><ele>2897.623</ele><time>2026-07-21T13:08:06.000Z</time></trkpt>
        <trkpt lat="29.52867" lon="103.329429"><ele>2897.2856</ele><time>2026-07-21T13:08:08.000Z</time></trkpt>
        <trkpt lat="29.528668" lon="103.32945"><ele>2897.5366</ele><time>2026-07-21T13:08:10.000Z</time></trkpt>
        <trkpt lat="29.528665" lon="103.329467"><ele>2896.8489</ele><time>2026-07-21T13:08:12.000Z</time></trkpt>
        <trkpt lat="29.528661" lon="103.329481"><ele>2896.7917</ele><time>2026-07-21T13:08:14.000Z</time></trkpt>
        <trkpt lat="29.528656" lon="103.329494"><ele>2896.3938</ele><time>2026-07-21T13:08:16.000Z</time></trkpt>
        <trkpt lat="29.528652" lon="103.329509"><ele>2895.722</ele><time>2026-07-21T13:08:18.000Z</time></trkpt>
        <trkpt lat="29.528648" lon="103.329522"><ele>2895.5361</ele><time>2026-07-21T13:08:20.000Z</time></trkpt>
        <trkpt lat="29.528645" lon="103.329535"><ele>2896.6858</ele><time>2026-07-21T13:08:22.000Z</time></trkpt>
        <trkpt lat="29.528644" lon="103.329545"><ele>2897.712</ele><time>2026-07-21T13:08:24.000Z</time></trkpt>
        <trkpt lat="29.528643" lon="103.329557"><ele>2898.7354</ele><time>2026-07-21T13:08:26.000Z</time></trkpt>
        <trkpt lat="29.528641" lon="103.329571"><ele>2899.0027</ele><time>2026-07-21T13:08:28.000Z</time></trkpt>
        <trkpt lat="29.528639" lon="103.329581"><ele>2899.6562</ele><time>2026-07-21T13:08:30.000Z</time></trkpt>
        <trkpt lat="29.528638" lon="103.329597"><ele>2901.0889</ele><time>2026-07-21T13:08:34.000Z</time></trkpt>
        <trkpt lat="29.528637" lon="103.329612"><ele>2900.787</ele><time>2026-07-21T13:08:36.000Z</time></trkpt>
        <trkpt lat="29.528636" lon="103.329616"><ele>2900.4858</ele><time>2026-07-21T13:08:40.000Z</time></trkpt>
        <trkpt lat="29.528627" lon="103.329648"><ele>2900.5286</ele><time>2026-07-21T13:08:44.000Z</time></trkpt>
        <trkpt lat="29.528621" lon="103.32967"><ele>2900.7693</ele><time>2026-07-21T13:08:46.000Z</time></trkpt>
        <trkpt lat="29.528616" lon="103.32969"><ele>2901.2356</ele><time>2026-07-21T13:08:48.000Z</time></trkpt>
        <trkpt lat="29.52861" lon="103.32971"><ele>2900.997</ele><time>2026-07-21T13:08:50.000Z</time></trkpt>
        <trkpt lat="29.528604" lon="103.329734"><ele>2900.9656</ele><time>2026-07-21T13:08:52.000Z</time></trkpt>
        <trkpt lat="29.5286" lon="103.329754"><ele>2901.2166</ele><time>2026-07-21T13:08:54.000Z</time></trkpt>
        <trkpt lat="29.528598" lon="103.32977"><ele>2900.7888</ele><time>2026-07-21T13:08:56.000Z</time></trkpt>
        <trkpt lat="29.528597" lon="103.32979"><ele>2899.4702</ele><time>2026-07-21T13:08:58.000Z</time></trkpt>
        <trkpt lat="29.528596" lon="103.329812"><ele>2899.259</ele><time>2026-07-21T13:09:00.000Z</time></trkpt>
        <trkpt lat="29.528596" lon="103.32983"><ele>2900.7056</ele><time>2026-07-21T13:09:02.000Z</time></trkpt>
        <trkpt lat="29.528597" lon="103.329847"><ele>2901.151</ele><time>2026-07-21T13:09:04.000Z</time></trkpt>
        <trkpt lat="29.528597" lon="103.329863"><ele>2901.169</ele><time>2026-07-21T13:09:06.000Z</time></trkpt>
        <trkpt lat="29.528597" lon="103.329875"><ele>2902.4768</ele><time>2026-07-21T13:09:08.000Z</time></trkpt>
        <trkpt lat="29.528594" lon="103.329888"><ele>2902.0652</ele><time>2026-07-21T13:09:10.000Z</time></trkpt>
        <trkpt lat="29.52859" lon="103.329899"><ele>2901.5972</ele><time>2026-07-21T13:09:12.000Z</time></trkpt>
        <trkpt lat="29.528583" lon="103.329912"><ele>2901.7703</ele><time>2026-07-21T13:09:14.000Z</time></trkpt>
        <trkpt lat="29.528577" lon="103.329926"><ele>2901.9224</ele><time>2026-07-21T13:09:16.000Z</time></trkpt>
        <trkpt lat="29.528576" lon="103.329936"><ele>2901.836</ele><time>2026-07-21T13:09:18.000Z</time></trkpt>
        <trkpt lat="29.52857" lon="103.32994"><ele>2903.2158</ele><time>2026-07-21T13:09:26.000Z</time></trkpt>
        <trkpt lat="29.528562" lon="103.329956"><ele>2904.6782</ele><time>2026-07-21T13:09:36.000Z</time></trkpt>
        <trkpt lat="29.528554" lon="103.32997"><ele>2904.4924</ele><time>2026-07-21T13:09:57.000Z</time></trkpt>
        <trkpt lat="29.528551" lon="103.329973"><ele>2903.6191</ele><time>2026-07-21T13:09:59.000Z</time></trkpt>
        <trkpt lat="29.528535" lon="103.329989"><ele>2902.553</ele><time>2026-07-21T13:10:05.000Z</time></trkpt>
        <trkpt lat="29.528519" lon="103.330004"><ele>2902.1672</ele><time>2026-07-21T13:10:07.000Z</time></trkpt>
        <trkpt lat="29.528518" lon="103.330005"><ele>2900.487</ele><time>2026-07-21T13:10:09.000Z</time></trkpt>
        <trkpt lat="29.528511" lon="103.330018"><ele>2902.4434</ele><time>2026-07-21T13:10:13.000Z</time></trkpt>
        <trkpt lat="29.528501" lon="103.330033"><ele>2902.2932</ele><time>2026-07-21T13:10:15.000Z</time></trkpt>
        <trkpt lat="29.528489" lon="103.330049"><ele>2901.9731</ele><time>2026-07-21T13:10:17.000Z</time></trkpt>
        <trkpt lat="29.528476" lon="103.330062"><ele>2901.926</ele><time>2026-07-21T13:10:19.000Z</time></trkpt>
        <trkpt lat="29.528468" lon="103.330073"><ele>2901.77</ele><time>2026-07-21T13:10:21.000Z</time></trkpt>
        <trkpt lat="29.52846" lon="103.330084"><ele>2901.8132</ele><time>2026-07-21T13:10:23.000Z</time></trkpt>
        <trkpt lat="29.528453" lon="103.330097"><ele>2903.4219</ele><time>2026-07-21T13:10:25.000Z</time></trkpt>
        <trkpt lat="29.528446" lon="103.330111"><ele>2902.9895</ele><time>2026-07-21T13:10:27.000Z</time></trkpt>
        <trkpt lat="29.528438" lon="103.330126"><ele>2901.594</ele><time>2026-07-21T13:10:29.000Z</time></trkpt>
        <trkpt lat="29.528429" lon="103.330141"><ele>2901.353</ele><time>2026-07-21T13:10:31.000Z</time></trkpt>
        <trkpt lat="29.528418" lon="103.330152"><ele>2900.0068</ele><time>2026-07-21T13:10:33.000Z</time></trkpt>
        <trkpt lat="29.528406" lon="103.330164"><ele>2899.2974</ele><time>2026-07-21T13:10:35.000Z</time></trkpt>
        <trkpt lat="29.528395" lon="103.330175"><ele>2899.1956</ele><time>2026-07-21T13:10:37.000Z</time></trkpt>
        <trkpt lat="29.528387" lon="103.330185"><ele>2898.5356</ele><time>2026-07-21T13:10:39.000Z</time></trkpt>
        <trkpt lat="29.528388" lon="103.330187"><ele>2898.2344</ele><time>2026-07-21T13:10:41.000Z</time></trkpt>
        <trkpt lat="29.528401" lon="103.330211"><ele>2897.965</ele><time>2026-07-21T13:10:47.000Z</time></trkpt>
        <trkpt lat="29.528412" lon="103.330231"><ele>2897.5684</ele><time>2026-07-21T13:10:49.000Z</time></trkpt>
        <trkpt lat="29.528412" lon="103.330233"><ele>2898.0325</ele><time>2026-07-21T13:10:51.000Z</time></trkpt>
        <trkpt lat="29.528413" lon="103.330249"><ele>2899.1846</ele><time>2026-07-21T13:10:55.000Z</time></trkpt>
        <trkpt lat="29.528413" lon="103.330272"><ele>2899.1985</ele><time>2026-07-21T13:10:57.000Z</time></trkpt>
        <trkpt lat="29.528416" lon="103.330301"><ele>2899.2708</ele><time>2026-07-21T13:10:59.000Z</time></trkpt>
        <trkpt lat="29.52842" lon="103.330327"><ele>2899.4631</ele><time>2026-07-21T13:11:01.000Z</time></trkpt>
        <trkpt lat="29.528422" lon="103.330343"><ele>2899.5479</ele><time>2026-07-21T13:11:03.000Z</time></trkpt>
        <trkpt lat="29.528422" lon="103.330343"><ele>2900.1987</ele><time>2026-07-21T13:11:05.000Z</time></trkpt>
        <trkpt lat="29.528389" lon="103.330336"><ele>2904.4792</ele><time>2026-07-21T13:11:17.000Z</time></trkpt>
        <trkpt lat="29.528389" lon="103.330336"><ele>2904.6694</ele><time>2026-07-21T13:11:19.000Z</time></trkpt>
        <trkpt lat="29.528393" lon="103.330332"><ele>2902.148</ele><time>2026-07-21T13:11:33.000Z</time></trkpt>
        <trkpt lat="29.528359" lon="103.330373"><ele>2904.5605</ele><time>2026-07-21T13:12:22.000Z</time></trkpt>
        <trkpt lat="29.528361" lon="103.330361"><ele>2904.6453</ele><time>2026-07-21T13:12:26.000Z</time></trkpt>
        <trkpt lat="29.528363" lon="103.330361"><ele>2901.822</ele><time>2026-07-21T13:12:48.000Z</time></trkpt>
        <trkpt lat="29.528323" lon="103.330368"><ele>2900.876</ele><time>2026-07-21T13:12:56.000Z</time></trkpt>
        <trkpt lat="29.528323" lon="103.330368"><ele>2900.859</ele><time>2026-07-21T13:12:58.000Z</time></trkpt>
        <trkpt lat="29.528322" lon="103.330367"><ele>2902.2185</ele><time>2026-07-21T13:13:00.000Z</time></trkpt>
        <trkpt lat="29.528291" lon="103.330344"><ele>2902.747</ele><time>2026-07-21T13:13:06.000Z</time></trkpt>
        <trkpt lat="29.528291" lon="103.330344"><ele>2902.735</ele><time>2026-07-21T13:13:08.000Z</time></trkpt>
        <trkpt lat="29.528291" lon="103.330344"><ele>2902.3838</ele><time>2026-07-21T13:13:10.000Z</time></trkpt>
        <trkpt lat="29.528288" lon="103.330379"><ele>2903.4353</ele><time>2026-07-21T13:13:26.000Z</time></trkpt>
        <trkpt lat="29.528288" lon="103.330396"><ele>2904.6445</ele><time>2026-07-21T13:13:28.000Z</time></trkpt>
        <trkpt lat="29.528288" lon="103.330397"><ele>2906.2312</ele><time>2026-07-21T13:13:30.000Z</time></trkpt>
        <trkpt lat="29.528287" lon="103.330417"><ele>2906.9016</ele><time>2026-07-21T13:13:36.000Z</time></trkpt>
        <trkpt lat="29.528288" lon="103.330432"><ele>2907.3765</ele><time>2026-07-21T13:13:38.000Z</time></trkpt>
        <trkpt lat="29.528289" lon="103.330447"><ele>2907.9834</ele><time>2026-07-21T13:13:40.000Z</time></trkpt>
        <trkpt lat="29.528291" lon="103.33046"><ele>2908.4094</ele><time>2026-07-21T13:13:42.000Z</time></trkpt>
        <trkpt lat="29.528295" lon="103.330475"><ele>2908.0435</ele><time>2026-07-21T13:13:44.000Z</time></trkpt>
        <trkpt lat="29.5283" lon="103.330488"><ele>2907.9834</ele><time>2026-07-21T13:13:46.000Z</time></trkpt>
        <trkpt lat="29.528304" lon="103.330497"><ele>2908.7173</ele><time>2026-07-21T13:13:48.000Z</time></trkpt>
        <trkpt lat="29.528311" lon="103.330512"><ele>2908.119</ele><time>2026-07-21T13:13:50.000Z</time></trkpt>
        <trkpt lat="29.528316" lon="103.330524"><ele>2907.6672</ele><time>2026-07-21T13:13:52.000Z</time></trkpt>
        <trkpt lat="29.528319" lon="103.330534"><ele>2907.9446</ele><time>2026-07-21T13:13:54.000Z</time></trkpt>
        <trkpt lat="29.528322" lon="103.330553"><ele>2909.6814</ele><time>2026-07-21T13:13:58.000Z</time></trkpt>
        <trkpt lat="29.528321" lon="103.330564"><ele>2908.5208</ele><time>2026-07-21T13:14:00.000Z</time></trkpt>
        <trkpt lat="29.528318" lon="103.330576"><ele>2908.7312</ele><time>2026-07-21T13:14:02.000Z</time></trkpt>
        <trkpt lat="29.528315" lon="103.330586"><ele>2908.5176</ele><time>2026-07-21T13:14:04.000Z</time></trkpt>
        <trkpt lat="29.528311" lon="103.330599"><ele>2909.3926</ele><time>2026-07-21T13:14:06.000Z</time></trkpt>
        <trkpt lat="29.528308" lon="103.330611"><ele>2909.511</ele><time>2026-07-21T13:14:08.000Z</time></trkpt>
        <trkpt lat="29.528306" lon="103.330622"><ele>2909.5613</ele><time>2026-07-21T13:14:10.000Z</time></trkpt>
        <trkpt lat="29.528304" lon="103.330634"><ele>2909.4695</ele><time>2026-07-21T13:14:12.000Z</time></trkpt>
        <trkpt lat="29.528301" lon="103.330645"><ele>2909.849</ele><time>2026-07-21T13:14:14.000Z</time></trkpt>
        <trkpt lat="29.528296" lon="103.33066"><ele>2911.6975</ele><time>2026-07-21T13:14:18.000Z</time></trkpt>
        <trkpt lat="29.528292" lon="103.330666"><ele>2911.5952</ele><time>2026-07-21T13:14:20.000Z</time></trkpt>
        <trkpt lat="29.528284" lon="103.330682"><ele>2911.6113</ele><time>2026-07-21T13:14:24.000Z</time></trkpt>
        <trkpt lat="29.52828" lon="103.33069"><ele>2912.2283</ele><time>2026-07-21T13:14:26.000Z</time></trkpt>
        <trkpt lat="29.528274" lon="103.330697"><ele>2913.1646</ele><time>2026-07-21T13:14:28.000Z</time></trkpt>
        <trkpt lat="29.528258" lon="103.330713"><ele>2912.2551</ele><time>2026-07-21T13:14:32.000Z</time></trkpt>
        <trkpt lat="29.528249" lon="103.33072"><ele>2912.4102</ele><time>2026-07-21T13:14:34.000Z</time></trkpt>
        <trkpt lat="29.528237" lon="103.330729"><ele>2911.9175</ele><time>2026-07-21T13:14:36.000Z</time></trkpt>
        <trkpt lat="29.528224" lon="103.330737"><ele>2911.983</ele><time>2026-07-21T13:14:38.000Z</time></trkpt>
        <trkpt lat="29.528215" lon="103.330744"><ele>2912.4268</ele><time>2026-07-21T13:14:40.000Z</time></trkpt>
        <trkpt lat="29.528209" lon="103.330751"><ele>2912.9216</ele><time>2026-07-21T13:14:42.000Z</time></trkpt>
        <trkpt lat="29.528207" lon="103.330764"><ele>2912.7087</ele><time>2026-07-21T13:14:48.000Z</time></trkpt>
        <trkpt lat="29.528206" lon="103.330778"><ele>2910.7976</ele><time>2026-07-21T13:14:52.000Z</time></trkpt>
        <trkpt lat="29.528203" lon="103.33078"><ele>2910.701</ele><time>2026-07-21T13:14:56.000Z</time></trkpt>
        <trkpt lat="29.528183" lon="103.33079"><ele>2914.7454</ele><time>2026-07-21T13:15:32.000Z</time></trkpt>
        <trkpt lat="29.528178" lon="103.330792"><ele>2915.9055</ele><time>2026-07-21T13:15:34.000Z</time></trkpt>
        <trkpt lat="29.528163" lon="103.3308"><ele>2916.9934</ele><time>2026-07-21T13:15:36.000Z</time></trkpt>
        <trkpt lat="29.528157" lon="103.330806"><ele>2917.7273</ele><time>2026-07-21T13:15:42.000Z</time></trkpt>
        <trkpt lat="29.528149" lon="103.330818"><ele>2918.335</ele><time>2026-07-21T13:15:44.000Z</time></trkpt>
        <trkpt lat="29.528139" lon="103.330836"><ele>2917.5405</ele><time>2026-07-21T13:15:46.000Z</time></trkpt>
        <trkpt lat="29.528129" lon="103.330855"><ele>2918.9443</ele><time>2026-07-21T13:15:48.000Z</time></trkpt>
        <trkpt lat="29.528121" lon="103.330871"><ele>2919.397</ele><time>2026-07-21T13:15:50.000Z</time></trkpt>
        <trkpt lat="29.528116" lon="103.330885"><ele>2919.5007</ele><time>2026-07-21T13:15:52.000Z</time></trkpt>
        <trkpt lat="29.528108" lon="103.330904"><ele>2919.1252</ele><time>2026-07-21T13:15:54.000Z</time></trkpt>
        <trkpt lat="29.528101" lon="103.330923"><ele>2919.0776</ele><time>2026-07-21T13:15:56.000Z</time></trkpt>
        <trkpt lat="29.528096" lon="103.33094"><ele>2919.8147</ele><time>2026-07-21T13:15:58.000Z</time></trkpt>
        <trkpt lat="29.528089" lon="103.330963"><ele>2919.1367</ele><time>2026-07-21T13:16:00.000Z</time></trkpt>
        <trkpt lat="29.528082" lon="103.330983"><ele>2919.9014</ele><time>2026-07-21T13:16:02.000Z</time></trkpt>
        <trkpt lat="29.528077" lon="103.331001"><ele>2921.4224</ele><time>2026-07-21T13:16:04.000Z</time></trkpt>
        <trkpt lat="29.528073" lon="103.331015"><ele>2922.7668</ele><time>2026-07-21T13:16:06.000Z</time></trkpt>
        <trkpt lat="29.528068" lon="103.331034"><ele>2921.7925</ele><time>2026-07-21T13:16:08.000Z</time></trkpt>
        <trkpt lat="29.528063" lon="103.331047"><ele>2922.232</ele><time>2026-07-21T13:16:10.000Z</time></trkpt>
        <trkpt lat="29.52806" lon="103.331056"><ele>2922.0857</ele><time>2026-07-21T13:16:12.000Z</time></trkpt>
        <trkpt lat="29.528055" lon="103.331065"><ele>2921.9653</ele><time>2026-07-21T13:16:14.000Z</time></trkpt>
        <trkpt lat="29.528044" lon="103.331082"><ele>2923.8071</ele><time>2026-07-21T13:16:18.000Z</time></trkpt>
        <trkpt lat="29.528037" lon="103.331093"><ele>2923.7603</ele><time>2026-07-21T13:16:20.000Z</time></trkpt>
        <trkpt lat="29.528037" lon="103.331094"><ele>2923.6985</ele><time>2026-07-21T13:16:22.000Z</time></trkpt>
        <trkpt lat="29.528025" lon="103.331128"><ele>2923.9382</ele><time>2026-07-21T13:16:28.000Z</time></trkpt>
        <trkpt lat="29.528016" lon="103.33115"><ele>2924.1335</ele><time>2026-07-21T13:16:30.000Z</time></trkpt>
        <trkpt lat="29.528007" lon="103.33117"><ele>2924.578</ele><time>2026-07-21T13:16:32.000Z</time></trkpt>
        <trkpt lat="29.528" lon="103.331189"><ele>2924.7466</ele><time>2026-07-21T13:16:34.000Z</time></trkpt>
        <trkpt lat="29.527996" lon="103.3312"><ele>2924.7231</ele><time>2026-07-21T13:16:36.000Z</time></trkpt>
        <trkpt lat="29.527995" lon="103.331205"><ele>2925.5264</ele><time>2026-07-21T13:16:38.000Z</time></trkpt>
        <trkpt lat="29.527986" lon="103.331222"><ele>2925.3684</ele><time>2026-07-21T13:17:04.000Z</time></trkpt>
        <trkpt lat="29.527976" lon="103.331242"><ele>2924.41</ele><time>2026-07-21T13:17:06.000Z</time></trkpt>
        <trkpt lat="29.527975" lon="103.331243"><ele>2924.563</ele><time>2026-07-21T13:17:08.000Z</time></trkpt>
        <trkpt lat="29.527956" lon="103.331256"><ele>2924.91</ele><time>2026-07-21T13:17:14.000Z</time></trkpt>
        <trkpt lat="29.527943" lon="103.331266"><ele>2925.843</ele><time>2026-07-21T13:17:16.000Z</time></trkpt>
        <trkpt lat="29.52793" lon="103.331277"><ele>2926.454</ele><time>2026-07-21T13:17:18.000Z</time></trkpt>
        <trkpt lat="29.527915" lon="103.331292"><ele>2926.6938</ele><time>2026-07-21T13:17:20.000Z</time></trkpt>
        <trkpt lat="29.527904" lon="103.331304"><ele>2926.9058</ele><time>2026-07-21T13:17:22.000Z</time></trkpt>
        <trkpt lat="29.527893" lon="103.331318"><ele>2927.665</ele><time>2026-07-21T13:17:24.000Z</time></trkpt>
        <trkpt lat="29.527884" lon="103.331329"><ele>2927.874</ele><time>2026-07-21T13:17:26.000Z</time></trkpt>
        <trkpt lat="29.527874" lon="103.331341"><ele>2928.3845</ele><time>2026-07-21T13:17:28.000Z</time></trkpt>
        <trkpt lat="29.527863" lon="103.331354"><ele>2928.7273</ele><time>2026-07-21T13:17:30.000Z</time></trkpt>
        <trkpt lat="29.527855" lon="103.331364"><ele>2928.9248</ele><time>2026-07-21T13:17:32.000Z</time></trkpt>
        <trkpt lat="29.527848" lon="103.331376"><ele>2929.3162</ele><time>2026-07-21T13:17:34.000Z</time></trkpt>
        <trkpt lat="29.52784" lon="103.331392"><ele>2929.2334</ele><time>2026-07-21T13:17:36.000Z</time></trkpt>
        <trkpt lat="29.527833" lon="103.331406"><ele>2929.5137</ele><time>2026-07-21T13:17:38.000Z</time></trkpt>
        <trkpt lat="29.527824" lon="103.331421"><ele>2929.5225</ele><time>2026-07-21T13:17:40.000Z</time></trkpt>
        <trkpt lat="29.527816" lon="103.331429"><ele>2929.8474</ele><time>2026-07-21T13:17:42.000Z</time></trkpt>
        <trkpt lat="29.527807" lon="103.331434"><ele>2929.8677</ele><time>2026-07-21T13:17:44.000Z</time></trkpt>
        <trkpt lat="29.527796" lon="103.331444"><ele>2931.4844</ele><time>2026-07-21T13:17:48.000Z</time></trkpt>
        <trkpt lat="29.527792" lon="103.331452"><ele>2934.5967</ele><time>2026-07-21T13:17:52.000Z</time></trkpt>
        <trkpt lat="29.527784" lon="103.331464"><ele>2935.6816</ele><time>2026-07-21T13:17:56.000Z</time></trkpt>
        <trkpt lat="29.527777" lon="103.33148"><ele>2938.1057</ele><time>2026-07-21T13:18:00.000Z</time></trkpt>
        <trkpt lat="29.527768" lon="103.331502"><ele>2937.371</ele><time>2026-07-21T13:18:02.000Z</time></trkpt>
        <trkpt lat="29.527767" lon="103.331504"><ele>2936.7605</ele><time>2026-07-21T13:18:04.000Z</time></trkpt>
        <trkpt lat="29.527759" lon="103.331519"><ele>2935.9763</ele><time>2026-07-21T13:18:08.000Z</time></trkpt>
        <trkpt lat="29.527749" lon="103.331539"><ele>2935.5728</ele><time>2026-07-21T13:18:10.000Z</time></trkpt>
        <trkpt lat="29.527737" lon="103.331565"><ele>2935.1177</ele><time>2026-07-21T13:18:12.000Z</time></trkpt>
        <trkpt lat="29.527729" lon="103.331587"><ele>2936.2388</ele><time>2026-07-21T13:18:14.000Z</time></trkpt>
        <trkpt lat="29.527723" lon="103.331604"><ele>2937.379</ele><time>2026-07-21T13:18:16.000Z</time></trkpt>
        <trkpt lat="29.527719" lon="103.33162"><ele>2937.4583</ele><time>2026-07-21T13:18:18.000Z</time></trkpt>
        <trkpt lat="29.527716" lon="103.331631"><ele>2936.8606</ele><time>2026-07-21T13:18:20.000Z</time></trkpt>
        <trkpt lat="29.527713" lon="103.331641"><ele>2937.4824</ele><time>2026-07-21T13:18:22.000Z</time></trkpt>
        <trkpt lat="29.527713" lon="103.331654"><ele>2937.9912</ele><time>2026-07-21T13:18:24.000Z</time></trkpt>
        <trkpt lat="29.527713" lon="103.331667"><ele>2937.6052</ele><time>2026-07-21T13:18:26.000Z</time></trkpt>
        <trkpt lat="29.527713" lon="103.331683"><ele>2937.391</ele><time>2026-07-21T13:18:28.000Z</time></trkpt>
        <trkpt lat="29.527712" lon="103.331703"><ele>2937.8425</ele><time>2026-07-21T13:18:30.000Z</time></trkpt>
        <trkpt lat="29.527711" lon="103.331728"><ele>2936.6929</ele><time>2026-07-21T13:18:32.000Z</time></trkpt>
        <trkpt lat="29.527709" lon="103.331753"><ele>2936.3364</ele><time>2026-07-21T13:18:34.000Z</time></trkpt>
        <trkpt lat="29.527708" lon="103.331774"><ele>2936.8655</ele><time>2026-07-21T13:18:36.000Z</time></trkpt>
        <trkpt lat="29.527706" lon="103.331794"><ele>2936.7585</ele><time>2026-07-21T13:18:38.000Z</time></trkpt>
        <trkpt lat="29.527704" lon="103.331816"><ele>2935.595</ele><time>2026-07-21T13:18:40.000Z</time></trkpt>
        <trkpt lat="29.527703" lon="103.331841"><ele>2934.9412</ele><time>2026-07-21T13:18:42.000Z</time></trkpt>
        <trkpt lat="29.527703" lon="103.331861"><ele>2934.9143</ele><time>2026-07-21T13:18:44.000Z</time></trkpt>
        <trkpt lat="29.527702" lon="103.331879"><ele>2935.6511</ele><time>2026-07-21T13:18:46.000Z</time></trkpt>
        <trkpt lat="29.527701" lon="103.331891"><ele>2936.5642</ele><time>2026-07-21T13:18:48.000Z</time></trkpt>
        <trkpt lat="29.5277" lon="103.331901"><ele>2938.02</ele><time>2026-07-21T13:18:50.000Z</time></trkpt>
        <trkpt lat="29.527699" lon="103.33192"><ele>2938.2947</ele><time>2026-07-21T13:18:54.000Z</time></trkpt>
        <trkpt lat="29.527699" lon="103.331931"><ele>2937.661</ele><time>2026-07-21T13:18:56.000Z</time></trkpt>
        <trkpt lat="29.527698" lon="103.331943"><ele>2938.3308</ele><time>2026-07-21T13:18:58.000Z</time></trkpt>
        <trkpt lat="29.527697" lon="103.331954"><ele>2938.6707</ele><time>2026-07-21T13:19:00.000Z</time></trkpt>
        <trkpt lat="29.527696" lon="103.331966"><ele>2939.7095</ele><time>2026-07-21T13:19:02.000Z</time></trkpt>
        <trkpt lat="29.527694" lon="103.331976"><ele>2939.62</ele><time>2026-07-21T13:19:04.000Z</time></trkpt>
        <trkpt lat="29.52769" lon="103.331987"><ele>2940.2747</ele><time>2026-07-21T13:19:06.000Z</time></trkpt>
        <trkpt lat="29.52768" lon="103.332011"><ele>2940.984</ele><time>2026-07-21T13:19:10.000Z</time></trkpt>
        <trkpt lat="29.527675" lon="103.332021"><ele>2940.313</ele><time>2026-07-21T13:19:12.000Z</time></trkpt>
        <trkpt lat="29.527673" lon="103.332028"><ele>2940.0361</ele><time>2026-07-21T13:19:14.000Z</time></trkpt>
        <trkpt lat="29.527664" lon="103.332047"><ele>2939.2698</ele><time>2026-07-21T13:19:18.000Z</time></trkpt>
        <trkpt lat="29.527659" lon="103.33205"><ele>2939.7883</ele><time>2026-07-21T13:19:20.000Z</time></trkpt>
        <trkpt lat="29.527648" lon="103.332057"><ele>2940.2993</ele><time>2026-07-21T13:19:22.000Z</time></trkpt>
        <trkpt lat="29.527634" lon="103.332069"><ele>2941.303</ele><time>2026-07-21T13:19:32.000Z</time></trkpt>
        <trkpt lat="29.527633" lon="103.332073"><ele>2941.7952</ele><time>2026-07-21T13:19:34.000Z</time></trkpt>
        <trkpt lat="29.527627" lon="103.332085"><ele>2940.1497</ele><time>2026-07-21T13:19:38.000Z</time></trkpt>
        <trkpt lat="29.527616" lon="103.332098"><ele>2938.8643</ele><time>2026-07-21T13:19:42.000Z</time></trkpt>
        <trkpt lat="29.527611" lon="103.3321"><ele>2938.8816</ele><time>2026-07-21T13:19:44.000Z</time></trkpt>
        <trkpt lat="29.527595" lon="103.332107"><ele>2939.4097</ele><time>2026-07-21T13:19:46.000Z</time></trkpt>
        <trkpt lat="29.527585" lon="103.332117"><ele>2940.8357</ele><time>2026-07-21T13:19:54.000Z</time></trkpt>
        <trkpt lat="29.527572" lon="103.332132"><ele>2941.7517</ele><time>2026-07-21T13:19:56.000Z</time></trkpt>
        <trkpt lat="29.527571" lon="103.332132"><ele>2942.3914</ele><time>2026-07-21T13:19:58.000Z</time></trkpt>
        <trkpt lat="29.527553" lon="103.332142"><ele>2942.3425</ele><time>2026-07-21T13:20:04.000Z</time></trkpt>
        <trkpt lat="29.527545" lon="103.332151"><ele>2942.5244</ele><time>2026-07-21T13:20:06.000Z</time></trkpt>
        <trkpt lat="29.527539" lon="103.332161"><ele>2942.2246</ele><time>2026-07-21T13:20:08.000Z</time></trkpt>
        <trkpt lat="29.527538" lon="103.332174"><ele>2941.7842</ele><time>2026-07-21T13:20:10.000Z</time></trkpt>
        <trkpt lat="29.527536" lon="103.33219"><ele>2942.921</ele><time>2026-07-21T13:20:12.000Z</time></trkpt>
        <trkpt lat="29.527535" lon="103.332203"><ele>2944.0798</ele><time>2026-07-21T13:20:14.000Z</time></trkpt>
        <trkpt lat="29.527535" lon="103.332214"><ele>2945.6565</ele><time>2026-07-21T13:20:16.000Z</time></trkpt>
        <trkpt lat="29.527537" lon="103.332223"><ele>2945.6953</ele><time>2026-07-21T13:20:18.000Z</time></trkpt>
        <trkpt lat="29.527542" lon="103.332244"><ele>2946.1287</ele><time>2026-07-21T13:20:22.000Z</time></trkpt>
        <trkpt lat="29.527543" lon="103.332253"><ele>2946.044</ele><time>2026-07-21T13:20:24.000Z</time></trkpt>
        <trkpt lat="29.527546" lon="103.332262"><ele>2945.6458</ele><time>2026-07-21T13:20:26.000Z</time></trkpt>
        <trkpt lat="29.527548" lon="103.332281"><ele>2947.1619</ele><time>2026-07-21T13:20:30.000Z</time></trkpt>
        <trkpt lat="29.527547" lon="103.332289"><ele>2946.585</ele><time>2026-07-21T13:20:32.000Z</time></trkpt>
        <trkpt lat="29.527552" lon="103.332301"><ele>2945.699</ele><time>2026-07-21T13:20:34.000Z</time></trkpt>
        <trkpt lat="29.527561" lon="103.332317"><ele>2947.8704</ele><time>2026-07-21T13:20:42.000Z</time></trkpt>
        <trkpt lat="29.527561" lon="103.332324"><ele>2949.1318</ele><time>2026-07-21T13:20:44.000Z</time></trkpt>
        <trkpt lat="29.527557" lon="103.332334"><ele>2949.1492</ele><time>2026-07-21T13:20:48.000Z</time></trkpt>
        <trkpt lat="29.527549" lon="103.332348"><ele>2951.1624</ele><time>2026-07-21T13:20:52.000Z</time></trkpt>
        <trkpt lat="29.52754" lon="103.332362"><ele>2951.156</ele><time>2026-07-21T13:20:54.000Z</time></trkpt>
        <trkpt lat="29.527539" lon="103.332363"><ele>2951.153</ele><time>2026-07-21T13:20:56.000Z</time></trkpt>
        <trkpt lat="29.527526" lon="103.332393"><ele>2952.199</ele><time>2026-07-21T13:21:02.000Z</time></trkpt>
        <trkpt lat="29.527518" lon="103.33241"><ele>2951.403</ele><time>2026-07-21T13:21:04.000Z</time></trkpt>
        <trkpt lat="29.527509" lon="103.332424"><ele>2950.7031</ele><time>2026-07-21T13:21:06.000Z</time></trkpt>
        <trkpt lat="29.527504" lon="103.332433"><ele>2950.2244</ele><time>2026-07-21T13:21:08.000Z</time></trkpt>
        <trkpt lat="29.527498" lon="103.332442"><ele>2950.2227</ele><time>2026-07-21T13:21:10.000Z</time></trkpt>
        <trkpt lat="29.527488" lon="103.332451"><ele>2949.6655</ele><time>2026-07-21T13:21:12.000Z</time></trkpt>
        <trkpt lat="29.527477" lon="103.33246"><ele>2949.4182</ele><time>2026-07-21T13:21:14.000Z</time></trkpt>
        <trkpt lat="29.52747" lon="103.332463"><ele>2950.0107</ele><time>2026-07-21T13:21:16.000Z</time></trkpt>
        <trkpt lat="29.527462" lon="103.332469"><ele>2950.372</ele><time>2026-07-21T13:21:20.000Z</time></trkpt>
        <trkpt lat="29.52745" lon="103.332482"><ele>2949.314</ele><time>2026-07-21T13:21:28.000Z</time></trkpt>
        <trkpt lat="29.527446" lon="103.33249"><ele>2948.3645</ele><time>2026-07-21T13:21:30.000Z</time></trkpt>
        <trkpt lat="29.527435" lon="103.332506"><ele>2947.6035</ele><time>2026-07-21T13:21:32.000Z</time></trkpt>
        <trkpt lat="29.527431" lon="103.332509"><ele>2949.464</ele><time>2026-07-21T13:21:38.000Z</time></trkpt>
        <trkpt lat="29.527426" lon="103.332508"><ele>2950.308</ele><time>2026-07-21T13:21:40.000Z</time></trkpt>
        <trkpt lat="29.527389" lon="103.332499"><ele>2951.8794</ele><time>2026-07-21T13:21:44.000Z</time></trkpt>
        <trkpt lat="29.527389" lon="103.332498"><ele>2952.8508</ele><time>2026-07-21T13:21:46.000Z</time></trkpt>
        <trkpt lat="29.527388" lon="103.332498"><ele>2952.743</ele><time>2026-07-21T13:21:48.000Z</time></trkpt>
        <trkpt lat="29.52736" lon="103.332489"><ele>2952.006</ele><time>2026-07-21T13:21:56.000Z</time></trkpt>
        <trkpt lat="29.527344" lon="103.332484"><ele>2952.697</ele><time>2026-07-21T13:21:58.000Z</time></trkpt>
        <trkpt lat="29.527344" lon="103.332483"><ele>2952.8616</ele><time>2026-07-21T13:22:00.000Z</time></trkpt>
        <trkpt lat="29.527325" lon="103.332472"><ele>2953.7092</ele><time>2026-07-21T13:22:06.000Z</time></trkpt>
        <trkpt lat="29.527314" lon="103.332469"><ele>2953.3823</ele><time>2026-07-21T13:22:08.000Z</time></trkpt>
        <trkpt lat="29.527304" lon="103.332469"><ele>2953.6143</ele><time>2026-07-21T13:22:10.000Z</time></trkpt>
        <trkpt lat="29.527295" lon="103.332474"><ele>2953.413</ele><time>2026-07-21T13:22:12.000Z</time></trkpt>
        <trkpt lat="29.527288" lon="103.332469"><ele>2953.3381</ele><time>2026-07-21T13:22:16.000Z</time></trkpt>
        <trkpt lat="29.52728" lon="103.332454"><ele>2951.875</ele><time>2026-07-21T13:22:30.000Z</time></trkpt>
        <trkpt lat="29.527262" lon="103.332418"><ele>2951.2156</ele><time>2026-07-21T13:22:34.000Z</time></trkpt>
        <trkpt lat="29.527262" lon="103.332418"><ele>2951.618</ele><time>2026-07-21T13:22:36.000Z</time></trkpt>
        <trkpt lat="29.527235" lon="103.332389"><ele>2952.2632</ele><time>2026-07-21T13:22:39.000Z</time></trkpt>
        <trkpt lat="29.527235" lon="103.332389"><ele>2952.8726</ele><time>2026-07-21T13:22:41.000Z</time></trkpt>
        <trkpt lat="29.527234" lon="103.332387"><ele>2952.8164</ele><time>2026-07-21T13:22:43.000Z</time></trkpt>
        <trkpt lat="29.527218" lon="103.332355"><ele>2953.6404</ele><time>2026-07-21T13:22:49.000Z</time></trkpt>
        <trkpt lat="29.527216" lon="103.33235"><ele>2953.2566</ele><time>2026-07-21T13:22:51.000Z</time></trkpt>
        <trkpt lat="29.527216" lon="103.332347"><ele>2953.58</ele><time>2026-07-21T13:22:53.000Z</time></trkpt>
        <trkpt lat="29.527215" lon="103.332313"><ele>2954.042</ele><time>2026-07-21T13:23:46.000Z</time></trkpt>
        <trkpt lat="29.527211" lon="103.332298"><ele>2954.6753</ele><time>2026-07-21T13:23:48.000Z</time></trkpt>
        <trkpt lat="29.527204" lon="103.332284"><ele>2954.6536</ele><time>2026-07-21T13:23:50.000Z</time></trkpt>
        <trkpt lat="29.527204" lon="103.332284"><ele>2955.539</ele><time>2026-07-21T13:23:54.000Z</time></trkpt>
        <trkpt lat="29.52717" lon="103.332293"><ele>2955.1812</ele><time>2026-07-21T13:23:58.000Z</time></trkpt>
        <trkpt lat="29.527148" lon="103.332303"><ele>2953.915</ele><time>2026-07-21T13:24:00.000Z</time></trkpt>
        <trkpt lat="29.52713" lon="103.332313"><ele>2953.4963</ele><time>2026-07-21T13:24:02.000Z</time></trkpt>
        <trkpt lat="29.527115" lon="103.332321"><ele>2953.1995</ele><time>2026-07-21T13:24:04.000Z</time></trkpt>
        <trkpt lat="29.527108" lon="103.332334"><ele>2952.9602</ele><time>2026-07-21T13:24:06.000Z</time></trkpt>
        <trkpt lat="29.527102" lon="103.332348"><ele>2951.6248</ele><time>2026-07-21T13:24:08.000Z</time></trkpt>
        <trkpt lat="29.527101" lon="103.332347"><ele>2952.0027</ele><time>2026-07-21T13:24:10.000Z</time></trkpt>
        <trkpt lat="29.527072" lon="103.332349"><ele>2956.1736</ele><time>2026-07-21T13:24:20.000Z</time></trkpt>
        <trkpt lat="29.527055" lon="103.332351"><ele>2955.735</ele><time>2026-07-21T13:24:22.000Z</time></trkpt>
        <trkpt lat="29.527055" lon="103.332352"><ele>2955.9446</ele><time>2026-07-21T13:24:24.000Z</time></trkpt>
        <trkpt lat="29.527047" lon="103.332383"><ele>2957.7734</ele><time>2026-07-21T13:24:30.000Z</time></trkpt>
        <trkpt lat="29.527044" lon="103.332407"><ele>2958.8738</ele><time>2026-07-21T13:24:32.000Z</time></trkpt>
        <trkpt lat="29.527041" lon="103.332435"><ele>2960.033</ele><time>2026-07-21T13:24:34.000Z</time></trkpt>
        <trkpt lat="29.527039" lon="103.332459"><ele>2960.9329</ele><time>2026-07-21T13:24:36.000Z</time></trkpt>
        <trkpt lat="29.527037" lon="103.332486"><ele>2959.3904</ele><time>2026-07-21T13:24:38.000Z</time></trkpt>
        <trkpt lat="29.527035" lon="103.33251"><ele>2960.3237</ele><time>2026-07-21T13:24:40.000Z</time></trkpt>
        <trkpt lat="29.527034" lon="103.33253"><ele>2961.9036</ele><time>2026-07-21T13:24:42.000Z</time></trkpt>
        <trkpt lat="29.527036" lon="103.332547"><ele>2962.0876</ele><time>2026-07-21T13:24:44.000Z</time></trkpt>
        <trkpt lat="29.527038" lon="103.332564"><ele>2963.0105</ele><time>2026-07-21T13:24:46.000Z</time></trkpt>
        <trkpt lat="29.527041" lon="103.332575"><ele>2963.1665</ele><time>2026-07-21T13:24:48.000Z</time></trkpt>
        <trkpt lat="29.527045" lon="103.332588"><ele>2962.8071</ele><time>2026-07-21T13:24:50.000Z</time></trkpt>
        <trkpt lat="29.527051" lon="103.332603"><ele>2962.4822</ele><time>2026-07-21T13:24:52.000Z</time></trkpt>
        <trkpt lat="29.527056" lon="103.332617"><ele>2961.9844</ele><time>2026-07-21T13:24:54.000Z</time></trkpt>
        <trkpt lat="29.527061" lon="103.332629"><ele>2961.8757</ele><time>2026-07-21T13:24:56.000Z</time></trkpt>
        <trkpt lat="29.527064" lon="103.33264"><ele>2962.1152</ele><time>2026-07-21T13:24:58.000Z</time></trkpt>
        <trkpt lat="29.527067" lon="103.332655"><ele>2961.652</ele><time>2026-07-21T13:25:00.000Z</time></trkpt>
        <trkpt lat="29.527071" lon="103.332673"><ele>2961.4282</ele><time>2026-07-21T13:25:02.000Z</time></trkpt>
        <trkpt lat="29.527075" lon="103.332693"><ele>2961.2112</ele><time>2026-07-21T13:25:04.000Z</time></trkpt>
        <trkpt lat="29.52708" lon="103.332714"><ele>2960.84</ele><time>2026-07-21T13:25:06.000Z</time></trkpt>
        <trkpt lat="29.527083" lon="103.332731"><ele>2960.4932</ele><time>2026-07-21T13:25:08.000Z</time></trkpt>
        <trkpt lat="29.527084" lon="103.332747"><ele>2960.8276</ele><time>2026-07-21T13:25:10.000Z</time></trkpt>
        <trkpt lat="29.527083" lon="103.332764"><ele>2961.1401</ele><time>2026-07-21T13:25:12.000Z</time></trkpt>
        <trkpt lat="29.527081" lon="103.332779"><ele>2962.2786</ele><time>2026-07-21T13:25:14.000Z</time></trkpt>
        <trkpt lat="29.527078" lon="103.332789"><ele>2962.277</ele><time>2026-07-21T13:25:16.000Z</time></trkpt>
        <trkpt lat="29.527075" lon="103.3328"><ele>2961.9817</ele><time>2026-07-21T13:25:18.000Z</time></trkpt>
        <trkpt lat="29.527071" lon="103.332814"><ele>2961.9243</ele><time>2026-07-21T13:25:20.000Z</time></trkpt>
        <trkpt lat="29.527067" lon="103.332825"><ele>2961.7878</ele><time>2026-07-21T13:25:22.000Z</time></trkpt>
        <trkpt lat="29.527061" lon="103.332839"><ele>2960.8936</ele><time>2026-07-21T13:25:24.000Z</time></trkpt>
        <trkpt lat="29.527053" lon="103.332855"><ele>2960.2178</ele><time>2026-07-21T13:25:26.000Z</time></trkpt>
        <trkpt lat="29.527046" lon="103.332866"><ele>2961.2693</ele><time>2026-07-21T13:25:28.000Z</time></trkpt>
        <trkpt lat="29.527041" lon="103.332876"><ele>2961.7673</ele><time>2026-07-21T13:25:30.000Z</time></trkpt>
        <trkpt lat="29.527038" lon="103.332887"><ele>2962.3005</ele><time>2026-07-21T13:25:32.000Z</time></trkpt>
        <trkpt lat="29.527037" lon="103.332902"><ele>2961.6663</ele><time>2026-07-21T13:25:34.000Z</time></trkpt>
        <trkpt lat="29.527037" lon="103.332918"><ele>2961.5837</ele><time>2026-07-21T13:25:36.000Z</time></trkpt>
        <trkpt lat="29.527039" lon="103.332937"><ele>2961.6953</ele><time>2026-07-21T13:25:38.000Z</time></trkpt>
        <trkpt lat="29.527041" lon="103.332952"><ele>2962.336</ele><time>2026-07-21T13:25:40.000Z</time></trkpt>
        <trkpt lat="29.527044" lon="103.332968"><ele>2963.4458</ele><time>2026-07-21T13:25:42.000Z</time></trkpt>
        <trkpt lat="29.527046" lon="103.332986"><ele>2963.2026</ele><time>2026-07-21T13:25:44.000Z</time></trkpt>
        <trkpt lat="29.527048" lon="103.333003"><ele>2963.833</ele><time>2026-07-21T13:25:46.000Z</time></trkpt>
        <trkpt lat="29.527049" lon="103.333019"><ele>2964.35</ele><time>2026-07-21T13:25:48.000Z</time></trkpt>
        <trkpt lat="29.527052" lon="103.333035"><ele>2964.2317</ele><time>2026-07-21T13:25:50.000Z</time></trkpt>
        <trkpt lat="29.527053" lon="103.333056"><ele>2962.653</ele><time>2026-07-21T13:25:52.000Z</time></trkpt>
        <trkpt lat="29.527055" lon="103.333069"><ele>2963.9292</ele><time>2026-07-21T13:25:54.000Z</time></trkpt>
        <trkpt lat="29.527058" lon="103.333082"><ele>2965.319</ele><time>2026-07-21T13:25:56.000Z</time></trkpt>
        <trkpt lat="29.527063" lon="103.333094"><ele>2966.2913</ele><time>2026-07-21T13:25:58.000Z</time></trkpt>
        <trkpt lat="29.527071" lon="103.333107"><ele>2966.5642</ele><time>2026-07-21T13:26:00.000Z</time></trkpt>
        <trkpt lat="29.52708" lon="103.333121"><ele>2966.662</ele><time>2026-07-21T13:26:02.000Z</time></trkpt>
        <trkpt lat="29.527092" lon="103.333139"><ele>2966.9082</ele><time>2026-07-21T13:26:04.000Z</time></trkpt>
        <trkpt lat="29.527098" lon="103.333154"><ele>2967.4202</ele><time>2026-07-21T13:26:06.000Z</time></trkpt>
        <trkpt lat="29.527103" lon="103.333172"><ele>2968.0525</ele><time>2026-07-21T13:26:08.000Z</time></trkpt>
        <trkpt lat="29.527105" lon="103.333183"><ele>2968.2114</ele><time>2026-07-21T13:26:10.000Z</time></trkpt>
        <trkpt lat="29.527106" lon="103.333198"><ele>2968.3013</ele><time>2026-07-21T13:26:12.000Z</time></trkpt>
        <trkpt lat="29.527107" lon="103.333211"><ele>2968.931</ele><time>2026-07-21T13:26:14.000Z</time></trkpt>
        <trkpt lat="29.527107" lon="103.333221"><ele>2968.9514</ele><time>2026-07-21T13:26:16.000Z</time></trkpt>
        <trkpt lat="29.527107" lon="103.333234"><ele>2968.6372</ele><time>2026-07-21T13:26:18.000Z</time></trkpt>
        <trkpt lat="29.527106" lon="103.333247"><ele>2968.5596</ele><time>2026-07-21T13:26:20.000Z</time></trkpt>
        <trkpt lat="29.527105" lon="103.333259"><ele>2968.9011</ele><time>2026-07-21T13:26:22.000Z</time></trkpt>
        <trkpt lat="29.527104" lon="103.333272"><ele>2968.8936</ele><time>2026-07-21T13:26:24.000Z</time></trkpt>
        <trkpt lat="29.527103" lon="103.333282"><ele>2969.5845</ele><time>2026-07-21T13:26:26.000Z</time></trkpt>
        <trkpt lat="29.5271" lon="103.333293"><ele>2969.9302</ele><time>2026-07-21T13:26:28.000Z</time></trkpt>
        <trkpt lat="29.527094" lon="103.333305"><ele>2969.5493</ele><time>2026-07-21T13:26:30.000Z</time></trkpt>
        <trkpt lat="29.527087" lon="103.333318"><ele>2969.7537</ele><time>2026-07-21T13:26:32.000Z</time></trkpt>
        <trkpt lat="29.527079" lon="103.33333"><ele>2970.161</ele><time>2026-07-21T13:26:34.000Z</time></trkpt>
        <trkpt lat="29.52707" lon="103.33334"><ele>2970.849</ele><time>2026-07-21T13:26:36.000Z</time></trkpt>
        <trkpt lat="29.52706" lon="103.333352"><ele>2971.1353</ele><time>2026-07-21T13:26:38.000Z</time></trkpt>
        <trkpt lat="29.52705" lon="103.333362"><ele>2970.686</ele><time>2026-07-21T13:26:40.000Z</time></trkpt>
        <trkpt lat="29.52704" lon="103.333374"><ele>2969.6096</ele><time>2026-07-21T13:26:42.000Z</time></trkpt>
        <trkpt lat="29.52703" lon="103.333385"><ele>2970.102</ele><time>2026-07-21T13:26:44.000Z</time></trkpt>
        <trkpt lat="29.527021" lon="103.333394"><ele>2970.6013</ele><time>2026-07-21T13:26:46.000Z</time></trkpt>
        <trkpt lat="29.52701" lon="103.333402"><ele>2971.02</ele><time>2026-07-21T13:26:48.000Z</time></trkpt>
        <trkpt lat="29.527" lon="103.33341"><ele>2971.4895</ele><time>2026-07-21T13:26:50.000Z</time></trkpt>
        <trkpt lat="29.526992" lon="103.333415"><ele>2972.9321</ele><time>2026-07-21T13:26:52.000Z</time></trkpt>
        <trkpt lat="29.526974" lon="103.333425"><ele>2973.0137</ele><time>2026-07-21T13:26:56.000Z</time></trkpt>
        <trkpt lat="29.526969" lon="103.333428"><ele>2973.4207</ele><time>2026-07-21T13:26:58.000Z</time></trkpt>
        <trkpt lat="29.526965" lon="103.333436"><ele>2973.8752</ele><time>2026-07-21T13:27:00.000Z</time></trkpt>
        <trkpt lat="29.52696" lon="103.333454"><ele>2974.5242</ele><time>2026-07-21T13:27:06.000Z</time></trkpt>
        <trkpt lat="29.526956" lon="103.333458"><ele>2976.164</ele><time>2026-07-21T13:27:10.000Z</time></trkpt>
        <trkpt lat="29.526947" lon="103.333462"><ele>2973.9705</ele><time>2026-07-21T13:27:20.000Z</time></trkpt>
        <trkpt lat="29.526925" lon="103.333472"><ele>2973.7056</ele><time>2026-07-21T13:27:34.000Z</time></trkpt>
        <trkpt lat="29.52691" lon="103.333478"><ele>2974.1816</ele><time>2026-07-21T13:27:36.000Z</time></trkpt>
        <trkpt lat="29.526909" lon="103.333478"><ele>2975.1055</ele><time>2026-07-21T13:27:38.000Z</time></trkpt>
        <trkpt lat="29.526888" lon="103.333472"><ele>2978.151</ele><time>2026-07-21T13:27:46.000Z</time></trkpt>
        <trkpt lat="29.526869" lon="103.333466"><ele>2978.0227</ele><time>2026-07-21T13:27:48.000Z</time></trkpt>
        <trkpt lat="29.526869" lon="103.333465"><ele>2978.366</ele><time>2026-07-21T13:27:50.000Z</time></trkpt>
        <trkpt lat="29.526859" lon="103.333462"><ele>2980.8389</ele><time>2026-07-21T13:27:56.000Z</time></trkpt>
        <trkpt lat="29.526835" lon="103.33346"><ele>2982.204</ele><time>2026-07-21T13:28:02.000Z</time></trkpt>
        <trkpt lat="29.52682" lon="103.333459"><ele>2982.7542</ele><time>2026-07-21T13:28:04.000Z</time></trkpt>
        <trkpt lat="29.526819" lon="103.33346"><ele>2982.1682</ele><time>2026-07-21T13:28:06.000Z</time></trkpt>
        <trkpt lat="29.526797" lon="103.333474"><ele>2982.6392</ele><time>2026-07-21T13:28:12.000Z</time></trkpt>
        <trkpt lat="29.526786" lon="103.333481"><ele>2983.7693</ele><time>2026-07-21T13:28:14.000Z</time></trkpt>
        <trkpt lat="29.526775" lon="103.333486"><ele>2984.5588</ele><time>2026-07-21T13:28:16.000Z</time></trkpt>
        <trkpt lat="29.526765" lon="103.33349"><ele>2985.3672</ele><time>2026-07-21T13:28:18.000Z</time></trkpt>
        <trkpt lat="29.526753" lon="103.333495"><ele>2985.1057</ele><time>2026-07-21T13:28:20.000Z</time></trkpt>
        <trkpt lat="29.526741" lon="103.333502"><ele>2985.314</ele><time>2026-07-21T13:28:22.000Z</time></trkpt>
        <trkpt lat="29.526732" lon="103.333508"><ele>2986.0715</ele><time>2026-07-21T13:28:24.000Z</time></trkpt>
        <trkpt lat="29.526723" lon="103.333512"><ele>2986.0427</ele><time>2026-07-21T13:28:26.000Z</time></trkpt>
        <trkpt lat="29.526713" lon="103.333515"><ele>2986.2568</ele><time>2026-07-21T13:28:28.000Z</time></trkpt>
        <trkpt lat="29.526698" lon="103.33352"><ele>2985.3938</ele><time>2026-07-21T13:28:32.000Z</time></trkpt>
        <trkpt lat="29.526681" lon="103.333525"><ele>2984.4294</ele><time>2026-07-21T13:28:34.000Z</time></trkpt>
        <trkpt lat="29.52668" lon="103.333525"><ele>2984.0308</ele><time>2026-07-21T13:28:36.000Z</time></trkpt>
        <trkpt lat="29.526669" lon="103.333533"><ele>2984.926</ele><time>2026-07-21T13:28:48.000Z</time></trkpt>
        <trkpt lat="29.526645" lon="103.333549"><ele>2985.489</ele><time>2026-07-21T13:28:52.000Z</time></trkpt>
        <trkpt lat="29.526645" lon="103.333549"><ele>2985.4658</ele><time>2026-07-21T13:28:54.000Z</time></trkpt>
        <trkpt lat="29.526638" lon="103.333552"><ele>2987.0513</ele><time>2026-07-21T13:28:58.000Z</time></trkpt>
        <trkpt lat="29.526608" lon="103.333564"><ele>2986.6792</ele><time>2026-07-21T13:29:02.000Z</time></trkpt>
        <trkpt lat="29.526595" lon="103.33357"><ele>2987.6406</ele><time>2026-07-21T13:29:04.000Z</time></trkpt>
        <trkpt lat="29.526584" lon="103.333576"><ele>2988.3079</ele><time>2026-07-21T13:29:06.000Z</time></trkpt>
        <trkpt lat="29.52657" lon="103.333583"><ele>2987.5974</ele><time>2026-07-21T13:29:08.000Z</time></trkpt>
        <trkpt lat="29.526559" lon="103.333589"><ele>2988.3704</ele><time>2026-07-21T13:29:10.000Z</time></trkpt>
        <trkpt lat="29.526547" lon="103.333594"><ele>2988.441</ele><time>2026-07-21T13:29:12.000Z</time></trkpt>
        <trkpt lat="29.526537" lon="103.333597"><ele>2989.4263</ele><time>2026-07-21T13:29:14.000Z</time></trkpt>
        <trkpt lat="29.526526" lon="103.333599"><ele>2989.7942</ele><time>2026-07-21T13:29:16.000Z</time></trkpt>
        <trkpt lat="29.526513" lon="103.333601"><ele>2989.277</ele><time>2026-07-21T13:29:18.000Z</time></trkpt>
        <trkpt lat="29.526506" lon="103.333603"><ele>2989.78</ele><time>2026-07-21T13:29:20.000Z</time></trkpt>
        <trkpt lat="29.52649" lon="103.33361"><ele>2989.4795</ele><time>2026-07-21T13:29:24.000Z</time></trkpt>
        <trkpt lat="29.526478" lon="103.333617"><ele>2989.1548</ele><time>2026-07-21T13:29:26.000Z</time></trkpt>
        <trkpt lat="29.526464" lon="103.333626"><ele>2989.2725</ele><time>2026-07-21T13:29:28.000Z</time></trkpt>
        <trkpt lat="29.52645" lon="103.333635"><ele>2989.9321</ele><time>2026-07-21T13:29:30.000Z</time></trkpt>
        <trkpt lat="29.526438" lon="103.333644"><ele>2989.9814</ele><time>2026-07-21T13:29:32.000Z</time></trkpt>
        <trkpt lat="29.526431" lon="103.333649"><ele>2989.807</ele><time>2026-07-21T13:29:34.000Z</time></trkpt>
        <trkpt lat="29.526421" lon="103.333658"><ele>2989.48</ele><time>2026-07-21T13:29:38.000Z</time></trkpt>
        <trkpt lat="29.526409" lon="103.33367"><ele>2988.7114</ele><time>2026-07-21T13:29:42.000Z</time></trkpt>
        <trkpt lat="29.526398" lon="103.33368"><ele>2989.1875</ele><time>2026-07-21T13:29:44.000Z</time></trkpt>
        <trkpt lat="29.526397" lon="103.333681"><ele>2989.4343</ele><time>2026-07-21T13:29:46.000Z</time></trkpt>
        <trkpt lat="29.526382" lon="103.333691"><ele>2986.6292</ele><time>2026-07-21T13:29:50.000Z</time></trkpt>
        <trkpt lat="29.526361" lon="103.333706"><ele>2987.3245</ele><time>2026-07-21T13:29:52.000Z</time></trkpt>
        <trkpt lat="29.526336" lon="103.333725"><ele>2986.828</ele><time>2026-07-21T13:29:54.000Z</time></trkpt>
        <trkpt lat="29.526314" lon="103.333742"><ele>2986.6653</ele><time>2026-07-21T13:29:56.000Z</time></trkpt>
        <trkpt lat="29.526296" lon="103.333755"><ele>2987.83</ele><time>2026-07-21T13:29:58.000Z</time></trkpt>
        <trkpt lat="29.52628" lon="103.333761"><ele>2988.6084</ele><time>2026-07-21T13:30:00.000Z</time></trkpt>
        <trkpt lat="29.526268" lon="103.333764"><ele>2990.1956</ele><time>2026-07-21T13:30:02.000Z</time></trkpt>
        <trkpt lat="29.526254" lon="103.333767"><ele>2991.879</ele><time>2026-07-21T13:30:04.000Z</time></trkpt>
        <trkpt lat="29.526239" lon="103.333773"><ele>2991.3442</ele><time>2026-07-21T13:30:06.000Z</time></trkpt>
        <trkpt lat="29.526229" lon="103.33378"><ele>2991.942</ele><time>2026-07-21T13:30:08.000Z</time></trkpt>
        <trkpt lat="29.526216" lon="103.333789"><ele>2991.7483</ele><time>2026-07-21T13:30:10.000Z</time></trkpt>
        <trkpt lat="29.526205" lon="103.333796"><ele>2991.524</ele><time>2026-07-21T13:30:12.000Z</time></trkpt>
        <trkpt lat="29.526191" lon="103.333804"><ele>2991.2085</ele><time>2026-07-21T13:30:14.000Z</time></trkpt>
        <trkpt lat="29.526177" lon="103.333812"><ele>2991.4302</ele><time>2026-07-21T13:30:16.000Z</time></trkpt>
        <trkpt lat="29.526164" lon="103.333822"><ele>2990.6643</ele><time>2026-07-21T13:30:18.000Z</time></trkpt>
        <trkpt lat="29.526153" lon="103.333833"><ele>2990.914</ele><time>2026-07-21T13:30:20.000Z</time></trkpt>
        <trkpt lat="29.526144" lon="103.333841"><ele>2989.6643</ele><time>2026-07-21T13:30:22.000Z</time></trkpt>
        <trkpt lat="29.526133" lon="103.333849"><ele>2990.1824</ele><time>2026-07-21T13:30:24.000Z</time></trkpt>
        <trkpt lat="29.526126" lon="103.333856"><ele>2990.6602</ele><time>2026-07-21T13:30:26.000Z</time></trkpt>
        <trkpt lat="29.526116" lon="103.333863"><ele>2990.4058</ele><time>2026-07-21T13:30:28.000Z</time></trkpt>
        <trkpt lat="29.526108" lon="103.333868"><ele>2991.2417</ele><time>2026-07-21T13:30:30.000Z</time></trkpt>
        <trkpt lat="29.5261" lon="103.333874"><ele>2991.3186</ele><time>2026-07-21T13:30:32.000Z</time></trkpt>
        <trkpt lat="29.526085" lon="103.333886"><ele>2990.945</ele><time>2026-07-21T13:30:36.000Z</time></trkpt>
        <trkpt lat="29.526076" lon="103.333895"><ele>2990.108</ele><time>2026-07-21T13:30:38.000Z</time></trkpt>
        <trkpt lat="29.526069" lon="103.333898"><ele>2990.9932</ele><time>2026-07-21T13:30:40.000Z</time></trkpt>
        <trkpt lat="29.526047" lon="103.333905"><ele>2993.4727</ele><time>2026-07-21T13:30:44.000Z</time></trkpt>
        <trkpt lat="29.526035" lon="103.333909"><ele>2994.0283</ele><time>2026-07-21T13:30:46.000Z</time></trkpt>
        <trkpt lat="29.526021" lon="103.333914"><ele>2994.5012</ele><time>2026-07-21T13:30:48.000Z</time></trkpt>
        <trkpt lat="29.526007" lon="103.333921"><ele>2994.1396</ele><time>2026-07-21T13:30:50.000Z</time></trkpt>
        <trkpt lat="29.525994" lon="103.333927"><ele>2995.3362</ele><time>2026-07-21T13:30:52.000Z</time></trkpt>
        <trkpt lat="29.525981" lon="103.333931"><ele>2995.6853</ele><time>2026-07-21T13:30:54.000Z</time></trkpt>
        <trkpt lat="29.525971" lon="103.333935"><ele>2996.589</ele><time>2026-07-21T13:30:56.000Z</time></trkpt>
        <trkpt lat="29.52596" lon="103.333937"><ele>2997.434</ele><time>2026-07-21T13:30:58.000Z</time></trkpt>
        <trkpt lat="29.525948" lon="103.333942"><ele>2997.3376</ele><time>2026-07-21T13:31:02.000Z</time></trkpt>
        <trkpt lat="29.525938" lon="103.333949"><ele>2997.5198</ele><time>2026-07-21T13:31:06.000Z</time></trkpt>
        <trkpt lat="29.525928" lon="103.333958"><ele>2997.2314</ele><time>2026-07-21T13:31:08.000Z</time></trkpt>
        <trkpt lat="29.525905" lon="103.333981"><ele>2998.0205</ele><time>2026-07-21T13:31:12.000Z</time></trkpt>
        <trkpt lat="29.525905" lon="103.333981"><ele>2998.2568</ele><time>2026-07-21T13:31:14.000Z</time></trkpt>
        <trkpt lat="29.525903" lon="103.333981"><ele>2998.5068</ele><time>2026-07-21T13:31:16.000Z</time></trkpt>
        <trkpt lat="29.525863" lon="103.333997"><ele>3001.164</ele><time>2026-07-21T13:31:24.000Z</time></trkpt>
        <trkpt lat="29.525863" lon="103.333997"><ele>3000.7722</ele><time>2026-07-21T13:31:26.000Z</time></trkpt>
        <trkpt lat="29.525861" lon="103.333999"><ele>3001.0764</ele><time>2026-07-21T13:31:28.000Z</time></trkpt>
        <trkpt lat="29.525832" lon="103.334024"><ele>3003.022</ele><time>2026-07-21T13:31:32.000Z</time></trkpt>
        <trkpt lat="29.525813" lon="103.334039"><ele>3002.7585</ele><time>2026-07-21T13:31:34.000Z</time></trkpt>
        <trkpt lat="29.525795" lon="103.334053"><ele>3003.2625</ele><time>2026-07-21T13:31:36.000Z</time></trkpt>
        <trkpt lat="29.52578" lon="103.334063"><ele>3003.0422</ele><time>2026-07-21T13:31:38.000Z</time></trkpt>
        <trkpt lat="29.525766" lon="103.334074"><ele>3003.3335</ele><time>2026-07-21T13:31:40.000Z</time></trkpt>
        <trkpt lat="29.525756" lon="103.334085"><ele>3003.6633</ele><time>2026-07-21T13:31:42.000Z</time></trkpt>
        <trkpt lat="29.525747" lon="103.334097"><ele>3003.8994</ele><time>2026-07-21T13:31:44.000Z</time></trkpt>
        <trkpt lat="29.525741" lon="103.334106"><ele>3004.9343</ele><time>2026-07-21T13:31:46.000Z</time></trkpt>
        <trkpt lat="29.525735" lon="103.33411"><ele>3005.2385</ele><time>2026-07-21T13:31:48.000Z</time></trkpt>
        <trkpt lat="29.525722" lon="103.334116"><ele>3004.3425</ele><time>2026-07-21T13:31:52.000Z</time></trkpt>
        <trkpt lat="29.525707" lon="103.334124"><ele>3004.2068</ele><time>2026-07-21T13:31:54.000Z</time></trkpt>
        <trkpt lat="29.525706" lon="103.334125"><ele>3004.39</ele><time>2026-07-21T13:31:56.000Z</time></trkpt>
        <trkpt lat="29.525694" lon="103.334139"><ele>3005.4453</ele><time>2026-07-21T13:32:02.000Z</time></trkpt>
        <trkpt lat="29.525683" lon="103.33415"><ele>3005.1099</ele><time>2026-07-21T13:32:04.000Z</time></trkpt>
        <trkpt lat="29.525671" lon="103.334162"><ele>3005.535</ele><time>2026-07-21T13:32:06.000Z</time></trkpt>
        <trkpt lat="29.525657" lon="103.334175"><ele>3005.5461</ele><time>2026-07-21T13:32:08.000Z</time></trkpt>
        <trkpt lat="29.525651" lon="103.334182"><ele>3005.9553</ele><time>2026-07-21T13:32:10.000Z</time></trkpt>
        <trkpt lat="29.525643" lon="103.334193"><ele>3006.1667</ele><time>2026-07-21T13:32:12.000Z</time></trkpt>
        <trkpt lat="29.525637" lon="103.334203"><ele>3006.1338</ele><time>2026-07-21T13:32:14.000Z</time></trkpt>
        <trkpt lat="29.525631" lon="103.334213"><ele>3006.4495</ele><time>2026-07-21T13:32:16.000Z</time></trkpt>
        <trkpt lat="29.525622" lon="103.334227"><ele>3005.129</ele><time>2026-07-21T13:32:18.000Z</time></trkpt>
        <trkpt lat="29.525612" lon="103.334242"><ele>3004.9822</ele><time>2026-07-21T13:32:20.000Z</time></trkpt>
        <trkpt lat="29.525602" lon="103.334257"><ele>3004.4563</ele><time>2026-07-21T13:32:22.000Z</time></trkpt>
        <trkpt lat="29.525591" lon="103.334272"><ele>3004.2678</ele><time>2026-07-21T13:32:24.000Z</time></trkpt>
        <trkpt lat="29.525578" lon="103.334288"><ele>3004.42</ele><time>2026-07-21T13:32:26.000Z</time></trkpt>
        <trkpt lat="29.525563" lon="103.334303"><ele>3004.6582</ele><time>2026-07-21T13:32:28.000Z</time></trkpt>
        <trkpt lat="29.52555" lon="103.334319"><ele>3004.7734</ele><time>2026-07-21T13:32:30.000Z</time></trkpt>
        <trkpt lat="29.525539" lon="103.334333"><ele>3005.6077</ele><time>2026-07-21T13:32:32.000Z</time></trkpt>
        <trkpt lat="29.525529" lon="103.334345"><ele>3005.8186</ele><time>2026-07-21T13:32:34.000Z</time></trkpt>
        <trkpt lat="29.52552" lon="103.334353"><ele>3005.782</ele><time>2026-07-21T13:32:36.000Z</time></trkpt>
        <trkpt lat="29.525509" lon="103.334364"><ele>3005.683</ele><time>2026-07-21T13:32:38.000Z</time></trkpt>
        <trkpt lat="29.525498" lon="103.334374"><ele>3005.845</ele><time>2026-07-21T13:32:40.000Z</time></trkpt>
        <trkpt lat="29.525488" lon="103.334386"><ele>3005.8213</ele><time>2026-07-21T13:32:42.000Z</time></trkpt>
        <trkpt lat="29.525479" lon="103.334399"><ele>3005.847</ele><time>2026-07-21T13:32:44.000Z</time></trkpt>
        <trkpt lat="29.525474" lon="103.334411"><ele>3006.4048</ele><time>2026-07-21T13:32:46.000Z</time></trkpt>
        <trkpt lat="29.52547" lon="103.334423"><ele>3007.0518</ele><time>2026-07-21T13:32:48.000Z</time></trkpt>
        <trkpt lat="29.525466" lon="103.334433"><ele>3007.7498</ele><time>2026-07-21T13:32:50.000Z</time></trkpt>
        <trkpt lat="29.525461" lon="103.334442"><ele>3008.0835</ele><time>2026-07-21T13:32:52.000Z</time></trkpt>
        <trkpt lat="29.525454" lon="103.33445"><ele>3008.7524</ele><time>2026-07-21T13:32:54.000Z</time></trkpt>
        <trkpt lat="29.525443" lon="103.334462"><ele>3007.5894</ele><time>2026-07-21T13:32:56.000Z</time></trkpt>
        <trkpt lat="29.525431" lon="103.334471"><ele>3007.3066</ele><time>2026-07-21T13:32:58.000Z</time></trkpt>
        <trkpt lat="29.525424" lon="103.334479"><ele>3007.8948</ele><time>2026-07-21T13:33:00.000Z</time></trkpt>
        <trkpt lat="29.525413" lon="103.334492"><ele>3007.6636</ele><time>2026-07-21T13:33:02.000Z</time></trkpt>
        <trkpt lat="29.525407" lon="103.334502"><ele>3008.3708</ele><time>2026-07-21T13:33:04.000Z</time></trkpt>
        <trkpt lat="29.525403" lon="103.334513"><ele>3008.5254</ele><time>2026-07-21T13:33:06.000Z</time></trkpt>
        <trkpt lat="29.525397" lon="103.334528"><ele>3008.116</ele><time>2026-07-21T13:33:08.000Z</time></trkpt>
        <trkpt lat="29.52539" lon="103.334544"><ele>3008.6953</ele><time>2026-07-21T13:33:10.000Z</time></trkpt>
        <trkpt lat="29.525383" lon="103.334556"><ele>3010.0366</ele><time>2026-07-21T13:33:12.000Z</time></trkpt>
        <trkpt lat="29.525374" lon="103.334564"><ele>3010.1484</ele><time>2026-07-21T13:33:14.000Z</time></trkpt>
        <trkpt lat="29.525364" lon="103.334571"><ele>3010.8943</ele><time>2026-07-21T13:33:16.000Z</time></trkpt>
        <trkpt lat="29.525355" lon="103.334575"><ele>3011.7761</ele><time>2026-07-21T13:33:18.000Z</time></trkpt>
        <trkpt lat="29.525344" lon="103.334578"><ele>3012.2935</ele><time>2026-07-21T13:33:20.000Z</time></trkpt>
        <trkpt lat="29.525333" lon="103.334583"><ele>3011.1428</ele><time>2026-07-21T13:33:22.000Z</time></trkpt>
        <trkpt lat="29.525325" lon="103.334588"><ele>3012.0115</ele><time>2026-07-21T13:33:24.000Z</time></trkpt>
        <trkpt lat="29.525315" lon="103.334598"><ele>3012.1055</ele><time>2026-07-21T13:33:26.000Z</time></trkpt>
        <trkpt lat="29.525309" lon="103.33461"><ele>3012.7078</ele><time>2026-07-21T13:33:28.000Z</time></trkpt>
        <trkpt lat="29.525302" lon="103.334624"><ele>3012.1558</ele><time>2026-07-21T13:33:30.000Z</time></trkpt>
        <trkpt lat="29.525297" lon="103.334636"><ele>3012.4026</ele><time>2026-07-21T13:33:32.000Z</time></trkpt>
        <trkpt lat="29.525291" lon="103.334643"><ele>3012.5774</ele><time>2026-07-21T13:33:34.000Z</time></trkpt>
        <trkpt lat="29.525279" lon="103.334654"><ele>3014.9995</ele><time>2026-07-21T13:33:38.000Z</time></trkpt>
        <trkpt lat="29.525269" lon="103.334662"><ele>3014.7046</ele><time>2026-07-21T13:33:40.000Z</time></trkpt>
        <trkpt lat="29.525267" lon="103.334664"><ele>3015.1226</ele><time>2026-07-21T13:33:44.000Z</time></trkpt>
        <trkpt lat="29.525253" lon="103.334679"><ele>3015.885</ele><time>2026-07-21T13:33:48.000Z</time></trkpt>
        <trkpt lat="29.525241" lon="103.334691"><ele>3015.8547</ele><time>2026-07-21T13:33:50.000Z</time></trkpt>
        <trkpt lat="29.525229" lon="103.334701"><ele>3015.919</ele><time>2026-07-21T13:33:52.000Z</time></trkpt>
        <trkpt lat="29.525218" lon="103.334707"><ele>3016.8828</ele><time>2026-07-21T13:33:54.000Z</time></trkpt>
        <trkpt lat="29.52521" lon="103.334713"><ele>3018.1855</ele><time>2026-07-21T13:33:56.000Z</time></trkpt>
        <trkpt lat="29.525202" lon="103.334716"><ele>3018.0405</ele><time>2026-07-21T13:33:58.000Z</time></trkpt>
        <trkpt lat="29.525188" lon="103.334725"><ele>3018.849</ele><time>2026-07-21T13:34:02.000Z</time></trkpt>
        <trkpt lat="29.525165" lon="103.334739"><ele>3018.1104</ele><time>2026-07-21T13:34:06.000Z</time></trkpt>
        <trkpt lat="29.525165" lon="103.334739"><ele>3018.6245</ele><time>2026-07-21T13:34:08.000Z</time></trkpt>
        <trkpt lat="29.52516" lon="103.334746"><ele>3019.3455</ele><time>2026-07-21T13:34:12.000Z</time></trkpt>
        <trkpt lat="29.525133" lon="103.334783"><ele>3021.8174</ele><time>2026-07-21T13:34:18.000Z</time></trkpt>
        <trkpt lat="29.525133" lon="103.334783"><ele>3023.0996</ele><time>2026-07-21T13:34:20.000Z</time></trkpt>
        <trkpt lat="29.525132" lon="103.334784"><ele>3022.812</ele><time>2026-07-21T13:34:22.000Z</time></trkpt>
        <trkpt lat="29.525095" lon="103.334791"><ele>3022.4363</ele><time>2026-07-21T13:34:28.000Z</time></trkpt>
        <trkpt lat="29.525095" lon="103.334791"><ele>3022.9104</ele><time>2026-07-21T13:34:30.000Z</time></trkpt>
        <trkpt lat="29.525094" lon="103.334792"><ele>3023.055</ele><time>2026-07-21T13:34:32.000Z</time></trkpt>
        <trkpt lat="29.525058" lon="103.334805"><ele>3022.4656</ele><time>2026-07-21T13:34:38.000Z</time></trkpt>
        <trkpt lat="29.525058" lon="103.334805"><ele>3023.06</ele><time>2026-07-21T13:34:40.000Z</time></trkpt>
        <trkpt lat="29.525058" lon="103.334805"><ele>3022.972</ele><time>2026-07-21T13:34:42.000Z</time></trkpt>
        <trkpt lat="29.52502" lon="103.334837"><ele>3021.7195</ele><time>2026-07-21T13:34:50.000Z</time></trkpt>
        <trkpt lat="29.525004" lon="103.334849"><ele>3020.7756</ele><time>2026-07-21T13:34:52.000Z</time></trkpt>
        <trkpt lat="29.525003" lon="103.334848"><ele>3020.6553</ele><time>2026-07-21T13:34:54.000Z</time></trkpt>
        <trkpt lat="29.524988" lon="103.334845"><ele>3021.3752</ele><time>2026-07-21T13:35:00.000Z</time></trkpt>
        <trkpt lat="29.524976" lon="103.33484"><ele>3020.4365</ele><time>2026-07-21T13:35:02.000Z</time></trkpt>
        <trkpt lat="29.524962" lon="103.334834"><ele>3021.045</ele><time>2026-07-21T13:35:04.000Z</time></trkpt>
        <trkpt lat="29.52495" lon="103.334828"><ele>3020.883</ele><time>2026-07-21T13:35:06.000Z</time></trkpt>
        <trkpt lat="29.524939" lon="103.334821"><ele>3022.069</ele><time>2026-07-21T13:35:08.000Z</time></trkpt>
        <trkpt lat="29.52493" lon="103.334815"><ele>3023.0105</ele><time>2026-07-21T13:35:10.000Z</time></trkpt>
        <trkpt lat="29.524922" lon="103.33481"><ele>3023.2612</ele><time>2026-07-21T13:35:12.000Z</time></trkpt>
        <trkpt lat="29.524911" lon="103.334806"><ele>3024.5076</ele><time>2026-07-21T13:35:14.000Z</time></trkpt>
        <trkpt lat="29.5249" lon="103.334803"><ele>3024.9128</ele><time>2026-07-21T13:35:16.000Z</time></trkpt>
        <trkpt lat="29.524896" lon="103.334797"><ele>3025.3284</ele><time>2026-07-21T13:35:18.000Z</time></trkpt>
        <trkpt lat="29.524891" lon="103.334784"><ele>3027.5598</ele><time>2026-07-21T13:35:28.000Z</time></trkpt>
        <trkpt lat="29.524887" lon="103.33477"><ele>3028.5618</ele><time>2026-07-21T13:35:32.000Z</time></trkpt>
        <trkpt lat="29.524884" lon="103.334767"><ele>3028.9514</ele><time>2026-07-21T13:35:34.000Z</time></trkpt>
        <trkpt lat="29.524872" lon="103.33477"><ele>3025.9355</ele><time>2026-07-21T13:35:40.000Z</time></trkpt>
        <trkpt lat="29.524837" lon="103.334779"><ele>3024.1045</ele><time>2026-07-21T13:35:44.000Z</time></trkpt>
        <trkpt lat="29.524837" lon="103.334779"><ele>3023.7861</ele><time>2026-07-21T13:35:46.000Z</time></trkpt>
        <trkpt lat="29.524837" lon="103.334779"><ele>3023.8787</ele><time>2026-07-21T13:35:48.000Z</time></trkpt>
        <trkpt lat="29.524796" lon="103.334776"><ele>3023.6301</ele><time>2026-07-21T13:36:02.000Z</time></trkpt>
        <trkpt lat="29.524776" lon="103.334775"><ele>3023.788</ele><time>2026-07-21T13:36:04.000Z</time></trkpt>
        <trkpt lat="29.524756" lon="103.334774"><ele>3024.5864</ele><time>2026-07-21T13:36:06.000Z</time></trkpt>
        <trkpt lat="29.524755" lon="103.334774"><ele>3024.9019</ele><time>2026-07-21T13:36:08.000Z</time></trkpt>
        <trkpt lat="29.524744" lon="103.334769"><ele>3028.3928</ele><time>2026-07-21T13:36:16.000Z</time></trkpt>
        <trkpt lat="29.524719" lon="103.334757"><ele>3029.187</ele><time>2026-07-21T13:36:20.000Z</time></trkpt>
        <trkpt lat="29.524719" lon="103.334757"><ele>3029.999</ele><time>2026-07-21T13:36:22.000Z</time></trkpt>
        <trkpt lat="29.524704" lon="103.334761"><ele>3029.8125</ele><time>2026-07-21T13:36:26.000Z</time></trkpt>
        <trkpt lat="29.524683" lon="103.33477"><ele>3029.451</ele><time>2026-07-21T13:36:28.000Z</time></trkpt>
        <trkpt lat="29.524657" lon="103.33478"><ele>3029.6938</ele><time>2026-07-21T13:36:30.000Z</time></trkpt>
        <trkpt lat="29.524628" lon="103.334792"><ele>3029.1565</ele><time>2026-07-21T13:36:32.000Z</time></trkpt>
        <trkpt lat="29.524601" lon="103.334803"><ele>3028.7563</ele><time>2026-07-21T13:36:34.000Z</time></trkpt>
        <trkpt lat="29.52458" lon="103.334815"><ele>3028.4902</ele><time>2026-07-21T13:36:36.000Z</time></trkpt>
        <trkpt lat="29.524564" lon="103.334826"><ele>3028.941</ele><time>2026-07-21T13:36:38.000Z</time></trkpt>
        <trkpt lat="29.524553" lon="103.334837"><ele>3028.699</ele><time>2026-07-21T13:36:40.000Z</time></trkpt>
        <trkpt lat="29.52454" lon="103.334849"><ele>3028.777</ele><time>2026-07-21T13:36:42.000Z</time></trkpt>
        <trkpt lat="29.524527" lon="103.334859"><ele>3028.4983</ele><time>2026-07-21T13:36:44.000Z</time></trkpt>
        <trkpt lat="29.524514" lon="103.334869"><ele>3029.0469</ele><time>2026-07-21T13:36:46.000Z</time></trkpt>
        <trkpt lat="29.524501" lon="103.334879"><ele>3029.2896</ele><time>2026-07-21T13:36:48.000Z</time></trkpt>
        <trkpt lat="29.524487" lon="103.33489"><ele>3028.5442</ele><time>2026-07-21T13:36:50.000Z</time></trkpt>
        <trkpt lat="29.524472" lon="103.334902"><ele>3028.224</ele><time>2026-07-21T13:36:52.000Z</time></trkpt>
        <trkpt lat="29.524458" lon="103.334915"><ele>3027.7</ele><time>2026-07-21T13:36:54.000Z</time></trkpt>
        <trkpt lat="29.524443" lon="103.334926"><ele>3027.815</ele><time>2026-07-21T13:36:56.000Z</time></trkpt>
        <trkpt lat="29.524428" lon="103.334938"><ele>3028.9358</ele><time>2026-07-21T13:36:58.000Z</time></trkpt>
        <trkpt lat="29.524415" lon="103.334946"><ele>3029.1907</ele><time>2026-07-21T13:37:00.000Z</time></trkpt>
        <trkpt lat="29.524401" lon="103.33495"><ele>3029.6077</ele><time>2026-07-21T13:37:02.000Z</time></trkpt>
        <trkpt lat="29.524387" lon="103.334952"><ele>3030.1326</ele><time>2026-07-21T13:37:04.000Z</time></trkpt>
        <trkpt lat="29.524373" lon="103.334952"><ele>3030.216</ele><time>2026-07-21T13:37:06.000Z</time></trkpt>
        <trkpt lat="29.524357" lon="103.334952"><ele>3030.4087</ele><time>2026-07-21T13:37:08.000Z</time></trkpt>
        <trkpt lat="29.524339" lon="103.334952"><ele>3029.8167</ele><time>2026-07-21T13:37:10.000Z</time></trkpt>
        <trkpt lat="29.524322" lon="103.334953"><ele>3029.8591</ele><time>2026-07-21T13:37:12.000Z</time></trkpt>
        <trkpt lat="29.524304" lon="103.334954"><ele>3029.7417</ele><time>2026-07-21T13:37:14.000Z</time></trkpt>
        <trkpt lat="29.524287" lon="103.334954"><ele>3029.7668</ele><time>2026-07-21T13:37:16.000Z</time></trkpt>
        <trkpt lat="29.52427" lon="103.334957"><ele>3029.6438</ele><time>2026-07-21T13:37:18.000Z</time></trkpt>
        <trkpt lat="29.524252" lon="103.334961"><ele>3028.9636</ele><time>2026-07-21T13:37:20.000Z</time></trkpt>
        <trkpt lat="29.524233" lon="103.334965"><ele>3028.4866</ele><time>2026-07-21T13:37:22.000Z</time></trkpt>
        <trkpt lat="29.524215" lon="103.33497"><ele>3028.429</ele><time>2026-07-21T13:37:24.000Z</time></trkpt>
        <trkpt lat="29.524196" lon="103.334973"><ele>3028.3088</ele><time>2026-07-21T13:37:26.000Z</time></trkpt>
        <trkpt lat="29.524179" lon="103.334976"><ele>3028.368</ele><time>2026-07-21T13:37:28.000Z</time></trkpt>
        <trkpt lat="29.524161" lon="103.334976"><ele>3027.9155</ele><time>2026-07-21T13:37:30.000Z</time></trkpt>
        <trkpt lat="29.524144" lon="103.334976"><ele>3028.0437</ele><time>2026-07-21T13:37:32.000Z</time></trkpt>
        <trkpt lat="29.524126" lon="103.334976"><ele>3028.488</ele><time>2026-07-21T13:37:34.000Z</time></trkpt>
        <trkpt lat="29.524108" lon="103.334977"><ele>3028.3418</ele><time>2026-07-21T13:37:36.000Z</time></trkpt>
        <trkpt lat="29.524088" lon="103.334979"><ele>3028.2822</ele><time>2026-07-21T13:37:38.000Z</time></trkpt>
        <trkpt lat="29.524072" lon="103.334982"><ele>3028.1912</ele><time>2026-07-21T13:37:40.000Z</time></trkpt>
        <trkpt lat="29.524057" lon="103.334984"><ele>3028.87</ele><time>2026-07-21T13:37:42.000Z</time></trkpt>
        <trkpt lat="29.52404" lon="103.334984"><ele>3029.0254</ele><time>2026-07-21T13:37:44.000Z</time></trkpt>
        <trkpt lat="29.52402" lon="103.334982"><ele>3028.8953</ele><time>2026-07-21T13:37:46.000Z</time></trkpt>
        <trkpt lat="29.524001" lon="103.334978"><ele>3028.9717</ele><time>2026-07-21T13:37:48.000Z</time></trkpt>
        <trkpt lat="29.523981" lon="103.334971"><ele>3029.47</ele><time>2026-07-21T13:37:50.000Z</time></trkpt>
        <trkpt lat="29.523968" lon="103.334965"><ele>3030.37</ele><time>2026-07-21T13:37:52.000Z</time></trkpt>
        <trkpt lat="29.523958" lon="103.334959"><ele>3032.1147</ele><time>2026-07-21T13:37:54.000Z</time></trkpt>
        <trkpt lat="29.52395" lon="103.334955"><ele>3033.0354</ele><time>2026-07-21T13:37:56.000Z</time></trkpt>
        <trkpt lat="29.523935" lon="103.334947"><ele>3033.1836</ele><time>2026-07-21T13:38:00.000Z</time></trkpt>
        <trkpt lat="29.523926" lon="103.334944"><ele>3034.063</ele><time>2026-07-21T13:38:02.000Z</time></trkpt>
        <trkpt lat="29.523915" lon="103.334939"><ele>3032.9468</ele><time>2026-07-21T13:38:04.000Z</time></trkpt>
        <trkpt lat="29.523904" lon="103.334936"><ele>3031.7666</ele><time>2026-07-21T13:38:06.000Z</time></trkpt>
        <trkpt lat="29.523889" lon="103.334932"><ele>3032.8997</ele><time>2026-07-21T13:38:08.000Z</time></trkpt>
        <trkpt lat="29.523874" lon="103.334931"><ele>3032.9775</ele><time>2026-07-21T13:38:10.000Z</time></trkpt>
        <trkpt lat="29.523858" lon="103.33493"><ele>3033.4539</ele><time>2026-07-21T13:38:12.000Z</time></trkpt>
        <trkpt lat="29.523842" lon="103.33493"><ele>3032.9248</ele><time>2026-07-21T13:38:14.000Z</time></trkpt>
        <trkpt lat="29.523826" lon="103.334929"><ele>3033.1409</ele><time>2026-07-21T13:38:16.000Z</time></trkpt>
        <trkpt lat="29.523809" lon="103.334929"><ele>3032.9397</ele><time>2026-07-21T13:38:18.000Z</time></trkpt>
        <trkpt lat="29.523796" lon="103.334929"><ele>3033.1</ele><time>2026-07-21T13:38:20.000Z</time></trkpt>
        <trkpt lat="29.523784" lon="103.334928"><ele>3033.8013</ele><time>2026-07-21T13:38:22.000Z</time></trkpt>
        <trkpt lat="29.523774" lon="103.334926"><ele>3034.3562</ele><time>2026-07-21T13:38:24.000Z</time></trkpt>
        <trkpt lat="29.523758" lon="103.334921"><ele>3034.9363</ele><time>2026-07-21T13:38:28.000Z</time></trkpt>
        <trkpt lat="29.523755" lon="103.334915"><ele>3034.8818</ele><time>2026-07-21T13:38:30.000Z</time></trkpt>
        <trkpt lat="29.523744" lon="103.334905"><ele>3034.0962</ele><time>2026-07-21T13:38:32.000Z</time></trkpt>
        <trkpt lat="29.523728" lon="103.334898"><ele>3035.0078</ele><time>2026-07-21T13:38:40.000Z</time></trkpt>
        <trkpt lat="29.523708" lon="103.334889"><ele>3034.98</ele><time>2026-07-21T13:38:42.000Z</time></trkpt>
        <trkpt lat="29.523706" lon="103.334889"><ele>3035.0667</ele><time>2026-07-21T13:38:44.000Z</time></trkpt>
        <trkpt lat="29.523697" lon="103.334888"><ele>3035.1245</ele><time>2026-07-21T13:38:48.000Z</time></trkpt>
        <trkpt lat="29.523658" lon="103.334886"><ele>3032.7903</ele><time>2026-07-21T13:38:52.000Z</time></trkpt>
        <trkpt lat="29.523636" lon="103.334887"><ele>3033.0056</ele><time>2026-07-21T13:38:54.000Z</time></trkpt>
        <trkpt lat="29.523617" lon="103.334891"><ele>3033.189</ele><time>2026-07-21T13:38:56.000Z</time></trkpt>
        <trkpt lat="29.523603" lon="103.334896"><ele>3033.8335</ele><time>2026-07-21T13:38:58.000Z</time></trkpt>
        <trkpt lat="29.523592" lon="103.3349"><ele>3033.87</ele><time>2026-07-21T13:39:00.000Z</time></trkpt>
        <trkpt lat="29.523586" lon="103.3349"><ele>3033.862</ele><time>2026-07-21T13:39:02.000Z</time></trkpt>
        <trkpt lat="29.523569" lon="103.334899"><ele>3033.7095</ele><time>2026-07-21T13:39:06.000Z</time></trkpt>
        <trkpt lat="29.523554" lon="103.334899"><ele>3033.505</ele><time>2026-07-21T13:39:12.000Z</time></trkpt>
        <trkpt lat="29.523536" lon="103.334899"><ele>3033.2786</ele><time>2026-07-21T13:39:14.000Z</time></trkpt>
        <trkpt lat="29.523514" lon="103.334899"><ele>3033.8594</ele><time>2026-07-21T13:39:16.000Z</time></trkpt>
        <trkpt lat="29.523497" lon="103.334898"><ele>3034.732</ele><time>2026-07-21T13:39:18.000Z</time></trkpt>
        <trkpt lat="29.523478" lon="103.334895"><ele>3034.7107</ele><time>2026-07-21T13:39:20.000Z</time></trkpt>
        <trkpt lat="29.52346" lon="103.334892"><ele>3034.6655</ele><time>2026-07-21T13:39:22.000Z</time></trkpt>
        <trkpt lat="29.52344" lon="103.334888"><ele>3035.1787</ele><time>2026-07-21T13:39:24.000Z</time></trkpt>
        <trkpt lat="29.52342" lon="103.334884"><ele>3035.2397</ele><time>2026-07-21T13:39:26.000Z</time></trkpt>
        <trkpt lat="29.523402" lon="103.334881"><ele>3035.2664</ele><time>2026-07-21T13:39:28.000Z</time></trkpt>
        <trkpt lat="29.523383" lon="103.334878"><ele>3034.896</ele><time>2026-07-21T13:39:30.000Z</time></trkpt>
        <trkpt lat="29.523363" lon="103.334875"><ele>3035.066</ele><time>2026-07-21T13:39:32.000Z</time></trkpt>
        <trkpt lat="29.523345" lon="103.334871"><ele>3034.6643</ele><time>2026-07-21T13:39:34.000Z</time></trkpt>
        <trkpt lat="29.523327" lon="103.334867"><ele>3034.8013</ele><time>2026-07-21T13:39:36.000Z</time></trkpt>
        <trkpt lat="29.523314" lon="103.334862"><ele>3034.7139</ele><time>2026-07-21T13:39:38.000Z</time></trkpt>
        <trkpt lat="29.523298" lon="103.334857"><ele>3034.9502</ele><time>2026-07-21T13:39:40.000Z</time></trkpt>
        <trkpt lat="29.523286" lon="103.334853"><ele>3035.0757</ele><time>2026-07-21T13:39:42.000Z</time></trkpt>
        <trkpt lat="29.523273" lon="103.334846"><ele>3035.4941</ele><time>2026-07-21T13:39:44.000Z</time></trkpt>
        <trkpt lat="29.523257" lon="103.334836"><ele>3034.594</ele><time>2026-07-21T13:39:46.000Z</time></trkpt>
        <trkpt lat="29.523241" lon="103.334826"><ele>3034.551</ele><time>2026-07-21T13:39:48.000Z</time></trkpt>
        <trkpt lat="29.523223" lon="103.334816"><ele>3034.2605</ele><time>2026-07-21T13:39:50.000Z</time></trkpt>
        <trkpt lat="29.523206" lon="103.334805"><ele>3034.3748</ele><time>2026-07-21T13:39:52.000Z</time></trkpt>
        <trkpt lat="29.523189" lon="103.334795"><ele>3034.5723</ele><time>2026-07-21T13:39:54.000Z</time></trkpt>
        <trkpt lat="29.523174" lon="103.334786"><ele>3035.0413</ele><time>2026-07-21T13:39:56.000Z</time></trkpt>
        <trkpt lat="29.52316" lon="103.334778"><ele>3035.7578</ele><time>2026-07-21T13:39:58.000Z</time></trkpt>
        <trkpt lat="29.523146" lon="103.33477"><ele>3035.3835</ele><time>2026-07-21T13:40:00.000Z</time></trkpt>
        <trkpt lat="29.52313" lon="103.334762"><ele>3035.622</ele><time>2026-07-21T13:40:02.000Z</time></trkpt>
        <trkpt lat="29.523117" lon="103.334753"><ele>3035.8425</ele><time>2026-07-21T13:40:04.000Z</time></trkpt>
        <trkpt lat="29.523108" lon="103.334746"><ele>3037.3904</ele><time>2026-07-21T13:40:06.000Z</time></trkpt>
        <trkpt lat="29.523095" lon="103.334738"><ele>3037.2263</ele><time>2026-07-21T13:40:08.000Z</time></trkpt>
        <trkpt lat="29.523078" lon="103.334728"><ele>3037.4365</ele><time>2026-07-21T13:40:10.000Z</time></trkpt>
        <trkpt lat="29.523065" lon="103.334721"><ele>3038.009</ele><time>2026-07-21T13:40:12.000Z</time></trkpt>
        <trkpt lat="29.523052" lon="103.334716"><ele>3039.081</ele><time>2026-07-21T13:40:14.000Z</time></trkpt>
        <trkpt lat="29.523039" lon="103.334715"><ele>3039.1887</ele><time>2026-07-21T13:40:16.000Z</time></trkpt>
        <trkpt lat="29.523023" lon="103.334717"><ele>3039.4692</ele><time>2026-07-21T13:40:18.000Z</time></trkpt>
        <trkpt lat="29.523004" lon="103.334722"><ele>3039.267</ele><time>2026-07-21T13:40:20.000Z</time></trkpt>
        <trkpt lat="29.522984" lon="103.334729"><ele>3039.0115</ele><time>2026-07-21T13:40:22.000Z</time></trkpt>
        <trkpt lat="29.522966" lon="103.334732"><ele>3038.3545</ele><time>2026-07-21T13:40:24.000Z</time></trkpt>
        <trkpt lat="29.522948" lon="103.334734"><ele>3038.5808</ele><time>2026-07-21T13:40:26.000Z</time></trkpt>
        <trkpt lat="29.522931" lon="103.334736"><ele>3040.737</ele><time>2026-07-21T13:40:28.000Z</time></trkpt>
        <trkpt lat="29.522923" lon="103.33474"><ele>3041.3533</ele><time>2026-07-21T13:40:30.000Z</time></trkpt>
        <trkpt lat="29.522919" lon="103.334744"><ele>3041.9004</ele><time>2026-07-21T13:40:32.000Z</time></trkpt>
        <trkpt lat="29.5229" lon="103.334765"><ele>3042.1355</ele><time>2026-07-21T13:40:38.000Z</time></trkpt>
        <trkpt lat="29.5229" lon="103.334765"><ele>3042.1306</ele><time>2026-07-21T13:40:40.000Z</time></trkpt>
        <trkpt lat="29.522887" lon="103.334768"><ele>3042.1853</ele><time>2026-07-21T13:40:44.000Z</time></trkpt>
        <trkpt lat="29.522871" lon="103.33477"><ele>3042.5273</ele><time>2026-07-21T13:40:46.000Z</time></trkpt>
        <trkpt lat="29.522852" lon="103.334771"><ele>3042.8367</ele><time>2026-07-21T13:40:48.000Z</time></trkpt>
        <trkpt lat="29.522832" lon="103.33477"><ele>3042.5244</ele><time>2026-07-21T13:40:50.000Z</time></trkpt>
        <trkpt lat="29.522811" lon="103.334769"><ele>3042.7126</ele><time>2026-07-21T13:40:52.000Z</time></trkpt>
        <trkpt lat="29.522792" lon="103.33477"><ele>3042.6604</ele><time>2026-07-21T13:40:54.000Z</time></trkpt>
        <trkpt lat="29.522773" lon="103.334771"><ele>3042.9968</ele><time>2026-07-21T13:40:56.000Z</time></trkpt>
        <trkpt lat="29.522754" lon="103.334775"><ele>3042.0425</ele><time>2026-07-21T13:40:58.000Z</time></trkpt>
        <trkpt lat="29.522735" lon="103.33478"><ele>3042.3428</ele><time>2026-07-21T13:41:00.000Z</time></trkpt>
        <trkpt lat="29.52272" lon="103.334789"><ele>3042.6243</ele><time>2026-07-21T13:41:02.000Z</time></trkpt>
        <trkpt lat="29.522706" lon="103.334801"><ele>3043.1562</ele><time>2026-07-21T13:41:04.000Z</time></trkpt>
        <trkpt lat="29.522693" lon="103.334817"><ele>3043.208</ele><time>2026-07-21T13:41:06.000Z</time></trkpt>
        <trkpt lat="29.522685" lon="103.334833"><ele>3043.8762</ele><time>2026-07-21T13:41:08.000Z</time></trkpt>
        <trkpt lat="29.522679" lon="103.334849"><ele>3043.9585</ele><time>2026-07-21T13:41:10.000Z</time></trkpt>
        <trkpt lat="29.522674" lon="103.334863"><ele>3043.955</ele><time>2026-07-21T13:41:12.000Z</time></trkpt>
        <trkpt lat="29.522672" lon="103.334881"><ele>3043.5798</ele><time>2026-07-21T13:41:14.000Z</time></trkpt>
        <trkpt lat="29.522672" lon="103.334898"><ele>3043.3696</ele><time>2026-07-21T13:41:16.000Z</time></trkpt>
        <trkpt lat="29.522672" lon="103.334915"><ele>3043.9888</ele><time>2026-07-21T13:41:18.000Z</time></trkpt>
        <trkpt lat="29.522671" lon="103.334932"><ele>3044.0515</ele><time>2026-07-21T13:41:20.000Z</time></trkpt>
        <trkpt lat="29.522668" lon="103.334944"><ele>3044.1877</ele><time>2026-07-21T13:41:22.000Z</time></trkpt>
        <trkpt lat="29.522663" lon="103.334954"><ele>3044.6526</ele><time>2026-07-21T13:41:24.000Z</time></trkpt>
        <trkpt lat="29.522657" lon="103.334967"><ele>3045.1826</ele><time>2026-07-21T13:41:26.000Z</time></trkpt>
        <trkpt lat="29.522651" lon="103.334982"><ele>3045.6707</ele><time>2026-07-21T13:41:28.000Z</time></trkpt>
        <trkpt lat="29.522647" lon="103.334996"><ele>3045.1006</ele><time>2026-07-21T13:41:30.000Z</time></trkpt>
        <trkpt lat="29.522646" lon="103.335005"><ele>3044.801</ele><time>2026-07-21T13:41:32.000Z</time></trkpt>
        <trkpt lat="29.522646" lon="103.335024"><ele>3045.3755</ele><time>2026-07-21T13:41:42.000Z</time></trkpt>
        <trkpt lat="29.522645" lon="103.335043"><ele>3045.288</ele><time>2026-07-21T13:41:44.000Z</time></trkpt>
        <trkpt lat="29.522646" lon="103.335044"><ele>3045.7832</ele><time>2026-07-21T13:41:46.000Z</time></trkpt>
        <trkpt lat="29.522651" lon="103.335068"><ele>3045.989</ele><time>2026-07-21T13:41:52.000Z</time></trkpt>
        <trkpt lat="29.522654" lon="103.335079"><ele>3046.115</ele><time>2026-07-21T13:41:54.000Z</time></trkpt>
        <trkpt lat="29.522657" lon="103.335085"><ele>3046.2258</ele><time>2026-07-21T13:41:56.000Z</time></trkpt>
        <trkpt lat="29.522671" lon="103.335115"><ele>3046.7688</ele><time>2026-07-21T13:42:04.000Z</time></trkpt>
        <trkpt lat="29.522671" lon="103.335115"><ele>3046.7363</ele><time>2026-07-21T13:42:06.000Z</time></trkpt>
        <trkpt lat="29.522672" lon="103.335117"><ele>3047.0396</ele><time>2026-07-21T13:42:08.000Z</time></trkpt>
        <trkpt lat="29.522678" lon="103.33516"><ele>3047.2527</ele><time>2026-07-21T13:42:14.000Z</time></trkpt>
        <trkpt lat="29.522681" lon="103.33518"><ele>3047.5935</ele><time>2026-07-21T13:42:16.000Z</time></trkpt>
        <trkpt lat="29.522681" lon="103.335201"><ele>3047.9656</ele><time>2026-07-21T13:42:18.000Z</time></trkpt>
        <trkpt lat="29.522682" lon="103.335219"><ele>3048.7302</ele><time>2026-07-21T13:42:20.000Z</time></trkpt>
        <trkpt lat="29.522682" lon="103.335236"><ele>3049.654</ele><time>2026-07-21T13:42:22.000Z</time></trkpt>
        <trkpt lat="29.522681" lon="103.33525"><ele>3050.6748</ele><time>2026-07-21T13:42:24.000Z</time></trkpt>
        <trkpt lat="29.52268" lon="103.335264"><ele>3051.1714</ele><time>2026-07-21T13:42:26.000Z</time></trkpt>
        <trkpt lat="29.522681" lon="103.335277"><ele>3051.2024</ele><time>2026-07-21T13:42:28.000Z</time></trkpt>
        <trkpt lat="29.522682" lon="103.33529"><ele>3051.1377</ele><time>2026-07-21T13:42:30.000Z</time></trkpt>
        <trkpt lat="29.522683" lon="103.3353"><ele>3052.185</ele><time>2026-07-21T13:42:32.000Z</time></trkpt>
        <trkpt lat="29.522685" lon="103.335313"><ele>3052.1687</ele><time>2026-07-21T13:42:34.000Z</time></trkpt>
        <trkpt lat="29.522686" lon="103.335325"><ele>3051.512</ele><time>2026-07-21T13:42:36.000Z</time></trkpt>
        <trkpt lat="29.522689" lon="103.335343"><ele>3052.4075</ele><time>2026-07-21T13:42:38.000Z</time></trkpt>
        <trkpt lat="29.522692" lon="103.335361"><ele>3051.63</ele><time>2026-07-21T13:42:40.000Z</time></trkpt>
        <trkpt lat="29.522695" lon="103.33538"><ele>3052.1992</ele><time>2026-07-21T13:42:42.000Z</time></trkpt>
        <trkpt lat="29.522694" lon="103.335394"><ele>3053.229</ele><time>2026-07-21T13:42:44.000Z</time></trkpt>
        <trkpt lat="29.522693" lon="103.33541"><ele>3053.876</ele><time>2026-07-21T13:42:46.000Z</time></trkpt>
        <trkpt lat="29.522693" lon="103.335423"><ele>3054.9297</ele><time>2026-07-21T13:42:48.000Z</time></trkpt>
        <trkpt lat="29.522695" lon="103.335436"><ele>3055.6594</ele><time>2026-07-21T13:42:50.000Z</time></trkpt>
        <trkpt lat="29.522698" lon="103.335451"><ele>3054.5493</ele><time>2026-07-21T13:42:52.000Z</time></trkpt>
        <trkpt lat="29.522702" lon="103.335466"><ele>3055.3604</ele><time>2026-07-21T13:42:54.000Z</time></trkpt>
        <trkpt lat="29.522706" lon="103.335484"><ele>3055.4585</ele><time>2026-07-21T13:42:56.000Z</time></trkpt>
        <trkpt lat="29.522708" lon="103.335496"><ele>3055.5173</ele><time>2026-07-21T13:42:58.000Z</time></trkpt>
        <trkpt lat="29.522709" lon="103.335508"><ele>3055.2168</ele><time>2026-07-21T13:43:00.000Z</time></trkpt>
        <trkpt lat="29.52271" lon="103.335523"><ele>3055.544</ele><time>2026-07-21T13:43:02.000Z</time></trkpt>
        <trkpt lat="29.522711" lon="103.335534"><ele>3055.219</ele><time>2026-07-21T13:43:04.000Z</time></trkpt>
        <trkpt lat="29.522714" lon="103.335542"><ele>3055.059</ele><time>2026-07-21T13:43:10.000Z</time></trkpt>
        <trkpt lat="29.522722" lon="103.335559"><ele>3054.507</ele><time>2026-07-21T13:43:18.000Z</time></trkpt>
        <trkpt lat="29.522725" lon="103.335566"><ele>3054.765</ele><time>2026-07-21T13:43:24.000Z</time></trkpt>
        <trkpt lat="29.522735" lon="103.33559"><ele>3055.584</ele><time>2026-07-21T13:43:26.000Z</time></trkpt>
        <trkpt lat="29.522735" lon="103.335592"><ele>3056.2156</ele><time>2026-07-21T13:43:28.000Z</time></trkpt>
        <trkpt lat="29.522736" lon="103.335603"><ele>3057.1702</ele><time>2026-07-21T13:43:32.000Z</time></trkpt>
        <trkpt lat="29.522739" lon="103.335644"><ele>3057.2332</ele><time>2026-07-21T13:43:36.000Z</time></trkpt>
        <trkpt lat="29.522742" lon="103.335663"><ele>3058.2886</ele><time>2026-07-21T13:43:38.000Z</time></trkpt>
        <trkpt lat="29.522745" lon="103.33568"><ele>3057.979</ele><time>2026-07-21T13:43:40.000Z</time></trkpt>
        <trkpt lat="29.522749" lon="103.335696"><ele>3057.7417</ele><time>2026-07-21T13:43:42.000Z</time></trkpt>
        <trkpt lat="29.522754" lon="103.335711"><ele>3058.3389</ele><time>2026-07-21T13:43:44.000Z</time></trkpt>
        <trkpt lat="29.522756" lon="103.335723"><ele>3058.4973</ele><time>2026-07-21T13:43:46.000Z</time></trkpt>
        <trkpt lat="29.522757" lon="103.335735"><ele>3058.8523</ele><time>2026-07-21T13:43:48.000Z</time></trkpt>
        <trkpt lat="29.522759" lon="103.335747"><ele>3058.4817</ele><time>2026-07-21T13:43:50.000Z</time></trkpt>
        <trkpt lat="29.522757" lon="103.33576"><ele>3058.4753</ele><time>2026-07-21T13:43:54.000Z</time></trkpt>
        <trkpt lat="29.522754" lon="103.335779"><ele>3058.4048</ele><time>2026-07-21T13:43:56.000Z</time></trkpt>
        <trkpt lat="29.522754" lon="103.335782"><ele>3059.4304</ele><time>2026-07-21T13:44:00.000Z</time></trkpt>
        <trkpt lat="29.522757" lon="103.335805"><ele>3060.5938</ele><time>2026-07-21T13:44:04.000Z</time></trkpt>
        <trkpt lat="29.52276" lon="103.335824"><ele>3059.7288</ele><time>2026-07-21T13:44:06.000Z</time></trkpt>
        <trkpt lat="29.522763" lon="103.335844"><ele>3060.0781</ele><time>2026-07-21T13:44:08.000Z</time></trkpt>
        <trkpt lat="29.522767" lon="103.335862"><ele>3061.4268</ele><time>2026-07-21T13:44:10.000Z</time></trkpt>
        <trkpt lat="29.522767" lon="103.335878"><ele>3060.9492</ele><time>2026-07-21T13:44:12.000Z</time></trkpt>
        <trkpt lat="29.522765" lon="103.335892"><ele>3060.3882</ele><time>2026-07-21T13:44:14.000Z</time></trkpt>
        <trkpt lat="29.522759" lon="103.335904"><ele>3060.14</ele><time>2026-07-21T13:44:16.000Z</time></trkpt>
        <trkpt lat="29.522752" lon="103.335911"><ele>3060.3142</ele><time>2026-07-21T13:44:18.000Z</time></trkpt>
        <trkpt lat="29.52274" lon="103.335918"><ele>3060.1108</ele><time>2026-07-21T13:44:20.000Z</time></trkpt>
        <trkpt lat="29.522726" lon="103.335924"><ele>3060.9368</ele><time>2026-07-21T13:44:22.000Z</time></trkpt>
        <trkpt lat="29.522712" lon="103.335929"><ele>3060.7126</ele><time>2026-07-21T13:44:24.000Z</time></trkpt>
        <trkpt lat="29.522697" lon="103.335933"><ele>3060.952</ele><time>2026-07-21T13:44:26.000Z</time></trkpt>
        <trkpt lat="29.522685" lon="103.335936"><ele>3060.9229</ele><time>2026-07-21T13:44:28.000Z</time></trkpt>
        <trkpt lat="29.522673" lon="103.335939"><ele>3061.918</ele><time>2026-07-21T13:44:30.000Z</time></trkpt>
        <trkpt lat="29.52266" lon="103.335944"><ele>3063.299</ele><time>2026-07-21T13:44:32.000Z</time></trkpt>
        <trkpt lat="29.522649" lon="103.335952"><ele>3062.7405</ele><time>2026-07-21T13:44:34.000Z</time></trkpt>
        <trkpt lat="29.522641" lon="103.335965"><ele>3062.6436</ele><time>2026-07-21T13:44:36.000Z</time></trkpt>
        <trkpt lat="29.522639" lon="103.335977"><ele>3063.0422</ele><time>2026-07-21T13:44:38.000Z</time></trkpt>
        <trkpt lat="29.522643" lon="103.335986"><ele>3063.322</ele><time>2026-07-21T13:44:40.000Z</time></trkpt>
        <trkpt lat="29.522653" lon="103.335996"><ele>3063.6387</ele><time>2026-07-21T13:44:42.000Z</time></trkpt>
        <trkpt lat="29.522665" lon="103.336004"><ele>3063.7957</ele><time>2026-07-21T13:44:44.000Z</time></trkpt>
        <trkpt lat="29.522682" lon="103.336012"><ele>3063.4119</ele><time>2026-07-21T13:44:46.000Z</time></trkpt>
        <trkpt lat="29.5227" lon="103.336019"><ele>3064.0498</ele><time>2026-07-21T13:44:48.000Z</time></trkpt>
        <trkpt lat="29.522713" lon="103.336025"><ele>3063.8826</ele><time>2026-07-21T13:44:50.000Z</time></trkpt>
        <trkpt lat="29.522721" lon="103.336028"><ele>3063.8323</ele><time>2026-07-21T13:44:52.000Z</time></trkpt>
        <trkpt lat="29.522738" lon="103.336033"><ele>3062.483</ele><time>2026-07-21T13:44:56.000Z</time></trkpt>
        <trkpt lat="29.522753" lon="103.336034"><ele>3062.2273</ele><time>2026-07-21T13:44:58.000Z</time></trkpt>
        <trkpt lat="29.52277" lon="103.336033"><ele>3062.8555</ele><time>2026-07-21T13:45:00.000Z</time></trkpt>
        <trkpt lat="29.522786" lon="103.336031"><ele>3063.4304</ele><time>2026-07-21T13:45:02.000Z</time></trkpt>
        <trkpt lat="29.522803" lon="103.336027"><ele>3063.4146</ele><time>2026-07-21T13:45:04.000Z</time></trkpt>
        <trkpt lat="29.522819" lon="103.336023"><ele>3063.5356</ele><time>2026-07-21T13:45:06.000Z</time></trkpt>
        <trkpt lat="29.522836" lon="103.336018"><ele>3063.4905</ele><time>2026-07-21T13:45:08.000Z</time></trkpt>
        <trkpt lat="29.522852" lon="103.336014"><ele>3063.6907</ele><time>2026-07-21T13:45:10.000Z</time></trkpt>
        <trkpt lat="29.522869" lon="103.33601"><ele>3063.7979</ele><time>2026-07-21T13:45:12.000Z</time></trkpt>
        <trkpt lat="29.522886" lon="103.336009"><ele>3064.4492</ele><time>2026-07-21T13:45:14.000Z</time></trkpt>
        <trkpt lat="29.522902" lon="103.33601"><ele>3064.2175</ele><time>2026-07-21T13:45:16.000Z</time></trkpt>
        <trkpt lat="29.522918" lon="103.336014"><ele>3064.1719</ele><time>2026-07-21T13:45:18.000Z</time></trkpt>
        <trkpt lat="29.522935" lon="103.336021"><ele>3064.201</ele><time>2026-07-21T13:45:20.000Z</time></trkpt>
        <trkpt lat="29.522953" lon="103.336033"><ele>3063.9746</ele><time>2026-07-21T13:45:22.000Z</time></trkpt>
        <trkpt lat="29.52297" lon="103.336047"><ele>3063.7622</ele><time>2026-07-21T13:45:24.000Z</time></trkpt>
        <trkpt lat="29.522986" lon="103.336061"><ele>3063.5215</ele><time>2026-07-21T13:45:26.000Z</time></trkpt>
        <trkpt lat="29.523" lon="103.336076"><ele>3063.8013</ele><time>2026-07-21T13:45:28.000Z</time></trkpt>
        <trkpt lat="29.523014" lon="103.336094"><ele>3063.9065</ele><time>2026-07-21T13:45:30.000Z</time></trkpt>
        <trkpt lat="29.523027" lon="103.336113"><ele>3064.291</ele><time>2026-07-21T13:45:32.000Z</time></trkpt>
        <trkpt lat="29.523039" lon="103.336135"><ele>3064.0784</ele><time>2026-07-21T13:45:34.000Z</time></trkpt>
        <trkpt lat="29.52305" lon="103.336157"><ele>3063.8035</ele><time>2026-07-21T13:45:36.000Z</time></trkpt>
        <trkpt lat="29.523063" lon="103.336179"><ele>3063.6763</ele><time>2026-07-21T13:45:38.000Z</time></trkpt>
        <trkpt lat="29.523075" lon="103.3362"><ele>3063.8218</ele><time>2026-07-21T13:45:40.000Z</time></trkpt>
        <trkpt lat="29.523086" lon="103.336221"><ele>3063.8596</ele><time>2026-07-21T13:45:42.000Z</time></trkpt>
        <trkpt lat="29.523093" lon="103.33624"><ele>3063.1248</ele><time>2026-07-21T13:45:44.000Z</time></trkpt>
        <trkpt lat="29.523094" lon="103.336256"><ele>3062.9387</ele><time>2026-07-21T13:45:46.000Z</time></trkpt>
        <trkpt lat="29.523095" lon="103.336271"><ele>3062.7527</ele><time>2026-07-21T13:45:48.000Z</time></trkpt>
        <trkpt lat="29.523095" lon="103.336289"><ele>3063.3208</ele><time>2026-07-21T13:45:50.000Z</time></trkpt>
        <trkpt lat="29.523094" lon="103.336301"><ele>3063.1335</ele><time>2026-07-21T13:45:52.000Z</time></trkpt>
        <trkpt lat="29.523092" lon="103.336315"><ele>3061.8335</ele><time>2026-07-21T13:45:54.000Z</time></trkpt>
        <trkpt lat="29.523089" lon="103.336331"><ele>3061.9521</ele><time>2026-07-21T13:45:56.000Z</time></trkpt>
        <trkpt lat="29.523089" lon="103.336347"><ele>3060.8108</ele><time>2026-07-21T13:45:58.000Z</time></trkpt>
        <trkpt lat="29.523091" lon="103.336365"><ele>3061.2231</ele><time>2026-07-21T13:46:00.000Z</time></trkpt>
        <trkpt lat="29.523095" lon="103.336385"><ele>3061.0095</ele><time>2026-07-21T13:46:02.000Z</time></trkpt>
        <trkpt lat="29.523099" lon="103.336406"><ele>3061.0803</ele><time>2026-07-21T13:46:04.000Z</time></trkpt>
        <trkpt lat="29.523103" lon="103.336425"><ele>3061.593</ele><time>2026-07-21T13:46:06.000Z</time></trkpt>
        <trkpt lat="29.523108" lon="103.336443"><ele>3062.1978</ele><time>2026-07-21T13:46:08.000Z</time></trkpt>
        <trkpt lat="29.523115" lon="103.336463"><ele>3062.4153</ele><time>2026-07-21T13:46:10.000Z</time></trkpt>
        <trkpt lat="29.523122" lon="103.336483"><ele>3062.272</ele><time>2026-07-21T13:46:12.000Z</time></trkpt>
        <trkpt lat="29.523128" lon="103.336503"><ele>3063.115</ele><time>2026-07-21T13:46:14.000Z</time></trkpt>
        <trkpt lat="29.523133" lon="103.336523"><ele>3063.4937</ele><time>2026-07-21T13:46:16.000Z</time></trkpt>
        <trkpt lat="29.523138" lon="103.336543"><ele>3063.097</ele><time>2026-07-21T13:46:18.000Z</time></trkpt>
        <trkpt lat="29.523143" lon="103.336565"><ele>3063.4626</ele><time>2026-07-21T13:46:20.000Z</time></trkpt>
        <trkpt lat="29.523148" lon="103.336588"><ele>3063.6526</ele><time>2026-07-21T13:46:22.000Z</time></trkpt>
        <trkpt lat="29.523152" lon="103.33661"><ele>3063.8652</ele><time>2026-07-21T13:46:24.000Z</time></trkpt>
        <trkpt lat="29.523157" lon="103.336633"><ele>3064.254</ele><time>2026-07-21T13:46:26.000Z</time></trkpt>
        <trkpt lat="29.523162" lon="103.336656"><ele>3064.4385</ele><time>2026-07-21T13:46:28.000Z</time></trkpt>
        <trkpt lat="29.523168" lon="103.336677"><ele>3065.302</ele><time>2026-07-21T13:46:30.000Z</time></trkpt>
        <trkpt lat="29.523167" lon="103.336694"><ele>3065.5005</ele><time>2026-07-21T13:46:32.000Z</time></trkpt>
        <trkpt lat="29.523162" lon="103.33671"><ele>3065.0251</ele><time>2026-07-21T13:46:34.000Z</time></trkpt>
        <trkpt lat="29.523154" lon="103.336727"><ele>3064.7358</ele><time>2026-07-21T13:46:36.000Z</time></trkpt>
        <trkpt lat="29.523144" lon="103.336745"><ele>3064.735</ele><time>2026-07-21T13:46:38.000Z</time></trkpt>
        <trkpt lat="29.523134" lon="103.336763"><ele>3065.7075</ele><time>2026-07-21T13:46:40.000Z</time></trkpt>
        <trkpt lat="29.523124" lon="103.336781"><ele>3066.2678</ele><time>2026-07-21T13:46:42.000Z</time></trkpt>
        <trkpt lat="29.523113" lon="103.336801"><ele>3066.345</ele><time>2026-07-21T13:46:44.000Z</time></trkpt>
        <trkpt lat="29.523103" lon="103.336814"><ele>3066.7896</ele><time>2026-07-21T13:46:46.000Z</time></trkpt>
        <trkpt lat="29.523093" lon="103.336826"><ele>3067.9006</ele><time>2026-07-21T13:46:48.000Z</time></trkpt>
        <trkpt lat="29.52308" lon="103.336838"><ele>3069.4785</ele><time>2026-07-21T13:46:50.000Z</time></trkpt>
        <trkpt lat="29.523065" lon="103.336848"><ele>3070.275</ele><time>2026-07-21T13:46:52.000Z</time></trkpt>
        <trkpt lat="29.523052" lon="103.336856"><ele>3071.4883</ele><time>2026-07-21T13:46:54.000Z</time></trkpt>
        <trkpt lat="29.523043" lon="103.336863"><ele>3072.0752</ele><time>2026-07-21T13:46:56.000Z</time></trkpt>
        <trkpt lat="29.523042" lon="103.336871"><ele>3073.552</ele><time>2026-07-21T13:46:58.000Z</time></trkpt>
        <trkpt lat="29.523044" lon="103.336896"><ele>3075.7458</ele><time>2026-07-21T13:47:02.000Z</time></trkpt>
        <trkpt lat="29.523047" lon="103.336912"><ele>3077.4941</ele><time>2026-07-21T13:47:04.000Z</time></trkpt>
        <trkpt lat="29.523053" lon="103.336937"><ele>3078.115</ele><time>2026-07-21T13:47:06.000Z</time></trkpt>
        <trkpt lat="29.523058" lon="103.336961"><ele>3079.4614</ele><time>2026-07-21T13:47:08.000Z</time></trkpt>
        <trkpt lat="29.523063" lon="103.336982"><ele>3079.4128</ele><time>2026-07-21T13:47:10.000Z</time></trkpt>
        <trkpt lat="29.523068" lon="103.337001"><ele>3079.624</ele><time>2026-07-21T13:47:12.000Z</time></trkpt>
        <trkpt lat="29.523073" lon="103.337021"><ele>3080.058</ele><time>2026-07-21T13:47:14.000Z</time></trkpt>
        <trkpt lat="29.52308" lon="103.337036"><ele>3078.4026</ele><time>2026-07-21T13:47:16.000Z</time></trkpt>
        <trkpt lat="29.523089" lon="103.337048"><ele>3077.7798</ele><time>2026-07-21T13:47:18.000Z</time></trkpt>
        <trkpt lat="29.523096" lon="103.337056"><ele>3076.3875</ele><time>2026-07-21T13:47:20.000Z</time></trkpt>
        <trkpt lat="29.523105" lon="103.337067"><ele>3076.108</ele><time>2026-07-21T13:47:22.000Z</time></trkpt>
        <trkpt lat="29.523113" lon="103.337077"><ele>3075.4473</ele><time>2026-07-21T13:47:24.000Z</time></trkpt>
        <trkpt lat="29.523124" lon="103.337085"><ele>3075.2686</ele><time>2026-07-21T13:47:26.000Z</time></trkpt>
        <trkpt lat="29.523132" lon="103.337088"><ele>3075.3315</ele><time>2026-07-21T13:47:28.000Z</time></trkpt>
        <trkpt lat="29.523134" lon="103.337094"><ele>3075.369</ele><time>2026-07-21T13:47:34.000Z</time></trkpt>
        <trkpt lat="29.523141" lon="103.337122"><ele>3073.9236</ele><time>2026-07-21T13:47:40.000Z</time></trkpt>
        <trkpt lat="29.523141" lon="103.337131"><ele>3074.0115</ele><time>2026-07-21T13:47:42.000Z</time></trkpt>
        <trkpt lat="29.52314" lon="103.337131"><ele>3073.9602</ele><time>2026-07-21T13:47:44.000Z</time></trkpt>
        <trkpt lat="29.523092" lon="103.337142"><ele>3074.1821</ele><time>2026-07-21T13:47:50.000Z</time></trkpt>
        <trkpt lat="29.523092" lon="103.337142"><ele>3074.093</ele><time>2026-07-21T13:47:52.000Z</time></trkpt>
        <trkpt lat="29.523091" lon="103.337142"><ele>3074.038</ele><time>2026-07-21T13:47:54.000Z</time></trkpt>
        <trkpt lat="29.523042" lon="103.337155"><ele>3075.1284</ele><time>2026-07-21T13:48:01.000Z</time></trkpt>
        <trkpt lat="29.523016" lon="103.33716"><ele>3075.0315</ele><time>2026-07-21T13:48:03.000Z</time></trkpt>
        <trkpt lat="29.522993" lon="103.337163"><ele>3075.2417</ele><time>2026-07-21T13:48:05.000Z</time></trkpt>
        <trkpt lat="29.522974" lon="103.337164"><ele>3075.8325</ele><time>2026-07-21T13:48:07.000Z</time></trkpt>
        <trkpt lat="29.522956" lon="103.337164"><ele>3076.8506</ele><time>2026-07-21T13:48:09.000Z</time></trkpt>
        <trkpt lat="29.522945" lon="103.337165"><ele>3077.1235</ele><time>2026-07-21T13:48:11.000Z</time></trkpt>
        <trkpt lat="29.522945" lon="103.337167"><ele>3077.2566</ele><time>2026-07-21T13:48:13.000Z</time></trkpt>
        <trkpt lat="29.522941" lon="103.337193"><ele>3078.558</ele><time>2026-07-21T13:48:27.000Z</time></trkpt>
        <trkpt lat="29.522911" lon="103.337201"><ele>3077.9187</ele><time>2026-07-21T13:48:35.000Z</time></trkpt>
        <trkpt lat="29.522911" lon="103.337201"><ele>3078.5588</ele><time>2026-07-21T13:48:37.000Z</time></trkpt>
        <trkpt lat="29.522911" lon="103.337201"><ele>3078.5842</ele><time>2026-07-21T13:48:39.000Z</time></trkpt>
        <trkpt lat="29.522875" lon="103.337183"><ele>3079.3347</ele><time>2026-07-21T13:48:46.000Z</time></trkpt>
        <trkpt lat="29.522875" lon="103.337183"><ele>3078.9954</ele><time>2026-07-21T13:48:48.000Z</time></trkpt>
        <trkpt lat="29.522874" lon="103.337183"><ele>3080.0771</ele><time>2026-07-21T13:48:50.000Z</time></trkpt>
        <trkpt lat="29.522839" lon="103.337179"><ele>3079.8582</ele><time>2026-07-21T13:48:56.000Z</time></trkpt>
        <trkpt lat="29.522823" lon="103.337183"><ele>3078.9473</ele><time>2026-07-21T13:48:58.000Z</time></trkpt>
        <trkpt lat="29.522807" lon="103.337191"><ele>3078.8623</ele><time>2026-07-21T13:49:00.000Z</time></trkpt>
        <trkpt lat="29.522791" lon="103.337202"><ele>3078.7522</ele><time>2026-07-21T13:49:02.000Z</time></trkpt>
        <trkpt lat="29.522777" lon="103.337211"><ele>3078.701</ele><time>2026-07-21T13:49:04.000Z</time></trkpt>
        <trkpt lat="29.522765" lon="103.337215"><ele>3078.2034</ele><time>2026-07-21T13:49:06.000Z</time></trkpt>
        <trkpt lat="29.522749" lon="103.337219"><ele>3077.716</ele><time>2026-07-21T13:49:08.000Z</time></trkpt>
        <trkpt lat="29.522736" lon="103.337219"><ele>3077.2253</ele><time>2026-07-21T13:49:10.000Z</time></trkpt>
        <trkpt lat="29.522722" lon="103.337217"><ele>3076.8167</ele><time>2026-07-21T13:49:12.000Z</time></trkpt>
        <trkpt lat="29.522704" lon="103.337215"><ele>3077.4565</ele><time>2026-07-21T13:49:14.000Z</time></trkpt>
        <trkpt lat="29.522689" lon="103.337216"><ele>3078.3914</ele><time>2026-07-21T13:49:16.000Z</time></trkpt>
        <trkpt lat="29.522676" lon="103.33722"><ele>3078.046</ele><time>2026-07-21T13:49:18.000Z</time></trkpt>
        <trkpt lat="29.52266" lon="103.337228"><ele>3078.2114</ele><time>2026-07-21T13:49:20.000Z</time></trkpt>
        <trkpt lat="29.522642" lon="103.337238"><ele>3078.5059</ele><time>2026-07-21T13:49:22.000Z</time></trkpt>
        <trkpt lat="29.522631" lon="103.337247"><ele>3077.7896</ele><time>2026-07-21T13:49:24.000Z</time></trkpt>
        <trkpt lat="29.522631" lon="103.337251"><ele>3077.4756</ele><time>2026-07-21T13:49:26.000Z</time></trkpt>
        <trkpt lat="29.52263" lon="103.337201"><ele>3077.2327</ele><time>2026-07-21T13:49:34.000Z</time></trkpt>
        <trkpt lat="29.52263" lon="103.337201"><ele>3077.1042</ele><time>2026-07-21T13:49:36.000Z</time></trkpt>
        <trkpt lat="29.522628" lon="103.337199"><ele>3078.0156</ele><time>2026-07-21T13:49:38.000Z</time></trkpt>
        <trkpt lat="29.522602" lon="103.33717"><ele>3077.8862</ele><time>2026-07-21T13:49:44.000Z</time></trkpt>
        <trkpt lat="29.522597" lon="103.337168"><ele>3078.0557</ele><time>2026-07-21T13:49:46.000Z</time></trkpt>
        <trkpt lat="29.522596" lon="103.337165"><ele>3078.046</ele><time>2026-07-21T13:49:48.000Z</time></trkpt>
        <trkpt lat="29.522608" lon="103.337207"><ele>3075.6743</ele><time>2026-07-21T13:50:02.000Z</time></trkpt>
        <trkpt lat="29.522608" lon="103.337224"><ele>3075.5603</ele><time>2026-07-21T13:50:04.000Z</time></trkpt>
        <trkpt lat="29.522608" lon="103.337248"><ele>3075.9878</ele><time>2026-07-21T13:50:06.000Z</time></trkpt>
        <trkpt lat="29.522608" lon="103.33725"><ele>3075.2114</ele><time>2026-07-21T13:50:08.000Z</time></trkpt>
        <trkpt lat="29.5226" lon="103.337261"><ele>3074.1948</ele><time>2026-07-21T13:50:14.000Z</time></trkpt>
        <trkpt lat="29.522577" lon="103.337293"><ele>3074.4788</ele><time>2026-07-21T13:50:18.000Z</time></trkpt>
        <trkpt lat="29.522577" lon="103.337293"><ele>3074.0613</ele><time>2026-07-21T13:50:20.000Z</time></trkpt>
        <trkpt lat="29.522575" lon="103.337294"><ele>3072.5715</ele><time>2026-07-21T13:50:22.000Z</time></trkpt>
        <trkpt lat="29.522542" lon="103.337315"><ele>3072.5178</ele><time>2026-07-21T13:50:28.000Z</time></trkpt>
      </trkseg>
  </trk>
</gpx>